<?xml version='1.0' encoding='UTF-8' ?>
<gpx version="1.1" creator="S Health_0.2" xmlns="http://www.topografix.com/GPX/1/1" xmlns:gpxtpx="http://www.garmin.com/xmlschemas/TrackPointExtension/v1" xmlns:xsi="http://www.w3.org/2001/XMLSchema-instance" xsi:schemaLocation="http://www.topografix.com/GPX/1/1 http://www.topografix.com/GPX/1/1/gpx.xsd http://www.garmin.com/xmlschemas/TrackPointExtension/v1 http://www.garmin.com/xmlschemas/TrackPointExtensionv1.xsd">
  <metadate>2022-05-19T06:52:40Z</metadate>
  <trk>
    <name>Etang_Livry_20220519_085239.gpx</name>
    <trkseg>
      <trkpt lat="47.527645" lon="2.0553544">
        <ele>161.0</ele>
        <time>2022-05-19T06:52:40Z</time>
      </trkpt>
      <trkpt lat="47.527645" lon="2.055354">
        <ele>161.0</ele>
        <time>2022-05-19T06:52:42Z</time>
      </trkpt>
      <trkpt lat="47.527645" lon="2.055363">
        <ele>161.0</ele>
        <time>2022-05-19T06:52:43Z</time>
      </trkpt>
      <trkpt lat="47.527653" lon="2.0553677">
        <ele>162.0</ele>
        <time>2022-05-19T06:52:45Z</time>
      </trkpt>
      <trkpt lat="47.527645" lon="2.055366">
        <ele>163.0</ele>
        <time>2022-05-19T06:52:47Z</time>
      </trkpt>
      <trkpt lat="47.527645" lon="2.055366">
        <ele>163.0</ele>
        <time>2022-05-19T06:52:48Z</time>
      </trkpt>
      <trkpt lat="47.52766" lon="2.0553696">
        <ele>165.0</ele>
        <time>2022-05-19T06:52:49Z</time>
      </trkpt>
      <trkpt lat="47.527664" lon="2.0553699">
        <ele>167.0</ele>
        <time>2022-05-19T06:52:50Z</time>
      </trkpt>
      <trkpt lat="47.52766" lon="2.055369">
        <ele>167.0</ele>
        <time>2022-05-19T06:52:51Z</time>
      </trkpt>
      <trkpt lat="47.527657" lon="2.0553672">
        <ele>168.0</ele>
        <time>2022-05-19T06:52:52Z</time>
      </trkpt>
      <trkpt lat="47.527657" lon="2.0553672">
        <ele>168.0</ele>
        <time>2022-05-19T06:52:53Z</time>
      </trkpt>
      <trkpt lat="47.527657" lon="2.0553672">
        <ele>168.0</ele>
        <time>2022-05-19T06:52:54Z</time>
      </trkpt>
      <trkpt lat="47.527657" lon="2.0553672">
        <ele>168.0</ele>
        <time>2022-05-19T06:52:54Z</time>
      </trkpt>
      <trkpt lat="47.527687" lon="2.05542">
        <ele>166.0</ele>
        <time>2022-05-19T06:53:10Z</time>
      </trkpt>
      <trkpt lat="47.52769" lon="2.055429">
        <ele>166.0</ele>
        <time>2022-05-19T06:53:11Z</time>
      </trkpt>
      <trkpt lat="47.52769" lon="2.0554297">
        <ele>166.0</ele>
        <time>2022-05-19T06:53:13Z</time>
      </trkpt>
      <trkpt lat="47.52769" lon="2.0554297">
        <ele>166.0</ele>
        <time>2022-05-19T06:53:13Z</time>
      </trkpt>
      <trkpt lat="47.52769" lon="2.0554297">
        <ele>166.0</ele>
        <time>2022-05-19T06:53:13Z</time>
      </trkpt>
      <trkpt lat="47.52769" lon="2.0554302">
        <ele>166.0</ele>
        <time>2022-05-19T06:53:35Z</time>
      </trkpt>
      <trkpt lat="47.527695" lon="2.0554636">
        <ele>163.0</ele>
        <time>2022-05-19T06:53:36Z</time>
      </trkpt>
      <trkpt lat="47.5277" lon="2.0554807">
        <ele>163.0</ele>
        <time>2022-05-19T06:53:37Z</time>
      </trkpt>
      <trkpt lat="47.527695" lon="2.0554955">
        <ele>162.0</ele>
        <time>2022-05-19T06:53:38Z</time>
      </trkpt>
      <trkpt lat="47.527706" lon="2.055504">
        <ele>160.0</ele>
        <time>2022-05-19T06:53:39Z</time>
      </trkpt>
      <trkpt lat="47.52771" lon="2.0554914">
        <ele>158.0</ele>
        <time>2022-05-19T06:53:40Z</time>
      </trkpt>
      <trkpt lat="47.527714" lon="2.055482">
        <ele>156.0</ele>
        <time>2022-05-19T06:53:42Z</time>
      </trkpt>
      <trkpt lat="47.527714" lon="2.0554812">
        <ele>156.0</ele>
        <time>2022-05-19T06:53:43Z</time>
      </trkpt>
      <trkpt lat="47.527714" lon="2.0554812">
        <ele>156.0</ele>
        <time>2022-05-19T06:53:43Z</time>
      </trkpt>
      <trkpt lat="47.527714" lon="2.0554812">
        <ele>156.0</ele>
        <time>2022-05-19T06:53:43Z</time>
      </trkpt>
      <trkpt lat="47.527683" lon="2.0554218">
        <ele>159.0</ele>
        <time>2022-05-19T06:58:46Z</time>
      </trkpt>
      <trkpt lat="47.527676" lon="2.0554106">
        <ele>159.0</ele>
        <time>2022-05-19T06:58:47Z</time>
      </trkpt>
      <trkpt lat="47.527657" lon="2.0553935">
        <ele>158.0</ele>
        <time>2022-05-19T06:58:49Z</time>
      </trkpt>
      <trkpt lat="47.527657" lon="2.0553858">
        <ele>157.0</ele>
        <time>2022-05-19T06:58:51Z</time>
      </trkpt>
      <trkpt lat="47.52766" lon="2.0553858">
        <ele>157.0</ele>
        <time>2022-05-19T06:58:52Z</time>
      </trkpt>
      <trkpt lat="47.52766" lon="2.0553858">
        <ele>157.0</ele>
        <time>2022-05-19T06:58:53Z</time>
      </trkpt>
      <trkpt lat="47.52766" lon="2.0553858">
        <ele>157.0</ele>
        <time>2022-05-19T06:58:53Z</time>
      </trkpt>
      <trkpt lat="47.52766" lon="2.0553858">
        <ele>157.0</ele>
        <time>2022-05-19T06:58:53Z</time>
      </trkpt>
      <trkpt lat="47.52769" lon="2.055388">
        <ele>157.0</ele>
        <time>2022-05-19T06:59:15Z</time>
      </trkpt>
      <trkpt lat="47.52769" lon="2.055388">
        <ele>157.0</ele>
        <time>2022-05-19T06:59:16Z</time>
      </trkpt>
      <trkpt lat="47.52769" lon="2.055388">
        <ele>157.0</ele>
        <time>2022-05-19T06:59:17Z</time>
      </trkpt>
      <trkpt lat="47.52769" lon="2.055388">
        <ele>157.0</ele>
        <time>2022-05-19T06:59:17Z</time>
      </trkpt>
      <trkpt lat="47.52769" lon="2.055388">
        <ele>157.0</ele>
        <time>2022-05-19T06:59:17Z</time>
      </trkpt>
      <trkpt lat="47.527687" lon="2.055393">
        <ele>155.0</ele>
        <time>2022-05-19T06:59:32Z</time>
      </trkpt>
      <trkpt lat="47.527687" lon="2.055393">
        <ele>155.0</ele>
        <time>2022-05-19T06:59:33Z</time>
      </trkpt>
      <trkpt lat="47.527687" lon="2.055393">
        <ele>155.0</ele>
        <time>2022-05-19T06:59:34Z</time>
      </trkpt>
      <trkpt lat="47.527687" lon="2.055393">
        <ele>155.0</ele>
        <time>2022-05-19T06:59:35Z</time>
      </trkpt>
      <trkpt lat="47.527687" lon="2.0553927">
        <ele>154.0</ele>
        <time>2022-05-19T06:59:36Z</time>
      </trkpt>
      <trkpt lat="47.527687" lon="2.0553944">
        <ele>154.0</ele>
        <time>2022-05-19T06:59:37Z</time>
      </trkpt>
      <trkpt lat="47.527687" lon="2.0553944">
        <ele>154.0</ele>
        <time>2022-05-19T06:59:38Z</time>
      </trkpt>
      <trkpt lat="47.527687" lon="2.0553944">
        <ele>154.0</ele>
        <time>2022-05-19T06:59:39Z</time>
      </trkpt>
      <trkpt lat="47.527695" lon="2.055395">
        <ele>154.0</ele>
        <time>2022-05-19T06:59:40Z</time>
      </trkpt>
      <trkpt lat="47.527695" lon="2.055395">
        <ele>154.0</ele>
        <time>2022-05-19T06:59:41Z</time>
      </trkpt>
      <trkpt lat="47.527695" lon="2.055395">
        <ele>154.0</ele>
        <time>2022-05-19T06:59:41Z</time>
      </trkpt>
      <trkpt lat="47.527695" lon="2.055395">
        <ele>154.0</ele>
        <time>2022-05-19T06:59:41Z</time>
      </trkpt>
      <trkpt lat="47.527683" lon="2.0553858">
        <ele>155.0</ele>
        <time>2022-05-19T07:00:06Z</time>
      </trkpt>
      <trkpt lat="47.527683" lon="2.0553823">
        <ele>156.0</ele>
        <time>2022-05-19T07:00:07Z</time>
      </trkpt>
      <trkpt lat="47.527683" lon="2.055389">
        <ele>155.0</ele>
        <time>2022-05-19T07:00:08Z</time>
      </trkpt>
      <trkpt lat="47.527676" lon="2.0553925">
        <ele>154.0</ele>
        <time>2022-05-19T07:00:09Z</time>
      </trkpt>
      <trkpt lat="47.52768" lon="2.055392">
        <ele>154.0</ele>
        <time>2022-05-19T07:00:10Z</time>
      </trkpt>
      <trkpt lat="47.52768" lon="2.0553937">
        <ele>154.0</ele>
        <time>2022-05-19T07:00:11Z</time>
      </trkpt>
      <trkpt lat="47.52768" lon="2.0553935">
        <ele>154.0</ele>
        <time>2022-05-19T07:00:12Z</time>
      </trkpt>
      <trkpt lat="47.52768" lon="2.0553935">
        <ele>154.0</ele>
        <time>2022-05-19T07:00:12Z</time>
      </trkpt>
      <trkpt lat="47.52768" lon="2.0553935">
        <ele>154.0</ele>
        <time>2022-05-19T07:00:12Z</time>
      </trkpt>
      <trkpt lat="47.527683" lon="2.0555673">
        <ele>149.0</ele>
        <time>2022-05-19T07:02:56Z</time>
      </trkpt>
      <trkpt lat="47.527683" lon="2.0555708">
        <ele>148.0</ele>
        <time>2022-05-19T07:02:57Z</time>
      </trkpt>
      <trkpt lat="47.527683" lon="2.0555708">
        <ele>148.0</ele>
        <time>2022-05-19T07:02:58Z</time>
      </trkpt>
      <trkpt lat="47.52769" lon="2.0555947">
        <ele>147.0</ele>
        <time>2022-05-19T07:02:59Z</time>
      </trkpt>
      <trkpt lat="47.52769" lon="2.0556116">
        <ele>147.0</ele>
        <time>2022-05-19T07:03:00Z</time>
      </trkpt>
      <trkpt lat="47.52769" lon="2.0556166">
        <ele>147.0</ele>
        <time>2022-05-19T07:03:01Z</time>
      </trkpt>
      <trkpt lat="47.5277" lon="2.055604">
        <ele>147.0</ele>
        <time>2022-05-19T07:03:02Z</time>
      </trkpt>
      <trkpt lat="47.5277" lon="2.055594">
        <ele>148.0</ele>
        <time>2022-05-19T07:03:03Z</time>
      </trkpt>
      <trkpt lat="47.527695" lon="2.0555823">
        <ele>147.0</ele>
        <time>2022-05-19T07:03:04Z</time>
      </trkpt>
      <trkpt lat="47.527695" lon="2.0555823">
        <ele>147.0</ele>
        <time>2022-05-19T07:03:05Z</time>
      </trkpt>
      <trkpt lat="47.527695" lon="2.0555823">
        <ele>147.0</ele>
        <time>2022-05-19T07:03:06Z</time>
      </trkpt>
      <trkpt lat="47.52769" lon="2.0555816">
        <ele>148.0</ele>
        <time>2022-05-19T07:03:07Z</time>
      </trkpt>
      <trkpt lat="47.52769" lon="2.0555894">
        <ele>149.0</ele>
        <time>2022-05-19T07:03:08Z</time>
      </trkpt>
      <trkpt lat="47.52769" lon="2.0556016">
        <ele>149.0</ele>
        <time>2022-05-19T07:03:09Z</time>
      </trkpt>
      <trkpt lat="47.5277" lon="2.0556173">
        <ele>150.0</ele>
        <time>2022-05-19T07:03:10Z</time>
      </trkpt>
      <trkpt lat="47.527695" lon="2.05563">
        <ele>151.0</ele>
        <time>2022-05-19T07:03:11Z</time>
      </trkpt>
      <trkpt lat="47.527695" lon="2.0556438">
        <ele>151.0</ele>
        <time>2022-05-19T07:03:12Z</time>
      </trkpt>
      <trkpt lat="47.527695" lon="2.0556607">
        <ele>151.0</ele>
        <time>2022-05-19T07:03:13Z</time>
      </trkpt>
      <trkpt lat="47.52769" lon="2.055676">
        <ele>150.0</ele>
        <time>2022-05-19T07:03:14Z</time>
      </trkpt>
      <trkpt lat="47.527687" lon="2.0556886">
        <ele>150.0</ele>
        <time>2022-05-19T07:03:15Z</time>
      </trkpt>
      <trkpt lat="47.52767" lon="2.055707">
        <ele>150.0</ele>
        <time>2022-05-19T07:03:17Z</time>
      </trkpt>
      <trkpt lat="47.52766" lon="2.0557137">
        <ele>150.0</ele>
        <time>2022-05-19T07:03:18Z</time>
      </trkpt>
      <trkpt lat="47.527653" lon="2.0557227">
        <ele>150.0</ele>
        <time>2022-05-19T07:03:19Z</time>
      </trkpt>
      <trkpt lat="47.52764" lon="2.0557349">
        <ele>150.0</ele>
        <time>2022-05-19T07:03:20Z</time>
      </trkpt>
      <trkpt lat="47.527637" lon="2.055743">
        <ele>149.0</ele>
        <time>2022-05-19T07:03:21Z</time>
      </trkpt>
      <trkpt lat="47.52763" lon="2.0557492">
        <ele>149.0</ele>
        <time>2022-05-19T07:03:22Z</time>
      </trkpt>
      <trkpt lat="47.527626" lon="2.0557594">
        <ele>149.0</ele>
        <time>2022-05-19T07:03:23Z</time>
      </trkpt>
      <trkpt lat="47.527615" lon="2.055768">
        <ele>149.0</ele>
        <time>2022-05-19T07:03:24Z</time>
      </trkpt>
      <trkpt lat="47.527607" lon="2.0557787">
        <ele>149.0</ele>
        <time>2022-05-19T07:03:25Z</time>
      </trkpt>
      <trkpt lat="47.527603" lon="2.0557895">
        <ele>149.0</ele>
        <time>2022-05-19T07:03:26Z</time>
      </trkpt>
      <trkpt lat="47.527596" lon="2.0557978">
        <ele>149.0</ele>
        <time>2022-05-19T07:03:27Z</time>
      </trkpt>
      <trkpt lat="47.527584" lon="2.0558052">
        <ele>149.0</ele>
        <time>2022-05-19T07:03:28Z</time>
      </trkpt>
      <trkpt lat="47.52758" lon="2.055811">
        <ele>149.0</ele>
        <time>2022-05-19T07:03:29Z</time>
      </trkpt>
      <trkpt lat="47.52758" lon="2.0558076">
        <ele>149.0</ele>
        <time>2022-05-19T07:03:30Z</time>
      </trkpt>
      <trkpt lat="47.52758" lon="2.055809">
        <ele>149.0</ele>
        <time>2022-05-19T07:03:31Z</time>
      </trkpt>
      <trkpt lat="47.527573" lon="2.0558085">
        <ele>149.0</ele>
        <time>2022-05-19T07:03:32Z</time>
      </trkpt>
      <trkpt lat="47.527565" lon="2.0558128">
        <ele>149.0</ele>
        <time>2022-05-19T07:03:33Z</time>
      </trkpt>
      <trkpt lat="47.527557" lon="2.0558107">
        <ele>149.0</ele>
        <time>2022-05-19T07:03:34Z</time>
      </trkpt>
      <trkpt lat="47.52755" lon="2.0558064">
        <ele>150.0</ele>
        <time>2022-05-19T07:03:35Z</time>
      </trkpt>
      <trkpt lat="47.527542" lon="2.0558076">
        <ele>150.0</ele>
        <time>2022-05-19T07:03:36Z</time>
      </trkpt>
      <trkpt lat="47.527534" lon="2.0558128">
        <ele>150.0</ele>
        <time>2022-05-19T07:03:37Z</time>
      </trkpt>
      <trkpt lat="47.527527" lon="2.0558171">
        <ele>150.0</ele>
        <time>2022-05-19T07:03:38Z</time>
      </trkpt>
      <trkpt lat="47.527527" lon="2.0558248">
        <ele>150.0</ele>
        <time>2022-05-19T07:03:39Z</time>
      </trkpt>
      <trkpt lat="47.52752" lon="2.0558276">
        <ele>150.0</ele>
        <time>2022-05-19T07:03:40Z</time>
      </trkpt>
      <trkpt lat="47.527515" lon="2.0558362">
        <ele>150.0</ele>
        <time>2022-05-19T07:03:41Z</time>
      </trkpt>
      <trkpt lat="47.52751" lon="2.0558398">
        <ele>150.0</ele>
        <time>2022-05-19T07:03:42Z</time>
      </trkpt>
      <trkpt lat="47.52751" lon="2.0558398">
        <ele>150.0</ele>
        <time>2022-05-19T07:03:43Z</time>
      </trkpt>
      <trkpt lat="47.5275" lon="2.0558527">
        <ele>149.0</ele>
        <time>2022-05-19T07:03:44Z</time>
      </trkpt>
      <trkpt lat="47.527496" lon="2.0558567">
        <ele>148.0</ele>
        <time>2022-05-19T07:03:45Z</time>
      </trkpt>
      <trkpt lat="47.527485" lon="2.0558612">
        <ele>148.0</ele>
        <time>2022-05-19T07:03:46Z</time>
      </trkpt>
      <trkpt lat="47.527473" lon="2.0558612">
        <ele>149.0</ele>
        <time>2022-05-19T07:03:47Z</time>
      </trkpt>
      <trkpt lat="47.527466" lon="2.0558634">
        <ele>149.0</ele>
        <time>2022-05-19T07:03:48Z</time>
      </trkpt>
      <trkpt lat="47.527454" lon="2.0558686">
        <ele>149.0</ele>
        <time>2022-05-19T07:03:49Z</time>
      </trkpt>
      <trkpt lat="47.52744" lon="2.0558743">
        <ele>150.0</ele>
        <time>2022-05-19T07:03:50Z</time>
      </trkpt>
      <trkpt lat="47.527424" lon="2.055878">
        <ele>150.0</ele>
        <time>2022-05-19T07:03:51Z</time>
      </trkpt>
      <trkpt lat="47.52742" lon="2.055879">
        <ele>150.0</ele>
        <time>2022-05-19T07:03:52Z</time>
      </trkpt>
      <trkpt lat="47.527416" lon="2.0558774">
        <ele>151.0</ele>
        <time>2022-05-19T07:03:53Z</time>
      </trkpt>
      <trkpt lat="47.52741" lon="2.0558827">
        <ele>151.0</ele>
        <time>2022-05-19T07:03:54Z</time>
      </trkpt>
      <trkpt lat="47.5274" lon="2.055894">
        <ele>152.0</ele>
        <time>2022-05-19T07:03:55Z</time>
      </trkpt>
      <trkpt lat="47.527386" lon="2.0559106">
        <ele>152.0</ele>
        <time>2022-05-19T07:03:56Z</time>
      </trkpt>
      <trkpt lat="47.52736" lon="2.0559201">
        <ele>152.0</ele>
        <time>2022-05-19T07:03:58Z</time>
      </trkpt>
      <trkpt lat="47.52734" lon="2.0559344">
        <ele>153.0</ele>
        <time>2022-05-19T07:04:00Z</time>
      </trkpt>
      <trkpt lat="47.527332" lon="2.055943">
        <ele>153.0</ele>
        <time>2022-05-19T07:04:01Z</time>
      </trkpt>
      <trkpt lat="47.52733" lon="2.0559518">
        <ele>153.0</ele>
        <time>2022-05-19T07:04:02Z</time>
      </trkpt>
      <trkpt lat="47.52732" lon="2.0559597">
        <ele>153.0</ele>
        <time>2022-05-19T07:04:03Z</time>
      </trkpt>
      <trkpt lat="47.527317" lon="2.0559669">
        <ele>153.0</ele>
        <time>2022-05-19T07:04:04Z</time>
      </trkpt>
      <trkpt lat="47.527298" lon="2.0559735">
        <ele>153.0</ele>
        <time>2022-05-19T07:04:05Z</time>
      </trkpt>
      <trkpt lat="47.527275" lon="2.0559824">
        <ele>152.0</ele>
        <time>2022-05-19T07:04:06Z</time>
      </trkpt>
      <trkpt lat="47.527252" lon="2.055994">
        <ele>153.0</ele>
        <time>2022-05-19T07:04:07Z</time>
      </trkpt>
      <trkpt lat="47.527214" lon="2.056015">
        <ele>153.0</ele>
        <time>2022-05-19T07:04:09Z</time>
      </trkpt>
      <trkpt lat="47.527176" lon="2.0560155">
        <ele>152.0</ele>
        <time>2022-05-19T07:04:11Z</time>
      </trkpt>
      <trkpt lat="47.527157" lon="2.0560112">
        <ele>152.0</ele>
        <time>2022-05-19T07:04:12Z</time>
      </trkpt>
      <trkpt lat="47.52715" lon="2.0560162">
        <ele>152.0</ele>
        <time>2022-05-19T07:04:13Z</time>
      </trkpt>
      <trkpt lat="47.52714" lon="2.0560136">
        <ele>151.0</ele>
        <time>2022-05-19T07:04:14Z</time>
      </trkpt>
      <trkpt lat="47.527134" lon="2.0560114">
        <ele>151.0</ele>
        <time>2022-05-19T07:04:15Z</time>
      </trkpt>
      <trkpt lat="47.527122" lon="2.0560114">
        <ele>151.0</ele>
        <time>2022-05-19T07:04:16Z</time>
      </trkpt>
      <trkpt lat="47.52711" lon="2.0560172">
        <ele>151.0</ele>
        <time>2022-05-19T07:04:17Z</time>
      </trkpt>
      <trkpt lat="47.527107" lon="2.056023">
        <ele>151.0</ele>
        <time>2022-05-19T07:04:18Z</time>
      </trkpt>
      <trkpt lat="47.5271" lon="2.0560312">
        <ele>151.0</ele>
        <time>2022-05-19T07:04:19Z</time>
      </trkpt>
      <trkpt lat="47.5271" lon="2.0560312">
        <ele>151.0</ele>
        <time>2022-05-19T07:04:20Z</time>
      </trkpt>
      <trkpt lat="47.5271" lon="2.0560312">
        <ele>151.0</ele>
        <time>2022-05-19T07:04:21Z</time>
      </trkpt>
      <trkpt lat="47.52709" lon="2.0560381">
        <ele>150.0</ele>
        <time>2022-05-19T07:04:22Z</time>
      </trkpt>
      <trkpt lat="47.527077" lon="2.0560439">
        <ele>150.0</ele>
        <time>2022-05-19T07:04:23Z</time>
      </trkpt>
      <trkpt lat="47.527065" lon="2.0560524">
        <ele>150.0</ele>
        <time>2022-05-19T07:04:24Z</time>
      </trkpt>
      <trkpt lat="47.527058" lon="2.0560594">
        <ele>150.0</ele>
        <time>2022-05-19T07:04:25Z</time>
      </trkpt>
      <trkpt lat="47.52705" lon="2.0560617">
        <ele>150.0</ele>
        <time>2022-05-19T07:04:27Z</time>
      </trkpt>
      <trkpt lat="47.527046" lon="2.056061">
        <ele>150.0</ele>
        <time>2022-05-19T07:04:28Z</time>
      </trkpt>
      <trkpt lat="47.52704" lon="2.0560641">
        <ele>150.0</ele>
        <time>2022-05-19T07:04:28Z</time>
      </trkpt>
      <trkpt lat="47.527035" lon="2.0560648">
        <ele>150.0</ele>
        <time>2022-05-19T07:04:29Z</time>
      </trkpt>
      <trkpt lat="47.527035" lon="2.0560648">
        <ele>150.0</ele>
        <time>2022-05-19T07:04:31Z</time>
      </trkpt>
      <trkpt lat="47.527035" lon="2.0560648">
        <ele>150.0</ele>
        <time>2022-05-19T07:04:32Z</time>
      </trkpt>
      <trkpt lat="47.527035" lon="2.0560648">
        <ele>150.0</ele>
        <time>2022-05-19T07:04:33Z</time>
      </trkpt>
      <trkpt lat="47.52701" lon="2.0560892">
        <ele>149.0</ele>
        <time>2022-05-19T07:04:34Z</time>
      </trkpt>
      <trkpt lat="47.527004" lon="2.0561018">
        <ele>149.0</ele>
        <time>2022-05-19T07:04:35Z</time>
      </trkpt>
      <trkpt lat="47.526993" lon="2.0561168">
        <ele>149.0</ele>
        <time>2022-05-19T07:04:36Z</time>
      </trkpt>
      <trkpt lat="47.526985" lon="2.0561368">
        <ele>150.0</ele>
        <time>2022-05-19T07:04:37Z</time>
      </trkpt>
      <trkpt lat="47.526974" lon="2.0561547">
        <ele>149.0</ele>
        <time>2022-05-19T07:04:38Z</time>
      </trkpt>
      <trkpt lat="47.526966" lon="2.0561712">
        <ele>149.0</ele>
        <time>2022-05-19T07:04:39Z</time>
      </trkpt>
      <trkpt lat="47.52696" lon="2.056187">
        <ele>149.0</ele>
        <time>2022-05-19T07:04:40Z</time>
      </trkpt>
      <trkpt lat="47.52696" lon="2.0562072">
        <ele>148.0</ele>
        <time>2022-05-19T07:04:41Z</time>
      </trkpt>
      <trkpt lat="47.52695" lon="2.0562205">
        <ele>148.0</ele>
        <time>2022-05-19T07:04:42Z</time>
      </trkpt>
      <trkpt lat="47.52694" lon="2.0562363">
        <ele>148.0</ele>
        <time>2022-05-19T07:04:43Z</time>
      </trkpt>
      <trkpt lat="47.52693" lon="2.0562508">
        <ele>147.0</ele>
        <time>2022-05-19T07:04:44Z</time>
      </trkpt>
      <trkpt lat="47.52692" lon="2.0562704">
        <ele>148.0</ele>
        <time>2022-05-19T07:04:45Z</time>
      </trkpt>
      <trkpt lat="47.52692" lon="2.0562704">
        <ele>148.0</ele>
        <time>2022-05-19T07:04:46Z</time>
      </trkpt>
      <trkpt lat="47.52692" lon="2.0562704">
        <ele>148.0</ele>
        <time>2022-05-19T07:04:47Z</time>
      </trkpt>
      <trkpt lat="47.526897" lon="2.0563178">
        <ele>148.0</ele>
        <time>2022-05-19T07:04:48Z</time>
      </trkpt>
      <trkpt lat="47.52689" lon="2.056338">
        <ele>148.0</ele>
        <time>2022-05-19T07:04:49Z</time>
      </trkpt>
      <trkpt lat="47.526882" lon="2.0563526">
        <ele>147.0</ele>
        <time>2022-05-19T07:04:50Z</time>
      </trkpt>
      <trkpt lat="47.526875" lon="2.0563636">
        <ele>148.0</ele>
        <time>2022-05-19T07:04:51Z</time>
      </trkpt>
      <trkpt lat="47.526867" lon="2.0563736">
        <ele>148.0</ele>
        <time>2022-05-19T07:04:52Z</time>
      </trkpt>
      <trkpt lat="47.52686" lon="2.0563843">
        <ele>147.0</ele>
        <time>2022-05-19T07:04:53Z</time>
      </trkpt>
      <trkpt lat="47.52685" lon="2.0564005">
        <ele>147.0</ele>
        <time>2022-05-19T07:04:54Z</time>
      </trkpt>
      <trkpt lat="47.526844" lon="2.0564127">
        <ele>148.0</ele>
        <time>2022-05-19T07:04:55Z</time>
      </trkpt>
      <trkpt lat="47.526844" lon="2.0564127">
        <ele>148.0</ele>
        <time>2022-05-19T07:04:56Z</time>
      </trkpt>
      <trkpt lat="47.526844" lon="2.0564127">
        <ele>148.0</ele>
        <time>2022-05-19T07:04:57Z</time>
      </trkpt>
      <trkpt lat="47.526836" lon="2.0564375">
        <ele>148.0</ele>
        <time>2022-05-19T07:04:58Z</time>
      </trkpt>
      <trkpt lat="47.526833" lon="2.0564482">
        <ele>147.0</ele>
        <time>2022-05-19T07:04:59Z</time>
      </trkpt>
      <trkpt lat="47.52683" lon="2.0564623">
        <ele>147.0</ele>
        <time>2022-05-19T07:05:00Z</time>
      </trkpt>
      <trkpt lat="47.52682" lon="2.0564728">
        <ele>146.0</ele>
        <time>2022-05-19T07:05:01Z</time>
      </trkpt>
      <trkpt lat="47.52682" lon="2.0564728">
        <ele>146.0</ele>
        <time>2022-05-19T07:05:02Z</time>
      </trkpt>
      <trkpt lat="47.52682" lon="2.0564728">
        <ele>146.0</ele>
        <time>2022-05-19T07:05:03Z</time>
      </trkpt>
      <trkpt lat="47.52681" lon="2.0565088">
        <ele>146.0</ele>
        <time>2022-05-19T07:05:04Z</time>
      </trkpt>
      <trkpt lat="47.526802" lon="2.056525">
        <ele>147.0</ele>
        <time>2022-05-19T07:05:05Z</time>
      </trkpt>
      <trkpt lat="47.526794" lon="2.056544">
        <ele>147.0</ele>
        <time>2022-05-19T07:05:06Z</time>
      </trkpt>
      <trkpt lat="47.526787" lon="2.05656">
        <ele>147.0</ele>
        <time>2022-05-19T07:05:07Z</time>
      </trkpt>
      <trkpt lat="47.526787" lon="2.05656">
        <ele>147.0</ele>
        <time>2022-05-19T07:05:08Z</time>
      </trkpt>
      <trkpt lat="47.526787" lon="2.05656">
        <ele>147.0</ele>
        <time>2022-05-19T07:05:09Z</time>
      </trkpt>
      <trkpt lat="47.526775" lon="2.0565963">
        <ele>147.0</ele>
        <time>2022-05-19T07:05:10Z</time>
      </trkpt>
      <trkpt lat="47.526775" lon="2.0566118">
        <ele>147.0</ele>
        <time>2022-05-19T07:05:11Z</time>
      </trkpt>
      <trkpt lat="47.526775" lon="2.0566242">
        <ele>147.0</ele>
        <time>2022-05-19T07:05:12Z</time>
      </trkpt>
      <trkpt lat="47.526775" lon="2.056637">
        <ele>147.0</ele>
        <time>2022-05-19T07:05:13Z</time>
      </trkpt>
      <trkpt lat="47.526775" lon="2.0566504">
        <ele>147.0</ele>
        <time>2022-05-19T07:05:14Z</time>
      </trkpt>
      <trkpt lat="47.526775" lon="2.0566695">
        <ele>147.0</ele>
        <time>2022-05-19T07:05:15Z</time>
      </trkpt>
      <trkpt lat="47.52677" lon="2.0566878">
        <ele>147.0</ele>
        <time>2022-05-19T07:05:16Z</time>
      </trkpt>
      <trkpt lat="47.52677" lon="2.0567062">
        <ele>147.0</ele>
        <time>2022-05-19T07:05:17Z</time>
      </trkpt>
      <trkpt lat="47.52677" lon="2.0567248">
        <ele>147.0</ele>
        <time>2022-05-19T07:05:18Z</time>
      </trkpt>
      <trkpt lat="47.52677" lon="2.0567434">
        <ele>147.0</ele>
        <time>2022-05-19T07:05:19Z</time>
      </trkpt>
      <trkpt lat="47.526775" lon="2.056766">
        <ele>147.0</ele>
        <time>2022-05-19T07:05:20Z</time>
      </trkpt>
      <trkpt lat="47.52678" lon="2.0567827">
        <ele>147.0</ele>
        <time>2022-05-19T07:05:21Z</time>
      </trkpt>
      <trkpt lat="47.526783" lon="2.0567958">
        <ele>147.0</ele>
        <time>2022-05-19T07:05:22Z</time>
      </trkpt>
      <trkpt lat="47.526787" lon="2.0568147">
        <ele>147.0</ele>
        <time>2022-05-19T07:05:23Z</time>
      </trkpt>
      <trkpt lat="47.526783" lon="2.0568314">
        <ele>146.0</ele>
        <time>2022-05-19T07:05:24Z</time>
      </trkpt>
      <trkpt lat="47.526783" lon="2.0568485">
        <ele>146.0</ele>
        <time>2022-05-19T07:05:25Z</time>
      </trkpt>
      <trkpt lat="47.526783" lon="2.0568664">
        <ele>146.0</ele>
        <time>2022-05-19T07:05:26Z</time>
      </trkpt>
      <trkpt lat="47.52678" lon="2.056886">
        <ele>146.0</ele>
        <time>2022-05-19T07:05:27Z</time>
      </trkpt>
      <trkpt lat="47.52678" lon="2.056905">
        <ele>145.0</ele>
        <time>2022-05-19T07:05:28Z</time>
      </trkpt>
      <trkpt lat="47.52678" lon="2.0569236">
        <ele>145.0</ele>
        <time>2022-05-19T07:05:29Z</time>
      </trkpt>
      <trkpt lat="47.526783" lon="2.05694">
        <ele>146.0</ele>
        <time>2022-05-19T07:05:30Z</time>
      </trkpt>
      <trkpt lat="47.526787" lon="2.056954">
        <ele>146.0</ele>
        <time>2022-05-19T07:05:31Z</time>
      </trkpt>
      <trkpt lat="47.52679" lon="2.0569675">
        <ele>145.0</ele>
        <time>2022-05-19T07:05:32Z</time>
      </trkpt>
      <trkpt lat="47.526787" lon="2.0569818">
        <ele>146.0</ele>
        <time>2022-05-19T07:05:33Z</time>
      </trkpt>
      <trkpt lat="47.52679" lon="2.0569978">
        <ele>146.0</ele>
        <time>2022-05-19T07:05:34Z</time>
      </trkpt>
      <trkpt lat="47.526794" lon="2.0570102">
        <ele>146.0</ele>
        <time>2022-05-19T07:05:35Z</time>
      </trkpt>
      <trkpt lat="47.526802" lon="2.0570235">
        <ele>145.0</ele>
        <time>2022-05-19T07:05:36Z</time>
      </trkpt>
      <trkpt lat="47.52681" lon="2.0570366">
        <ele>145.0</ele>
        <time>2022-05-19T07:05:37Z</time>
      </trkpt>
      <trkpt lat="47.526817" lon="2.057049">
        <ele>144.0</ele>
        <time>2022-05-19T07:05:38Z</time>
      </trkpt>
      <trkpt lat="47.526825" lon="2.0570629">
        <ele>144.0</ele>
        <time>2022-05-19T07:05:39Z</time>
      </trkpt>
      <trkpt lat="47.52683" lon="2.057073">
        <ele>144.0</ele>
        <time>2022-05-19T07:05:40Z</time>
      </trkpt>
      <trkpt lat="47.52684" lon="2.0570846">
        <ele>145.0</ele>
        <time>2022-05-19T07:05:41Z</time>
      </trkpt>
      <trkpt lat="47.526848" lon="2.0570948">
        <ele>145.0</ele>
        <time>2022-05-19T07:05:42Z</time>
      </trkpt>
      <trkpt lat="47.52685" lon="2.0571077">
        <ele>145.0</ele>
        <time>2022-05-19T07:05:43Z</time>
      </trkpt>
      <trkpt lat="47.526855" lon="2.0571256">
        <ele>145.0</ele>
        <time>2022-05-19T07:05:44Z</time>
      </trkpt>
      <trkpt lat="47.52686" lon="2.057147">
        <ele>146.0</ele>
        <time>2022-05-19T07:05:45Z</time>
      </trkpt>
      <trkpt lat="47.52686" lon="2.057166">
        <ele>146.0</ele>
        <time>2022-05-19T07:05:46Z</time>
      </trkpt>
      <trkpt lat="47.52686" lon="2.0571892">
        <ele>146.0</ele>
        <time>2022-05-19T07:05:47Z</time>
      </trkpt>
      <trkpt lat="47.526855" lon="2.0572135">
        <ele>146.0</ele>
        <time>2022-05-19T07:05:48Z</time>
      </trkpt>
      <trkpt lat="47.526848" lon="2.0572343">
        <ele>146.0</ele>
        <time>2022-05-19T07:05:49Z</time>
      </trkpt>
      <trkpt lat="47.52684" lon="2.0572546">
        <ele>146.0</ele>
        <time>2022-05-19T07:05:50Z</time>
      </trkpt>
      <trkpt lat="47.52683" lon="2.057271">
        <ele>146.0</ele>
        <time>2022-05-19T07:05:51Z</time>
      </trkpt>
      <trkpt lat="47.526814" lon="2.0572977">
        <ele>147.0</ele>
        <time>2022-05-19T07:05:52Z</time>
      </trkpt>
      <trkpt lat="47.526806" lon="2.057322">
        <ele>147.0</ele>
        <time>2022-05-19T07:05:53Z</time>
      </trkpt>
      <trkpt lat="47.526806" lon="2.0573547">
        <ele>147.0</ele>
        <time>2022-05-19T07:05:54Z</time>
      </trkpt>
      <trkpt lat="47.526806" lon="2.0573816">
        <ele>147.0</ele>
        <time>2022-05-19T07:05:55Z</time>
      </trkpt>
      <trkpt lat="47.5268" lon="2.0574067">
        <ele>147.0</ele>
        <time>2022-05-19T07:05:56Z</time>
      </trkpt>
      <trkpt lat="47.52679" lon="2.0574257">
        <ele>147.0</ele>
        <time>2022-05-19T07:05:57Z</time>
      </trkpt>
      <trkpt lat="47.526787" lon="2.0574412">
        <ele>147.0</ele>
        <time>2022-05-19T07:05:58Z</time>
      </trkpt>
      <trkpt lat="47.526783" lon="2.0574548">
        <ele>148.0</ele>
        <time>2022-05-19T07:05:59Z</time>
      </trkpt>
      <trkpt lat="47.526775" lon="2.0574658">
        <ele>148.0</ele>
        <time>2022-05-19T07:06:00Z</time>
      </trkpt>
      <trkpt lat="47.526764" lon="2.0574813">
        <ele>148.0</ele>
        <time>2022-05-19T07:06:01Z</time>
      </trkpt>
      <trkpt lat="47.526756" lon="2.0575008">
        <ele>148.0</ele>
        <time>2022-05-19T07:06:02Z</time>
      </trkpt>
      <trkpt lat="47.526745" lon="2.0575225">
        <ele>148.0</ele>
        <time>2022-05-19T07:06:03Z</time>
      </trkpt>
      <trkpt lat="47.526737" lon="2.0575438">
        <ele>148.0</ele>
        <time>2022-05-19T07:06:04Z</time>
      </trkpt>
      <trkpt lat="47.526737" lon="2.0575655">
        <ele>149.0</ele>
        <time>2022-05-19T07:06:05Z</time>
      </trkpt>
      <trkpt lat="47.52673" lon="2.0575902">
        <ele>150.0</ele>
        <time>2022-05-19T07:06:06Z</time>
      </trkpt>
      <trkpt lat="47.52673" lon="2.0576086">
        <ele>150.0</ele>
        <time>2022-05-19T07:06:07Z</time>
      </trkpt>
      <trkpt lat="47.52673" lon="2.0576272">
        <ele>150.0</ele>
        <time>2022-05-19T07:06:08Z</time>
      </trkpt>
      <trkpt lat="47.52673" lon="2.0576372">
        <ele>150.0</ele>
        <time>2022-05-19T07:06:09Z</time>
      </trkpt>
      <trkpt lat="47.52673" lon="2.057653">
        <ele>150.0</ele>
        <time>2022-05-19T07:06:10Z</time>
      </trkpt>
      <trkpt lat="47.526726" lon="2.0576687">
        <ele>151.0</ele>
        <time>2022-05-19T07:06:11Z</time>
      </trkpt>
      <trkpt lat="47.52672" lon="2.057682">
        <ele>151.0</ele>
        <time>2022-05-19T07:06:12Z</time>
      </trkpt>
      <trkpt lat="47.52671" lon="2.0577009">
        <ele>151.0</ele>
        <time>2022-05-19T07:06:13Z</time>
      </trkpt>
      <trkpt lat="47.5267" lon="2.0577197">
        <ele>152.0</ele>
        <time>2022-05-19T07:06:14Z</time>
      </trkpt>
      <trkpt lat="47.526695" lon="2.0577357">
        <ele>152.0</ele>
        <time>2022-05-19T07:06:15Z</time>
      </trkpt>
      <trkpt lat="47.52669" lon="2.0577507">
        <ele>152.0</ele>
        <time>2022-05-19T07:06:16Z</time>
      </trkpt>
      <trkpt lat="47.526688" lon="2.057764">
        <ele>152.0</ele>
        <time>2022-05-19T07:06:17Z</time>
      </trkpt>
      <trkpt lat="47.52669" lon="2.0577905">
        <ele>153.0</ele>
        <time>2022-05-19T07:06:18Z</time>
      </trkpt>
      <trkpt lat="47.526695" lon="2.057812">
        <ele>153.0</ele>
        <time>2022-05-19T07:06:19Z</time>
      </trkpt>
      <trkpt lat="47.526703" lon="2.0578382">
        <ele>153.0</ele>
        <time>2022-05-19T07:06:20Z</time>
      </trkpt>
      <trkpt lat="47.526703" lon="2.0578566">
        <ele>152.0</ele>
        <time>2022-05-19T07:06:21Z</time>
      </trkpt>
      <trkpt lat="47.52671" lon="2.0578794">
        <ele>152.0</ele>
        <time>2022-05-19T07:06:22Z</time>
      </trkpt>
      <trkpt lat="47.52671" lon="2.057897">
        <ele>152.0</ele>
        <time>2022-05-19T07:06:23Z</time>
      </trkpt>
      <trkpt lat="47.52672" lon="2.0579195">
        <ele>152.0</ele>
        <time>2022-05-19T07:06:24Z</time>
      </trkpt>
      <trkpt lat="47.526722" lon="2.057941">
        <ele>152.0</ele>
        <time>2022-05-19T07:06:25Z</time>
      </trkpt>
      <trkpt lat="47.526726" lon="2.0579665">
        <ele>151.0</ele>
        <time>2022-05-19T07:06:26Z</time>
      </trkpt>
      <trkpt lat="47.526726" lon="2.0579817">
        <ele>151.0</ele>
        <time>2022-05-19T07:06:27Z</time>
      </trkpt>
      <trkpt lat="47.52673" lon="2.0580022">
        <ele>151.0</ele>
        <time>2022-05-19T07:06:28Z</time>
      </trkpt>
      <trkpt lat="47.52673" lon="2.0580192">
        <ele>151.0</ele>
        <time>2022-05-19T07:06:29Z</time>
      </trkpt>
      <trkpt lat="47.526733" lon="2.0580337">
        <ele>151.0</ele>
        <time>2022-05-19T07:06:30Z</time>
      </trkpt>
      <trkpt lat="47.526737" lon="2.0580564">
        <ele>151.0</ele>
        <time>2022-05-19T07:06:31Z</time>
      </trkpt>
      <trkpt lat="47.526737" lon="2.0580776">
        <ele>151.0</ele>
        <time>2022-05-19T07:06:32Z</time>
      </trkpt>
      <trkpt lat="47.526737" lon="2.058101">
        <ele>151.0</ele>
        <time>2022-05-19T07:06:33Z</time>
      </trkpt>
      <trkpt lat="47.526737" lon="2.0581226">
        <ele>152.0</ele>
        <time>2022-05-19T07:06:34Z</time>
      </trkpt>
      <trkpt lat="47.526733" lon="2.058142">
        <ele>151.0</ele>
        <time>2022-05-19T07:06:35Z</time>
      </trkpt>
      <trkpt lat="47.526726" lon="2.058164">
        <ele>152.0</ele>
        <time>2022-05-19T07:06:36Z</time>
      </trkpt>
      <trkpt lat="47.526722" lon="2.058183">
        <ele>151.0</ele>
        <time>2022-05-19T07:06:37Z</time>
      </trkpt>
      <trkpt lat="47.526722" lon="2.058213">
        <ele>151.0</ele>
        <time>2022-05-19T07:06:39Z</time>
      </trkpt>
      <trkpt lat="47.52672" lon="2.0582304">
        <ele>151.0</ele>
        <time>2022-05-19T07:06:40Z</time>
      </trkpt>
      <trkpt lat="47.52672" lon="2.0582485">
        <ele>152.0</ele>
        <time>2022-05-19T07:06:41Z</time>
      </trkpt>
      <trkpt lat="47.526722" lon="2.0582666">
        <ele>152.0</ele>
        <time>2022-05-19T07:06:42Z</time>
      </trkpt>
      <trkpt lat="47.52672" lon="2.058286">
        <ele>152.0</ele>
        <time>2022-05-19T07:06:43Z</time>
      </trkpt>
      <trkpt lat="47.526714" lon="2.0583038">
        <ele>153.0</ele>
        <time>2022-05-19T07:06:44Z</time>
      </trkpt>
      <trkpt lat="47.52671" lon="2.058322">
        <ele>153.0</ele>
        <time>2022-05-19T07:06:45Z</time>
      </trkpt>
      <trkpt lat="47.52671" lon="2.058343">
        <ele>153.0</ele>
        <time>2022-05-19T07:06:46Z</time>
      </trkpt>
      <trkpt lat="47.526707" lon="2.0583556">
        <ele>153.0</ele>
        <time>2022-05-19T07:06:47Z</time>
      </trkpt>
      <trkpt lat="47.526703" lon="2.0583692">
        <ele>153.0</ele>
        <time>2022-05-19T07:06:48Z</time>
      </trkpt>
      <trkpt lat="47.5267" lon="2.058383">
        <ele>153.0</ele>
        <time>2022-05-19T07:06:49Z</time>
      </trkpt>
      <trkpt lat="47.5267" lon="2.0583963">
        <ele>153.0</ele>
        <time>2022-05-19T07:06:50Z</time>
      </trkpt>
      <trkpt lat="47.526695" lon="2.0584137">
        <ele>154.0</ele>
        <time>2022-05-19T07:06:51Z</time>
      </trkpt>
      <trkpt lat="47.526695" lon="2.0584302">
        <ele>154.0</ele>
        <time>2022-05-19T07:06:52Z</time>
      </trkpt>
      <trkpt lat="47.5267" lon="2.0584478">
        <ele>154.0</ele>
        <time>2022-05-19T07:06:53Z</time>
      </trkpt>
      <trkpt lat="47.5267" lon="2.0584636">
        <ele>154.0</ele>
        <time>2022-05-19T07:06:54Z</time>
      </trkpt>
      <trkpt lat="47.5267" lon="2.0584774">
        <ele>155.0</ele>
        <time>2022-05-19T07:06:55Z</time>
      </trkpt>
      <trkpt lat="47.5267" lon="2.0584934">
        <ele>155.0</ele>
        <time>2022-05-19T07:06:56Z</time>
      </trkpt>
      <trkpt lat="47.526695" lon="2.0585105">
        <ele>155.0</ele>
        <time>2022-05-19T07:06:57Z</time>
      </trkpt>
      <trkpt lat="47.52669" lon="2.0585277">
        <ele>155.0</ele>
        <time>2022-05-19T07:06:58Z</time>
      </trkpt>
      <trkpt lat="47.52669" lon="2.0585456">
        <ele>155.0</ele>
        <time>2022-05-19T07:06:59Z</time>
      </trkpt>
      <trkpt lat="47.526688" lon="2.0585604">
        <ele>155.0</ele>
        <time>2022-05-19T07:07:00Z</time>
      </trkpt>
      <trkpt lat="47.526684" lon="2.0585806">
        <ele>155.0</ele>
        <time>2022-05-19T07:07:01Z</time>
      </trkpt>
      <trkpt lat="47.526684" lon="2.0586035">
        <ele>155.0</ele>
        <time>2022-05-19T07:07:02Z</time>
      </trkpt>
      <trkpt lat="47.52668" lon="2.0586238">
        <ele>155.0</ele>
        <time>2022-05-19T07:07:03Z</time>
      </trkpt>
      <trkpt lat="47.52668" lon="2.0586457">
        <ele>154.0</ele>
        <time>2022-05-19T07:07:04Z</time>
      </trkpt>
      <trkpt lat="47.526672" lon="2.0586646">
        <ele>154.0</ele>
        <time>2022-05-19T07:07:05Z</time>
      </trkpt>
      <trkpt lat="47.52667" lon="2.0586822">
        <ele>154.0</ele>
        <time>2022-05-19T07:07:06Z</time>
      </trkpt>
      <trkpt lat="47.526665" lon="2.0587013">
        <ele>154.0</ele>
        <time>2022-05-19T07:07:07Z</time>
      </trkpt>
      <trkpt lat="47.52666" lon="2.0587227">
        <ele>154.0</ele>
        <time>2022-05-19T07:07:08Z</time>
      </trkpt>
      <trkpt lat="47.526653" lon="2.058766">
        <ele>153.0</ele>
        <time>2022-05-19T07:07:10Z</time>
      </trkpt>
      <trkpt lat="47.526657" lon="2.0588083">
        <ele>152.0</ele>
        <time>2022-05-19T07:07:12Z</time>
      </trkpt>
      <trkpt lat="47.52666" lon="2.058828">
        <ele>152.0</ele>
        <time>2022-05-19T07:07:13Z</time>
      </trkpt>
      <trkpt lat="47.52667" lon="2.058841">
        <ele>153.0</ele>
        <time>2022-05-19T07:07:14Z</time>
      </trkpt>
      <trkpt lat="47.526676" lon="2.0588517">
        <ele>153.0</ele>
        <time>2022-05-19T07:07:15Z</time>
      </trkpt>
      <trkpt lat="47.526684" lon="2.058862">
        <ele>153.0</ele>
        <time>2022-05-19T07:07:16Z</time>
      </trkpt>
      <trkpt lat="47.52669" lon="2.0588722">
        <ele>153.0</ele>
        <time>2022-05-19T07:07:17Z</time>
      </trkpt>
      <trkpt lat="47.5267" lon="2.058884">
        <ele>154.0</ele>
        <time>2022-05-19T07:07:18Z</time>
      </trkpt>
      <trkpt lat="47.52671" lon="2.0588963">
        <ele>154.0</ele>
        <time>2022-05-19T07:07:19Z</time>
      </trkpt>
      <trkpt lat="47.526722" lon="2.0589101">
        <ele>154.0</ele>
        <time>2022-05-19T07:07:20Z</time>
      </trkpt>
      <trkpt lat="47.52673" lon="2.0589237">
        <ele>153.0</ele>
        <time>2022-05-19T07:07:21Z</time>
      </trkpt>
      <trkpt lat="47.52674" lon="2.0589423">
        <ele>154.0</ele>
        <time>2022-05-19T07:07:22Z</time>
      </trkpt>
      <trkpt lat="47.526745" lon="2.058954">
        <ele>154.0</ele>
        <time>2022-05-19T07:07:23Z</time>
      </trkpt>
      <trkpt lat="47.526745" lon="2.0589602">
        <ele>153.0</ele>
        <time>2022-05-19T07:07:24Z</time>
      </trkpt>
      <trkpt lat="47.526745" lon="2.0589688">
        <ele>153.0</ele>
        <time>2022-05-19T07:07:25Z</time>
      </trkpt>
      <trkpt lat="47.526745" lon="2.0589788">
        <ele>153.0</ele>
        <time>2022-05-19T07:07:26Z</time>
      </trkpt>
      <trkpt lat="47.52675" lon="2.0589879">
        <ele>153.0</ele>
        <time>2022-05-19T07:07:27Z</time>
      </trkpt>
      <trkpt lat="47.52675" lon="2.0590034">
        <ele>154.0</ele>
        <time>2022-05-19T07:07:28Z</time>
      </trkpt>
      <trkpt lat="47.526752" lon="2.059015">
        <ele>153.0</ele>
        <time>2022-05-19T07:07:29Z</time>
      </trkpt>
      <trkpt lat="47.52676" lon="2.059032">
        <ele>154.0</ele>
        <time>2022-05-19T07:07:30Z</time>
      </trkpt>
      <trkpt lat="47.526764" lon="2.059043">
        <ele>154.0</ele>
        <time>2022-05-19T07:07:31Z</time>
      </trkpt>
      <trkpt lat="47.526764" lon="2.0590591">
        <ele>154.0</ele>
        <time>2022-05-19T07:07:32Z</time>
      </trkpt>
      <trkpt lat="47.52677" lon="2.0590725">
        <ele>154.0</ele>
        <time>2022-05-19T07:07:33Z</time>
      </trkpt>
      <trkpt lat="47.526775" lon="2.0590854">
        <ele>154.0</ele>
        <time>2022-05-19T07:07:34Z</time>
      </trkpt>
      <trkpt lat="47.52678" lon="2.0590978">
        <ele>155.0</ele>
        <time>2022-05-19T07:07:35Z</time>
      </trkpt>
      <trkpt lat="47.526783" lon="2.0591109">
        <ele>155.0</ele>
        <time>2022-05-19T07:07:36Z</time>
      </trkpt>
      <trkpt lat="47.526787" lon="2.0591257">
        <ele>155.0</ele>
        <time>2022-05-19T07:07:37Z</time>
      </trkpt>
      <trkpt lat="47.526787" lon="2.05914">
        <ele>155.0</ele>
        <time>2022-05-19T07:07:38Z</time>
      </trkpt>
      <trkpt lat="47.52679" lon="2.0591588">
        <ele>155.0</ele>
        <time>2022-05-19T07:07:39Z</time>
      </trkpt>
      <trkpt lat="47.52679" lon="2.0591729">
        <ele>155.0</ele>
        <time>2022-05-19T07:07:40Z</time>
      </trkpt>
      <trkpt lat="47.52679" lon="2.0591857">
        <ele>155.0</ele>
        <time>2022-05-19T07:07:41Z</time>
      </trkpt>
      <trkpt lat="47.52679" lon="2.0592003">
        <ele>155.0</ele>
        <time>2022-05-19T07:07:42Z</time>
      </trkpt>
      <trkpt lat="47.52679" lon="2.0592115">
        <ele>155.0</ele>
        <time>2022-05-19T07:07:43Z</time>
      </trkpt>
      <trkpt lat="47.526787" lon="2.0592258">
        <ele>155.0</ele>
        <time>2022-05-19T07:07:44Z</time>
      </trkpt>
      <trkpt lat="47.526783" lon="2.0592403">
        <ele>155.0</ele>
        <time>2022-05-19T07:07:45Z</time>
      </trkpt>
      <trkpt lat="47.52678" lon="2.0592532">
        <ele>155.0</ele>
        <time>2022-05-19T07:07:46Z</time>
      </trkpt>
      <trkpt lat="47.52678" lon="2.0592678">
        <ele>155.0</ele>
        <time>2022-05-19T07:07:47Z</time>
      </trkpt>
      <trkpt lat="47.52678" lon="2.0592809">
        <ele>156.0</ele>
        <time>2022-05-19T07:07:48Z</time>
      </trkpt>
      <trkpt lat="47.526775" lon="2.0592914">
        <ele>156.0</ele>
        <time>2022-05-19T07:07:49Z</time>
      </trkpt>
      <trkpt lat="47.526775" lon="2.0593028">
        <ele>157.0</ele>
        <time>2022-05-19T07:07:50Z</time>
      </trkpt>
      <trkpt lat="47.52677" lon="2.0593202">
        <ele>157.0</ele>
        <time>2022-05-19T07:07:51Z</time>
      </trkpt>
      <trkpt lat="47.526768" lon="2.0593424">
        <ele>157.0</ele>
        <time>2022-05-19T07:07:52Z</time>
      </trkpt>
      <trkpt lat="47.526768" lon="2.0593648">
        <ele>157.0</ele>
        <time>2022-05-19T07:07:53Z</time>
      </trkpt>
      <trkpt lat="47.52677" lon="2.0593882">
        <ele>157.0</ele>
        <time>2022-05-19T07:07:54Z</time>
      </trkpt>
      <trkpt lat="47.52677" lon="2.0594049">
        <ele>157.0</ele>
        <time>2022-05-19T07:07:55Z</time>
      </trkpt>
      <trkpt lat="47.52677" lon="2.0594218">
        <ele>157.0</ele>
        <time>2022-05-19T07:07:56Z</time>
      </trkpt>
      <trkpt lat="47.526768" lon="2.0594394">
        <ele>157.0</ele>
        <time>2022-05-19T07:07:57Z</time>
      </trkpt>
      <trkpt lat="47.526764" lon="2.059457">
        <ele>157.0</ele>
        <time>2022-05-19T07:07:58Z</time>
      </trkpt>
      <trkpt lat="47.52676" lon="2.0594745">
        <ele>158.0</ele>
        <time>2022-05-19T07:07:59Z</time>
      </trkpt>
      <trkpt lat="47.526756" lon="2.0594885">
        <ele>158.0</ele>
        <time>2022-05-19T07:08:00Z</time>
      </trkpt>
      <trkpt lat="47.526752" lon="2.0595045">
        <ele>157.0</ele>
        <time>2022-05-19T07:08:01Z</time>
      </trkpt>
      <trkpt lat="47.526752" lon="2.059522">
        <ele>157.0</ele>
        <time>2022-05-19T07:08:02Z</time>
      </trkpt>
      <trkpt lat="47.52675" lon="2.0595357">
        <ele>157.0</ele>
        <time>2022-05-19T07:08:03Z</time>
      </trkpt>
      <trkpt lat="47.526737" lon="2.0595467">
        <ele>157.0</ele>
        <time>2022-05-19T07:08:04Z</time>
      </trkpt>
      <trkpt lat="47.526722" lon="2.0595553">
        <ele>157.0</ele>
        <time>2022-05-19T07:08:05Z</time>
      </trkpt>
      <trkpt lat="47.526714" lon="2.0595706">
        <ele>156.0</ele>
        <time>2022-05-19T07:08:06Z</time>
      </trkpt>
      <trkpt lat="47.526703" lon="2.059587">
        <ele>156.0</ele>
        <time>2022-05-19T07:08:07Z</time>
      </trkpt>
      <trkpt lat="47.526695" lon="2.0596044">
        <ele>156.0</ele>
        <time>2022-05-19T07:08:08Z</time>
      </trkpt>
      <trkpt lat="47.526688" lon="2.0596197">
        <ele>156.0</ele>
        <time>2022-05-19T07:08:09Z</time>
      </trkpt>
      <trkpt lat="47.526688" lon="2.0596335">
        <ele>156.0</ele>
        <time>2022-05-19T07:08:10Z</time>
      </trkpt>
      <trkpt lat="47.526688" lon="2.0596457">
        <ele>156.0</ele>
        <time>2022-05-19T07:08:11Z</time>
      </trkpt>
      <trkpt lat="47.526684" lon="2.0596566">
        <ele>156.0</ele>
        <time>2022-05-19T07:08:12Z</time>
      </trkpt>
      <trkpt lat="47.52668" lon="2.0596676">
        <ele>157.0</ele>
        <time>2022-05-19T07:08:13Z</time>
      </trkpt>
      <trkpt lat="47.526672" lon="2.0596817">
        <ele>157.0</ele>
        <time>2022-05-19T07:08:14Z</time>
      </trkpt>
      <trkpt lat="47.52667" lon="2.0596976">
        <ele>157.0</ele>
        <time>2022-05-19T07:08:15Z</time>
      </trkpt>
      <trkpt lat="47.526665" lon="2.059715">
        <ele>157.0</ele>
        <time>2022-05-19T07:08:16Z</time>
      </trkpt>
      <trkpt lat="47.52666" lon="2.0597322">
        <ele>158.0</ele>
        <time>2022-05-19T07:08:17Z</time>
      </trkpt>
      <trkpt lat="47.526653" lon="2.0597496">
        <ele>157.0</ele>
        <time>2022-05-19T07:08:18Z</time>
      </trkpt>
      <trkpt lat="47.52665" lon="2.0597632">
        <ele>157.0</ele>
        <time>2022-05-19T07:08:19Z</time>
      </trkpt>
      <trkpt lat="47.52664" lon="2.0597706">
        <ele>157.0</ele>
        <time>2022-05-19T07:08:20Z</time>
      </trkpt>
      <trkpt lat="47.526627" lon="2.0597749">
        <ele>157.0</ele>
        <time>2022-05-19T07:08:21Z</time>
      </trkpt>
      <trkpt lat="47.526615" lon="2.0597792">
        <ele>157.0</ele>
        <time>2022-05-19T07:08:22Z</time>
      </trkpt>
      <trkpt lat="47.526608" lon="2.059785">
        <ele>156.0</ele>
        <time>2022-05-19T07:08:23Z</time>
      </trkpt>
      <trkpt lat="47.526596" lon="2.0597892">
        <ele>156.0</ele>
        <time>2022-05-19T07:08:24Z</time>
      </trkpt>
      <trkpt lat="47.52659" lon="2.059795">
        <ele>156.0</ele>
        <time>2022-05-19T07:08:25Z</time>
      </trkpt>
      <trkpt lat="47.526577" lon="2.0598044">
        <ele>156.0</ele>
        <time>2022-05-19T07:08:26Z</time>
      </trkpt>
      <trkpt lat="47.526566" lon="2.0598173">
        <ele>155.0</ele>
        <time>2022-05-19T07:08:27Z</time>
      </trkpt>
      <trkpt lat="47.526558" lon="2.0598316">
        <ele>155.0</ele>
        <time>2022-05-19T07:08:28Z</time>
      </trkpt>
      <trkpt lat="47.526546" lon="2.0598445">
        <ele>155.0</ele>
        <time>2022-05-19T07:08:29Z</time>
      </trkpt>
      <trkpt lat="47.526543" lon="2.0598538">
        <ele>155.0</ele>
        <time>2022-05-19T07:08:30Z</time>
      </trkpt>
      <trkpt lat="47.526535" lon="2.0598586">
        <ele>154.0</ele>
        <time>2022-05-19T07:08:31Z</time>
      </trkpt>
      <trkpt lat="47.52653" lon="2.059869">
        <ele>154.0</ele>
        <time>2022-05-19T07:08:32Z</time>
      </trkpt>
      <trkpt lat="47.526527" lon="2.0598848">
        <ele>154.0</ele>
        <time>2022-05-19T07:08:33Z</time>
      </trkpt>
      <trkpt lat="47.52652" lon="2.0598967">
        <ele>154.0</ele>
        <time>2022-05-19T07:08:34Z</time>
      </trkpt>
      <trkpt lat="47.526516" lon="2.0599065">
        <ele>154.0</ele>
        <time>2022-05-19T07:08:35Z</time>
      </trkpt>
      <trkpt lat="47.526512" lon="2.059917">
        <ele>154.0</ele>
        <time>2022-05-19T07:08:36Z</time>
      </trkpt>
      <trkpt lat="47.526505" lon="2.059929">
        <ele>153.0</ele>
        <time>2022-05-19T07:08:37Z</time>
      </trkpt>
      <trkpt lat="47.526497" lon="2.0599375">
        <ele>153.0</ele>
        <time>2022-05-19T07:08:38Z</time>
      </trkpt>
      <trkpt lat="47.526485" lon="2.0599463">
        <ele>153.0</ele>
        <time>2022-05-19T07:08:39Z</time>
      </trkpt>
      <trkpt lat="47.526478" lon="2.0599594">
        <ele>153.0</ele>
        <time>2022-05-19T07:08:40Z</time>
      </trkpt>
      <trkpt lat="47.526466" lon="2.0599718">
        <ele>154.0</ele>
        <time>2022-05-19T07:08:41Z</time>
      </trkpt>
      <trkpt lat="47.52646" lon="2.0599825">
        <ele>154.0</ele>
        <time>2022-05-19T07:08:42Z</time>
      </trkpt>
      <trkpt lat="47.52645" lon="2.0599942">
        <ele>153.0</ele>
        <time>2022-05-19T07:08:43Z</time>
      </trkpt>
      <trkpt lat="47.526447" lon="2.0600102">
        <ele>153.0</ele>
        <time>2022-05-19T07:08:44Z</time>
      </trkpt>
      <trkpt lat="47.526443" lon="2.0600228">
        <ele>153.0</ele>
        <time>2022-05-19T07:08:45Z</time>
      </trkpt>
      <trkpt lat="47.526443" lon="2.0600355">
        <ele>153.0</ele>
        <time>2022-05-19T07:08:46Z</time>
      </trkpt>
      <trkpt lat="47.526443" lon="2.0600517">
        <ele>153.0</ele>
        <time>2022-05-19T07:08:47Z</time>
      </trkpt>
      <trkpt lat="47.52644" lon="2.0600684">
        <ele>153.0</ele>
        <time>2022-05-19T07:08:48Z</time>
      </trkpt>
      <trkpt lat="47.52644" lon="2.0600903">
        <ele>153.0</ele>
        <time>2022-05-19T07:08:49Z</time>
      </trkpt>
      <trkpt lat="47.52644" lon="2.0601068">
        <ele>153.0</ele>
        <time>2022-05-19T07:08:50Z</time>
      </trkpt>
      <trkpt lat="47.526436" lon="2.0601273">
        <ele>153.0</ele>
        <time>2022-05-19T07:08:51Z</time>
      </trkpt>
      <trkpt lat="47.526432" lon="2.0601509">
        <ele>153.0</ele>
        <time>2022-05-19T07:08:52Z</time>
      </trkpt>
      <trkpt lat="47.526432" lon="2.060168">
        <ele>154.0</ele>
        <time>2022-05-19T07:08:53Z</time>
      </trkpt>
      <trkpt lat="47.52643" lon="2.060185">
        <ele>154.0</ele>
        <time>2022-05-19T07:08:54Z</time>
      </trkpt>
      <trkpt lat="47.52642" lon="2.0602005">
        <ele>154.0</ele>
        <time>2022-05-19T07:08:55Z</time>
      </trkpt>
      <trkpt lat="47.526417" lon="2.0602145">
        <ele>154.0</ele>
        <time>2022-05-19T07:08:56Z</time>
      </trkpt>
      <trkpt lat="47.526417" lon="2.0602288">
        <ele>154.0</ele>
        <time>2022-05-19T07:08:57Z</time>
      </trkpt>
      <trkpt lat="47.526417" lon="2.0602427">
        <ele>154.0</ele>
        <time>2022-05-19T07:08:58Z</time>
      </trkpt>
      <trkpt lat="47.52642" lon="2.0602565">
        <ele>154.0</ele>
        <time>2022-05-19T07:08:59Z</time>
      </trkpt>
      <trkpt lat="47.52642" lon="2.0602708">
        <ele>154.0</ele>
        <time>2022-05-19T07:09:00Z</time>
      </trkpt>
      <trkpt lat="47.52642" lon="2.06028">
        <ele>154.0</ele>
        <time>2022-05-19T07:09:01Z</time>
      </trkpt>
      <trkpt lat="47.52642" lon="2.060289">
        <ele>155.0</ele>
        <time>2022-05-19T07:09:02Z</time>
      </trkpt>
      <trkpt lat="47.52642" lon="2.0603013">
        <ele>155.0</ele>
        <time>2022-05-19T07:09:03Z</time>
      </trkpt>
      <trkpt lat="47.526424" lon="2.0603166">
        <ele>155.0</ele>
        <time>2022-05-19T07:09:04Z</time>
      </trkpt>
      <trkpt lat="47.526432" lon="2.0603342">
        <ele>155.0</ele>
        <time>2022-05-19T07:09:05Z</time>
      </trkpt>
      <trkpt lat="47.52644" lon="2.0603497">
        <ele>155.0</ele>
        <time>2022-05-19T07:09:06Z</time>
      </trkpt>
      <trkpt lat="47.526447" lon="2.0603666">
        <ele>155.0</ele>
        <time>2022-05-19T07:09:07Z</time>
      </trkpt>
      <trkpt lat="47.52645" lon="2.0603812">
        <ele>155.0</ele>
        <time>2022-05-19T07:09:08Z</time>
      </trkpt>
      <trkpt lat="47.526455" lon="2.0603917">
        <ele>154.0</ele>
        <time>2022-05-19T07:09:09Z</time>
      </trkpt>
      <trkpt lat="47.526455" lon="2.060405">
        <ele>155.0</ele>
        <time>2022-05-19T07:09:10Z</time>
      </trkpt>
      <trkpt lat="47.52646" lon="2.0604193">
        <ele>155.0</ele>
        <time>2022-05-19T07:09:11Z</time>
      </trkpt>
      <trkpt lat="47.526466" lon="2.0604353">
        <ele>155.0</ele>
        <time>2022-05-19T07:09:12Z</time>
      </trkpt>
      <trkpt lat="47.526474" lon="2.0604465">
        <ele>155.0</ele>
        <time>2022-05-19T07:09:13Z</time>
      </trkpt>
      <trkpt lat="47.526474" lon="2.060458">
        <ele>155.0</ele>
        <time>2022-05-19T07:09:14Z</time>
      </trkpt>
      <trkpt lat="47.526474" lon="2.060471">
        <ele>155.0</ele>
        <time>2022-05-19T07:09:15Z</time>
      </trkpt>
      <trkpt lat="47.526474" lon="2.0604842">
        <ele>155.0</ele>
        <time>2022-05-19T07:09:16Z</time>
      </trkpt>
      <trkpt lat="47.52647" lon="2.060502">
        <ele>155.0</ele>
        <time>2022-05-19T07:09:17Z</time>
      </trkpt>
      <trkpt lat="47.526466" lon="2.0605235">
        <ele>155.0</ele>
        <time>2022-05-19T07:09:18Z</time>
      </trkpt>
      <trkpt lat="47.526455" lon="2.0605402">
        <ele>155.0</ele>
        <time>2022-05-19T07:09:19Z</time>
      </trkpt>
      <trkpt lat="47.526443" lon="2.0605552">
        <ele>155.0</ele>
        <time>2022-05-19T07:09:20Z</time>
      </trkpt>
      <trkpt lat="47.526432" lon="2.0605717">
        <ele>156.0</ele>
        <time>2022-05-19T07:09:21Z</time>
      </trkpt>
      <trkpt lat="47.526424" lon="2.0605862">
        <ele>156.0</ele>
        <time>2022-05-19T07:09:22Z</time>
      </trkpt>
      <trkpt lat="47.526417" lon="2.0605998">
        <ele>156.0</ele>
        <time>2022-05-19T07:09:23Z</time>
      </trkpt>
      <trkpt lat="47.52641" lon="2.0606143">
        <ele>155.0</ele>
        <time>2022-05-19T07:09:24Z</time>
      </trkpt>
      <trkpt lat="47.5264" lon="2.0606318">
        <ele>155.0</ele>
        <time>2022-05-19T07:09:25Z</time>
      </trkpt>
      <trkpt lat="47.526394" lon="2.0606494">
        <ele>155.0</ele>
        <time>2022-05-19T07:09:26Z</time>
      </trkpt>
      <trkpt lat="47.526386" lon="2.060667">
        <ele>155.0</ele>
        <time>2022-05-19T07:09:27Z</time>
      </trkpt>
      <trkpt lat="47.52638" lon="2.0606875">
        <ele>155.0</ele>
        <time>2022-05-19T07:09:28Z</time>
      </trkpt>
      <trkpt lat="47.52637" lon="2.0607054">
        <ele>155.0</ele>
        <time>2022-05-19T07:09:29Z</time>
      </trkpt>
      <trkpt lat="47.526363" lon="2.0607238">
        <ele>156.0</ele>
        <time>2022-05-19T07:09:30Z</time>
      </trkpt>
      <trkpt lat="47.526356" lon="2.0607414">
        <ele>156.0</ele>
        <time>2022-05-19T07:09:31Z</time>
      </trkpt>
      <trkpt lat="47.526352" lon="2.0607607">
        <ele>156.0</ele>
        <time>2022-05-19T07:09:32Z</time>
      </trkpt>
      <trkpt lat="47.526344" lon="2.0607805">
        <ele>156.0</ele>
        <time>2022-05-19T07:09:33Z</time>
      </trkpt>
      <trkpt lat="47.52634" lon="2.0607975">
        <ele>156.0</ele>
        <time>2022-05-19T07:09:34Z</time>
      </trkpt>
      <trkpt lat="47.526333" lon="2.060816">
        <ele>156.0</ele>
        <time>2022-05-19T07:09:35Z</time>
      </trkpt>
      <trkpt lat="47.526333" lon="2.0608358">
        <ele>156.0</ele>
        <time>2022-05-19T07:09:36Z</time>
      </trkpt>
      <trkpt lat="47.52633" lon="2.0608535">
        <ele>156.0</ele>
        <time>2022-05-19T07:09:37Z</time>
      </trkpt>
      <trkpt lat="47.52633" lon="2.0608716">
        <ele>157.0</ele>
        <time>2022-05-19T07:09:38Z</time>
      </trkpt>
      <trkpt lat="47.526325" lon="2.0608885">
        <ele>157.0</ele>
        <time>2022-05-19T07:09:39Z</time>
      </trkpt>
      <trkpt lat="47.526318" lon="2.0609057">
        <ele>156.0</ele>
        <time>2022-05-19T07:09:40Z</time>
      </trkpt>
      <trkpt lat="47.526318" lon="2.0609221">
        <ele>156.0</ele>
        <time>2022-05-19T07:09:41Z</time>
      </trkpt>
      <trkpt lat="47.52631" lon="2.0609307">
        <ele>156.0</ele>
        <time>2022-05-19T07:09:42Z</time>
      </trkpt>
      <trkpt lat="47.526302" lon="2.0609412">
        <ele>157.0</ele>
        <time>2022-05-19T07:09:43Z</time>
      </trkpt>
      <trkpt lat="47.526302" lon="2.0609546">
        <ele>157.0</ele>
        <time>2022-05-19T07:09:44Z</time>
      </trkpt>
      <trkpt lat="47.526302" lon="2.0609705">
        <ele>157.0</ele>
        <time>2022-05-19T07:09:45Z</time>
      </trkpt>
      <trkpt lat="47.5263" lon="2.0609832">
        <ele>157.0</ele>
        <time>2022-05-19T07:09:46Z</time>
      </trkpt>
      <trkpt lat="47.5263" lon="2.0609963">
        <ele>157.0</ele>
        <time>2022-05-19T07:09:47Z</time>
      </trkpt>
      <trkpt lat="47.526302" lon="2.061011">
        <ele>158.0</ele>
        <time>2022-05-19T07:09:48Z</time>
      </trkpt>
      <trkpt lat="47.526302" lon="2.0610225">
        <ele>158.0</ele>
        <time>2022-05-19T07:09:49Z</time>
      </trkpt>
      <trkpt lat="47.5263" lon="2.0610342">
        <ele>158.0</ele>
        <time>2022-05-19T07:09:50Z</time>
      </trkpt>
      <trkpt lat="47.526295" lon="2.0610454">
        <ele>158.0</ele>
        <time>2022-05-19T07:09:51Z</time>
      </trkpt>
      <trkpt lat="47.526295" lon="2.0610576">
        <ele>158.0</ele>
        <time>2022-05-19T07:09:52Z</time>
      </trkpt>
      <trkpt lat="47.52629" lon="2.0610726">
        <ele>158.0</ele>
        <time>2022-05-19T07:09:53Z</time>
      </trkpt>
      <trkpt lat="47.526283" lon="2.0610886">
        <ele>159.0</ele>
        <time>2022-05-19T07:09:54Z</time>
      </trkpt>
      <trkpt lat="47.52628" lon="2.0611079">
        <ele>159.0</ele>
        <time>2022-05-19T07:09:55Z</time>
      </trkpt>
      <trkpt lat="47.52627" lon="2.0611289">
        <ele>159.0</ele>
        <time>2022-05-19T07:09:56Z</time>
      </trkpt>
      <trkpt lat="47.526264" lon="2.0611515">
        <ele>158.0</ele>
        <time>2022-05-19T07:09:57Z</time>
      </trkpt>
      <trkpt lat="47.52626" lon="2.0611677">
        <ele>158.0</ele>
        <time>2022-05-19T07:09:58Z</time>
      </trkpt>
      <trkpt lat="47.52626" lon="2.0611846">
        <ele>158.0</ele>
        <time>2022-05-19T07:09:59Z</time>
      </trkpt>
      <trkpt lat="47.526257" lon="2.0612018">
        <ele>157.0</ele>
        <time>2022-05-19T07:10:00Z</time>
      </trkpt>
      <trkpt lat="47.526257" lon="2.0612211">
        <ele>158.0</ele>
        <time>2022-05-19T07:10:01Z</time>
      </trkpt>
      <trkpt lat="47.526253" lon="2.0612397">
        <ele>158.0</ele>
        <time>2022-05-19T07:10:02Z</time>
      </trkpt>
      <trkpt lat="47.526245" lon="2.0612566">
        <ele>157.0</ele>
        <time>2022-05-19T07:10:03Z</time>
      </trkpt>
      <trkpt lat="47.526237" lon="2.0612702">
        <ele>158.0</ele>
        <time>2022-05-19T07:10:04Z</time>
      </trkpt>
      <trkpt lat="47.52623" lon="2.0612853">
        <ele>157.0</ele>
        <time>2022-05-19T07:10:05Z</time>
      </trkpt>
      <trkpt lat="47.526226" lon="2.061299">
        <ele>157.0</ele>
        <time>2022-05-19T07:10:06Z</time>
      </trkpt>
      <trkpt lat="47.52622" lon="2.0613177">
        <ele>157.0</ele>
        <time>2022-05-19T07:10:07Z</time>
      </trkpt>
      <trkpt lat="47.526215" lon="2.061332">
        <ele>157.0</ele>
        <time>2022-05-19T07:10:08Z</time>
      </trkpt>
      <trkpt lat="47.526207" lon="2.061347">
        <ele>157.0</ele>
        <time>2022-05-19T07:10:09Z</time>
      </trkpt>
      <trkpt lat="47.526203" lon="2.0613642">
        <ele>157.0</ele>
        <time>2022-05-19T07:10:10Z</time>
      </trkpt>
      <trkpt lat="47.5262" lon="2.0613816">
        <ele>158.0</ele>
        <time>2022-05-19T07:10:11Z</time>
      </trkpt>
      <trkpt lat="47.52619" lon="2.061399">
        <ele>158.0</ele>
        <time>2022-05-19T07:10:12Z</time>
      </trkpt>
      <trkpt lat="47.526188" lon="2.0614126">
        <ele>158.0</ele>
        <time>2022-05-19T07:10:13Z</time>
      </trkpt>
      <trkpt lat="47.52618" lon="2.0614276">
        <ele>158.0</ele>
        <time>2022-05-19T07:10:14Z</time>
      </trkpt>
      <trkpt lat="47.526173" lon="2.061441">
        <ele>158.0</ele>
        <time>2022-05-19T07:10:15Z</time>
      </trkpt>
      <trkpt lat="47.52617" lon="2.0614512">
        <ele>158.0</ele>
        <time>2022-05-19T07:10:16Z</time>
      </trkpt>
      <trkpt lat="47.52616" lon="2.0614657">
        <ele>158.0</ele>
        <time>2022-05-19T07:10:17Z</time>
      </trkpt>
      <trkpt lat="47.526154" lon="2.0614815">
        <ele>158.0</ele>
        <time>2022-05-19T07:10:18Z</time>
      </trkpt>
      <trkpt lat="47.52615" lon="2.0614963">
        <ele>158.0</ele>
        <time>2022-05-19T07:10:19Z</time>
      </trkpt>
      <trkpt lat="47.526146" lon="2.0615082">
        <ele>159.0</ele>
        <time>2022-05-19T07:10:20Z</time>
      </trkpt>
      <trkpt lat="47.526142" lon="2.0615184">
        <ele>159.0</ele>
        <time>2022-05-19T07:10:21Z</time>
      </trkpt>
      <trkpt lat="47.526146" lon="2.061535">
        <ele>159.0</ele>
        <time>2022-05-19T07:10:22Z</time>
      </trkpt>
      <trkpt lat="47.526146" lon="2.0615523">
        <ele>159.0</ele>
        <time>2022-05-19T07:10:23Z</time>
      </trkpt>
      <trkpt lat="47.526154" lon="2.0615664">
        <ele>159.0</ele>
        <time>2022-05-19T07:10:24Z</time>
      </trkpt>
      <trkpt lat="47.52616" lon="2.0615776">
        <ele>159.0</ele>
        <time>2022-05-19T07:10:25Z</time>
      </trkpt>
      <trkpt lat="47.52617" lon="2.0615892">
        <ele>159.0</ele>
        <time>2022-05-19T07:10:26Z</time>
      </trkpt>
      <trkpt lat="47.52618" lon="2.061598">
        <ele>159.0</ele>
        <time>2022-05-19T07:10:27Z</time>
      </trkpt>
      <trkpt lat="47.52619" lon="2.0616055">
        <ele>159.0</ele>
        <time>2022-05-19T07:10:28Z</time>
      </trkpt>
      <trkpt lat="47.526203" lon="2.0616126">
        <ele>158.0</ele>
        <time>2022-05-19T07:10:29Z</time>
      </trkpt>
      <trkpt lat="47.52621" lon="2.0616214">
        <ele>158.0</ele>
        <time>2022-05-19T07:10:30Z</time>
      </trkpt>
      <trkpt lat="47.52622" lon="2.061628">
        <ele>158.0</ele>
        <time>2022-05-19T07:10:31Z</time>
      </trkpt>
      <trkpt lat="47.52623" lon="2.0616357">
        <ele>158.0</ele>
        <time>2022-05-19T07:10:32Z</time>
      </trkpt>
      <trkpt lat="47.52624" lon="2.0616398">
        <ele>158.0</ele>
        <time>2022-05-19T07:10:33Z</time>
      </trkpt>
      <trkpt lat="47.52625" lon="2.0616426">
        <ele>158.0</ele>
        <time>2022-05-19T07:10:34Z</time>
      </trkpt>
      <trkpt lat="47.526257" lon="2.0616498">
        <ele>159.0</ele>
        <time>2022-05-19T07:10:35Z</time>
      </trkpt>
      <trkpt lat="47.52626" lon="2.0616562">
        <ele>159.0</ele>
        <time>2022-05-19T07:10:36Z</time>
      </trkpt>
      <trkpt lat="47.526268" lon="2.0616608">
        <ele>159.0</ele>
        <time>2022-05-19T07:10:37Z</time>
      </trkpt>
      <trkpt lat="47.526268" lon="2.0616608">
        <ele>159.0</ele>
        <time>2022-05-19T07:10:38Z</time>
      </trkpt>
      <trkpt lat="47.52628" lon="2.0616777">
        <ele>160.0</ele>
        <time>2022-05-19T07:10:39Z</time>
      </trkpt>
      <trkpt lat="47.52629" lon="2.061689">
        <ele>160.0</ele>
        <time>2022-05-19T07:10:40Z</time>
      </trkpt>
      <trkpt lat="47.526306" lon="2.061696">
        <ele>160.0</ele>
        <time>2022-05-19T07:10:41Z</time>
      </trkpt>
      <trkpt lat="47.526318" lon="2.0616949">
        <ele>159.0</ele>
        <time>2022-05-19T07:10:42Z</time>
      </trkpt>
      <trkpt lat="47.52633" lon="2.0616944">
        <ele>159.0</ele>
        <time>2022-05-19T07:10:43Z</time>
      </trkpt>
      <trkpt lat="47.52634" lon="2.0616965">
        <ele>159.0</ele>
        <time>2022-05-19T07:10:44Z</time>
      </trkpt>
      <trkpt lat="47.52635" lon="2.0617">
        <ele>159.0</ele>
        <time>2022-05-19T07:10:45Z</time>
      </trkpt>
      <trkpt lat="47.526356" lon="2.0617003">
        <ele>159.0</ele>
        <time>2022-05-19T07:10:46Z</time>
      </trkpt>
      <trkpt lat="47.526367" lon="2.0617023">
        <ele>159.0</ele>
        <time>2022-05-19T07:10:47Z</time>
      </trkpt>
      <trkpt lat="47.52637" lon="2.0616977">
        <ele>160.0</ele>
        <time>2022-05-19T07:10:48Z</time>
      </trkpt>
      <trkpt lat="47.526375" lon="2.0616977">
        <ele>160.0</ele>
        <time>2022-05-19T07:10:49Z</time>
      </trkpt>
      <trkpt lat="47.52638" lon="2.0616972">
        <ele>160.0</ele>
        <time>2022-05-19T07:10:50Z</time>
      </trkpt>
      <trkpt lat="47.526386" lon="2.0616949">
        <ele>160.0</ele>
        <time>2022-05-19T07:10:51Z</time>
      </trkpt>
      <trkpt lat="47.526386" lon="2.0616949">
        <ele>160.0</ele>
        <time>2022-05-19T07:10:52Z</time>
      </trkpt>
      <trkpt lat="47.526398" lon="2.061705">
        <ele>159.0</ele>
        <time>2022-05-19T07:10:53Z</time>
      </trkpt>
      <trkpt lat="47.526413" lon="2.0617123">
        <ele>159.0</ele>
        <time>2022-05-19T07:10:54Z</time>
      </trkpt>
      <trkpt lat="47.52643" lon="2.0617177">
        <ele>159.0</ele>
        <time>2022-05-19T07:10:55Z</time>
      </trkpt>
      <trkpt lat="47.526443" lon="2.0617206">
        <ele>159.0</ele>
        <time>2022-05-19T07:10:56Z</time>
      </trkpt>
      <trkpt lat="47.526455" lon="2.0617268">
        <ele>159.0</ele>
        <time>2022-05-19T07:10:57Z</time>
      </trkpt>
      <trkpt lat="47.52647" lon="2.0617373">
        <ele>159.0</ele>
        <time>2022-05-19T07:10:58Z</time>
      </trkpt>
      <trkpt lat="47.526478" lon="2.0617456">
        <ele>159.0</ele>
        <time>2022-05-19T07:10:59Z</time>
      </trkpt>
      <trkpt lat="47.52649" lon="2.0617554">
        <ele>158.0</ele>
        <time>2022-05-19T07:11:00Z</time>
      </trkpt>
      <trkpt lat="47.526505" lon="2.061765">
        <ele>157.0</ele>
        <time>2022-05-19T07:11:01Z</time>
      </trkpt>
      <trkpt lat="47.526516" lon="2.0617688">
        <ele>157.0</ele>
        <time>2022-05-19T07:11:02Z</time>
      </trkpt>
      <trkpt lat="47.52653" lon="2.0617821">
        <ele>157.0</ele>
        <time>2022-05-19T07:11:03Z</time>
      </trkpt>
      <trkpt lat="47.526546" lon="2.0617945">
        <ele>157.0</ele>
        <time>2022-05-19T07:11:04Z</time>
      </trkpt>
      <trkpt lat="47.526558" lon="2.0618043">
        <ele>157.0</ele>
        <time>2022-05-19T07:11:05Z</time>
      </trkpt>
      <trkpt lat="47.526573" lon="2.0618136">
        <ele>157.0</ele>
        <time>2022-05-19T07:11:06Z</time>
      </trkpt>
      <trkpt lat="47.52659" lon="2.0618193">
        <ele>157.0</ele>
        <time>2022-05-19T07:11:07Z</time>
      </trkpt>
      <trkpt lat="47.526604" lon="2.0618243">
        <ele>157.0</ele>
        <time>2022-05-19T07:11:08Z</time>
      </trkpt>
      <trkpt lat="47.52662" lon="2.0618322">
        <ele>156.0</ele>
        <time>2022-05-19T07:11:09Z</time>
      </trkpt>
      <trkpt lat="47.526627" lon="2.06184">
        <ele>156.0</ele>
        <time>2022-05-19T07:11:10Z</time>
      </trkpt>
      <trkpt lat="47.526638" lon="2.0618489">
        <ele>157.0</ele>
        <time>2022-05-19T07:11:11Z</time>
      </trkpt>
      <trkpt lat="47.526646" lon="2.0618536">
        <ele>156.0</ele>
        <time>2022-05-19T07:11:12Z</time>
      </trkpt>
      <trkpt lat="47.526653" lon="2.061857">
        <ele>156.0</ele>
        <time>2022-05-19T07:11:13Z</time>
      </trkpt>
      <trkpt lat="47.526665" lon="2.0618565">
        <ele>156.0</ele>
        <time>2022-05-19T07:11:14Z</time>
      </trkpt>
      <trkpt lat="47.526672" lon="2.0618546">
        <ele>156.0</ele>
        <time>2022-05-19T07:11:15Z</time>
      </trkpt>
      <trkpt lat="47.52668" lon="2.0618541">
        <ele>155.0</ele>
        <time>2022-05-19T07:11:16Z</time>
      </trkpt>
      <trkpt lat="47.52668" lon="2.0618584">
        <ele>156.0</ele>
        <time>2022-05-19T07:11:17Z</time>
      </trkpt>
      <trkpt lat="47.52668" lon="2.0618584">
        <ele>156.0</ele>
        <time>2022-05-19T07:11:18Z</time>
      </trkpt>
      <trkpt lat="47.52668" lon="2.0618584">
        <ele>156.0</ele>
        <time>2022-05-19T07:11:19Z</time>
      </trkpt>
      <trkpt lat="47.526703" lon="2.0618498">
        <ele>156.0</ele>
        <time>2022-05-19T07:11:20Z</time>
      </trkpt>
      <trkpt lat="47.52671" lon="2.0618443">
        <ele>156.0</ele>
        <time>2022-05-19T07:11:21Z</time>
      </trkpt>
      <trkpt lat="47.52672" lon="2.0618503">
        <ele>156.0</ele>
        <time>2022-05-19T07:11:22Z</time>
      </trkpt>
      <trkpt lat="47.526733" lon="2.0618556">
        <ele>155.0</ele>
        <time>2022-05-19T07:11:23Z</time>
      </trkpt>
      <trkpt lat="47.526745" lon="2.0618646">
        <ele>155.0</ele>
        <time>2022-05-19T07:11:24Z</time>
      </trkpt>
      <trkpt lat="47.526756" lon="2.0618746">
        <ele>155.0</ele>
        <time>2022-05-19T07:11:25Z</time>
      </trkpt>
      <trkpt lat="47.526768" lon="2.06188">
        <ele>155.0</ele>
        <time>2022-05-19T07:11:26Z</time>
      </trkpt>
      <trkpt lat="47.52678" lon="2.061885">
        <ele>155.0</ele>
        <time>2022-05-19T07:11:27Z</time>
      </trkpt>
      <trkpt lat="47.52679" lon="2.0618925">
        <ele>155.0</ele>
        <time>2022-05-19T07:11:28Z</time>
      </trkpt>
      <trkpt lat="47.526806" lon="2.0619013">
        <ele>156.0</ele>
        <time>2022-05-19T07:11:29Z</time>
      </trkpt>
      <trkpt lat="47.526817" lon="2.0619068">
        <ele>156.0</ele>
        <time>2022-05-19T07:11:30Z</time>
      </trkpt>
      <trkpt lat="47.52683" lon="2.0619087">
        <ele>156.0</ele>
        <time>2022-05-19T07:11:31Z</time>
      </trkpt>
      <trkpt lat="47.526836" lon="2.061914">
        <ele>156.0</ele>
        <time>2022-05-19T07:11:32Z</time>
      </trkpt>
      <trkpt lat="47.526844" lon="2.0619135">
        <ele>156.0</ele>
        <time>2022-05-19T07:11:33Z</time>
      </trkpt>
      <trkpt lat="47.52686" lon="2.0619116">
        <ele>156.0</ele>
        <time>2022-05-19T07:11:34Z</time>
      </trkpt>
      <trkpt lat="47.52687" lon="2.0619168">
        <ele>156.0</ele>
        <time>2022-05-19T07:11:35Z</time>
      </trkpt>
      <trkpt lat="47.526882" lon="2.061917">
        <ele>156.0</ele>
        <time>2022-05-19T07:11:36Z</time>
      </trkpt>
      <trkpt lat="47.52689" lon="2.0619195">
        <ele>157.0</ele>
        <time>2022-05-19T07:11:37Z</time>
      </trkpt>
      <trkpt lat="47.5269" lon="2.0619261">
        <ele>157.0</ele>
        <time>2022-05-19T07:11:38Z</time>
      </trkpt>
      <trkpt lat="47.52691" lon="2.061929">
        <ele>157.0</ele>
        <time>2022-05-19T07:11:39Z</time>
      </trkpt>
      <trkpt lat="47.52692" lon="2.061934">
        <ele>157.0</ele>
        <time>2022-05-19T07:11:40Z</time>
      </trkpt>
      <trkpt lat="47.52693" lon="2.0619369">
        <ele>157.0</ele>
        <time>2022-05-19T07:11:41Z</time>
      </trkpt>
      <trkpt lat="47.526943" lon="2.061945">
        <ele>157.0</ele>
        <time>2022-05-19T07:11:42Z</time>
      </trkpt>
      <trkpt lat="47.52695" lon="2.061953">
        <ele>157.0</ele>
        <time>2022-05-19T07:11:43Z</time>
      </trkpt>
      <trkpt lat="47.526962" lon="2.0619593">
        <ele>157.0</ele>
        <time>2022-05-19T07:11:44Z</time>
      </trkpt>
      <trkpt lat="47.52697" lon="2.0619614">
        <ele>157.0</ele>
        <time>2022-05-19T07:11:45Z</time>
      </trkpt>
      <trkpt lat="47.526985" lon="2.0619678">
        <ele>157.0</ele>
        <time>2022-05-19T07:11:46Z</time>
      </trkpt>
      <trkpt lat="47.526997" lon="2.061977">
        <ele>158.0</ele>
        <time>2022-05-19T07:11:47Z</time>
      </trkpt>
      <trkpt lat="47.527008" lon="2.0619836">
        <ele>159.0</ele>
        <time>2022-05-19T07:11:48Z</time>
      </trkpt>
      <trkpt lat="47.52702" lon="2.061988">
        <ele>159.0</ele>
        <time>2022-05-19T07:11:49Z</time>
      </trkpt>
      <trkpt lat="47.52703" lon="2.0619922">
        <ele>159.0</ele>
        <time>2022-05-19T07:11:50Z</time>
      </trkpt>
      <trkpt lat="47.52704" lon="2.0619943">
        <ele>159.0</ele>
        <time>2022-05-19T07:11:51Z</time>
      </trkpt>
      <trkpt lat="47.527046" lon="2.0619962">
        <ele>160.0</ele>
        <time>2022-05-19T07:11:52Z</time>
      </trkpt>
      <trkpt lat="47.527058" lon="2.062">
        <ele>160.0</ele>
        <time>2022-05-19T07:11:53Z</time>
      </trkpt>
      <trkpt lat="47.52707" lon="2.0620043">
        <ele>160.0</ele>
        <time>2022-05-19T07:11:54Z</time>
      </trkpt>
      <trkpt lat="47.527077" lon="2.0620039">
        <ele>160.0</ele>
        <time>2022-05-19T07:11:55Z</time>
      </trkpt>
      <trkpt lat="47.527092" lon="2.0620062">
        <ele>160.0</ele>
        <time>2022-05-19T07:11:56Z</time>
      </trkpt>
      <trkpt lat="47.5271" lon="2.0620074">
        <ele>159.0</ele>
        <time>2022-05-19T07:11:57Z</time>
      </trkpt>
      <trkpt lat="47.52711" lon="2.0620174">
        <ele>159.0</ele>
        <time>2022-05-19T07:11:58Z</time>
      </trkpt>
      <trkpt lat="47.52711" lon="2.0620174">
        <ele>159.0</ele>
        <time>2022-05-19T07:11:59Z</time>
      </trkpt>
      <trkpt lat="47.52711" lon="2.0620174">
        <ele>159.0</ele>
        <time>2022-05-19T07:12:00Z</time>
      </trkpt>
      <trkpt lat="47.52714" lon="2.0620358">
        <ele>160.0</ele>
        <time>2022-05-19T07:12:01Z</time>
      </trkpt>
      <trkpt lat="47.527157" lon="2.062046">
        <ele>160.0</ele>
        <time>2022-05-19T07:12:02Z</time>
      </trkpt>
      <trkpt lat="47.52717" lon="2.062051">
        <ele>159.0</ele>
        <time>2022-05-19T07:12:03Z</time>
      </trkpt>
      <trkpt lat="47.52718" lon="2.062058">
        <ele>159.0</ele>
        <time>2022-05-19T07:12:04Z</time>
      </trkpt>
      <trkpt lat="47.52718" lon="2.062058">
        <ele>159.0</ele>
        <time>2022-05-19T07:12:05Z</time>
      </trkpt>
      <trkpt lat="47.52718" lon="2.062058">
        <ele>159.0</ele>
        <time>2022-05-19T07:12:06Z</time>
      </trkpt>
      <trkpt lat="47.52721" lon="2.0620651">
        <ele>159.0</ele>
        <time>2022-05-19T07:12:07Z</time>
      </trkpt>
      <trkpt lat="47.52722" lon="2.062068">
        <ele>159.0</ele>
        <time>2022-05-19T07:12:08Z</time>
      </trkpt>
      <trkpt lat="47.527233" lon="2.0620725">
        <ele>158.0</ele>
        <time>2022-05-19T07:12:09Z</time>
      </trkpt>
      <trkpt lat="47.527245" lon="2.0620782">
        <ele>158.0</ele>
        <time>2022-05-19T07:12:10Z</time>
      </trkpt>
      <trkpt lat="47.52726" lon="2.0620892">
        <ele>158.0</ele>
        <time>2022-05-19T07:12:11Z</time>
      </trkpt>
      <trkpt lat="47.527267" lon="2.062097">
        <ele>158.0</ele>
        <time>2022-05-19T07:12:12Z</time>
      </trkpt>
      <trkpt lat="47.52728" lon="2.0621068">
        <ele>157.0</ele>
        <time>2022-05-19T07:12:13Z</time>
      </trkpt>
      <trkpt lat="47.52728" lon="2.0621068">
        <ele>157.0</ele>
        <time>2022-05-19T07:12:14Z</time>
      </trkpt>
      <trkpt lat="47.52728" lon="2.0621068">
        <ele>157.0</ele>
        <time>2022-05-19T07:12:15Z</time>
      </trkpt>
      <trkpt lat="47.527298" lon="2.06213">
        <ele>156.0</ele>
        <time>2022-05-19T07:12:16Z</time>
      </trkpt>
      <trkpt lat="47.52731" lon="2.062137">
        <ele>156.0</ele>
        <time>2022-05-19T07:12:17Z</time>
      </trkpt>
      <trkpt lat="47.527317" lon="2.062143">
        <ele>156.0</ele>
        <time>2022-05-19T07:12:18Z</time>
      </trkpt>
      <trkpt lat="47.52733" lon="2.0621493">
        <ele>156.0</ele>
        <time>2022-05-19T07:12:19Z</time>
      </trkpt>
      <trkpt lat="47.52734" lon="2.0621507">
        <ele>156.0</ele>
        <time>2022-05-19T07:12:20Z</time>
      </trkpt>
      <trkpt lat="47.527348" lon="2.0621552">
        <ele>156.0</ele>
        <time>2022-05-19T07:12:21Z</time>
      </trkpt>
      <trkpt lat="47.52736" lon="2.0621638">
        <ele>155.0</ele>
        <time>2022-05-19T07:12:22Z</time>
      </trkpt>
      <trkpt lat="47.527374" lon="2.062174">
        <ele>155.0</ele>
        <time>2022-05-19T07:12:23Z</time>
      </trkpt>
      <trkpt lat="47.52738" lon="2.0621824">
        <ele>155.0</ele>
        <time>2022-05-19T07:12:24Z</time>
      </trkpt>
      <trkpt lat="47.527393" lon="2.0621881">
        <ele>154.0</ele>
        <time>2022-05-19T07:12:25Z</time>
      </trkpt>
      <trkpt lat="47.527405" lon="2.062194">
        <ele>154.0</ele>
        <time>2022-05-19T07:12:26Z</time>
      </trkpt>
      <trkpt lat="47.527416" lon="2.0621994">
        <ele>154.0</ele>
        <time>2022-05-19T07:12:27Z</time>
      </trkpt>
      <trkpt lat="47.527428" lon="2.0622094">
        <ele>154.0</ele>
        <time>2022-05-19T07:12:28Z</time>
      </trkpt>
      <trkpt lat="47.527435" lon="2.0622144">
        <ele>154.0</ele>
        <time>2022-05-19T07:12:29Z</time>
      </trkpt>
      <trkpt lat="47.527447" lon="2.062215">
        <ele>154.0</ele>
        <time>2022-05-19T07:12:30Z</time>
      </trkpt>
      <trkpt lat="47.527454" lon="2.062214">
        <ele>154.0</ele>
        <time>2022-05-19T07:12:31Z</time>
      </trkpt>
      <trkpt lat="47.527466" lon="2.0622122">
        <ele>153.0</ele>
        <time>2022-05-19T07:12:32Z</time>
      </trkpt>
      <trkpt lat="47.52748" lon="2.0622132">
        <ele>154.0</ele>
        <time>2022-05-19T07:12:33Z</time>
      </trkpt>
      <trkpt lat="47.527493" lon="2.0622153">
        <ele>154.0</ele>
        <time>2022-05-19T07:12:34Z</time>
      </trkpt>
      <trkpt lat="47.5275" lon="2.062219">
        <ele>153.0</ele>
        <time>2022-05-19T07:12:35Z</time>
      </trkpt>
      <trkpt lat="47.527515" lon="2.0622263">
        <ele>153.0</ele>
        <time>2022-05-19T07:12:36Z</time>
      </trkpt>
      <trkpt lat="47.527527" lon="2.0622325">
        <ele>154.0</ele>
        <time>2022-05-19T07:12:37Z</time>
      </trkpt>
      <trkpt lat="47.52754" lon="2.0622306">
        <ele>154.0</ele>
        <time>2022-05-19T07:12:38Z</time>
      </trkpt>
      <trkpt lat="47.52755" lon="2.062231">
        <ele>154.0</ele>
        <time>2022-05-19T07:12:39Z</time>
      </trkpt>
      <trkpt lat="47.52756" lon="2.062233">
        <ele>154.0</ele>
        <time>2022-05-19T07:12:40Z</time>
      </trkpt>
      <trkpt lat="47.527573" lon="2.0622363">
        <ele>153.0</ele>
        <time>2022-05-19T07:12:41Z</time>
      </trkpt>
      <trkpt lat="47.527584" lon="2.0622394">
        <ele>153.0</ele>
        <time>2022-05-19T07:12:42Z</time>
      </trkpt>
      <trkpt lat="47.527596" lon="2.062242">
        <ele>153.0</ele>
        <time>2022-05-19T07:12:43Z</time>
      </trkpt>
      <trkpt lat="47.527607" lon="2.0622435">
        <ele>153.0</ele>
        <time>2022-05-19T07:12:44Z</time>
      </trkpt>
      <trkpt lat="47.52762" lon="2.062248">
        <ele>153.0</ele>
        <time>2022-05-19T07:12:45Z</time>
      </trkpt>
      <trkpt lat="47.52763" lon="2.062255">
        <ele>153.0</ele>
        <time>2022-05-19T07:12:46Z</time>
      </trkpt>
      <trkpt lat="47.527645" lon="2.062258">
        <ele>153.0</ele>
        <time>2022-05-19T07:12:47Z</time>
      </trkpt>
      <trkpt lat="47.52766" lon="2.0622644">
        <ele>153.0</ele>
        <time>2022-05-19T07:12:48Z</time>
      </trkpt>
      <trkpt lat="47.52767" lon="2.062268">
        <ele>154.0</ele>
        <time>2022-05-19T07:12:49Z</time>
      </trkpt>
      <trkpt lat="47.527683" lon="2.062265">
        <ele>154.0</ele>
        <time>2022-05-19T07:12:50Z</time>
      </trkpt>
      <trkpt lat="47.527687" lon="2.0622659">
        <ele>155.0</ele>
        <time>2022-05-19T07:12:51Z</time>
      </trkpt>
      <trkpt lat="47.5277" lon="2.0622697">
        <ele>155.0</ele>
        <time>2022-05-19T07:12:52Z</time>
      </trkpt>
      <trkpt lat="47.527706" lon="2.0622702">
        <ele>155.0</ele>
        <time>2022-05-19T07:12:53Z</time>
      </trkpt>
      <trkpt lat="47.527718" lon="2.0622725">
        <ele>155.0</ele>
        <time>2022-05-19T07:12:54Z</time>
      </trkpt>
      <trkpt lat="47.527733" lon="2.0622742">
        <ele>155.0</ele>
        <time>2022-05-19T07:12:55Z</time>
      </trkpt>
      <trkpt lat="47.527744" lon="2.0622773">
        <ele>155.0</ele>
        <time>2022-05-19T07:12:56Z</time>
      </trkpt>
      <trkpt lat="47.527752" lon="2.0622833">
        <ele>156.0</ele>
        <time>2022-05-19T07:12:57Z</time>
      </trkpt>
      <trkpt lat="47.527763" lon="2.0622919">
        <ele>156.0</ele>
        <time>2022-05-19T07:12:58Z</time>
      </trkpt>
      <trkpt lat="47.527775" lon="2.0622947">
        <ele>156.0</ele>
        <time>2022-05-19T07:12:59Z</time>
      </trkpt>
      <trkpt lat="47.527786" lon="2.0622985">
        <ele>156.0</ele>
        <time>2022-05-19T07:13:00Z</time>
      </trkpt>
      <trkpt lat="47.527794" lon="2.062301">
        <ele>156.0</ele>
        <time>2022-05-19T07:13:01Z</time>
      </trkpt>
      <trkpt lat="47.527805" lon="2.062306">
        <ele>156.0</ele>
        <time>2022-05-19T07:13:02Z</time>
      </trkpt>
      <trkpt lat="47.52782" lon="2.0623171">
        <ele>156.0</ele>
        <time>2022-05-19T07:13:03Z</time>
      </trkpt>
      <trkpt lat="47.527832" lon="2.0623233">
        <ele>156.0</ele>
        <time>2022-05-19T07:13:04Z</time>
      </trkpt>
      <trkpt lat="47.527843" lon="2.062324">
        <ele>156.0</ele>
        <time>2022-05-19T07:13:05Z</time>
      </trkpt>
      <trkpt lat="47.52786" lon="2.0623279">
        <ele>156.0</ele>
        <time>2022-05-19T07:13:06Z</time>
      </trkpt>
      <trkpt lat="47.52787" lon="2.0623348">
        <ele>156.0</ele>
        <time>2022-05-19T07:13:07Z</time>
      </trkpt>
      <trkpt lat="47.52788" lon="2.0623403">
        <ele>155.0</ele>
        <time>2022-05-19T07:13:08Z</time>
      </trkpt>
      <trkpt lat="47.527897" lon="2.062346">
        <ele>155.0</ele>
        <time>2022-05-19T07:13:09Z</time>
      </trkpt>
      <trkpt lat="47.52791" lon="2.0623517">
        <ele>154.0</ele>
        <time>2022-05-19T07:13:10Z</time>
      </trkpt>
      <trkpt lat="47.527924" lon="2.0623577">
        <ele>155.0</ele>
        <time>2022-05-19T07:13:11Z</time>
      </trkpt>
      <trkpt lat="47.527935" lon="2.0623615">
        <ele>155.0</ele>
        <time>2022-05-19T07:13:12Z</time>
      </trkpt>
      <trkpt lat="47.52794" lon="2.0623615">
        <ele>156.0</ele>
        <time>2022-05-19T07:13:13Z</time>
      </trkpt>
      <trkpt lat="47.527946" lon="2.0623636">
        <ele>157.0</ele>
        <time>2022-05-19T07:13:14Z</time>
      </trkpt>
      <trkpt lat="47.527958" lon="2.0623672">
        <ele>157.0</ele>
        <time>2022-05-19T07:13:15Z</time>
      </trkpt>
      <trkpt lat="47.527973" lon="2.062369">
        <ele>157.0</ele>
        <time>2022-05-19T07:13:16Z</time>
      </trkpt>
      <trkpt lat="47.52799" lon="2.0623686">
        <ele>157.0</ele>
        <time>2022-05-19T07:13:17Z</time>
      </trkpt>
      <trkpt lat="47.52801" lon="2.062373">
        <ele>158.0</ele>
        <time>2022-05-19T07:13:18Z</time>
      </trkpt>
      <trkpt lat="47.528027" lon="2.0623853">
        <ele>157.0</ele>
        <time>2022-05-19T07:13:19Z</time>
      </trkpt>
      <trkpt lat="47.528038" lon="2.0623927">
        <ele>158.0</ele>
        <time>2022-05-19T07:13:20Z</time>
      </trkpt>
      <trkpt lat="47.52805" lon="2.0624046">
        <ele>158.0</ele>
        <time>2022-05-19T07:13:21Z</time>
      </trkpt>
      <trkpt lat="47.52806" lon="2.0624208">
        <ele>158.0</ele>
        <time>2022-05-19T07:13:22Z</time>
      </trkpt>
      <trkpt lat="47.528065" lon="2.0624366">
        <ele>158.0</ele>
        <time>2022-05-19T07:13:23Z</time>
      </trkpt>
      <trkpt lat="47.528065" lon="2.0624542">
        <ele>158.0</ele>
        <time>2022-05-19T07:13:24Z</time>
      </trkpt>
      <trkpt lat="47.528065" lon="2.0624688">
        <ele>157.0</ele>
        <time>2022-05-19T07:13:25Z</time>
      </trkpt>
      <trkpt lat="47.528065" lon="2.0624886">
        <ele>157.0</ele>
        <time>2022-05-19T07:13:26Z</time>
      </trkpt>
      <trkpt lat="47.528065" lon="2.0625055">
        <ele>156.0</ele>
        <time>2022-05-19T07:13:27Z</time>
      </trkpt>
      <trkpt lat="47.52806" lon="2.0625255">
        <ele>156.0</ele>
        <time>2022-05-19T07:13:28Z</time>
      </trkpt>
      <trkpt lat="47.52806" lon="2.0625463">
        <ele>155.0</ele>
        <time>2022-05-19T07:13:29Z</time>
      </trkpt>
      <trkpt lat="47.528065" lon="2.0625703">
        <ele>155.0</ele>
        <time>2022-05-19T07:13:30Z</time>
      </trkpt>
      <trkpt lat="47.528065" lon="2.0625865">
        <ele>155.0</ele>
        <time>2022-05-19T07:13:31Z</time>
      </trkpt>
      <trkpt lat="47.528065" lon="2.0626035">
        <ele>156.0</ele>
        <time>2022-05-19T07:13:32Z</time>
      </trkpt>
      <trkpt lat="47.528065" lon="2.0626192">
        <ele>156.0</ele>
        <time>2022-05-19T07:13:33Z</time>
      </trkpt>
      <trkpt lat="47.528065" lon="2.0626354">
        <ele>156.0</ele>
        <time>2022-05-19T07:13:34Z</time>
      </trkpt>
      <trkpt lat="47.528065" lon="2.0626543">
        <ele>156.0</ele>
        <time>2022-05-19T07:13:35Z</time>
      </trkpt>
      <trkpt lat="47.52807" lon="2.0626736">
        <ele>156.0</ele>
        <time>2022-05-19T07:13:36Z</time>
      </trkpt>
      <trkpt lat="47.52807" lon="2.0626981">
        <ele>156.0</ele>
        <time>2022-05-19T07:13:37Z</time>
      </trkpt>
      <trkpt lat="47.52807" lon="2.0627208">
        <ele>156.0</ele>
        <time>2022-05-19T07:13:38Z</time>
      </trkpt>
      <trkpt lat="47.528072" lon="2.0627396">
        <ele>156.0</ele>
        <time>2022-05-19T07:13:39Z</time>
      </trkpt>
      <trkpt lat="47.52807" lon="2.0627537">
        <ele>155.0</ele>
        <time>2022-05-19T07:13:40Z</time>
      </trkpt>
      <trkpt lat="47.52807" lon="2.0627706">
        <ele>155.0</ele>
        <time>2022-05-19T07:13:41Z</time>
      </trkpt>
      <trkpt lat="47.528072" lon="2.0627878">
        <ele>156.0</ele>
        <time>2022-05-19T07:13:42Z</time>
      </trkpt>
      <trkpt lat="47.528072" lon="2.0628052">
        <ele>156.0</ele>
        <time>2022-05-19T07:13:43Z</time>
      </trkpt>
      <trkpt lat="47.52807" lon="2.0628219">
        <ele>156.0</ele>
        <time>2022-05-19T07:13:44Z</time>
      </trkpt>
      <trkpt lat="47.52807" lon="2.0628405">
        <ele>156.0</ele>
        <time>2022-05-19T07:13:45Z</time>
      </trkpt>
      <trkpt lat="47.528065" lon="2.0628562">
        <ele>157.0</ele>
        <time>2022-05-19T07:13:46Z</time>
      </trkpt>
      <trkpt lat="47.528065" lon="2.0628731">
        <ele>157.0</ele>
        <time>2022-05-19T07:13:47Z</time>
      </trkpt>
      <trkpt lat="47.52807" lon="2.06289">
        <ele>157.0</ele>
        <time>2022-05-19T07:13:48Z</time>
      </trkpt>
      <trkpt lat="47.52807" lon="2.0629046">
        <ele>157.0</ele>
        <time>2022-05-19T07:13:49Z</time>
      </trkpt>
      <trkpt lat="47.528072" lon="2.062922">
        <ele>156.0</ele>
        <time>2022-05-19T07:13:50Z</time>
      </trkpt>
      <trkpt lat="47.52807" lon="2.0629416">
        <ele>156.0</ele>
        <time>2022-05-19T07:13:51Z</time>
      </trkpt>
      <trkpt lat="47.52807" lon="2.06296">
        <ele>155.0</ele>
        <time>2022-05-19T07:13:52Z</time>
      </trkpt>
      <trkpt lat="47.528065" lon="2.0629766">
        <ele>155.0</ele>
        <time>2022-05-19T07:13:53Z</time>
      </trkpt>
      <trkpt lat="47.52806" lon="2.0629914">
        <ele>155.0</ele>
        <time>2022-05-19T07:13:54Z</time>
      </trkpt>
      <trkpt lat="47.528057" lon="2.0630095">
        <ele>155.0</ele>
        <time>2022-05-19T07:13:55Z</time>
      </trkpt>
      <trkpt lat="47.528057" lon="2.0630276">
        <ele>154.0</ele>
        <time>2022-05-19T07:13:56Z</time>
      </trkpt>
      <trkpt lat="47.528057" lon="2.063047">
        <ele>154.0</ele>
        <time>2022-05-19T07:13:57Z</time>
      </trkpt>
      <trkpt lat="47.528057" lon="2.063064">
        <ele>154.0</ele>
        <time>2022-05-19T07:13:58Z</time>
      </trkpt>
      <trkpt lat="47.528057" lon="2.063082">
        <ele>154.0</ele>
        <time>2022-05-19T07:13:59Z</time>
      </trkpt>
      <trkpt lat="47.528053" lon="2.0630994">
        <ele>155.0</ele>
        <time>2022-05-19T07:14:00Z</time>
      </trkpt>
      <trkpt lat="47.52805" lon="2.0631142">
        <ele>155.0</ele>
        <time>2022-05-19T07:14:01Z</time>
      </trkpt>
      <trkpt lat="47.528046" lon="2.0631316">
        <ele>154.0</ele>
        <time>2022-05-19T07:14:02Z</time>
      </trkpt>
      <trkpt lat="47.52804" lon="2.063146">
        <ele>154.0</ele>
        <time>2022-05-19T07:14:03Z</time>
      </trkpt>
      <trkpt lat="47.528038" lon="2.0631576">
        <ele>155.0</ele>
        <time>2022-05-19T07:14:04Z</time>
      </trkpt>
      <trkpt lat="47.528038" lon="2.0631733">
        <ele>154.0</ele>
        <time>2022-05-19T07:14:05Z</time>
      </trkpt>
      <trkpt lat="47.528034" lon="2.0631878">
        <ele>154.0</ele>
        <time>2022-05-19T07:14:06Z</time>
      </trkpt>
      <trkpt lat="47.528034" lon="2.0631986">
        <ele>154.0</ele>
        <time>2022-05-19T07:14:07Z</time>
      </trkpt>
      <trkpt lat="47.528034" lon="2.0632133">
        <ele>154.0</ele>
        <time>2022-05-19T07:14:08Z</time>
      </trkpt>
      <trkpt lat="47.528034" lon="2.0632286">
        <ele>154.0</ele>
        <time>2022-05-19T07:14:09Z</time>
      </trkpt>
      <trkpt lat="47.528034" lon="2.0632486">
        <ele>154.0</ele>
        <time>2022-05-19T07:14:10Z</time>
      </trkpt>
      <trkpt lat="47.528034" lon="2.0632687">
        <ele>154.0</ele>
        <time>2022-05-19T07:14:11Z</time>
      </trkpt>
      <trkpt lat="47.528038" lon="2.0632885">
        <ele>154.0</ele>
        <time>2022-05-19T07:14:12Z</time>
      </trkpt>
      <trkpt lat="47.528034" lon="2.0633063">
        <ele>155.0</ele>
        <time>2022-05-19T07:14:13Z</time>
      </trkpt>
      <trkpt lat="47.52803" lon="2.0633235">
        <ele>155.0</ele>
        <time>2022-05-19T07:14:14Z</time>
      </trkpt>
      <trkpt lat="47.52803" lon="2.0633357">
        <ele>155.0</ele>
        <time>2022-05-19T07:14:15Z</time>
      </trkpt>
      <trkpt lat="47.528027" lon="2.0633519">
        <ele>156.0</ele>
        <time>2022-05-19T07:14:16Z</time>
      </trkpt>
      <trkpt lat="47.528027" lon="2.0633714">
        <ele>156.0</ele>
        <time>2022-05-19T07:14:17Z</time>
      </trkpt>
      <trkpt lat="47.52803" lon="2.06339">
        <ele>156.0</ele>
        <time>2022-05-19T07:14:18Z</time>
      </trkpt>
      <trkpt lat="47.52803" lon="2.0634072">
        <ele>157.0</ele>
        <time>2022-05-19T07:14:19Z</time>
      </trkpt>
      <trkpt lat="47.52803" lon="2.0634248">
        <ele>157.0</ele>
        <time>2022-05-19T07:14:20Z</time>
      </trkpt>
      <trkpt lat="47.52803" lon="2.0634413">
        <ele>157.0</ele>
        <time>2022-05-19T07:14:21Z</time>
      </trkpt>
      <trkpt lat="47.52803" lon="2.063456">
        <ele>157.0</ele>
        <time>2022-05-19T07:14:22Z</time>
      </trkpt>
      <trkpt lat="47.528027" lon="2.0634754">
        <ele>158.0</ele>
        <time>2022-05-19T07:14:23Z</time>
      </trkpt>
      <trkpt lat="47.528023" lon="2.0634933">
        <ele>158.0</ele>
        <time>2022-05-19T07:14:24Z</time>
      </trkpt>
      <trkpt lat="47.528023" lon="2.0635092">
        <ele>158.0</ele>
        <time>2022-05-19T07:14:25Z</time>
      </trkpt>
      <trkpt lat="47.528023" lon="2.0635285">
        <ele>158.0</ele>
        <time>2022-05-19T07:14:26Z</time>
      </trkpt>
      <trkpt lat="47.52802" lon="2.0635462">
        <ele>158.0</ele>
        <time>2022-05-19T07:14:27Z</time>
      </trkpt>
      <trkpt lat="47.52802" lon="2.0635629">
        <ele>158.0</ele>
        <time>2022-05-19T07:14:28Z</time>
      </trkpt>
      <trkpt lat="47.52802" lon="2.0635812">
        <ele>158.0</ele>
        <time>2022-05-19T07:14:29Z</time>
      </trkpt>
      <trkpt lat="47.528015" lon="2.0635998">
        <ele>158.0</ele>
        <time>2022-05-19T07:14:30Z</time>
      </trkpt>
      <trkpt lat="47.528015" lon="2.063622">
        <ele>159.0</ele>
        <time>2022-05-19T07:14:31Z</time>
      </trkpt>
      <trkpt lat="47.52801" lon="2.063642">
        <ele>159.0</ele>
        <time>2022-05-19T07:14:32Z</time>
      </trkpt>
      <trkpt lat="47.528008" lon="2.0636592">
        <ele>159.0</ele>
        <time>2022-05-19T07:14:33Z</time>
      </trkpt>
      <trkpt lat="47.528008" lon="2.0636752">
        <ele>160.0</ele>
        <time>2022-05-19T07:14:34Z</time>
      </trkpt>
      <trkpt lat="47.528008" lon="2.0636911">
        <ele>160.0</ele>
        <time>2022-05-19T07:14:35Z</time>
      </trkpt>
      <trkpt lat="47.528004" lon="2.0637093">
        <ele>160.0</ele>
        <time>2022-05-19T07:14:36Z</time>
      </trkpt>
      <trkpt lat="47.528004" lon="2.0637257">
        <ele>160.0</ele>
        <time>2022-05-19T07:14:37Z</time>
      </trkpt>
      <trkpt lat="47.528004" lon="2.0637426">
        <ele>160.0</ele>
        <time>2022-05-19T07:14:38Z</time>
      </trkpt>
      <trkpt lat="47.528004" lon="2.063756">
        <ele>161.0</ele>
        <time>2022-05-19T07:14:39Z</time>
      </trkpt>
      <trkpt lat="47.528004" lon="2.0637686">
        <ele>161.0</ele>
        <time>2022-05-19T07:14:40Z</time>
      </trkpt>
      <trkpt lat="47.528004" lon="2.0637836">
        <ele>161.0</ele>
        <time>2022-05-19T07:14:41Z</time>
      </trkpt>
      <trkpt lat="47.528" lon="2.063802">
        <ele>161.0</ele>
        <time>2022-05-19T07:14:42Z</time>
      </trkpt>
      <trkpt lat="47.528" lon="2.063819">
        <ele>161.0</ele>
        <time>2022-05-19T07:14:43Z</time>
      </trkpt>
      <trkpt lat="47.528" lon="2.063837">
        <ele>161.0</ele>
        <time>2022-05-19T07:14:44Z</time>
      </trkpt>
      <trkpt lat="47.527992" lon="2.0638516">
        <ele>161.0</ele>
        <time>2022-05-19T07:14:45Z</time>
      </trkpt>
      <trkpt lat="47.52799" lon="2.0638676">
        <ele>161.0</ele>
        <time>2022-05-19T07:14:46Z</time>
      </trkpt>
      <trkpt lat="47.527985" lon="2.063887">
        <ele>161.0</ele>
        <time>2022-05-19T07:14:47Z</time>
      </trkpt>
      <trkpt lat="47.52798" lon="2.0639064">
        <ele>161.0</ele>
        <time>2022-05-19T07:14:48Z</time>
      </trkpt>
      <trkpt lat="47.527977" lon="2.0639234">
        <ele>161.0</ele>
        <time>2022-05-19T07:14:49Z</time>
      </trkpt>
      <trkpt lat="47.527977" lon="2.0639377">
        <ele>161.0</ele>
        <time>2022-05-19T07:14:50Z</time>
      </trkpt>
      <trkpt lat="47.52798" lon="2.0639548">
        <ele>161.0</ele>
        <time>2022-05-19T07:14:51Z</time>
      </trkpt>
      <trkpt lat="47.527985" lon="2.0639763">
        <ele>161.0</ele>
        <time>2022-05-19T07:14:52Z</time>
      </trkpt>
      <trkpt lat="47.527985" lon="2.0639906">
        <ele>160.0</ele>
        <time>2022-05-19T07:14:53Z</time>
      </trkpt>
      <trkpt lat="47.527985" lon="2.0640092">
        <ele>160.0</ele>
        <time>2022-05-19T07:14:54Z</time>
      </trkpt>
      <trkpt lat="47.527985" lon="2.0640287">
        <ele>160.0</ele>
        <time>2022-05-19T07:14:55Z</time>
      </trkpt>
      <trkpt lat="47.52799" lon="2.0640442">
        <ele>161.0</ele>
        <time>2022-05-19T07:14:56Z</time>
      </trkpt>
      <trkpt lat="47.527992" lon="2.0640557">
        <ele>161.0</ele>
        <time>2022-05-19T07:14:57Z</time>
      </trkpt>
      <trkpt lat="47.527992" lon="2.0640697">
        <ele>161.0</ele>
        <time>2022-05-19T07:14:58Z</time>
      </trkpt>
      <trkpt lat="47.527992" lon="2.0640817">
        <ele>161.0</ele>
        <time>2022-05-19T07:14:59Z</time>
      </trkpt>
      <trkpt lat="47.527992" lon="2.064093">
        <ele>161.0</ele>
        <time>2022-05-19T07:15:00Z</time>
      </trkpt>
      <trkpt lat="47.527992" lon="2.064104">
        <ele>161.0</ele>
        <time>2022-05-19T07:15:01Z</time>
      </trkpt>
      <trkpt lat="47.527996" lon="2.0641158">
        <ele>161.0</ele>
        <time>2022-05-19T07:15:02Z</time>
      </trkpt>
      <trkpt lat="47.527996" lon="2.064133">
        <ele>161.0</ele>
        <time>2022-05-19T07:15:03Z</time>
      </trkpt>
      <trkpt lat="47.528" lon="2.06415">
        <ele>161.0</ele>
        <time>2022-05-19T07:15:04Z</time>
      </trkpt>
      <trkpt lat="47.528" lon="2.0641644">
        <ele>160.0</ele>
        <time>2022-05-19T07:15:05Z</time>
      </trkpt>
      <trkpt lat="47.528" lon="2.0641804">
        <ele>160.0</ele>
        <time>2022-05-19T07:15:06Z</time>
      </trkpt>
      <trkpt lat="47.528" lon="2.0641954">
        <ele>160.0</ele>
        <time>2022-05-19T07:15:07Z</time>
      </trkpt>
      <trkpt lat="47.528" lon="2.0642114">
        <ele>160.0</ele>
        <time>2022-05-19T07:15:08Z</time>
      </trkpt>
      <trkpt lat="47.528" lon="2.0642273">
        <ele>160.0</ele>
        <time>2022-05-19T07:15:09Z</time>
      </trkpt>
      <trkpt lat="47.527996" lon="2.0642457">
        <ele>160.0</ele>
        <time>2022-05-19T07:15:10Z</time>
      </trkpt>
      <trkpt lat="47.528" lon="2.0642624">
        <ele>160.0</ele>
        <time>2022-05-19T07:15:11Z</time>
      </trkpt>
      <trkpt lat="47.528" lon="2.06428">
        <ele>160.0</ele>
        <time>2022-05-19T07:15:12Z</time>
      </trkpt>
      <trkpt lat="47.528" lon="2.0642989">
        <ele>160.0</ele>
        <time>2022-05-19T07:15:13Z</time>
      </trkpt>
      <trkpt lat="47.528004" lon="2.0643196">
        <ele>160.0</ele>
        <time>2022-05-19T07:15:14Z</time>
      </trkpt>
      <trkpt lat="47.528004" lon="2.0643377">
        <ele>160.0</ele>
        <time>2022-05-19T07:15:15Z</time>
      </trkpt>
      <trkpt lat="47.528" lon="2.0643542">
        <ele>161.0</ele>
        <time>2022-05-19T07:15:16Z</time>
      </trkpt>
      <trkpt lat="47.527996" lon="2.0643723">
        <ele>161.0</ele>
        <time>2022-05-19T07:15:17Z</time>
      </trkpt>
      <trkpt lat="47.527992" lon="2.0643916">
        <ele>162.0</ele>
        <time>2022-05-19T07:15:18Z</time>
      </trkpt>
      <trkpt lat="47.52799" lon="2.0644088">
        <ele>162.0</ele>
        <time>2022-05-19T07:15:19Z</time>
      </trkpt>
      <trkpt lat="47.52798" lon="2.0644233">
        <ele>163.0</ele>
        <time>2022-05-19T07:15:20Z</time>
      </trkpt>
      <trkpt lat="47.527973" lon="2.0644321">
        <ele>163.0</ele>
        <time>2022-05-19T07:15:21Z</time>
      </trkpt>
      <trkpt lat="47.52797" lon="2.064436">
        <ele>163.0</ele>
        <time>2022-05-19T07:15:22Z</time>
      </trkpt>
      <trkpt lat="47.52797" lon="2.064436">
        <ele>163.0</ele>
        <time>2022-05-19T07:15:23Z</time>
      </trkpt>
      <trkpt lat="47.52796" lon="2.0644476">
        <ele>163.0</ele>
        <time>2022-05-19T07:15:24Z</time>
      </trkpt>
      <trkpt lat="47.527958" lon="2.0644596">
        <ele>163.0</ele>
        <time>2022-05-19T07:15:25Z</time>
      </trkpt>
      <trkpt lat="47.527954" lon="2.0644734">
        <ele>163.0</ele>
        <time>2022-05-19T07:15:26Z</time>
      </trkpt>
      <trkpt lat="47.52795" lon="2.0644898">
        <ele>163.0</ele>
        <time>2022-05-19T07:15:27Z</time>
      </trkpt>
      <trkpt lat="47.52795" lon="2.0645044">
        <ele>163.0</ele>
        <time>2022-05-19T07:15:28Z</time>
      </trkpt>
      <trkpt lat="47.527946" lon="2.0645168">
        <ele>162.0</ele>
        <time>2022-05-19T07:15:29Z</time>
      </trkpt>
      <trkpt lat="47.52795" lon="2.0645323">
        <ele>163.0</ele>
        <time>2022-05-19T07:15:30Z</time>
      </trkpt>
      <trkpt lat="47.52795" lon="2.0645487">
        <ele>163.0</ele>
        <time>2022-05-19T07:15:31Z</time>
      </trkpt>
      <trkpt lat="47.52795" lon="2.0645652">
        <ele>163.0</ele>
        <time>2022-05-19T07:15:32Z</time>
      </trkpt>
      <trkpt lat="47.52795" lon="2.0645819">
        <ele>162.0</ele>
        <time>2022-05-19T07:15:33Z</time>
      </trkpt>
      <trkpt lat="47.52795" lon="2.0645962">
        <ele>162.0</ele>
        <time>2022-05-19T07:15:34Z</time>
      </trkpt>
      <trkpt lat="47.52795" lon="2.064614">
        <ele>162.0</ele>
        <time>2022-05-19T07:15:35Z</time>
      </trkpt>
      <trkpt lat="47.52795" lon="2.0646324">
        <ele>162.0</ele>
        <time>2022-05-19T07:15:36Z</time>
      </trkpt>
      <trkpt lat="47.527946" lon="2.0646505">
        <ele>162.0</ele>
        <time>2022-05-19T07:15:37Z</time>
      </trkpt>
      <trkpt lat="47.527943" lon="2.064675">
        <ele>162.0</ele>
        <time>2022-05-19T07:15:38Z</time>
      </trkpt>
      <trkpt lat="47.527943" lon="2.0646982">
        <ele>163.0</ele>
        <time>2022-05-19T07:15:39Z</time>
      </trkpt>
      <trkpt lat="47.52794" lon="2.064717">
        <ele>163.0</ele>
        <time>2022-05-19T07:15:40Z</time>
      </trkpt>
      <trkpt lat="47.52793" lon="2.064737">
        <ele>163.0</ele>
        <time>2022-05-19T07:15:41Z</time>
      </trkpt>
      <trkpt lat="47.52793" lon="2.064753">
        <ele>163.0</ele>
        <time>2022-05-19T07:15:42Z</time>
      </trkpt>
      <trkpt lat="47.527927" lon="2.0647686">
        <ele>163.0</ele>
        <time>2022-05-19T07:15:43Z</time>
      </trkpt>
      <trkpt lat="47.527924" lon="2.0647843">
        <ele>163.0</ele>
        <time>2022-05-19T07:15:44Z</time>
      </trkpt>
      <trkpt lat="47.527916" lon="2.0648003">
        <ele>163.0</ele>
        <time>2022-05-19T07:15:45Z</time>
      </trkpt>
      <trkpt lat="47.527912" lon="2.064818">
        <ele>163.0</ele>
        <time>2022-05-19T07:15:46Z</time>
      </trkpt>
      <trkpt lat="47.52791" lon="2.064836">
        <ele>162.0</ele>
        <time>2022-05-19T07:15:47Z</time>
      </trkpt>
      <trkpt lat="47.527905" lon="2.064855">
        <ele>162.0</ele>
        <time>2022-05-19T07:15:48Z</time>
      </trkpt>
      <trkpt lat="47.527905" lon="2.0648735">
        <ele>162.0</ele>
        <time>2022-05-19T07:15:49Z</time>
      </trkpt>
      <trkpt lat="47.527905" lon="2.0648916">
        <ele>162.0</ele>
        <time>2022-05-19T07:15:50Z</time>
      </trkpt>
      <trkpt lat="47.527905" lon="2.0649092">
        <ele>162.0</ele>
        <time>2022-05-19T07:15:51Z</time>
      </trkpt>
      <trkpt lat="47.5279" lon="2.0649278">
        <ele>162.0</ele>
        <time>2022-05-19T07:15:52Z</time>
      </trkpt>
      <trkpt lat="47.527897" lon="2.0649467">
        <ele>162.0</ele>
        <time>2022-05-19T07:15:53Z</time>
      </trkpt>
      <trkpt lat="47.527893" lon="2.0649626">
        <ele>162.0</ele>
        <time>2022-05-19T07:15:54Z</time>
      </trkpt>
      <trkpt lat="47.52789" lon="2.0649788">
        <ele>162.0</ele>
        <time>2022-05-19T07:15:55Z</time>
      </trkpt>
      <trkpt lat="47.527885" lon="2.0649967">
        <ele>162.0</ele>
        <time>2022-05-19T07:15:56Z</time>
      </trkpt>
      <trkpt lat="47.52788" lon="2.0650141">
        <ele>162.0</ele>
        <time>2022-05-19T07:15:57Z</time>
      </trkpt>
      <trkpt lat="47.527878" lon="2.0650241">
        <ele>162.0</ele>
        <time>2022-05-19T07:15:58Z</time>
      </trkpt>
      <trkpt lat="47.527874" lon="2.065037">
        <ele>162.0</ele>
        <time>2022-05-19T07:15:59Z</time>
      </trkpt>
      <trkpt lat="47.52787" lon="2.0650465">
        <ele>162.0</ele>
        <time>2022-05-19T07:16:00Z</time>
      </trkpt>
      <trkpt lat="47.52787" lon="2.0650547">
        <ele>161.0</ele>
        <time>2022-05-19T07:16:01Z</time>
      </trkpt>
      <trkpt lat="47.527874" lon="2.0650666">
        <ele>162.0</ele>
        <time>2022-05-19T07:16:02Z</time>
      </trkpt>
      <trkpt lat="47.52787" lon="2.0650835">
        <ele>162.0</ele>
        <time>2022-05-19T07:16:03Z</time>
      </trkpt>
      <trkpt lat="47.52787" lon="2.0651007">
        <ele>162.0</ele>
        <time>2022-05-19T07:16:04Z</time>
      </trkpt>
      <trkpt lat="47.52787" lon="2.0651166">
        <ele>162.0</ele>
        <time>2022-05-19T07:16:05Z</time>
      </trkpt>
      <trkpt lat="47.527863" lon="2.065136">
        <ele>162.0</ele>
        <time>2022-05-19T07:16:06Z</time>
      </trkpt>
      <trkpt lat="47.527863" lon="2.0651548">
        <ele>162.0</ele>
        <time>2022-05-19T07:16:07Z</time>
      </trkpt>
      <trkpt lat="47.527863" lon="2.0651703">
        <ele>162.0</ele>
        <time>2022-05-19T07:16:08Z</time>
      </trkpt>
      <trkpt lat="47.52786" lon="2.0651863">
        <ele>162.0</ele>
        <time>2022-05-19T07:16:09Z</time>
      </trkpt>
      <trkpt lat="47.527855" lon="2.0652032">
        <ele>162.0</ele>
        <time>2022-05-19T07:16:10Z</time>
      </trkpt>
      <trkpt lat="47.52786" lon="2.065219">
        <ele>162.0</ele>
        <time>2022-05-19T07:16:11Z</time>
      </trkpt>
      <trkpt lat="47.52786" lon="2.0652347">
        <ele>162.0</ele>
        <time>2022-05-19T07:16:12Z</time>
      </trkpt>
      <trkpt lat="47.52786" lon="2.0652533">
        <ele>161.0</ele>
        <time>2022-05-19T07:16:13Z</time>
      </trkpt>
      <trkpt lat="47.52786" lon="2.0652716">
        <ele>161.0</ele>
        <time>2022-05-19T07:16:14Z</time>
      </trkpt>
      <trkpt lat="47.52786" lon="2.0652895">
        <ele>161.0</ele>
        <time>2022-05-19T07:16:15Z</time>
      </trkpt>
      <trkpt lat="47.527863" lon="2.0653062">
        <ele>161.0</ele>
        <time>2022-05-19T07:16:16Z</time>
      </trkpt>
      <trkpt lat="47.527866" lon="2.0653205">
        <ele>161.0</ele>
        <time>2022-05-19T07:16:17Z</time>
      </trkpt>
      <trkpt lat="47.52787" lon="2.065334">
        <ele>161.0</ele>
        <time>2022-05-19T07:16:18Z</time>
      </trkpt>
      <trkpt lat="47.52787" lon="2.0653489">
        <ele>160.0</ele>
        <time>2022-05-19T07:16:19Z</time>
      </trkpt>
      <trkpt lat="47.52787" lon="2.0653605">
        <ele>160.0</ele>
        <time>2022-05-19T07:16:20Z</time>
      </trkpt>
      <trkpt lat="47.527874" lon="2.0653827">
        <ele>159.0</ele>
        <time>2022-05-19T07:16:21Z</time>
      </trkpt>
      <trkpt lat="47.52787" lon="2.0654042">
        <ele>159.0</ele>
        <time>2022-05-19T07:16:22Z</time>
      </trkpt>
      <trkpt lat="47.527866" lon="2.065422">
        <ele>158.0</ele>
        <time>2022-05-19T07:16:23Z</time>
      </trkpt>
      <trkpt lat="47.527863" lon="2.0654402">
        <ele>158.0</ele>
        <time>2022-05-19T07:16:24Z</time>
      </trkpt>
      <trkpt lat="47.52786" lon="2.0654585">
        <ele>158.0</ele>
        <time>2022-05-19T07:16:25Z</time>
      </trkpt>
      <trkpt lat="47.527863" lon="2.0654738">
        <ele>158.0</ele>
        <time>2022-05-19T07:16:26Z</time>
      </trkpt>
      <trkpt lat="47.527863" lon="2.0654879">
        <ele>158.0</ele>
        <time>2022-05-19T07:16:27Z</time>
      </trkpt>
      <trkpt lat="47.527863" lon="2.065499">
        <ele>158.0</ele>
        <time>2022-05-19T07:16:28Z</time>
      </trkpt>
      <trkpt lat="47.527866" lon="2.0655138">
        <ele>158.0</ele>
        <time>2022-05-19T07:16:29Z</time>
      </trkpt>
      <trkpt lat="47.527866" lon="2.0655274">
        <ele>158.0</ele>
        <time>2022-05-19T07:16:30Z</time>
      </trkpt>
      <trkpt lat="47.527863" lon="2.065543">
        <ele>158.0</ele>
        <time>2022-05-19T07:16:31Z</time>
      </trkpt>
      <trkpt lat="47.527863" lon="2.0655634">
        <ele>158.0</ele>
        <time>2022-05-19T07:16:32Z</time>
      </trkpt>
      <trkpt lat="47.52786" lon="2.0655825">
        <ele>158.0</ele>
        <time>2022-05-19T07:16:33Z</time>
      </trkpt>
      <trkpt lat="47.52786" lon="2.0656">
        <ele>158.0</ele>
        <time>2022-05-19T07:16:34Z</time>
      </trkpt>
      <trkpt lat="47.527855" lon="2.0656188">
        <ele>158.0</ele>
        <time>2022-05-19T07:16:35Z</time>
      </trkpt>
      <trkpt lat="47.527855" lon="2.0656364">
        <ele>158.0</ele>
        <time>2022-05-19T07:16:36Z</time>
      </trkpt>
      <trkpt lat="47.527847" lon="2.0656555">
        <ele>158.0</ele>
        <time>2022-05-19T07:16:37Z</time>
      </trkpt>
      <trkpt lat="47.527843" lon="2.0656729">
        <ele>158.0</ele>
        <time>2022-05-19T07:16:38Z</time>
      </trkpt>
      <trkpt lat="47.527843" lon="2.0656888">
        <ele>158.0</ele>
        <time>2022-05-19T07:16:39Z</time>
      </trkpt>
      <trkpt lat="47.52784" lon="2.0657032">
        <ele>157.0</ele>
        <time>2022-05-19T07:16:40Z</time>
      </trkpt>
      <trkpt lat="47.52784" lon="2.0657198">
        <ele>157.0</ele>
        <time>2022-05-19T07:16:41Z</time>
      </trkpt>
      <trkpt lat="47.527836" lon="2.0657394">
        <ele>157.0</ele>
        <time>2022-05-19T07:16:42Z</time>
      </trkpt>
      <trkpt lat="47.527832" lon="2.06576">
        <ele>156.0</ele>
        <time>2022-05-19T07:16:43Z</time>
      </trkpt>
      <trkpt lat="47.52783" lon="2.0657856">
        <ele>156.0</ele>
        <time>2022-05-19T07:16:44Z</time>
      </trkpt>
      <trkpt lat="47.527824" lon="2.0658095">
        <ele>156.0</ele>
        <time>2022-05-19T07:16:45Z</time>
      </trkpt>
      <trkpt lat="47.527817" lon="2.0658302">
        <ele>156.0</ele>
        <time>2022-05-19T07:16:46Z</time>
      </trkpt>
      <trkpt lat="47.527813" lon="2.0658462">
        <ele>155.0</ele>
        <time>2022-05-19T07:16:47Z</time>
      </trkpt>
      <trkpt lat="47.52781" lon="2.0658588">
        <ele>155.0</ele>
        <time>2022-05-19T07:16:48Z</time>
      </trkpt>
      <trkpt lat="47.527805" lon="2.0658746">
        <ele>155.0</ele>
        <time>2022-05-19T07:16:49Z</time>
      </trkpt>
      <trkpt lat="47.527805" lon="2.065882">
        <ele>154.0</ele>
        <time>2022-05-19T07:16:50Z</time>
      </trkpt>
      <trkpt lat="47.527805" lon="2.0658944">
        <ele>154.0</ele>
        <time>2022-05-19T07:16:51Z</time>
      </trkpt>
      <trkpt lat="47.527805" lon="2.0659082">
        <ele>154.0</ele>
        <time>2022-05-19T07:16:52Z</time>
      </trkpt>
      <trkpt lat="47.527805" lon="2.0659258">
        <ele>155.0</ele>
        <time>2022-05-19T07:16:53Z</time>
      </trkpt>
      <trkpt lat="47.527805" lon="2.0659459">
        <ele>155.0</ele>
        <time>2022-05-19T07:16:54Z</time>
      </trkpt>
      <trkpt lat="47.527805" lon="2.0659666">
        <ele>155.0</ele>
        <time>2022-05-19T07:16:55Z</time>
      </trkpt>
      <trkpt lat="47.527805" lon="2.0659876">
        <ele>155.0</ele>
        <time>2022-05-19T07:16:56Z</time>
      </trkpt>
      <trkpt lat="47.5278" lon="2.0660052">
        <ele>155.0</ele>
        <time>2022-05-19T07:16:57Z</time>
      </trkpt>
      <trkpt lat="47.527794" lon="2.0660229">
        <ele>155.0</ele>
        <time>2022-05-19T07:16:58Z</time>
      </trkpt>
      <trkpt lat="47.527794" lon="2.066041">
        <ele>156.0</ele>
        <time>2022-05-19T07:16:59Z</time>
      </trkpt>
      <trkpt lat="47.52779" lon="2.066055">
        <ele>155.0</ele>
        <time>2022-05-19T07:17:00Z</time>
      </trkpt>
      <trkpt lat="47.527786" lon="2.0660684">
        <ele>155.0</ele>
        <time>2022-05-19T07:17:01Z</time>
      </trkpt>
      <trkpt lat="47.527782" lon="2.0660846">
        <ele>155.0</ele>
        <time>2022-05-19T07:17:02Z</time>
      </trkpt>
      <trkpt lat="47.52778" lon="2.066105">
        <ele>155.0</ele>
        <time>2022-05-19T07:17:03Z</time>
      </trkpt>
      <trkpt lat="47.527775" lon="2.0661254">
        <ele>155.0</ele>
        <time>2022-05-19T07:17:04Z</time>
      </trkpt>
      <trkpt lat="47.52777" lon="2.0661438">
        <ele>155.0</ele>
        <time>2022-05-19T07:17:05Z</time>
      </trkpt>
      <trkpt lat="47.527767" lon="2.0661612">
        <ele>155.0</ele>
        <time>2022-05-19T07:17:06Z</time>
      </trkpt>
      <trkpt lat="47.527763" lon="2.066182">
        <ele>155.0</ele>
        <time>2022-05-19T07:17:07Z</time>
      </trkpt>
      <trkpt lat="47.52776" lon="2.0662003">
        <ele>156.0</ele>
        <time>2022-05-19T07:17:08Z</time>
      </trkpt>
      <trkpt lat="47.527763" lon="2.0662174">
        <ele>156.0</ele>
        <time>2022-05-19T07:17:09Z</time>
      </trkpt>
      <trkpt lat="47.527763" lon="2.0662339">
        <ele>155.0</ele>
        <time>2022-05-19T07:17:10Z</time>
      </trkpt>
      <trkpt lat="47.527763" lon="2.0662441">
        <ele>155.0</ele>
        <time>2022-05-19T07:17:11Z</time>
      </trkpt>
      <trkpt lat="47.527763" lon="2.0662584">
        <ele>155.0</ele>
        <time>2022-05-19T07:17:12Z</time>
      </trkpt>
      <trkpt lat="47.527763" lon="2.0662715">
        <ele>155.0</ele>
        <time>2022-05-19T07:17:13Z</time>
      </trkpt>
      <trkpt lat="47.527763" lon="2.066288">
        <ele>155.0</ele>
        <time>2022-05-19T07:17:14Z</time>
      </trkpt>
      <trkpt lat="47.52776" lon="2.0663028">
        <ele>155.0</ele>
        <time>2022-05-19T07:17:15Z</time>
      </trkpt>
      <trkpt lat="47.527756" lon="2.066318">
        <ele>155.0</ele>
        <time>2022-05-19T07:17:16Z</time>
      </trkpt>
      <trkpt lat="47.527756" lon="2.0663304">
        <ele>155.0</ele>
        <time>2022-05-19T07:17:17Z</time>
      </trkpt>
      <trkpt lat="47.52776" lon="2.0663395">
        <ele>155.0</ele>
        <time>2022-05-19T07:17:18Z</time>
      </trkpt>
      <trkpt lat="47.527763" lon="2.066348">
        <ele>155.0</ele>
        <time>2022-05-19T07:17:19Z</time>
      </trkpt>
      <trkpt lat="47.527763" lon="2.0663574">
        <ele>155.0</ele>
        <time>2022-05-19T07:17:20Z</time>
      </trkpt>
      <trkpt lat="47.527763" lon="2.0663724">
        <ele>156.0</ele>
        <time>2022-05-19T07:17:21Z</time>
      </trkpt>
      <trkpt lat="47.527767" lon="2.0663872">
        <ele>156.0</ele>
        <time>2022-05-19T07:17:22Z</time>
      </trkpt>
      <trkpt lat="47.527767" lon="2.066409">
        <ele>157.0</ele>
        <time>2022-05-19T07:17:23Z</time>
      </trkpt>
      <trkpt lat="47.527763" lon="2.0664256">
        <ele>156.0</ele>
        <time>2022-05-19T07:17:24Z</time>
      </trkpt>
      <trkpt lat="47.527756" lon="2.0664394">
        <ele>156.0</ele>
        <time>2022-05-19T07:17:25Z</time>
      </trkpt>
      <trkpt lat="47.527752" lon="2.0664594">
        <ele>156.0</ele>
        <time>2022-05-19T07:17:26Z</time>
      </trkpt>
      <trkpt lat="47.527752" lon="2.066477">
        <ele>156.0</ele>
        <time>2022-05-19T07:17:27Z</time>
      </trkpt>
      <trkpt lat="47.527752" lon="2.0664961">
        <ele>156.0</ele>
        <time>2022-05-19T07:17:28Z</time>
      </trkpt>
      <trkpt lat="47.52775" lon="2.0665152">
        <ele>156.0</ele>
        <time>2022-05-19T07:17:29Z</time>
      </trkpt>
      <trkpt lat="47.527744" lon="2.0665367">
        <ele>157.0</ele>
        <time>2022-05-19T07:17:30Z</time>
      </trkpt>
      <trkpt lat="47.527744" lon="2.0665557">
        <ele>157.0</ele>
        <time>2022-05-19T07:17:31Z</time>
      </trkpt>
      <trkpt lat="47.52774" lon="2.0665705">
        <ele>157.0</ele>
        <time>2022-05-19T07:17:32Z</time>
      </trkpt>
      <trkpt lat="47.527744" lon="2.066587">
        <ele>157.0</ele>
        <time>2022-05-19T07:17:33Z</time>
      </trkpt>
      <trkpt lat="47.527744" lon="2.0666056">
        <ele>157.0</ele>
        <time>2022-05-19T07:17:34Z</time>
      </trkpt>
      <trkpt lat="47.527744" lon="2.0666232">
        <ele>157.0</ele>
        <time>2022-05-19T07:17:35Z</time>
      </trkpt>
      <trkpt lat="47.52775" lon="2.0666373">
        <ele>157.0</ele>
        <time>2022-05-19T07:17:36Z</time>
      </trkpt>
      <trkpt lat="47.527744" lon="2.066656">
        <ele>156.0</ele>
        <time>2022-05-19T07:17:37Z</time>
      </trkpt>
      <trkpt lat="47.52774" lon="2.0666745">
        <ele>157.0</ele>
        <time>2022-05-19T07:17:38Z</time>
      </trkpt>
      <trkpt lat="47.527737" lon="2.0666904">
        <ele>157.0</ele>
        <time>2022-05-19T07:17:39Z</time>
      </trkpt>
      <trkpt lat="47.527733" lon="2.0667021">
        <ele>157.0</ele>
        <time>2022-05-19T07:17:40Z</time>
      </trkpt>
      <trkpt lat="47.527737" lon="2.0667145">
        <ele>157.0</ele>
        <time>2022-05-19T07:17:41Z</time>
      </trkpt>
      <trkpt lat="47.527733" lon="2.06673">
        <ele>158.0</ele>
        <time>2022-05-19T07:17:42Z</time>
      </trkpt>
      <trkpt lat="47.527725" lon="2.0667484">
        <ele>158.0</ele>
        <time>2022-05-19T07:17:43Z</time>
      </trkpt>
      <trkpt lat="47.52772" lon="2.0667644">
        <ele>158.0</ele>
        <time>2022-05-19T07:17:44Z</time>
      </trkpt>
      <trkpt lat="47.527718" lon="2.0667818">
        <ele>159.0</ele>
        <time>2022-05-19T07:17:45Z</time>
      </trkpt>
      <trkpt lat="47.527718" lon="2.0668015">
        <ele>158.0</ele>
        <time>2022-05-19T07:17:46Z</time>
      </trkpt>
      <trkpt lat="47.527714" lon="2.0668201">
        <ele>158.0</ele>
        <time>2022-05-19T07:17:47Z</time>
      </trkpt>
      <trkpt lat="47.527714" lon="2.0668364">
        <ele>158.0</ele>
        <time>2022-05-19T07:17:48Z</time>
      </trkpt>
      <trkpt lat="47.52771" lon="2.066855">
        <ele>158.0</ele>
        <time>2022-05-19T07:17:49Z</time>
      </trkpt>
      <trkpt lat="47.527706" lon="2.0668745">
        <ele>157.0</ele>
        <time>2022-05-19T07:17:50Z</time>
      </trkpt>
      <trkpt lat="47.5277" lon="2.0668864">
        <ele>157.0</ele>
        <time>2022-05-19T07:17:51Z</time>
      </trkpt>
      <trkpt lat="47.527695" lon="2.0668976">
        <ele>157.0</ele>
        <time>2022-05-19T07:17:52Z</time>
      </trkpt>
      <trkpt lat="47.527695" lon="2.0669086">
        <ele>157.0</ele>
        <time>2022-05-19T07:17:53Z</time>
      </trkpt>
      <trkpt lat="47.527695" lon="2.0669208">
        <ele>156.0</ele>
        <time>2022-05-19T07:17:54Z</time>
      </trkpt>
      <trkpt lat="47.5277" lon="2.066938">
        <ele>157.0</ele>
        <time>2022-05-19T07:17:55Z</time>
      </trkpt>
      <trkpt lat="47.527702" lon="2.0669546">
        <ele>157.0</ele>
        <time>2022-05-19T07:17:56Z</time>
      </trkpt>
      <trkpt lat="47.527702" lon="2.0669723">
        <ele>157.0</ele>
        <time>2022-05-19T07:17:57Z</time>
      </trkpt>
      <trkpt lat="47.527702" lon="2.0669947">
        <ele>156.0</ele>
        <time>2022-05-19T07:17:58Z</time>
      </trkpt>
      <trkpt lat="47.527702" lon="2.067014">
        <ele>156.0</ele>
        <time>2022-05-19T07:17:59Z</time>
      </trkpt>
      <trkpt lat="47.527695" lon="2.0670292">
        <ele>156.0</ele>
        <time>2022-05-19T07:18:00Z</time>
      </trkpt>
      <trkpt lat="47.52769" lon="2.0670433">
        <ele>156.0</ele>
        <time>2022-05-19T07:18:01Z</time>
      </trkpt>
      <trkpt lat="47.527687" lon="2.067059">
        <ele>156.0</ele>
        <time>2022-05-19T07:18:02Z</time>
      </trkpt>
      <trkpt lat="47.527683" lon="2.0670774">
        <ele>157.0</ele>
        <time>2022-05-19T07:18:03Z</time>
      </trkpt>
      <trkpt lat="47.527676" lon="2.0670981">
        <ele>157.0</ele>
        <time>2022-05-19T07:18:04Z</time>
      </trkpt>
      <trkpt lat="47.52767" lon="2.0671177">
        <ele>157.0</ele>
        <time>2022-05-19T07:18:05Z</time>
      </trkpt>
      <trkpt lat="47.527668" lon="2.0671434">
        <ele>158.0</ele>
        <time>2022-05-19T07:18:06Z</time>
      </trkpt>
      <trkpt lat="47.527657" lon="2.0671647">
        <ele>158.0</ele>
        <time>2022-05-19T07:18:07Z</time>
      </trkpt>
      <trkpt lat="47.527653" lon="2.0671806">
        <ele>158.0</ele>
        <time>2022-05-19T07:18:08Z</time>
      </trkpt>
      <trkpt lat="47.527645" lon="2.0671968">
        <ele>159.0</ele>
        <time>2022-05-19T07:18:09Z</time>
      </trkpt>
      <trkpt lat="47.527645" lon="2.0672126">
        <ele>159.0</ele>
        <time>2022-05-19T07:18:10Z</time>
      </trkpt>
      <trkpt lat="47.527637" lon="2.0672295">
        <ele>159.0</ele>
        <time>2022-05-19T07:18:11Z</time>
      </trkpt>
      <trkpt lat="47.527634" lon="2.067243">
        <ele>159.0</ele>
        <time>2022-05-19T07:18:12Z</time>
      </trkpt>
      <trkpt lat="47.527626" lon="2.067255">
        <ele>159.0</ele>
        <time>2022-05-19T07:18:13Z</time>
      </trkpt>
      <trkpt lat="47.52762" lon="2.0672703">
        <ele>159.0</ele>
        <time>2022-05-19T07:18:14Z</time>
      </trkpt>
      <trkpt lat="47.527615" lon="2.0672839">
        <ele>159.0</ele>
        <time>2022-05-19T07:18:15Z</time>
      </trkpt>
      <trkpt lat="47.527607" lon="2.0672998">
        <ele>159.0</ele>
        <time>2022-05-19T07:18:16Z</time>
      </trkpt>
      <trkpt lat="47.527603" lon="2.067314">
        <ele>159.0</ele>
        <time>2022-05-19T07:18:17Z</time>
      </trkpt>
      <trkpt lat="47.527596" lon="2.0673254">
        <ele>160.0</ele>
        <time>2022-05-19T07:18:18Z</time>
      </trkpt>
      <trkpt lat="47.52759" lon="2.067341">
        <ele>160.0</ele>
        <time>2022-05-19T07:18:19Z</time>
      </trkpt>
      <trkpt lat="47.527588" lon="2.067355">
        <ele>161.0</ele>
        <time>2022-05-19T07:18:20Z</time>
      </trkpt>
      <trkpt lat="47.52758" lon="2.0673664">
        <ele>160.0</ele>
        <time>2022-05-19T07:18:21Z</time>
      </trkpt>
      <trkpt lat="47.527573" lon="2.0673769">
        <ele>160.0</ele>
        <time>2022-05-19T07:18:22Z</time>
      </trkpt>
      <trkpt lat="47.527565" lon="2.0673907">
        <ele>160.0</ele>
        <time>2022-05-19T07:18:23Z</time>
      </trkpt>
      <trkpt lat="47.52756" lon="2.067407">
        <ele>160.0</ele>
        <time>2022-05-19T07:18:24Z</time>
      </trkpt>
      <trkpt lat="47.527554" lon="2.0674226">
        <ele>160.0</ele>
        <time>2022-05-19T07:18:25Z</time>
      </trkpt>
      <trkpt lat="47.527542" lon="2.067441">
        <ele>161.0</ele>
        <time>2022-05-19T07:18:26Z</time>
      </trkpt>
      <trkpt lat="47.527542" lon="2.067457">
        <ele>160.0</ele>
        <time>2022-05-19T07:18:27Z</time>
      </trkpt>
      <trkpt lat="47.52754" lon="2.0674727">
        <ele>160.0</ele>
        <time>2022-05-19T07:18:28Z</time>
      </trkpt>
      <trkpt lat="47.52753" lon="2.0674884">
        <ele>160.0</ele>
        <time>2022-05-19T07:18:29Z</time>
      </trkpt>
      <trkpt lat="47.527523" lon="2.0675032">
        <ele>160.0</ele>
        <time>2022-05-19T07:18:30Z</time>
      </trkpt>
      <trkpt lat="47.527523" lon="2.0675228">
        <ele>160.0</ele>
        <time>2022-05-19T07:18:31Z</time>
      </trkpt>
      <trkpt lat="47.527515" lon="2.0675445">
        <ele>160.0</ele>
        <time>2022-05-19T07:18:32Z</time>
      </trkpt>
      <trkpt lat="47.52751" lon="2.0675645">
        <ele>161.0</ele>
        <time>2022-05-19T07:18:33Z</time>
      </trkpt>
      <trkpt lat="47.527504" lon="2.0675838">
        <ele>161.0</ele>
        <time>2022-05-19T07:18:34Z</time>
      </trkpt>
      <trkpt lat="47.5275" lon="2.0675988">
        <ele>161.0</ele>
        <time>2022-05-19T07:18:35Z</time>
      </trkpt>
      <trkpt lat="47.527496" lon="2.0676148">
        <ele>161.0</ele>
        <time>2022-05-19T07:18:36Z</time>
      </trkpt>
      <trkpt lat="47.527493" lon="2.067631">
        <ele>160.0</ele>
        <time>2022-05-19T07:18:37Z</time>
      </trkpt>
      <trkpt lat="47.527485" lon="2.0676506">
        <ele>160.0</ele>
        <time>2022-05-19T07:18:38Z</time>
      </trkpt>
      <trkpt lat="47.527477" lon="2.0676696">
        <ele>160.0</ele>
        <time>2022-05-19T07:18:39Z</time>
      </trkpt>
      <trkpt lat="47.527477" lon="2.0676894">
        <ele>159.0</ele>
        <time>2022-05-19T07:18:40Z</time>
      </trkpt>
      <trkpt lat="47.527473" lon="2.067706">
        <ele>159.0</ele>
        <time>2022-05-19T07:18:41Z</time>
      </trkpt>
      <trkpt lat="47.52747" lon="2.0677242">
        <ele>160.0</ele>
        <time>2022-05-19T07:18:42Z</time>
      </trkpt>
      <trkpt lat="47.527466" lon="2.0677395">
        <ele>160.0</ele>
        <time>2022-05-19T07:18:43Z</time>
      </trkpt>
      <trkpt lat="47.527462" lon="2.0677583">
        <ele>159.0</ele>
        <time>2022-05-19T07:18:44Z</time>
      </trkpt>
      <trkpt lat="47.527462" lon="2.067776">
        <ele>160.0</ele>
        <time>2022-05-19T07:18:45Z</time>
      </trkpt>
      <trkpt lat="47.52746" lon="2.0677962">
        <ele>160.0</ele>
        <time>2022-05-19T07:18:46Z</time>
      </trkpt>
      <trkpt lat="47.52746" lon="2.0678127">
        <ele>160.0</ele>
        <time>2022-05-19T07:18:47Z</time>
      </trkpt>
      <trkpt lat="47.52746" lon="2.0678341">
        <ele>160.0</ele>
        <time>2022-05-19T07:18:48Z</time>
      </trkpt>
      <trkpt lat="47.527454" lon="2.0678527">
        <ele>160.0</ele>
        <time>2022-05-19T07:18:49Z</time>
      </trkpt>
      <trkpt lat="47.52745" lon="2.0678716">
        <ele>160.0</ele>
        <time>2022-05-19T07:18:50Z</time>
      </trkpt>
      <trkpt lat="47.527447" lon="2.0678911">
        <ele>160.0</ele>
        <time>2022-05-19T07:18:51Z</time>
      </trkpt>
      <trkpt lat="47.527447" lon="2.067905">
        <ele>160.0</ele>
        <time>2022-05-19T07:18:52Z</time>
      </trkpt>
      <trkpt lat="47.527447" lon="2.0679216">
        <ele>160.0</ele>
        <time>2022-05-19T07:18:53Z</time>
      </trkpt>
      <trkpt lat="47.527443" lon="2.067937">
        <ele>160.0</ele>
        <time>2022-05-19T07:18:54Z</time>
      </trkpt>
      <trkpt lat="47.527443" lon="2.0679522">
        <ele>160.0</ele>
        <time>2022-05-19T07:18:55Z</time>
      </trkpt>
      <trkpt lat="47.527443" lon="2.067969">
        <ele>160.0</ele>
        <time>2022-05-19T07:18:56Z</time>
      </trkpt>
      <trkpt lat="47.527435" lon="2.0679822">
        <ele>160.0</ele>
        <time>2022-05-19T07:18:57Z</time>
      </trkpt>
      <trkpt lat="47.527428" lon="2.067998">
        <ele>160.0</ele>
        <time>2022-05-19T07:18:58Z</time>
      </trkpt>
      <trkpt lat="47.527428" lon="2.0680141">
        <ele>160.0</ele>
        <time>2022-05-19T07:18:59Z</time>
      </trkpt>
      <trkpt lat="47.527424" lon="2.068036">
        <ele>160.0</ele>
        <time>2022-05-19T07:19:00Z</time>
      </trkpt>
      <trkpt lat="47.527416" lon="2.0680578">
        <ele>161.0</ele>
        <time>2022-05-19T07:19:01Z</time>
      </trkpt>
      <trkpt lat="47.52741" lon="2.068077">
        <ele>161.0</ele>
        <time>2022-05-19T07:19:02Z</time>
      </trkpt>
      <trkpt lat="47.527405" lon="2.0680952">
        <ele>161.0</ele>
        <time>2022-05-19T07:19:03Z</time>
      </trkpt>
      <trkpt lat="47.5274" lon="2.068113">
        <ele>161.0</ele>
        <time>2022-05-19T07:19:04Z</time>
      </trkpt>
      <trkpt lat="47.527393" lon="2.0681493">
        <ele>161.0</ele>
        <time>2022-05-19T07:19:06Z</time>
      </trkpt>
      <trkpt lat="47.527397" lon="2.068164">
        <ele>161.0</ele>
        <time>2022-05-19T07:19:07Z</time>
      </trkpt>
      <trkpt lat="47.527397" lon="2.06818">
        <ele>162.0</ele>
        <time>2022-05-19T07:19:08Z</time>
      </trkpt>
      <trkpt lat="47.527397" lon="2.0681984">
        <ele>162.0</ele>
        <time>2022-05-19T07:19:09Z</time>
      </trkpt>
      <trkpt lat="47.527393" lon="2.068216">
        <ele>162.0</ele>
        <time>2022-05-19T07:19:10Z</time>
      </trkpt>
      <trkpt lat="47.527393" lon="2.0682347">
        <ele>162.0</ele>
        <time>2022-05-19T07:19:11Z</time>
      </trkpt>
      <trkpt lat="47.527393" lon="2.0682533">
        <ele>162.0</ele>
        <time>2022-05-19T07:19:12Z</time>
      </trkpt>
      <trkpt lat="47.527393" lon="2.0682719">
        <ele>162.0</ele>
        <time>2022-05-19T07:19:13Z</time>
      </trkpt>
      <trkpt lat="47.527397" lon="2.0682917">
        <ele>162.0</ele>
        <time>2022-05-19T07:19:14Z</time>
      </trkpt>
      <trkpt lat="47.5274" lon="2.0683117">
        <ele>162.0</ele>
        <time>2022-05-19T07:19:15Z</time>
      </trkpt>
      <trkpt lat="47.5274" lon="2.0683346">
        <ele>163.0</ele>
        <time>2022-05-19T07:19:16Z</time>
      </trkpt>
      <trkpt lat="47.5274" lon="2.0683546">
        <ele>163.0</ele>
        <time>2022-05-19T07:19:17Z</time>
      </trkpt>
      <trkpt lat="47.527405" lon="2.0683753">
        <ele>163.0</ele>
        <time>2022-05-19T07:19:18Z</time>
      </trkpt>
      <trkpt lat="47.527405" lon="2.0683963">
        <ele>163.0</ele>
        <time>2022-05-19T07:19:19Z</time>
      </trkpt>
      <trkpt lat="47.52741" lon="2.0684159">
        <ele>163.0</ele>
        <time>2022-05-19T07:19:20Z</time>
      </trkpt>
      <trkpt lat="47.527405" lon="2.0684357">
        <ele>163.0</ele>
        <time>2022-05-19T07:19:21Z</time>
      </trkpt>
      <trkpt lat="47.5274" lon="2.068455">
        <ele>163.0</ele>
        <time>2022-05-19T07:19:22Z</time>
      </trkpt>
      <trkpt lat="47.527397" lon="2.0684717">
        <ele>163.0</ele>
        <time>2022-05-19T07:19:23Z</time>
      </trkpt>
      <trkpt lat="47.527397" lon="2.0684893">
        <ele>163.0</ele>
        <time>2022-05-19T07:19:24Z</time>
      </trkpt>
      <trkpt lat="47.527397" lon="2.068503">
        <ele>164.0</ele>
        <time>2022-05-19T07:19:25Z</time>
      </trkpt>
      <trkpt lat="47.527397" lon="2.0685172">
        <ele>164.0</ele>
        <time>2022-05-19T07:19:26Z</time>
      </trkpt>
      <trkpt lat="47.5274" lon="2.0685341">
        <ele>163.0</ele>
        <time>2022-05-19T07:19:27Z</time>
      </trkpt>
      <trkpt lat="47.5274" lon="2.0685506">
        <ele>163.0</ele>
        <time>2022-05-19T07:19:28Z</time>
      </trkpt>
      <trkpt lat="47.527405" lon="2.0685647">
        <ele>163.0</ele>
        <time>2022-05-19T07:19:29Z</time>
      </trkpt>
      <trkpt lat="47.527405" lon="2.068579">
        <ele>163.0</ele>
        <time>2022-05-19T07:19:30Z</time>
      </trkpt>
      <trkpt lat="47.52741" lon="2.0685961">
        <ele>163.0</ele>
        <time>2022-05-19T07:19:31Z</time>
      </trkpt>
      <trkpt lat="47.527412" lon="2.0686166">
        <ele>163.0</ele>
        <time>2022-05-19T07:19:32Z</time>
      </trkpt>
      <trkpt lat="47.527412" lon="2.0686393">
        <ele>163.0</ele>
        <time>2022-05-19T07:19:33Z</time>
      </trkpt>
      <trkpt lat="47.52741" lon="2.0686617">
        <ele>163.0</ele>
        <time>2022-05-19T07:19:34Z</time>
      </trkpt>
      <trkpt lat="47.527405" lon="2.0686793">
        <ele>162.0</ele>
        <time>2022-05-19T07:19:35Z</time>
      </trkpt>
      <trkpt lat="47.527405" lon="2.0686991">
        <ele>162.0</ele>
        <time>2022-05-19T07:19:36Z</time>
      </trkpt>
      <trkpt lat="47.5274" lon="2.0687199">
        <ele>162.0</ele>
        <time>2022-05-19T07:19:37Z</time>
      </trkpt>
      <trkpt lat="47.527393" lon="2.0687358">
        <ele>162.0</ele>
        <time>2022-05-19T07:19:38Z</time>
      </trkpt>
      <trkpt lat="47.527393" lon="2.0687537">
        <ele>162.0</ele>
        <time>2022-05-19T07:19:39Z</time>
      </trkpt>
      <trkpt lat="47.52739" lon="2.0687692">
        <ele>162.0</ele>
        <time>2022-05-19T07:19:40Z</time>
      </trkpt>
      <trkpt lat="47.527386" lon="2.0687838">
        <ele>161.0</ele>
        <time>2022-05-19T07:19:41Z</time>
      </trkpt>
      <trkpt lat="47.527386" lon="2.068797">
        <ele>161.0</ele>
        <time>2022-05-19T07:19:42Z</time>
      </trkpt>
      <trkpt lat="47.52738" lon="2.0688138">
        <ele>161.0</ele>
        <time>2022-05-19T07:19:43Z</time>
      </trkpt>
      <trkpt lat="47.52738" lon="2.0688324">
        <ele>161.0</ele>
        <time>2022-05-19T07:19:44Z</time>
      </trkpt>
      <trkpt lat="47.527378" lon="2.0688493">
        <ele>161.0</ele>
        <time>2022-05-19T07:19:45Z</time>
      </trkpt>
      <trkpt lat="47.527374" lon="2.068868">
        <ele>161.0</ele>
        <time>2022-05-19T07:19:46Z</time>
      </trkpt>
      <trkpt lat="47.52737" lon="2.0688837">
        <ele>161.0</ele>
        <time>2022-05-19T07:19:47Z</time>
      </trkpt>
      <trkpt lat="47.52737" lon="2.0689025">
        <ele>161.0</ele>
        <time>2022-05-19T07:19:48Z</time>
      </trkpt>
      <trkpt lat="47.527367" lon="2.0689206">
        <ele>161.0</ele>
        <time>2022-05-19T07:19:49Z</time>
      </trkpt>
      <trkpt lat="47.527367" lon="2.068934">
        <ele>161.0</ele>
        <time>2022-05-19T07:19:50Z</time>
      </trkpt>
      <trkpt lat="47.527367" lon="2.06895">
        <ele>161.0</ele>
        <time>2022-05-19T07:19:51Z</time>
      </trkpt>
      <trkpt lat="47.52737" lon="2.0689638">
        <ele>161.0</ele>
        <time>2022-05-19T07:19:52Z</time>
      </trkpt>
      <trkpt lat="47.52737" lon="2.0689735">
        <ele>161.0</ele>
        <time>2022-05-19T07:19:53Z</time>
      </trkpt>
      <trkpt lat="47.52737" lon="2.068989">
        <ele>160.0</ele>
        <time>2022-05-19T07:19:54Z</time>
      </trkpt>
      <trkpt lat="47.527374" lon="2.0690062">
        <ele>161.0</ele>
        <time>2022-05-19T07:19:55Z</time>
      </trkpt>
      <trkpt lat="47.527378" lon="2.0690193">
        <ele>160.0</ele>
        <time>2022-05-19T07:19:56Z</time>
      </trkpt>
      <trkpt lat="47.527378" lon="2.0690358">
        <ele>160.0</ele>
        <time>2022-05-19T07:19:57Z</time>
      </trkpt>
      <trkpt lat="47.527374" lon="2.0690515">
        <ele>160.0</ele>
        <time>2022-05-19T07:19:58Z</time>
      </trkpt>
      <trkpt lat="47.52737" lon="2.0690641">
        <ele>159.0</ele>
        <time>2022-05-19T07:19:59Z</time>
      </trkpt>
      <trkpt lat="47.52737" lon="2.0690835">
        <ele>159.0</ele>
        <time>2022-05-19T07:20:00Z</time>
      </trkpt>
      <trkpt lat="47.527367" lon="2.0691006">
        <ele>159.0</ele>
        <time>2022-05-19T07:20:01Z</time>
      </trkpt>
      <trkpt lat="47.527367" lon="2.0691197">
        <ele>159.0</ele>
        <time>2022-05-19T07:20:02Z</time>
      </trkpt>
      <trkpt lat="47.527367" lon="2.069139">
        <ele>159.0</ele>
        <time>2022-05-19T07:20:03Z</time>
      </trkpt>
      <trkpt lat="47.527367" lon="2.0691576">
        <ele>159.0</ele>
        <time>2022-05-19T07:20:04Z</time>
      </trkpt>
      <trkpt lat="47.527367" lon="2.069175">
        <ele>158.0</ele>
        <time>2022-05-19T07:20:05Z</time>
      </trkpt>
      <trkpt lat="47.52737" lon="2.069194">
        <ele>159.0</ele>
        <time>2022-05-19T07:20:06Z</time>
      </trkpt>
      <trkpt lat="47.52737" lon="2.0692124">
        <ele>158.0</ele>
        <time>2022-05-19T07:20:07Z</time>
      </trkpt>
      <trkpt lat="47.52737" lon="2.0692284">
        <ele>159.0</ele>
        <time>2022-05-19T07:20:08Z</time>
      </trkpt>
      <trkpt lat="47.527367" lon="2.069241">
        <ele>158.0</ele>
        <time>2022-05-19T07:20:09Z</time>
      </trkpt>
      <trkpt lat="47.527367" lon="2.0692544">
        <ele>158.0</ele>
        <time>2022-05-19T07:20:10Z</time>
      </trkpt>
      <trkpt lat="47.52737" lon="2.0692701">
        <ele>158.0</ele>
        <time>2022-05-19T07:20:11Z</time>
      </trkpt>
      <trkpt lat="47.52737" lon="2.0692844">
        <ele>157.0</ele>
        <time>2022-05-19T07:20:12Z</time>
      </trkpt>
      <trkpt lat="47.527367" lon="2.0692983">
        <ele>157.0</ele>
        <time>2022-05-19T07:20:13Z</time>
      </trkpt>
      <trkpt lat="47.527367" lon="2.0693119">
        <ele>157.0</ele>
        <time>2022-05-19T07:20:14Z</time>
      </trkpt>
      <trkpt lat="47.527363" lon="2.069323">
        <ele>157.0</ele>
        <time>2022-05-19T07:20:15Z</time>
      </trkpt>
      <trkpt lat="47.527363" lon="2.0693383">
        <ele>157.0</ele>
        <time>2022-05-19T07:20:16Z</time>
      </trkpt>
      <trkpt lat="47.527363" lon="2.0693576">
        <ele>157.0</ele>
        <time>2022-05-19T07:20:17Z</time>
      </trkpt>
      <trkpt lat="47.52736" lon="2.0693727">
        <ele>157.0</ele>
        <time>2022-05-19T07:20:18Z</time>
      </trkpt>
      <trkpt lat="47.52736" lon="2.0693874">
        <ele>158.0</ele>
        <time>2022-05-19T07:20:19Z</time>
      </trkpt>
      <trkpt lat="47.52736" lon="2.0694044">
        <ele>158.0</ele>
        <time>2022-05-19T07:20:20Z</time>
      </trkpt>
      <trkpt lat="47.52736" lon="2.0694165">
        <ele>157.0</ele>
        <time>2022-05-19T07:20:21Z</time>
      </trkpt>
      <trkpt lat="47.52736" lon="2.0694323">
        <ele>157.0</ele>
        <time>2022-05-19T07:20:22Z</time>
      </trkpt>
      <trkpt lat="47.52736" lon="2.0694516">
        <ele>157.0</ele>
        <time>2022-05-19T07:20:23Z</time>
      </trkpt>
      <trkpt lat="47.527355" lon="2.0694697">
        <ele>157.0</ele>
        <time>2022-05-19T07:20:24Z</time>
      </trkpt>
      <trkpt lat="47.52735" lon="2.069488">
        <ele>157.0</ele>
        <time>2022-05-19T07:20:25Z</time>
      </trkpt>
      <trkpt lat="47.527348" lon="2.0695071">
        <ele>157.0</ele>
        <time>2022-05-19T07:20:26Z</time>
      </trkpt>
      <trkpt lat="47.527344" lon="2.0695248">
        <ele>158.0</ele>
        <time>2022-05-19T07:20:27Z</time>
      </trkpt>
      <trkpt lat="47.527344" lon="2.069542">
        <ele>158.0</ele>
        <time>2022-05-19T07:20:28Z</time>
      </trkpt>
      <trkpt lat="47.527344" lon="2.0695605">
        <ele>158.0</ele>
        <time>2022-05-19T07:20:29Z</time>
      </trkpt>
      <trkpt lat="47.527348" lon="2.0695767">
        <ele>158.0</ele>
        <time>2022-05-19T07:20:30Z</time>
      </trkpt>
      <trkpt lat="47.527348" lon="2.0695896">
        <ele>158.0</ele>
        <time>2022-05-19T07:20:31Z</time>
      </trkpt>
      <trkpt lat="47.527348" lon="2.0696049">
        <ele>158.0</ele>
        <time>2022-05-19T07:20:32Z</time>
      </trkpt>
      <trkpt lat="47.527348" lon="2.069625">
        <ele>157.0</ele>
        <time>2022-05-19T07:20:33Z</time>
      </trkpt>
      <trkpt lat="47.52735" lon="2.069644">
        <ele>158.0</ele>
        <time>2022-05-19T07:20:34Z</time>
      </trkpt>
      <trkpt lat="47.52735" lon="2.0696611">
        <ele>157.0</ele>
        <time>2022-05-19T07:20:35Z</time>
      </trkpt>
      <trkpt lat="47.527355" lon="2.0696793">
        <ele>157.0</ele>
        <time>2022-05-19T07:20:36Z</time>
      </trkpt>
      <trkpt lat="47.52736" lon="2.0696986">
        <ele>157.0</ele>
        <time>2022-05-19T07:20:37Z</time>
      </trkpt>
      <trkpt lat="47.52736" lon="2.069718">
        <ele>157.0</ele>
        <time>2022-05-19T07:20:38Z</time>
      </trkpt>
      <trkpt lat="47.527363" lon="2.0697334">
        <ele>158.0</ele>
        <time>2022-05-19T07:20:39Z</time>
      </trkpt>
      <trkpt lat="47.527363" lon="2.0697508">
        <ele>158.0</ele>
        <time>2022-05-19T07:20:40Z</time>
      </trkpt>
      <trkpt lat="47.527367" lon="2.0697656">
        <ele>158.0</ele>
        <time>2022-05-19T07:20:41Z</time>
      </trkpt>
      <trkpt lat="47.527367" lon="2.0697818">
        <ele>158.0</ele>
        <time>2022-05-19T07:20:42Z</time>
      </trkpt>
      <trkpt lat="47.52737" lon="2.0697968">
        <ele>158.0</ele>
        <time>2022-05-19T07:20:43Z</time>
      </trkpt>
      <trkpt lat="47.527374" lon="2.0698144">
        <ele>158.0</ele>
        <time>2022-05-19T07:20:44Z</time>
      </trkpt>
      <trkpt lat="47.527378" lon="2.0698335">
        <ele>158.0</ele>
        <time>2022-05-19T07:20:45Z</time>
      </trkpt>
      <trkpt lat="47.52738" lon="2.0698524">
        <ele>158.0</ele>
        <time>2022-05-19T07:20:46Z</time>
      </trkpt>
      <trkpt lat="47.52738" lon="2.0698714">
        <ele>158.0</ele>
        <time>2022-05-19T07:20:47Z</time>
      </trkpt>
      <trkpt lat="47.52738" lon="2.0698879">
        <ele>158.0</ele>
        <time>2022-05-19T07:20:48Z</time>
      </trkpt>
      <trkpt lat="47.52738" lon="2.0699">
        <ele>157.0</ele>
        <time>2022-05-19T07:20:49Z</time>
      </trkpt>
      <trkpt lat="47.527386" lon="2.069911">
        <ele>157.0</ele>
        <time>2022-05-19T07:20:50Z</time>
      </trkpt>
      <trkpt lat="47.527386" lon="2.0699248">
        <ele>157.0</ele>
        <time>2022-05-19T07:20:51Z</time>
      </trkpt>
      <trkpt lat="47.527386" lon="2.069939">
        <ele>157.0</ele>
        <time>2022-05-19T07:20:52Z</time>
      </trkpt>
      <trkpt lat="47.527386" lon="2.0699563">
        <ele>158.0</ele>
        <time>2022-05-19T07:20:53Z</time>
      </trkpt>
      <trkpt lat="47.52739" lon="2.0699713">
        <ele>158.0</ele>
        <time>2022-05-19T07:20:54Z</time>
      </trkpt>
      <trkpt lat="47.52739" lon="2.069987">
        <ele>158.0</ele>
        <time>2022-05-19T07:20:55Z</time>
      </trkpt>
      <trkpt lat="47.52739" lon="2.0700052">
        <ele>158.0</ele>
        <time>2022-05-19T07:20:56Z</time>
      </trkpt>
      <trkpt lat="47.527386" lon="2.070022">
        <ele>158.0</ele>
        <time>2022-05-19T07:20:57Z</time>
      </trkpt>
      <trkpt lat="47.527386" lon="2.0700412">
        <ele>158.0</ele>
        <time>2022-05-19T07:20:58Z</time>
      </trkpt>
      <trkpt lat="47.527386" lon="2.0700605">
        <ele>158.0</ele>
        <time>2022-05-19T07:20:59Z</time>
      </trkpt>
      <trkpt lat="47.52738" lon="2.0700762">
        <ele>158.0</ele>
        <time>2022-05-19T07:21:00Z</time>
      </trkpt>
      <trkpt lat="47.52738" lon="2.0700939">
        <ele>158.0</ele>
        <time>2022-05-19T07:21:01Z</time>
      </trkpt>
      <trkpt lat="47.527378" lon="2.0701056">
        <ele>158.0</ele>
        <time>2022-05-19T07:21:02Z</time>
      </trkpt>
      <trkpt lat="47.527374" lon="2.070123">
        <ele>158.0</ele>
        <time>2022-05-19T07:21:03Z</time>
      </trkpt>
      <trkpt lat="47.527374" lon="2.070142">
        <ele>159.0</ele>
        <time>2022-05-19T07:21:04Z</time>
      </trkpt>
      <trkpt lat="47.52737" lon="2.0701563">
        <ele>159.0</ele>
        <time>2022-05-19T07:21:05Z</time>
      </trkpt>
      <trkpt lat="47.527367" lon="2.070174">
        <ele>159.0</ele>
        <time>2022-05-19T07:21:06Z</time>
      </trkpt>
      <trkpt lat="47.527363" lon="2.0701933">
        <ele>159.0</ele>
        <time>2022-05-19T07:21:07Z</time>
      </trkpt>
      <trkpt lat="47.52736" lon="2.070206">
        <ele>159.0</ele>
        <time>2022-05-19T07:21:08Z</time>
      </trkpt>
      <trkpt lat="47.527355" lon="2.0702245">
        <ele>159.0</ele>
        <time>2022-05-19T07:21:09Z</time>
      </trkpt>
      <trkpt lat="47.527355" lon="2.0702426">
        <ele>159.0</ele>
        <time>2022-05-19T07:21:10Z</time>
      </trkpt>
      <trkpt lat="47.52735" lon="2.0702596">
        <ele>159.0</ele>
        <time>2022-05-19T07:21:11Z</time>
      </trkpt>
      <trkpt lat="47.52735" lon="2.070275">
        <ele>160.0</ele>
        <time>2022-05-19T07:21:12Z</time>
      </trkpt>
      <trkpt lat="47.527348" lon="2.0702925">
        <ele>160.0</ele>
        <time>2022-05-19T07:21:13Z</time>
      </trkpt>
      <trkpt lat="47.527344" lon="2.0703125">
        <ele>161.0</ele>
        <time>2022-05-19T07:21:14Z</time>
      </trkpt>
      <trkpt lat="47.527344" lon="2.0703297">
        <ele>161.0</ele>
        <time>2022-05-19T07:21:15Z</time>
      </trkpt>
      <trkpt lat="47.52734" lon="2.0703459">
        <ele>161.0</ele>
        <time>2022-05-19T07:21:16Z</time>
      </trkpt>
      <trkpt lat="47.527344" lon="2.0703633">
        <ele>161.0</ele>
        <time>2022-05-19T07:21:17Z</time>
      </trkpt>
      <trkpt lat="47.527344" lon="2.0703843">
        <ele>161.0</ele>
        <time>2022-05-19T07:21:18Z</time>
      </trkpt>
      <trkpt lat="47.527344" lon="2.0704033">
        <ele>160.0</ele>
        <time>2022-05-19T07:21:19Z</time>
      </trkpt>
      <trkpt lat="47.52734" lon="2.0704212">
        <ele>160.0</ele>
        <time>2022-05-19T07:21:20Z</time>
      </trkpt>
      <trkpt lat="47.527336" lon="2.070441">
        <ele>160.0</ele>
        <time>2022-05-19T07:21:21Z</time>
      </trkpt>
      <trkpt lat="47.527332" lon="2.0704613">
        <ele>160.0</ele>
        <time>2022-05-19T07:21:22Z</time>
      </trkpt>
      <trkpt lat="47.52733" lon="2.070478">
        <ele>160.0</ele>
        <time>2022-05-19T07:21:23Z</time>
      </trkpt>
      <trkpt lat="47.527325" lon="2.0704958">
        <ele>160.0</ele>
        <time>2022-05-19T07:21:24Z</time>
      </trkpt>
      <trkpt lat="47.527325" lon="2.0705159">
        <ele>160.0</ele>
        <time>2022-05-19T07:21:25Z</time>
      </trkpt>
      <trkpt lat="47.527325" lon="2.0705338">
        <ele>160.0</ele>
        <time>2022-05-19T07:21:26Z</time>
      </trkpt>
      <trkpt lat="47.527325" lon="2.0705507">
        <ele>160.0</ele>
        <time>2022-05-19T07:21:27Z</time>
      </trkpt>
      <trkpt lat="47.527325" lon="2.0705671">
        <ele>160.0</ele>
        <time>2022-05-19T07:21:28Z</time>
      </trkpt>
      <trkpt lat="47.52733" lon="2.0705822">
        <ele>159.0</ele>
        <time>2022-05-19T07:21:29Z</time>
      </trkpt>
      <trkpt lat="47.52733" lon="2.0705998">
        <ele>159.0</ele>
        <time>2022-05-19T07:21:30Z</time>
      </trkpt>
      <trkpt lat="47.527325" lon="2.0706155">
        <ele>159.0</ele>
        <time>2022-05-19T07:21:31Z</time>
      </trkpt>
      <trkpt lat="47.527325" lon="2.070632">
        <ele>159.0</ele>
        <time>2022-05-19T07:21:32Z</time>
      </trkpt>
      <trkpt lat="47.527325" lon="2.0706482">
        <ele>159.0</ele>
        <time>2022-05-19T07:21:33Z</time>
      </trkpt>
      <trkpt lat="47.527325" lon="2.0706642">
        <ele>159.0</ele>
        <time>2022-05-19T07:21:34Z</time>
      </trkpt>
      <trkpt lat="47.52733" lon="2.070683">
        <ele>158.0</ele>
        <time>2022-05-19T07:21:35Z</time>
      </trkpt>
      <trkpt lat="47.52733" lon="2.0707011">
        <ele>158.0</ele>
        <time>2022-05-19T07:21:36Z</time>
      </trkpt>
      <trkpt lat="47.527332" lon="2.0707202">
        <ele>158.0</ele>
        <time>2022-05-19T07:21:37Z</time>
      </trkpt>
      <trkpt lat="47.527336" lon="2.0707338">
        <ele>158.0</ele>
        <time>2022-05-19T07:21:38Z</time>
      </trkpt>
      <trkpt lat="47.527336" lon="2.0707464">
        <ele>158.0</ele>
        <time>2022-05-19T07:21:39Z</time>
      </trkpt>
      <trkpt lat="47.527332" lon="2.0707636">
        <ele>158.0</ele>
        <time>2022-05-19T07:21:40Z</time>
      </trkpt>
      <trkpt lat="47.52733" lon="2.0707774">
        <ele>158.0</ele>
        <time>2022-05-19T07:21:41Z</time>
      </trkpt>
      <trkpt lat="47.527325" lon="2.0707946">
        <ele>158.0</ele>
        <time>2022-05-19T07:21:42Z</time>
      </trkpt>
      <trkpt lat="47.52732" lon="2.0708103">
        <ele>158.0</ele>
        <time>2022-05-19T07:21:43Z</time>
      </trkpt>
      <trkpt lat="47.527317" lon="2.0708249">
        <ele>158.0</ele>
        <time>2022-05-19T07:21:44Z</time>
      </trkpt>
      <trkpt lat="47.527313" lon="2.0708368">
        <ele>158.0</ele>
        <time>2022-05-19T07:21:45Z</time>
      </trkpt>
      <trkpt lat="47.527313" lon="2.0708482">
        <ele>158.0</ele>
        <time>2022-05-19T07:21:46Z</time>
      </trkpt>
      <trkpt lat="47.52731" lon="2.0708668">
        <ele>158.0</ele>
        <time>2022-05-19T07:21:47Z</time>
      </trkpt>
      <trkpt lat="47.527306" lon="2.0708892">
        <ele>158.0</ele>
        <time>2022-05-19T07:21:48Z</time>
      </trkpt>
      <trkpt lat="47.527306" lon="2.0709107">
        <ele>158.0</ele>
        <time>2022-05-19T07:21:49Z</time>
      </trkpt>
      <trkpt lat="47.527306" lon="2.0709276">
        <ele>158.0</ele>
        <time>2022-05-19T07:21:50Z</time>
      </trkpt>
      <trkpt lat="47.527306" lon="2.0709457">
        <ele>158.0</ele>
        <time>2022-05-19T07:21:51Z</time>
      </trkpt>
      <trkpt lat="47.527306" lon="2.0709636">
        <ele>158.0</ele>
        <time>2022-05-19T07:21:52Z</time>
      </trkpt>
      <trkpt lat="47.5273" lon="2.0709803">
        <ele>159.0</ele>
        <time>2022-05-19T07:21:53Z</time>
      </trkpt>
      <trkpt lat="47.5273" lon="2.070993">
        <ele>159.0</ele>
        <time>2022-05-19T07:21:54Z</time>
      </trkpt>
      <trkpt lat="47.527306" lon="2.0710068">
        <ele>159.0</ele>
        <time>2022-05-19T07:21:55Z</time>
      </trkpt>
      <trkpt lat="47.527313" lon="2.0710196">
        <ele>159.0</ele>
        <time>2022-05-19T07:21:56Z</time>
      </trkpt>
      <trkpt lat="47.527313" lon="2.0710347">
        <ele>158.0</ele>
        <time>2022-05-19T07:21:57Z</time>
      </trkpt>
      <trkpt lat="47.527313" lon="2.0710528">
        <ele>158.0</ele>
        <time>2022-05-19T07:21:58Z</time>
      </trkpt>
      <trkpt lat="47.527313" lon="2.071073">
        <ele>158.0</ele>
        <time>2022-05-19T07:21:59Z</time>
      </trkpt>
      <trkpt lat="47.527317" lon="2.0710907">
        <ele>158.0</ele>
        <time>2022-05-19T07:22:00Z</time>
      </trkpt>
      <trkpt lat="47.52732" lon="2.071105">
        <ele>158.0</ele>
        <time>2022-05-19T07:22:01Z</time>
      </trkpt>
      <trkpt lat="47.527325" lon="2.0711236">
        <ele>158.0</ele>
        <time>2022-05-19T07:22:02Z</time>
      </trkpt>
      <trkpt lat="47.527325" lon="2.071143">
        <ele>158.0</ele>
        <time>2022-05-19T07:22:03Z</time>
      </trkpt>
      <trkpt lat="47.527325" lon="2.0711648">
        <ele>158.0</ele>
        <time>2022-05-19T07:22:04Z</time>
      </trkpt>
      <trkpt lat="47.527325" lon="2.071181">
        <ele>158.0</ele>
        <time>2022-05-19T07:22:05Z</time>
      </trkpt>
      <trkpt lat="47.52733" lon="2.0711951">
        <ele>158.0</ele>
        <time>2022-05-19T07:22:06Z</time>
      </trkpt>
      <trkpt lat="47.52733" lon="2.0712047">
        <ele>158.0</ele>
        <time>2022-05-19T07:22:07Z</time>
      </trkpt>
      <trkpt lat="47.52733" lon="2.0712197">
        <ele>158.0</ele>
        <time>2022-05-19T07:22:08Z</time>
      </trkpt>
      <trkpt lat="47.52733" lon="2.071235">
        <ele>158.0</ele>
        <time>2022-05-19T07:22:09Z</time>
      </trkpt>
      <trkpt lat="47.527325" lon="2.0712478">
        <ele>157.0</ele>
        <time>2022-05-19T07:22:10Z</time>
      </trkpt>
      <trkpt lat="47.527325" lon="2.0712607">
        <ele>158.0</ele>
        <time>2022-05-19T07:22:11Z</time>
      </trkpt>
      <trkpt lat="47.52732" lon="2.0712757">
        <ele>158.0</ele>
        <time>2022-05-19T07:22:12Z</time>
      </trkpt>
      <trkpt lat="47.527317" lon="2.0712888">
        <ele>158.0</ele>
        <time>2022-05-19T07:22:13Z</time>
      </trkpt>
      <trkpt lat="47.527313" lon="2.0713074">
        <ele>158.0</ele>
        <time>2022-05-19T07:22:14Z</time>
      </trkpt>
      <trkpt lat="47.527306" lon="2.0713227">
        <ele>158.0</ele>
        <time>2022-05-19T07:22:15Z</time>
      </trkpt>
      <trkpt lat="47.527298" lon="2.0713377">
        <ele>158.0</ele>
        <time>2022-05-19T07:22:16Z</time>
      </trkpt>
      <trkpt lat="47.527298" lon="2.0713522">
        <ele>158.0</ele>
        <time>2022-05-19T07:22:17Z</time>
      </trkpt>
      <trkpt lat="47.527294" lon="2.071363">
        <ele>158.0</ele>
        <time>2022-05-19T07:22:18Z</time>
      </trkpt>
      <trkpt lat="47.52729" lon="2.0713804">
        <ele>158.0</ele>
        <time>2022-05-19T07:22:19Z</time>
      </trkpt>
      <trkpt lat="47.52729" lon="2.0713944">
        <ele>157.0</ele>
        <time>2022-05-19T07:22:20Z</time>
      </trkpt>
      <trkpt lat="47.527287" lon="2.0714154">
        <ele>157.0</ele>
        <time>2022-05-19T07:22:21Z</time>
      </trkpt>
      <trkpt lat="47.527283" lon="2.0714343">
        <ele>157.0</ele>
        <time>2022-05-19T07:22:22Z</time>
      </trkpt>
      <trkpt lat="47.527283" lon="2.071452">
        <ele>157.0</ele>
        <time>2022-05-19T07:22:23Z</time>
      </trkpt>
      <trkpt lat="47.527283" lon="2.0714695">
        <ele>157.0</ele>
        <time>2022-05-19T07:22:24Z</time>
      </trkpt>
      <trkpt lat="47.52729" lon="2.071487">
        <ele>157.0</ele>
        <time>2022-05-19T07:22:25Z</time>
      </trkpt>
      <trkpt lat="47.52729" lon="2.0715022">
        <ele>157.0</ele>
        <time>2022-05-19T07:22:26Z</time>
      </trkpt>
      <trkpt lat="47.52729" lon="2.071512">
        <ele>157.0</ele>
        <time>2022-05-19T07:22:27Z</time>
      </trkpt>
      <trkpt lat="47.52729" lon="2.071525">
        <ele>157.0</ele>
        <time>2022-05-19T07:22:28Z</time>
      </trkpt>
      <trkpt lat="47.527294" lon="2.0715394">
        <ele>157.0</ele>
        <time>2022-05-19T07:22:29Z</time>
      </trkpt>
      <trkpt lat="47.527298" lon="2.0715551">
        <ele>156.0</ele>
        <time>2022-05-19T07:22:30Z</time>
      </trkpt>
      <trkpt lat="47.527298" lon="2.07157">
        <ele>156.0</ele>
        <time>2022-05-19T07:22:31Z</time>
      </trkpt>
      <trkpt lat="47.527298" lon="2.071588">
        <ele>157.0</ele>
        <time>2022-05-19T07:22:32Z</time>
      </trkpt>
      <trkpt lat="47.527298" lon="2.0715997">
        <ele>156.0</ele>
        <time>2022-05-19T07:22:33Z</time>
      </trkpt>
      <trkpt lat="47.527294" lon="2.0716162">
        <ele>156.0</ele>
        <time>2022-05-19T07:22:34Z</time>
      </trkpt>
      <trkpt lat="47.527294" lon="2.071633">
        <ele>157.0</ele>
        <time>2022-05-19T07:22:35Z</time>
      </trkpt>
      <trkpt lat="47.52729" lon="2.0716472">
        <ele>157.0</ele>
        <time>2022-05-19T07:22:36Z</time>
      </trkpt>
      <trkpt lat="47.527283" lon="2.0716605">
        <ele>157.0</ele>
        <time>2022-05-19T07:22:37Z</time>
      </trkpt>
      <trkpt lat="47.52728" lon="2.0716758">
        <ele>157.0</ele>
        <time>2022-05-19T07:22:38Z</time>
      </trkpt>
      <trkpt lat="47.527275" lon="2.071694">
        <ele>157.0</ele>
        <time>2022-05-19T07:22:39Z</time>
      </trkpt>
      <trkpt lat="47.52727" lon="2.0717118">
        <ele>157.0</ele>
        <time>2022-05-19T07:22:40Z</time>
      </trkpt>
      <trkpt lat="47.527267" lon="2.0717285">
        <ele>157.0</ele>
        <time>2022-05-19T07:22:41Z</time>
      </trkpt>
      <trkpt lat="47.52726" lon="2.0717468">
        <ele>157.0</ele>
        <time>2022-05-19T07:22:42Z</time>
      </trkpt>
      <trkpt lat="47.527256" lon="2.071762">
        <ele>157.0</ele>
        <time>2022-05-19T07:22:43Z</time>
      </trkpt>
      <trkpt lat="47.527252" lon="2.0717785">
        <ele>157.0</ele>
        <time>2022-05-19T07:22:44Z</time>
      </trkpt>
      <trkpt lat="47.527245" lon="2.071795">
        <ele>157.0</ele>
        <time>2022-05-19T07:22:45Z</time>
      </trkpt>
      <trkpt lat="47.527237" lon="2.0718102">
        <ele>157.0</ele>
        <time>2022-05-19T07:22:46Z</time>
      </trkpt>
      <trkpt lat="47.52723" lon="2.0718246">
        <ele>157.0</ele>
        <time>2022-05-19T07:22:47Z</time>
      </trkpt>
      <trkpt lat="47.527218" lon="2.0718389">
        <ele>157.0</ele>
        <time>2022-05-19T07:22:48Z</time>
      </trkpt>
      <trkpt lat="47.52721" lon="2.071852">
        <ele>157.0</ele>
        <time>2022-05-19T07:22:49Z</time>
      </trkpt>
      <trkpt lat="47.527203" lon="2.0718658">
        <ele>157.0</ele>
        <time>2022-05-19T07:22:50Z</time>
      </trkpt>
      <trkpt lat="47.527195" lon="2.0718808">
        <ele>157.0</ele>
        <time>2022-05-19T07:22:51Z</time>
      </trkpt>
      <trkpt lat="47.527184" lon="2.0718882">
        <ele>157.0</ele>
        <time>2022-05-19T07:22:52Z</time>
      </trkpt>
      <trkpt lat="47.527176" lon="2.071897">
        <ele>157.0</ele>
        <time>2022-05-19T07:22:53Z</time>
      </trkpt>
      <trkpt lat="47.52717" lon="2.071907">
        <ele>157.0</ele>
        <time>2022-05-19T07:22:54Z</time>
      </trkpt>
      <trkpt lat="47.527157" lon="2.071916">
        <ele>157.0</ele>
        <time>2022-05-19T07:22:55Z</time>
      </trkpt>
      <trkpt lat="47.527153" lon="2.071927">
        <ele>157.0</ele>
        <time>2022-05-19T07:22:56Z</time>
      </trkpt>
      <trkpt lat="47.527145" lon="2.071942">
        <ele>157.0</ele>
        <time>2022-05-19T07:22:57Z</time>
      </trkpt>
      <trkpt lat="47.527138" lon="2.071953">
        <ele>158.0</ele>
        <time>2022-05-19T07:22:58Z</time>
      </trkpt>
      <trkpt lat="47.52713" lon="2.0719635">
        <ele>157.0</ele>
        <time>2022-05-19T07:22:59Z</time>
      </trkpt>
      <trkpt lat="47.527122" lon="2.071973">
        <ele>157.0</ele>
        <time>2022-05-19T07:23:00Z</time>
      </trkpt>
      <trkpt lat="47.527115" lon="2.0719817">
        <ele>157.0</ele>
        <time>2022-05-19T07:23:01Z</time>
      </trkpt>
      <trkpt lat="47.527103" lon="2.0719924">
        <ele>157.0</ele>
        <time>2022-05-19T07:23:02Z</time>
      </trkpt>
      <trkpt lat="47.527096" lon="2.0720012">
        <ele>157.0</ele>
        <time>2022-05-19T07:23:03Z</time>
      </trkpt>
      <trkpt lat="47.52709" lon="2.0720134">
        <ele>157.0</ele>
        <time>2022-05-19T07:23:04Z</time>
      </trkpt>
      <trkpt lat="47.52708" lon="2.0720258">
        <ele>157.0</ele>
        <time>2022-05-19T07:23:05Z</time>
      </trkpt>
      <trkpt lat="47.527073" lon="2.072038">
        <ele>157.0</ele>
        <time>2022-05-19T07:23:06Z</time>
      </trkpt>
      <trkpt lat="47.527065" lon="2.0720499">
        <ele>157.0</ele>
        <time>2022-05-19T07:23:07Z</time>
      </trkpt>
      <trkpt lat="47.52706" lon="2.0720608">
        <ele>158.0</ele>
        <time>2022-05-19T07:23:08Z</time>
      </trkpt>
      <trkpt lat="47.527058" lon="2.0720677">
        <ele>158.0</ele>
        <time>2022-05-19T07:23:09Z</time>
      </trkpt>
      <trkpt lat="47.52705" lon="2.0720775">
        <ele>158.0</ele>
        <time>2022-05-19T07:23:10Z</time>
      </trkpt>
      <trkpt lat="47.527042" lon="2.0720918">
        <ele>158.0</ele>
        <time>2022-05-19T07:23:11Z</time>
      </trkpt>
      <trkpt lat="47.527035" lon="2.0721028">
        <ele>158.0</ele>
        <time>2022-05-19T07:23:12Z</time>
      </trkpt>
      <trkpt lat="47.527027" lon="2.0721104">
        <ele>157.0</ele>
        <time>2022-05-19T07:23:13Z</time>
      </trkpt>
      <trkpt lat="47.52702" lon="2.0721223">
        <ele>157.0</ele>
        <time>2022-05-19T07:23:14Z</time>
      </trkpt>
      <trkpt lat="47.527004" lon="2.0721326">
        <ele>157.0</ele>
        <time>2022-05-19T07:23:15Z</time>
      </trkpt>
      <trkpt lat="47.526993" lon="2.072143">
        <ele>158.0</ele>
        <time>2022-05-19T07:23:16Z</time>
      </trkpt>
      <trkpt lat="47.526978" lon="2.072158">
        <ele>158.0</ele>
        <time>2022-05-19T07:23:17Z</time>
      </trkpt>
      <trkpt lat="47.52697" lon="2.0721695">
        <ele>158.0</ele>
        <time>2022-05-19T07:23:18Z</time>
      </trkpt>
      <trkpt lat="47.52696" lon="2.0721807">
        <ele>158.0</ele>
        <time>2022-05-19T07:23:19Z</time>
      </trkpt>
      <trkpt lat="47.526947" lon="2.0721889">
        <ele>157.0</ele>
        <time>2022-05-19T07:23:20Z</time>
      </trkpt>
      <trkpt lat="47.526936" lon="2.0721962">
        <ele>157.0</ele>
        <time>2022-05-19T07:23:21Z</time>
      </trkpt>
      <trkpt lat="47.526928" lon="2.072209">
        <ele>157.0</ele>
        <time>2022-05-19T07:23:22Z</time>
      </trkpt>
      <trkpt lat="47.526924" lon="2.072221">
        <ele>157.0</ele>
        <time>2022-05-19T07:23:23Z</time>
      </trkpt>
      <trkpt lat="47.52691" lon="2.0722346">
        <ele>157.0</ele>
        <time>2022-05-19T07:23:24Z</time>
      </trkpt>
      <trkpt lat="47.526897" lon="2.072246">
        <ele>156.0</ele>
        <time>2022-05-19T07:23:25Z</time>
      </trkpt>
      <trkpt lat="47.526886" lon="2.072257">
        <ele>157.0</ele>
        <time>2022-05-19T07:23:26Z</time>
      </trkpt>
      <trkpt lat="47.52688" lon="2.072268">
        <ele>157.0</ele>
        <time>2022-05-19T07:23:27Z</time>
      </trkpt>
      <trkpt lat="47.52687" lon="2.072278">
        <ele>156.0</ele>
        <time>2022-05-19T07:23:28Z</time>
      </trkpt>
      <trkpt lat="47.526867" lon="2.0722852">
        <ele>156.0</ele>
        <time>2022-05-19T07:23:29Z</time>
      </trkpt>
      <trkpt lat="47.526863" lon="2.0722866">
        <ele>156.0</ele>
        <time>2022-05-19T07:23:30Z</time>
      </trkpt>
      <trkpt lat="47.52686" lon="2.0722842">
        <ele>156.0</ele>
        <time>2022-05-19T07:23:31Z</time>
      </trkpt>
      <trkpt lat="47.52685" lon="2.0722926">
        <ele>156.0</ele>
        <time>2022-05-19T07:23:32Z</time>
      </trkpt>
      <trkpt lat="47.526844" lon="2.0723014">
        <ele>156.0</ele>
        <time>2022-05-19T07:23:33Z</time>
      </trkpt>
      <trkpt lat="47.526836" lon="2.072308">
        <ele>156.0</ele>
        <time>2022-05-19T07:23:34Z</time>
      </trkpt>
      <trkpt lat="47.526825" lon="2.0723116">
        <ele>156.0</ele>
        <time>2022-05-19T07:23:35Z</time>
      </trkpt>
      <trkpt lat="47.526817" lon="2.072314">
        <ele>155.0</ele>
        <time>2022-05-19T07:23:36Z</time>
      </trkpt>
      <trkpt lat="47.526806" lon="2.0723183">
        <ele>156.0</ele>
        <time>2022-05-19T07:23:37Z</time>
      </trkpt>
      <trkpt lat="47.526794" lon="2.0723255">
        <ele>156.0</ele>
        <time>2022-05-19T07:23:38Z</time>
      </trkpt>
      <trkpt lat="47.526787" lon="2.072333">
        <ele>157.0</ele>
        <time>2022-05-19T07:23:39Z</time>
      </trkpt>
      <trkpt lat="47.52678" lon="2.0723388">
        <ele>157.0</ele>
        <time>2022-05-19T07:23:40Z</time>
      </trkpt>
      <trkpt lat="47.52677" lon="2.0723495">
        <ele>156.0</ele>
        <time>2022-05-19T07:23:41Z</time>
      </trkpt>
      <trkpt lat="47.526768" lon="2.0723636">
        <ele>157.0</ele>
        <time>2022-05-19T07:23:42Z</time>
      </trkpt>
      <trkpt lat="47.52676" lon="2.072374">
        <ele>157.0</ele>
        <time>2022-05-19T07:23:43Z</time>
      </trkpt>
      <trkpt lat="47.526752" lon="2.0723894">
        <ele>157.0</ele>
        <time>2022-05-19T07:23:44Z</time>
      </trkpt>
      <trkpt lat="47.52675" lon="2.0724025">
        <ele>158.0</ele>
        <time>2022-05-19T07:23:45Z</time>
      </trkpt>
      <trkpt lat="47.526737" lon="2.0724144">
        <ele>158.0</ele>
        <time>2022-05-19T07:23:46Z</time>
      </trkpt>
      <trkpt lat="47.526726" lon="2.0724216">
        <ele>158.0</ele>
        <time>2022-05-19T07:23:47Z</time>
      </trkpt>
      <trkpt lat="47.526714" lon="2.0724351">
        <ele>158.0</ele>
        <time>2022-05-19T07:23:48Z</time>
      </trkpt>
      <trkpt lat="47.526695" lon="2.0724561">
        <ele>158.0</ele>
        <time>2022-05-19T07:23:50Z</time>
      </trkpt>
      <trkpt lat="47.526684" lon="2.0724654">
        <ele>159.0</ele>
        <time>2022-05-19T07:23:51Z</time>
      </trkpt>
      <trkpt lat="47.526676" lon="2.0724788">
        <ele>159.0</ele>
        <time>2022-05-19T07:23:52Z</time>
      </trkpt>
      <trkpt lat="47.526672" lon="2.0724874">
        <ele>158.0</ele>
        <time>2022-05-19T07:23:53Z</time>
      </trkpt>
      <trkpt lat="47.526665" lon="2.0724995">
        <ele>158.0</ele>
        <time>2022-05-19T07:23:54Z</time>
      </trkpt>
      <trkpt lat="47.526657" lon="2.0725095">
        <ele>158.0</ele>
        <time>2022-05-19T07:23:55Z</time>
      </trkpt>
      <trkpt lat="47.526653" lon="2.0725248">
        <ele>158.0</ele>
        <time>2022-05-19T07:23:56Z</time>
      </trkpt>
      <trkpt lat="47.52665" lon="2.072539">
        <ele>158.0</ele>
        <time>2022-05-19T07:23:57Z</time>
      </trkpt>
      <trkpt lat="47.526646" lon="2.072554">
        <ele>158.0</ele>
        <time>2022-05-19T07:23:58Z</time>
      </trkpt>
      <trkpt lat="47.52664" lon="2.0725708">
        <ele>158.0</ele>
        <time>2022-05-19T07:23:59Z</time>
      </trkpt>
      <trkpt lat="47.52664" lon="2.0725858">
        <ele>158.0</ele>
        <time>2022-05-19T07:24:00Z</time>
      </trkpt>
      <trkpt lat="47.526638" lon="2.0725987">
        <ele>158.0</ele>
        <time>2022-05-19T07:24:01Z</time>
      </trkpt>
      <trkpt lat="47.526634" lon="2.072614">
        <ele>158.0</ele>
        <time>2022-05-19T07:24:02Z</time>
      </trkpt>
      <trkpt lat="47.526623" lon="2.0726278">
        <ele>158.0</ele>
        <time>2022-05-19T07:24:03Z</time>
      </trkpt>
      <trkpt lat="47.52662" lon="2.072641">
        <ele>158.0</ele>
        <time>2022-05-19T07:24:04Z</time>
      </trkpt>
      <trkpt lat="47.526608" lon="2.072648">
        <ele>158.0</ele>
        <time>2022-05-19T07:24:05Z</time>
      </trkpt>
      <trkpt lat="47.526592" lon="2.072657">
        <ele>159.0</ele>
        <time>2022-05-19T07:24:06Z</time>
      </trkpt>
      <trkpt lat="47.52658" lon="2.072663">
        <ele>159.0</ele>
        <time>2022-05-19T07:24:07Z</time>
      </trkpt>
      <trkpt lat="47.526573" lon="2.072669">
        <ele>159.0</ele>
        <time>2022-05-19T07:24:08Z</time>
      </trkpt>
      <trkpt lat="47.52656" lon="2.0726721">
        <ele>158.0</ele>
        <time>2022-05-19T07:24:09Z</time>
      </trkpt>
      <trkpt lat="47.52655" lon="2.0726795">
        <ele>158.0</ele>
        <time>2022-05-19T07:24:10Z</time>
      </trkpt>
      <trkpt lat="47.526543" lon="2.0726905">
        <ele>158.0</ele>
        <time>2022-05-19T07:24:11Z</time>
      </trkpt>
      <trkpt lat="47.526535" lon="2.0727007">
        <ele>158.0</ele>
        <time>2022-05-19T07:24:12Z</time>
      </trkpt>
      <trkpt lat="47.52653" lon="2.072708">
        <ele>157.0</ele>
        <time>2022-05-19T07:24:13Z</time>
      </trkpt>
      <trkpt lat="47.52652" lon="2.07272">
        <ele>157.0</ele>
        <time>2022-05-19T07:24:14Z</time>
      </trkpt>
      <trkpt lat="47.52651" lon="2.0727265">
        <ele>157.0</ele>
        <time>2022-05-19T07:24:15Z</time>
      </trkpt>
      <trkpt lat="47.526497" lon="2.0727406">
        <ele>157.0</ele>
        <time>2022-05-19T07:24:16Z</time>
      </trkpt>
      <trkpt lat="47.526485" lon="2.0727513">
        <ele>157.0</ele>
        <time>2022-05-19T07:24:17Z</time>
      </trkpt>
      <trkpt lat="47.526478" lon="2.072761">
        <ele>157.0</ele>
        <time>2022-05-19T07:24:18Z</time>
      </trkpt>
      <trkpt lat="47.52647" lon="2.072776">
        <ele>157.0</ele>
        <time>2022-05-19T07:24:19Z</time>
      </trkpt>
      <trkpt lat="47.526466" lon="2.0727882">
        <ele>156.0</ele>
        <time>2022-05-19T07:24:20Z</time>
      </trkpt>
      <trkpt lat="47.52646" lon="2.0728009">
        <ele>156.0</ele>
        <time>2022-05-19T07:24:21Z</time>
      </trkpt>
      <trkpt lat="47.52645" lon="2.0728085">
        <ele>156.0</ele>
        <time>2022-05-19T07:24:22Z</time>
      </trkpt>
      <trkpt lat="47.52644" lon="2.0728173">
        <ele>155.0</ele>
        <time>2022-05-19T07:24:23Z</time>
      </trkpt>
      <trkpt lat="47.526432" lon="2.0728254">
        <ele>155.0</ele>
        <time>2022-05-19T07:24:24Z</time>
      </trkpt>
      <trkpt lat="47.52643" lon="2.072831">
        <ele>155.0</ele>
        <time>2022-05-19T07:24:25Z</time>
      </trkpt>
      <trkpt lat="47.52642" lon="2.0728376">
        <ele>155.0</ele>
        <time>2022-05-19T07:24:26Z</time>
      </trkpt>
      <trkpt lat="47.526413" lon="2.0728486">
        <ele>154.0</ele>
        <time>2022-05-19T07:24:27Z</time>
      </trkpt>
      <trkpt lat="47.526398" lon="2.0728524">
        <ele>154.0</ele>
        <time>2022-05-19T07:24:28Z</time>
      </trkpt>
      <trkpt lat="47.52639" lon="2.0728607">
        <ele>154.0</ele>
        <time>2022-05-19T07:24:29Z</time>
      </trkpt>
      <trkpt lat="47.52638" lon="2.0728645">
        <ele>153.0</ele>
        <time>2022-05-19T07:24:30Z</time>
      </trkpt>
      <trkpt lat="47.52637" lon="2.0728705">
        <ele>153.0</ele>
        <time>2022-05-19T07:24:31Z</time>
      </trkpt>
      <trkpt lat="47.526363" lon="2.0728753">
        <ele>153.0</ele>
        <time>2022-05-19T07:24:32Z</time>
      </trkpt>
      <trkpt lat="47.526363" lon="2.0728803">
        <ele>153.0</ele>
        <time>2022-05-19T07:24:33Z</time>
      </trkpt>
      <trkpt lat="47.52636" lon="2.072884">
        <ele>154.0</ele>
        <time>2022-05-19T07:24:34Z</time>
      </trkpt>
      <trkpt lat="47.526356" lon="2.0728889">
        <ele>154.0</ele>
        <time>2022-05-19T07:24:35Z</time>
      </trkpt>
      <trkpt lat="47.52635" lon="2.0728967">
        <ele>154.0</ele>
        <time>2022-05-19T07:24:36Z</time>
      </trkpt>
      <trkpt lat="47.52635" lon="2.0729055">
        <ele>153.0</ele>
        <time>2022-05-19T07:24:37Z</time>
      </trkpt>
      <trkpt lat="47.52634" lon="2.0729089">
        <ele>153.0</ele>
        <time>2022-05-19T07:24:38Z</time>
      </trkpt>
      <trkpt lat="47.526337" lon="2.0729105">
        <ele>153.0</ele>
        <time>2022-05-19T07:24:39Z</time>
      </trkpt>
      <trkpt lat="47.526337" lon="2.0729105">
        <ele>153.0</ele>
        <time>2022-05-19T07:24:39Z</time>
      </trkpt>
      <trkpt lat="47.526337" lon="2.0729105">
        <ele>153.0</ele>
        <time>2022-05-19T07:24:39Z</time>
      </trkpt>
      <trkpt lat="47.526314" lon="2.072938">
        <ele>154.0</ele>
        <time>2022-05-19T07:24:53Z</time>
      </trkpt>
      <trkpt lat="47.52631" lon="2.0729449">
        <ele>154.0</ele>
        <time>2022-05-19T07:24:54Z</time>
      </trkpt>
      <trkpt lat="47.526306" lon="2.0729542">
        <ele>154.0</ele>
        <time>2022-05-19T07:24:55Z</time>
      </trkpt>
      <trkpt lat="47.526302" lon="2.0729616">
        <ele>154.0</ele>
        <time>2022-05-19T07:24:56Z</time>
      </trkpt>
      <trkpt lat="47.5263" lon="2.0729685">
        <ele>155.0</ele>
        <time>2022-05-19T07:24:57Z</time>
      </trkpt>
      <trkpt lat="47.526295" lon="2.0729754">
        <ele>155.0</ele>
        <time>2022-05-19T07:24:58Z</time>
      </trkpt>
      <trkpt lat="47.526295" lon="2.0729754">
        <ele>155.0</ele>
        <time>2022-05-19T07:24:59Z</time>
      </trkpt>
      <trkpt lat="47.526295" lon="2.0729754">
        <ele>155.0</ele>
        <time>2022-05-19T07:25:00Z</time>
      </trkpt>
      <trkpt lat="47.52629" lon="2.073001">
        <ele>156.0</ele>
        <time>2022-05-19T07:25:01Z</time>
      </trkpt>
      <trkpt lat="47.52629" lon="2.073012">
        <ele>156.0</ele>
        <time>2022-05-19T07:25:02Z</time>
      </trkpt>
      <trkpt lat="47.52629" lon="2.0730224">
        <ele>156.0</ele>
        <time>2022-05-19T07:25:03Z</time>
      </trkpt>
      <trkpt lat="47.52629" lon="2.0730386">
        <ele>157.0</ele>
        <time>2022-05-19T07:25:04Z</time>
      </trkpt>
      <trkpt lat="47.52629" lon="2.0730386">
        <ele>157.0</ele>
        <time>2022-05-19T07:25:05Z</time>
      </trkpt>
      <trkpt lat="47.526287" lon="2.0730612">
        <ele>158.0</ele>
        <time>2022-05-19T07:25:06Z</time>
      </trkpt>
      <trkpt lat="47.526283" lon="2.0730722">
        <ele>159.0</ele>
        <time>2022-05-19T07:25:07Z</time>
      </trkpt>
      <trkpt lat="47.526283" lon="2.0730822">
        <ele>158.0</ele>
        <time>2022-05-19T07:25:08Z</time>
      </trkpt>
      <trkpt lat="47.526283" lon="2.0730917">
        <ele>158.0</ele>
        <time>2022-05-19T07:25:09Z</time>
      </trkpt>
      <trkpt lat="47.526283" lon="2.0730984">
        <ele>158.0</ele>
        <time>2022-05-19T07:25:10Z</time>
      </trkpt>
      <trkpt lat="47.526283" lon="2.0731075">
        <ele>158.0</ele>
        <time>2022-05-19T07:25:11Z</time>
      </trkpt>
      <trkpt lat="47.526283" lon="2.0731192">
        <ele>158.0</ele>
        <time>2022-05-19T07:25:12Z</time>
      </trkpt>
      <trkpt lat="47.526283" lon="2.0731308">
        <ele>158.0</ele>
        <time>2022-05-19T07:25:13Z</time>
      </trkpt>
      <trkpt lat="47.526283" lon="2.0731416">
        <ele>158.0</ele>
        <time>2022-05-19T07:25:14Z</time>
      </trkpt>
      <trkpt lat="47.526287" lon="2.0731509">
        <ele>157.0</ele>
        <time>2022-05-19T07:25:15Z</time>
      </trkpt>
      <trkpt lat="47.526283" lon="2.0731592">
        <ele>157.0</ele>
        <time>2022-05-19T07:25:16Z</time>
      </trkpt>
      <trkpt lat="47.526287" lon="2.0731728">
        <ele>157.0</ele>
        <time>2022-05-19T07:25:17Z</time>
      </trkpt>
      <trkpt lat="47.52629" lon="2.073187">
        <ele>157.0</ele>
        <time>2022-05-19T07:25:18Z</time>
      </trkpt>
      <trkpt lat="47.52629" lon="2.0731988">
        <ele>157.0</ele>
        <time>2022-05-19T07:25:19Z</time>
      </trkpt>
      <trkpt lat="47.526295" lon="2.07321">
        <ele>157.0</ele>
        <time>2022-05-19T07:25:20Z</time>
      </trkpt>
      <trkpt lat="47.526295" lon="2.0732234">
        <ele>156.0</ele>
        <time>2022-05-19T07:25:21Z</time>
      </trkpt>
      <trkpt lat="47.5263" lon="2.0732348">
        <ele>156.0</ele>
        <time>2022-05-19T07:25:22Z</time>
      </trkpt>
      <trkpt lat="47.526302" lon="2.073244">
        <ele>156.0</ele>
        <time>2022-05-19T07:25:23Z</time>
      </trkpt>
      <trkpt lat="47.526306" lon="2.0732553">
        <ele>156.0</ele>
        <time>2022-05-19T07:25:24Z</time>
      </trkpt>
      <trkpt lat="47.526306" lon="2.073265">
        <ele>156.0</ele>
        <time>2022-05-19T07:25:25Z</time>
      </trkpt>
      <trkpt lat="47.52631" lon="2.0732627">
        <ele>155.0</ele>
        <time>2022-05-19T07:25:26Z</time>
      </trkpt>
      <trkpt lat="47.52631" lon="2.0732625">
        <ele>155.0</ele>
        <time>2022-05-19T07:25:27Z</time>
      </trkpt>
      <trkpt lat="47.526306" lon="2.0732615">
        <ele>155.0</ele>
        <time>2022-05-19T07:25:28Z</time>
      </trkpt>
      <trkpt lat="47.52631" lon="2.0732603">
        <ele>155.0</ele>
        <time>2022-05-19T07:25:29Z</time>
      </trkpt>
      <trkpt lat="47.52631" lon="2.0732603">
        <ele>155.0</ele>
        <time>2022-05-19T07:25:29Z</time>
      </trkpt>
      <trkpt lat="47.52631" lon="2.0732603">
        <ele>155.0</ele>
        <time>2022-05-19T07:25:29Z</time>
      </trkpt>
      <trkpt lat="47.52632" lon="2.0733297">
        <ele>155.0</ele>
        <time>2022-05-19T07:25:36Z</time>
      </trkpt>
      <trkpt lat="47.52632" lon="2.0733416">
        <ele>154.0</ele>
        <time>2022-05-19T07:25:37Z</time>
      </trkpt>
      <trkpt lat="47.526318" lon="2.0733538">
        <ele>155.0</ele>
        <time>2022-05-19T07:25:38Z</time>
      </trkpt>
      <trkpt lat="47.526314" lon="2.07337">
        <ele>155.0</ele>
        <time>2022-05-19T07:25:39Z</time>
      </trkpt>
      <trkpt lat="47.526314" lon="2.0733821">
        <ele>155.0</ele>
        <time>2022-05-19T07:25:40Z</time>
      </trkpt>
      <trkpt lat="47.52631" lon="2.0733945">
        <ele>155.0</ele>
        <time>2022-05-19T07:25:41Z</time>
      </trkpt>
      <trkpt lat="47.526306" lon="2.0734067">
        <ele>156.0</ele>
        <time>2022-05-19T07:25:42Z</time>
      </trkpt>
      <trkpt lat="47.526302" lon="2.0734184">
        <ele>155.0</ele>
        <time>2022-05-19T07:25:43Z</time>
      </trkpt>
      <trkpt lat="47.5263" lon="2.07343">
        <ele>155.0</ele>
        <time>2022-05-19T07:25:44Z</time>
      </trkpt>
      <trkpt lat="47.5263" lon="2.0734427">
        <ele>155.0</ele>
        <time>2022-05-19T07:25:45Z</time>
      </trkpt>
      <trkpt lat="47.5263" lon="2.0734608">
        <ele>154.0</ele>
        <time>2022-05-19T07:25:46Z</time>
      </trkpt>
      <trkpt lat="47.5263" lon="2.073484">
        <ele>154.0</ele>
        <time>2022-05-19T07:25:47Z</time>
      </trkpt>
      <trkpt lat="47.526302" lon="2.0735023">
        <ele>154.0</ele>
        <time>2022-05-19T07:25:48Z</time>
      </trkpt>
      <trkpt lat="47.526306" lon="2.0735362">
        <ele>155.0</ele>
        <time>2022-05-19T07:25:50Z</time>
      </trkpt>
      <trkpt lat="47.526302" lon="2.0735521">
        <ele>155.0</ele>
        <time>2022-05-19T07:25:51Z</time>
      </trkpt>
      <trkpt lat="47.526306" lon="2.0735707">
        <ele>154.0</ele>
        <time>2022-05-19T07:25:52Z</time>
      </trkpt>
      <trkpt lat="47.52631" lon="2.0735843">
        <ele>154.0</ele>
        <time>2022-05-19T07:25:53Z</time>
      </trkpt>
      <trkpt lat="47.52632" lon="2.073594">
        <ele>154.0</ele>
        <time>2022-05-19T07:25:54Z</time>
      </trkpt>
      <trkpt lat="47.52633" lon="2.0736082">
        <ele>155.0</ele>
        <time>2022-05-19T07:25:55Z</time>
      </trkpt>
      <trkpt lat="47.52634" lon="2.0736217">
        <ele>155.0</ele>
        <time>2022-05-19T07:25:56Z</time>
      </trkpt>
      <trkpt lat="47.526344" lon="2.0736356">
        <ele>155.0</ele>
        <time>2022-05-19T07:25:57Z</time>
      </trkpt>
      <trkpt lat="47.52635" lon="2.0736444">
        <ele>155.0</ele>
        <time>2022-05-19T07:25:58Z</time>
      </trkpt>
      <trkpt lat="47.526352" lon="2.0736551">
        <ele>155.0</ele>
        <time>2022-05-19T07:25:59Z</time>
      </trkpt>
      <trkpt lat="47.526356" lon="2.0736632">
        <ele>155.0</ele>
        <time>2022-05-19T07:26:00Z</time>
      </trkpt>
      <trkpt lat="47.526356" lon="2.0736735">
        <ele>155.0</ele>
        <time>2022-05-19T07:26:01Z</time>
      </trkpt>
      <trkpt lat="47.52636" lon="2.0736854">
        <ele>155.0</ele>
        <time>2022-05-19T07:26:02Z</time>
      </trkpt>
      <trkpt lat="47.526367" lon="2.0736945">
        <ele>155.0</ele>
        <time>2022-05-19T07:26:03Z</time>
      </trkpt>
      <trkpt lat="47.526375" lon="2.073707">
        <ele>155.0</ele>
        <time>2022-05-19T07:26:04Z</time>
      </trkpt>
      <trkpt lat="47.52638" lon="2.0737185">
        <ele>155.0</ele>
        <time>2022-05-19T07:26:05Z</time>
      </trkpt>
      <trkpt lat="47.526382" lon="2.0737321">
        <ele>156.0</ele>
        <time>2022-05-19T07:26:06Z</time>
      </trkpt>
      <trkpt lat="47.526386" lon="2.0737462">
        <ele>156.0</ele>
        <time>2022-05-19T07:26:07Z</time>
      </trkpt>
      <trkpt lat="47.52639" lon="2.07376">
        <ele>156.0</ele>
        <time>2022-05-19T07:26:08Z</time>
      </trkpt>
      <trkpt lat="47.526398" lon="2.073776">
        <ele>156.0</ele>
        <time>2022-05-19T07:26:09Z</time>
      </trkpt>
      <trkpt lat="47.5264" lon="2.073791">
        <ele>156.0</ele>
        <time>2022-05-19T07:26:10Z</time>
      </trkpt>
      <trkpt lat="47.52641" lon="2.0737987">
        <ele>155.0</ele>
        <time>2022-05-19T07:26:11Z</time>
      </trkpt>
      <trkpt lat="47.526413" lon="2.0738087">
        <ele>156.0</ele>
        <time>2022-05-19T07:26:12Z</time>
      </trkpt>
      <trkpt lat="47.526417" lon="2.073823">
        <ele>156.0</ele>
        <time>2022-05-19T07:26:13Z</time>
      </trkpt>
      <trkpt lat="47.52642" lon="2.0738332">
        <ele>156.0</ele>
        <time>2022-05-19T07:26:14Z</time>
      </trkpt>
      <trkpt lat="47.52643" lon="2.073846">
        <ele>156.0</ele>
        <time>2022-05-19T07:26:15Z</time>
      </trkpt>
      <trkpt lat="47.526436" lon="2.0738585">
        <ele>156.0</ele>
        <time>2022-05-19T07:26:16Z</time>
      </trkpt>
      <trkpt lat="47.526443" lon="2.0738683">
        <ele>156.0</ele>
        <time>2022-05-19T07:26:17Z</time>
      </trkpt>
      <trkpt lat="47.526447" lon="2.0738785">
        <ele>156.0</ele>
        <time>2022-05-19T07:26:18Z</time>
      </trkpt>
      <trkpt lat="47.52645" lon="2.0738916">
        <ele>156.0</ele>
        <time>2022-05-19T07:26:19Z</time>
      </trkpt>
      <trkpt lat="47.52646" lon="2.0739038">
        <ele>156.0</ele>
        <time>2022-05-19T07:26:20Z</time>
      </trkpt>
      <trkpt lat="47.526463" lon="2.073916">
        <ele>156.0</ele>
        <time>2022-05-19T07:26:21Z</time>
      </trkpt>
      <trkpt lat="47.526466" lon="2.0739315">
        <ele>156.0</ele>
        <time>2022-05-19T07:26:22Z</time>
      </trkpt>
      <trkpt lat="47.526474" lon="2.073943">
        <ele>156.0</ele>
        <time>2022-05-19T07:26:23Z</time>
      </trkpt>
      <trkpt lat="47.526478" lon="2.0739574">
        <ele>155.0</ele>
        <time>2022-05-19T07:26:24Z</time>
      </trkpt>
      <trkpt lat="47.526485" lon="2.0739732">
        <ele>155.0</ele>
        <time>2022-05-19T07:26:25Z</time>
      </trkpt>
      <trkpt lat="47.526493" lon="2.073988">
        <ele>155.0</ele>
        <time>2022-05-19T07:26:26Z</time>
      </trkpt>
      <trkpt lat="47.526497" lon="2.074001">
        <ele>155.0</ele>
        <time>2022-05-19T07:26:27Z</time>
      </trkpt>
      <trkpt lat="47.5265" lon="2.0740137">
        <ele>155.0</ele>
        <time>2022-05-19T07:26:28Z</time>
      </trkpt>
      <trkpt lat="47.526505" lon="2.0740302">
        <ele>155.0</ele>
        <time>2022-05-19T07:26:29Z</time>
      </trkpt>
      <trkpt lat="47.52651" lon="2.0740418">
        <ele>155.0</ele>
        <time>2022-05-19T07:26:30Z</time>
      </trkpt>
      <trkpt lat="47.52651" lon="2.0740552">
        <ele>156.0</ele>
        <time>2022-05-19T07:26:31Z</time>
      </trkpt>
      <trkpt lat="47.526516" lon="2.0740643">
        <ele>155.0</ele>
        <time>2022-05-19T07:26:32Z</time>
      </trkpt>
      <trkpt lat="47.526516" lon="2.0740802">
        <ele>155.0</ele>
        <time>2022-05-19T07:26:33Z</time>
      </trkpt>
      <trkpt lat="47.52652" lon="2.0740955">
        <ele>155.0</ele>
        <time>2022-05-19T07:26:34Z</time>
      </trkpt>
      <trkpt lat="47.526527" lon="2.074112">
        <ele>155.0</ele>
        <time>2022-05-19T07:26:35Z</time>
      </trkpt>
      <trkpt lat="47.526527" lon="2.0741274">
        <ele>155.0</ele>
        <time>2022-05-19T07:26:36Z</time>
      </trkpt>
      <trkpt lat="47.526535" lon="2.0741398">
        <ele>155.0</ele>
        <time>2022-05-19T07:26:37Z</time>
      </trkpt>
      <trkpt lat="47.52654" lon="2.0741525">
        <ele>155.0</ele>
        <time>2022-05-19T07:26:38Z</time>
      </trkpt>
      <trkpt lat="47.526543" lon="2.0741613">
        <ele>155.0</ele>
        <time>2022-05-19T07:26:39Z</time>
      </trkpt>
      <trkpt lat="47.526546" lon="2.074176">
        <ele>155.0</ele>
        <time>2022-05-19T07:26:40Z</time>
      </trkpt>
      <trkpt lat="47.526554" lon="2.0741901">
        <ele>155.0</ele>
        <time>2022-05-19T07:26:41Z</time>
      </trkpt>
      <trkpt lat="47.52656" lon="2.074203">
        <ele>155.0</ele>
        <time>2022-05-19T07:26:42Z</time>
      </trkpt>
      <trkpt lat="47.52657" lon="2.0742192">
        <ele>155.0</ele>
        <time>2022-05-19T07:26:43Z</time>
      </trkpt>
      <trkpt lat="47.526573" lon="2.0742333">
        <ele>155.0</ele>
        <time>2022-05-19T07:26:44Z</time>
      </trkpt>
      <trkpt lat="47.526573" lon="2.0742517">
        <ele>155.0</ele>
        <time>2022-05-19T07:26:45Z</time>
      </trkpt>
      <trkpt lat="47.526577" lon="2.07427">
        <ele>155.0</ele>
        <time>2022-05-19T07:26:46Z</time>
      </trkpt>
      <trkpt lat="47.52658" lon="2.074285">
        <ele>155.0</ele>
        <time>2022-05-19T07:26:47Z</time>
      </trkpt>
      <trkpt lat="47.526585" lon="2.0742981">
        <ele>155.0</ele>
        <time>2022-05-19T07:26:48Z</time>
      </trkpt>
      <trkpt lat="47.52659" lon="2.074311">
        <ele>155.0</ele>
        <time>2022-05-19T07:26:49Z</time>
      </trkpt>
      <trkpt lat="47.526592" lon="2.074328">
        <ele>154.0</ele>
        <time>2022-05-19T07:26:50Z</time>
      </trkpt>
      <trkpt lat="47.526596" lon="2.0743442">
        <ele>155.0</ele>
        <time>2022-05-19T07:26:51Z</time>
      </trkpt>
      <trkpt lat="47.5266" lon="2.0743587">
        <ele>155.0</ele>
        <time>2022-05-19T07:26:52Z</time>
      </trkpt>
      <trkpt lat="47.526604" lon="2.074375">
        <ele>155.0</ele>
        <time>2022-05-19T07:26:53Z</time>
      </trkpt>
      <trkpt lat="47.526608" lon="2.0743918">
        <ele>155.0</ele>
        <time>2022-05-19T07:26:54Z</time>
      </trkpt>
      <trkpt lat="47.526615" lon="2.0744078">
        <ele>155.0</ele>
        <time>2022-05-19T07:26:55Z</time>
      </trkpt>
      <trkpt lat="47.526623" lon="2.0744267">
        <ele>155.0</ele>
        <time>2022-05-19T07:26:56Z</time>
      </trkpt>
      <trkpt lat="47.52663" lon="2.0744405">
        <ele>155.0</ele>
        <time>2022-05-19T07:26:57Z</time>
      </trkpt>
      <trkpt lat="47.52663" lon="2.0744483">
        <ele>155.0</ele>
        <time>2022-05-19T07:26:58Z</time>
      </trkpt>
      <trkpt lat="47.526634" lon="2.074465">
        <ele>154.0</ele>
        <time>2022-05-19T07:26:59Z</time>
      </trkpt>
      <trkpt lat="47.52664" lon="2.0744822">
        <ele>154.0</ele>
        <time>2022-05-19T07:27:00Z</time>
      </trkpt>
      <trkpt lat="47.526646" lon="2.074498">
        <ele>154.0</ele>
        <time>2022-05-19T07:27:01Z</time>
      </trkpt>
      <trkpt lat="47.52665" lon="2.0745134">
        <ele>154.0</ele>
        <time>2022-05-19T07:27:02Z</time>
      </trkpt>
      <trkpt lat="47.526657" lon="2.0745292">
        <ele>154.0</ele>
        <time>2022-05-19T07:27:03Z</time>
      </trkpt>
      <trkpt lat="47.526665" lon="2.0745451">
        <ele>154.0</ele>
        <time>2022-05-19T07:27:04Z</time>
      </trkpt>
      <trkpt lat="47.52667" lon="2.0745564">
        <ele>154.0</ele>
        <time>2022-05-19T07:27:05Z</time>
      </trkpt>
      <trkpt lat="47.526676" lon="2.0745702">
        <ele>155.0</ele>
        <time>2022-05-19T07:27:06Z</time>
      </trkpt>
      <trkpt lat="47.52668" lon="2.0745876">
        <ele>155.0</ele>
        <time>2022-05-19T07:27:07Z</time>
      </trkpt>
      <trkpt lat="47.526684" lon="2.0746045">
        <ele>155.0</ele>
        <time>2022-05-19T07:27:08Z</time>
      </trkpt>
      <trkpt lat="47.526688" lon="2.0746238">
        <ele>155.0</ele>
        <time>2022-05-19T07:27:09Z</time>
      </trkpt>
      <trkpt lat="47.526695" lon="2.074641">
        <ele>155.0</ele>
        <time>2022-05-19T07:27:10Z</time>
      </trkpt>
      <trkpt lat="47.5267" lon="2.0746608">
        <ele>155.0</ele>
        <time>2022-05-19T07:27:11Z</time>
      </trkpt>
      <trkpt lat="47.526707" lon="2.0746784">
        <ele>156.0</ele>
        <time>2022-05-19T07:27:12Z</time>
      </trkpt>
      <trkpt lat="47.52671" lon="2.074696">
        <ele>156.0</ele>
        <time>2022-05-19T07:27:13Z</time>
      </trkpt>
      <trkpt lat="47.526714" lon="2.0747094">
        <ele>156.0</ele>
        <time>2022-05-19T07:27:14Z</time>
      </trkpt>
      <trkpt lat="47.526722" lon="2.0747237">
        <ele>156.0</ele>
        <time>2022-05-19T07:27:15Z</time>
      </trkpt>
      <trkpt lat="47.52673" lon="2.0747411">
        <ele>157.0</ele>
        <time>2022-05-19T07:27:16Z</time>
      </trkpt>
      <trkpt lat="47.526733" lon="2.074758">
        <ele>157.0</ele>
        <time>2022-05-19T07:27:17Z</time>
      </trkpt>
      <trkpt lat="47.52674" lon="2.0747755">
        <ele>157.0</ele>
        <time>2022-05-19T07:27:18Z</time>
      </trkpt>
      <trkpt lat="47.526745" lon="2.0747905">
        <ele>157.0</ele>
        <time>2022-05-19T07:27:19Z</time>
      </trkpt>
      <trkpt lat="47.526752" lon="2.0748053">
        <ele>157.0</ele>
        <time>2022-05-19T07:27:20Z</time>
      </trkpt>
      <trkpt lat="47.52676" lon="2.0748217">
        <ele>157.0</ele>
        <time>2022-05-19T07:27:21Z</time>
      </trkpt>
      <trkpt lat="47.526768" lon="2.0748377">
        <ele>157.0</ele>
        <time>2022-05-19T07:27:22Z</time>
      </trkpt>
      <trkpt lat="47.52677" lon="2.0748546">
        <ele>157.0</ele>
        <time>2022-05-19T07:27:23Z</time>
      </trkpt>
      <trkpt lat="47.52678" lon="2.0748682">
        <ele>158.0</ele>
        <time>2022-05-19T07:27:24Z</time>
      </trkpt>
      <trkpt lat="47.526783" lon="2.0748835">
        <ele>158.0</ele>
        <time>2022-05-19T07:27:25Z</time>
      </trkpt>
      <trkpt lat="47.526787" lon="2.0748987">
        <ele>158.0</ele>
        <time>2022-05-19T07:27:26Z</time>
      </trkpt>
      <trkpt lat="47.526794" lon="2.0749133">
        <ele>158.0</ele>
        <time>2022-05-19T07:27:27Z</time>
      </trkpt>
      <trkpt lat="47.5268" lon="2.0749292">
        <ele>158.0</ele>
        <time>2022-05-19T07:27:28Z</time>
      </trkpt>
      <trkpt lat="47.526806" lon="2.0749435">
        <ele>158.0</ele>
        <time>2022-05-19T07:27:29Z</time>
      </trkpt>
      <trkpt lat="47.526806" lon="2.0749583">
        <ele>158.0</ele>
        <time>2022-05-19T07:27:30Z</time>
      </trkpt>
      <trkpt lat="47.526814" lon="2.0749722">
        <ele>158.0</ele>
        <time>2022-05-19T07:27:31Z</time>
      </trkpt>
      <trkpt lat="47.526817" lon="2.0749805">
        <ele>158.0</ele>
        <time>2022-05-19T07:27:32Z</time>
      </trkpt>
      <trkpt lat="47.526825" lon="2.0749907">
        <ele>158.0</ele>
        <time>2022-05-19T07:27:33Z</time>
      </trkpt>
      <trkpt lat="47.52683" lon="2.0750053">
        <ele>159.0</ele>
        <time>2022-05-19T07:27:34Z</time>
      </trkpt>
      <trkpt lat="47.526836" lon="2.075022">
        <ele>159.0</ele>
        <time>2022-05-19T07:27:35Z</time>
      </trkpt>
      <trkpt lat="47.526844" lon="2.075034">
        <ele>159.0</ele>
        <time>2022-05-19T07:27:36Z</time>
      </trkpt>
      <trkpt lat="47.52685" lon="2.0750434">
        <ele>160.0</ele>
        <time>2022-05-19T07:27:37Z</time>
      </trkpt>
      <trkpt lat="47.526855" lon="2.075057">
        <ele>160.0</ele>
        <time>2022-05-19T07:27:38Z</time>
      </trkpt>
      <trkpt lat="47.526863" lon="2.0750692">
        <ele>160.0</ele>
        <time>2022-05-19T07:27:39Z</time>
      </trkpt>
      <trkpt lat="47.52687" lon="2.075084">
        <ele>160.0</ele>
        <time>2022-05-19T07:27:40Z</time>
      </trkpt>
      <trkpt lat="47.52688" lon="2.0751014">
        <ele>160.0</ele>
        <time>2022-05-19T07:27:41Z</time>
      </trkpt>
      <trkpt lat="47.526882" lon="2.0751202">
        <ele>160.0</ele>
        <time>2022-05-19T07:27:42Z</time>
      </trkpt>
      <trkpt lat="47.526886" lon="2.0751374">
        <ele>160.0</ele>
        <time>2022-05-19T07:27:43Z</time>
      </trkpt>
      <trkpt lat="47.52689" lon="2.075154">
        <ele>160.0</ele>
        <time>2022-05-19T07:27:44Z</time>
      </trkpt>
      <trkpt lat="47.526897" lon="2.075171">
        <ele>160.0</ele>
        <time>2022-05-19T07:27:45Z</time>
      </trkpt>
      <trkpt lat="47.5269" lon="2.0751886">
        <ele>160.0</ele>
        <time>2022-05-19T07:27:46Z</time>
      </trkpt>
      <trkpt lat="47.526905" lon="2.075201">
        <ele>160.0</ele>
        <time>2022-05-19T07:27:47Z</time>
      </trkpt>
      <trkpt lat="47.52691" lon="2.0752156">
        <ele>160.0</ele>
        <time>2022-05-19T07:27:48Z</time>
      </trkpt>
      <trkpt lat="47.526913" lon="2.0752301">
        <ele>160.0</ele>
        <time>2022-05-19T07:27:49Z</time>
      </trkpt>
      <trkpt lat="47.526917" lon="2.0752509">
        <ele>160.0</ele>
        <time>2022-05-19T07:27:50Z</time>
      </trkpt>
      <trkpt lat="47.52692" lon="2.0752695">
        <ele>159.0</ele>
        <time>2022-05-19T07:27:51Z</time>
      </trkpt>
      <trkpt lat="47.526924" lon="2.0752866">
        <ele>159.0</ele>
        <time>2022-05-19T07:27:52Z</time>
      </trkpt>
      <trkpt lat="47.52693" lon="2.0753028">
        <ele>159.0</ele>
        <time>2022-05-19T07:27:53Z</time>
      </trkpt>
      <trkpt lat="47.526936" lon="2.075322">
        <ele>159.0</ele>
        <time>2022-05-19T07:27:54Z</time>
      </trkpt>
      <trkpt lat="47.526943" lon="2.0753372">
        <ele>158.0</ele>
        <time>2022-05-19T07:27:55Z</time>
      </trkpt>
      <trkpt lat="47.526947" lon="2.0753562">
        <ele>158.0</ele>
        <time>2022-05-19T07:27:56Z</time>
      </trkpt>
      <trkpt lat="47.526955" lon="2.0753775">
        <ele>157.0</ele>
        <time>2022-05-19T07:27:57Z</time>
      </trkpt>
      <trkpt lat="47.526955" lon="2.0754013">
        <ele>157.0</ele>
        <time>2022-05-19T07:27:58Z</time>
      </trkpt>
      <trkpt lat="47.52696" lon="2.0754194">
        <ele>157.0</ele>
        <time>2022-05-19T07:27:59Z</time>
      </trkpt>
      <trkpt lat="47.526966" lon="2.0754378">
        <ele>157.0</ele>
        <time>2022-05-19T07:28:00Z</time>
      </trkpt>
      <trkpt lat="47.52697" lon="2.0754611">
        <ele>158.0</ele>
        <time>2022-05-19T07:28:01Z</time>
      </trkpt>
      <trkpt lat="47.526978" lon="2.0754836">
        <ele>157.0</ele>
        <time>2022-05-19T07:28:02Z</time>
      </trkpt>
      <trkpt lat="47.52698" lon="2.075506">
        <ele>157.0</ele>
        <time>2022-05-19T07:28:03Z</time>
      </trkpt>
      <trkpt lat="47.526985" lon="2.0755274">
        <ele>157.0</ele>
        <time>2022-05-19T07:28:04Z</time>
      </trkpt>
      <trkpt lat="47.526993" lon="2.075549">
        <ele>157.0</ele>
        <time>2022-05-19T07:28:05Z</time>
      </trkpt>
      <trkpt lat="47.526997" lon="2.0755649">
        <ele>157.0</ele>
        <time>2022-05-19T07:28:06Z</time>
      </trkpt>
      <trkpt lat="47.527" lon="2.0755794">
        <ele>157.0</ele>
        <time>2022-05-19T07:28:07Z</time>
      </trkpt>
      <trkpt lat="47.527008" lon="2.0755963">
        <ele>157.0</ele>
        <time>2022-05-19T07:28:08Z</time>
      </trkpt>
      <trkpt lat="47.527016" lon="2.0756128">
        <ele>156.0</ele>
        <time>2022-05-19T07:28:09Z</time>
      </trkpt>
      <trkpt lat="47.527023" lon="2.0756288">
        <ele>157.0</ele>
        <time>2022-05-19T07:28:10Z</time>
      </trkpt>
      <trkpt lat="47.527027" lon="2.0756454">
        <ele>157.0</ele>
        <time>2022-05-19T07:28:11Z</time>
      </trkpt>
      <trkpt lat="47.52703" lon="2.0756617">
        <ele>158.0</ele>
        <time>2022-05-19T07:28:12Z</time>
      </trkpt>
      <trkpt lat="47.527035" lon="2.0756767">
        <ele>158.0</ele>
        <time>2022-05-19T07:28:13Z</time>
      </trkpt>
      <trkpt lat="47.527035" lon="2.075695">
        <ele>158.0</ele>
        <time>2022-05-19T07:28:14Z</time>
      </trkpt>
      <trkpt lat="47.52704" lon="2.075713">
        <ele>158.0</ele>
        <time>2022-05-19T07:28:15Z</time>
      </trkpt>
      <trkpt lat="47.527046" lon="2.07573">
        <ele>158.0</ele>
        <time>2022-05-19T07:28:16Z</time>
      </trkpt>
      <trkpt lat="47.52705" lon="2.0757437">
        <ele>158.0</ele>
        <time>2022-05-19T07:28:17Z</time>
      </trkpt>
      <trkpt lat="47.527054" lon="2.0757606">
        <ele>159.0</ele>
        <time>2022-05-19T07:28:18Z</time>
      </trkpt>
      <trkpt lat="47.52706" lon="2.0757785">
        <ele>158.0</ele>
        <time>2022-05-19T07:28:19Z</time>
      </trkpt>
      <trkpt lat="47.527065" lon="2.0757933">
        <ele>158.0</ele>
        <time>2022-05-19T07:28:20Z</time>
      </trkpt>
      <trkpt lat="47.527073" lon="2.075813">
        <ele>158.0</ele>
        <time>2022-05-19T07:28:21Z</time>
      </trkpt>
      <trkpt lat="47.527084" lon="2.0758283">
        <ele>159.0</ele>
        <time>2022-05-19T07:28:22Z</time>
      </trkpt>
      <trkpt lat="47.527096" lon="2.0758426">
        <ele>159.0</ele>
        <time>2022-05-19T07:28:23Z</time>
      </trkpt>
      <trkpt lat="47.5271" lon="2.075855">
        <ele>159.0</ele>
        <time>2022-05-19T07:28:24Z</time>
      </trkpt>
      <trkpt lat="47.527107" lon="2.075866">
        <ele>159.0</ele>
        <time>2022-05-19T07:28:25Z</time>
      </trkpt>
      <trkpt lat="47.52711" lon="2.075875">
        <ele>159.0</ele>
        <time>2022-05-19T07:28:26Z</time>
      </trkpt>
      <trkpt lat="47.52711" lon="2.0758848">
        <ele>159.0</ele>
        <time>2022-05-19T07:28:27Z</time>
      </trkpt>
      <trkpt lat="47.527115" lon="2.0758946">
        <ele>159.0</ele>
        <time>2022-05-19T07:28:28Z</time>
      </trkpt>
      <trkpt lat="47.52712" lon="2.0759072">
        <ele>160.0</ele>
        <time>2022-05-19T07:28:29Z</time>
      </trkpt>
      <trkpt lat="47.527122" lon="2.075921">
        <ele>160.0</ele>
        <time>2022-05-19T07:28:30Z</time>
      </trkpt>
      <trkpt lat="47.527126" lon="2.0759318">
        <ele>160.0</ele>
        <time>2022-05-19T07:28:31Z</time>
      </trkpt>
      <trkpt lat="47.527134" lon="2.0759425">
        <ele>160.0</ele>
        <time>2022-05-19T07:28:32Z</time>
      </trkpt>
      <trkpt lat="47.52714" lon="2.0759609">
        <ele>160.0</ele>
        <time>2022-05-19T07:28:33Z</time>
      </trkpt>
      <trkpt lat="47.52715" lon="2.0759776">
        <ele>160.0</ele>
        <time>2022-05-19T07:28:34Z</time>
      </trkpt>
      <trkpt lat="47.527157" lon="2.0759885">
        <ele>160.0</ele>
        <time>2022-05-19T07:28:35Z</time>
      </trkpt>
      <trkpt lat="47.527164" lon="2.0759974">
        <ele>160.0</ele>
        <time>2022-05-19T07:28:36Z</time>
      </trkpt>
      <trkpt lat="47.527176" lon="2.0760088">
        <ele>160.0</ele>
        <time>2022-05-19T07:28:37Z</time>
      </trkpt>
      <trkpt lat="47.52718" lon="2.076021">
        <ele>160.0</ele>
        <time>2022-05-19T07:28:38Z</time>
      </trkpt>
      <trkpt lat="47.527187" lon="2.0760388">
        <ele>161.0</ele>
        <time>2022-05-19T07:28:39Z</time>
      </trkpt>
      <trkpt lat="47.52719" lon="2.0760512">
        <ele>161.0</ele>
        <time>2022-05-19T07:28:40Z</time>
      </trkpt>
      <trkpt lat="47.5272" lon="2.0760627">
        <ele>161.0</ele>
        <time>2022-05-19T07:28:41Z</time>
      </trkpt>
      <trkpt lat="47.527206" lon="2.0760708">
        <ele>161.0</ele>
        <time>2022-05-19T07:28:42Z</time>
      </trkpt>
      <trkpt lat="47.527214" lon="2.076084">
        <ele>161.0</ele>
        <time>2022-05-19T07:28:43Z</time>
      </trkpt>
      <trkpt lat="47.527225" lon="2.076097">
        <ele>162.0</ele>
        <time>2022-05-19T07:28:44Z</time>
      </trkpt>
      <trkpt lat="47.527233" lon="2.0761125">
        <ele>161.0</ele>
        <time>2022-05-19T07:28:45Z</time>
      </trkpt>
      <trkpt lat="47.52724" lon="2.0761316">
        <ele>161.0</ele>
        <time>2022-05-19T07:28:46Z</time>
      </trkpt>
      <trkpt lat="47.52725" lon="2.0761468">
        <ele>161.0</ele>
        <time>2022-05-19T07:28:47Z</time>
      </trkpt>
      <trkpt lat="47.527256" lon="2.076168">
        <ele>162.0</ele>
        <time>2022-05-19T07:28:48Z</time>
      </trkpt>
      <trkpt lat="47.527264" lon="2.076186">
        <ele>162.0</ele>
        <time>2022-05-19T07:28:49Z</time>
      </trkpt>
      <trkpt lat="47.52727" lon="2.0761993">
        <ele>162.0</ele>
        <time>2022-05-19T07:28:50Z</time>
      </trkpt>
      <trkpt lat="47.527275" lon="2.076211">
        <ele>162.0</ele>
        <time>2022-05-19T07:28:51Z</time>
      </trkpt>
      <trkpt lat="47.527283" lon="2.0762255">
        <ele>162.0</ele>
        <time>2022-05-19T07:28:52Z</time>
      </trkpt>
      <trkpt lat="47.527287" lon="2.076242">
        <ele>162.0</ele>
        <time>2022-05-19T07:28:53Z</time>
      </trkpt>
      <trkpt lat="47.527287" lon="2.0762606">
        <ele>162.0</ele>
        <time>2022-05-19T07:28:54Z</time>
      </trkpt>
      <trkpt lat="47.52729" lon="2.07628">
        <ele>162.0</ele>
        <time>2022-05-19T07:28:55Z</time>
      </trkpt>
      <trkpt lat="47.527298" lon="2.0762951">
        <ele>162.0</ele>
        <time>2022-05-19T07:28:56Z</time>
      </trkpt>
      <trkpt lat="47.5273" lon="2.0763104">
        <ele>161.0</ele>
        <time>2022-05-19T07:28:57Z</time>
      </trkpt>
      <trkpt lat="47.52731" lon="2.076326">
        <ele>161.0</ele>
        <time>2022-05-19T07:28:58Z</time>
      </trkpt>
      <trkpt lat="47.527313" lon="2.0763404">
        <ele>161.0</ele>
        <time>2022-05-19T07:28:59Z</time>
      </trkpt>
      <trkpt lat="47.52732" lon="2.0763557">
        <ele>161.0</ele>
        <time>2022-05-19T07:29:00Z</time>
      </trkpt>
      <trkpt lat="47.527332" lon="2.076369">
        <ele>161.0</ele>
        <time>2022-05-19T07:29:01Z</time>
      </trkpt>
      <trkpt lat="47.52734" lon="2.076381">
        <ele>161.0</ele>
        <time>2022-05-19T07:29:02Z</time>
      </trkpt>
      <trkpt lat="47.52735" lon="2.0763943">
        <ele>161.0</ele>
        <time>2022-05-19T07:29:03Z</time>
      </trkpt>
      <trkpt lat="47.527355" lon="2.0764065">
        <ele>161.0</ele>
        <time>2022-05-19T07:29:04Z</time>
      </trkpt>
      <trkpt lat="47.527363" lon="2.0764205">
        <ele>161.0</ele>
        <time>2022-05-19T07:29:05Z</time>
      </trkpt>
      <trkpt lat="47.527378" lon="2.076433">
        <ele>160.0</ele>
        <time>2022-05-19T07:29:06Z</time>
      </trkpt>
      <trkpt lat="47.527386" lon="2.0764484">
        <ele>160.0</ele>
        <time>2022-05-19T07:29:07Z</time>
      </trkpt>
      <trkpt lat="47.527397" lon="2.0764623">
        <ele>160.0</ele>
        <time>2022-05-19T07:29:08Z</time>
      </trkpt>
      <trkpt lat="47.52741" lon="2.076479">
        <ele>160.0</ele>
        <time>2022-05-19T07:29:09Z</time>
      </trkpt>
      <trkpt lat="47.527416" lon="2.076496">
        <ele>160.0</ele>
        <time>2022-05-19T07:29:10Z</time>
      </trkpt>
      <trkpt lat="47.527428" lon="2.0765128">
        <ele>160.0</ele>
        <time>2022-05-19T07:29:11Z</time>
      </trkpt>
      <trkpt lat="47.527435" lon="2.0765274">
        <ele>160.0</ele>
        <time>2022-05-19T07:29:12Z</time>
      </trkpt>
      <trkpt lat="47.527443" lon="2.0765429">
        <ele>160.0</ele>
        <time>2022-05-19T07:29:13Z</time>
      </trkpt>
      <trkpt lat="47.52745" lon="2.076556">
        <ele>160.0</ele>
        <time>2022-05-19T07:29:14Z</time>
      </trkpt>
      <trkpt lat="47.52746" lon="2.0765693">
        <ele>160.0</ele>
        <time>2022-05-19T07:29:15Z</time>
      </trkpt>
      <trkpt lat="47.52747" lon="2.0765855">
        <ele>160.0</ele>
        <time>2022-05-19T07:29:16Z</time>
      </trkpt>
      <trkpt lat="47.527477" lon="2.0765996">
        <ele>160.0</ele>
        <time>2022-05-19T07:29:17Z</time>
      </trkpt>
      <trkpt lat="47.527485" lon="2.0766122">
        <ele>160.0</ele>
        <time>2022-05-19T07:29:18Z</time>
      </trkpt>
      <trkpt lat="47.527493" lon="2.0766242">
        <ele>160.0</ele>
        <time>2022-05-19T07:29:19Z</time>
      </trkpt>
      <trkpt lat="47.527496" lon="2.0766406">
        <ele>160.0</ele>
        <time>2022-05-19T07:29:20Z</time>
      </trkpt>
      <trkpt lat="47.5275" lon="2.0766559">
        <ele>159.0</ele>
        <time>2022-05-19T07:29:21Z</time>
      </trkpt>
      <trkpt lat="47.527504" lon="2.0766718">
        <ele>159.0</ele>
        <time>2022-05-19T07:29:22Z</time>
      </trkpt>
      <trkpt lat="47.52751" lon="2.0766873">
        <ele>159.0</ele>
        <time>2022-05-19T07:29:23Z</time>
      </trkpt>
      <trkpt lat="47.527515" lon="2.076706">
        <ele>158.0</ele>
        <time>2022-05-19T07:29:24Z</time>
      </trkpt>
      <trkpt lat="47.52752" lon="2.0767224">
        <ele>158.0</ele>
        <time>2022-05-19T07:29:25Z</time>
      </trkpt>
      <trkpt lat="47.527527" lon="2.076738">
        <ele>158.0</ele>
        <time>2022-05-19T07:29:26Z</time>
      </trkpt>
      <trkpt lat="47.527534" lon="2.0767527">
        <ele>157.0</ele>
        <time>2022-05-19T07:29:27Z</time>
      </trkpt>
      <trkpt lat="47.52754" lon="2.0767694">
        <ele>157.0</ele>
        <time>2022-05-19T07:29:28Z</time>
      </trkpt>
      <trkpt lat="47.527546" lon="2.0767853">
        <ele>157.0</ele>
        <time>2022-05-19T07:29:29Z</time>
      </trkpt>
      <trkpt lat="47.52755" lon="2.076801">
        <ele>157.0</ele>
        <time>2022-05-19T07:29:30Z</time>
      </trkpt>
      <trkpt lat="47.527557" lon="2.0768173">
        <ele>157.0</ele>
        <time>2022-05-19T07:29:31Z</time>
      </trkpt>
      <trkpt lat="47.52756" lon="2.0768385">
        <ele>157.0</ele>
        <time>2022-05-19T07:29:32Z</time>
      </trkpt>
      <trkpt lat="47.527565" lon="2.0768561">
        <ele>157.0</ele>
        <time>2022-05-19T07:29:33Z</time>
      </trkpt>
      <trkpt lat="47.527573" lon="2.0768764">
        <ele>157.0</ele>
        <time>2022-05-19T07:29:34Z</time>
      </trkpt>
      <trkpt lat="47.527576" lon="2.0768929">
        <ele>157.0</ele>
        <time>2022-05-19T07:29:35Z</time>
      </trkpt>
      <trkpt lat="47.52758" lon="2.0769093">
        <ele>158.0</ele>
        <time>2022-05-19T07:29:36Z</time>
      </trkpt>
      <trkpt lat="47.527584" lon="2.0769296">
        <ele>157.0</ele>
        <time>2022-05-19T07:29:37Z</time>
      </trkpt>
      <trkpt lat="47.527588" lon="2.0769453">
        <ele>158.0</ele>
        <time>2022-05-19T07:29:38Z</time>
      </trkpt>
      <trkpt lat="47.527596" lon="2.0769634">
        <ele>158.0</ele>
        <time>2022-05-19T07:29:39Z</time>
      </trkpt>
      <trkpt lat="47.5276" lon="2.0769842">
        <ele>159.0</ele>
        <time>2022-05-19T07:29:40Z</time>
      </trkpt>
      <trkpt lat="47.527603" lon="2.0770028">
        <ele>159.0</ele>
        <time>2022-05-19T07:29:41Z</time>
      </trkpt>
      <trkpt lat="47.527607" lon="2.0770168">
        <ele>159.0</ele>
        <time>2022-05-19T07:29:42Z</time>
      </trkpt>
      <trkpt lat="47.527615" lon="2.0770311">
        <ele>159.0</ele>
        <time>2022-05-19T07:29:43Z</time>
      </trkpt>
      <trkpt lat="47.52762" lon="2.077043">
        <ele>160.0</ele>
        <time>2022-05-19T07:29:44Z</time>
      </trkpt>
      <trkpt lat="47.527626" lon="2.0770564">
        <ele>160.0</ele>
        <time>2022-05-19T07:29:45Z</time>
      </trkpt>
      <trkpt lat="47.527637" lon="2.0770695">
        <ele>160.0</ele>
        <time>2022-05-19T07:29:46Z</time>
      </trkpt>
      <trkpt lat="47.52765" lon="2.0770874">
        <ele>160.0</ele>
        <time>2022-05-19T07:29:47Z</time>
      </trkpt>
      <trkpt lat="47.527657" lon="2.077106">
        <ele>160.0</ele>
        <time>2022-05-19T07:29:48Z</time>
      </trkpt>
      <trkpt lat="47.527664" lon="2.0771203">
        <ele>160.0</ele>
        <time>2022-05-19T07:29:49Z</time>
      </trkpt>
      <trkpt lat="47.527668" lon="2.0771332">
        <ele>160.0</ele>
        <time>2022-05-19T07:29:50Z</time>
      </trkpt>
      <trkpt lat="47.527668" lon="2.077146">
        <ele>160.0</ele>
        <time>2022-05-19T07:29:51Z</time>
      </trkpt>
      <trkpt lat="47.52767" lon="2.0771613">
        <ele>161.0</ele>
        <time>2022-05-19T07:29:52Z</time>
      </trkpt>
      <trkpt lat="47.527676" lon="2.077175">
        <ele>160.0</ele>
        <time>2022-05-19T07:29:53Z</time>
      </trkpt>
      <trkpt lat="47.52768" lon="2.0771892">
        <ele>160.0</ele>
        <time>2022-05-19T07:29:54Z</time>
      </trkpt>
      <trkpt lat="47.527687" lon="2.0772045">
        <ele>160.0</ele>
        <time>2022-05-19T07:29:55Z</time>
      </trkpt>
      <trkpt lat="47.527695" lon="2.0772183">
        <ele>160.0</ele>
        <time>2022-05-19T07:29:56Z</time>
      </trkpt>
      <trkpt lat="47.527702" lon="2.0772307">
        <ele>160.0</ele>
        <time>2022-05-19T07:29:57Z</time>
      </trkpt>
      <trkpt lat="47.527706" lon="2.0772367">
        <ele>160.0</ele>
        <time>2022-05-19T07:29:58Z</time>
      </trkpt>
      <trkpt lat="47.52771" lon="2.0772429">
        <ele>160.0</ele>
        <time>2022-05-19T07:29:59Z</time>
      </trkpt>
      <trkpt lat="47.527714" lon="2.0772545">
        <ele>160.0</ele>
        <time>2022-05-19T07:30:00Z</time>
      </trkpt>
      <trkpt lat="47.52772" lon="2.07727">
        <ele>160.0</ele>
        <time>2022-05-19T07:30:01Z</time>
      </trkpt>
      <trkpt lat="47.52773" lon="2.077288">
        <ele>159.0</ele>
        <time>2022-05-19T07:30:02Z</time>
      </trkpt>
      <trkpt lat="47.527737" lon="2.0773072">
        <ele>159.0</ele>
        <time>2022-05-19T07:30:03Z</time>
      </trkpt>
      <trkpt lat="47.527744" lon="2.0773225">
        <ele>159.0</ele>
        <time>2022-05-19T07:30:04Z</time>
      </trkpt>
      <trkpt lat="47.527752" lon="2.0773394">
        <ele>159.0</ele>
        <time>2022-05-19T07:30:05Z</time>
      </trkpt>
      <trkpt lat="47.52776" lon="2.0773535">
        <ele>159.0</ele>
        <time>2022-05-19T07:30:06Z</time>
      </trkpt>
      <trkpt lat="47.527763" lon="2.0773623">
        <ele>159.0</ele>
        <time>2022-05-19T07:30:07Z</time>
      </trkpt>
      <trkpt lat="47.52777" lon="2.07737">
        <ele>159.0</ele>
        <time>2022-05-19T07:30:08Z</time>
      </trkpt>
      <trkpt lat="47.52778" lon="2.0773852">
        <ele>159.0</ele>
        <time>2022-05-19T07:30:09Z</time>
      </trkpt>
      <trkpt lat="47.527782" lon="2.0774016">
        <ele>159.0</ele>
        <time>2022-05-19T07:30:10Z</time>
      </trkpt>
      <trkpt lat="47.52779" lon="2.0774138">
        <ele>159.0</ele>
        <time>2022-05-19T07:30:11Z</time>
      </trkpt>
      <trkpt lat="47.527794" lon="2.0774283">
        <ele>159.0</ele>
        <time>2022-05-19T07:30:12Z</time>
      </trkpt>
      <trkpt lat="47.527798" lon="2.0774498">
        <ele>159.0</ele>
        <time>2022-05-19T07:30:13Z</time>
      </trkpt>
      <trkpt lat="47.527805" lon="2.0774667">
        <ele>158.0</ele>
        <time>2022-05-19T07:30:14Z</time>
      </trkpt>
      <trkpt lat="47.527813" lon="2.077479">
        <ele>159.0</ele>
        <time>2022-05-19T07:30:15Z</time>
      </trkpt>
      <trkpt lat="47.52782" lon="2.0774887">
        <ele>159.0</ele>
        <time>2022-05-19T07:30:16Z</time>
      </trkpt>
      <trkpt lat="47.52783" lon="2.0775037">
        <ele>159.0</ele>
        <time>2022-05-19T07:30:17Z</time>
      </trkpt>
      <trkpt lat="47.527836" lon="2.077519">
        <ele>159.0</ele>
        <time>2022-05-19T07:30:18Z</time>
      </trkpt>
      <trkpt lat="47.52784" lon="2.0775323">
        <ele>158.0</ele>
        <time>2022-05-19T07:30:19Z</time>
      </trkpt>
      <trkpt lat="47.527847" lon="2.0775452">
        <ele>158.0</ele>
        <time>2022-05-19T07:30:20Z</time>
      </trkpt>
      <trkpt lat="47.527855" lon="2.0775573">
        <ele>158.0</ele>
        <time>2022-05-19T07:30:21Z</time>
      </trkpt>
      <trkpt lat="47.527866" lon="2.0775785">
        <ele>157.0</ele>
        <time>2022-05-19T07:30:22Z</time>
      </trkpt>
      <trkpt lat="47.52787" lon="2.077594">
        <ele>158.0</ele>
        <time>2022-05-19T07:30:23Z</time>
      </trkpt>
      <trkpt lat="47.527878" lon="2.07761">
        <ele>158.0</ele>
        <time>2022-05-19T07:30:24Z</time>
      </trkpt>
      <trkpt lat="47.52788" lon="2.0776248">
        <ele>158.0</ele>
        <time>2022-05-19T07:30:25Z</time>
      </trkpt>
      <trkpt lat="47.52789" lon="2.077639">
        <ele>158.0</ele>
        <time>2022-05-19T07:30:26Z</time>
      </trkpt>
      <trkpt lat="47.527897" lon="2.0776517">
        <ele>159.0</ele>
        <time>2022-05-19T07:30:27Z</time>
      </trkpt>
      <trkpt lat="47.5279" lon="2.0776656">
        <ele>159.0</ele>
        <time>2022-05-19T07:30:28Z</time>
      </trkpt>
      <trkpt lat="47.5279" lon="2.07767">
        <ele>159.0</ele>
        <time>2022-05-19T07:30:29Z</time>
      </trkpt>
      <trkpt lat="47.5279" lon="2.0776718">
        <ele>159.0</ele>
        <time>2022-05-19T07:30:30Z</time>
      </trkpt>
      <trkpt lat="47.527893" lon="2.0776794">
        <ele>158.0</ele>
        <time>2022-05-19T07:30:31Z</time>
      </trkpt>
      <trkpt lat="47.527893" lon="2.0776794">
        <ele>158.0</ele>
        <time>2022-05-19T07:30:32Z</time>
      </trkpt>
      <trkpt lat="47.527893" lon="2.0776794">
        <ele>158.0</ele>
        <time>2022-05-19T07:30:33Z</time>
      </trkpt>
      <trkpt lat="47.527893" lon="2.0776794">
        <ele>158.0</ele>
        <time>2022-05-19T07:30:34Z</time>
      </trkpt>
      <trkpt lat="47.527893" lon="2.0776794">
        <ele>158.0</ele>
        <time>2022-05-19T07:30:35Z</time>
      </trkpt>
      <trkpt lat="47.527893" lon="2.0776794">
        <ele>158.0</ele>
        <time>2022-05-19T07:30:35Z</time>
      </trkpt>
      <trkpt lat="47.527893" lon="2.0776794">
        <ele>158.0</ele>
        <time>2022-05-19T07:30:35Z</time>
      </trkpt>
      <trkpt lat="47.5279" lon="2.0777767">
        <ele>159.0</ele>
        <time>2022-05-19T07:31:48Z</time>
      </trkpt>
      <trkpt lat="47.527905" lon="2.0777922">
        <ele>159.0</ele>
        <time>2022-05-19T07:31:49Z</time>
      </trkpt>
      <trkpt lat="47.527916" lon="2.0778034">
        <ele>159.0</ele>
        <time>2022-05-19T07:31:50Z</time>
      </trkpt>
      <trkpt lat="47.527924" lon="2.0778117">
        <ele>159.0</ele>
        <time>2022-05-19T07:31:51Z</time>
      </trkpt>
      <trkpt lat="47.527927" lon="2.0778217">
        <ele>159.0</ele>
        <time>2022-05-19T07:31:52Z</time>
      </trkpt>
      <trkpt lat="47.52793" lon="2.0778322">
        <ele>159.0</ele>
        <time>2022-05-19T07:31:53Z</time>
      </trkpt>
      <trkpt lat="47.52794" lon="2.0778408">
        <ele>160.0</ele>
        <time>2022-05-19T07:31:54Z</time>
      </trkpt>
      <trkpt lat="47.527943" lon="2.0778549">
        <ele>160.0</ele>
        <time>2022-05-19T07:31:55Z</time>
      </trkpt>
      <trkpt lat="47.527943" lon="2.0778718">
        <ele>159.0</ele>
        <time>2022-05-19T07:31:56Z</time>
      </trkpt>
      <trkpt lat="47.527946" lon="2.077884">
        <ele>159.0</ele>
        <time>2022-05-19T07:31:57Z</time>
      </trkpt>
      <trkpt lat="47.527946" lon="2.077895">
        <ele>158.0</ele>
        <time>2022-05-19T07:31:58Z</time>
      </trkpt>
      <trkpt lat="47.52795" lon="2.0778997">
        <ele>156.0</ele>
        <time>2022-05-19T07:31:59Z</time>
      </trkpt>
      <trkpt lat="47.527958" lon="2.0779014">
        <ele>157.0</ele>
        <time>2022-05-19T07:32:00Z</time>
      </trkpt>
      <trkpt lat="47.527958" lon="2.0779014">
        <ele>157.0</ele>
        <time>2022-05-19T07:32:01Z</time>
      </trkpt>
      <trkpt lat="47.527958" lon="2.0779016">
        <ele>157.0</ele>
        <time>2022-05-19T07:32:02Z</time>
      </trkpt>
      <trkpt lat="47.527958" lon="2.0779016">
        <ele>157.0</ele>
        <time>2022-05-19T07:32:03Z</time>
      </trkpt>
      <trkpt lat="47.527958" lon="2.0779016">
        <ele>157.0</ele>
        <time>2022-05-19T07:32:03Z</time>
      </trkpt>
      <trkpt lat="47.527958" lon="2.0779016">
        <ele>157.0</ele>
        <time>2022-05-19T07:32:03Z</time>
      </trkpt>
      <trkpt lat="47.527985" lon="2.0779784">
        <ele>156.0</ele>
        <time>2022-05-19T07:32:10Z</time>
      </trkpt>
      <trkpt lat="47.527985" lon="2.0779936">
        <ele>157.0</ele>
        <time>2022-05-19T07:32:11Z</time>
      </trkpt>
      <trkpt lat="47.52799" lon="2.0780053">
        <ele>157.0</ele>
        <time>2022-05-19T07:32:12Z</time>
      </trkpt>
      <trkpt lat="47.527996" lon="2.0780206">
        <ele>157.0</ele>
        <time>2022-05-19T07:32:13Z</time>
      </trkpt>
      <trkpt lat="47.527996" lon="2.078041">
        <ele>157.0</ele>
        <time>2022-05-19T07:32:14Z</time>
      </trkpt>
      <trkpt lat="47.528004" lon="2.0780585">
        <ele>158.0</ele>
        <time>2022-05-19T07:32:15Z</time>
      </trkpt>
      <trkpt lat="47.528008" lon="2.0780728">
        <ele>158.0</ele>
        <time>2022-05-19T07:32:16Z</time>
      </trkpt>
      <trkpt lat="47.52801" lon="2.0780895">
        <ele>158.0</ele>
        <time>2022-05-19T07:32:17Z</time>
      </trkpt>
      <trkpt lat="47.52802" lon="2.0781057">
        <ele>158.0</ele>
        <time>2022-05-19T07:32:18Z</time>
      </trkpt>
      <trkpt lat="47.52802" lon="2.0781248">
        <ele>159.0</ele>
        <time>2022-05-19T07:32:19Z</time>
      </trkpt>
      <trkpt lat="47.528023" lon="2.0781455">
        <ele>158.0</ele>
        <time>2022-05-19T07:32:20Z</time>
      </trkpt>
      <trkpt lat="47.528023" lon="2.0781674">
        <ele>158.0</ele>
        <time>2022-05-19T07:32:21Z</time>
      </trkpt>
      <trkpt lat="47.528023" lon="2.0781872">
        <ele>159.0</ele>
        <time>2022-05-19T07:32:22Z</time>
      </trkpt>
      <trkpt lat="47.528027" lon="2.0782034">
        <ele>159.0</ele>
        <time>2022-05-19T07:32:23Z</time>
      </trkpt>
      <trkpt lat="47.528027" lon="2.0782237">
        <ele>159.0</ele>
        <time>2022-05-19T07:32:24Z</time>
      </trkpt>
      <trkpt lat="47.52803" lon="2.0782375">
        <ele>159.0</ele>
        <time>2022-05-19T07:32:25Z</time>
      </trkpt>
      <trkpt lat="47.528034" lon="2.0782485">
        <ele>160.0</ele>
        <time>2022-05-19T07:32:26Z</time>
      </trkpt>
      <trkpt lat="47.528034" lon="2.078268">
        <ele>160.0</ele>
        <time>2022-05-19T07:32:27Z</time>
      </trkpt>
      <trkpt lat="47.528034" lon="2.0782857">
        <ele>160.0</ele>
        <time>2022-05-19T07:32:28Z</time>
      </trkpt>
      <trkpt lat="47.528034" lon="2.0783052">
        <ele>160.0</ele>
        <time>2022-05-19T07:32:29Z</time>
      </trkpt>
      <trkpt lat="47.528038" lon="2.0783203">
        <ele>160.0</ele>
        <time>2022-05-19T07:32:30Z</time>
      </trkpt>
      <trkpt lat="47.528038" lon="2.0783377">
        <ele>161.0</ele>
        <time>2022-05-19T07:32:31Z</time>
      </trkpt>
      <trkpt lat="47.52804" lon="2.0783534">
        <ele>161.0</ele>
        <time>2022-05-19T07:32:32Z</time>
      </trkpt>
      <trkpt lat="47.528046" lon="2.0783722">
        <ele>161.0</ele>
        <time>2022-05-19T07:32:33Z</time>
      </trkpt>
      <trkpt lat="47.528046" lon="2.0783927">
        <ele>161.0</ele>
        <time>2022-05-19T07:32:34Z</time>
      </trkpt>
      <trkpt lat="47.528053" lon="2.0784113">
        <ele>161.0</ele>
        <time>2022-05-19T07:32:35Z</time>
      </trkpt>
      <trkpt lat="47.528057" lon="2.0784254">
        <ele>161.0</ele>
        <time>2022-05-19T07:32:36Z</time>
      </trkpt>
      <trkpt lat="47.52806" lon="2.078437">
        <ele>162.0</ele>
        <time>2022-05-19T07:32:37Z</time>
      </trkpt>
      <trkpt lat="47.528065" lon="2.078445">
        <ele>162.0</ele>
        <time>2022-05-19T07:32:38Z</time>
      </trkpt>
      <trkpt lat="47.528065" lon="2.0784545">
        <ele>162.0</ele>
        <time>2022-05-19T07:32:39Z</time>
      </trkpt>
      <trkpt lat="47.52807" lon="2.078465">
        <ele>163.0</ele>
        <time>2022-05-19T07:32:40Z</time>
      </trkpt>
      <trkpt lat="47.52807" lon="2.078472">
        <ele>164.0</ele>
        <time>2022-05-19T07:32:41Z</time>
      </trkpt>
      <trkpt lat="47.52807" lon="2.0784714">
        <ele>164.0</ele>
        <time>2022-05-19T07:32:42Z</time>
      </trkpt>
      <trkpt lat="47.52807" lon="2.0784714">
        <ele>164.0</ele>
        <time>2022-05-19T07:32:43Z</time>
      </trkpt>
      <trkpt lat="47.52807" lon="2.0784714">
        <ele>164.0</ele>
        <time>2022-05-19T07:32:44Z</time>
      </trkpt>
      <trkpt lat="47.52807" lon="2.0784714">
        <ele>164.0</ele>
        <time>2022-05-19T07:32:45Z</time>
      </trkpt>
      <trkpt lat="47.528084" lon="2.0784838">
        <ele>164.0</ele>
        <time>2022-05-19T07:32:46Z</time>
      </trkpt>
      <trkpt lat="47.528088" lon="2.078484">
        <ele>164.0</ele>
        <time>2022-05-19T07:32:47Z</time>
      </trkpt>
      <trkpt lat="47.528095" lon="2.0784876">
        <ele>165.0</ele>
        <time>2022-05-19T07:32:48Z</time>
      </trkpt>
      <trkpt lat="47.5281" lon="2.07849">
        <ele>165.0</ele>
        <time>2022-05-19T07:32:49Z</time>
      </trkpt>
      <trkpt lat="47.528103" lon="2.0784922">
        <ele>165.0</ele>
        <time>2022-05-19T07:32:50Z</time>
      </trkpt>
      <trkpt lat="47.528103" lon="2.0784922">
        <ele>165.0</ele>
        <time>2022-05-19T07:32:51Z</time>
      </trkpt>
      <trkpt lat="47.528103" lon="2.0784922">
        <ele>165.0</ele>
        <time>2022-05-19T07:32:52Z</time>
      </trkpt>
      <trkpt lat="47.528103" lon="2.0784922">
        <ele>165.0</ele>
        <time>2022-05-19T07:32:53Z</time>
      </trkpt>
      <trkpt lat="47.528103" lon="2.0784922">
        <ele>165.0</ele>
        <time>2022-05-19T07:32:54Z</time>
      </trkpt>
      <trkpt lat="47.528103" lon="2.0784922">
        <ele>165.0</ele>
        <time>2022-05-19T07:32:54Z</time>
      </trkpt>
      <trkpt lat="47.528103" lon="2.0784922">
        <ele>165.0</ele>
        <time>2022-05-19T07:32:54Z</time>
      </trkpt>
      <trkpt lat="47.52814" lon="2.0785084">
        <ele>163.0</ele>
        <time>2022-05-19T07:33:03Z</time>
      </trkpt>
      <trkpt lat="47.52815" lon="2.0785096">
        <ele>163.0</ele>
        <time>2022-05-19T07:33:04Z</time>
      </trkpt>
      <trkpt lat="47.528156" lon="2.0785093">
        <ele>163.0</ele>
        <time>2022-05-19T07:33:05Z</time>
      </trkpt>
      <trkpt lat="47.528164" lon="2.0785182">
        <ele>163.0</ele>
        <time>2022-05-19T07:33:06Z</time>
      </trkpt>
      <trkpt lat="47.528168" lon="2.0785346">
        <ele>163.0</ele>
        <time>2022-05-19T07:33:07Z</time>
      </trkpt>
      <trkpt lat="47.528175" lon="2.0785484">
        <ele>163.0</ele>
        <time>2022-05-19T07:33:08Z</time>
      </trkpt>
      <trkpt lat="47.528183" lon="2.0785573">
        <ele>163.0</ele>
        <time>2022-05-19T07:33:09Z</time>
      </trkpt>
      <trkpt lat="47.528187" lon="2.0785615">
        <ele>162.0</ele>
        <time>2022-05-19T07:33:10Z</time>
      </trkpt>
      <trkpt lat="47.5282" lon="2.0785635">
        <ele>162.0</ele>
        <time>2022-05-19T07:33:11Z</time>
      </trkpt>
      <trkpt lat="47.52821" lon="2.0785728">
        <ele>162.0</ele>
        <time>2022-05-19T07:33:12Z</time>
      </trkpt>
      <trkpt lat="47.528217" lon="2.0785844">
        <ele>162.0</ele>
        <time>2022-05-19T07:33:13Z</time>
      </trkpt>
      <trkpt lat="47.52822" lon="2.0785954">
        <ele>162.0</ele>
        <time>2022-05-19T07:33:14Z</time>
      </trkpt>
      <trkpt lat="47.52823" lon="2.0786068">
        <ele>163.0</ele>
        <time>2022-05-19T07:33:15Z</time>
      </trkpt>
      <trkpt lat="47.528236" lon="2.0786219">
        <ele>163.0</ele>
        <time>2022-05-19T07:33:16Z</time>
      </trkpt>
      <trkpt lat="47.52824" lon="2.0786362">
        <ele>163.0</ele>
        <time>2022-05-19T07:33:17Z</time>
      </trkpt>
      <trkpt lat="47.52824" lon="2.078649">
        <ele>164.0</ele>
        <time>2022-05-19T07:33:18Z</time>
      </trkpt>
      <trkpt lat="47.52824" lon="2.0786622">
        <ele>164.0</ele>
        <time>2022-05-19T07:33:19Z</time>
      </trkpt>
      <trkpt lat="47.52824" lon="2.078679">
        <ele>164.0</ele>
        <time>2022-05-19T07:33:20Z</time>
      </trkpt>
      <trkpt lat="47.528236" lon="2.078696">
        <ele>164.0</ele>
        <time>2022-05-19T07:33:21Z</time>
      </trkpt>
      <trkpt lat="47.528236" lon="2.078712">
        <ele>164.0</ele>
        <time>2022-05-19T07:33:22Z</time>
      </trkpt>
      <trkpt lat="47.528236" lon="2.0787265">
        <ele>164.0</ele>
        <time>2022-05-19T07:33:23Z</time>
      </trkpt>
      <trkpt lat="47.528236" lon="2.0787413">
        <ele>164.0</ele>
        <time>2022-05-19T07:33:24Z</time>
      </trkpt>
      <trkpt lat="47.528236" lon="2.0787556">
        <ele>165.0</ele>
        <time>2022-05-19T07:33:25Z</time>
      </trkpt>
      <trkpt lat="47.528233" lon="2.078771">
        <ele>165.0</ele>
        <time>2022-05-19T07:33:26Z</time>
      </trkpt>
      <trkpt lat="47.528233" lon="2.0787902">
        <ele>165.0</ele>
        <time>2022-05-19T07:33:27Z</time>
      </trkpt>
      <trkpt lat="47.528233" lon="2.0788033">
        <ele>166.0</ele>
        <time>2022-05-19T07:33:28Z</time>
      </trkpt>
      <trkpt lat="47.528233" lon="2.0788176">
        <ele>166.0</ele>
        <time>2022-05-19T07:33:29Z</time>
      </trkpt>
      <trkpt lat="47.52823" lon="2.0788379">
        <ele>166.0</ele>
        <time>2022-05-19T07:33:30Z</time>
      </trkpt>
      <trkpt lat="47.52823" lon="2.0788589">
        <ele>166.0</ele>
        <time>2022-05-19T07:33:31Z</time>
      </trkpt>
      <trkpt lat="47.52823" lon="2.0788763">
        <ele>166.0</ele>
        <time>2022-05-19T07:33:32Z</time>
      </trkpt>
      <trkpt lat="47.528225" lon="2.0788925">
        <ele>166.0</ele>
        <time>2022-05-19T07:33:33Z</time>
      </trkpt>
      <trkpt lat="47.528225" lon="2.0789082">
        <ele>166.0</ele>
        <time>2022-05-19T07:33:34Z</time>
      </trkpt>
      <trkpt lat="47.52822" lon="2.0789235">
        <ele>166.0</ele>
        <time>2022-05-19T07:33:35Z</time>
      </trkpt>
      <trkpt lat="47.528217" lon="2.0789351">
        <ele>167.0</ele>
        <time>2022-05-19T07:33:36Z</time>
      </trkpt>
      <trkpt lat="47.528214" lon="2.0789478">
        <ele>168.0</ele>
        <time>2022-05-19T07:33:37Z</time>
      </trkpt>
      <trkpt lat="47.52821" lon="2.078958">
        <ele>168.0</ele>
        <time>2022-05-19T07:33:38Z</time>
      </trkpt>
      <trkpt lat="47.52821" lon="2.0789704">
        <ele>168.0</ele>
        <time>2022-05-19T07:33:39Z</time>
      </trkpt>
      <trkpt lat="47.52821" lon="2.0789857">
        <ele>168.0</ele>
        <time>2022-05-19T07:33:40Z</time>
      </trkpt>
      <trkpt lat="47.52821" lon="2.0789995">
        <ele>168.0</ele>
        <time>2022-05-19T07:33:41Z</time>
      </trkpt>
      <trkpt lat="47.52821" lon="2.0790052">
        <ele>169.0</ele>
        <time>2022-05-19T07:33:42Z</time>
      </trkpt>
      <trkpt lat="47.52821" lon="2.079017">
        <ele>168.0</ele>
        <time>2022-05-19T07:33:43Z</time>
      </trkpt>
      <trkpt lat="47.528206" lon="2.079033">
        <ele>168.0</ele>
        <time>2022-05-19T07:33:44Z</time>
      </trkpt>
      <trkpt lat="47.528202" lon="2.0790455">
        <ele>168.0</ele>
        <time>2022-05-19T07:33:45Z</time>
      </trkpt>
      <trkpt lat="47.528202" lon="2.0790617">
        <ele>168.0</ele>
        <time>2022-05-19T07:33:46Z</time>
      </trkpt>
      <trkpt lat="47.5282" lon="2.0790756">
        <ele>168.0</ele>
        <time>2022-05-19T07:33:47Z</time>
      </trkpt>
      <trkpt lat="47.528194" lon="2.0790892">
        <ele>169.0</ele>
        <time>2022-05-19T07:33:48Z</time>
      </trkpt>
      <trkpt lat="47.52819" lon="2.0790997">
        <ele>169.0</ele>
        <time>2022-05-19T07:33:49Z</time>
      </trkpt>
      <trkpt lat="47.528187" lon="2.079109">
        <ele>170.0</ele>
        <time>2022-05-19T07:33:50Z</time>
      </trkpt>
      <trkpt lat="47.528183" lon="2.079122">
        <ele>170.0</ele>
        <time>2022-05-19T07:33:51Z</time>
      </trkpt>
      <trkpt lat="47.528183" lon="2.079136">
        <ele>170.0</ele>
        <time>2022-05-19T07:33:52Z</time>
      </trkpt>
      <trkpt lat="47.528183" lon="2.0791452">
        <ele>170.0</ele>
        <time>2022-05-19T07:33:53Z</time>
      </trkpt>
      <trkpt lat="47.52818" lon="2.0791574">
        <ele>170.0</ele>
        <time>2022-05-19T07:33:54Z</time>
      </trkpt>
      <trkpt lat="47.52818" lon="2.079169">
        <ele>170.0</ele>
        <time>2022-05-19T07:33:55Z</time>
      </trkpt>
      <trkpt lat="47.528175" lon="2.0791829">
        <ele>170.0</ele>
        <time>2022-05-19T07:33:56Z</time>
      </trkpt>
      <trkpt lat="47.52817" lon="2.0792003">
        <ele>170.0</ele>
        <time>2022-05-19T07:33:57Z</time>
      </trkpt>
      <trkpt lat="47.52817" lon="2.079218">
        <ele>171.0</ele>
        <time>2022-05-19T07:33:58Z</time>
      </trkpt>
      <trkpt lat="47.52817" lon="2.079237">
        <ele>171.0</ele>
        <time>2022-05-19T07:33:59Z</time>
      </trkpt>
      <trkpt lat="47.528168" lon="2.0792549">
        <ele>171.0</ele>
        <time>2022-05-19T07:34:00Z</time>
      </trkpt>
      <trkpt lat="47.528168" lon="2.0792701">
        <ele>171.0</ele>
        <time>2022-05-19T07:34:01Z</time>
      </trkpt>
      <trkpt lat="47.528164" lon="2.0792863">
        <ele>171.0</ele>
        <time>2022-05-19T07:34:02Z</time>
      </trkpt>
      <trkpt lat="47.52816" lon="2.079299">
        <ele>171.0</ele>
        <time>2022-05-19T07:34:03Z</time>
      </trkpt>
      <trkpt lat="47.528152" lon="2.0793092">
        <ele>171.0</ele>
        <time>2022-05-19T07:34:04Z</time>
      </trkpt>
      <trkpt lat="47.528145" lon="2.0793238">
        <ele>170.0</ele>
        <time>2022-05-19T07:34:05Z</time>
      </trkpt>
      <trkpt lat="47.528145" lon="2.0793378">
        <ele>170.0</ele>
        <time>2022-05-19T07:34:06Z</time>
      </trkpt>
      <trkpt lat="47.528145" lon="2.0793517">
        <ele>171.0</ele>
        <time>2022-05-19T07:34:07Z</time>
      </trkpt>
      <trkpt lat="47.52814" lon="2.0793679">
        <ele>171.0</ele>
        <time>2022-05-19T07:34:08Z</time>
      </trkpt>
      <trkpt lat="47.528137" lon="2.0793834">
        <ele>171.0</ele>
        <time>2022-05-19T07:34:09Z</time>
      </trkpt>
      <trkpt lat="47.528133" lon="2.0794003">
        <ele>172.0</ele>
        <time>2022-05-19T07:34:10Z</time>
      </trkpt>
      <trkpt lat="47.52813" lon="2.0794187">
        <ele>172.0</ele>
        <time>2022-05-19T07:34:11Z</time>
      </trkpt>
      <trkpt lat="47.52813" lon="2.0794363">
        <ele>172.0</ele>
        <time>2022-05-19T07:34:12Z</time>
      </trkpt>
      <trkpt lat="47.52813" lon="2.0794525">
        <ele>172.0</ele>
        <time>2022-05-19T07:34:13Z</time>
      </trkpt>
      <trkpt lat="47.528122" lon="2.079466">
        <ele>173.0</ele>
        <time>2022-05-19T07:34:14Z</time>
      </trkpt>
      <trkpt lat="47.528122" lon="2.079478">
        <ele>172.0</ele>
        <time>2022-05-19T07:34:15Z</time>
      </trkpt>
      <trkpt lat="47.52812" lon="2.0794916">
        <ele>172.0</ele>
        <time>2022-05-19T07:34:16Z</time>
      </trkpt>
      <trkpt lat="47.528114" lon="2.0795088">
        <ele>172.0</ele>
        <time>2022-05-19T07:34:17Z</time>
      </trkpt>
      <trkpt lat="47.52811" lon="2.0795243">
        <ele>173.0</ele>
        <time>2022-05-19T07:34:18Z</time>
      </trkpt>
      <trkpt lat="47.52811" lon="2.0795426">
        <ele>173.0</ele>
        <time>2022-05-19T07:34:19Z</time>
      </trkpt>
      <trkpt lat="47.528107" lon="2.079566">
        <ele>173.0</ele>
        <time>2022-05-19T07:34:20Z</time>
      </trkpt>
      <trkpt lat="47.528103" lon="2.0795867">
        <ele>173.0</ele>
        <time>2022-05-19T07:34:21Z</time>
      </trkpt>
      <trkpt lat="47.528095" lon="2.0795994">
        <ele>174.0</ele>
        <time>2022-05-19T07:34:22Z</time>
      </trkpt>
      <trkpt lat="47.52809" lon="2.079612">
        <ele>174.0</ele>
        <time>2022-05-19T07:34:23Z</time>
      </trkpt>
      <trkpt lat="47.528088" lon="2.0796268">
        <ele>174.0</ele>
        <time>2022-05-19T07:34:24Z</time>
      </trkpt>
      <trkpt lat="47.528084" lon="2.0796354">
        <ele>174.0</ele>
        <time>2022-05-19T07:34:25Z</time>
      </trkpt>
      <trkpt lat="47.52808" lon="2.0796473">
        <ele>174.0</ele>
        <time>2022-05-19T07:34:26Z</time>
      </trkpt>
      <trkpt lat="47.528076" lon="2.0796683">
        <ele>174.0</ele>
        <time>2022-05-19T07:34:27Z</time>
      </trkpt>
      <trkpt lat="47.52807" lon="2.079687">
        <ele>175.0</ele>
        <time>2022-05-19T07:34:28Z</time>
      </trkpt>
      <trkpt lat="47.528065" lon="2.0797117">
        <ele>175.0</ele>
        <time>2022-05-19T07:34:29Z</time>
      </trkpt>
      <trkpt lat="47.52806" lon="2.0797303">
        <ele>175.0</ele>
        <time>2022-05-19T07:34:30Z</time>
      </trkpt>
      <trkpt lat="47.528057" lon="2.0797503">
        <ele>176.0</ele>
        <time>2022-05-19T07:34:31Z</time>
      </trkpt>
      <trkpt lat="47.528053" lon="2.0797668">
        <ele>176.0</ele>
        <time>2022-05-19T07:34:32Z</time>
      </trkpt>
      <trkpt lat="47.528046" lon="2.0797844">
        <ele>175.0</ele>
        <time>2022-05-19T07:34:33Z</time>
      </trkpt>
      <trkpt lat="47.528038" lon="2.0798054">
        <ele>176.0</ele>
        <time>2022-05-19T07:34:34Z</time>
      </trkpt>
      <trkpt lat="47.52803" lon="2.079824">
        <ele>176.0</ele>
        <time>2022-05-19T07:34:35Z</time>
      </trkpt>
      <trkpt lat="47.528027" lon="2.0798407">
        <ele>176.0</ele>
        <time>2022-05-19T07:34:36Z</time>
      </trkpt>
      <trkpt lat="47.528027" lon="2.079856">
        <ele>176.0</ele>
        <time>2022-05-19T07:34:37Z</time>
      </trkpt>
      <trkpt lat="47.52802" lon="2.0798686">
        <ele>176.0</ele>
        <time>2022-05-19T07:34:38Z</time>
      </trkpt>
      <trkpt lat="47.528015" lon="2.0798802">
        <ele>176.0</ele>
        <time>2022-05-19T07:34:39Z</time>
      </trkpt>
      <trkpt lat="47.528008" lon="2.0798922">
        <ele>176.0</ele>
        <time>2022-05-19T07:34:40Z</time>
      </trkpt>
      <trkpt lat="47.528004" lon="2.079904">
        <ele>175.0</ele>
        <time>2022-05-19T07:34:41Z</time>
      </trkpt>
      <trkpt lat="47.528" lon="2.0799174">
        <ele>175.0</ele>
        <time>2022-05-19T07:34:42Z</time>
      </trkpt>
      <trkpt lat="47.527996" lon="2.079933">
        <ele>175.0</ele>
        <time>2022-05-19T07:34:43Z</time>
      </trkpt>
      <trkpt lat="47.527992" lon="2.079949">
        <ele>175.0</ele>
        <time>2022-05-19T07:34:44Z</time>
      </trkpt>
      <trkpt lat="47.527992" lon="2.0799687">
        <ele>175.0</ele>
        <time>2022-05-19T07:34:45Z</time>
      </trkpt>
      <trkpt lat="47.52799" lon="2.0799894">
        <ele>175.0</ele>
        <time>2022-05-19T07:34:46Z</time>
      </trkpt>
      <trkpt lat="47.52799" lon="2.0800078">
        <ele>174.0</ele>
        <time>2022-05-19T07:34:47Z</time>
      </trkpt>
      <trkpt lat="47.52799" lon="2.08002">
        <ele>174.0</ele>
        <time>2022-05-19T07:34:48Z</time>
      </trkpt>
      <trkpt lat="47.52799" lon="2.080033">
        <ele>174.0</ele>
        <time>2022-05-19T07:34:49Z</time>
      </trkpt>
      <trkpt lat="47.527985" lon="2.080049">
        <ele>174.0</ele>
        <time>2022-05-19T07:34:50Z</time>
      </trkpt>
      <trkpt lat="47.527985" lon="2.080066">
        <ele>174.0</ele>
        <time>2022-05-19T07:34:51Z</time>
      </trkpt>
      <trkpt lat="47.527977" lon="2.0800827">
        <ele>174.0</ele>
        <time>2022-05-19T07:34:52Z</time>
      </trkpt>
      <trkpt lat="47.527977" lon="2.0801003">
        <ele>174.0</ele>
        <time>2022-05-19T07:34:53Z</time>
      </trkpt>
      <trkpt lat="47.52797" lon="2.0801191">
        <ele>174.0</ele>
        <time>2022-05-19T07:34:54Z</time>
      </trkpt>
      <trkpt lat="47.527966" lon="2.0801368">
        <ele>173.0</ele>
        <time>2022-05-19T07:34:55Z</time>
      </trkpt>
      <trkpt lat="47.527954" lon="2.0801554">
        <ele>173.0</ele>
        <time>2022-05-19T07:34:56Z</time>
      </trkpt>
      <trkpt lat="47.527946" lon="2.0801694">
        <ele>173.0</ele>
        <time>2022-05-19T07:34:57Z</time>
      </trkpt>
      <trkpt lat="47.527943" lon="2.0801842">
        <ele>174.0</ele>
        <time>2022-05-19T07:34:58Z</time>
      </trkpt>
      <trkpt lat="47.52793" lon="2.0802042">
        <ele>174.0</ele>
        <time>2022-05-19T07:34:59Z</time>
      </trkpt>
      <trkpt lat="47.527924" lon="2.0802205">
        <ele>174.0</ele>
        <time>2022-05-19T07:35:00Z</time>
      </trkpt>
      <trkpt lat="47.52792" lon="2.0802295">
        <ele>174.0</ele>
        <time>2022-05-19T07:35:01Z</time>
      </trkpt>
      <trkpt lat="47.52792" lon="2.080238">
        <ele>173.0</ele>
        <time>2022-05-19T07:35:02Z</time>
      </trkpt>
      <trkpt lat="47.527916" lon="2.0802476">
        <ele>173.0</ele>
        <time>2022-05-19T07:35:03Z</time>
      </trkpt>
      <trkpt lat="47.527916" lon="2.0802624">
        <ele>172.0</ele>
        <time>2022-05-19T07:35:04Z</time>
      </trkpt>
      <trkpt lat="47.527912" lon="2.0802817">
        <ele>172.0</ele>
        <time>2022-05-19T07:35:05Z</time>
      </trkpt>
      <trkpt lat="47.52791" lon="2.0803008">
        <ele>171.0</ele>
        <time>2022-05-19T07:35:06Z</time>
      </trkpt>
      <trkpt lat="47.527905" lon="2.0803232">
        <ele>172.0</ele>
        <time>2022-05-19T07:35:07Z</time>
      </trkpt>
      <trkpt lat="47.527905" lon="2.0803466">
        <ele>171.0</ele>
        <time>2022-05-19T07:35:08Z</time>
      </trkpt>
      <trkpt lat="47.527897" lon="2.080367">
        <ele>171.0</ele>
        <time>2022-05-19T07:35:09Z</time>
      </trkpt>
      <trkpt lat="47.52789" lon="2.0803823">
        <ele>172.0</ele>
        <time>2022-05-19T07:35:10Z</time>
      </trkpt>
      <trkpt lat="47.52789" lon="2.080399">
        <ele>171.0</ele>
        <time>2022-05-19T07:35:11Z</time>
      </trkpt>
      <trkpt lat="47.527885" lon="2.0804176">
        <ele>171.0</ele>
        <time>2022-05-19T07:35:12Z</time>
      </trkpt>
      <trkpt lat="47.52788" lon="2.0804322">
        <ele>171.0</ele>
        <time>2022-05-19T07:35:13Z</time>
      </trkpt>
      <trkpt lat="47.527878" lon="2.0804474">
        <ele>171.0</ele>
        <time>2022-05-19T07:35:14Z</time>
      </trkpt>
      <trkpt lat="47.527866" lon="2.0804641">
        <ele>171.0</ele>
        <time>2022-05-19T07:35:15Z</time>
      </trkpt>
      <trkpt lat="47.52786" lon="2.0804794">
        <ele>171.0</ele>
        <time>2022-05-19T07:35:16Z</time>
      </trkpt>
      <trkpt lat="47.527855" lon="2.0804965">
        <ele>171.0</ele>
        <time>2022-05-19T07:35:17Z</time>
      </trkpt>
      <trkpt lat="47.52785" lon="2.0805142">
        <ele>171.0</ele>
        <time>2022-05-19T07:35:18Z</time>
      </trkpt>
      <trkpt lat="47.527847" lon="2.0805314">
        <ele>170.0</ele>
        <time>2022-05-19T07:35:19Z</time>
      </trkpt>
      <trkpt lat="47.527843" lon="2.0805502">
        <ele>171.0</ele>
        <time>2022-05-19T07:35:20Z</time>
      </trkpt>
      <trkpt lat="47.52784" lon="2.0805705">
        <ele>170.0</ele>
        <time>2022-05-19T07:35:21Z</time>
      </trkpt>
      <trkpt lat="47.527836" lon="2.0805945">
        <ele>170.0</ele>
        <time>2022-05-19T07:35:22Z</time>
      </trkpt>
      <trkpt lat="47.527832" lon="2.080614">
        <ele>170.0</ele>
        <time>2022-05-19T07:35:23Z</time>
      </trkpt>
      <trkpt lat="47.527832" lon="2.080632">
        <ele>170.0</ele>
        <time>2022-05-19T07:35:24Z</time>
      </trkpt>
      <trkpt lat="47.527824" lon="2.0806499">
        <ele>170.0</ele>
        <time>2022-05-19T07:35:25Z</time>
      </trkpt>
      <trkpt lat="47.527824" lon="2.0806694">
        <ele>170.0</ele>
        <time>2022-05-19T07:35:26Z</time>
      </trkpt>
      <trkpt lat="47.52782" lon="2.0806859">
        <ele>170.0</ele>
        <time>2022-05-19T07:35:27Z</time>
      </trkpt>
      <trkpt lat="47.527817" lon="2.080703">
        <ele>170.0</ele>
        <time>2022-05-19T07:35:28Z</time>
      </trkpt>
      <trkpt lat="47.527813" lon="2.0807195">
        <ele>169.0</ele>
        <time>2022-05-19T07:35:29Z</time>
      </trkpt>
      <trkpt lat="47.527805" lon="2.0807357">
        <ele>169.0</ele>
        <time>2022-05-19T07:35:30Z</time>
      </trkpt>
      <trkpt lat="47.5278" lon="2.0807538">
        <ele>169.0</ele>
        <time>2022-05-19T07:35:31Z</time>
      </trkpt>
      <trkpt lat="47.527798" lon="2.0807705">
        <ele>169.0</ele>
        <time>2022-05-19T07:35:32Z</time>
      </trkpt>
      <trkpt lat="47.527794" lon="2.0807874">
        <ele>169.0</ele>
        <time>2022-05-19T07:35:33Z</time>
      </trkpt>
      <trkpt lat="47.52779" lon="2.0808032">
        <ele>169.0</ele>
        <time>2022-05-19T07:35:34Z</time>
      </trkpt>
      <trkpt lat="47.527782" lon="2.08082">
        <ele>169.0</ele>
        <time>2022-05-19T07:35:35Z</time>
      </trkpt>
      <trkpt lat="47.52778" lon="2.080833">
        <ele>168.0</ele>
        <time>2022-05-19T07:35:36Z</time>
      </trkpt>
      <trkpt lat="47.527775" lon="2.0808485">
        <ele>168.0</ele>
        <time>2022-05-19T07:35:37Z</time>
      </trkpt>
      <trkpt lat="47.52777" lon="2.0808654">
        <ele>169.0</ele>
        <time>2022-05-19T07:35:38Z</time>
      </trkpt>
      <trkpt lat="47.527767" lon="2.0808828">
        <ele>169.0</ele>
        <time>2022-05-19T07:35:39Z</time>
      </trkpt>
      <trkpt lat="47.52776" lon="2.0809004">
        <ele>169.0</ele>
        <time>2022-05-19T07:35:40Z</time>
      </trkpt>
      <trkpt lat="47.527756" lon="2.0809171">
        <ele>169.0</ele>
        <time>2022-05-19T07:35:41Z</time>
      </trkpt>
      <trkpt lat="47.52775" lon="2.0809343">
        <ele>169.0</ele>
        <time>2022-05-19T07:35:42Z</time>
      </trkpt>
      <trkpt lat="47.52775" lon="2.0809505">
        <ele>169.0</ele>
        <time>2022-05-19T07:35:43Z</time>
      </trkpt>
      <trkpt lat="47.52774" lon="2.0809689">
        <ele>169.0</ele>
        <time>2022-05-19T07:35:44Z</time>
      </trkpt>
      <trkpt lat="47.52774" lon="2.0809898">
        <ele>169.0</ele>
        <time>2022-05-19T07:35:45Z</time>
      </trkpt>
      <trkpt lat="47.527737" lon="2.0810075">
        <ele>169.0</ele>
        <time>2022-05-19T07:35:46Z</time>
      </trkpt>
      <trkpt lat="47.527733" lon="2.0810246">
        <ele>170.0</ele>
        <time>2022-05-19T07:35:47Z</time>
      </trkpt>
      <trkpt lat="47.52773" lon="2.0810409">
        <ele>170.0</ele>
        <time>2022-05-19T07:35:48Z</time>
      </trkpt>
      <trkpt lat="47.527725" lon="2.0810606">
        <ele>170.0</ele>
        <time>2022-05-19T07:35:49Z</time>
      </trkpt>
      <trkpt lat="47.527725" lon="2.081078">
        <ele>169.0</ele>
        <time>2022-05-19T07:35:50Z</time>
      </trkpt>
      <trkpt lat="47.52772" lon="2.081095">
        <ele>169.0</ele>
        <time>2022-05-19T07:35:51Z</time>
      </trkpt>
      <trkpt lat="47.52772" lon="2.0811117">
        <ele>169.0</ele>
        <time>2022-05-19T07:35:52Z</time>
      </trkpt>
      <trkpt lat="47.527714" lon="2.0811255">
        <ele>169.0</ele>
        <time>2022-05-19T07:35:53Z</time>
      </trkpt>
      <trkpt lat="47.527706" lon="2.0811415">
        <ele>169.0</ele>
        <time>2022-05-19T07:35:54Z</time>
      </trkpt>
      <trkpt lat="47.527702" lon="2.0811572">
        <ele>169.0</ele>
        <time>2022-05-19T07:35:55Z</time>
      </trkpt>
      <trkpt lat="47.527695" lon="2.081174">
        <ele>169.0</ele>
        <time>2022-05-19T07:35:56Z</time>
      </trkpt>
      <trkpt lat="47.52769" lon="2.0811915">
        <ele>168.0</ele>
        <time>2022-05-19T07:35:57Z</time>
      </trkpt>
      <trkpt lat="47.527687" lon="2.081207">
        <ele>168.0</ele>
        <time>2022-05-19T07:35:58Z</time>
      </trkpt>
      <trkpt lat="47.52768" lon="2.0812216">
        <ele>169.0</ele>
        <time>2022-05-19T07:35:59Z</time>
      </trkpt>
      <trkpt lat="47.527676" lon="2.0812387">
        <ele>169.0</ele>
        <time>2022-05-19T07:36:00Z</time>
      </trkpt>
      <trkpt lat="47.527668" lon="2.0812566">
        <ele>169.0</ele>
        <time>2022-05-19T07:36:01Z</time>
      </trkpt>
      <trkpt lat="47.527664" lon="2.0812728">
        <ele>169.0</ele>
        <time>2022-05-19T07:36:02Z</time>
      </trkpt>
      <trkpt lat="47.527664" lon="2.0812888">
        <ele>169.0</ele>
        <time>2022-05-19T07:36:03Z</time>
      </trkpt>
      <trkpt lat="47.52766" lon="2.0813046">
        <ele>169.0</ele>
        <time>2022-05-19T07:36:04Z</time>
      </trkpt>
      <trkpt lat="47.527657" lon="2.081318">
        <ele>169.0</ele>
        <time>2022-05-19T07:36:05Z</time>
      </trkpt>
      <trkpt lat="47.527657" lon="2.0813367">
        <ele>169.0</ele>
        <time>2022-05-19T07:36:06Z</time>
      </trkpt>
      <trkpt lat="47.527653" lon="2.0813515">
        <ele>169.0</ele>
        <time>2022-05-19T07:36:07Z</time>
      </trkpt>
      <trkpt lat="47.52765" lon="2.0813682">
        <ele>169.0</ele>
        <time>2022-05-19T07:36:08Z</time>
      </trkpt>
      <trkpt lat="47.527645" lon="2.0813842">
        <ele>169.0</ele>
        <time>2022-05-19T07:36:09Z</time>
      </trkpt>
      <trkpt lat="47.52764" lon="2.0814016">
        <ele>169.0</ele>
        <time>2022-05-19T07:36:10Z</time>
      </trkpt>
      <trkpt lat="47.527637" lon="2.081417">
        <ele>169.0</ele>
        <time>2022-05-19T07:36:11Z</time>
      </trkpt>
      <trkpt lat="47.52763" lon="2.0814342">
        <ele>169.0</ele>
        <time>2022-05-19T07:36:12Z</time>
      </trkpt>
      <trkpt lat="47.527626" lon="2.0814514">
        <ele>168.0</ele>
        <time>2022-05-19T07:36:13Z</time>
      </trkpt>
      <trkpt lat="47.527622" lon="2.0814688">
        <ele>168.0</ele>
        <time>2022-05-19T07:36:14Z</time>
      </trkpt>
      <trkpt lat="47.52762" lon="2.081486">
        <ele>168.0</ele>
        <time>2022-05-19T07:36:15Z</time>
      </trkpt>
      <trkpt lat="47.52762" lon="2.0815043">
        <ele>168.0</ele>
        <time>2022-05-19T07:36:16Z</time>
      </trkpt>
      <trkpt lat="47.52761" lon="2.0815206">
        <ele>168.0</ele>
        <time>2022-05-19T07:36:17Z</time>
      </trkpt>
      <trkpt lat="47.527607" lon="2.081535">
        <ele>168.0</ele>
        <time>2022-05-19T07:36:18Z</time>
      </trkpt>
      <trkpt lat="47.527603" lon="2.0815506">
        <ele>168.0</ele>
        <time>2022-05-19T07:36:19Z</time>
      </trkpt>
      <trkpt lat="47.5276" lon="2.0815713">
        <ele>168.0</ele>
        <time>2022-05-19T07:36:20Z</time>
      </trkpt>
      <trkpt lat="47.5276" lon="2.0815911">
        <ele>167.0</ele>
        <time>2022-05-19T07:36:21Z</time>
      </trkpt>
      <trkpt lat="47.5276" lon="2.0816088">
        <ele>168.0</ele>
        <time>2022-05-19T07:36:22Z</time>
      </trkpt>
      <trkpt lat="47.527596" lon="2.0816252">
        <ele>168.0</ele>
        <time>2022-05-19T07:36:23Z</time>
      </trkpt>
      <trkpt lat="47.52759" lon="2.0816407">
        <ele>168.0</ele>
        <time>2022-05-19T07:36:24Z</time>
      </trkpt>
      <trkpt lat="47.527588" lon="2.081657">
        <ele>168.0</ele>
        <time>2022-05-19T07:36:25Z</time>
      </trkpt>
      <trkpt lat="47.527588" lon="2.0816739">
        <ele>168.0</ele>
        <time>2022-05-19T07:36:26Z</time>
      </trkpt>
      <trkpt lat="47.527584" lon="2.0816884">
        <ele>168.0</ele>
        <time>2022-05-19T07:36:27Z</time>
      </trkpt>
      <trkpt lat="47.52758" lon="2.0817091">
        <ele>168.0</ele>
        <time>2022-05-19T07:36:28Z</time>
      </trkpt>
      <trkpt lat="47.527576" lon="2.0817244">
        <ele>168.0</ele>
        <time>2022-05-19T07:36:29Z</time>
      </trkpt>
      <trkpt lat="47.52757" lon="2.0817366">
        <ele>167.0</ele>
        <time>2022-05-19T07:36:30Z</time>
      </trkpt>
      <trkpt lat="47.527565" lon="2.0817556">
        <ele>167.0</ele>
        <time>2022-05-19T07:36:31Z</time>
      </trkpt>
      <trkpt lat="47.52756" lon="2.0817714">
        <ele>167.0</ele>
        <time>2022-05-19T07:36:32Z</time>
      </trkpt>
      <trkpt lat="47.527557" lon="2.0817857">
        <ele>167.0</ele>
        <time>2022-05-19T07:36:33Z</time>
      </trkpt>
      <trkpt lat="47.52755" lon="2.0818028">
        <ele>168.0</ele>
        <time>2022-05-19T07:36:34Z</time>
      </trkpt>
      <trkpt lat="47.52755" lon="2.0818202">
        <ele>167.0</ele>
        <time>2022-05-19T07:36:35Z</time>
      </trkpt>
      <trkpt lat="47.527542" lon="2.0818355">
        <ele>167.0</ele>
        <time>2022-05-19T07:36:36Z</time>
      </trkpt>
      <trkpt lat="47.52754" lon="2.0818527">
        <ele>167.0</ele>
        <time>2022-05-19T07:36:37Z</time>
      </trkpt>
      <trkpt lat="47.527534" lon="2.0818703">
        <ele>167.0</ele>
        <time>2022-05-19T07:36:38Z</time>
      </trkpt>
      <trkpt lat="47.527534" lon="2.0818872">
        <ele>167.0</ele>
        <time>2022-05-19T07:36:39Z</time>
      </trkpt>
      <trkpt lat="47.52753" lon="2.0819042">
        <ele>167.0</ele>
        <time>2022-05-19T07:36:40Z</time>
      </trkpt>
      <trkpt lat="47.527523" lon="2.0819185">
        <ele>167.0</ele>
        <time>2022-05-19T07:36:41Z</time>
      </trkpt>
      <trkpt lat="47.52752" lon="2.0819337">
        <ele>167.0</ele>
        <time>2022-05-19T07:36:42Z</time>
      </trkpt>
      <trkpt lat="47.527515" lon="2.0819495">
        <ele>167.0</ele>
        <time>2022-05-19T07:36:43Z</time>
      </trkpt>
      <trkpt lat="47.527515" lon="2.0819669">
        <ele>168.0</ele>
        <time>2022-05-19T07:36:44Z</time>
      </trkpt>
      <trkpt lat="47.52751" lon="2.081984">
        <ele>168.0</ele>
        <time>2022-05-19T07:36:45Z</time>
      </trkpt>
      <trkpt lat="47.527504" lon="2.0820007">
        <ele>168.0</ele>
        <time>2022-05-19T07:36:46Z</time>
      </trkpt>
      <trkpt lat="47.527504" lon="2.0820184">
        <ele>168.0</ele>
        <time>2022-05-19T07:36:47Z</time>
      </trkpt>
      <trkpt lat="47.527504" lon="2.0820372">
        <ele>168.0</ele>
        <time>2022-05-19T07:36:48Z</time>
      </trkpt>
      <trkpt lat="47.527496" lon="2.0820532">
        <ele>168.0</ele>
        <time>2022-05-19T07:36:49Z</time>
      </trkpt>
      <trkpt lat="47.527493" lon="2.082069">
        <ele>168.0</ele>
        <time>2022-05-19T07:36:50Z</time>
      </trkpt>
      <trkpt lat="47.527493" lon="2.0820844">
        <ele>168.0</ele>
        <time>2022-05-19T07:36:51Z</time>
      </trkpt>
      <trkpt lat="47.52749" lon="2.082104">
        <ele>168.0</ele>
        <time>2022-05-19T07:36:52Z</time>
      </trkpt>
      <trkpt lat="47.52749" lon="2.082122">
        <ele>168.0</ele>
        <time>2022-05-19T07:36:53Z</time>
      </trkpt>
      <trkpt lat="47.527485" lon="2.0821424">
        <ele>168.0</ele>
        <time>2022-05-19T07:36:54Z</time>
      </trkpt>
      <trkpt lat="47.527485" lon="2.0821595">
        <ele>168.0</ele>
        <time>2022-05-19T07:36:55Z</time>
      </trkpt>
      <trkpt lat="47.527485" lon="2.0821774">
        <ele>168.0</ele>
        <time>2022-05-19T07:36:56Z</time>
      </trkpt>
      <trkpt lat="47.52748" lon="2.0821939">
        <ele>169.0</ele>
        <time>2022-05-19T07:36:57Z</time>
      </trkpt>
      <trkpt lat="47.52748" lon="2.0822098">
        <ele>169.0</ele>
        <time>2022-05-19T07:36:58Z</time>
      </trkpt>
      <trkpt lat="47.527477" lon="2.082225">
        <ele>169.0</ele>
        <time>2022-05-19T07:36:59Z</time>
      </trkpt>
      <trkpt lat="47.52747" lon="2.0822432">
        <ele>169.0</ele>
        <time>2022-05-19T07:37:00Z</time>
      </trkpt>
      <trkpt lat="47.527466" lon="2.0822597">
        <ele>169.0</ele>
        <time>2022-05-19T07:37:01Z</time>
      </trkpt>
      <trkpt lat="47.527462" lon="2.082278">
        <ele>169.0</ele>
        <time>2022-05-19T07:37:02Z</time>
      </trkpt>
      <trkpt lat="47.52746" lon="2.082294">
        <ele>169.0</ele>
        <time>2022-05-19T07:37:03Z</time>
      </trkpt>
      <trkpt lat="47.527454" lon="2.0823083">
        <ele>168.0</ele>
        <time>2022-05-19T07:37:04Z</time>
      </trkpt>
      <trkpt lat="47.527447" lon="2.082326">
        <ele>168.0</ele>
        <time>2022-05-19T07:37:05Z</time>
      </trkpt>
      <trkpt lat="47.527443" lon="2.0823467">
        <ele>168.0</ele>
        <time>2022-05-19T07:37:06Z</time>
      </trkpt>
      <trkpt lat="47.52744" lon="2.082363">
        <ele>169.0</ele>
        <time>2022-05-19T07:37:07Z</time>
      </trkpt>
      <trkpt lat="47.52744" lon="2.082377">
        <ele>168.0</ele>
        <time>2022-05-19T07:37:08Z</time>
      </trkpt>
      <trkpt lat="47.527435" lon="2.0823922">
        <ele>168.0</ele>
        <time>2022-05-19T07:37:09Z</time>
      </trkpt>
      <trkpt lat="47.52743" lon="2.0824122">
        <ele>168.0</ele>
        <time>2022-05-19T07:37:10Z</time>
      </trkpt>
      <trkpt lat="47.527428" lon="2.082431">
        <ele>168.0</ele>
        <time>2022-05-19T07:37:11Z</time>
      </trkpt>
      <trkpt lat="47.52743" lon="2.0824447">
        <ele>168.0</ele>
        <time>2022-05-19T07:37:12Z</time>
      </trkpt>
      <trkpt lat="47.527435" lon="2.0824578">
        <ele>168.0</ele>
        <time>2022-05-19T07:37:13Z</time>
      </trkpt>
      <trkpt lat="47.52743" lon="2.0824714">
        <ele>167.0</ele>
        <time>2022-05-19T07:37:14Z</time>
      </trkpt>
      <trkpt lat="47.527428" lon="2.08249">
        <ele>167.0</ele>
        <time>2022-05-19T07:37:15Z</time>
      </trkpt>
      <trkpt lat="47.527424" lon="2.0825064">
        <ele>167.0</ele>
        <time>2022-05-19T07:37:16Z</time>
      </trkpt>
      <trkpt lat="47.52742" lon="2.0825272">
        <ele>167.0</ele>
        <time>2022-05-19T07:37:17Z</time>
      </trkpt>
      <trkpt lat="47.527416" lon="2.0825438">
        <ele>167.0</ele>
        <time>2022-05-19T07:37:18Z</time>
      </trkpt>
      <trkpt lat="47.527412" lon="2.0825603">
        <ele>167.0</ele>
        <time>2022-05-19T07:37:19Z</time>
      </trkpt>
      <trkpt lat="47.527405" lon="2.0825717">
        <ele>167.0</ele>
        <time>2022-05-19T07:37:20Z</time>
      </trkpt>
      <trkpt lat="47.527397" lon="2.0825894">
        <ele>167.0</ele>
        <time>2022-05-19T07:37:21Z</time>
      </trkpt>
      <trkpt lat="47.527393" lon="2.0826056">
        <ele>167.0</ele>
        <time>2022-05-19T07:37:22Z</time>
      </trkpt>
      <trkpt lat="47.52739" lon="2.0826194">
        <ele>167.0</ele>
        <time>2022-05-19T07:37:23Z</time>
      </trkpt>
      <trkpt lat="47.527386" lon="2.0826356">
        <ele>167.0</ele>
        <time>2022-05-19T07:37:24Z</time>
      </trkpt>
      <trkpt lat="47.527378" lon="2.0826483">
        <ele>167.0</ele>
        <time>2022-05-19T07:37:25Z</time>
      </trkpt>
      <trkpt lat="47.52737" lon="2.0826674">
        <ele>167.0</ele>
        <time>2022-05-19T07:37:26Z</time>
      </trkpt>
      <trkpt lat="47.527367" lon="2.0826843">
        <ele>167.0</ele>
        <time>2022-05-19T07:37:27Z</time>
      </trkpt>
      <trkpt lat="47.527363" lon="2.082702">
        <ele>167.0</ele>
        <time>2022-05-19T07:37:28Z</time>
      </trkpt>
      <trkpt lat="47.52736" lon="2.0827181">
        <ele>167.0</ele>
        <time>2022-05-19T07:37:29Z</time>
      </trkpt>
      <trkpt lat="47.52735" lon="2.0827346">
        <ele>167.0</ele>
        <time>2022-05-19T07:37:30Z</time>
      </trkpt>
      <trkpt lat="47.527348" lon="2.0827506">
        <ele>167.0</ele>
        <time>2022-05-19T07:37:31Z</time>
      </trkpt>
      <trkpt lat="47.527344" lon="2.0827708">
        <ele>167.0</ele>
        <time>2022-05-19T07:37:32Z</time>
      </trkpt>
      <trkpt lat="47.52734" lon="2.082793">
        <ele>167.0</ele>
        <time>2022-05-19T07:37:33Z</time>
      </trkpt>
      <trkpt lat="47.527336" lon="2.082808">
        <ele>167.0</ele>
        <time>2022-05-19T07:37:34Z</time>
      </trkpt>
      <trkpt lat="47.527332" lon="2.0828252">
        <ele>167.0</ele>
        <time>2022-05-19T07:37:35Z</time>
      </trkpt>
      <trkpt lat="47.527325" lon="2.0828428">
        <ele>168.0</ele>
        <time>2022-05-19T07:37:36Z</time>
      </trkpt>
      <trkpt lat="47.52732" lon="2.082861">
        <ele>168.0</ele>
        <time>2022-05-19T07:37:37Z</time>
      </trkpt>
      <trkpt lat="47.527313" lon="2.0828784">
        <ele>168.0</ele>
        <time>2022-05-19T07:37:38Z</time>
      </trkpt>
      <trkpt lat="47.52731" lon="2.0828948">
        <ele>168.0</ele>
        <time>2022-05-19T07:37:39Z</time>
      </trkpt>
      <trkpt lat="47.52731" lon="2.08291">
        <ele>168.0</ele>
        <time>2022-05-19T07:37:40Z</time>
      </trkpt>
      <trkpt lat="47.527306" lon="2.0829282">
        <ele>168.0</ele>
        <time>2022-05-19T07:37:41Z</time>
      </trkpt>
      <trkpt lat="47.527298" lon="2.0829458">
        <ele>168.0</ele>
        <time>2022-05-19T07:37:42Z</time>
      </trkpt>
      <trkpt lat="47.527294" lon="2.0829628">
        <ele>168.0</ele>
        <time>2022-05-19T07:37:43Z</time>
      </trkpt>
      <trkpt lat="47.52729" lon="2.082975">
        <ele>168.0</ele>
        <time>2022-05-19T07:37:44Z</time>
      </trkpt>
      <trkpt lat="47.527287" lon="2.0829885">
        <ele>168.0</ele>
        <time>2022-05-19T07:37:45Z</time>
      </trkpt>
      <trkpt lat="47.52728" lon="2.0830088">
        <ele>167.0</ele>
        <time>2022-05-19T07:37:46Z</time>
      </trkpt>
      <trkpt lat="47.527275" lon="2.0830283">
        <ele>168.0</ele>
        <time>2022-05-19T07:37:47Z</time>
      </trkpt>
      <trkpt lat="47.52727" lon="2.083044">
        <ele>168.0</ele>
        <time>2022-05-19T07:37:48Z</time>
      </trkpt>
      <trkpt lat="47.527267" lon="2.0830607">
        <ele>168.0</ele>
        <time>2022-05-19T07:37:49Z</time>
      </trkpt>
      <trkpt lat="47.527264" lon="2.083076">
        <ele>168.0</ele>
        <time>2022-05-19T07:37:50Z</time>
      </trkpt>
      <trkpt lat="47.52726" lon="2.083093">
        <ele>167.0</ele>
        <time>2022-05-19T07:37:51Z</time>
      </trkpt>
      <trkpt lat="47.527256" lon="2.0831096">
        <ele>167.0</ele>
        <time>2022-05-19T07:37:52Z</time>
      </trkpt>
      <trkpt lat="47.52725" lon="2.083127">
        <ele>167.0</ele>
        <time>2022-05-19T07:37:53Z</time>
      </trkpt>
      <trkpt lat="47.527245" lon="2.0831418">
        <ele>167.0</ele>
        <time>2022-05-19T07:37:54Z</time>
      </trkpt>
      <trkpt lat="47.52724" lon="2.0831568">
        <ele>167.0</ele>
        <time>2022-05-19T07:37:55Z</time>
      </trkpt>
      <trkpt lat="47.52724" lon="2.083172">
        <ele>167.0</ele>
        <time>2022-05-19T07:37:56Z</time>
      </trkpt>
      <trkpt lat="47.527237" lon="2.0831892">
        <ele>167.0</ele>
        <time>2022-05-19T07:37:57Z</time>
      </trkpt>
      <trkpt lat="47.527233" lon="2.083207">
        <ele>167.0</ele>
        <time>2022-05-19T07:37:58Z</time>
      </trkpt>
      <trkpt lat="47.52723" lon="2.083224">
        <ele>167.0</ele>
        <time>2022-05-19T07:37:59Z</time>
      </trkpt>
      <trkpt lat="47.527225" lon="2.0832405">
        <ele>167.0</ele>
        <time>2022-05-19T07:38:00Z</time>
      </trkpt>
      <trkpt lat="47.52722" lon="2.0832567">
        <ele>167.0</ele>
        <time>2022-05-19T07:38:01Z</time>
      </trkpt>
      <trkpt lat="47.527218" lon="2.083271">
        <ele>167.0</ele>
        <time>2022-05-19T07:38:02Z</time>
      </trkpt>
      <trkpt lat="47.527214" lon="2.083285">
        <ele>167.0</ele>
        <time>2022-05-19T07:38:03Z</time>
      </trkpt>
      <trkpt lat="47.52721" lon="2.083302">
        <ele>167.0</ele>
        <time>2022-05-19T07:38:04Z</time>
      </trkpt>
      <trkpt lat="47.527203" lon="2.0833206">
        <ele>167.0</ele>
        <time>2022-05-19T07:38:05Z</time>
      </trkpt>
      <trkpt lat="47.527203" lon="2.0833392">
        <ele>166.0</ele>
        <time>2022-05-19T07:38:06Z</time>
      </trkpt>
      <trkpt lat="47.527203" lon="2.0833564">
        <ele>167.0</ele>
        <time>2022-05-19T07:38:07Z</time>
      </trkpt>
      <trkpt lat="47.5272" lon="2.083377">
        <ele>167.0</ele>
        <time>2022-05-19T07:38:08Z</time>
      </trkpt>
      <trkpt lat="47.5272" lon="2.0833933">
        <ele>167.0</ele>
        <time>2022-05-19T07:38:09Z</time>
      </trkpt>
      <trkpt lat="47.5272" lon="2.0834103">
        <ele>167.0</ele>
        <time>2022-05-19T07:38:10Z</time>
      </trkpt>
      <trkpt lat="47.527195" lon="2.0834305">
        <ele>167.0</ele>
        <time>2022-05-19T07:38:11Z</time>
      </trkpt>
      <trkpt lat="47.52719" lon="2.0834467">
        <ele>167.0</ele>
        <time>2022-05-19T07:38:12Z</time>
      </trkpt>
      <trkpt lat="47.527187" lon="2.0834622">
        <ele>167.0</ele>
        <time>2022-05-19T07:38:13Z</time>
      </trkpt>
      <trkpt lat="47.527187" lon="2.0834816">
        <ele>167.0</ele>
        <time>2022-05-19T07:38:14Z</time>
      </trkpt>
      <trkpt lat="47.527184" lon="2.0834992">
        <ele>167.0</ele>
        <time>2022-05-19T07:38:15Z</time>
      </trkpt>
      <trkpt lat="47.52718" lon="2.0835168">
        <ele>167.0</ele>
        <time>2022-05-19T07:38:16Z</time>
      </trkpt>
      <trkpt lat="47.527176" lon="2.0835295">
        <ele>167.0</ele>
        <time>2022-05-19T07:38:17Z</time>
      </trkpt>
      <trkpt lat="47.527172" lon="2.0835428">
        <ele>167.0</ele>
        <time>2022-05-19T07:38:18Z</time>
      </trkpt>
      <trkpt lat="47.52717" lon="2.0835595">
        <ele>167.0</ele>
        <time>2022-05-19T07:38:19Z</time>
      </trkpt>
      <trkpt lat="47.527164" lon="2.083574">
        <ele>167.0</ele>
        <time>2022-05-19T07:38:20Z</time>
      </trkpt>
      <trkpt lat="47.527157" lon="2.0835927">
        <ele>167.0</ele>
        <time>2022-05-19T07:38:21Z</time>
      </trkpt>
      <trkpt lat="47.527153" lon="2.0836127">
        <ele>167.0</ele>
        <time>2022-05-19T07:38:22Z</time>
      </trkpt>
      <trkpt lat="47.52715" lon="2.0836277">
        <ele>167.0</ele>
        <time>2022-05-19T07:38:23Z</time>
      </trkpt>
      <trkpt lat="47.527145" lon="2.0836453">
        <ele>167.0</ele>
        <time>2022-05-19T07:38:24Z</time>
      </trkpt>
      <trkpt lat="47.527145" lon="2.083663">
        <ele>166.0</ele>
        <time>2022-05-19T07:38:25Z</time>
      </trkpt>
      <trkpt lat="47.52714" lon="2.0836823">
        <ele>166.0</ele>
        <time>2022-05-19T07:38:26Z</time>
      </trkpt>
      <trkpt lat="47.527138" lon="2.0837026">
        <ele>166.0</ele>
        <time>2022-05-19T07:38:27Z</time>
      </trkpt>
      <trkpt lat="47.527134" lon="2.083724">
        <ele>166.0</ele>
        <time>2022-05-19T07:38:28Z</time>
      </trkpt>
      <trkpt lat="47.52713" lon="2.0837448">
        <ele>166.0</ele>
        <time>2022-05-19T07:38:29Z</time>
      </trkpt>
      <trkpt lat="47.52713" lon="2.0837617">
        <ele>165.0</ele>
        <time>2022-05-19T07:38:30Z</time>
      </trkpt>
      <trkpt lat="47.527126" lon="2.0837796">
        <ele>165.0</ele>
        <time>2022-05-19T07:38:31Z</time>
      </trkpt>
      <trkpt lat="47.527122" lon="2.0837975">
        <ele>165.0</ele>
        <time>2022-05-19T07:38:32Z</time>
      </trkpt>
      <trkpt lat="47.52712" lon="2.083814">
        <ele>165.0</ele>
        <time>2022-05-19T07:38:33Z</time>
      </trkpt>
      <trkpt lat="47.527115" lon="2.0838299">
        <ele>166.0</ele>
        <time>2022-05-19T07:38:34Z</time>
      </trkpt>
      <trkpt lat="47.52711" lon="2.0838466">
        <ele>166.0</ele>
        <time>2022-05-19T07:38:35Z</time>
      </trkpt>
      <trkpt lat="47.527107" lon="2.0838628">
        <ele>166.0</ele>
        <time>2022-05-19T07:38:36Z</time>
      </trkpt>
      <trkpt lat="47.527107" lon="2.083881">
        <ele>166.0</ele>
        <time>2022-05-19T07:38:37Z</time>
      </trkpt>
      <trkpt lat="47.527107" lon="2.083895">
        <ele>166.0</ele>
        <time>2022-05-19T07:38:38Z</time>
      </trkpt>
      <trkpt lat="47.527107" lon="2.0839105">
        <ele>165.0</ele>
        <time>2022-05-19T07:38:39Z</time>
      </trkpt>
      <trkpt lat="47.527103" lon="2.0839267">
        <ele>165.0</ele>
        <time>2022-05-19T07:38:40Z</time>
      </trkpt>
      <trkpt lat="47.527103" lon="2.0839422">
        <ele>165.0</ele>
        <time>2022-05-19T07:38:41Z</time>
      </trkpt>
      <trkpt lat="47.527096" lon="2.0839603">
        <ele>166.0</ele>
        <time>2022-05-19T07:38:42Z</time>
      </trkpt>
      <trkpt lat="47.527092" lon="2.0839734">
        <ele>165.0</ele>
        <time>2022-05-19T07:38:43Z</time>
      </trkpt>
      <trkpt lat="47.52709" lon="2.0839906">
        <ele>165.0</ele>
        <time>2022-05-19T07:38:44Z</time>
      </trkpt>
      <trkpt lat="47.527084" lon="2.0840077">
        <ele>165.0</ele>
        <time>2022-05-19T07:38:45Z</time>
      </trkpt>
      <trkpt lat="47.52708" lon="2.0840304">
        <ele>166.0</ele>
        <time>2022-05-19T07:38:46Z</time>
      </trkpt>
      <trkpt lat="47.527077" lon="2.084049">
        <ele>166.0</ele>
        <time>2022-05-19T07:38:47Z</time>
      </trkpt>
      <trkpt lat="47.527073" lon="2.084064">
        <ele>166.0</ele>
        <time>2022-05-19T07:38:48Z</time>
      </trkpt>
      <trkpt lat="47.527065" lon="2.084081">
        <ele>166.0</ele>
        <time>2022-05-19T07:38:49Z</time>
      </trkpt>
      <trkpt lat="47.52706" lon="2.084092">
        <ele>166.0</ele>
        <time>2022-05-19T07:38:50Z</time>
      </trkpt>
      <trkpt lat="47.527058" lon="2.0841067">
        <ele>167.0</ele>
        <time>2022-05-19T07:38:51Z</time>
      </trkpt>
      <trkpt lat="47.527058" lon="2.084123">
        <ele>167.0</ele>
        <time>2022-05-19T07:38:52Z</time>
      </trkpt>
      <trkpt lat="47.527054" lon="2.0841415">
        <ele>167.0</ele>
        <time>2022-05-19T07:38:53Z</time>
      </trkpt>
      <trkpt lat="47.527046" lon="2.0841615">
        <ele>168.0</ele>
        <time>2022-05-19T07:38:54Z</time>
      </trkpt>
      <trkpt lat="47.52704" lon="2.0841782">
        <ele>168.0</ele>
        <time>2022-05-19T07:38:55Z</time>
      </trkpt>
      <trkpt lat="47.527035" lon="2.084194">
        <ele>168.0</ele>
        <time>2022-05-19T07:38:56Z</time>
      </trkpt>
      <trkpt lat="47.52703" lon="2.0842106">
        <ele>169.0</ele>
        <time>2022-05-19T07:38:57Z</time>
      </trkpt>
      <trkpt lat="47.527027" lon="2.0842302">
        <ele>169.0</ele>
        <time>2022-05-19T07:38:58Z</time>
      </trkpt>
      <trkpt lat="47.52702" lon="2.0842493">
        <ele>169.0</ele>
        <time>2022-05-19T07:38:59Z</time>
      </trkpt>
      <trkpt lat="47.527016" lon="2.0842671">
        <ele>170.0</ele>
        <time>2022-05-19T07:39:00Z</time>
      </trkpt>
      <trkpt lat="47.52701" lon="2.084283">
        <ele>170.0</ele>
        <time>2022-05-19T07:39:01Z</time>
      </trkpt>
      <trkpt lat="47.527008" lon="2.0843003">
        <ele>170.0</ele>
        <time>2022-05-19T07:39:02Z</time>
      </trkpt>
      <trkpt lat="47.527" lon="2.0843167">
        <ele>170.0</ele>
        <time>2022-05-19T07:39:03Z</time>
      </trkpt>
      <trkpt lat="47.526997" lon="2.0843353">
        <ele>170.0</ele>
        <time>2022-05-19T07:39:04Z</time>
      </trkpt>
      <trkpt lat="47.526993" lon="2.0843503">
        <ele>170.0</ele>
        <time>2022-05-19T07:39:05Z</time>
      </trkpt>
      <trkpt lat="47.526985" lon="2.0843678">
        <ele>169.0</ele>
        <time>2022-05-19T07:39:06Z</time>
      </trkpt>
      <trkpt lat="47.526978" lon="2.0843809">
        <ele>169.0</ele>
        <time>2022-05-19T07:39:07Z</time>
      </trkpt>
      <trkpt lat="47.526974" lon="2.0843942">
        <ele>169.0</ele>
        <time>2022-05-19T07:39:08Z</time>
      </trkpt>
      <trkpt lat="47.526966" lon="2.08441">
        <ele>168.0</ele>
        <time>2022-05-19T07:39:09Z</time>
      </trkpt>
      <trkpt lat="47.526962" lon="2.084427">
        <ele>168.0</ele>
        <time>2022-05-19T07:39:10Z</time>
      </trkpt>
      <trkpt lat="47.52696" lon="2.0844426">
        <ele>167.0</ele>
        <time>2022-05-19T07:39:11Z</time>
      </trkpt>
      <trkpt lat="47.526955" lon="2.0844612">
        <ele>167.0</ele>
        <time>2022-05-19T07:39:12Z</time>
      </trkpt>
      <trkpt lat="47.52695" lon="2.084477">
        <ele>166.0</ele>
        <time>2022-05-19T07:39:13Z</time>
      </trkpt>
      <trkpt lat="47.526947" lon="2.084498">
        <ele>166.0</ele>
        <time>2022-05-19T07:39:14Z</time>
      </trkpt>
      <trkpt lat="47.526943" lon="2.084515">
        <ele>166.0</ele>
        <time>2022-05-19T07:39:15Z</time>
      </trkpt>
      <trkpt lat="47.52694" lon="2.0845327">
        <ele>166.0</ele>
        <time>2022-05-19T07:39:16Z</time>
      </trkpt>
      <trkpt lat="47.526936" lon="2.0845513">
        <ele>165.0</ele>
        <time>2022-05-19T07:39:17Z</time>
      </trkpt>
      <trkpt lat="47.52693" lon="2.0845711">
        <ele>165.0</ele>
        <time>2022-05-19T07:39:18Z</time>
      </trkpt>
      <trkpt lat="47.52693" lon="2.0845926">
        <ele>164.0</ele>
        <time>2022-05-19T07:39:19Z</time>
      </trkpt>
      <trkpt lat="47.52693" lon="2.0846097">
        <ele>164.0</ele>
        <time>2022-05-19T07:39:20Z</time>
      </trkpt>
      <trkpt lat="47.526928" lon="2.0846295">
        <ele>164.0</ele>
        <time>2022-05-19T07:39:21Z</time>
      </trkpt>
      <trkpt lat="47.526924" lon="2.0846467">
        <ele>164.0</ele>
        <time>2022-05-19T07:39:22Z</time>
      </trkpt>
      <trkpt lat="47.52692" lon="2.084665">
        <ele>164.0</ele>
        <time>2022-05-19T07:39:23Z</time>
      </trkpt>
      <trkpt lat="47.52692" lon="2.08468">
        <ele>164.0</ele>
        <time>2022-05-19T07:39:24Z</time>
      </trkpt>
      <trkpt lat="47.526917" lon="2.0846975">
        <ele>164.0</ele>
        <time>2022-05-19T07:39:25Z</time>
      </trkpt>
      <trkpt lat="47.526913" lon="2.0847182">
        <ele>164.0</ele>
        <time>2022-05-19T07:39:26Z</time>
      </trkpt>
      <trkpt lat="47.52691" lon="2.084735">
        <ele>164.0</ele>
        <time>2022-05-19T07:39:27Z</time>
      </trkpt>
      <trkpt lat="47.526905" lon="2.0847502">
        <ele>164.0</ele>
        <time>2022-05-19T07:39:28Z</time>
      </trkpt>
      <trkpt lat="47.5269" lon="2.0847661">
        <ele>164.0</ele>
        <time>2022-05-19T07:39:29Z</time>
      </trkpt>
      <trkpt lat="47.526897" lon="2.084783">
        <ele>164.0</ele>
        <time>2022-05-19T07:39:30Z</time>
      </trkpt>
      <trkpt lat="47.526894" lon="2.0847998">
        <ele>163.0</ele>
        <time>2022-05-19T07:39:31Z</time>
      </trkpt>
      <trkpt lat="47.526894" lon="2.0848198">
        <ele>163.0</ele>
        <time>2022-05-19T07:39:32Z</time>
      </trkpt>
      <trkpt lat="47.52689" lon="2.0848372">
        <ele>163.0</ele>
        <time>2022-05-19T07:39:33Z</time>
      </trkpt>
      <trkpt lat="47.526886" lon="2.084854">
        <ele>163.0</ele>
        <time>2022-05-19T07:39:34Z</time>
      </trkpt>
      <trkpt lat="47.526886" lon="2.0848749">
        <ele>163.0</ele>
        <time>2022-05-19T07:39:35Z</time>
      </trkpt>
      <trkpt lat="47.526882" lon="2.084895">
        <ele>162.0</ele>
        <time>2022-05-19T07:39:36Z</time>
      </trkpt>
      <trkpt lat="47.52688" lon="2.0849133">
        <ele>163.0</ele>
        <time>2022-05-19T07:39:37Z</time>
      </trkpt>
      <trkpt lat="47.526875" lon="2.0849311">
        <ele>163.0</ele>
        <time>2022-05-19T07:39:38Z</time>
      </trkpt>
      <trkpt lat="47.52687" lon="2.0849466">
        <ele>163.0</ele>
        <time>2022-05-19T07:39:39Z</time>
      </trkpt>
      <trkpt lat="47.52687" lon="2.084961">
        <ele>164.0</ele>
        <time>2022-05-19T07:39:40Z</time>
      </trkpt>
      <trkpt lat="47.526867" lon="2.0849805">
        <ele>164.0</ele>
        <time>2022-05-19T07:39:41Z</time>
      </trkpt>
      <trkpt lat="47.526863" lon="2.0849996">
        <ele>164.0</ele>
        <time>2022-05-19T07:39:42Z</time>
      </trkpt>
      <trkpt lat="47.526863" lon="2.0850158">
        <ele>164.0</ele>
        <time>2022-05-19T07:39:43Z</time>
      </trkpt>
      <trkpt lat="47.526855" lon="2.0850308">
        <ele>164.0</ele>
        <time>2022-05-19T07:39:44Z</time>
      </trkpt>
      <trkpt lat="47.526848" lon="2.0850477">
        <ele>163.0</ele>
        <time>2022-05-19T07:39:45Z</time>
      </trkpt>
      <trkpt lat="47.52684" lon="2.0850632">
        <ele>163.0</ele>
        <time>2022-05-19T07:39:46Z</time>
      </trkpt>
      <trkpt lat="47.526836" lon="2.0850794">
        <ele>163.0</ele>
        <time>2022-05-19T07:39:47Z</time>
      </trkpt>
      <trkpt lat="47.52683" lon="2.0850923">
        <ele>164.0</ele>
        <time>2022-05-19T07:39:48Z</time>
      </trkpt>
      <trkpt lat="47.52682" lon="2.0851083">
        <ele>164.0</ele>
        <time>2022-05-19T07:39:49Z</time>
      </trkpt>
      <trkpt lat="47.52681" lon="2.0851254">
        <ele>164.0</ele>
        <time>2022-05-19T07:39:50Z</time>
      </trkpt>
      <trkpt lat="47.526806" lon="2.0851417">
        <ele>163.0</ele>
        <time>2022-05-19T07:39:51Z</time>
      </trkpt>
      <trkpt lat="47.5268" lon="2.0851588">
        <ele>163.0</ele>
        <time>2022-05-19T07:39:52Z</time>
      </trkpt>
      <trkpt lat="47.526794" lon="2.0851786">
        <ele>163.0</ele>
        <time>2022-05-19T07:39:53Z</time>
      </trkpt>
      <trkpt lat="47.52679" lon="2.0851924">
        <ele>163.0</ele>
        <time>2022-05-19T07:39:54Z</time>
      </trkpt>
      <trkpt lat="47.526787" lon="2.0852098">
        <ele>163.0</ele>
        <time>2022-05-19T07:39:55Z</time>
      </trkpt>
      <trkpt lat="47.526783" lon="2.0852222">
        <ele>163.0</ele>
        <time>2022-05-19T07:39:56Z</time>
      </trkpt>
      <trkpt lat="47.52678" lon="2.08524">
        <ele>163.0</ele>
        <time>2022-05-19T07:39:57Z</time>
      </trkpt>
      <trkpt lat="47.52677" lon="2.0852556">
        <ele>163.0</ele>
        <time>2022-05-19T07:39:58Z</time>
      </trkpt>
      <trkpt lat="47.52677" lon="2.0852733">
        <ele>163.0</ele>
        <time>2022-05-19T07:39:59Z</time>
      </trkpt>
      <trkpt lat="47.526768" lon="2.0852885">
        <ele>163.0</ele>
        <time>2022-05-19T07:40:00Z</time>
      </trkpt>
      <trkpt lat="47.526764" lon="2.085306">
        <ele>163.0</ele>
        <time>2022-05-19T07:40:01Z</time>
      </trkpt>
      <trkpt lat="47.52676" lon="2.0853217">
        <ele>163.0</ele>
        <time>2022-05-19T07:40:02Z</time>
      </trkpt>
      <trkpt lat="47.526756" lon="2.0853393">
        <ele>164.0</ele>
        <time>2022-05-19T07:40:03Z</time>
      </trkpt>
      <trkpt lat="47.526752" lon="2.085355">
        <ele>164.0</ele>
        <time>2022-05-19T07:40:04Z</time>
      </trkpt>
      <trkpt lat="47.52675" lon="2.0853722">
        <ele>164.0</ele>
        <time>2022-05-19T07:40:05Z</time>
      </trkpt>
      <trkpt lat="47.526745" lon="2.0853865">
        <ele>164.0</ele>
        <time>2022-05-19T07:40:06Z</time>
      </trkpt>
      <trkpt lat="47.526737" lon="2.0854058">
        <ele>164.0</ele>
        <time>2022-05-19T07:40:07Z</time>
      </trkpt>
      <trkpt lat="47.526737" lon="2.0854225">
        <ele>164.0</ele>
        <time>2022-05-19T07:40:08Z</time>
      </trkpt>
      <trkpt lat="47.526733" lon="2.0854392">
        <ele>164.0</ele>
        <time>2022-05-19T07:40:09Z</time>
      </trkpt>
      <trkpt lat="47.526733" lon="2.0854595">
        <ele>164.0</ele>
        <time>2022-05-19T07:40:10Z</time>
      </trkpt>
      <trkpt lat="47.52673" lon="2.0854754">
        <ele>163.0</ele>
        <time>2022-05-19T07:40:11Z</time>
      </trkpt>
      <trkpt lat="47.526726" lon="2.0854905">
        <ele>163.0</ele>
        <time>2022-05-19T07:40:12Z</time>
      </trkpt>
      <trkpt lat="47.526726" lon="2.0855079">
        <ele>163.0</ele>
        <time>2022-05-19T07:40:13Z</time>
      </trkpt>
      <trkpt lat="47.526722" lon="2.0855274">
        <ele>163.0</ele>
        <time>2022-05-19T07:40:14Z</time>
      </trkpt>
      <trkpt lat="47.526714" lon="2.0855434">
        <ele>162.0</ele>
        <time>2022-05-19T07:40:15Z</time>
      </trkpt>
      <trkpt lat="47.52671" lon="2.0855591">
        <ele>162.0</ele>
        <time>2022-05-19T07:40:16Z</time>
      </trkpt>
      <trkpt lat="47.526703" lon="2.085579">
        <ele>162.0</ele>
        <time>2022-05-19T07:40:17Z</time>
      </trkpt>
      <trkpt lat="47.526703" lon="2.085599">
        <ele>162.0</ele>
        <time>2022-05-19T07:40:18Z</time>
      </trkpt>
      <trkpt lat="47.526695" lon="2.0856192">
        <ele>162.0</ele>
        <time>2022-05-19T07:40:19Z</time>
      </trkpt>
      <trkpt lat="47.52669" lon="2.0856414">
        <ele>162.0</ele>
        <time>2022-05-19T07:40:20Z</time>
      </trkpt>
      <trkpt lat="47.526688" lon="2.0856588">
        <ele>162.0</ele>
        <time>2022-05-19T07:40:21Z</time>
      </trkpt>
      <trkpt lat="47.52668" lon="2.0856757">
        <ele>162.0</ele>
        <time>2022-05-19T07:40:22Z</time>
      </trkpt>
      <trkpt lat="47.526676" lon="2.0856905">
        <ele>162.0</ele>
        <time>2022-05-19T07:40:23Z</time>
      </trkpt>
      <trkpt lat="47.526672" lon="2.0857053">
        <ele>162.0</ele>
        <time>2022-05-19T07:40:24Z</time>
      </trkpt>
      <trkpt lat="47.52667" lon="2.0857255">
        <ele>162.0</ele>
        <time>2022-05-19T07:40:25Z</time>
      </trkpt>
      <trkpt lat="47.52666" lon="2.0857415">
        <ele>163.0</ele>
        <time>2022-05-19T07:40:26Z</time>
      </trkpt>
      <trkpt lat="47.526657" lon="2.0857587">
        <ele>163.0</ele>
        <time>2022-05-19T07:40:27Z</time>
      </trkpt>
      <trkpt lat="47.526653" lon="2.0857756">
        <ele>163.0</ele>
        <time>2022-05-19T07:40:28Z</time>
      </trkpt>
      <trkpt lat="47.526653" lon="2.0857942">
        <ele>163.0</ele>
        <time>2022-05-19T07:40:29Z</time>
      </trkpt>
      <trkpt lat="47.52665" lon="2.085813">
        <ele>163.0</ele>
        <time>2022-05-19T07:40:30Z</time>
      </trkpt>
      <trkpt lat="47.526646" lon="2.0858319">
        <ele>163.0</ele>
        <time>2022-05-19T07:40:31Z</time>
      </trkpt>
      <trkpt lat="47.52664" lon="2.0858529">
        <ele>163.0</ele>
        <time>2022-05-19T07:40:32Z</time>
      </trkpt>
      <trkpt lat="47.52664" lon="2.0858722">
        <ele>163.0</ele>
        <time>2022-05-19T07:40:33Z</time>
      </trkpt>
      <trkpt lat="47.526634" lon="2.0858865">
        <ele>162.0</ele>
        <time>2022-05-19T07:40:34Z</time>
      </trkpt>
      <trkpt lat="47.52663" lon="2.0859017">
        <ele>162.0</ele>
        <time>2022-05-19T07:40:35Z</time>
      </trkpt>
      <trkpt lat="47.52663" lon="2.0859168">
        <ele>162.0</ele>
        <time>2022-05-19T07:40:36Z</time>
      </trkpt>
      <trkpt lat="47.526623" lon="2.0859332">
        <ele>162.0</ele>
        <time>2022-05-19T07:40:37Z</time>
      </trkpt>
      <trkpt lat="47.526623" lon="2.0859492">
        <ele>162.0</ele>
        <time>2022-05-19T07:40:38Z</time>
      </trkpt>
      <trkpt lat="47.52662" lon="2.0859675">
        <ele>162.0</ele>
        <time>2022-05-19T07:40:39Z</time>
      </trkpt>
      <trkpt lat="47.526615" lon="2.0859826">
        <ele>161.0</ele>
        <time>2022-05-19T07:40:40Z</time>
      </trkpt>
      <trkpt lat="47.52661" lon="2.085999">
        <ele>162.0</ele>
        <time>2022-05-19T07:40:41Z</time>
      </trkpt>
      <trkpt lat="47.526608" lon="2.0860157">
        <ele>161.0</ele>
        <time>2022-05-19T07:40:42Z</time>
      </trkpt>
      <trkpt lat="47.526604" lon="2.0860338">
        <ele>162.0</ele>
        <time>2022-05-19T07:40:43Z</time>
      </trkpt>
      <trkpt lat="47.5266" lon="2.0860512">
        <ele>162.0</ele>
        <time>2022-05-19T07:40:44Z</time>
      </trkpt>
      <trkpt lat="47.5266" lon="2.0860689">
        <ele>162.0</ele>
        <time>2022-05-19T07:40:45Z</time>
      </trkpt>
      <trkpt lat="47.526592" lon="2.086089">
        <ele>162.0</ele>
        <time>2022-05-19T07:40:46Z</time>
      </trkpt>
      <trkpt lat="47.52659" lon="2.0861037">
        <ele>163.0</ele>
        <time>2022-05-19T07:40:47Z</time>
      </trkpt>
      <trkpt lat="47.526585" lon="2.0861213">
        <ele>162.0</ele>
        <time>2022-05-19T07:40:48Z</time>
      </trkpt>
      <trkpt lat="47.52658" lon="2.086139">
        <ele>162.0</ele>
        <time>2022-05-19T07:40:49Z</time>
      </trkpt>
      <trkpt lat="47.526577" lon="2.0861516">
        <ele>162.0</ele>
        <time>2022-05-19T07:40:50Z</time>
      </trkpt>
      <trkpt lat="47.526577" lon="2.0861685">
        <ele>162.0</ele>
        <time>2022-05-19T07:40:51Z</time>
      </trkpt>
      <trkpt lat="47.52657" lon="2.0861864">
        <ele>162.0</ele>
        <time>2022-05-19T07:40:52Z</time>
      </trkpt>
      <trkpt lat="47.526566" lon="2.0862026">
        <ele>162.0</ele>
        <time>2022-05-19T07:40:53Z</time>
      </trkpt>
      <trkpt lat="47.526566" lon="2.0862162">
        <ele>162.0</ele>
        <time>2022-05-19T07:40:54Z</time>
      </trkpt>
      <trkpt lat="47.52656" lon="2.0862288">
        <ele>161.0</ele>
        <time>2022-05-19T07:40:55Z</time>
      </trkpt>
      <trkpt lat="47.52656" lon="2.086243">
        <ele>161.0</ele>
        <time>2022-05-19T07:40:56Z</time>
      </trkpt>
      <trkpt lat="47.526554" lon="2.0862598">
        <ele>162.0</ele>
        <time>2022-05-19T07:40:57Z</time>
      </trkpt>
      <trkpt lat="47.52655" lon="2.0862732">
        <ele>162.0</ele>
        <time>2022-05-19T07:40:58Z</time>
      </trkpt>
      <trkpt lat="47.526546" lon="2.0862896">
        <ele>162.0</ele>
        <time>2022-05-19T07:40:59Z</time>
      </trkpt>
      <trkpt lat="47.526543" lon="2.0863047">
        <ele>162.0</ele>
        <time>2022-05-19T07:41:00Z</time>
      </trkpt>
      <trkpt lat="47.526543" lon="2.0863214">
        <ele>162.0</ele>
        <time>2022-05-19T07:41:01Z</time>
      </trkpt>
      <trkpt lat="47.52654" lon="2.086336">
        <ele>162.0</ele>
        <time>2022-05-19T07:41:02Z</time>
      </trkpt>
      <trkpt lat="47.526535" lon="2.086351">
        <ele>162.0</ele>
        <time>2022-05-19T07:41:03Z</time>
      </trkpt>
      <trkpt lat="47.526535" lon="2.0863683">
        <ele>163.0</ele>
        <time>2022-05-19T07:41:04Z</time>
      </trkpt>
      <trkpt lat="47.52653" lon="2.0863845">
        <ele>163.0</ele>
        <time>2022-05-19T07:41:05Z</time>
      </trkpt>
      <trkpt lat="47.526527" lon="2.086403">
        <ele>163.0</ele>
        <time>2022-05-19T07:41:06Z</time>
      </trkpt>
      <trkpt lat="47.526524" lon="2.0864208">
        <ele>163.0</ele>
        <time>2022-05-19T07:41:07Z</time>
      </trkpt>
      <trkpt lat="47.526524" lon="2.0864413">
        <ele>163.0</ele>
        <time>2022-05-19T07:41:08Z</time>
      </trkpt>
      <trkpt lat="47.526516" lon="2.086456">
        <ele>163.0</ele>
        <time>2022-05-19T07:41:09Z</time>
      </trkpt>
      <trkpt lat="47.526512" lon="2.0864716">
        <ele>163.0</ele>
        <time>2022-05-19T07:41:10Z</time>
      </trkpt>
      <trkpt lat="47.526512" lon="2.0864878">
        <ele>163.0</ele>
        <time>2022-05-19T07:41:11Z</time>
      </trkpt>
      <trkpt lat="47.52651" lon="2.0865028">
        <ele>163.0</ele>
        <time>2022-05-19T07:41:12Z</time>
      </trkpt>
      <trkpt lat="47.526505" lon="2.086518">
        <ele>163.0</ele>
        <time>2022-05-19T07:41:13Z</time>
      </trkpt>
      <trkpt lat="47.5265" lon="2.0865319">
        <ele>163.0</ele>
        <time>2022-05-19T07:41:14Z</time>
      </trkpt>
      <trkpt lat="47.526497" lon="2.0865488">
        <ele>163.0</ele>
        <time>2022-05-19T07:41:15Z</time>
      </trkpt>
      <trkpt lat="47.526493" lon="2.0865664">
        <ele>163.0</ele>
        <time>2022-05-19T07:41:16Z</time>
      </trkpt>
      <trkpt lat="47.52649" lon="2.0865812">
        <ele>163.0</ele>
        <time>2022-05-19T07:41:17Z</time>
      </trkpt>
      <trkpt lat="47.52648" lon="2.0865989">
        <ele>163.0</ele>
        <time>2022-05-19T07:41:18Z</time>
      </trkpt>
      <trkpt lat="47.526478" lon="2.0866144">
        <ele>163.0</ele>
        <time>2022-05-19T07:41:19Z</time>
      </trkpt>
      <trkpt lat="47.526478" lon="2.0866325">
        <ele>163.0</ele>
        <time>2022-05-19T07:41:20Z</time>
      </trkpt>
      <trkpt lat="47.526474" lon="2.0866473">
        <ele>163.0</ele>
        <time>2022-05-19T07:41:21Z</time>
      </trkpt>
      <trkpt lat="47.52647" lon="2.0866652">
        <ele>163.0</ele>
        <time>2022-05-19T07:41:22Z</time>
      </trkpt>
      <trkpt lat="47.52647" lon="2.0866835">
        <ele>163.0</ele>
        <time>2022-05-19T07:41:23Z</time>
      </trkpt>
      <trkpt lat="47.526466" lon="2.0867002">
        <ele>163.0</ele>
        <time>2022-05-19T07:41:24Z</time>
      </trkpt>
      <trkpt lat="47.526466" lon="2.086716">
        <ele>163.0</ele>
        <time>2022-05-19T07:41:25Z</time>
      </trkpt>
      <trkpt lat="47.526463" lon="2.086735">
        <ele>163.0</ele>
        <time>2022-05-19T07:41:26Z</time>
      </trkpt>
      <trkpt lat="47.52646" lon="2.0867534">
        <ele>163.0</ele>
        <time>2022-05-19T07:41:27Z</time>
      </trkpt>
      <trkpt lat="47.526455" lon="2.086768">
        <ele>163.0</ele>
        <time>2022-05-19T07:41:28Z</time>
      </trkpt>
      <trkpt lat="47.526447" lon="2.0867813">
        <ele>164.0</ele>
        <time>2022-05-19T07:41:29Z</time>
      </trkpt>
      <trkpt lat="47.52644" lon="2.0867958">
        <ele>164.0</ele>
        <time>2022-05-19T07:41:30Z</time>
      </trkpt>
      <trkpt lat="47.526432" lon="2.08681">
        <ele>164.0</ele>
        <time>2022-05-19T07:41:31Z</time>
      </trkpt>
      <trkpt lat="47.52643" lon="2.086826">
        <ele>164.0</ele>
        <time>2022-05-19T07:41:32Z</time>
      </trkpt>
      <trkpt lat="47.526424" lon="2.0868423">
        <ele>164.0</ele>
        <time>2022-05-19T07:41:33Z</time>
      </trkpt>
      <trkpt lat="47.526417" lon="2.0868618">
        <ele>164.0</ele>
        <time>2022-05-19T07:41:34Z</time>
      </trkpt>
      <trkpt lat="47.52641" lon="2.0868795">
        <ele>163.0</ele>
        <time>2022-05-19T07:41:35Z</time>
      </trkpt>
      <trkpt lat="47.526405" lon="2.0868945">
        <ele>163.0</ele>
        <time>2022-05-19T07:41:36Z</time>
      </trkpt>
      <trkpt lat="47.5264" lon="2.0869105">
        <ele>163.0</ele>
        <time>2022-05-19T07:41:37Z</time>
      </trkpt>
      <trkpt lat="47.526398" lon="2.0869253">
        <ele>163.0</ele>
        <time>2022-05-19T07:41:38Z</time>
      </trkpt>
      <trkpt lat="47.526394" lon="2.08694">
        <ele>163.0</ele>
        <time>2022-05-19T07:41:39Z</time>
      </trkpt>
      <trkpt lat="47.526394" lon="2.0869567">
        <ele>163.0</ele>
        <time>2022-05-19T07:41:40Z</time>
      </trkpt>
      <trkpt lat="47.52639" lon="2.0869741">
        <ele>163.0</ele>
        <time>2022-05-19T07:41:41Z</time>
      </trkpt>
      <trkpt lat="47.52639" lon="2.0869923">
        <ele>163.0</ele>
        <time>2022-05-19T07:41:42Z</time>
      </trkpt>
      <trkpt lat="47.52639" lon="2.0870075">
        <ele>163.0</ele>
        <time>2022-05-19T07:41:43Z</time>
      </trkpt>
      <trkpt lat="47.526386" lon="2.0870242">
        <ele>162.0</ele>
        <time>2022-05-19T07:41:44Z</time>
      </trkpt>
      <trkpt lat="47.526382" lon="2.0870433">
        <ele>163.0</ele>
        <time>2022-05-19T07:41:45Z</time>
      </trkpt>
      <trkpt lat="47.526382" lon="2.0870607">
        <ele>163.0</ele>
        <time>2022-05-19T07:41:46Z</time>
      </trkpt>
      <trkpt lat="47.52638" lon="2.087076">
        <ele>163.0</ele>
        <time>2022-05-19T07:41:47Z</time>
      </trkpt>
      <trkpt lat="47.526375" lon="2.087094">
        <ele>163.0</ele>
        <time>2022-05-19T07:41:48Z</time>
      </trkpt>
      <trkpt lat="47.52637" lon="2.0871124">
        <ele>163.0</ele>
        <time>2022-05-19T07:41:49Z</time>
      </trkpt>
      <trkpt lat="47.526367" lon="2.0871308">
        <ele>163.0</ele>
        <time>2022-05-19T07:41:50Z</time>
      </trkpt>
      <trkpt lat="47.526363" lon="2.0871477">
        <ele>163.0</ele>
        <time>2022-05-19T07:41:51Z</time>
      </trkpt>
      <trkpt lat="47.526363" lon="2.0871665">
        <ele>163.0</ele>
        <time>2022-05-19T07:41:52Z</time>
      </trkpt>
      <trkpt lat="47.526363" lon="2.0871828">
        <ele>163.0</ele>
        <time>2022-05-19T07:41:53Z</time>
      </trkpt>
      <trkpt lat="47.52636" lon="2.0871968">
        <ele>162.0</ele>
        <time>2022-05-19T07:41:54Z</time>
      </trkpt>
      <trkpt lat="47.52636" lon="2.0872104">
        <ele>162.0</ele>
        <time>2022-05-19T07:41:55Z</time>
      </trkpt>
      <trkpt lat="47.526356" lon="2.0872266">
        <ele>162.0</ele>
        <time>2022-05-19T07:41:56Z</time>
      </trkpt>
      <trkpt lat="47.526352" lon="2.087246">
        <ele>162.0</ele>
        <time>2022-05-19T07:41:57Z</time>
      </trkpt>
      <trkpt lat="47.526352" lon="2.0872633">
        <ele>162.0</ele>
        <time>2022-05-19T07:41:58Z</time>
      </trkpt>
      <trkpt lat="47.52635" lon="2.0872838">
        <ele>162.0</ele>
        <time>2022-05-19T07:41:59Z</time>
      </trkpt>
      <trkpt lat="47.526344" lon="2.0873017">
        <ele>162.0</ele>
        <time>2022-05-19T07:42:00Z</time>
      </trkpt>
      <trkpt lat="47.52634" lon="2.0873208">
        <ele>162.0</ele>
        <time>2022-05-19T07:42:01Z</time>
      </trkpt>
      <trkpt lat="47.526337" lon="2.0873413">
        <ele>162.0</ele>
        <time>2022-05-19T07:42:02Z</time>
      </trkpt>
      <trkpt lat="47.526333" lon="2.0873625">
        <ele>162.0</ele>
        <time>2022-05-19T07:42:03Z</time>
      </trkpt>
      <trkpt lat="47.52633" lon="2.0873854">
        <ele>162.0</ele>
        <time>2022-05-19T07:42:04Z</time>
      </trkpt>
      <trkpt lat="47.526325" lon="2.0874045">
        <ele>162.0</ele>
        <time>2022-05-19T07:42:05Z</time>
      </trkpt>
      <trkpt lat="47.52632" lon="2.0874228">
        <ele>162.0</ele>
        <time>2022-05-19T07:42:06Z</time>
      </trkpt>
      <trkpt lat="47.526314" lon="2.0874338">
        <ele>163.0</ele>
        <time>2022-05-19T07:42:07Z</time>
      </trkpt>
      <trkpt lat="47.52631" lon="2.087452">
        <ele>163.0</ele>
        <time>2022-05-19T07:42:08Z</time>
      </trkpt>
      <trkpt lat="47.526306" lon="2.0874708">
        <ele>163.0</ele>
        <time>2022-05-19T07:42:09Z</time>
      </trkpt>
      <trkpt lat="47.526302" lon="2.0874872">
        <ele>163.0</ele>
        <time>2022-05-19T07:42:10Z</time>
      </trkpt>
      <trkpt lat="47.5263" lon="2.0875058">
        <ele>162.0</ele>
        <time>2022-05-19T07:42:11Z</time>
      </trkpt>
      <trkpt lat="47.5263" lon="2.087524">
        <ele>162.0</ele>
        <time>2022-05-19T07:42:12Z</time>
      </trkpt>
      <trkpt lat="47.526295" lon="2.0875397">
        <ele>162.0</ele>
        <time>2022-05-19T07:42:13Z</time>
      </trkpt>
      <trkpt lat="47.526287" lon="2.0875583">
        <ele>163.0</ele>
        <time>2022-05-19T07:42:14Z</time>
      </trkpt>
      <trkpt lat="47.52628" lon="2.087574">
        <ele>163.0</ele>
        <time>2022-05-19T07:42:15Z</time>
      </trkpt>
      <trkpt lat="47.526276" lon="2.0875928">
        <ele>163.0</ele>
        <time>2022-05-19T07:42:16Z</time>
      </trkpt>
      <trkpt lat="47.526268" lon="2.0876157">
        <ele>163.0</ele>
        <time>2022-05-19T07:42:17Z</time>
      </trkpt>
      <trkpt lat="47.52626" lon="2.0876343">
        <ele>162.0</ele>
        <time>2022-05-19T07:42:18Z</time>
      </trkpt>
      <trkpt lat="47.526253" lon="2.0876513">
        <ele>162.0</ele>
        <time>2022-05-19T07:42:19Z</time>
      </trkpt>
      <trkpt lat="47.52625" lon="2.08767">
        <ele>162.0</ele>
        <time>2022-05-19T07:42:20Z</time>
      </trkpt>
      <trkpt lat="47.526245" lon="2.0876904">
        <ele>162.0</ele>
        <time>2022-05-19T07:42:21Z</time>
      </trkpt>
      <trkpt lat="47.52624" lon="2.087707">
        <ele>162.0</ele>
        <time>2022-05-19T07:42:22Z</time>
      </trkpt>
      <trkpt lat="47.52624" lon="2.0877242">
        <ele>162.0</ele>
        <time>2022-05-19T07:42:23Z</time>
      </trkpt>
      <trkpt lat="47.526237" lon="2.0877433">
        <ele>162.0</ele>
        <time>2022-05-19T07:42:24Z</time>
      </trkpt>
      <trkpt lat="47.526234" lon="2.08776">
        <ele>162.0</ele>
        <time>2022-05-19T07:42:25Z</time>
      </trkpt>
      <trkpt lat="47.526234" lon="2.0877757">
        <ele>162.0</ele>
        <time>2022-05-19T07:42:26Z</time>
      </trkpt>
      <trkpt lat="47.52623" lon="2.0877905">
        <ele>162.0</ele>
        <time>2022-05-19T07:42:27Z</time>
      </trkpt>
      <trkpt lat="47.526226" lon="2.0878057">
        <ele>162.0</ele>
        <time>2022-05-19T07:42:28Z</time>
      </trkpt>
      <trkpt lat="47.526222" lon="2.0878265">
        <ele>161.0</ele>
        <time>2022-05-19T07:42:29Z</time>
      </trkpt>
      <trkpt lat="47.52622" lon="2.0878432">
        <ele>161.0</ele>
        <time>2022-05-19T07:42:30Z</time>
      </trkpt>
      <trkpt lat="47.52622" lon="2.0878618">
        <ele>161.0</ele>
        <time>2022-05-19T07:42:31Z</time>
      </trkpt>
      <trkpt lat="47.526215" lon="2.087879">
        <ele>161.0</ele>
        <time>2022-05-19T07:42:32Z</time>
      </trkpt>
      <trkpt lat="47.52621" lon="2.0878973">
        <ele>161.0</ele>
        <time>2022-05-19T07:42:33Z</time>
      </trkpt>
      <trkpt lat="47.526207" lon="2.0879185">
        <ele>161.0</ele>
        <time>2022-05-19T07:42:34Z</time>
      </trkpt>
      <trkpt lat="47.526203" lon="2.0879369">
        <ele>161.0</ele>
        <time>2022-05-19T07:42:35Z</time>
      </trkpt>
      <trkpt lat="47.5262" lon="2.0879552">
        <ele>161.0</ele>
        <time>2022-05-19T07:42:36Z</time>
      </trkpt>
      <trkpt lat="47.526196" lon="2.087972">
        <ele>161.0</ele>
        <time>2022-05-19T07:42:37Z</time>
      </trkpt>
      <trkpt lat="47.52619" lon="2.0879865">
        <ele>161.0</ele>
        <time>2022-05-19T07:42:38Z</time>
      </trkpt>
      <trkpt lat="47.526184" lon="2.0880017">
        <ele>161.0</ele>
        <time>2022-05-19T07:42:39Z</time>
      </trkpt>
      <trkpt lat="47.526176" lon="2.0880125">
        <ele>161.0</ele>
        <time>2022-05-19T07:42:40Z</time>
      </trkpt>
      <trkpt lat="47.526173" lon="2.0880296">
        <ele>161.0</ele>
        <time>2022-05-19T07:42:41Z</time>
      </trkpt>
      <trkpt lat="47.52617" lon="2.0880466">
        <ele>160.0</ele>
        <time>2022-05-19T07:42:42Z</time>
      </trkpt>
      <trkpt lat="47.52617" lon="2.088064">
        <ele>160.0</ele>
        <time>2022-05-19T07:42:43Z</time>
      </trkpt>
      <trkpt lat="47.526165" lon="2.0880826">
        <ele>159.0</ele>
        <time>2022-05-19T07:42:44Z</time>
      </trkpt>
      <trkpt lat="47.52616" lon="2.0880976">
        <ele>160.0</ele>
        <time>2022-05-19T07:42:45Z</time>
      </trkpt>
      <trkpt lat="47.526154" lon="2.0881147">
        <ele>160.0</ele>
        <time>2022-05-19T07:42:46Z</time>
      </trkpt>
      <trkpt lat="47.526146" lon="2.0881326">
        <ele>160.0</ele>
        <time>2022-05-19T07:42:47Z</time>
      </trkpt>
      <trkpt lat="47.526142" lon="2.0881488">
        <ele>160.0</ele>
        <time>2022-05-19T07:42:48Z</time>
      </trkpt>
      <trkpt lat="47.52614" lon="2.0881667">
        <ele>160.0</ele>
        <time>2022-05-19T07:42:49Z</time>
      </trkpt>
      <trkpt lat="47.526134" lon="2.0881827">
        <ele>161.0</ele>
        <time>2022-05-19T07:42:50Z</time>
      </trkpt>
      <trkpt lat="47.526134" lon="2.0881996">
        <ele>161.0</ele>
        <time>2022-05-19T07:42:51Z</time>
      </trkpt>
      <trkpt lat="47.52613" lon="2.0882204">
        <ele>161.0</ele>
        <time>2022-05-19T07:42:52Z</time>
      </trkpt>
      <trkpt lat="47.526127" lon="2.0882394">
        <ele>161.0</ele>
        <time>2022-05-19T07:42:53Z</time>
      </trkpt>
      <trkpt lat="47.526123" lon="2.0882602">
        <ele>162.0</ele>
        <time>2022-05-19T07:42:54Z</time>
      </trkpt>
      <trkpt lat="47.526115" lon="2.0882776">
        <ele>162.0</ele>
        <time>2022-05-19T07:42:55Z</time>
      </trkpt>
      <trkpt lat="47.52611" lon="2.0882945">
        <ele>162.0</ele>
        <time>2022-05-19T07:42:56Z</time>
      </trkpt>
      <trkpt lat="47.52611" lon="2.088311">
        <ele>162.0</ele>
        <time>2022-05-19T07:42:57Z</time>
      </trkpt>
      <trkpt lat="47.526108" lon="2.088323">
        <ele>162.0</ele>
        <time>2022-05-19T07:42:58Z</time>
      </trkpt>
      <trkpt lat="47.526104" lon="2.0883393">
        <ele>162.0</ele>
        <time>2022-05-19T07:42:59Z</time>
      </trkpt>
      <trkpt lat="47.5261" lon="2.0883582">
        <ele>162.0</ele>
        <time>2022-05-19T07:43:00Z</time>
      </trkpt>
      <trkpt lat="47.526096" lon="2.0883749">
        <ele>162.0</ele>
        <time>2022-05-19T07:43:01Z</time>
      </trkpt>
      <trkpt lat="47.526096" lon="2.0883882">
        <ele>161.0</ele>
        <time>2022-05-19T07:43:02Z</time>
      </trkpt>
      <trkpt lat="47.526093" lon="2.0884035">
        <ele>162.0</ele>
        <time>2022-05-19T07:43:03Z</time>
      </trkpt>
      <trkpt lat="47.526093" lon="2.088415">
        <ele>162.0</ele>
        <time>2022-05-19T07:43:04Z</time>
      </trkpt>
      <trkpt lat="47.52609" lon="2.0884316">
        <ele>162.0</ele>
        <time>2022-05-19T07:43:05Z</time>
      </trkpt>
      <trkpt lat="47.526085" lon="2.0884502">
        <ele>162.0</ele>
        <time>2022-05-19T07:43:06Z</time>
      </trkpt>
      <trkpt lat="47.526077" lon="2.0884671">
        <ele>162.0</ele>
        <time>2022-05-19T07:43:07Z</time>
      </trkpt>
      <trkpt lat="47.526073" lon="2.0884829">
        <ele>162.0</ele>
        <time>2022-05-19T07:43:08Z</time>
      </trkpt>
      <trkpt lat="47.526066" lon="2.0884964">
        <ele>162.0</ele>
        <time>2022-05-19T07:43:09Z</time>
      </trkpt>
      <trkpt lat="47.526066" lon="2.0885136">
        <ele>162.0</ele>
        <time>2022-05-19T07:43:10Z</time>
      </trkpt>
      <trkpt lat="47.526066" lon="2.088534">
        <ele>162.0</ele>
        <time>2022-05-19T07:43:11Z</time>
      </trkpt>
      <trkpt lat="47.526066" lon="2.0885527">
        <ele>162.0</ele>
        <time>2022-05-19T07:43:12Z</time>
      </trkpt>
      <trkpt lat="47.526062" lon="2.0885684">
        <ele>162.0</ele>
        <time>2022-05-19T07:43:13Z</time>
      </trkpt>
      <trkpt lat="47.52606" lon="2.0885859">
        <ele>161.0</ele>
        <time>2022-05-19T07:43:14Z</time>
      </trkpt>
      <trkpt lat="47.526054" lon="2.088603">
        <ele>162.0</ele>
        <time>2022-05-19T07:43:15Z</time>
      </trkpt>
      <trkpt lat="47.526047" lon="2.088618">
        <ele>162.0</ele>
        <time>2022-05-19T07:43:16Z</time>
      </trkpt>
      <trkpt lat="47.52604" lon="2.0886314">
        <ele>162.0</ele>
        <time>2022-05-19T07:43:17Z</time>
      </trkpt>
      <trkpt lat="47.526035" lon="2.0886493">
        <ele>162.0</ele>
        <time>2022-05-19T07:43:18Z</time>
      </trkpt>
      <trkpt lat="47.526024" lon="2.088663">
        <ele>162.0</ele>
        <time>2022-05-19T07:43:19Z</time>
      </trkpt>
      <trkpt lat="47.52602" lon="2.0886781">
        <ele>162.0</ele>
        <time>2022-05-19T07:43:20Z</time>
      </trkpt>
      <trkpt lat="47.526016" lon="2.0886917">
        <ele>162.0</ele>
        <time>2022-05-19T07:43:21Z</time>
      </trkpt>
      <trkpt lat="47.52601" lon="2.0887065">
        <ele>162.0</ele>
        <time>2022-05-19T07:43:22Z</time>
      </trkpt>
      <trkpt lat="47.526005" lon="2.0887268">
        <ele>162.0</ele>
        <time>2022-05-19T07:43:23Z</time>
      </trkpt>
      <trkpt lat="47.526005" lon="2.0887427">
        <ele>162.0</ele>
        <time>2022-05-19T07:43:24Z</time>
      </trkpt>
      <trkpt lat="47.526005" lon="2.0887663">
        <ele>162.0</ele>
        <time>2022-05-19T07:43:25Z</time>
      </trkpt>
      <trkpt lat="47.526005" lon="2.0887856">
        <ele>163.0</ele>
        <time>2022-05-19T07:43:26Z</time>
      </trkpt>
      <trkpt lat="47.526" lon="2.088799">
        <ele>162.0</ele>
        <time>2022-05-19T07:43:27Z</time>
      </trkpt>
      <trkpt lat="47.525997" lon="2.088817">
        <ele>162.0</ele>
        <time>2022-05-19T07:43:28Z</time>
      </trkpt>
      <trkpt lat="47.525993" lon="2.0888348">
        <ele>162.0</ele>
        <time>2022-05-19T07:43:29Z</time>
      </trkpt>
      <trkpt lat="47.52599" lon="2.0888495">
        <ele>162.0</ele>
        <time>2022-05-19T07:43:30Z</time>
      </trkpt>
      <trkpt lat="47.525986" lon="2.088861">
        <ele>162.0</ele>
        <time>2022-05-19T07:43:31Z</time>
      </trkpt>
      <trkpt lat="47.52598" lon="2.0888734">
        <ele>162.0</ele>
        <time>2022-05-19T07:43:32Z</time>
      </trkpt>
      <trkpt lat="47.525978" lon="2.088889">
        <ele>162.0</ele>
        <time>2022-05-19T07:43:33Z</time>
      </trkpt>
      <trkpt lat="47.525978" lon="2.0889027">
        <ele>162.0</ele>
        <time>2022-05-19T07:43:34Z</time>
      </trkpt>
      <trkpt lat="47.525974" lon="2.0889213">
        <ele>162.0</ele>
        <time>2022-05-19T07:43:35Z</time>
      </trkpt>
      <trkpt lat="47.525967" lon="2.0889397">
        <ele>162.0</ele>
        <time>2022-05-19T07:43:36Z</time>
      </trkpt>
      <trkpt lat="47.525963" lon="2.0889614">
        <ele>163.0</ele>
        <time>2022-05-19T07:43:37Z</time>
      </trkpt>
      <trkpt lat="47.52596" lon="2.088981">
        <ele>163.0</ele>
        <time>2022-05-19T07:43:38Z</time>
      </trkpt>
      <trkpt lat="47.525955" lon="2.0889966">
        <ele>162.0</ele>
        <time>2022-05-19T07:43:39Z</time>
      </trkpt>
      <trkpt lat="47.525955" lon="2.0890133">
        <ele>162.0</ele>
        <time>2022-05-19T07:43:40Z</time>
      </trkpt>
      <trkpt lat="47.525955" lon="2.0890255">
        <ele>162.0</ele>
        <time>2022-05-19T07:43:41Z</time>
      </trkpt>
      <trkpt lat="47.52595" lon="2.0890434">
        <ele>163.0</ele>
        <time>2022-05-19T07:43:42Z</time>
      </trkpt>
      <trkpt lat="47.52595" lon="2.0890648">
        <ele>163.0</ele>
        <time>2022-05-19T07:43:43Z</time>
      </trkpt>
      <trkpt lat="47.525944" lon="2.0890765">
        <ele>164.0</ele>
        <time>2022-05-19T07:43:44Z</time>
      </trkpt>
      <trkpt lat="47.52594" lon="2.089093">
        <ele>163.0</ele>
        <time>2022-05-19T07:43:45Z</time>
      </trkpt>
      <trkpt lat="47.525936" lon="2.0891078">
        <ele>163.0</ele>
        <time>2022-05-19T07:43:46Z</time>
      </trkpt>
      <trkpt lat="47.525932" lon="2.0891252">
        <ele>163.0</ele>
        <time>2022-05-19T07:43:47Z</time>
      </trkpt>
      <trkpt lat="47.52593" lon="2.0891445">
        <ele>163.0</ele>
        <time>2022-05-19T07:43:48Z</time>
      </trkpt>
      <trkpt lat="47.525925" lon="2.0891633">
        <ele>162.0</ele>
        <time>2022-05-19T07:43:49Z</time>
      </trkpt>
      <trkpt lat="47.525917" lon="2.0891805">
        <ele>162.0</ele>
        <time>2022-05-19T07:43:50Z</time>
      </trkpt>
      <trkpt lat="47.525913" lon="2.0892003">
        <ele>162.0</ele>
        <time>2022-05-19T07:43:51Z</time>
      </trkpt>
      <trkpt lat="47.52591" lon="2.0892193">
        <ele>161.0</ele>
        <time>2022-05-19T07:43:52Z</time>
      </trkpt>
      <trkpt lat="47.52591" lon="2.0892367">
        <ele>162.0</ele>
        <time>2022-05-19T07:43:53Z</time>
      </trkpt>
      <trkpt lat="47.52591" lon="2.0892522">
        <ele>162.0</ele>
        <time>2022-05-19T07:43:54Z</time>
      </trkpt>
      <trkpt lat="47.525906" lon="2.0892694">
        <ele>162.0</ele>
        <time>2022-05-19T07:43:55Z</time>
      </trkpt>
      <trkpt lat="47.5259" lon="2.089288">
        <ele>162.0</ele>
        <time>2022-05-19T07:43:56Z</time>
      </trkpt>
      <trkpt lat="47.5259" lon="2.0893002">
        <ele>162.0</ele>
        <time>2022-05-19T07:43:57Z</time>
      </trkpt>
      <trkpt lat="47.525898" lon="2.0893178">
        <ele>162.0</ele>
        <time>2022-05-19T07:43:58Z</time>
      </trkpt>
      <trkpt lat="47.525898" lon="2.0893333">
        <ele>162.0</ele>
        <time>2022-05-19T07:43:59Z</time>
      </trkpt>
      <trkpt lat="47.525898" lon="2.08935">
        <ele>163.0</ele>
        <time>2022-05-19T07:44:00Z</time>
      </trkpt>
      <trkpt lat="47.525898" lon="2.089367">
        <ele>162.0</ele>
        <time>2022-05-19T07:44:01Z</time>
      </trkpt>
      <trkpt lat="47.5259" lon="2.0893836">
        <ele>163.0</ele>
        <time>2022-05-19T07:44:02Z</time>
      </trkpt>
      <trkpt lat="47.5259" lon="2.0894005">
        <ele>163.0</ele>
        <time>2022-05-19T07:44:03Z</time>
      </trkpt>
      <trkpt lat="47.525906" lon="2.0894163">
        <ele>163.0</ele>
        <time>2022-05-19T07:44:04Z</time>
      </trkpt>
      <trkpt lat="47.525906" lon="2.089433">
        <ele>162.0</ele>
        <time>2022-05-19T07:44:05Z</time>
      </trkpt>
      <trkpt lat="47.5259" lon="2.0894523">
        <ele>163.0</ele>
        <time>2022-05-19T07:44:06Z</time>
      </trkpt>
      <trkpt lat="47.525898" lon="2.089464">
        <ele>163.0</ele>
        <time>2022-05-19T07:44:07Z</time>
      </trkpt>
      <trkpt lat="47.525894" lon="2.0894778">
        <ele>164.0</ele>
        <time>2022-05-19T07:44:08Z</time>
      </trkpt>
      <trkpt lat="47.525887" lon="2.089492">
        <ele>164.0</ele>
        <time>2022-05-19T07:44:09Z</time>
      </trkpt>
      <trkpt lat="47.525883" lon="2.0895052">
        <ele>165.0</ele>
        <time>2022-05-19T07:44:10Z</time>
      </trkpt>
      <trkpt lat="47.525875" lon="2.089519">
        <ele>165.0</ele>
        <time>2022-05-19T07:44:11Z</time>
      </trkpt>
      <trkpt lat="47.52587" lon="2.0895367">
        <ele>165.0</ele>
        <time>2022-05-19T07:44:12Z</time>
      </trkpt>
      <trkpt lat="47.525867" lon="2.0895538">
        <ele>165.0</ele>
        <time>2022-05-19T07:44:13Z</time>
      </trkpt>
      <trkpt lat="47.52586" lon="2.089571">
        <ele>165.0</ele>
        <time>2022-05-19T07:44:14Z</time>
      </trkpt>
      <trkpt lat="47.525856" lon="2.0895836">
        <ele>165.0</ele>
        <time>2022-05-19T07:44:15Z</time>
      </trkpt>
      <trkpt lat="47.525845" lon="2.0896022">
        <ele>165.0</ele>
        <time>2022-05-19T07:44:16Z</time>
      </trkpt>
      <trkpt lat="47.52584" lon="2.0896196">
        <ele>165.0</ele>
        <time>2022-05-19T07:44:17Z</time>
      </trkpt>
      <trkpt lat="47.525837" lon="2.0896358">
        <ele>165.0</ele>
        <time>2022-05-19T07:44:18Z</time>
      </trkpt>
      <trkpt lat="47.525833" lon="2.0896518">
        <ele>165.0</ele>
        <time>2022-05-19T07:44:19Z</time>
      </trkpt>
      <trkpt lat="47.525833" lon="2.0896668">
        <ele>165.0</ele>
        <time>2022-05-19T07:44:20Z</time>
      </trkpt>
      <trkpt lat="47.52583" lon="2.0896833">
        <ele>165.0</ele>
        <time>2022-05-19T07:44:21Z</time>
      </trkpt>
      <trkpt lat="47.52583" lon="2.0897">
        <ele>165.0</ele>
        <time>2022-05-19T07:44:22Z</time>
      </trkpt>
      <trkpt lat="47.525826" lon="2.0897202">
        <ele>164.0</ele>
        <time>2022-05-19T07:44:23Z</time>
      </trkpt>
      <trkpt lat="47.52582" lon="2.0897388">
        <ele>164.0</ele>
        <time>2022-05-19T07:44:24Z</time>
      </trkpt>
      <trkpt lat="47.52582" lon="2.089753">
        <ele>164.0</ele>
        <time>2022-05-19T07:44:25Z</time>
      </trkpt>
      <trkpt lat="47.525818" lon="2.08977">
        <ele>164.0</ele>
        <time>2022-05-19T07:44:26Z</time>
      </trkpt>
      <trkpt lat="47.525814" lon="2.0897863">
        <ele>165.0</ele>
        <time>2022-05-19T07:44:27Z</time>
      </trkpt>
      <trkpt lat="47.525814" lon="2.0898008">
        <ele>164.0</ele>
        <time>2022-05-19T07:44:28Z</time>
      </trkpt>
      <trkpt lat="47.525814" lon="2.089818">
        <ele>164.0</ele>
        <time>2022-05-19T07:44:29Z</time>
      </trkpt>
      <trkpt lat="47.52581" lon="2.0898364">
        <ele>164.0</ele>
        <time>2022-05-19T07:44:30Z</time>
      </trkpt>
      <trkpt lat="47.52581" lon="2.0898535">
        <ele>164.0</ele>
        <time>2022-05-19T07:44:31Z</time>
      </trkpt>
      <trkpt lat="47.525806" lon="2.0898695">
        <ele>164.0</ele>
        <time>2022-05-19T07:44:32Z</time>
      </trkpt>
      <trkpt lat="47.525803" lon="2.0898864">
        <ele>164.0</ele>
        <time>2022-05-19T07:44:33Z</time>
      </trkpt>
      <trkpt lat="47.5258" lon="2.0899053">
        <ele>164.0</ele>
        <time>2022-05-19T07:44:34Z</time>
      </trkpt>
      <trkpt lat="47.525795" lon="2.0899267">
        <ele>164.0</ele>
        <time>2022-05-19T07:44:35Z</time>
      </trkpt>
      <trkpt lat="47.52579" lon="2.0899446">
        <ele>164.0</ele>
        <time>2022-05-19T07:44:36Z</time>
      </trkpt>
      <trkpt lat="47.525787" lon="2.089965">
        <ele>164.0</ele>
        <time>2022-05-19T07:44:37Z</time>
      </trkpt>
      <trkpt lat="47.52578" lon="2.0899804">
        <ele>164.0</ele>
        <time>2022-05-19T07:44:38Z</time>
      </trkpt>
      <trkpt lat="47.525772" lon="2.089994">
        <ele>164.0</ele>
        <time>2022-05-19T07:44:39Z</time>
      </trkpt>
      <trkpt lat="47.52577" lon="2.0900092">
        <ele>164.0</ele>
        <time>2022-05-19T07:44:40Z</time>
      </trkpt>
      <trkpt lat="47.52577" lon="2.0900266">
        <ele>164.0</ele>
        <time>2022-05-19T07:44:41Z</time>
      </trkpt>
      <trkpt lat="47.525764" lon="2.0900426">
        <ele>164.0</ele>
        <time>2022-05-19T07:44:42Z</time>
      </trkpt>
      <trkpt lat="47.52576" lon="2.0900602">
        <ele>164.0</ele>
        <time>2022-05-19T07:44:43Z</time>
      </trkpt>
      <trkpt lat="47.525757" lon="2.0900795">
        <ele>164.0</ele>
        <time>2022-05-19T07:44:44Z</time>
      </trkpt>
      <trkpt lat="47.525753" lon="2.0900962">
        <ele>164.0</ele>
        <time>2022-05-19T07:44:45Z</time>
      </trkpt>
      <trkpt lat="47.525753" lon="2.0901053">
        <ele>164.0</ele>
        <time>2022-05-19T07:44:46Z</time>
      </trkpt>
      <trkpt lat="47.52575" lon="2.0901148">
        <ele>163.0</ele>
        <time>2022-05-19T07:44:47Z</time>
      </trkpt>
      <trkpt lat="47.525745" lon="2.090134">
        <ele>163.0</ele>
        <time>2022-05-19T07:44:48Z</time>
      </trkpt>
      <trkpt lat="47.52574" lon="2.0901494">
        <ele>163.0</ele>
        <time>2022-05-19T07:44:49Z</time>
      </trkpt>
      <trkpt lat="47.525738" lon="2.0901701">
        <ele>163.0</ele>
        <time>2022-05-19T07:44:50Z</time>
      </trkpt>
      <trkpt lat="47.525734" lon="2.0901873">
        <ele>163.0</ele>
        <time>2022-05-19T07:44:51Z</time>
      </trkpt>
      <trkpt lat="47.525734" lon="2.0902038">
        <ele>163.0</ele>
        <time>2022-05-19T07:44:52Z</time>
      </trkpt>
      <trkpt lat="47.525726" lon="2.0902205">
        <ele>163.0</ele>
        <time>2022-05-19T07:44:53Z</time>
      </trkpt>
      <trkpt lat="47.525723" lon="2.0902388">
        <ele>163.0</ele>
        <time>2022-05-19T07:44:54Z</time>
      </trkpt>
      <trkpt lat="47.52572" lon="2.0902557">
        <ele>163.0</ele>
        <time>2022-05-19T07:44:55Z</time>
      </trkpt>
      <trkpt lat="47.52572" lon="2.0902724">
        <ele>163.0</ele>
        <time>2022-05-19T07:44:56Z</time>
      </trkpt>
      <trkpt lat="47.525715" lon="2.0902886">
        <ele>163.0</ele>
        <time>2022-05-19T07:44:57Z</time>
      </trkpt>
      <trkpt lat="47.525715" lon="2.090307">
        <ele>163.0</ele>
        <time>2022-05-19T07:44:58Z</time>
      </trkpt>
      <trkpt lat="47.525715" lon="2.0903225">
        <ele>163.0</ele>
        <time>2022-05-19T07:44:59Z</time>
      </trkpt>
      <trkpt lat="47.52571" lon="2.0903375">
        <ele>163.0</ele>
        <time>2022-05-19T07:45:00Z</time>
      </trkpt>
      <trkpt lat="47.525703" lon="2.0903516">
        <ele>163.0</ele>
        <time>2022-05-19T07:45:01Z</time>
      </trkpt>
      <trkpt lat="47.5257" lon="2.0903687">
        <ele>162.0</ele>
        <time>2022-05-19T07:45:02Z</time>
      </trkpt>
      <trkpt lat="47.525696" lon="2.0903845">
        <ele>162.0</ele>
        <time>2022-05-19T07:45:03Z</time>
      </trkpt>
      <trkpt lat="47.52569" lon="2.0904024">
        <ele>162.0</ele>
        <time>2022-05-19T07:45:04Z</time>
      </trkpt>
      <trkpt lat="47.525684" lon="2.090415">
        <ele>162.0</ele>
        <time>2022-05-19T07:45:05Z</time>
      </trkpt>
      <trkpt lat="47.52568" lon="2.0904315">
        <ele>162.0</ele>
        <time>2022-05-19T07:45:06Z</time>
      </trkpt>
      <trkpt lat="47.525677" lon="2.0904512">
        <ele>162.0</ele>
        <time>2022-05-19T07:45:07Z</time>
      </trkpt>
      <trkpt lat="47.52567" lon="2.0904708">
        <ele>162.0</ele>
        <time>2022-05-19T07:45:08Z</time>
      </trkpt>
      <trkpt lat="47.525665" lon="2.0904887">
        <ele>162.0</ele>
        <time>2022-05-19T07:45:09Z</time>
      </trkpt>
      <trkpt lat="47.52566" lon="2.0905058">
        <ele>162.0</ele>
        <time>2022-05-19T07:45:10Z</time>
      </trkpt>
      <trkpt lat="47.52566" lon="2.0905228">
        <ele>162.0</ele>
        <time>2022-05-19T07:45:11Z</time>
      </trkpt>
      <trkpt lat="47.525658" lon="2.0905385">
        <ele>162.0</ele>
        <time>2022-05-19T07:45:12Z</time>
      </trkpt>
      <trkpt lat="47.525658" lon="2.0905576">
        <ele>162.0</ele>
        <time>2022-05-19T07:45:13Z</time>
      </trkpt>
      <trkpt lat="47.525654" lon="2.090577">
        <ele>162.0</ele>
        <time>2022-05-19T07:45:14Z</time>
      </trkpt>
      <trkpt lat="47.525654" lon="2.0905952">
        <ele>162.0</ele>
        <time>2022-05-19T07:45:15Z</time>
      </trkpt>
      <trkpt lat="47.52565" lon="2.0906115">
        <ele>162.0</ele>
        <time>2022-05-19T07:45:16Z</time>
      </trkpt>
      <trkpt lat="47.525646" lon="2.0906272">
        <ele>162.0</ele>
        <time>2022-05-19T07:45:17Z</time>
      </trkpt>
      <trkpt lat="47.525642" lon="2.0906422">
        <ele>162.0</ele>
        <time>2022-05-19T07:45:18Z</time>
      </trkpt>
      <trkpt lat="47.52564" lon="2.090658">
        <ele>162.0</ele>
        <time>2022-05-19T07:45:19Z</time>
      </trkpt>
      <trkpt lat="47.525635" lon="2.0906715">
        <ele>162.0</ele>
        <time>2022-05-19T07:45:20Z</time>
      </trkpt>
      <trkpt lat="47.525627" lon="2.090692">
        <ele>162.0</ele>
        <time>2022-05-19T07:45:21Z</time>
      </trkpt>
      <trkpt lat="47.525623" lon="2.0907078">
        <ele>162.0</ele>
        <time>2022-05-19T07:45:22Z</time>
      </trkpt>
      <trkpt lat="47.525616" lon="2.0907238">
        <ele>162.0</ele>
        <time>2022-05-19T07:45:23Z</time>
      </trkpt>
      <trkpt lat="47.52561" lon="2.0907433">
        <ele>161.0</ele>
        <time>2022-05-19T07:45:24Z</time>
      </trkpt>
      <trkpt lat="47.52561" lon="2.0907614">
        <ele>162.0</ele>
        <time>2022-05-19T07:45:25Z</time>
      </trkpt>
      <trkpt lat="47.525608" lon="2.0907788">
        <ele>161.0</ele>
        <time>2022-05-19T07:45:26Z</time>
      </trkpt>
      <trkpt lat="47.525604" lon="2.0907943">
        <ele>161.0</ele>
        <time>2022-05-19T07:45:27Z</time>
      </trkpt>
      <trkpt lat="47.5256" lon="2.0908089">
        <ele>161.0</ele>
        <time>2022-05-19T07:45:28Z</time>
      </trkpt>
      <trkpt lat="47.525597" lon="2.0908275">
        <ele>161.0</ele>
        <time>2022-05-19T07:45:29Z</time>
      </trkpt>
      <trkpt lat="47.525593" lon="2.0908446">
        <ele>161.0</ele>
        <time>2022-05-19T07:45:30Z</time>
      </trkpt>
      <trkpt lat="47.52559" lon="2.090863">
        <ele>161.0</ele>
        <time>2022-05-19T07:45:31Z</time>
      </trkpt>
      <trkpt lat="47.52558" lon="2.0908787">
        <ele>161.0</ele>
        <time>2022-05-19T07:45:32Z</time>
      </trkpt>
      <trkpt lat="47.525574" lon="2.0908937">
        <ele>162.0</ele>
        <time>2022-05-19T07:45:33Z</time>
      </trkpt>
      <trkpt lat="47.525566" lon="2.0909116">
        <ele>162.0</ele>
        <time>2022-05-19T07:45:34Z</time>
      </trkpt>
      <trkpt lat="47.525562" lon="2.0909278">
        <ele>162.0</ele>
        <time>2022-05-19T07:45:35Z</time>
      </trkpt>
      <trkpt lat="47.525555" lon="2.0909407">
        <ele>162.0</ele>
        <time>2022-05-19T07:45:36Z</time>
      </trkpt>
      <trkpt lat="47.525555" lon="2.0909603">
        <ele>163.0</ele>
        <time>2022-05-19T07:45:37Z</time>
      </trkpt>
      <trkpt lat="47.52555" lon="2.090977">
        <ele>163.0</ele>
        <time>2022-05-19T07:45:38Z</time>
      </trkpt>
      <trkpt lat="47.525547" lon="2.0909908">
        <ele>163.0</ele>
        <time>2022-05-19T07:45:39Z</time>
      </trkpt>
      <trkpt lat="47.525536" lon="2.0910056">
        <ele>163.0</ele>
        <time>2022-05-19T07:45:40Z</time>
      </trkpt>
      <trkpt lat="47.525528" lon="2.0910199">
        <ele>164.0</ele>
        <time>2022-05-19T07:45:41Z</time>
      </trkpt>
      <trkpt lat="47.525524" lon="2.0910356">
        <ele>164.0</ele>
        <time>2022-05-19T07:45:42Z</time>
      </trkpt>
      <trkpt lat="47.525517" lon="2.0910537">
        <ele>164.0</ele>
        <time>2022-05-19T07:45:43Z</time>
      </trkpt>
      <trkpt lat="47.52551" lon="2.0910678">
        <ele>165.0</ele>
        <time>2022-05-19T07:45:44Z</time>
      </trkpt>
      <trkpt lat="47.525505" lon="2.091084">
        <ele>165.0</ele>
        <time>2022-05-19T07:45:45Z</time>
      </trkpt>
      <trkpt lat="47.525505" lon="2.091099">
        <ele>165.0</ele>
        <time>2022-05-19T07:45:46Z</time>
      </trkpt>
      <trkpt lat="47.525497" lon="2.0911179">
        <ele>165.0</ele>
        <time>2022-05-19T07:45:47Z</time>
      </trkpt>
      <trkpt lat="47.52549" lon="2.0911355">
        <ele>165.0</ele>
        <time>2022-05-19T07:45:48Z</time>
      </trkpt>
      <trkpt lat="47.525486" lon="2.0911531">
        <ele>165.0</ele>
        <time>2022-05-19T07:45:49Z</time>
      </trkpt>
      <trkpt lat="47.525482" lon="2.0911674">
        <ele>165.0</ele>
        <time>2022-05-19T07:45:50Z</time>
      </trkpt>
      <trkpt lat="47.52548" lon="2.091184">
        <ele>165.0</ele>
        <time>2022-05-19T07:45:51Z</time>
      </trkpt>
      <trkpt lat="47.525482" lon="2.0912004">
        <ele>165.0</ele>
        <time>2022-05-19T07:45:52Z</time>
      </trkpt>
      <trkpt lat="47.525482" lon="2.0912173">
        <ele>165.0</ele>
        <time>2022-05-19T07:45:53Z</time>
      </trkpt>
      <trkpt lat="47.525482" lon="2.0912344">
        <ele>165.0</ele>
        <time>2022-05-19T07:45:54Z</time>
      </trkpt>
      <trkpt lat="47.52548" lon="2.09125">
        <ele>165.0</ele>
        <time>2022-05-19T07:45:55Z</time>
      </trkpt>
      <trkpt lat="47.52548" lon="2.0912638">
        <ele>166.0</ele>
        <time>2022-05-19T07:45:56Z</time>
      </trkpt>
      <trkpt lat="47.52548" lon="2.0912814">
        <ele>166.0</ele>
        <time>2022-05-19T07:45:57Z</time>
      </trkpt>
      <trkpt lat="47.525475" lon="2.0912955">
        <ele>166.0</ele>
        <time>2022-05-19T07:45:58Z</time>
      </trkpt>
      <trkpt lat="47.52547" lon="2.091311">
        <ele>166.0</ele>
        <time>2022-05-19T07:45:59Z</time>
      </trkpt>
      <trkpt lat="47.525467" lon="2.0913317">
        <ele>166.0</ele>
        <time>2022-05-19T07:46:00Z</time>
      </trkpt>
      <trkpt lat="47.52546" lon="2.0913486">
        <ele>166.0</ele>
        <time>2022-05-19T07:46:01Z</time>
      </trkpt>
      <trkpt lat="47.525455" lon="2.0913646">
        <ele>166.0</ele>
        <time>2022-05-19T07:46:02Z</time>
      </trkpt>
      <trkpt lat="47.525455" lon="2.0913801">
        <ele>165.0</ele>
        <time>2022-05-19T07:46:03Z</time>
      </trkpt>
      <trkpt lat="47.52545" lon="2.0914006">
        <ele>165.0</ele>
        <time>2022-05-19T07:46:04Z</time>
      </trkpt>
      <trkpt lat="47.52545" lon="2.091419">
        <ele>166.0</ele>
        <time>2022-05-19T07:46:05Z</time>
      </trkpt>
      <trkpt lat="47.525444" lon="2.0914342">
        <ele>165.0</ele>
        <time>2022-05-19T07:46:06Z</time>
      </trkpt>
      <trkpt lat="47.52544" lon="2.0914507">
        <ele>165.0</ele>
        <time>2022-05-19T07:46:07Z</time>
      </trkpt>
      <trkpt lat="47.525436" lon="2.091467">
        <ele>165.0</ele>
        <time>2022-05-19T07:46:08Z</time>
      </trkpt>
      <trkpt lat="47.52543" lon="2.0914817">
        <ele>165.0</ele>
        <time>2022-05-19T07:46:09Z</time>
      </trkpt>
      <trkpt lat="47.52542" lon="2.0914974">
        <ele>165.0</ele>
        <time>2022-05-19T07:46:10Z</time>
      </trkpt>
      <trkpt lat="47.52542" lon="2.0915153">
        <ele>165.0</ele>
        <time>2022-05-19T07:46:11Z</time>
      </trkpt>
      <trkpt lat="47.525417" lon="2.091532">
        <ele>165.0</ele>
        <time>2022-05-19T07:46:12Z</time>
      </trkpt>
      <trkpt lat="47.525414" lon="2.091551">
        <ele>165.0</ele>
        <time>2022-05-19T07:46:13Z</time>
      </trkpt>
      <trkpt lat="47.525406" lon="2.0915709">
        <ele>165.0</ele>
        <time>2022-05-19T07:46:14Z</time>
      </trkpt>
      <trkpt lat="47.525406" lon="2.091589">
        <ele>165.0</ele>
        <time>2022-05-19T07:46:15Z</time>
      </trkpt>
      <trkpt lat="47.525402" lon="2.0916095">
        <ele>164.0</ele>
        <time>2022-05-19T07:46:16Z</time>
      </trkpt>
      <trkpt lat="47.5254" lon="2.091628">
        <ele>164.0</ele>
        <time>2022-05-19T07:46:17Z</time>
      </trkpt>
      <trkpt lat="47.525394" lon="2.091646">
        <ele>165.0</ele>
        <time>2022-05-19T07:46:18Z</time>
      </trkpt>
      <trkpt lat="47.52539" lon="2.0916607">
        <ele>165.0</ele>
        <time>2022-05-19T07:46:19Z</time>
      </trkpt>
      <trkpt lat="47.52538" lon="2.0916793">
        <ele>165.0</ele>
        <time>2022-05-19T07:46:20Z</time>
      </trkpt>
      <trkpt lat="47.525375" lon="2.0917003">
        <ele>165.0</ele>
        <time>2022-05-19T07:46:21Z</time>
      </trkpt>
      <trkpt lat="47.52537" lon="2.0917196">
        <ele>165.0</ele>
        <time>2022-05-19T07:46:22Z</time>
      </trkpt>
      <trkpt lat="47.52537" lon="2.0917366">
        <ele>166.0</ele>
        <time>2022-05-19T07:46:23Z</time>
      </trkpt>
      <trkpt lat="47.525368" lon="2.0917525">
        <ele>166.0</ele>
        <time>2022-05-19T07:46:24Z</time>
      </trkpt>
      <trkpt lat="47.525368" lon="2.091769">
        <ele>165.0</ele>
        <time>2022-05-19T07:46:25Z</time>
      </trkpt>
      <trkpt lat="47.525364" lon="2.0917823">
        <ele>165.0</ele>
        <time>2022-05-19T07:46:26Z</time>
      </trkpt>
      <trkpt lat="47.525364" lon="2.0917962">
        <ele>165.0</ele>
        <time>2022-05-19T07:46:27Z</time>
      </trkpt>
      <trkpt lat="47.525364" lon="2.0918167">
        <ele>165.0</ele>
        <time>2022-05-19T07:46:28Z</time>
      </trkpt>
      <trkpt lat="47.52536" lon="2.091836">
        <ele>165.0</ele>
        <time>2022-05-19T07:46:29Z</time>
      </trkpt>
      <trkpt lat="47.525356" lon="2.0918508">
        <ele>165.0</ele>
        <time>2022-05-19T07:46:30Z</time>
      </trkpt>
      <trkpt lat="47.525352" lon="2.0918615">
        <ele>164.0</ele>
        <time>2022-05-19T07:46:31Z</time>
      </trkpt>
      <trkpt lat="47.52535" lon="2.0918744">
        <ele>164.0</ele>
        <time>2022-05-19T07:46:32Z</time>
      </trkpt>
      <trkpt lat="47.525345" lon="2.0918937">
        <ele>164.0</ele>
        <time>2022-05-19T07:46:33Z</time>
      </trkpt>
      <trkpt lat="47.52534" lon="2.0919137">
        <ele>165.0</ele>
        <time>2022-05-19T07:46:34Z</time>
      </trkpt>
      <trkpt lat="47.52534" lon="2.0919347">
        <ele>165.0</ele>
        <time>2022-05-19T07:46:35Z</time>
      </trkpt>
      <trkpt lat="47.52534" lon="2.091954">
        <ele>165.0</ele>
        <time>2022-05-19T07:46:36Z</time>
      </trkpt>
      <trkpt lat="47.525337" lon="2.0919738">
        <ele>165.0</ele>
        <time>2022-05-19T07:46:37Z</time>
      </trkpt>
      <trkpt lat="47.525337" lon="2.091994">
        <ele>166.0</ele>
        <time>2022-05-19T07:46:38Z</time>
      </trkpt>
      <trkpt lat="47.525337" lon="2.0920115">
        <ele>165.0</ele>
        <time>2022-05-19T07:46:39Z</time>
      </trkpt>
      <trkpt lat="47.52534" lon="2.0920262">
        <ele>166.0</ele>
        <time>2022-05-19T07:46:40Z</time>
      </trkpt>
      <trkpt lat="47.52534" lon="2.0920432">
        <ele>166.0</ele>
        <time>2022-05-19T07:46:41Z</time>
      </trkpt>
      <trkpt lat="47.525337" lon="2.0920599">
        <ele>165.0</ele>
        <time>2022-05-19T07:46:42Z</time>
      </trkpt>
      <trkpt lat="47.525333" lon="2.092074">
        <ele>165.0</ele>
        <time>2022-05-19T07:46:43Z</time>
      </trkpt>
      <trkpt lat="47.525333" lon="2.0920918">
        <ele>165.0</ele>
        <time>2022-05-19T07:46:44Z</time>
      </trkpt>
      <trkpt lat="47.525326" lon="2.0921092">
        <ele>165.0</ele>
        <time>2022-05-19T07:46:45Z</time>
      </trkpt>
      <trkpt lat="47.52532" lon="2.0921369">
        <ele>164.0</ele>
        <time>2022-05-19T07:46:46Z</time>
      </trkpt>
      <trkpt lat="47.52532" lon="2.0921369">
        <ele>164.0</ele>
        <time>2022-05-19T07:46:46Z</time>
      </trkpt>
      <trkpt lat="47.52532" lon="2.0921519">
        <ele>165.0</ele>
        <time>2022-05-19T07:46:48Z</time>
      </trkpt>
      <trkpt lat="47.525314" lon="2.0921688">
        <ele>164.0</ele>
        <time>2022-05-19T07:46:49Z</time>
      </trkpt>
      <trkpt lat="47.525307" lon="2.0921867">
        <ele>165.0</ele>
        <time>2022-05-19T07:46:50Z</time>
      </trkpt>
      <trkpt lat="47.525303" lon="2.092204">
        <ele>165.0</ele>
        <time>2022-05-19T07:46:51Z</time>
      </trkpt>
      <trkpt lat="47.5253" lon="2.092226">
        <ele>166.0</ele>
        <time>2022-05-19T07:46:52Z</time>
      </trkpt>
      <trkpt lat="47.52529" lon="2.0922468">
        <ele>166.0</ele>
        <time>2022-05-19T07:46:53Z</time>
      </trkpt>
      <trkpt lat="47.52528" lon="2.0922666">
        <ele>165.0</ele>
        <time>2022-05-19T07:46:54Z</time>
      </trkpt>
      <trkpt lat="47.525272" lon="2.0922856">
        <ele>166.0</ele>
        <time>2022-05-19T07:46:55Z</time>
      </trkpt>
      <trkpt lat="47.52527" lon="2.0923028">
        <ele>166.0</ele>
        <time>2022-05-19T07:46:56Z</time>
      </trkpt>
      <trkpt lat="47.52526" lon="2.0923176">
        <ele>166.0</ele>
        <time>2022-05-19T07:46:57Z</time>
      </trkpt>
      <trkpt lat="47.525253" lon="2.0923316">
        <ele>166.0</ele>
        <time>2022-05-19T07:46:58Z</time>
      </trkpt>
      <trkpt lat="47.525238" lon="2.0923595">
        <ele>166.0</ele>
        <time>2022-05-19T07:46:59Z</time>
      </trkpt>
      <trkpt lat="47.525238" lon="2.0923595">
        <ele>166.0</ele>
        <time>2022-05-19T07:46:59Z</time>
      </trkpt>
      <trkpt lat="47.525234" lon="2.0923777">
        <ele>166.0</ele>
        <time>2022-05-19T07:47:01Z</time>
      </trkpt>
      <trkpt lat="47.525227" lon="2.0923884">
        <ele>166.0</ele>
        <time>2022-05-19T07:47:02Z</time>
      </trkpt>
      <trkpt lat="47.525227" lon="2.0923975">
        <ele>166.0</ele>
        <time>2022-05-19T07:47:03Z</time>
      </trkpt>
      <trkpt lat="47.525223" lon="2.09241">
        <ele>167.0</ele>
        <time>2022-05-19T07:47:04Z</time>
      </trkpt>
      <trkpt lat="47.52522" lon="2.0924299">
        <ele>167.0</ele>
        <time>2022-05-19T07:47:05Z</time>
      </trkpt>
      <trkpt lat="47.52522" lon="2.0924463">
        <ele>167.0</ele>
        <time>2022-05-19T07:47:06Z</time>
      </trkpt>
      <trkpt lat="47.525215" lon="2.0924587">
        <ele>167.0</ele>
        <time>2022-05-19T07:47:07Z</time>
      </trkpt>
      <trkpt lat="47.52521" lon="2.092475">
        <ele>167.0</ele>
        <time>2022-05-19T07:47:08Z</time>
      </trkpt>
      <trkpt lat="47.525208" lon="2.0925043">
        <ele>167.0</ele>
        <time>2022-05-19T07:47:09Z</time>
      </trkpt>
      <trkpt lat="47.525204" lon="2.0925155">
        <ele>167.0</ele>
        <time>2022-05-19T07:47:10Z</time>
      </trkpt>
      <trkpt lat="47.525204" lon="2.0925272">
        <ele>167.0</ele>
        <time>2022-05-19T07:47:11Z</time>
      </trkpt>
      <trkpt lat="47.525196" lon="2.0925376">
        <ele>167.0</ele>
        <time>2022-05-19T07:47:12Z</time>
      </trkpt>
      <trkpt lat="47.52519" lon="2.0925472">
        <ele>167.0</ele>
        <time>2022-05-19T07:47:13Z</time>
      </trkpt>
      <trkpt lat="47.525185" lon="2.0925586">
        <ele>166.0</ele>
        <time>2022-05-19T07:47:14Z</time>
      </trkpt>
      <trkpt lat="47.525177" lon="2.0925698">
        <ele>166.0</ele>
        <time>2022-05-19T07:47:15Z</time>
      </trkpt>
      <trkpt lat="47.525177" lon="2.092588">
        <ele>166.0</ele>
        <time>2022-05-19T07:47:16Z</time>
      </trkpt>
      <trkpt lat="47.52517" lon="2.092604">
        <ele>166.0</ele>
        <time>2022-05-19T07:47:17Z</time>
      </trkpt>
      <trkpt lat="47.52516" lon="2.0926216">
        <ele>166.0</ele>
        <time>2022-05-19T07:47:18Z</time>
      </trkpt>
      <trkpt lat="47.525158" lon="2.0926425">
        <ele>167.0</ele>
        <time>2022-05-19T07:47:19Z</time>
      </trkpt>
      <trkpt lat="47.52515" lon="2.0926616">
        <ele>167.0</ele>
        <time>2022-05-19T07:47:20Z</time>
      </trkpt>
      <trkpt lat="47.525143" lon="2.0926793">
        <ele>167.0</ele>
        <time>2022-05-19T07:47:21Z</time>
      </trkpt>
      <trkpt lat="47.52514" lon="2.092697">
        <ele>167.0</ele>
        <time>2022-05-19T07:47:22Z</time>
      </trkpt>
      <trkpt lat="47.525135" lon="2.0927155">
        <ele>167.0</ele>
        <time>2022-05-19T07:47:23Z</time>
      </trkpt>
      <trkpt lat="47.525135" lon="2.0927324">
        <ele>167.0</ele>
        <time>2022-05-19T07:47:24Z</time>
      </trkpt>
      <trkpt lat="47.525135" lon="2.0927496">
        <ele>167.0</ele>
        <time>2022-05-19T07:47:25Z</time>
      </trkpt>
      <trkpt lat="47.525135" lon="2.0927649">
        <ele>166.0</ele>
        <time>2022-05-19T07:47:26Z</time>
      </trkpt>
      <trkpt lat="47.525127" lon="2.09278">
        <ele>166.0</ele>
        <time>2022-05-19T07:47:27Z</time>
      </trkpt>
      <trkpt lat="47.525124" lon="2.0928009">
        <ele>166.0</ele>
        <time>2022-05-19T07:47:28Z</time>
      </trkpt>
      <trkpt lat="47.525124" lon="2.0928178">
        <ele>165.0</ele>
        <time>2022-05-19T07:47:29Z</time>
      </trkpt>
      <trkpt lat="47.525116" lon="2.0928373">
        <ele>166.0</ele>
        <time>2022-05-19T07:47:30Z</time>
      </trkpt>
      <trkpt lat="47.52511" lon="2.092858">
        <ele>166.0</ele>
        <time>2022-05-19T07:47:31Z</time>
      </trkpt>
      <trkpt lat="47.52511" lon="2.0928817">
        <ele>166.0</ele>
        <time>2022-05-19T07:47:32Z</time>
      </trkpt>
      <trkpt lat="47.525105" lon="2.092904">
        <ele>166.0</ele>
        <time>2022-05-19T07:47:33Z</time>
      </trkpt>
      <trkpt lat="47.5251" lon="2.092921">
        <ele>166.0</ele>
        <time>2022-05-19T07:47:34Z</time>
      </trkpt>
      <trkpt lat="47.5251" lon="2.092941">
        <ele>167.0</ele>
        <time>2022-05-19T07:47:35Z</time>
      </trkpt>
      <trkpt lat="47.525097" lon="2.092961">
        <ele>168.0</ele>
        <time>2022-05-19T07:47:36Z</time>
      </trkpt>
      <trkpt lat="47.525097" lon="2.0929785">
        <ele>168.0</ele>
        <time>2022-05-19T07:47:37Z</time>
      </trkpt>
      <trkpt lat="47.5251" lon="2.0929968">
        <ele>168.0</ele>
        <time>2022-05-19T07:47:38Z</time>
      </trkpt>
      <trkpt lat="47.525097" lon="2.0930145">
        <ele>168.0</ele>
        <time>2022-05-19T07:47:39Z</time>
      </trkpt>
      <trkpt lat="47.525093" lon="2.0930288">
        <ele>168.0</ele>
        <time>2022-05-19T07:47:40Z</time>
      </trkpt>
      <trkpt lat="47.52509" lon="2.0930436">
        <ele>168.0</ele>
        <time>2022-05-19T07:47:41Z</time>
      </trkpt>
      <trkpt lat="47.52508" lon="2.093062">
        <ele>168.0</ele>
        <time>2022-05-19T07:47:42Z</time>
      </trkpt>
      <trkpt lat="47.525078" lon="2.0930798">
        <ele>168.0</ele>
        <time>2022-05-19T07:47:43Z</time>
      </trkpt>
      <trkpt lat="47.525074" lon="2.0930977">
        <ele>168.0</ele>
        <time>2022-05-19T07:47:44Z</time>
      </trkpt>
      <trkpt lat="47.52507" lon="2.0931177">
        <ele>168.0</ele>
        <time>2022-05-19T07:47:45Z</time>
      </trkpt>
      <trkpt lat="47.52507" lon="2.0931358">
        <ele>168.0</ele>
        <time>2022-05-19T07:47:46Z</time>
      </trkpt>
      <trkpt lat="47.525066" lon="2.093155">
        <ele>168.0</ele>
        <time>2022-05-19T07:47:47Z</time>
      </trkpt>
      <trkpt lat="47.525063" lon="2.093176">
        <ele>168.0</ele>
        <time>2022-05-19T07:47:48Z</time>
      </trkpt>
      <trkpt lat="47.525055" lon="2.0931914">
        <ele>168.0</ele>
        <time>2022-05-19T07:47:49Z</time>
      </trkpt>
      <trkpt lat="47.525047" lon="2.093204">
        <ele>167.0</ele>
        <time>2022-05-19T07:47:50Z</time>
      </trkpt>
      <trkpt lat="47.525047" lon="2.09322">
        <ele>167.0</ele>
        <time>2022-05-19T07:47:51Z</time>
      </trkpt>
      <trkpt lat="47.525043" lon="2.0932393">
        <ele>167.0</ele>
        <time>2022-05-19T07:47:52Z</time>
      </trkpt>
      <trkpt lat="47.525036" lon="2.0932565">
        <ele>167.0</ele>
        <time>2022-05-19T07:47:53Z</time>
      </trkpt>
      <trkpt lat="47.525032" lon="2.0932744">
        <ele>167.0</ele>
        <time>2022-05-19T07:47:54Z</time>
      </trkpt>
      <trkpt lat="47.52503" lon="2.0932891">
        <ele>167.0</ele>
        <time>2022-05-19T07:47:55Z</time>
      </trkpt>
      <trkpt lat="47.525024" lon="2.0933058">
        <ele>167.0</ele>
        <time>2022-05-19T07:47:56Z</time>
      </trkpt>
      <trkpt lat="47.525017" lon="2.0933216">
        <ele>167.0</ele>
        <time>2022-05-19T07:47:57Z</time>
      </trkpt>
      <trkpt lat="47.52501" lon="2.0933387">
        <ele>166.0</ele>
        <time>2022-05-19T07:47:58Z</time>
      </trkpt>
      <trkpt lat="47.525" lon="2.0933526">
        <ele>166.0</ele>
        <time>2022-05-19T07:47:59Z</time>
      </trkpt>
      <trkpt lat="47.524994" lon="2.0933633">
        <ele>166.0</ele>
        <time>2022-05-19T07:48:00Z</time>
      </trkpt>
      <trkpt lat="47.524986" lon="2.093378">
        <ele>166.0</ele>
        <time>2022-05-19T07:48:01Z</time>
      </trkpt>
      <trkpt lat="47.52498" lon="2.0933902">
        <ele>167.0</ele>
        <time>2022-05-19T07:48:02Z</time>
      </trkpt>
      <trkpt lat="47.52497" lon="2.093398">
        <ele>166.0</ele>
        <time>2022-05-19T07:48:03Z</time>
      </trkpt>
      <trkpt lat="47.524967" lon="2.0934045">
        <ele>166.0</ele>
        <time>2022-05-19T07:48:04Z</time>
      </trkpt>
      <trkpt lat="47.52496" lon="2.093413">
        <ele>166.0</ele>
        <time>2022-05-19T07:48:05Z</time>
      </trkpt>
      <trkpt lat="47.52495" lon="2.093421">
        <ele>166.0</ele>
        <time>2022-05-19T07:48:06Z</time>
      </trkpt>
      <trkpt lat="47.524933" lon="2.0934224">
        <ele>166.0</ele>
        <time>2022-05-19T07:48:07Z</time>
      </trkpt>
      <trkpt lat="47.52492" lon="2.093424">
        <ele>166.0</ele>
        <time>2022-05-19T07:48:08Z</time>
      </trkpt>
      <trkpt lat="47.52491" lon="2.0934289">
        <ele>166.0</ele>
        <time>2022-05-19T07:48:09Z</time>
      </trkpt>
      <trkpt lat="47.5249" lon="2.093428">
        <ele>166.0</ele>
        <time>2022-05-19T07:48:10Z</time>
      </trkpt>
      <trkpt lat="47.52489" lon="2.0934243">
        <ele>165.0</ele>
        <time>2022-05-19T07:48:11Z</time>
      </trkpt>
      <trkpt lat="47.524883" lon="2.0934281">
        <ele>165.0</ele>
        <time>2022-05-19T07:48:12Z</time>
      </trkpt>
      <trkpt lat="47.52488" lon="2.0934336">
        <ele>165.0</ele>
        <time>2022-05-19T07:48:13Z</time>
      </trkpt>
      <trkpt lat="47.52487" lon="2.0934384">
        <ele>165.0</ele>
        <time>2022-05-19T07:48:14Z</time>
      </trkpt>
      <trkpt lat="47.52486" lon="2.0934439">
        <ele>166.0</ele>
        <time>2022-05-19T07:48:15Z</time>
      </trkpt>
      <trkpt lat="47.524853" lon="2.0934486">
        <ele>166.0</ele>
        <time>2022-05-19T07:48:16Z</time>
      </trkpt>
      <trkpt lat="47.524845" lon="2.093449">
        <ele>166.0</ele>
        <time>2022-05-19T07:48:17Z</time>
      </trkpt>
      <trkpt lat="47.524837" lon="2.0934496">
        <ele>165.0</ele>
        <time>2022-05-19T07:48:18Z</time>
      </trkpt>
      <trkpt lat="47.524834" lon="2.0934556">
        <ele>166.0</ele>
        <time>2022-05-19T07:48:19Z</time>
      </trkpt>
      <trkpt lat="47.524826" lon="2.0934591">
        <ele>166.0</ele>
        <time>2022-05-19T07:48:20Z</time>
      </trkpt>
      <trkpt lat="47.524815" lon="2.0934591">
        <ele>166.0</ele>
        <time>2022-05-19T07:48:21Z</time>
      </trkpt>
      <trkpt lat="47.524807" lon="2.0934608">
        <ele>165.0</ele>
        <time>2022-05-19T07:48:22Z</time>
      </trkpt>
      <trkpt lat="47.524788" lon="2.0934687">
        <ele>166.0</ele>
        <time>2022-05-19T07:48:23Z</time>
      </trkpt>
      <trkpt lat="47.524773" lon="2.0934722">
        <ele>166.0</ele>
        <time>2022-05-19T07:48:24Z</time>
      </trkpt>
      <trkpt lat="47.52476" lon="2.093475">
        <ele>166.0</ele>
        <time>2022-05-19T07:48:25Z</time>
      </trkpt>
      <trkpt lat="47.524754" lon="2.0934815">
        <ele>166.0</ele>
        <time>2022-05-19T07:48:26Z</time>
      </trkpt>
      <trkpt lat="47.524746" lon="2.0934858">
        <ele>166.0</ele>
        <time>2022-05-19T07:48:27Z</time>
      </trkpt>
      <trkpt lat="47.524734" lon="2.093483">
        <ele>166.0</ele>
        <time>2022-05-19T07:48:28Z</time>
      </trkpt>
      <trkpt lat="47.524727" lon="2.0934813">
        <ele>166.0</ele>
        <time>2022-05-19T07:48:29Z</time>
      </trkpt>
      <trkpt lat="47.524715" lon="2.0934777">
        <ele>165.0</ele>
        <time>2022-05-19T07:48:30Z</time>
      </trkpt>
      <trkpt lat="47.524704" lon="2.0934815">
        <ele>165.0</ele>
        <time>2022-05-19T07:48:31Z</time>
      </trkpt>
      <trkpt lat="47.52469" lon="2.0934858">
        <ele>165.0</ele>
        <time>2022-05-19T07:48:32Z</time>
      </trkpt>
      <trkpt lat="47.52468" lon="2.093491">
        <ele>165.0</ele>
        <time>2022-05-19T07:48:33Z</time>
      </trkpt>
      <trkpt lat="47.524666" lon="2.0934913">
        <ele>165.0</ele>
        <time>2022-05-19T07:48:34Z</time>
      </trkpt>
      <trkpt lat="47.52466" lon="2.0934935">
        <ele>165.0</ele>
        <time>2022-05-19T07:48:35Z</time>
      </trkpt>
      <trkpt lat="47.524643" lon="2.0934954">
        <ele>165.0</ele>
        <time>2022-05-19T07:48:36Z</time>
      </trkpt>
      <trkpt lat="47.524635" lon="2.0934963">
        <ele>165.0</ele>
        <time>2022-05-19T07:48:37Z</time>
      </trkpt>
      <trkpt lat="47.524616" lon="2.0935004">
        <ele>165.0</ele>
        <time>2022-05-19T07:48:38Z</time>
      </trkpt>
      <trkpt lat="47.5246" lon="2.0935059">
        <ele>166.0</ele>
        <time>2022-05-19T07:48:39Z</time>
      </trkpt>
      <trkpt lat="47.524586" lon="2.0935102">
        <ele>166.0</ele>
        <time>2022-05-19T07:48:40Z</time>
      </trkpt>
      <trkpt lat="47.524567" lon="2.0935073">
        <ele>166.0</ele>
        <time>2022-05-19T07:48:41Z</time>
      </trkpt>
      <trkpt lat="47.52455" lon="2.093506">
        <ele>166.0</ele>
        <time>2022-05-19T07:48:42Z</time>
      </trkpt>
      <trkpt lat="47.52454" lon="2.0935035">
        <ele>165.0</ele>
        <time>2022-05-19T07:48:43Z</time>
      </trkpt>
      <trkpt lat="47.524532" lon="2.093504">
        <ele>165.0</ele>
        <time>2022-05-19T07:48:44Z</time>
      </trkpt>
      <trkpt lat="47.52452" lon="2.0935066">
        <ele>166.0</ele>
        <time>2022-05-19T07:48:45Z</time>
      </trkpt>
      <trkpt lat="47.524506" lon="2.0935087">
        <ele>166.0</ele>
        <time>2022-05-19T07:48:46Z</time>
      </trkpt>
      <trkpt lat="47.524494" lon="2.0935082">
        <ele>166.0</ele>
        <time>2022-05-19T07:48:47Z</time>
      </trkpt>
      <trkpt lat="47.524475" lon="2.0935125">
        <ele>166.0</ele>
        <time>2022-05-19T07:48:48Z</time>
      </trkpt>
      <trkpt lat="47.524464" lon="2.093514">
        <ele>166.0</ele>
        <time>2022-05-19T07:48:49Z</time>
      </trkpt>
      <trkpt lat="47.524452" lon="2.0935206">
        <ele>166.0</ele>
        <time>2022-05-19T07:48:50Z</time>
      </trkpt>
      <trkpt lat="47.52444" lon="2.093526">
        <ele>167.0</ele>
        <time>2022-05-19T07:48:51Z</time>
      </trkpt>
      <trkpt lat="47.52443" lon="2.0935261">
        <ele>167.0</ele>
        <time>2022-05-19T07:48:52Z</time>
      </trkpt>
      <trkpt lat="47.52442" lon="2.0935297">
        <ele>167.0</ele>
        <time>2022-05-19T07:48:53Z</time>
      </trkpt>
      <trkpt lat="47.52441" lon="2.0935323">
        <ele>166.0</ele>
        <time>2022-05-19T07:48:54Z</time>
      </trkpt>
      <trkpt lat="47.524403" lon="2.093531">
        <ele>166.0</ele>
        <time>2022-05-19T07:48:55Z</time>
      </trkpt>
      <trkpt lat="47.52439" lon="2.0935326">
        <ele>166.0</ele>
        <time>2022-05-19T07:48:56Z</time>
      </trkpt>
      <trkpt lat="47.524384" lon="2.0935302">
        <ele>167.0</ele>
        <time>2022-05-19T07:48:57Z</time>
      </trkpt>
      <trkpt lat="47.524372" lon="2.093531">
        <ele>166.0</ele>
        <time>2022-05-19T07:48:58Z</time>
      </trkpt>
      <trkpt lat="47.524357" lon="2.0935316">
        <ele>166.0</ele>
        <time>2022-05-19T07:48:59Z</time>
      </trkpt>
      <trkpt lat="47.52434" lon="2.0935342">
        <ele>167.0</ele>
        <time>2022-05-19T07:49:00Z</time>
      </trkpt>
      <trkpt lat="47.52433" lon="2.0935373">
        <ele>167.0</ele>
        <time>2022-05-19T07:49:01Z</time>
      </trkpt>
      <trkpt lat="47.52432" lon="2.093537">
        <ele>167.0</ele>
        <time>2022-05-19T07:49:02Z</time>
      </trkpt>
      <trkpt lat="47.524307" lon="2.0935361">
        <ele>167.0</ele>
        <time>2022-05-19T07:49:03Z</time>
      </trkpt>
      <trkpt lat="47.524296" lon="2.093539">
        <ele>167.0</ele>
        <time>2022-05-19T07:49:04Z</time>
      </trkpt>
      <trkpt lat="47.524277" lon="2.0935419">
        <ele>167.0</ele>
        <time>2022-05-19T07:49:05Z</time>
      </trkpt>
      <trkpt lat="47.524265" lon="2.093546">
        <ele>168.0</ele>
        <time>2022-05-19T07:49:06Z</time>
      </trkpt>
      <trkpt lat="47.52425" lon="2.09355">
        <ele>168.0</ele>
        <time>2022-05-19T07:49:07Z</time>
      </trkpt>
      <trkpt lat="47.52424" lon="2.093555">
        <ele>168.0</ele>
        <time>2022-05-19T07:49:08Z</time>
      </trkpt>
      <trkpt lat="47.52423" lon="2.0935612">
        <ele>168.0</ele>
        <time>2022-05-19T07:49:09Z</time>
      </trkpt>
      <trkpt lat="47.524223" lon="2.093565">
        <ele>168.0</ele>
        <time>2022-05-19T07:49:10Z</time>
      </trkpt>
      <trkpt lat="47.524216" lon="2.0935705">
        <ele>168.0</ele>
        <time>2022-05-19T07:49:11Z</time>
      </trkpt>
      <trkpt lat="47.524204" lon="2.0935702">
        <ele>168.0</ele>
        <time>2022-05-19T07:49:12Z</time>
      </trkpt>
      <trkpt lat="47.524197" lon="2.093567">
        <ele>168.0</ele>
        <time>2022-05-19T07:49:13Z</time>
      </trkpt>
      <trkpt lat="47.524185" lon="2.0935695">
        <ele>168.0</ele>
        <time>2022-05-19T07:49:14Z</time>
      </trkpt>
      <trkpt lat="47.524178" lon="2.0935712">
        <ele>168.0</ele>
        <time>2022-05-19T07:49:15Z</time>
      </trkpt>
      <trkpt lat="47.524166" lon="2.0935605">
        <ele>168.0</ele>
        <time>2022-05-19T07:49:16Z</time>
      </trkpt>
      <trkpt lat="47.52416" lon="2.0935593">
        <ele>167.0</ele>
        <time>2022-05-19T07:49:17Z</time>
      </trkpt>
      <trkpt lat="47.52415" lon="2.093558">
        <ele>167.0</ele>
        <time>2022-05-19T07:49:18Z</time>
      </trkpt>
      <trkpt lat="47.52415" lon="2.093558">
        <ele>167.0</ele>
        <time>2022-05-19T07:49:19Z</time>
      </trkpt>
      <trkpt lat="47.52415" lon="2.093558">
        <ele>167.0</ele>
        <time>2022-05-19T07:49:20Z</time>
      </trkpt>
      <trkpt lat="47.524124" lon="2.0935674">
        <ele>168.0</ele>
        <time>2022-05-19T07:49:21Z</time>
      </trkpt>
      <trkpt lat="47.52411" lon="2.0935664">
        <ele>168.0</ele>
        <time>2022-05-19T07:49:22Z</time>
      </trkpt>
      <trkpt lat="47.524094" lon="2.0935647">
        <ele>168.0</ele>
        <time>2022-05-19T07:49:23Z</time>
      </trkpt>
      <trkpt lat="47.52408" lon="2.0935674">
        <ele>168.0</ele>
        <time>2022-05-19T07:49:24Z</time>
      </trkpt>
      <trkpt lat="47.524067" lon="2.0935674">
        <ele>167.0</ele>
        <time>2022-05-19T07:49:25Z</time>
      </trkpt>
      <trkpt lat="47.524055" lon="2.0935688">
        <ele>167.0</ele>
        <time>2022-05-19T07:49:26Z</time>
      </trkpt>
      <trkpt lat="47.524044" lon="2.0935736">
        <ele>168.0</ele>
        <time>2022-05-19T07:49:27Z</time>
      </trkpt>
      <trkpt lat="47.52403" lon="2.093579">
        <ele>167.0</ele>
        <time>2022-05-19T07:49:28Z</time>
      </trkpt>
      <trkpt lat="47.524014" lon="2.093581">
        <ele>167.0</ele>
        <time>2022-05-19T07:49:29Z</time>
      </trkpt>
      <trkpt lat="47.524002" lon="2.0935867">
        <ele>166.0</ele>
        <time>2022-05-19T07:49:30Z</time>
      </trkpt>
      <trkpt lat="47.52399" lon="2.093589">
        <ele>166.0</ele>
        <time>2022-05-19T07:49:31Z</time>
      </trkpt>
      <trkpt lat="47.523975" lon="2.0935888">
        <ele>166.0</ele>
        <time>2022-05-19T07:49:32Z</time>
      </trkpt>
      <trkpt lat="47.52396" lon="2.093598">
        <ele>166.0</ele>
        <time>2022-05-19T07:49:33Z</time>
      </trkpt>
      <trkpt lat="47.52394" lon="2.093599">
        <ele>166.0</ele>
        <time>2022-05-19T07:49:34Z</time>
      </trkpt>
      <trkpt lat="47.523926" lon="2.0935988">
        <ele>166.0</ele>
        <time>2022-05-19T07:49:35Z</time>
      </trkpt>
      <trkpt lat="47.523914" lon="2.0935996">
        <ele>166.0</ele>
        <time>2022-05-19T07:49:36Z</time>
      </trkpt>
      <trkpt lat="47.523895" lon="2.0936031">
        <ele>166.0</ele>
        <time>2022-05-19T07:49:37Z</time>
      </trkpt>
      <trkpt lat="47.523884" lon="2.093604">
        <ele>166.0</ele>
        <time>2022-05-19T07:49:38Z</time>
      </trkpt>
      <trkpt lat="47.52387" lon="2.0936005">
        <ele>167.0</ele>
        <time>2022-05-19T07:49:39Z</time>
      </trkpt>
      <trkpt lat="47.523853" lon="2.0935946">
        <ele>167.0</ele>
        <time>2022-05-19T07:49:40Z</time>
      </trkpt>
      <trkpt lat="47.523838" lon="2.0935948">
        <ele>167.0</ele>
        <time>2022-05-19T07:49:41Z</time>
      </trkpt>
      <trkpt lat="47.523827" lon="2.0935946">
        <ele>167.0</ele>
        <time>2022-05-19T07:49:42Z</time>
      </trkpt>
      <trkpt lat="47.523815" lon="2.0935917">
        <ele>168.0</ele>
        <time>2022-05-19T07:49:43Z</time>
      </trkpt>
      <trkpt lat="47.523804" lon="2.0935934">
        <ele>168.0</ele>
        <time>2022-05-19T07:49:44Z</time>
      </trkpt>
      <trkpt lat="47.523796" lon="2.0935922">
        <ele>169.0</ele>
        <time>2022-05-19T07:49:45Z</time>
      </trkpt>
      <trkpt lat="47.523796" lon="2.0935922">
        <ele>169.0</ele>
        <time>2022-05-19T07:49:46Z</time>
      </trkpt>
      <trkpt lat="47.523777" lon="2.0935924">
        <ele>169.0</ele>
        <time>2022-05-19T07:49:47Z</time>
      </trkpt>
      <trkpt lat="47.523766" lon="2.0935922">
        <ele>169.0</ele>
        <time>2022-05-19T07:49:48Z</time>
      </trkpt>
      <trkpt lat="47.523754" lon="2.0935955">
        <ele>169.0</ele>
        <time>2022-05-19T07:49:49Z</time>
      </trkpt>
      <trkpt lat="47.523743" lon="2.093599">
        <ele>169.0</ele>
        <time>2022-05-19T07:49:50Z</time>
      </trkpt>
      <trkpt lat="47.523727" lon="2.093603">
        <ele>169.0</ele>
        <time>2022-05-19T07:49:51Z</time>
      </trkpt>
      <trkpt lat="47.523716" lon="2.0936055">
        <ele>170.0</ele>
        <time>2022-05-19T07:49:52Z</time>
      </trkpt>
      <trkpt lat="47.523705" lon="2.0936053">
        <ele>169.0</ele>
        <time>2022-05-19T07:49:53Z</time>
      </trkpt>
      <trkpt lat="47.52369" lon="2.0936046">
        <ele>170.0</ele>
        <time>2022-05-19T07:49:54Z</time>
      </trkpt>
      <trkpt lat="47.523678" lon="2.0936015">
        <ele>170.0</ele>
        <time>2022-05-19T07:49:55Z</time>
      </trkpt>
      <trkpt lat="47.523666" lon="2.0936">
        <ele>170.0</ele>
        <time>2022-05-19T07:49:56Z</time>
      </trkpt>
      <trkpt lat="47.52365" lon="2.0936024">
        <ele>169.0</ele>
        <time>2022-05-19T07:49:57Z</time>
      </trkpt>
      <trkpt lat="47.52365" lon="2.0936024">
        <ele>169.0</ele>
        <time>2022-05-19T07:49:58Z</time>
      </trkpt>
      <trkpt lat="47.523632" lon="2.093616">
        <ele>169.0</ele>
        <time>2022-05-19T07:49:59Z</time>
      </trkpt>
      <trkpt lat="47.523624" lon="2.0936182">
        <ele>169.0</ele>
        <time>2022-05-19T07:50:00Z</time>
      </trkpt>
      <trkpt lat="47.52361" lon="2.0936184">
        <ele>168.0</ele>
        <time>2022-05-19T07:50:01Z</time>
      </trkpt>
      <trkpt lat="47.523598" lon="2.093618">
        <ele>169.0</ele>
        <time>2022-05-19T07:50:02Z</time>
      </trkpt>
      <trkpt lat="47.523598" lon="2.093618">
        <ele>169.0</ele>
        <time>2022-05-19T07:50:03Z</time>
      </trkpt>
      <trkpt lat="47.523575" lon="2.0936215">
        <ele>169.0</ele>
        <time>2022-05-19T07:50:04Z</time>
      </trkpt>
      <trkpt lat="47.52356" lon="2.0936234">
        <ele>169.0</ele>
        <time>2022-05-19T07:50:05Z</time>
      </trkpt>
      <trkpt lat="47.523537" lon="2.0936258">
        <ele>170.0</ele>
        <time>2022-05-19T07:50:06Z</time>
      </trkpt>
      <trkpt lat="47.52352" lon="2.0936253">
        <ele>170.0</ele>
        <time>2022-05-19T07:50:07Z</time>
      </trkpt>
      <trkpt lat="47.52351" lon="2.0936263">
        <ele>170.0</ele>
        <time>2022-05-19T07:50:08Z</time>
      </trkpt>
      <trkpt lat="47.52349" lon="2.0936263">
        <ele>170.0</ele>
        <time>2022-05-19T07:50:09Z</time>
      </trkpt>
      <trkpt lat="47.52347" lon="2.0936325">
        <ele>170.0</ele>
        <time>2022-05-19T07:50:10Z</time>
      </trkpt>
      <trkpt lat="47.523453" lon="2.093631">
        <ele>170.0</ele>
        <time>2022-05-19T07:50:11Z</time>
      </trkpt>
      <trkpt lat="47.523434" lon="2.0936306">
        <ele>171.0</ele>
        <time>2022-05-19T07:50:12Z</time>
      </trkpt>
      <trkpt lat="47.523422" lon="2.09363">
        <ele>170.0</ele>
        <time>2022-05-19T07:50:13Z</time>
      </trkpt>
      <trkpt lat="47.523407" lon="2.0936303">
        <ele>171.0</ele>
        <time>2022-05-19T07:50:14Z</time>
      </trkpt>
      <trkpt lat="47.5234" lon="2.0936291">
        <ele>171.0</ele>
        <time>2022-05-19T07:50:15Z</time>
      </trkpt>
      <trkpt lat="47.523388" lon="2.0936322">
        <ele>171.0</ele>
        <time>2022-05-19T07:50:16Z</time>
      </trkpt>
      <trkpt lat="47.523376" lon="2.093633">
        <ele>172.0</ele>
        <time>2022-05-19T07:50:17Z</time>
      </trkpt>
      <trkpt lat="47.523365" lon="2.0936368">
        <ele>172.0</ele>
        <time>2022-05-19T07:50:18Z</time>
      </trkpt>
      <trkpt lat="47.523346" lon="2.093639">
        <ele>172.0</ele>
        <time>2022-05-19T07:50:19Z</time>
      </trkpt>
      <trkpt lat="47.523335" lon="2.0936406">
        <ele>172.0</ele>
        <time>2022-05-19T07:50:20Z</time>
      </trkpt>
      <trkpt lat="47.52332" lon="2.0936446">
        <ele>172.0</ele>
        <time>2022-05-19T07:50:21Z</time>
      </trkpt>
      <trkpt lat="47.523308" lon="2.0936506">
        <ele>172.0</ele>
        <time>2022-05-19T07:50:22Z</time>
      </trkpt>
      <trkpt lat="47.523296" lon="2.0936537">
        <ele>173.0</ele>
        <time>2022-05-19T07:50:23Z</time>
      </trkpt>
      <trkpt lat="47.52328" lon="2.0936537">
        <ele>173.0</ele>
        <time>2022-05-19T07:50:24Z</time>
      </trkpt>
      <trkpt lat="47.52327" lon="2.09365">
        <ele>173.0</ele>
        <time>2022-05-19T07:50:25Z</time>
      </trkpt>
      <trkpt lat="47.52326" lon="2.0936494">
        <ele>173.0</ele>
        <time>2022-05-19T07:50:26Z</time>
      </trkpt>
      <trkpt lat="47.523247" lon="2.0936506">
        <ele>173.0</ele>
        <time>2022-05-19T07:50:27Z</time>
      </trkpt>
      <trkpt lat="47.523235" lon="2.0936496">
        <ele>173.0</ele>
        <time>2022-05-19T07:50:28Z</time>
      </trkpt>
      <trkpt lat="47.523224" lon="2.093653">
        <ele>173.0</ele>
        <time>2022-05-19T07:50:29Z</time>
      </trkpt>
      <trkpt lat="47.52321" lon="2.0936515">
        <ele>174.0</ele>
        <time>2022-05-19T07:50:30Z</time>
      </trkpt>
      <trkpt lat="47.523197" lon="2.0936494">
        <ele>174.0</ele>
        <time>2022-05-19T07:50:31Z</time>
      </trkpt>
      <trkpt lat="47.523186" lon="2.0936482">
        <ele>175.0</ele>
        <time>2022-05-19T07:50:32Z</time>
      </trkpt>
      <trkpt lat="47.523174" lon="2.0936475">
        <ele>175.0</ele>
        <time>2022-05-19T07:50:33Z</time>
      </trkpt>
      <trkpt lat="47.523163" lon="2.093648">
        <ele>175.0</ele>
        <time>2022-05-19T07:50:34Z</time>
      </trkpt>
      <trkpt lat="47.523155" lon="2.0936475">
        <ele>176.0</ele>
        <time>2022-05-19T07:50:35Z</time>
      </trkpt>
      <trkpt lat="47.523144" lon="2.093646">
        <ele>175.0</ele>
        <time>2022-05-19T07:50:36Z</time>
      </trkpt>
      <trkpt lat="47.523136" lon="2.0936453">
        <ele>175.0</ele>
        <time>2022-05-19T07:50:37Z</time>
      </trkpt>
      <trkpt lat="47.52313" lon="2.0936403">
        <ele>175.0</ele>
        <time>2022-05-19T07:50:38Z</time>
      </trkpt>
      <trkpt lat="47.523117" lon="2.093638">
        <ele>175.0</ele>
        <time>2022-05-19T07:50:39Z</time>
      </trkpt>
      <trkpt lat="47.523106" lon="2.0936394">
        <ele>175.0</ele>
        <time>2022-05-19T07:50:40Z</time>
      </trkpt>
      <trkpt lat="47.52309" lon="2.0936399">
        <ele>175.0</ele>
        <time>2022-05-19T07:50:41Z</time>
      </trkpt>
      <trkpt lat="47.52307" lon="2.0936396">
        <ele>175.0</ele>
        <time>2022-05-19T07:50:42Z</time>
      </trkpt>
      <trkpt lat="47.523064" lon="2.0936403">
        <ele>175.0</ele>
        <time>2022-05-19T07:50:43Z</time>
      </trkpt>
      <trkpt lat="47.523052" lon="2.093639">
        <ele>174.0</ele>
        <time>2022-05-19T07:50:44Z</time>
      </trkpt>
      <trkpt lat="47.52304" lon="2.0936456">
        <ele>174.0</ele>
        <time>2022-05-19T07:50:45Z</time>
      </trkpt>
      <trkpt lat="47.523026" lon="2.0936437">
        <ele>174.0</ele>
        <time>2022-05-19T07:50:46Z</time>
      </trkpt>
      <trkpt lat="47.52301" lon="2.0936422">
        <ele>173.0</ele>
        <time>2022-05-19T07:50:47Z</time>
      </trkpt>
      <trkpt lat="47.523003" lon="2.0936458">
        <ele>173.0</ele>
        <time>2022-05-19T07:50:48Z</time>
      </trkpt>
      <trkpt lat="47.52299" lon="2.0936477">
        <ele>173.0</ele>
        <time>2022-05-19T07:50:49Z</time>
      </trkpt>
      <trkpt lat="47.522976" lon="2.0936515">
        <ele>173.0</ele>
        <time>2022-05-19T07:50:50Z</time>
      </trkpt>
      <trkpt lat="47.522964" lon="2.0936599">
        <ele>173.0</ele>
        <time>2022-05-19T07:50:51Z</time>
      </trkpt>
      <trkpt lat="47.52295" lon="2.0936656">
        <ele>173.0</ele>
        <time>2022-05-19T07:50:52Z</time>
      </trkpt>
      <trkpt lat="47.522938" lon="2.0936697">
        <ele>173.0</ele>
        <time>2022-05-19T07:50:53Z</time>
      </trkpt>
      <trkpt lat="47.522926" lon="2.093672">
        <ele>173.0</ele>
        <time>2022-05-19T07:50:54Z</time>
      </trkpt>
      <trkpt lat="47.522907" lon="2.0936756">
        <ele>174.0</ele>
        <time>2022-05-19T07:50:55Z</time>
      </trkpt>
      <trkpt lat="47.522896" lon="2.0936785">
        <ele>173.0</ele>
        <time>2022-05-19T07:50:56Z</time>
      </trkpt>
      <trkpt lat="47.522884" lon="2.0936882">
        <ele>173.0</ele>
        <time>2022-05-19T07:50:57Z</time>
      </trkpt>
      <trkpt lat="47.522873" lon="2.0936925">
        <ele>173.0</ele>
        <time>2022-05-19T07:50:58Z</time>
      </trkpt>
      <trkpt lat="47.522858" lon="2.0936966">
        <ele>173.0</ele>
        <time>2022-05-19T07:50:59Z</time>
      </trkpt>
      <trkpt lat="47.522842" lon="2.0937064">
        <ele>173.0</ele>
        <time>2022-05-19T07:51:00Z</time>
      </trkpt>
      <trkpt lat="47.522827" lon="2.0937126">
        <ele>173.0</ele>
        <time>2022-05-19T07:51:01Z</time>
      </trkpt>
      <trkpt lat="47.52282" lon="2.0937183">
        <ele>173.0</ele>
        <time>2022-05-19T07:51:02Z</time>
      </trkpt>
      <trkpt lat="47.522808" lon="2.0937197">
        <ele>173.0</ele>
        <time>2022-05-19T07:51:03Z</time>
      </trkpt>
      <trkpt lat="47.5228" lon="2.0937192">
        <ele>173.0</ele>
        <time>2022-05-19T07:51:04Z</time>
      </trkpt>
      <trkpt lat="47.522797" lon="2.0937219">
        <ele>173.0</ele>
        <time>2022-05-19T07:51:05Z</time>
      </trkpt>
      <trkpt lat="47.52278" lon="2.0937235">
        <ele>173.0</ele>
        <time>2022-05-19T07:51:06Z</time>
      </trkpt>
      <trkpt lat="47.522774" lon="2.093724">
        <ele>173.0</ele>
        <time>2022-05-19T07:51:07Z</time>
      </trkpt>
      <trkpt lat="47.522762" lon="2.0937247">
        <ele>173.0</ele>
        <time>2022-05-19T07:51:08Z</time>
      </trkpt>
      <trkpt lat="47.52275" lon="2.093728">
        <ele>173.0</ele>
        <time>2022-05-19T07:51:09Z</time>
      </trkpt>
      <trkpt lat="47.522747" lon="2.093733">
        <ele>173.0</ele>
        <time>2022-05-19T07:51:10Z</time>
      </trkpt>
      <trkpt lat="47.52274" lon="2.0937364">
        <ele>172.0</ele>
        <time>2022-05-19T07:51:11Z</time>
      </trkpt>
      <trkpt lat="47.52273" lon="2.0937364">
        <ele>172.0</ele>
        <time>2022-05-19T07:51:12Z</time>
      </trkpt>
      <trkpt lat="47.52272" lon="2.0937388">
        <ele>172.0</ele>
        <time>2022-05-19T07:51:13Z</time>
      </trkpt>
      <trkpt lat="47.52271" lon="2.0937405">
        <ele>172.0</ele>
        <time>2022-05-19T07:51:14Z</time>
      </trkpt>
      <trkpt lat="47.522694" lon="2.0937397">
        <ele>173.0</ele>
        <time>2022-05-19T07:51:15Z</time>
      </trkpt>
      <trkpt lat="47.522682" lon="2.0937352">
        <ele>173.0</ele>
        <time>2022-05-19T07:51:16Z</time>
      </trkpt>
      <trkpt lat="47.52267" lon="2.0937326">
        <ele>173.0</ele>
        <time>2022-05-19T07:51:17Z</time>
      </trkpt>
      <trkpt lat="47.52266" lon="2.0937324">
        <ele>173.0</ele>
        <time>2022-05-19T07:51:18Z</time>
      </trkpt>
      <trkpt lat="47.522648" lon="2.0937338">
        <ele>173.0</ele>
        <time>2022-05-19T07:51:19Z</time>
      </trkpt>
      <trkpt lat="47.522633" lon="2.093736">
        <ele>173.0</ele>
        <time>2022-05-19T07:51:20Z</time>
      </trkpt>
      <trkpt lat="47.52262" lon="2.0937366">
        <ele>174.0</ele>
        <time>2022-05-19T07:51:21Z</time>
      </trkpt>
      <trkpt lat="47.52261" lon="2.0937414">
        <ele>173.0</ele>
        <time>2022-05-19T07:51:22Z</time>
      </trkpt>
      <trkpt lat="47.5226" lon="2.0937407">
        <ele>174.0</ele>
        <time>2022-05-19T07:51:23Z</time>
      </trkpt>
      <trkpt lat="47.522587" lon="2.0937371">
        <ele>174.0</ele>
        <time>2022-05-19T07:51:24Z</time>
      </trkpt>
      <trkpt lat="47.522575" lon="2.093738">
        <ele>175.0</ele>
        <time>2022-05-19T07:51:25Z</time>
      </trkpt>
      <trkpt lat="47.52256" lon="2.093737">
        <ele>175.0</ele>
        <time>2022-05-19T07:51:26Z</time>
      </trkpt>
      <trkpt lat="47.522545" lon="2.0937366">
        <ele>176.0</ele>
        <time>2022-05-19T07:51:27Z</time>
      </trkpt>
      <trkpt lat="47.522533" lon="2.0937376">
        <ele>176.0</ele>
        <time>2022-05-19T07:51:28Z</time>
      </trkpt>
      <trkpt lat="47.522522" lon="2.0937383">
        <ele>177.0</ele>
        <time>2022-05-19T07:51:29Z</time>
      </trkpt>
      <trkpt lat="47.52251" lon="2.0937374">
        <ele>177.0</ele>
        <time>2022-05-19T07:51:30Z</time>
      </trkpt>
      <trkpt lat="47.522503" lon="2.0937402">
        <ele>177.0</ele>
        <time>2022-05-19T07:51:31Z</time>
      </trkpt>
      <trkpt lat="47.522495" lon="2.0937479">
        <ele>176.0</ele>
        <time>2022-05-19T07:51:32Z</time>
      </trkpt>
      <trkpt lat="47.52248" lon="2.0937538">
        <ele>177.0</ele>
        <time>2022-05-19T07:51:33Z</time>
      </trkpt>
      <trkpt lat="47.52247" lon="2.0937524">
        <ele>178.0</ele>
        <time>2022-05-19T07:51:34Z</time>
      </trkpt>
      <trkpt lat="47.522453" lon="2.09375">
        <ele>178.0</ele>
        <time>2022-05-19T07:51:35Z</time>
      </trkpt>
      <trkpt lat="47.52244" lon="2.093748">
        <ele>178.0</ele>
        <time>2022-05-19T07:51:36Z</time>
      </trkpt>
      <trkpt lat="47.522427" lon="2.0937529">
        <ele>179.0</ele>
        <time>2022-05-19T07:51:37Z</time>
      </trkpt>
      <trkpt lat="47.52241" lon="2.0937598">
        <ele>179.0</ele>
        <time>2022-05-19T07:51:38Z</time>
      </trkpt>
      <trkpt lat="47.5224" lon="2.0937614">
        <ele>179.0</ele>
        <time>2022-05-19T07:51:39Z</time>
      </trkpt>
      <trkpt lat="47.522392" lon="2.093766">
        <ele>179.0</ele>
        <time>2022-05-19T07:51:40Z</time>
      </trkpt>
      <trkpt lat="47.52238" lon="2.0937681">
        <ele>180.0</ele>
        <time>2022-05-19T07:51:41Z</time>
      </trkpt>
      <trkpt lat="47.522373" lon="2.0937688">
        <ele>180.0</ele>
        <time>2022-05-19T07:51:42Z</time>
      </trkpt>
      <trkpt lat="47.52236" lon="2.0937724">
        <ele>180.0</ele>
        <time>2022-05-19T07:51:43Z</time>
      </trkpt>
      <trkpt lat="47.52235" lon="2.093771">
        <ele>181.0</ele>
        <time>2022-05-19T07:51:44Z</time>
      </trkpt>
      <trkpt lat="47.522335" lon="2.093772">
        <ele>181.0</ele>
        <time>2022-05-19T07:51:45Z</time>
      </trkpt>
      <trkpt lat="47.52232" lon="2.0937731">
        <ele>182.0</ele>
        <time>2022-05-19T07:51:46Z</time>
      </trkpt>
      <trkpt lat="47.52231" lon="2.0937777">
        <ele>182.0</ele>
        <time>2022-05-19T07:51:47Z</time>
      </trkpt>
      <trkpt lat="47.522297" lon="2.0937812">
        <ele>183.0</ele>
        <time>2022-05-19T07:51:48Z</time>
      </trkpt>
      <trkpt lat="47.522285" lon="2.0937853">
        <ele>184.0</ele>
        <time>2022-05-19T07:51:49Z</time>
      </trkpt>
      <trkpt lat="47.522274" lon="2.0937877">
        <ele>184.0</ele>
        <time>2022-05-19T07:51:50Z</time>
      </trkpt>
      <trkpt lat="47.522263" lon="2.093789">
        <ele>184.0</ele>
        <time>2022-05-19T07:51:51Z</time>
      </trkpt>
      <trkpt lat="47.522247" lon="2.0937884">
        <ele>184.0</ele>
        <time>2022-05-19T07:51:52Z</time>
      </trkpt>
      <trkpt lat="47.522236" lon="2.0937908">
        <ele>184.0</ele>
        <time>2022-05-19T07:51:53Z</time>
      </trkpt>
      <trkpt lat="47.522224" lon="2.0937932">
        <ele>185.0</ele>
        <time>2022-05-19T07:51:54Z</time>
      </trkpt>
      <trkpt lat="47.52221" lon="2.093794">
        <ele>185.0</ele>
        <time>2022-05-19T07:51:55Z</time>
      </trkpt>
      <trkpt lat="47.522198" lon="2.0937974">
        <ele>186.0</ele>
        <time>2022-05-19T07:51:56Z</time>
      </trkpt>
      <trkpt lat="47.522182" lon="2.093799">
        <ele>186.0</ele>
        <time>2022-05-19T07:51:57Z</time>
      </trkpt>
      <trkpt lat="47.52217" lon="2.0938044">
        <ele>186.0</ele>
        <time>2022-05-19T07:51:58Z</time>
      </trkpt>
      <trkpt lat="47.522167" lon="2.0938032">
        <ele>186.0</ele>
        <time>2022-05-19T07:51:59Z</time>
      </trkpt>
      <trkpt lat="47.522156" lon="2.0938027">
        <ele>186.0</ele>
        <time>2022-05-19T07:52:00Z</time>
      </trkpt>
      <trkpt lat="47.522144" lon="2.0938036">
        <ele>187.0</ele>
        <time>2022-05-19T07:52:01Z</time>
      </trkpt>
      <trkpt lat="47.522133" lon="2.093805">
        <ele>187.0</ele>
        <time>2022-05-19T07:52:02Z</time>
      </trkpt>
      <trkpt lat="47.522118" lon="2.0938087">
        <ele>187.0</ele>
        <time>2022-05-19T07:52:03Z</time>
      </trkpt>
      <trkpt lat="47.522106" lon="2.0938108">
        <ele>187.0</ele>
        <time>2022-05-19T07:52:04Z</time>
      </trkpt>
      <trkpt lat="47.5221" lon="2.0938118">
        <ele>187.0</ele>
        <time>2022-05-19T07:52:05Z</time>
      </trkpt>
      <trkpt lat="47.522087" lon="2.093817">
        <ele>187.0</ele>
        <time>2022-05-19T07:52:06Z</time>
      </trkpt>
      <trkpt lat="47.52208" lon="2.093819">
        <ele>187.0</ele>
        <time>2022-05-19T07:52:07Z</time>
      </trkpt>
      <trkpt lat="47.522068" lon="2.0938215">
        <ele>187.0</ele>
        <time>2022-05-19T07:52:08Z</time>
      </trkpt>
      <trkpt lat="47.522057" lon="2.0938196">
        <ele>187.0</ele>
        <time>2022-05-19T07:52:09Z</time>
      </trkpt>
      <trkpt lat="47.52205" lon="2.0938163">
        <ele>187.0</ele>
        <time>2022-05-19T07:52:10Z</time>
      </trkpt>
      <trkpt lat="47.522038" lon="2.0938165">
        <ele>187.0</ele>
        <time>2022-05-19T07:52:11Z</time>
      </trkpt>
      <trkpt lat="47.522026" lon="2.0938194">
        <ele>187.0</ele>
        <time>2022-05-19T07:52:12Z</time>
      </trkpt>
      <trkpt lat="47.52202" lon="2.0938199">
        <ele>187.0</ele>
        <time>2022-05-19T07:52:13Z</time>
      </trkpt>
      <trkpt lat="47.522003" lon="2.0938187">
        <ele>187.0</ele>
        <time>2022-05-19T07:52:14Z</time>
      </trkpt>
      <trkpt lat="47.521996" lon="2.0938163">
        <ele>186.0</ele>
        <time>2022-05-19T07:52:15Z</time>
      </trkpt>
      <trkpt lat="47.521984" lon="2.0938175">
        <ele>187.0</ele>
        <time>2022-05-19T07:52:16Z</time>
      </trkpt>
      <trkpt lat="47.521976" lon="2.0938232">
        <ele>187.0</ele>
        <time>2022-05-19T07:52:17Z</time>
      </trkpt>
      <trkpt lat="47.521965" lon="2.093826">
        <ele>187.0</ele>
        <time>2022-05-19T07:52:18Z</time>
      </trkpt>
      <trkpt lat="47.521954" lon="2.0938346">
        <ele>187.0</ele>
        <time>2022-05-19T07:52:19Z</time>
      </trkpt>
      <trkpt lat="47.521946" lon="2.093845">
        <ele>188.0</ele>
        <time>2022-05-19T07:52:20Z</time>
      </trkpt>
      <trkpt lat="47.521942" lon="2.0938518">
        <ele>188.0</ele>
        <time>2022-05-19T07:52:21Z</time>
      </trkpt>
      <trkpt lat="47.521935" lon="2.0938535">
        <ele>188.0</ele>
        <time>2022-05-19T07:52:22Z</time>
      </trkpt>
      <trkpt lat="47.521923" lon="2.0938542">
        <ele>188.0</ele>
        <time>2022-05-19T07:52:23Z</time>
      </trkpt>
      <trkpt lat="47.521915" lon="2.093851">
        <ele>189.0</ele>
        <time>2022-05-19T07:52:24Z</time>
      </trkpt>
      <trkpt lat="47.5219" lon="2.093853">
        <ele>189.0</ele>
        <time>2022-05-19T07:52:25Z</time>
      </trkpt>
      <trkpt lat="47.52188" lon="2.0938568">
        <ele>189.0</ele>
        <time>2022-05-19T07:52:26Z</time>
      </trkpt>
      <trkpt lat="47.521866" lon="2.0938642">
        <ele>189.0</ele>
        <time>2022-05-19T07:52:27Z</time>
      </trkpt>
      <trkpt lat="47.521854" lon="2.0938704">
        <ele>189.0</ele>
        <time>2022-05-19T07:52:28Z</time>
      </trkpt>
      <trkpt lat="47.521843" lon="2.0938709">
        <ele>189.0</ele>
        <time>2022-05-19T07:52:29Z</time>
      </trkpt>
      <trkpt lat="47.521828" lon="2.0938709">
        <ele>189.0</ele>
        <time>2022-05-19T07:52:30Z</time>
      </trkpt>
      <trkpt lat="47.521812" lon="2.093872">
        <ele>189.0</ele>
        <time>2022-05-19T07:52:31Z</time>
      </trkpt>
      <trkpt lat="47.521797" lon="2.093868">
        <ele>189.0</ele>
        <time>2022-05-19T07:52:32Z</time>
      </trkpt>
      <trkpt lat="47.521786" lon="2.0938642">
        <ele>189.0</ele>
        <time>2022-05-19T07:52:33Z</time>
      </trkpt>
      <trkpt lat="47.52177" lon="2.0938702">
        <ele>188.0</ele>
        <time>2022-05-19T07:52:34Z</time>
      </trkpt>
      <trkpt lat="47.52176" lon="2.0938709">
        <ele>188.0</ele>
        <time>2022-05-19T07:52:35Z</time>
      </trkpt>
      <trkpt lat="47.521748" lon="2.093872">
        <ele>188.0</ele>
        <time>2022-05-19T07:52:36Z</time>
      </trkpt>
      <trkpt lat="47.52174" lon="2.0938776">
        <ele>188.0</ele>
        <time>2022-05-19T07:52:37Z</time>
      </trkpt>
      <trkpt lat="47.52173" lon="2.0938818">
        <ele>189.0</ele>
        <time>2022-05-19T07:52:38Z</time>
      </trkpt>
      <trkpt lat="47.521717" lon="2.0938854">
        <ele>189.0</ele>
        <time>2022-05-19T07:52:39Z</time>
      </trkpt>
      <trkpt lat="47.521706" lon="2.0938792">
        <ele>189.0</ele>
        <time>2022-05-19T07:52:40Z</time>
      </trkpt>
      <trkpt lat="47.52169" lon="2.0938792">
        <ele>189.0</ele>
        <time>2022-05-19T07:52:41Z</time>
      </trkpt>
      <trkpt lat="47.52168" lon="2.0938826">
        <ele>189.0</ele>
        <time>2022-05-19T07:52:42Z</time>
      </trkpt>
      <trkpt lat="47.521667" lon="2.093886">
        <ele>189.0</ele>
        <time>2022-05-19T07:52:43Z</time>
      </trkpt>
      <trkpt lat="47.521656" lon="2.093889">
        <ele>189.0</ele>
        <time>2022-05-19T07:52:44Z</time>
      </trkpt>
      <trkpt lat="47.52165" lon="2.0938916">
        <ele>189.0</ele>
        <time>2022-05-19T07:52:45Z</time>
      </trkpt>
      <trkpt lat="47.521637" lon="2.0938978">
        <ele>189.0</ele>
        <time>2022-05-19T07:52:46Z</time>
      </trkpt>
      <trkpt lat="47.52162" lon="2.0939014">
        <ele>189.0</ele>
        <time>2022-05-19T07:52:47Z</time>
      </trkpt>
      <trkpt lat="47.52161" lon="2.093903">
        <ele>189.0</ele>
        <time>2022-05-19T07:52:48Z</time>
      </trkpt>
      <trkpt lat="47.521595" lon="2.0938993">
        <ele>189.0</ele>
        <time>2022-05-19T07:52:49Z</time>
      </trkpt>
      <trkpt lat="47.521584" lon="2.0938945">
        <ele>189.0</ele>
        <time>2022-05-19T07:52:50Z</time>
      </trkpt>
      <trkpt lat="47.521572" lon="2.0938914">
        <ele>188.0</ele>
        <time>2022-05-19T07:52:51Z</time>
      </trkpt>
      <trkpt lat="47.521564" lon="2.0938873">
        <ele>188.0</ele>
        <time>2022-05-19T07:52:52Z</time>
      </trkpt>
      <trkpt lat="47.521553" lon="2.093886">
        <ele>188.0</ele>
        <time>2022-05-19T07:52:53Z</time>
      </trkpt>
      <trkpt lat="47.521534" lon="2.093887">
        <ele>188.0</ele>
        <time>2022-05-19T07:52:54Z</time>
      </trkpt>
      <trkpt lat="47.521523" lon="2.0938902">
        <ele>188.0</ele>
        <time>2022-05-19T07:52:55Z</time>
      </trkpt>
      <trkpt lat="47.521515" lon="2.0938928">
        <ele>188.0</ele>
        <time>2022-05-19T07:52:56Z</time>
      </trkpt>
      <trkpt lat="47.521503" lon="2.0938954">
        <ele>189.0</ele>
        <time>2022-05-19T07:52:57Z</time>
      </trkpt>
      <trkpt lat="47.521492" lon="2.0938964">
        <ele>189.0</ele>
        <time>2022-05-19T07:52:58Z</time>
      </trkpt>
      <trkpt lat="47.521484" lon="2.093904">
        <ele>189.0</ele>
        <time>2022-05-19T07:52:59Z</time>
      </trkpt>
      <trkpt lat="47.52147" lon="2.0939045">
        <ele>189.0</ele>
        <time>2022-05-19T07:53:00Z</time>
      </trkpt>
      <trkpt lat="47.521454" lon="2.093909">
        <ele>189.0</ele>
        <time>2022-05-19T07:53:01Z</time>
      </trkpt>
      <trkpt lat="47.521446" lon="2.0939136">
        <ele>189.0</ele>
        <time>2022-05-19T07:53:02Z</time>
      </trkpt>
      <trkpt lat="47.521435" lon="2.093917">
        <ele>189.0</ele>
        <time>2022-05-19T07:53:03Z</time>
      </trkpt>
      <trkpt lat="47.521423" lon="2.0939205">
        <ele>190.0</ele>
        <time>2022-05-19T07:53:04Z</time>
      </trkpt>
      <trkpt lat="47.52141" lon="2.0939229">
        <ele>190.0</ele>
        <time>2022-05-19T07:53:05Z</time>
      </trkpt>
      <trkpt lat="47.521397" lon="2.093923">
        <ele>190.0</ele>
        <time>2022-05-19T07:53:06Z</time>
      </trkpt>
      <trkpt lat="47.52139" lon="2.093925">
        <ele>190.0</ele>
        <time>2022-05-19T07:53:07Z</time>
      </trkpt>
      <trkpt lat="47.521378" lon="2.093925">
        <ele>191.0</ele>
        <time>2022-05-19T07:53:08Z</time>
      </trkpt>
      <trkpt lat="47.521366" lon="2.0939226">
        <ele>191.0</ele>
        <time>2022-05-19T07:53:09Z</time>
      </trkpt>
      <trkpt lat="47.52136" lon="2.0939255">
        <ele>191.0</ele>
        <time>2022-05-19T07:53:10Z</time>
      </trkpt>
      <trkpt lat="47.521347" lon="2.093927">
        <ele>191.0</ele>
        <time>2022-05-19T07:53:11Z</time>
      </trkpt>
      <trkpt lat="47.521336" lon="2.0939276">
        <ele>191.0</ele>
        <time>2022-05-19T07:53:12Z</time>
      </trkpt>
      <trkpt lat="47.521328" lon="2.0939288">
        <ele>191.0</ele>
        <time>2022-05-19T07:53:13Z</time>
      </trkpt>
      <trkpt lat="47.52131" lon="2.0939326">
        <ele>192.0</ele>
        <time>2022-05-19T07:53:14Z</time>
      </trkpt>
      <trkpt lat="47.521297" lon="2.0939305">
        <ele>192.0</ele>
        <time>2022-05-19T07:53:15Z</time>
      </trkpt>
      <trkpt lat="47.521286" lon="2.093935">
        <ele>192.0</ele>
        <time>2022-05-19T07:53:16Z</time>
      </trkpt>
      <trkpt lat="47.52127" lon="2.0939417">
        <ele>191.0</ele>
        <time>2022-05-19T07:53:17Z</time>
      </trkpt>
      <trkpt lat="47.52126" lon="2.0939443">
        <ele>192.0</ele>
        <time>2022-05-19T07:53:18Z</time>
      </trkpt>
      <trkpt lat="47.52125" lon="2.093944">
        <ele>192.0</ele>
        <time>2022-05-19T07:53:19Z</time>
      </trkpt>
      <trkpt lat="47.521236" lon="2.0939424">
        <ele>192.0</ele>
        <time>2022-05-19T07:53:20Z</time>
      </trkpt>
      <trkpt lat="47.521217" lon="2.0939445">
        <ele>192.0</ele>
        <time>2022-05-19T07:53:21Z</time>
      </trkpt>
      <trkpt lat="47.521206" lon="2.093947">
        <ele>192.0</ele>
        <time>2022-05-19T07:53:22Z</time>
      </trkpt>
      <trkpt lat="47.521194" lon="2.093948">
        <ele>192.0</ele>
        <time>2022-05-19T07:53:23Z</time>
      </trkpt>
      <trkpt lat="47.521183" lon="2.0939481">
        <ele>192.0</ele>
        <time>2022-05-19T07:53:24Z</time>
      </trkpt>
      <trkpt lat="47.521168" lon="2.09395">
        <ele>191.0</ele>
        <time>2022-05-19T07:53:25Z</time>
      </trkpt>
      <trkpt lat="47.521152" lon="2.093953">
        <ele>191.0</ele>
        <time>2022-05-19T07:53:26Z</time>
      </trkpt>
      <trkpt lat="47.521133" lon="2.093956">
        <ele>191.0</ele>
        <time>2022-05-19T07:53:27Z</time>
      </trkpt>
      <trkpt lat="47.521122" lon="2.0939605">
        <ele>191.0</ele>
        <time>2022-05-19T07:53:28Z</time>
      </trkpt>
      <trkpt lat="47.521114" lon="2.0939603">
        <ele>192.0</ele>
        <time>2022-05-19T07:53:29Z</time>
      </trkpt>
      <trkpt lat="47.521107" lon="2.0939617">
        <ele>191.0</ele>
        <time>2022-05-19T07:53:30Z</time>
      </trkpt>
      <trkpt lat="47.52109" lon="2.0939643">
        <ele>191.0</ele>
        <time>2022-05-19T07:53:31Z</time>
      </trkpt>
      <trkpt lat="47.521076" lon="2.093967">
        <ele>191.0</ele>
        <time>2022-05-19T07:53:32Z</time>
      </trkpt>
      <trkpt lat="47.52106" lon="2.0939698">
        <ele>191.0</ele>
        <time>2022-05-19T07:53:33Z</time>
      </trkpt>
      <trkpt lat="47.52105" lon="2.09397">
        <ele>190.0</ele>
        <time>2022-05-19T07:53:34Z</time>
      </trkpt>
      <trkpt lat="47.521038" lon="2.0939682">
        <ele>189.0</ele>
        <time>2022-05-19T07:53:35Z</time>
      </trkpt>
      <trkpt lat="47.521027" lon="2.0939732">
        <ele>189.0</ele>
        <time>2022-05-19T07:53:36Z</time>
      </trkpt>
      <trkpt lat="47.521015" lon="2.0939744">
        <ele>188.0</ele>
        <time>2022-05-19T07:53:37Z</time>
      </trkpt>
      <trkpt lat="47.521" lon="2.0939763">
        <ele>187.0</ele>
        <time>2022-05-19T07:53:38Z</time>
      </trkpt>
      <trkpt lat="47.520992" lon="2.0939763">
        <ele>186.0</ele>
        <time>2022-05-19T07:53:39Z</time>
      </trkpt>
      <trkpt lat="47.52098" lon="2.0939825">
        <ele>186.0</ele>
        <time>2022-05-19T07:53:40Z</time>
      </trkpt>
      <trkpt lat="47.520966" lon="2.0939877">
        <ele>186.0</ele>
        <time>2022-05-19T07:53:41Z</time>
      </trkpt>
      <trkpt lat="47.520958" lon="2.0939972">
        <ele>186.0</ele>
        <time>2022-05-19T07:53:42Z</time>
      </trkpt>
      <trkpt lat="47.52095" lon="2.0940056">
        <ele>185.0</ele>
        <time>2022-05-19T07:53:43Z</time>
      </trkpt>
      <trkpt lat="47.52094" lon="2.094015">
        <ele>185.0</ele>
        <time>2022-05-19T07:53:44Z</time>
      </trkpt>
      <trkpt lat="47.520924" lon="2.0940185">
        <ele>185.0</ele>
        <time>2022-05-19T07:53:45Z</time>
      </trkpt>
      <trkpt lat="47.520916" lon="2.0940273">
        <ele>185.0</ele>
        <time>2022-05-19T07:53:46Z</time>
      </trkpt>
      <trkpt lat="47.520905" lon="2.0940368">
        <ele>185.0</ele>
        <time>2022-05-19T07:53:47Z</time>
      </trkpt>
      <trkpt lat="47.52089" lon="2.0940392">
        <ele>184.0</ele>
        <time>2022-05-19T07:53:48Z</time>
      </trkpt>
      <trkpt lat="47.52088" lon="2.0940478">
        <ele>184.0</ele>
        <time>2022-05-19T07:53:49Z</time>
      </trkpt>
      <trkpt lat="47.520866" lon="2.0940492">
        <ele>184.0</ele>
        <time>2022-05-19T07:53:50Z</time>
      </trkpt>
      <trkpt lat="47.52085" lon="2.0940566">
        <ele>184.0</ele>
        <time>2022-05-19T07:53:51Z</time>
      </trkpt>
      <trkpt lat="47.520844" lon="2.094064">
        <ele>184.0</ele>
        <time>2022-05-19T07:53:52Z</time>
      </trkpt>
      <trkpt lat="47.520836" lon="2.0940702">
        <ele>184.0</ele>
        <time>2022-05-19T07:53:53Z</time>
      </trkpt>
      <trkpt lat="47.52083" lon="2.0940745">
        <ele>183.0</ele>
        <time>2022-05-19T07:53:54Z</time>
      </trkpt>
      <trkpt lat="47.52082" lon="2.094076">
        <ele>183.0</ele>
        <time>2022-05-19T07:53:55Z</time>
      </trkpt>
      <trkpt lat="47.520813" lon="2.0940752">
        <ele>182.0</ele>
        <time>2022-05-19T07:53:56Z</time>
      </trkpt>
      <trkpt lat="47.520805" lon="2.0940769">
        <ele>182.0</ele>
        <time>2022-05-19T07:53:57Z</time>
      </trkpt>
      <trkpt lat="47.520794" lon="2.094082">
        <ele>181.0</ele>
        <time>2022-05-19T07:53:58Z</time>
      </trkpt>
      <trkpt lat="47.520775" lon="2.0940814">
        <ele>182.0</ele>
        <time>2022-05-19T07:53:59Z</time>
      </trkpt>
      <trkpt lat="47.520763" lon="2.09408">
        <ele>181.0</ele>
        <time>2022-05-19T07:54:00Z</time>
      </trkpt>
      <trkpt lat="47.52075" lon="2.0940783">
        <ele>182.0</ele>
        <time>2022-05-19T07:54:01Z</time>
      </trkpt>
      <trkpt lat="47.520733" lon="2.0940845">
        <ele>182.0</ele>
        <time>2022-05-19T07:54:02Z</time>
      </trkpt>
      <trkpt lat="47.52072" lon="2.0940897">
        <ele>182.0</ele>
        <time>2022-05-19T07:54:03Z</time>
      </trkpt>
      <trkpt lat="47.52071" lon="2.094094">
        <ele>181.0</ele>
        <time>2022-05-19T07:54:04Z</time>
      </trkpt>
      <trkpt lat="47.5207" lon="2.0940986">
        <ele>181.0</ele>
        <time>2022-05-19T07:54:05Z</time>
      </trkpt>
      <trkpt lat="47.52069" lon="2.0941045">
        <ele>180.0</ele>
        <time>2022-05-19T07:54:06Z</time>
      </trkpt>
      <trkpt lat="47.52068" lon="2.094106">
        <ele>180.0</ele>
        <time>2022-05-19T07:54:07Z</time>
      </trkpt>
      <trkpt lat="47.52068" lon="2.094106">
        <ele>180.0</ele>
        <time>2022-05-19T07:54:08Z</time>
      </trkpt>
      <trkpt lat="47.520657" lon="2.0941176">
        <ele>179.0</ele>
        <time>2022-05-19T07:54:09Z</time>
      </trkpt>
      <trkpt lat="47.520645" lon="2.094125">
        <ele>178.0</ele>
        <time>2022-05-19T07:54:10Z</time>
      </trkpt>
      <trkpt lat="47.520634" lon="2.0941288">
        <ele>178.0</ele>
        <time>2022-05-19T07:54:11Z</time>
      </trkpt>
      <trkpt lat="47.520615" lon="2.0941339">
        <ele>178.0</ele>
        <time>2022-05-19T07:54:12Z</time>
      </trkpt>
      <trkpt lat="47.520603" lon="2.0941403">
        <ele>178.0</ele>
        <time>2022-05-19T07:54:13Z</time>
      </trkpt>
      <trkpt lat="47.520596" lon="2.094142">
        <ele>178.0</ele>
        <time>2022-05-19T07:54:14Z</time>
      </trkpt>
      <trkpt lat="47.52058" lon="2.0941432">
        <ele>178.0</ele>
        <time>2022-05-19T07:54:15Z</time>
      </trkpt>
      <trkpt lat="47.52057" lon="2.094144">
        <ele>177.0</ele>
        <time>2022-05-19T07:54:16Z</time>
      </trkpt>
      <trkpt lat="47.52056" lon="2.0941465">
        <ele>176.0</ele>
        <time>2022-05-19T07:54:17Z</time>
      </trkpt>
      <trkpt lat="47.52056" lon="2.0941465">
        <ele>176.0</ele>
        <time>2022-05-19T07:54:18Z</time>
      </trkpt>
      <trkpt lat="47.520542" lon="2.0941496">
        <ele>176.0</ele>
        <time>2022-05-19T07:54:19Z</time>
      </trkpt>
      <trkpt lat="47.52053" lon="2.094148">
        <ele>176.0</ele>
        <time>2022-05-19T07:54:20Z</time>
      </trkpt>
      <trkpt lat="47.52052" lon="2.0941486">
        <ele>175.0</ele>
        <time>2022-05-19T07:54:21Z</time>
      </trkpt>
      <trkpt lat="47.52051" lon="2.0941484">
        <ele>176.0</ele>
        <time>2022-05-19T07:54:22Z</time>
      </trkpt>
      <trkpt lat="47.5205" lon="2.0941489">
        <ele>176.0</ele>
        <time>2022-05-19T07:54:23Z</time>
      </trkpt>
      <trkpt lat="47.5205" lon="2.0941489">
        <ele>176.0</ele>
        <time>2022-05-19T07:54:24Z</time>
      </trkpt>
      <trkpt lat="47.520477" lon="2.0941505">
        <ele>177.0</ele>
        <time>2022-05-19T07:54:25Z</time>
      </trkpt>
      <trkpt lat="47.52046" lon="2.0941532">
        <ele>177.0</ele>
        <time>2022-05-19T07:54:26Z</time>
      </trkpt>
      <trkpt lat="47.520447" lon="2.0941575">
        <ele>176.0</ele>
        <time>2022-05-19T07:54:27Z</time>
      </trkpt>
      <trkpt lat="47.52044" lon="2.0941603">
        <ele>176.0</ele>
        <time>2022-05-19T07:54:28Z</time>
      </trkpt>
      <trkpt lat="47.520435" lon="2.0941675">
        <ele>177.0</ele>
        <time>2022-05-19T07:54:29Z</time>
      </trkpt>
      <trkpt lat="47.520428" lon="2.0941787">
        <ele>177.0</ele>
        <time>2022-05-19T07:54:30Z</time>
      </trkpt>
      <trkpt lat="47.520424" lon="2.0941904">
        <ele>178.0</ele>
        <time>2022-05-19T07:54:31Z</time>
      </trkpt>
      <trkpt lat="47.520412" lon="2.0941947">
        <ele>178.0</ele>
        <time>2022-05-19T07:54:32Z</time>
      </trkpt>
      <trkpt lat="47.520397" lon="2.0941987">
        <ele>178.0</ele>
        <time>2022-05-19T07:54:33Z</time>
      </trkpt>
      <trkpt lat="47.520386" lon="2.0942059">
        <ele>178.0</ele>
        <time>2022-05-19T07:54:34Z</time>
      </trkpt>
      <trkpt lat="47.520374" lon="2.094207">
        <ele>178.0</ele>
        <time>2022-05-19T07:54:35Z</time>
      </trkpt>
      <trkpt lat="47.52036" lon="2.094209">
        <ele>178.0</ele>
        <time>2022-05-19T07:54:36Z</time>
      </trkpt>
      <trkpt lat="47.520348" lon="2.0942132">
        <ele>178.0</ele>
        <time>2022-05-19T07:54:37Z</time>
      </trkpt>
      <trkpt lat="47.520336" lon="2.0942132">
        <ele>178.0</ele>
        <time>2022-05-19T07:54:38Z</time>
      </trkpt>
      <trkpt lat="47.520325" lon="2.0942125">
        <ele>178.0</ele>
        <time>2022-05-19T07:54:39Z</time>
      </trkpt>
      <trkpt lat="47.520313" lon="2.0942132">
        <ele>178.0</ele>
        <time>2022-05-19T07:54:40Z</time>
      </trkpt>
      <trkpt lat="47.520298" lon="2.094211">
        <ele>178.0</ele>
        <time>2022-05-19T07:54:41Z</time>
      </trkpt>
      <trkpt lat="47.520283" lon="2.0942092">
        <ele>177.0</ele>
        <time>2022-05-19T07:54:42Z</time>
      </trkpt>
      <trkpt lat="47.52027" lon="2.0942135">
        <ele>177.0</ele>
        <time>2022-05-19T07:54:43Z</time>
      </trkpt>
      <trkpt lat="47.52026" lon="2.0942154">
        <ele>177.0</ele>
        <time>2022-05-19T07:54:44Z</time>
      </trkpt>
      <trkpt lat="47.52025" lon="2.0942202">
        <ele>176.0</ele>
        <time>2022-05-19T07:54:45Z</time>
      </trkpt>
      <trkpt lat="47.52024" lon="2.0942256">
        <ele>176.0</ele>
        <time>2022-05-19T07:54:46Z</time>
      </trkpt>
      <trkpt lat="47.52023" lon="2.0942287">
        <ele>176.0</ele>
        <time>2022-05-19T07:54:47Z</time>
      </trkpt>
      <trkpt lat="47.520218" lon="2.0942273">
        <ele>176.0</ele>
        <time>2022-05-19T07:54:48Z</time>
      </trkpt>
      <trkpt lat="47.520206" lon="2.0942268">
        <ele>176.0</ele>
        <time>2022-05-19T07:54:49Z</time>
      </trkpt>
      <trkpt lat="47.520195" lon="2.0942252">
        <ele>175.0</ele>
        <time>2022-05-19T07:54:50Z</time>
      </trkpt>
      <trkpt lat="47.52018" lon="2.0942247">
        <ele>174.0</ele>
        <time>2022-05-19T07:54:51Z</time>
      </trkpt>
      <trkpt lat="47.520164" lon="2.0942216">
        <ele>175.0</ele>
        <time>2022-05-19T07:54:52Z</time>
      </trkpt>
      <trkpt lat="47.52015" lon="2.0942218">
        <ele>175.0</ele>
        <time>2022-05-19T07:54:53Z</time>
      </trkpt>
      <trkpt lat="47.520134" lon="2.0942202">
        <ele>174.0</ele>
        <time>2022-05-19T07:54:54Z</time>
      </trkpt>
      <trkpt lat="47.520123" lon="2.0942256">
        <ele>174.0</ele>
        <time>2022-05-19T07:54:55Z</time>
      </trkpt>
      <trkpt lat="47.52011" lon="2.0942228">
        <ele>173.0</ele>
        <time>2022-05-19T07:54:56Z</time>
      </trkpt>
      <trkpt lat="47.5201" lon="2.094228">
        <ele>173.0</ele>
        <time>2022-05-19T07:54:57Z</time>
      </trkpt>
      <trkpt lat="47.520084" lon="2.0942354">
        <ele>172.0</ele>
        <time>2022-05-19T07:54:58Z</time>
      </trkpt>
      <trkpt lat="47.520073" lon="2.094243">
        <ele>172.0</ele>
        <time>2022-05-19T07:54:59Z</time>
      </trkpt>
      <trkpt lat="47.52006" lon="2.0942504">
        <ele>171.0</ele>
        <time>2022-05-19T07:55:00Z</time>
      </trkpt>
      <trkpt lat="47.520046" lon="2.094255">
        <ele>171.0</ele>
        <time>2022-05-19T07:55:01Z</time>
      </trkpt>
      <trkpt lat="47.520035" lon="2.0942595">
        <ele>170.0</ele>
        <time>2022-05-19T07:55:02Z</time>
      </trkpt>
      <trkpt lat="47.52002" lon="2.0942616">
        <ele>170.0</ele>
        <time>2022-05-19T07:55:03Z</time>
      </trkpt>
      <trkpt lat="47.520004" lon="2.0942643">
        <ele>170.0</ele>
        <time>2022-05-19T07:55:04Z</time>
      </trkpt>
      <trkpt lat="47.519993" lon="2.094265">
        <ele>170.0</ele>
        <time>2022-05-19T07:55:05Z</time>
      </trkpt>
      <trkpt lat="47.51998" lon="2.094269">
        <ele>170.0</ele>
        <time>2022-05-19T07:55:06Z</time>
      </trkpt>
      <trkpt lat="47.51997" lon="2.094272">
        <ele>170.0</ele>
        <time>2022-05-19T07:55:07Z</time>
      </trkpt>
      <trkpt lat="47.519962" lon="2.0942824">
        <ele>170.0</ele>
        <time>2022-05-19T07:55:08Z</time>
      </trkpt>
      <trkpt lat="47.51995" lon="2.0942893">
        <ele>170.0</ele>
        <time>2022-05-19T07:55:09Z</time>
      </trkpt>
      <trkpt lat="47.51994" lon="2.0942924">
        <ele>170.0</ele>
        <time>2022-05-19T07:55:10Z</time>
      </trkpt>
      <trkpt lat="47.519928" lon="2.0942955">
        <ele>170.0</ele>
        <time>2022-05-19T07:55:11Z</time>
      </trkpt>
      <trkpt lat="47.519917" lon="2.0943055">
        <ele>169.0</ele>
        <time>2022-05-19T07:55:12Z</time>
      </trkpt>
      <trkpt lat="47.51991" lon="2.0943098">
        <ele>170.0</ele>
        <time>2022-05-19T07:55:13Z</time>
      </trkpt>
      <trkpt lat="47.519897" lon="2.0943162">
        <ele>170.0</ele>
        <time>2022-05-19T07:55:14Z</time>
      </trkpt>
      <trkpt lat="47.519886" lon="2.094322">
        <ele>169.0</ele>
        <time>2022-05-19T07:55:15Z</time>
      </trkpt>
      <trkpt lat="47.51987" lon="2.0943282">
        <ele>169.0</ele>
        <time>2022-05-19T07:55:16Z</time>
      </trkpt>
      <trkpt lat="47.51986" lon="2.0943336">
        <ele>169.0</ele>
        <time>2022-05-19T07:55:17Z</time>
      </trkpt>
      <trkpt lat="47.519848" lon="2.0943434">
        <ele>169.0</ele>
        <time>2022-05-19T07:55:18Z</time>
      </trkpt>
      <trkpt lat="47.519836" lon="2.0943573">
        <ele>169.0</ele>
        <time>2022-05-19T07:55:19Z</time>
      </trkpt>
      <trkpt lat="47.519825" lon="2.0943668">
        <ele>169.0</ele>
        <time>2022-05-19T07:55:20Z</time>
      </trkpt>
      <trkpt lat="47.519814" lon="2.0943716">
        <ele>168.0</ele>
        <time>2022-05-19T07:55:21Z</time>
      </trkpt>
      <trkpt lat="47.519806" lon="2.0943804">
        <ele>168.0</ele>
        <time>2022-05-19T07:55:22Z</time>
      </trkpt>
      <trkpt lat="47.5198" lon="2.094387">
        <ele>168.0</ele>
        <time>2022-05-19T07:55:23Z</time>
      </trkpt>
      <trkpt lat="47.51979" lon="2.0943913">
        <ele>168.0</ele>
        <time>2022-05-19T07:55:24Z</time>
      </trkpt>
      <trkpt lat="47.51978" lon="2.0944011">
        <ele>168.0</ele>
        <time>2022-05-19T07:55:25Z</time>
      </trkpt>
      <trkpt lat="47.519775" lon="2.0944142">
        <ele>167.0</ele>
        <time>2022-05-19T07:55:26Z</time>
      </trkpt>
      <trkpt lat="47.519768" lon="2.094426">
        <ele>168.0</ele>
        <time>2022-05-19T07:55:27Z</time>
      </trkpt>
      <trkpt lat="47.51976" lon="2.0944328">
        <ele>168.0</ele>
        <time>2022-05-19T07:55:28Z</time>
      </trkpt>
      <trkpt lat="47.519753" lon="2.0944436">
        <ele>168.0</ele>
        <time>2022-05-19T07:55:29Z</time>
      </trkpt>
      <trkpt lat="47.519745" lon="2.0944479">
        <ele>167.0</ele>
        <time>2022-05-19T07:55:30Z</time>
      </trkpt>
      <trkpt lat="47.519737" lon="2.094453">
        <ele>167.0</ele>
        <time>2022-05-19T07:55:31Z</time>
      </trkpt>
      <trkpt lat="47.51973" lon="2.0944605">
        <ele>166.0</ele>
        <time>2022-05-19T07:55:32Z</time>
      </trkpt>
      <trkpt lat="47.51972" lon="2.0944707">
        <ele>166.0</ele>
        <time>2022-05-19T07:55:33Z</time>
      </trkpt>
      <trkpt lat="47.519707" lon="2.0944834">
        <ele>166.0</ele>
        <time>2022-05-19T07:55:34Z</time>
      </trkpt>
      <trkpt lat="47.519695" lon="2.094487">
        <ele>166.0</ele>
        <time>2022-05-19T07:55:35Z</time>
      </trkpt>
      <trkpt lat="47.519684" lon="2.094496">
        <ele>166.0</ele>
        <time>2022-05-19T07:55:36Z</time>
      </trkpt>
      <trkpt lat="47.51967" lon="2.0945036">
        <ele>166.0</ele>
        <time>2022-05-19T07:55:37Z</time>
      </trkpt>
      <trkpt lat="47.51966" lon="2.094516">
        <ele>166.0</ele>
        <time>2022-05-19T07:55:38Z</time>
      </trkpt>
      <trkpt lat="47.51965" lon="2.0945258">
        <ele>166.0</ele>
        <time>2022-05-19T07:55:39Z</time>
      </trkpt>
      <trkpt lat="47.519638" lon="2.0945308">
        <ele>166.0</ele>
        <time>2022-05-19T07:55:40Z</time>
      </trkpt>
      <trkpt lat="47.519627" lon="2.0945368">
        <ele>166.0</ele>
        <time>2022-05-19T07:55:41Z</time>
      </trkpt>
      <trkpt lat="47.51961" lon="2.0945425">
        <ele>166.0</ele>
        <time>2022-05-19T07:55:42Z</time>
      </trkpt>
      <trkpt lat="47.5196" lon="2.0945451">
        <ele>166.0</ele>
        <time>2022-05-19T07:55:43Z</time>
      </trkpt>
      <trkpt lat="47.51959" lon="2.0945494">
        <ele>166.0</ele>
        <time>2022-05-19T07:55:44Z</time>
      </trkpt>
      <trkpt lat="47.519577" lon="2.0945554">
        <ele>166.0</ele>
        <time>2022-05-19T07:55:45Z</time>
      </trkpt>
      <trkpt lat="47.519566" lon="2.094562">
        <ele>166.0</ele>
        <time>2022-05-19T07:55:46Z</time>
      </trkpt>
      <trkpt lat="47.519554" lon="2.0945678">
        <ele>165.0</ele>
        <time>2022-05-19T07:55:47Z</time>
      </trkpt>
      <trkpt lat="47.51954" lon="2.0945737">
        <ele>166.0</ele>
        <time>2022-05-19T07:55:48Z</time>
      </trkpt>
      <trkpt lat="47.51953" lon="2.094583">
        <ele>165.0</ele>
        <time>2022-05-19T07:55:49Z</time>
      </trkpt>
      <trkpt lat="47.51952" lon="2.0945873">
        <ele>165.0</ele>
        <time>2022-05-19T07:55:50Z</time>
      </trkpt>
      <trkpt lat="47.51951" lon="2.0945926">
        <ele>166.0</ele>
        <time>2022-05-19T07:55:51Z</time>
      </trkpt>
      <trkpt lat="47.519493" lon="2.0945978">
        <ele>166.0</ele>
        <time>2022-05-19T07:55:52Z</time>
      </trkpt>
      <trkpt lat="47.519478" lon="2.0946078">
        <ele>166.0</ele>
        <time>2022-05-19T07:55:53Z</time>
      </trkpt>
      <trkpt lat="47.519466" lon="2.0946162">
        <ele>166.0</ele>
        <time>2022-05-19T07:55:54Z</time>
      </trkpt>
      <trkpt lat="47.51946" lon="2.0946224">
        <ele>166.0</ele>
        <time>2022-05-19T07:55:55Z</time>
      </trkpt>
      <trkpt lat="47.51945" lon="2.0946298">
        <ele>166.0</ele>
        <time>2022-05-19T07:55:56Z</time>
      </trkpt>
      <trkpt lat="47.519444" lon="2.0946386">
        <ele>167.0</ele>
        <time>2022-05-19T07:55:57Z</time>
      </trkpt>
      <trkpt lat="47.519436" lon="2.0946476">
        <ele>167.0</ele>
        <time>2022-05-19T07:55:58Z</time>
      </trkpt>
      <trkpt lat="47.519424" lon="2.0946522">
        <ele>167.0</ele>
        <time>2022-05-19T07:55:59Z</time>
      </trkpt>
      <trkpt lat="47.519413" lon="2.0946631">
        <ele>167.0</ele>
        <time>2022-05-19T07:56:00Z</time>
      </trkpt>
      <trkpt lat="47.5194" lon="2.0946708">
        <ele>167.0</ele>
        <time>2022-05-19T07:56:01Z</time>
      </trkpt>
      <trkpt lat="47.519394" lon="2.094677">
        <ele>168.0</ele>
        <time>2022-05-19T07:56:02Z</time>
      </trkpt>
      <trkpt lat="47.519386" lon="2.0946786">
        <ele>168.0</ele>
        <time>2022-05-19T07:56:03Z</time>
      </trkpt>
      <trkpt lat="47.51938" lon="2.0946836">
        <ele>167.0</ele>
        <time>2022-05-19T07:56:04Z</time>
      </trkpt>
      <trkpt lat="47.519367" lon="2.0946898">
        <ele>168.0</ele>
        <time>2022-05-19T07:56:05Z</time>
      </trkpt>
      <trkpt lat="47.519356" lon="2.094699">
        <ele>168.0</ele>
        <time>2022-05-19T07:56:06Z</time>
      </trkpt>
      <trkpt lat="47.519344" lon="2.0947068">
        <ele>168.0</ele>
        <time>2022-05-19T07:56:07Z</time>
      </trkpt>
      <trkpt lat="47.519333" lon="2.0947075">
        <ele>168.0</ele>
        <time>2022-05-19T07:56:08Z</time>
      </trkpt>
      <trkpt lat="47.51932" lon="2.0947158">
        <ele>167.0</ele>
        <time>2022-05-19T07:56:09Z</time>
      </trkpt>
      <trkpt lat="47.519306" lon="2.0947223">
        <ele>166.0</ele>
        <time>2022-05-19T07:56:10Z</time>
      </trkpt>
      <trkpt lat="47.519295" lon="2.0947342">
        <ele>166.0</ele>
        <time>2022-05-19T07:56:11Z</time>
      </trkpt>
      <trkpt lat="47.51928" lon="2.0947359">
        <ele>165.0</ele>
        <time>2022-05-19T07:56:12Z</time>
      </trkpt>
      <trkpt lat="47.51926" lon="2.0947444">
        <ele>166.0</ele>
        <time>2022-05-19T07:56:13Z</time>
      </trkpt>
      <trkpt lat="47.519245" lon="2.09475">
        <ele>166.0</ele>
        <time>2022-05-19T07:56:14Z</time>
      </trkpt>
      <trkpt lat="47.51923" lon="2.0947547">
        <ele>166.0</ele>
        <time>2022-05-19T07:56:15Z</time>
      </trkpt>
      <trkpt lat="47.51922" lon="2.094761">
        <ele>166.0</ele>
        <time>2022-05-19T07:56:16Z</time>
      </trkpt>
      <trkpt lat="47.519207" lon="2.0947673">
        <ele>166.0</ele>
        <time>2022-05-19T07:56:17Z</time>
      </trkpt>
      <trkpt lat="47.5192" lon="2.0947716">
        <ele>166.0</ele>
        <time>2022-05-19T07:56:18Z</time>
      </trkpt>
      <trkpt lat="47.51919" lon="2.094778">
        <ele>166.0</ele>
        <time>2022-05-19T07:56:19Z</time>
      </trkpt>
      <trkpt lat="47.51918" lon="2.0947835">
        <ele>167.0</ele>
        <time>2022-05-19T07:56:20Z</time>
      </trkpt>
      <trkpt lat="47.51917" lon="2.0947917">
        <ele>167.0</ele>
        <time>2022-05-19T07:56:21Z</time>
      </trkpt>
      <trkpt lat="47.51916" lon="2.0947967">
        <ele>167.0</ele>
        <time>2022-05-19T07:56:22Z</time>
      </trkpt>
      <trkpt lat="47.51915" lon="2.0948002">
        <ele>167.0</ele>
        <time>2022-05-19T07:56:23Z</time>
      </trkpt>
      <trkpt lat="47.51914" lon="2.0948002">
        <ele>166.0</ele>
        <time>2022-05-19T07:56:24Z</time>
      </trkpt>
      <trkpt lat="47.519127" lon="2.094799">
        <ele>166.0</ele>
        <time>2022-05-19T07:56:25Z</time>
      </trkpt>
      <trkpt lat="47.519123" lon="2.0947995">
        <ele>166.0</ele>
        <time>2022-05-19T07:56:26Z</time>
      </trkpt>
      <trkpt lat="47.519115" lon="2.0948014">
        <ele>166.0</ele>
        <time>2022-05-19T07:56:27Z</time>
      </trkpt>
      <trkpt lat="47.51911" lon="2.0948048">
        <ele>166.0</ele>
        <time>2022-05-19T07:56:28Z</time>
      </trkpt>
      <trkpt lat="47.51911" lon="2.0948048">
        <ele>166.0</ele>
        <time>2022-05-19T07:56:29Z</time>
      </trkpt>
      <trkpt lat="47.51911" lon="2.0948048">
        <ele>166.0</ele>
        <time>2022-05-19T07:56:30Z</time>
      </trkpt>
      <trkpt lat="47.519085" lon="2.0948122">
        <ele>167.0</ele>
        <time>2022-05-19T07:56:31Z</time>
      </trkpt>
      <trkpt lat="47.519077" lon="2.0948126">
        <ele>167.0</ele>
        <time>2022-05-19T07:56:32Z</time>
      </trkpt>
      <trkpt lat="47.51907" lon="2.0948138">
        <ele>166.0</ele>
        <time>2022-05-19T07:56:33Z</time>
      </trkpt>
      <trkpt lat="47.519062" lon="2.0948179">
        <ele>166.0</ele>
        <time>2022-05-19T07:56:34Z</time>
      </trkpt>
      <trkpt lat="47.519062" lon="2.0948179">
        <ele>166.0</ele>
        <time>2022-05-19T07:56:35Z</time>
      </trkpt>
      <trkpt lat="47.519043" lon="2.0948217">
        <ele>167.0</ele>
        <time>2022-05-19T07:56:36Z</time>
      </trkpt>
      <trkpt lat="47.51903" lon="2.0948224">
        <ele>167.0</ele>
        <time>2022-05-19T07:56:37Z</time>
      </trkpt>
      <trkpt lat="47.51902" lon="2.094819">
        <ele>167.0</ele>
        <time>2022-05-19T07:56:38Z</time>
      </trkpt>
      <trkpt lat="47.51901" lon="2.0948186">
        <ele>166.0</ele>
        <time>2022-05-19T07:56:39Z</time>
      </trkpt>
      <trkpt lat="47.51899" lon="2.0948195">
        <ele>167.0</ele>
        <time>2022-05-19T07:56:40Z</time>
      </trkpt>
      <trkpt lat="47.51897" lon="2.0948246">
        <ele>167.0</ele>
        <time>2022-05-19T07:56:41Z</time>
      </trkpt>
      <trkpt lat="47.51896" lon="2.094831">
        <ele>167.0</ele>
        <time>2022-05-19T07:56:42Z</time>
      </trkpt>
      <trkpt lat="47.518944" lon="2.0948367">
        <ele>168.0</ele>
        <time>2022-05-19T07:56:43Z</time>
      </trkpt>
      <trkpt lat="47.518925" lon="2.0948372">
        <ele>167.0</ele>
        <time>2022-05-19T07:56:44Z</time>
      </trkpt>
      <trkpt lat="47.518906" lon="2.0948317">
        <ele>167.0</ele>
        <time>2022-05-19T07:56:45Z</time>
      </trkpt>
      <trkpt lat="47.518898" lon="2.0948327">
        <ele>167.0</ele>
        <time>2022-05-19T07:56:46Z</time>
      </trkpt>
      <trkpt lat="47.518887" lon="2.0948339">
        <ele>167.0</ele>
        <time>2022-05-19T07:56:47Z</time>
      </trkpt>
      <trkpt lat="47.518875" lon="2.0948374">
        <ele>167.0</ele>
        <time>2022-05-19T07:56:48Z</time>
      </trkpt>
      <trkpt lat="47.518867" lon="2.094844">
        <ele>167.0</ele>
        <time>2022-05-19T07:56:49Z</time>
      </trkpt>
      <trkpt lat="47.518856" lon="2.0948496">
        <ele>168.0</ele>
        <time>2022-05-19T07:56:50Z</time>
      </trkpt>
      <trkpt lat="47.518845" lon="2.0948539">
        <ele>168.0</ele>
        <time>2022-05-19T07:56:51Z</time>
      </trkpt>
      <trkpt lat="47.51883" lon="2.0948575">
        <ele>168.0</ele>
        <time>2022-05-19T07:56:52Z</time>
      </trkpt>
      <trkpt lat="47.518818" lon="2.0948634">
        <ele>168.0</ele>
        <time>2022-05-19T07:56:53Z</time>
      </trkpt>
      <trkpt lat="47.518806" lon="2.094874">
        <ele>168.0</ele>
        <time>2022-05-19T07:56:54Z</time>
      </trkpt>
      <trkpt lat="47.51879" lon="2.0948884">
        <ele>167.0</ele>
        <time>2022-05-19T07:56:55Z</time>
      </trkpt>
      <trkpt lat="47.518776" lon="2.0948956">
        <ele>168.0</ele>
        <time>2022-05-19T07:56:56Z</time>
      </trkpt>
      <trkpt lat="47.518764" lon="2.0949032">
        <ele>168.0</ele>
        <time>2022-05-19T07:56:57Z</time>
      </trkpt>
      <trkpt lat="47.518753" lon="2.0949106">
        <ele>168.0</ele>
        <time>2022-05-19T07:56:58Z</time>
      </trkpt>
      <trkpt lat="47.518745" lon="2.0949144">
        <ele>168.0</ele>
        <time>2022-05-19T07:56:59Z</time>
      </trkpt>
      <trkpt lat="47.518734" lon="2.094922">
        <ele>169.0</ele>
        <time>2022-05-19T07:57:00Z</time>
      </trkpt>
      <trkpt lat="47.518723" lon="2.0949283">
        <ele>169.0</ele>
        <time>2022-05-19T07:57:01Z</time>
      </trkpt>
      <trkpt lat="47.518715" lon="2.094939">
        <ele>170.0</ele>
        <time>2022-05-19T07:57:02Z</time>
      </trkpt>
      <trkpt lat="47.518703" lon="2.0949497">
        <ele>170.0</ele>
        <time>2022-05-19T07:57:03Z</time>
      </trkpt>
      <trkpt lat="47.518696" lon="2.0949566">
        <ele>170.0</ele>
        <time>2022-05-19T07:57:04Z</time>
      </trkpt>
      <trkpt lat="47.51869" lon="2.0949678">
        <ele>170.0</ele>
        <time>2022-05-19T07:57:05Z</time>
      </trkpt>
      <trkpt lat="47.518677" lon="2.0949807">
        <ele>170.0</ele>
        <time>2022-05-19T07:57:06Z</time>
      </trkpt>
      <trkpt lat="47.518665" lon="2.0949898">
        <ele>171.0</ele>
        <time>2022-05-19T07:57:07Z</time>
      </trkpt>
      <trkpt lat="47.518658" lon="2.094999">
        <ele>171.0</ele>
        <time>2022-05-19T07:57:08Z</time>
      </trkpt>
      <trkpt lat="47.518658" lon="2.0950062">
        <ele>170.0</ele>
        <time>2022-05-19T07:57:09Z</time>
      </trkpt>
      <trkpt lat="47.518646" lon="2.095015">
        <ele>170.0</ele>
        <time>2022-05-19T07:57:10Z</time>
      </trkpt>
      <trkpt lat="47.518635" lon="2.095023">
        <ele>171.0</ele>
        <time>2022-05-19T07:57:11Z</time>
      </trkpt>
      <trkpt lat="47.518627" lon="2.0950305">
        <ele>171.0</ele>
        <time>2022-05-19T07:57:12Z</time>
      </trkpt>
      <trkpt lat="47.518612" lon="2.0950384">
        <ele>171.0</ele>
        <time>2022-05-19T07:57:13Z</time>
      </trkpt>
      <trkpt lat="47.5186" lon="2.0950463">
        <ele>171.0</ele>
        <time>2022-05-19T07:57:14Z</time>
      </trkpt>
      <trkpt lat="47.518585" lon="2.0950508">
        <ele>171.0</ele>
        <time>2022-05-19T07:57:15Z</time>
      </trkpt>
      <trkpt lat="47.518574" lon="2.0950587">
        <ele>171.0</ele>
        <time>2022-05-19T07:57:16Z</time>
      </trkpt>
      <trkpt lat="47.518562" lon="2.0950675">
        <ele>171.0</ele>
        <time>2022-05-19T07:57:17Z</time>
      </trkpt>
      <trkpt lat="47.518555" lon="2.0950706">
        <ele>171.0</ele>
        <time>2022-05-19T07:57:18Z</time>
      </trkpt>
      <trkpt lat="47.518547" lon="2.095076">
        <ele>170.0</ele>
        <time>2022-05-19T07:57:19Z</time>
      </trkpt>
      <trkpt lat="47.518543" lon="2.0950816">
        <ele>170.0</ele>
        <time>2022-05-19T07:57:20Z</time>
      </trkpt>
      <trkpt lat="47.518536" lon="2.09509">
        <ele>170.0</ele>
        <time>2022-05-19T07:57:21Z</time>
      </trkpt>
      <trkpt lat="47.518524" lon="2.0951004">
        <ele>171.0</ele>
        <time>2022-05-19T07:57:22Z</time>
      </trkpt>
      <trkpt lat="47.51851" lon="2.0951092">
        <ele>171.0</ele>
        <time>2022-05-19T07:57:23Z</time>
      </trkpt>
      <trkpt lat="47.5185" lon="2.095117">
        <ele>171.0</ele>
        <time>2022-05-19T07:57:24Z</time>
      </trkpt>
      <trkpt lat="47.51849" lon="2.0951293">
        <ele>171.0</ele>
        <time>2022-05-19T07:57:25Z</time>
      </trkpt>
      <trkpt lat="47.51848" lon="2.0951374">
        <ele>172.0</ele>
        <time>2022-05-19T07:57:26Z</time>
      </trkpt>
      <trkpt lat="47.518467" lon="2.095153">
        <ele>172.0</ele>
        <time>2022-05-19T07:57:27Z</time>
      </trkpt>
      <trkpt lat="47.51846" lon="2.0951598">
        <ele>172.0</ele>
        <time>2022-05-19T07:57:28Z</time>
      </trkpt>
      <trkpt lat="47.518444" lon="2.095164">
        <ele>173.0</ele>
        <time>2022-05-19T07:57:29Z</time>
      </trkpt>
      <trkpt lat="47.518433" lon="2.0951688">
        <ele>173.0</ele>
        <time>2022-05-19T07:57:30Z</time>
      </trkpt>
      <trkpt lat="47.51842" lon="2.095175">
        <ele>173.0</ele>
        <time>2022-05-19T07:57:31Z</time>
      </trkpt>
      <trkpt lat="47.51841" lon="2.0951812">
        <ele>173.0</ele>
        <time>2022-05-19T07:57:32Z</time>
      </trkpt>
      <trkpt lat="47.5184" lon="2.0951848">
        <ele>172.0</ele>
        <time>2022-05-19T07:57:33Z</time>
      </trkpt>
      <trkpt lat="47.518387" lon="2.095189">
        <ele>173.0</ele>
        <time>2022-05-19T07:57:34Z</time>
      </trkpt>
      <trkpt lat="47.51837" lon="2.0951874">
        <ele>173.0</ele>
        <time>2022-05-19T07:57:35Z</time>
      </trkpt>
      <trkpt lat="47.51836" lon="2.0951865">
        <ele>173.0</ele>
        <time>2022-05-19T07:57:36Z</time>
      </trkpt>
      <trkpt lat="47.51834" lon="2.0951838">
        <ele>173.0</ele>
        <time>2022-05-19T07:57:37Z</time>
      </trkpt>
      <trkpt lat="47.518326" lon="2.0951805">
        <ele>173.0</ele>
        <time>2022-05-19T07:57:38Z</time>
      </trkpt>
      <trkpt lat="47.51831" lon="2.0951767">
        <ele>174.0</ele>
        <time>2022-05-19T07:57:39Z</time>
      </trkpt>
      <trkpt lat="47.5183" lon="2.09518">
        <ele>174.0</ele>
        <time>2022-05-19T07:57:40Z</time>
      </trkpt>
      <trkpt lat="47.518288" lon="2.095186">
        <ele>174.0</ele>
        <time>2022-05-19T07:57:41Z</time>
      </trkpt>
      <trkpt lat="47.51828" lon="2.0951853">
        <ele>173.0</ele>
        <time>2022-05-19T07:57:42Z</time>
      </trkpt>
      <trkpt lat="47.51827" lon="2.0951836">
        <ele>173.0</ele>
        <time>2022-05-19T07:57:43Z</time>
      </trkpt>
      <trkpt lat="47.51826" lon="2.0951893">
        <ele>173.0</ele>
        <time>2022-05-19T07:57:44Z</time>
      </trkpt>
      <trkpt lat="47.51825" lon="2.0952">
        <ele>173.0</ele>
        <time>2022-05-19T07:57:45Z</time>
      </trkpt>
      <trkpt lat="47.518238" lon="2.0952098">
        <ele>172.0</ele>
        <time>2022-05-19T07:57:46Z</time>
      </trkpt>
      <trkpt lat="47.518227" lon="2.0952191">
        <ele>173.0</ele>
        <time>2022-05-19T07:57:47Z</time>
      </trkpt>
      <trkpt lat="47.51822" lon="2.0952237">
        <ele>173.0</ele>
        <time>2022-05-19T07:57:48Z</time>
      </trkpt>
      <trkpt lat="47.51821" lon="2.0952332">
        <ele>173.0</ele>
        <time>2022-05-19T07:57:49Z</time>
      </trkpt>
      <trkpt lat="47.518204" lon="2.0952406">
        <ele>173.0</ele>
        <time>2022-05-19T07:57:50Z</time>
      </trkpt>
      <trkpt lat="47.518192" lon="2.0952518">
        <ele>173.0</ele>
        <time>2022-05-19T07:57:51Z</time>
      </trkpt>
      <trkpt lat="47.51818" lon="2.0952597">
        <ele>173.0</ele>
        <time>2022-05-19T07:57:52Z</time>
      </trkpt>
      <trkpt lat="47.518173" lon="2.095269">
        <ele>173.0</ele>
        <time>2022-05-19T07:57:53Z</time>
      </trkpt>
      <trkpt lat="47.51816" lon="2.0952728">
        <ele>174.0</ele>
        <time>2022-05-19T07:57:54Z</time>
      </trkpt>
      <trkpt lat="47.518147" lon="2.095277">
        <ele>173.0</ele>
        <time>2022-05-19T07:57:55Z</time>
      </trkpt>
      <trkpt lat="47.51814" lon="2.095283">
        <ele>173.0</ele>
        <time>2022-05-19T07:57:56Z</time>
      </trkpt>
      <trkpt lat="47.518127" lon="2.0952873">
        <ele>172.0</ele>
        <time>2022-05-19T07:57:57Z</time>
      </trkpt>
      <trkpt lat="47.518116" lon="2.095292">
        <ele>172.0</ele>
        <time>2022-05-19T07:57:58Z</time>
      </trkpt>
      <trkpt lat="47.518105" lon="2.0952966">
        <ele>172.0</ele>
        <time>2022-05-19T07:57:59Z</time>
      </trkpt>
      <trkpt lat="47.518097" lon="2.0953019">
        <ele>172.0</ele>
        <time>2022-05-19T07:58:00Z</time>
      </trkpt>
      <trkpt lat="47.518085" lon="2.0953083">
        <ele>172.0</ele>
        <time>2022-05-19T07:58:01Z</time>
      </trkpt>
      <trkpt lat="47.51807" lon="2.0953145">
        <ele>173.0</ele>
        <time>2022-05-19T07:58:02Z</time>
      </trkpt>
      <trkpt lat="47.51806" lon="2.0953221">
        <ele>173.0</ele>
        <time>2022-05-19T07:58:03Z</time>
      </trkpt>
      <trkpt lat="47.518047" lon="2.0953257">
        <ele>174.0</ele>
        <time>2022-05-19T07:58:04Z</time>
      </trkpt>
      <trkpt lat="47.518036" lon="2.095333">
        <ele>174.0</ele>
        <time>2022-05-19T07:58:05Z</time>
      </trkpt>
      <trkpt lat="47.51802" lon="2.095347">
        <ele>174.0</ele>
        <time>2022-05-19T07:58:06Z</time>
      </trkpt>
      <trkpt lat="47.518013" lon="2.095353">
        <ele>174.0</ele>
        <time>2022-05-19T07:58:07Z</time>
      </trkpt>
      <trkpt lat="47.518" lon="2.095354">
        <ele>174.0</ele>
        <time>2022-05-19T07:58:08Z</time>
      </trkpt>
      <trkpt lat="47.517994" lon="2.0953567">
        <ele>175.0</ele>
        <time>2022-05-19T07:58:09Z</time>
      </trkpt>
      <trkpt lat="47.517982" lon="2.0953631">
        <ele>175.0</ele>
        <time>2022-05-19T07:58:10Z</time>
      </trkpt>
      <trkpt lat="47.51797" lon="2.0953758">
        <ele>174.0</ele>
        <time>2022-05-19T07:58:11Z</time>
      </trkpt>
      <trkpt lat="47.51796" lon="2.095381">
        <ele>174.0</ele>
        <time>2022-05-19T07:58:12Z</time>
      </trkpt>
      <trkpt lat="47.51795" lon="2.0953822">
        <ele>173.0</ele>
        <time>2022-05-19T07:58:13Z</time>
      </trkpt>
      <trkpt lat="47.517937" lon="2.0953858">
        <ele>173.0</ele>
        <time>2022-05-19T07:58:14Z</time>
      </trkpt>
      <trkpt lat="47.51793" lon="2.095391">
        <ele>172.0</ele>
        <time>2022-05-19T07:58:15Z</time>
      </trkpt>
      <trkpt lat="47.517918" lon="2.0953937">
        <ele>172.0</ele>
        <time>2022-05-19T07:58:16Z</time>
      </trkpt>
      <trkpt lat="47.517906" lon="2.0954018">
        <ele>172.0</ele>
        <time>2022-05-19T07:58:17Z</time>
      </trkpt>
      <trkpt lat="47.517895" lon="2.095408">
        <ele>171.0</ele>
        <time>2022-05-19T07:58:18Z</time>
      </trkpt>
      <trkpt lat="47.517883" lon="2.0954142">
        <ele>171.0</ele>
        <time>2022-05-19T07:58:19Z</time>
      </trkpt>
      <trkpt lat="47.517868" lon="2.0954177">
        <ele>170.0</ele>
        <time>2022-05-19T07:58:20Z</time>
      </trkpt>
      <trkpt lat="47.517857" lon="2.095418">
        <ele>170.0</ele>
        <time>2022-05-19T07:58:21Z</time>
      </trkpt>
      <trkpt lat="47.517838" lon="2.095419">
        <ele>169.0</ele>
        <time>2022-05-19T07:58:22Z</time>
      </trkpt>
      <trkpt lat="47.51783" lon="2.0954165">
        <ele>170.0</ele>
        <time>2022-05-19T07:58:23Z</time>
      </trkpt>
      <trkpt lat="47.517822" lon="2.0954194">
        <ele>169.0</ele>
        <time>2022-05-19T07:58:24Z</time>
      </trkpt>
      <trkpt lat="47.517815" lon="2.0954146">
        <ele>169.0</ele>
        <time>2022-05-19T07:58:25Z</time>
      </trkpt>
      <trkpt lat="47.517807" lon="2.0954103">
        <ele>168.0</ele>
        <time>2022-05-19T07:58:26Z</time>
      </trkpt>
      <trkpt lat="47.5178" lon="2.0954072">
        <ele>168.0</ele>
        <time>2022-05-19T07:58:27Z</time>
      </trkpt>
      <trkpt lat="47.51779" lon="2.095409">
        <ele>168.0</ele>
        <time>2022-05-19T07:58:28Z</time>
      </trkpt>
      <trkpt lat="47.517784" lon="2.0954125">
        <ele>167.0</ele>
        <time>2022-05-19T07:58:29Z</time>
      </trkpt>
      <trkpt lat="47.517776" lon="2.0954106">
        <ele>167.0</ele>
        <time>2022-05-19T07:58:30Z</time>
      </trkpt>
      <trkpt lat="47.517757" lon="2.0954037">
        <ele>167.0</ele>
        <time>2022-05-19T07:58:31Z</time>
      </trkpt>
      <trkpt lat="47.517742" lon="2.0953977">
        <ele>166.0</ele>
        <time>2022-05-19T07:58:32Z</time>
      </trkpt>
      <trkpt lat="47.51773" lon="2.0953906">
        <ele>166.0</ele>
        <time>2022-05-19T07:58:33Z</time>
      </trkpt>
      <trkpt lat="47.51772" lon="2.0953834">
        <ele>166.0</ele>
        <time>2022-05-19T07:58:34Z</time>
      </trkpt>
      <trkpt lat="47.517708" lon="2.0953782">
        <ele>165.0</ele>
        <time>2022-05-19T07:58:35Z</time>
      </trkpt>
      <trkpt lat="47.517693" lon="2.0953703">
        <ele>165.0</ele>
        <time>2022-05-19T07:58:36Z</time>
      </trkpt>
      <trkpt lat="47.51768" lon="2.0953636">
        <ele>165.0</ele>
        <time>2022-05-19T07:58:37Z</time>
      </trkpt>
      <trkpt lat="47.517673" lon="2.0953503">
        <ele>165.0</ele>
        <time>2022-05-19T07:58:38Z</time>
      </trkpt>
      <trkpt lat="47.517666" lon="2.0953412">
        <ele>165.0</ele>
        <time>2022-05-19T07:58:39Z</time>
      </trkpt>
      <trkpt lat="47.517654" lon="2.0953302">
        <ele>164.0</ele>
        <time>2022-05-19T07:58:40Z</time>
      </trkpt>
      <trkpt lat="47.517647" lon="2.095326">
        <ele>163.0</ele>
        <time>2022-05-19T07:58:41Z</time>
      </trkpt>
      <trkpt lat="47.51764" lon="2.0953145">
        <ele>163.0</ele>
        <time>2022-05-19T07:58:42Z</time>
      </trkpt>
      <trkpt lat="47.517628" lon="2.0953016">
        <ele>163.0</ele>
        <time>2022-05-19T07:58:43Z</time>
      </trkpt>
      <trkpt lat="47.517616" lon="2.0952868">
        <ele>163.0</ele>
        <time>2022-05-19T07:58:44Z</time>
      </trkpt>
      <trkpt lat="47.517605" lon="2.095283">
        <ele>163.0</ele>
        <time>2022-05-19T07:58:45Z</time>
      </trkpt>
      <trkpt lat="47.517593" lon="2.0952716">
        <ele>162.0</ele>
        <time>2022-05-19T07:58:46Z</time>
      </trkpt>
      <trkpt lat="47.517586" lon="2.095259">
        <ele>162.0</ele>
        <time>2022-05-19T07:58:47Z</time>
      </trkpt>
      <trkpt lat="47.517574" lon="2.095248">
        <ele>161.0</ele>
        <time>2022-05-19T07:58:48Z</time>
      </trkpt>
      <trkpt lat="47.517567" lon="2.0952353">
        <ele>160.0</ele>
        <time>2022-05-19T07:58:49Z</time>
      </trkpt>
      <trkpt lat="47.517555" lon="2.095221">
        <ele>159.0</ele>
        <time>2022-05-19T07:58:50Z</time>
      </trkpt>
      <trkpt lat="47.517544" lon="2.095209">
        <ele>158.0</ele>
        <time>2022-05-19T07:58:51Z</time>
      </trkpt>
      <trkpt lat="47.517536" lon="2.095195">
        <ele>158.0</ele>
        <time>2022-05-19T07:58:52Z</time>
      </trkpt>
      <trkpt lat="47.51753" lon="2.0951812">
        <ele>158.0</ele>
        <time>2022-05-19T07:58:53Z</time>
      </trkpt>
      <trkpt lat="47.51752" lon="2.0951667">
        <ele>159.0</ele>
        <time>2022-05-19T07:58:54Z</time>
      </trkpt>
      <trkpt lat="47.517513" lon="2.095155">
        <ele>159.0</ele>
        <time>2022-05-19T07:58:55Z</time>
      </trkpt>
      <trkpt lat="47.517506" lon="2.0951383">
        <ele>159.0</ele>
        <time>2022-05-19T07:58:56Z</time>
      </trkpt>
      <trkpt lat="47.517494" lon="2.0951245">
        <ele>160.0</ele>
        <time>2022-05-19T07:58:57Z</time>
      </trkpt>
      <trkpt lat="47.51749" lon="2.0951064">
        <ele>160.0</ele>
        <time>2022-05-19T07:58:58Z</time>
      </trkpt>
      <trkpt lat="47.517487" lon="2.0950885">
        <ele>160.0</ele>
        <time>2022-05-19T07:58:59Z</time>
      </trkpt>
      <trkpt lat="47.51748" lon="2.0950773">
        <ele>160.0</ele>
        <time>2022-05-19T07:59:00Z</time>
      </trkpt>
      <trkpt lat="47.517475" lon="2.09506">
        <ele>160.0</ele>
        <time>2022-05-19T07:59:01Z</time>
      </trkpt>
      <trkpt lat="47.517467" lon="2.0950446">
        <ele>160.0</ele>
        <time>2022-05-19T07:59:02Z</time>
      </trkpt>
      <trkpt lat="47.51746" lon="2.095026">
        <ele>160.0</ele>
        <time>2022-05-19T07:59:03Z</time>
      </trkpt>
      <trkpt lat="47.517452" lon="2.0950122">
        <ele>160.0</ele>
        <time>2022-05-19T07:59:04Z</time>
      </trkpt>
      <trkpt lat="47.517445" lon="2.0950003">
        <ele>161.0</ele>
        <time>2022-05-19T07:59:05Z</time>
      </trkpt>
      <trkpt lat="47.517437" lon="2.0949867">
        <ele>161.0</ele>
        <time>2022-05-19T07:59:06Z</time>
      </trkpt>
      <trkpt lat="47.51743" lon="2.0949748">
        <ele>162.0</ele>
        <time>2022-05-19T07:59:07Z</time>
      </trkpt>
      <trkpt lat="47.517418" lon="2.0949562">
        <ele>162.0</ele>
        <time>2022-05-19T07:59:08Z</time>
      </trkpt>
      <trkpt lat="47.51741" lon="2.0949373">
        <ele>162.0</ele>
        <time>2022-05-19T07:59:09Z</time>
      </trkpt>
      <trkpt lat="47.517395" lon="2.0949223">
        <ele>162.0</ele>
        <time>2022-05-19T07:59:10Z</time>
      </trkpt>
      <trkpt lat="47.51738" lon="2.0949092">
        <ele>162.0</ele>
        <time>2022-05-19T07:59:11Z</time>
      </trkpt>
      <trkpt lat="47.51737" lon="2.0948992">
        <ele>162.0</ele>
        <time>2022-05-19T07:59:12Z</time>
      </trkpt>
      <trkpt lat="47.51736" lon="2.0948856">
        <ele>162.0</ele>
        <time>2022-05-19T07:59:13Z</time>
      </trkpt>
      <trkpt lat="47.51735" lon="2.0948648">
        <ele>162.0</ele>
        <time>2022-05-19T07:59:14Z</time>
      </trkpt>
      <trkpt lat="47.51734" lon="2.0948486">
        <ele>162.0</ele>
        <time>2022-05-19T07:59:15Z</time>
      </trkpt>
      <trkpt lat="47.51733" lon="2.0948367">
        <ele>162.0</ele>
        <time>2022-05-19T07:59:16Z</time>
      </trkpt>
      <trkpt lat="47.51732" lon="2.0948246">
        <ele>162.0</ele>
        <time>2022-05-19T07:59:17Z</time>
      </trkpt>
      <trkpt lat="47.51731" lon="2.0948102">
        <ele>162.0</ele>
        <time>2022-05-19T07:59:18Z</time>
      </trkpt>
      <trkpt lat="47.5173" lon="2.0947921">
        <ele>162.0</ele>
        <time>2022-05-19T07:59:19Z</time>
      </trkpt>
      <trkpt lat="47.51729" lon="2.09478">
        <ele>162.0</ele>
        <time>2022-05-19T07:59:20Z</time>
      </trkpt>
      <trkpt lat="47.51728" lon="2.0947638">
        <ele>162.0</ele>
        <time>2022-05-19T07:59:21Z</time>
      </trkpt>
      <trkpt lat="47.517273" lon="2.094752">
        <ele>162.0</ele>
        <time>2022-05-19T07:59:22Z</time>
      </trkpt>
      <trkpt lat="47.51727" lon="2.0947335">
        <ele>163.0</ele>
        <time>2022-05-19T07:59:23Z</time>
      </trkpt>
      <trkpt lat="47.51727" lon="2.0947144">
        <ele>163.0</ele>
        <time>2022-05-19T07:59:24Z</time>
      </trkpt>
      <trkpt lat="47.51726" lon="2.0947006">
        <ele>163.0</ele>
        <time>2022-05-19T07:59:25Z</time>
      </trkpt>
      <trkpt lat="47.51725" lon="2.0946877">
        <ele>163.0</ele>
        <time>2022-05-19T07:59:26Z</time>
      </trkpt>
      <trkpt lat="47.517246" lon="2.0946763">
        <ele>162.0</ele>
        <time>2022-05-19T07:59:27Z</time>
      </trkpt>
      <trkpt lat="47.51724" lon="2.0946627">
        <ele>162.0</ele>
        <time>2022-05-19T07:59:28Z</time>
      </trkpt>
      <trkpt lat="47.51723" lon="2.0946493">
        <ele>162.0</ele>
        <time>2022-05-19T07:59:29Z</time>
      </trkpt>
      <trkpt lat="47.517223" lon="2.0946307">
        <ele>162.0</ele>
        <time>2022-05-19T07:59:30Z</time>
      </trkpt>
      <trkpt lat="47.517212" lon="2.094622">
        <ele>163.0</ele>
        <time>2022-05-19T07:59:31Z</time>
      </trkpt>
      <trkpt lat="47.517204" lon="2.0946097">
        <ele>163.0</ele>
        <time>2022-05-19T07:59:32Z</time>
      </trkpt>
      <trkpt lat="47.517197" lon="2.0945952">
        <ele>163.0</ele>
        <time>2022-05-19T07:59:33Z</time>
      </trkpt>
      <trkpt lat="47.517185" lon="2.0945833">
        <ele>163.0</ele>
        <time>2022-05-19T07:59:34Z</time>
      </trkpt>
      <trkpt lat="47.517178" lon="2.0945678">
        <ele>163.0</ele>
        <time>2022-05-19T07:59:35Z</time>
      </trkpt>
      <trkpt lat="47.517166" lon="2.0945525">
        <ele>162.0</ele>
        <time>2022-05-19T07:59:36Z</time>
      </trkpt>
      <trkpt lat="47.517166" lon="2.0945342">
        <ele>162.0</ele>
        <time>2022-05-19T07:59:37Z</time>
      </trkpt>
      <trkpt lat="47.51716" lon="2.0945172">
        <ele>162.0</ele>
        <time>2022-05-19T07:59:38Z</time>
      </trkpt>
      <trkpt lat="47.517155" lon="2.0945008">
        <ele>162.0</ele>
        <time>2022-05-19T07:59:39Z</time>
      </trkpt>
      <trkpt lat="47.517143" lon="2.094489">
        <ele>162.0</ele>
        <time>2022-05-19T07:59:40Z</time>
      </trkpt>
      <trkpt lat="47.517136" lon="2.094474">
        <ele>162.0</ele>
        <time>2022-05-19T07:59:41Z</time>
      </trkpt>
      <trkpt lat="47.517128" lon="2.0944571">
        <ele>162.0</ele>
        <time>2022-05-19T07:59:42Z</time>
      </trkpt>
      <trkpt lat="47.517117" lon="2.0944426">
        <ele>163.0</ele>
        <time>2022-05-19T07:59:43Z</time>
      </trkpt>
      <trkpt lat="47.517105" lon="2.0944269">
        <ele>163.0</ele>
        <time>2022-05-19T07:59:44Z</time>
      </trkpt>
      <trkpt lat="47.5171" lon="2.0944095">
        <ele>162.0</ele>
        <time>2022-05-19T07:59:45Z</time>
      </trkpt>
      <trkpt lat="47.5171" lon="2.0943923">
        <ele>162.0</ele>
        <time>2022-05-19T07:59:46Z</time>
      </trkpt>
      <trkpt lat="47.517097" lon="2.0943794">
        <ele>162.0</ele>
        <time>2022-05-19T07:59:47Z</time>
      </trkpt>
      <trkpt lat="47.517094" lon="2.0943568">
        <ele>162.0</ele>
        <time>2022-05-19T07:59:48Z</time>
      </trkpt>
      <trkpt lat="47.51709" lon="2.094337">
        <ele>162.0</ele>
        <time>2022-05-19T07:59:49Z</time>
      </trkpt>
      <trkpt lat="47.517086" lon="2.0943205">
        <ele>162.0</ele>
        <time>2022-05-19T07:59:50Z</time>
      </trkpt>
      <trkpt lat="47.517082" lon="2.0943065">
        <ele>162.0</ele>
        <time>2022-05-19T07:59:51Z</time>
      </trkpt>
      <trkpt lat="47.51708" lon="2.0942886">
        <ele>162.0</ele>
        <time>2022-05-19T07:59:52Z</time>
      </trkpt>
      <trkpt lat="47.517075" lon="2.0942693">
        <ele>162.0</ele>
        <time>2022-05-19T07:59:53Z</time>
      </trkpt>
      <trkpt lat="47.517067" lon="2.0942478">
        <ele>161.0</ele>
        <time>2022-05-19T07:59:54Z</time>
      </trkpt>
      <trkpt lat="47.517063" lon="2.094227">
        <ele>161.0</ele>
        <time>2022-05-19T07:59:55Z</time>
      </trkpt>
      <trkpt lat="47.51706" lon="2.094214">
        <ele>162.0</ele>
        <time>2022-05-19T07:59:56Z</time>
      </trkpt>
      <trkpt lat="47.517056" lon="2.0941904">
        <ele>162.0</ele>
        <time>2022-05-19T07:59:57Z</time>
      </trkpt>
      <trkpt lat="47.517056" lon="2.0941708">
        <ele>162.0</ele>
        <time>2022-05-19T07:59:58Z</time>
      </trkpt>
      <trkpt lat="47.517056" lon="2.0941541">
        <ele>162.0</ele>
        <time>2022-05-19T07:59:59Z</time>
      </trkpt>
      <trkpt lat="47.517056" lon="2.094139">
        <ele>162.0</ele>
        <time>2022-05-19T08:00:00Z</time>
      </trkpt>
      <trkpt lat="47.517048" lon="2.0941267">
        <ele>161.0</ele>
        <time>2022-05-19T08:00:01Z</time>
      </trkpt>
      <trkpt lat="47.51704" lon="2.0941095">
        <ele>161.0</ele>
        <time>2022-05-19T08:00:02Z</time>
      </trkpt>
      <trkpt lat="47.517036" lon="2.094096">
        <ele>161.0</ele>
        <time>2022-05-19T08:00:03Z</time>
      </trkpt>
      <trkpt lat="47.51703" lon="2.0940824">
        <ele>161.0</ele>
        <time>2022-05-19T08:00:04Z</time>
      </trkpt>
      <trkpt lat="47.517025" lon="2.0940652">
        <ele>161.0</ele>
        <time>2022-05-19T08:00:05Z</time>
      </trkpt>
      <trkpt lat="47.517017" lon="2.0940518">
        <ele>162.0</ele>
        <time>2022-05-19T08:00:06Z</time>
      </trkpt>
      <trkpt lat="47.51701" lon="2.094039">
        <ele>162.0</ele>
        <time>2022-05-19T08:00:07Z</time>
      </trkpt>
      <trkpt lat="47.517006" lon="2.0940259">
        <ele>162.0</ele>
        <time>2022-05-19T08:00:08Z</time>
      </trkpt>
      <trkpt lat="47.517002" lon="2.0940118">
        <ele>162.0</ele>
        <time>2022-05-19T08:00:09Z</time>
      </trkpt>
      <trkpt lat="47.517" lon="2.0939949">
        <ele>162.0</ele>
        <time>2022-05-19T08:00:10Z</time>
      </trkpt>
      <trkpt lat="47.51699" lon="2.0939815">
        <ele>162.0</ele>
        <time>2022-05-19T08:00:11Z</time>
      </trkpt>
      <trkpt lat="47.51698" lon="2.0939715">
        <ele>163.0</ele>
        <time>2022-05-19T08:00:12Z</time>
      </trkpt>
      <trkpt lat="47.51697" lon="2.093966">
        <ele>163.0</ele>
        <time>2022-05-19T08:00:13Z</time>
      </trkpt>
      <trkpt lat="47.51696" lon="2.093961">
        <ele>163.0</ele>
        <time>2022-05-19T08:00:14Z</time>
      </trkpt>
      <trkpt lat="47.51695" lon="2.0939534">
        <ele>164.0</ele>
        <time>2022-05-19T08:00:15Z</time>
      </trkpt>
      <trkpt lat="47.516937" lon="2.0939474">
        <ele>165.0</ele>
        <time>2022-05-19T08:00:16Z</time>
      </trkpt>
      <trkpt lat="47.516933" lon="2.093933">
        <ele>165.0</ele>
        <time>2022-05-19T08:00:17Z</time>
      </trkpt>
      <trkpt lat="47.516926" lon="2.0939243">
        <ele>166.0</ele>
        <time>2022-05-19T08:00:18Z</time>
      </trkpt>
      <trkpt lat="47.516914" lon="2.0939214">
        <ele>166.0</ele>
        <time>2022-05-19T08:00:19Z</time>
      </trkpt>
      <trkpt lat="47.516903" lon="2.0939233">
        <ele>167.0</ele>
        <time>2022-05-19T08:00:20Z</time>
      </trkpt>
      <trkpt lat="47.51689" lon="2.0939248">
        <ele>168.0</ele>
        <time>2022-05-19T08:00:21Z</time>
      </trkpt>
      <trkpt lat="47.51688" lon="2.0939245">
        <ele>168.0</ele>
        <time>2022-05-19T08:00:22Z</time>
      </trkpt>
      <trkpt lat="47.51687" lon="2.0939236">
        <ele>169.0</ele>
        <time>2022-05-19T08:00:23Z</time>
      </trkpt>
      <trkpt lat="47.516853" lon="2.0939271">
        <ele>169.0</ele>
        <time>2022-05-19T08:00:24Z</time>
      </trkpt>
      <trkpt lat="47.516838" lon="2.0939336">
        <ele>170.0</ele>
        <time>2022-05-19T08:00:25Z</time>
      </trkpt>
      <trkpt lat="47.516827" lon="2.0939362">
        <ele>170.0</ele>
        <time>2022-05-19T08:00:26Z</time>
      </trkpt>
      <trkpt lat="47.51682" lon="2.0939424">
        <ele>171.0</ele>
        <time>2022-05-19T08:00:27Z</time>
      </trkpt>
      <trkpt lat="47.516815" lon="2.093948">
        <ele>171.0</ele>
        <time>2022-05-19T08:00:28Z</time>
      </trkpt>
      <trkpt lat="47.51681" lon="2.0939598">
        <ele>172.0</ele>
        <time>2022-05-19T08:00:29Z</time>
      </trkpt>
      <trkpt lat="47.516808" lon="2.0939677">
        <ele>173.0</ele>
        <time>2022-05-19T08:00:30Z</time>
      </trkpt>
      <trkpt lat="47.516808" lon="2.093974">
        <ele>173.0</ele>
        <time>2022-05-19T08:00:31Z</time>
      </trkpt>
      <trkpt lat="47.516808" lon="2.0939763">
        <ele>173.0</ele>
        <time>2022-05-19T08:00:32Z</time>
      </trkpt>
      <trkpt lat="47.516808" lon="2.0939755">
        <ele>174.0</ele>
        <time>2022-05-19T08:00:33Z</time>
      </trkpt>
      <trkpt lat="47.516808" lon="2.0939755">
        <ele>174.0</ele>
        <time>2022-05-19T08:00:34Z</time>
      </trkpt>
      <trkpt lat="47.5168" lon="2.0939703">
        <ele>174.0</ele>
        <time>2022-05-19T08:00:35Z</time>
      </trkpt>
      <trkpt lat="47.5168" lon="2.0939724">
        <ele>174.0</ele>
        <time>2022-05-19T08:00:36Z</time>
      </trkpt>
      <trkpt lat="47.516796" lon="2.0939772">
        <ele>174.0</ele>
        <time>2022-05-19T08:00:37Z</time>
      </trkpt>
      <trkpt lat="47.516796" lon="2.0939777">
        <ele>174.0</ele>
        <time>2022-05-19T08:00:38Z</time>
      </trkpt>
      <trkpt lat="47.516796" lon="2.0939777">
        <ele>174.0</ele>
        <time>2022-05-19T08:00:39Z</time>
      </trkpt>
      <trkpt lat="47.516796" lon="2.0939777">
        <ele>174.0</ele>
        <time>2022-05-19T08:00:40Z</time>
      </trkpt>
      <trkpt lat="47.516796" lon="2.0939777">
        <ele>174.0</ele>
        <time>2022-05-19T08:00:41Z</time>
      </trkpt>
      <trkpt lat="47.516796" lon="2.0939777">
        <ele>174.0</ele>
        <time>2022-05-19T08:00:41Z</time>
      </trkpt>
      <trkpt lat="47.516796" lon="2.0939777">
        <ele>174.0</ele>
        <time>2022-05-19T08:00:41Z</time>
      </trkpt>
      <trkpt lat="47.516796" lon="2.093831">
        <ele>173.0</ele>
        <time>2022-05-19T08:04:46Z</time>
      </trkpt>
      <trkpt lat="47.5168" lon="2.0938325">
        <ele>173.0</ele>
        <time>2022-05-19T08:04:47Z</time>
      </trkpt>
      <trkpt lat="47.516804" lon="2.0938368">
        <ele>173.0</ele>
        <time>2022-05-19T08:04:48Z</time>
      </trkpt>
      <trkpt lat="47.516808" lon="2.0938382">
        <ele>173.0</ele>
        <time>2022-05-19T08:04:49Z</time>
      </trkpt>
      <trkpt lat="47.51681" lon="2.0938356">
        <ele>173.0</ele>
        <time>2022-05-19T08:04:50Z</time>
      </trkpt>
      <trkpt lat="47.51681" lon="2.0938356">
        <ele>173.0</ele>
        <time>2022-05-19T08:04:51Z</time>
      </trkpt>
      <trkpt lat="47.51681" lon="2.0938356">
        <ele>173.0</ele>
        <time>2022-05-19T08:04:51Z</time>
      </trkpt>
      <trkpt lat="47.51681" lon="2.0938356">
        <ele>173.0</ele>
        <time>2022-05-19T08:04:51Z</time>
      </trkpt>
      <trkpt lat="47.516808" lon="2.0938716">
        <ele>174.0</ele>
        <time>2022-05-19T08:05:05Z</time>
      </trkpt>
      <trkpt lat="47.516808" lon="2.0938716">
        <ele>174.0</ele>
        <time>2022-05-19T08:05:06Z</time>
      </trkpt>
      <trkpt lat="47.516808" lon="2.0938716">
        <ele>174.0</ele>
        <time>2022-05-19T08:05:07Z</time>
      </trkpt>
      <trkpt lat="47.516808" lon="2.0938716">
        <ele>174.0</ele>
        <time>2022-05-19T08:05:08Z</time>
      </trkpt>
      <trkpt lat="47.516808" lon="2.0938716">
        <ele>174.0</ele>
        <time>2022-05-19T08:05:08Z</time>
      </trkpt>
      <trkpt lat="47.516808" lon="2.0938716">
        <ele>174.0</ele>
        <time>2022-05-19T08:05:08Z</time>
      </trkpt>
      <trkpt lat="47.51685" lon="2.0939097">
        <ele>179.0</ele>
        <time>2022-05-19T08:07:23Z</time>
      </trkpt>
      <trkpt lat="47.51685" lon="2.0939097">
        <ele>179.0</ele>
        <time>2022-05-19T08:07:24Z</time>
      </trkpt>
      <trkpt lat="47.51685" lon="2.0939097">
        <ele>179.0</ele>
        <time>2022-05-19T08:07:25Z</time>
      </trkpt>
      <trkpt lat="47.51685" lon="2.0939097">
        <ele>179.0</ele>
        <time>2022-05-19T08:07:25Z</time>
      </trkpt>
      <trkpt lat="47.51685" lon="2.0939097">
        <ele>179.0</ele>
        <time>2022-05-19T08:07:25Z</time>
      </trkpt>
      <trkpt lat="47.51681" lon="2.0939827">
        <ele>182.0</ele>
        <time>2022-05-19T08:08:22Z</time>
      </trkpt>
      <trkpt lat="47.516808" lon="2.0939896">
        <ele>182.0</ele>
        <time>2022-05-19T08:08:23Z</time>
      </trkpt>
      <trkpt lat="47.516804" lon="2.0940013">
        <ele>182.0</ele>
        <time>2022-05-19T08:08:24Z</time>
      </trkpt>
      <trkpt lat="47.516808" lon="2.0940082">
        <ele>182.0</ele>
        <time>2022-05-19T08:08:25Z</time>
      </trkpt>
      <trkpt lat="47.516808" lon="2.0940168">
        <ele>182.0</ele>
        <time>2022-05-19T08:08:26Z</time>
      </trkpt>
      <trkpt lat="47.516815" lon="2.0940244">
        <ele>181.0</ele>
        <time>2022-05-19T08:08:27Z</time>
      </trkpt>
      <trkpt lat="47.516823" lon="2.0940285">
        <ele>181.0</ele>
        <time>2022-05-19T08:08:28Z</time>
      </trkpt>
      <trkpt lat="47.516827" lon="2.0940275">
        <ele>180.0</ele>
        <time>2022-05-19T08:08:29Z</time>
      </trkpt>
      <trkpt lat="47.51683" lon="2.094028">
        <ele>180.0</ele>
        <time>2022-05-19T08:08:30Z</time>
      </trkpt>
      <trkpt lat="47.516834" lon="2.0940242">
        <ele>180.0</ele>
        <time>2022-05-19T08:08:31Z</time>
      </trkpt>
      <trkpt lat="47.516834" lon="2.0940242">
        <ele>180.0</ele>
        <time>2022-05-19T08:08:32Z</time>
      </trkpt>
      <trkpt lat="47.516834" lon="2.0940242">
        <ele>180.0</ele>
        <time>2022-05-19T08:08:33Z</time>
      </trkpt>
      <trkpt lat="47.516853" lon="2.0940251">
        <ele>181.0</ele>
        <time>2022-05-19T08:08:34Z</time>
      </trkpt>
      <trkpt lat="47.51686" lon="2.0940216">
        <ele>181.0</ele>
        <time>2022-05-19T08:08:35Z</time>
      </trkpt>
      <trkpt lat="47.516865" lon="2.0940282">
        <ele>181.0</ele>
        <time>2022-05-19T08:08:36Z</time>
      </trkpt>
      <trkpt lat="47.516872" lon="2.0940359">
        <ele>181.0</ele>
        <time>2022-05-19T08:08:37Z</time>
      </trkpt>
      <trkpt lat="47.516872" lon="2.0940425">
        <ele>181.0</ele>
        <time>2022-05-19T08:08:38Z</time>
      </trkpt>
      <trkpt lat="47.516872" lon="2.0940542">
        <ele>180.0</ele>
        <time>2022-05-19T08:08:39Z</time>
      </trkpt>
      <trkpt lat="47.516876" lon="2.0940647">
        <ele>180.0</ele>
        <time>2022-05-19T08:08:40Z</time>
      </trkpt>
      <trkpt lat="47.516872" lon="2.09408">
        <ele>180.0</ele>
        <time>2022-05-19T08:08:41Z</time>
      </trkpt>
      <trkpt lat="47.516872" lon="2.09408">
        <ele>180.0</ele>
        <time>2022-05-19T08:08:41Z</time>
      </trkpt>
      <trkpt lat="47.516872" lon="2.09408">
        <ele>180.0</ele>
        <time>2022-05-19T08:08:41Z</time>
      </trkpt>
      <trkpt lat="47.516827" lon="2.094098">
        <ele>178.0</ele>
        <time>2022-05-19T08:09:38Z</time>
      </trkpt>
      <trkpt lat="47.51681" lon="2.0941036">
        <ele>178.0</ele>
        <time>2022-05-19T08:09:39Z</time>
      </trkpt>
      <trkpt lat="47.5168" lon="2.0941033">
        <ele>178.0</ele>
        <time>2022-05-19T08:09:40Z</time>
      </trkpt>
      <trkpt lat="47.516792" lon="2.0940993">
        <ele>177.0</ele>
        <time>2022-05-19T08:09:41Z</time>
      </trkpt>
      <trkpt lat="47.51679" lon="2.0940962">
        <ele>177.0</ele>
        <time>2022-05-19T08:09:42Z</time>
      </trkpt>
      <trkpt lat="47.516785" lon="2.0940936">
        <ele>177.0</ele>
        <time>2022-05-19T08:09:43Z</time>
      </trkpt>
      <trkpt lat="47.516785" lon="2.0940936">
        <ele>177.0</ele>
        <time>2022-05-19T08:09:44Z</time>
      </trkpt>
      <trkpt lat="47.516785" lon="2.0940936">
        <ele>177.0</ele>
        <time>2022-05-19T08:09:45Z</time>
      </trkpt>
      <trkpt lat="47.51677" lon="2.0940866">
        <ele>177.0</ele>
        <time>2022-05-19T08:09:46Z</time>
      </trkpt>
      <trkpt lat="47.516758" lon="2.0940897">
        <ele>176.0</ele>
        <time>2022-05-19T08:09:47Z</time>
      </trkpt>
      <trkpt lat="47.51675" lon="2.094094">
        <ele>176.0</ele>
        <time>2022-05-19T08:09:48Z</time>
      </trkpt>
      <trkpt lat="47.516743" lon="2.0941002">
        <ele>176.0</ele>
        <time>2022-05-19T08:09:49Z</time>
      </trkpt>
      <trkpt lat="47.51673" lon="2.094105">
        <ele>176.0</ele>
        <time>2022-05-19T08:09:50Z</time>
      </trkpt>
      <trkpt lat="47.516724" lon="2.0941076">
        <ele>176.0</ele>
        <time>2022-05-19T08:09:51Z</time>
      </trkpt>
      <trkpt lat="47.516712" lon="2.094105">
        <ele>175.0</ele>
        <time>2022-05-19T08:09:52Z</time>
      </trkpt>
      <trkpt lat="47.5167" lon="2.0941033">
        <ele>175.0</ele>
        <time>2022-05-19T08:09:53Z</time>
      </trkpt>
      <trkpt lat="47.516693" lon="2.0941026">
        <ele>175.0</ele>
        <time>2022-05-19T08:09:54Z</time>
      </trkpt>
      <trkpt lat="47.516685" lon="2.0940962">
        <ele>174.0</ele>
        <time>2022-05-19T08:09:55Z</time>
      </trkpt>
      <trkpt lat="47.516678" lon="2.0940762">
        <ele>173.0</ele>
        <time>2022-05-19T08:09:56Z</time>
      </trkpt>
      <trkpt lat="47.51668" lon="2.0940595">
        <ele>173.0</ele>
        <time>2022-05-19T08:09:57Z</time>
      </trkpt>
      <trkpt lat="47.516685" lon="2.0940464">
        <ele>172.0</ele>
        <time>2022-05-19T08:09:58Z</time>
      </trkpt>
      <trkpt lat="47.516693" lon="2.0940397">
        <ele>173.0</ele>
        <time>2022-05-19T08:09:59Z</time>
      </trkpt>
      <trkpt lat="47.516705" lon="2.0940263">
        <ele>173.0</ele>
        <time>2022-05-19T08:10:00Z</time>
      </trkpt>
      <trkpt lat="47.51671" lon="2.094018">
        <ele>173.0</ele>
        <time>2022-05-19T08:10:01Z</time>
      </trkpt>
      <trkpt lat="47.516712" lon="2.09401">
        <ele>174.0</ele>
        <time>2022-05-19T08:10:02Z</time>
      </trkpt>
      <trkpt lat="47.516712" lon="2.09401">
        <ele>174.0</ele>
        <time>2022-05-19T08:10:03Z</time>
      </trkpt>
      <trkpt lat="47.516712" lon="2.09401">
        <ele>174.0</ele>
        <time>2022-05-19T08:10:04Z</time>
      </trkpt>
      <trkpt lat="47.516705" lon="2.0939898">
        <ele>176.0</ele>
        <time>2022-05-19T08:10:05Z</time>
      </trkpt>
      <trkpt lat="47.5167" lon="2.093985">
        <ele>176.0</ele>
        <time>2022-05-19T08:10:06Z</time>
      </trkpt>
      <trkpt lat="47.5167" lon="2.093985">
        <ele>176.0</ele>
        <time>2022-05-19T08:10:06Z</time>
      </trkpt>
      <trkpt lat="47.5167" lon="2.093985">
        <ele>176.0</ele>
        <time>2022-05-19T08:10:06Z</time>
      </trkpt>
      <trkpt lat="47.51673" lon="2.0939739">
        <ele>178.0</ele>
        <time>2022-05-19T08:10:53Z</time>
      </trkpt>
      <trkpt lat="47.51673" lon="2.0939739">
        <ele>178.0</ele>
        <time>2022-05-19T08:10:54Z</time>
      </trkpt>
      <trkpt lat="47.51673" lon="2.0939739">
        <ele>178.0</ele>
        <time>2022-05-19T08:10:55Z</time>
      </trkpt>
      <trkpt lat="47.51673" lon="2.0939739">
        <ele>178.0</ele>
        <time>2022-05-19T08:10:56Z</time>
      </trkpt>
      <trkpt lat="47.51673" lon="2.0939739">
        <ele>178.0</ele>
        <time>2022-05-19T08:10:57Z</time>
      </trkpt>
      <trkpt lat="47.51673" lon="2.0939739">
        <ele>178.0</ele>
        <time>2022-05-19T08:10:58Z</time>
      </trkpt>
      <trkpt lat="47.51673" lon="2.0939739">
        <ele>178.0</ele>
        <time>2022-05-19T08:10:59Z</time>
      </trkpt>
      <trkpt lat="47.51673" lon="2.0939739">
        <ele>178.0</ele>
        <time>2022-05-19T08:11:00Z</time>
      </trkpt>
      <trkpt lat="47.51673" lon="2.0939739">
        <ele>178.0</ele>
        <time>2022-05-19T08:11:01Z</time>
      </trkpt>
      <trkpt lat="47.51673" lon="2.0939739">
        <ele>178.0</ele>
        <time>2022-05-19T08:11:02Z</time>
      </trkpt>
      <trkpt lat="47.51673" lon="2.0939739">
        <ele>178.0</ele>
        <time>2022-05-19T08:11:03Z</time>
      </trkpt>
      <trkpt lat="47.51673" lon="2.0939739">
        <ele>178.0</ele>
        <time>2022-05-19T08:11:04Z</time>
      </trkpt>
      <trkpt lat="47.51673" lon="2.0939739">
        <ele>178.0</ele>
        <time>2022-05-19T08:11:04Z</time>
      </trkpt>
      <trkpt lat="47.51673" lon="2.0939739">
        <ele>178.0</ele>
        <time>2022-05-19T08:11:04Z</time>
      </trkpt>
      <trkpt lat="47.51676" lon="2.0939593">
        <ele>177.0</ele>
        <time>2022-05-19T08:13:25Z</time>
      </trkpt>
      <trkpt lat="47.516773" lon="2.0939775">
        <ele>175.0</ele>
        <time>2022-05-19T08:13:26Z</time>
      </trkpt>
      <trkpt lat="47.516773" lon="2.0939786">
        <ele>175.0</ele>
        <time>2022-05-19T08:13:27Z</time>
      </trkpt>
      <trkpt lat="47.51677" lon="2.093978">
        <ele>176.0</ele>
        <time>2022-05-19T08:13:28Z</time>
      </trkpt>
      <trkpt lat="47.51676" lon="2.0939808">
        <ele>176.0</ele>
        <time>2022-05-19T08:13:29Z</time>
      </trkpt>
      <trkpt lat="47.516754" lon="2.0939875">
        <ele>176.0</ele>
        <time>2022-05-19T08:13:30Z</time>
      </trkpt>
      <trkpt lat="47.516747" lon="2.0939918">
        <ele>176.0</ele>
        <time>2022-05-19T08:13:31Z</time>
      </trkpt>
      <trkpt lat="47.516743" lon="2.093998">
        <ele>176.0</ele>
        <time>2022-05-19T08:13:32Z</time>
      </trkpt>
      <trkpt lat="47.516735" lon="2.0940006">
        <ele>176.0</ele>
        <time>2022-05-19T08:13:33Z</time>
      </trkpt>
      <trkpt lat="47.516727" lon="2.0940049">
        <ele>176.0</ele>
        <time>2022-05-19T08:13:34Z</time>
      </trkpt>
      <trkpt lat="47.516724" lon="2.0940087">
        <ele>176.0</ele>
        <time>2022-05-19T08:13:35Z</time>
      </trkpt>
      <trkpt lat="47.516716" lon="2.0940146">
        <ele>176.0</ele>
        <time>2022-05-19T08:13:36Z</time>
      </trkpt>
      <trkpt lat="47.516705" lon="2.0940166">
        <ele>176.0</ele>
        <time>2022-05-19T08:13:37Z</time>
      </trkpt>
      <trkpt lat="47.516697" lon="2.094022">
        <ele>176.0</ele>
        <time>2022-05-19T08:13:38Z</time>
      </trkpt>
      <trkpt lat="47.51669" lon="2.0940287">
        <ele>176.0</ele>
        <time>2022-05-19T08:13:39Z</time>
      </trkpt>
      <trkpt lat="47.51668" lon="2.0940378">
        <ele>176.0</ele>
        <time>2022-05-19T08:13:40Z</time>
      </trkpt>
      <trkpt lat="47.516674" lon="2.094048">
        <ele>176.0</ele>
        <time>2022-05-19T08:13:41Z</time>
      </trkpt>
      <trkpt lat="47.516666" lon="2.0940607">
        <ele>176.0</ele>
        <time>2022-05-19T08:13:42Z</time>
      </trkpt>
      <trkpt lat="47.51666" lon="2.0940647">
        <ele>176.0</ele>
        <time>2022-05-19T08:13:43Z</time>
      </trkpt>
      <trkpt lat="47.51665" lon="2.094072">
        <ele>176.0</ele>
        <time>2022-05-19T08:13:44Z</time>
      </trkpt>
      <trkpt lat="47.51664" lon="2.0940764">
        <ele>176.0</ele>
        <time>2022-05-19T08:13:45Z</time>
      </trkpt>
      <trkpt lat="47.51663" lon="2.0940852">
        <ele>177.0</ele>
        <time>2022-05-19T08:13:46Z</time>
      </trkpt>
      <trkpt lat="47.51662" lon="2.0941">
        <ele>177.0</ele>
        <time>2022-05-19T08:13:47Z</time>
      </trkpt>
      <trkpt lat="47.516613" lon="2.0941155">
        <ele>177.0</ele>
        <time>2022-05-19T08:13:48Z</time>
      </trkpt>
      <trkpt lat="47.51661" lon="2.0941284">
        <ele>177.0</ele>
        <time>2022-05-19T08:13:49Z</time>
      </trkpt>
      <trkpt lat="47.5166" lon="2.0941398">
        <ele>178.0</ele>
        <time>2022-05-19T08:13:50Z</time>
      </trkpt>
      <trkpt lat="47.51659" lon="2.0941436">
        <ele>178.0</ele>
        <time>2022-05-19T08:13:51Z</time>
      </trkpt>
      <trkpt lat="47.516586" lon="2.0941477">
        <ele>177.0</ele>
        <time>2022-05-19T08:13:52Z</time>
      </trkpt>
      <trkpt lat="47.51658" lon="2.0941532">
        <ele>177.0</ele>
        <time>2022-05-19T08:13:53Z</time>
      </trkpt>
      <trkpt lat="47.51657" lon="2.0941586">
        <ele>177.0</ele>
        <time>2022-05-19T08:13:54Z</time>
      </trkpt>
      <trkpt lat="47.516563" lon="2.0941613">
        <ele>177.0</ele>
        <time>2022-05-19T08:13:55Z</time>
      </trkpt>
      <trkpt lat="47.51656" lon="2.0941648">
        <ele>177.0</ele>
        <time>2022-05-19T08:13:56Z</time>
      </trkpt>
      <trkpt lat="47.51656" lon="2.094167">
        <ele>176.0</ele>
        <time>2022-05-19T08:13:57Z</time>
      </trkpt>
      <trkpt lat="47.51656" lon="2.094167">
        <ele>176.0</ele>
        <time>2022-05-19T08:13:58Z</time>
      </trkpt>
      <trkpt lat="47.51656" lon="2.094167">
        <ele>176.0</ele>
        <time>2022-05-19T08:13:59Z</time>
      </trkpt>
      <trkpt lat="47.516563" lon="2.0941875">
        <ele>175.0</ele>
        <time>2022-05-19T08:14:00Z</time>
      </trkpt>
      <trkpt lat="47.516556" lon="2.0942013">
        <ele>175.0</ele>
        <time>2022-05-19T08:14:01Z</time>
      </trkpt>
      <trkpt lat="47.516544" lon="2.0942056">
        <ele>175.0</ele>
        <time>2022-05-19T08:14:02Z</time>
      </trkpt>
      <trkpt lat="47.516544" lon="2.094208">
        <ele>176.0</ele>
        <time>2022-05-19T08:14:03Z</time>
      </trkpt>
      <trkpt lat="47.516533" lon="2.0942082">
        <ele>175.0</ele>
        <time>2022-05-19T08:14:04Z</time>
      </trkpt>
      <trkpt lat="47.516525" lon="2.0942168">
        <ele>175.0</ele>
        <time>2022-05-19T08:14:05Z</time>
      </trkpt>
      <trkpt lat="47.516514" lon="2.0942178">
        <ele>176.0</ele>
        <time>2022-05-19T08:14:06Z</time>
      </trkpt>
      <trkpt lat="47.516514" lon="2.0942173">
        <ele>176.0</ele>
        <time>2022-05-19T08:14:07Z</time>
      </trkpt>
      <trkpt lat="47.516514" lon="2.094217">
        <ele>176.0</ele>
        <time>2022-05-19T08:14:08Z</time>
      </trkpt>
      <trkpt lat="47.516514" lon="2.094217">
        <ele>176.0</ele>
        <time>2022-05-19T08:14:09Z</time>
      </trkpt>
      <trkpt lat="47.516514" lon="2.094217">
        <ele>176.0</ele>
        <time>2022-05-19T08:14:09Z</time>
      </trkpt>
      <trkpt lat="47.516514" lon="2.094217">
        <ele>176.0</ele>
        <time>2022-05-19T08:14:09Z</time>
      </trkpt>
      <trkpt lat="47.516495" lon="2.0943036">
        <ele>174.0</ele>
        <time>2022-05-19T08:14:17Z</time>
      </trkpt>
      <trkpt lat="47.51649" lon="2.094322">
        <ele>174.0</ele>
        <time>2022-05-19T08:14:18Z</time>
      </trkpt>
      <trkpt lat="47.516483" lon="2.0943406">
        <ele>174.0</ele>
        <time>2022-05-19T08:14:19Z</time>
      </trkpt>
      <trkpt lat="47.51648" lon="2.0943494">
        <ele>174.0</ele>
        <time>2022-05-19T08:14:20Z</time>
      </trkpt>
      <trkpt lat="47.51647" lon="2.094361">
        <ele>175.0</ele>
        <time>2022-05-19T08:14:21Z</time>
      </trkpt>
      <trkpt lat="47.516464" lon="2.094375">
        <ele>175.0</ele>
        <time>2022-05-19T08:14:22Z</time>
      </trkpt>
      <trkpt lat="47.516457" lon="2.0943797">
        <ele>175.0</ele>
        <time>2022-05-19T08:14:23Z</time>
      </trkpt>
      <trkpt lat="47.516445" lon="2.0943882">
        <ele>176.0</ele>
        <time>2022-05-19T08:14:24Z</time>
      </trkpt>
      <trkpt lat="47.516438" lon="2.0943997">
        <ele>176.0</ele>
        <time>2022-05-19T08:14:25Z</time>
      </trkpt>
      <trkpt lat="47.516426" lon="2.0944047">
        <ele>176.0</ele>
        <time>2022-05-19T08:14:26Z</time>
      </trkpt>
      <trkpt lat="47.51642" lon="2.0944126">
        <ele>176.0</ele>
        <time>2022-05-19T08:14:27Z</time>
      </trkpt>
      <trkpt lat="47.51641" lon="2.0944207">
        <ele>176.0</ele>
        <time>2022-05-19T08:14:28Z</time>
      </trkpt>
      <trkpt lat="47.5164" lon="2.0944273">
        <ele>176.0</ele>
        <time>2022-05-19T08:14:29Z</time>
      </trkpt>
      <trkpt lat="47.51639" lon="2.0944402">
        <ele>176.0</ele>
        <time>2022-05-19T08:14:30Z</time>
      </trkpt>
      <trkpt lat="47.516376" lon="2.094453">
        <ele>176.0</ele>
        <time>2022-05-19T08:14:31Z</time>
      </trkpt>
      <trkpt lat="47.516365" lon="2.0944633">
        <ele>176.0</ele>
        <time>2022-05-19T08:14:32Z</time>
      </trkpt>
      <trkpt lat="47.516357" lon="2.094471">
        <ele>176.0</ele>
        <time>2022-05-19T08:14:33Z</time>
      </trkpt>
      <trkpt lat="47.516354" lon="2.0944767">
        <ele>175.0</ele>
        <time>2022-05-19T08:14:34Z</time>
      </trkpt>
      <trkpt lat="47.51635" lon="2.0944774">
        <ele>175.0</ele>
        <time>2022-05-19T08:14:35Z</time>
      </trkpt>
      <trkpt lat="47.516342" lon="2.0944777">
        <ele>175.0</ele>
        <time>2022-05-19T08:14:36Z</time>
      </trkpt>
      <trkpt lat="47.516342" lon="2.0944777">
        <ele>175.0</ele>
        <time>2022-05-19T08:14:37Z</time>
      </trkpt>
      <trkpt lat="47.516335" lon="2.0944827">
        <ele>175.0</ele>
        <time>2022-05-19T08:14:38Z</time>
      </trkpt>
      <trkpt lat="47.516327" lon="2.094485">
        <ele>174.0</ele>
        <time>2022-05-19T08:14:39Z</time>
      </trkpt>
      <trkpt lat="47.51631" lon="2.0944865">
        <ele>174.0</ele>
        <time>2022-05-19T08:14:40Z</time>
      </trkpt>
      <trkpt lat="47.516304" lon="2.094487">
        <ele>174.0</ele>
        <time>2022-05-19T08:14:41Z</time>
      </trkpt>
      <trkpt lat="47.516296" lon="2.094482">
        <ele>174.0</ele>
        <time>2022-05-19T08:14:42Z</time>
      </trkpt>
      <trkpt lat="47.51628" lon="2.0944784">
        <ele>174.0</ele>
        <time>2022-05-19T08:14:43Z</time>
      </trkpt>
      <trkpt lat="47.516273" lon="2.094478">
        <ele>174.0</ele>
        <time>2022-05-19T08:14:44Z</time>
      </trkpt>
      <trkpt lat="47.51626" lon="2.0944822">
        <ele>173.0</ele>
        <time>2022-05-19T08:14:45Z</time>
      </trkpt>
      <trkpt lat="47.516243" lon="2.0944874">
        <ele>172.0</ele>
        <time>2022-05-19T08:14:47Z</time>
      </trkpt>
      <trkpt lat="47.516235" lon="2.0944896">
        <ele>172.0</ele>
        <time>2022-05-19T08:14:48Z</time>
      </trkpt>
      <trkpt lat="47.516224" lon="2.0944932">
        <ele>172.0</ele>
        <time>2022-05-19T08:14:49Z</time>
      </trkpt>
      <trkpt lat="47.516216" lon="2.0944977">
        <ele>172.0</ele>
        <time>2022-05-19T08:14:50Z</time>
      </trkpt>
      <trkpt lat="47.516205" lon="2.0945027">
        <ele>171.0</ele>
        <time>2022-05-19T08:14:51Z</time>
      </trkpt>
      <trkpt lat="47.516197" lon="2.0945063">
        <ele>171.0</ele>
        <time>2022-05-19T08:14:52Z</time>
      </trkpt>
      <trkpt lat="47.516186" lon="2.0945125">
        <ele>171.0</ele>
        <time>2022-05-19T08:14:53Z</time>
      </trkpt>
      <trkpt lat="47.516174" lon="2.094518">
        <ele>171.0</ele>
        <time>2022-05-19T08:14:54Z</time>
      </trkpt>
      <trkpt lat="47.51617" lon="2.0945208">
        <ele>171.0</ele>
        <time>2022-05-19T08:14:55Z</time>
      </trkpt>
      <trkpt lat="47.516167" lon="2.0945199">
        <ele>170.0</ele>
        <time>2022-05-19T08:14:56Z</time>
      </trkpt>
      <trkpt lat="47.516155" lon="2.09452">
        <ele>170.0</ele>
        <time>2022-05-19T08:14:57Z</time>
      </trkpt>
      <trkpt lat="47.516144" lon="2.0945244">
        <ele>169.0</ele>
        <time>2022-05-19T08:14:58Z</time>
      </trkpt>
      <trkpt lat="47.516132" lon="2.09453">
        <ele>169.0</ele>
        <time>2022-05-19T08:14:59Z</time>
      </trkpt>
      <trkpt lat="47.516117" lon="2.094541">
        <ele>169.0</ele>
        <time>2022-05-19T08:15:00Z</time>
      </trkpt>
      <trkpt lat="47.516106" lon="2.0945513">
        <ele>169.0</ele>
        <time>2022-05-19T08:15:01Z</time>
      </trkpt>
      <trkpt lat="47.516094" lon="2.0945616">
        <ele>169.0</ele>
        <time>2022-05-19T08:15:02Z</time>
      </trkpt>
      <trkpt lat="47.516083" lon="2.0945694">
        <ele>168.0</ele>
        <time>2022-05-19T08:15:03Z</time>
      </trkpt>
      <trkpt lat="47.51607" lon="2.0945745">
        <ele>168.0</ele>
        <time>2022-05-19T08:15:04Z</time>
      </trkpt>
      <trkpt lat="47.516064" lon="2.0945766">
        <ele>167.0</ele>
        <time>2022-05-19T08:15:05Z</time>
      </trkpt>
      <trkpt lat="47.516052" lon="2.0945752">
        <ele>167.0</ele>
        <time>2022-05-19T08:15:06Z</time>
      </trkpt>
      <trkpt lat="47.516045" lon="2.094577">
        <ele>167.0</ele>
        <time>2022-05-19T08:15:07Z</time>
      </trkpt>
      <trkpt lat="47.516033" lon="2.094577">
        <ele>167.0</ele>
        <time>2022-05-19T08:15:08Z</time>
      </trkpt>
      <trkpt lat="47.516018" lon="2.0945823">
        <ele>167.0</ele>
        <time>2022-05-19T08:15:09Z</time>
      </trkpt>
      <trkpt lat="47.516014" lon="2.0945954">
        <ele>167.0</ele>
        <time>2022-05-19T08:15:10Z</time>
      </trkpt>
      <trkpt lat="47.516018" lon="2.094607">
        <ele>167.0</ele>
        <time>2022-05-19T08:15:11Z</time>
      </trkpt>
      <trkpt lat="47.516006" lon="2.0946188">
        <ele>167.0</ele>
        <time>2022-05-19T08:15:12Z</time>
      </trkpt>
      <trkpt lat="47.516" lon="2.0946257">
        <ele>167.0</ele>
        <time>2022-05-19T08:15:13Z</time>
      </trkpt>
      <trkpt lat="47.51599" lon="2.0946405">
        <ele>167.0</ele>
        <time>2022-05-19T08:15:14Z</time>
      </trkpt>
      <trkpt lat="47.515984" lon="2.094651">
        <ele>167.0</ele>
        <time>2022-05-19T08:15:15Z</time>
      </trkpt>
      <trkpt lat="47.515976" lon="2.0946581">
        <ele>167.0</ele>
        <time>2022-05-19T08:15:16Z</time>
      </trkpt>
      <trkpt lat="47.51597" lon="2.0946698">
        <ele>167.0</ele>
        <time>2022-05-19T08:15:17Z</time>
      </trkpt>
      <trkpt lat="47.515957" lon="2.0946789">
        <ele>166.0</ele>
        <time>2022-05-19T08:15:18Z</time>
      </trkpt>
      <trkpt lat="47.515957" lon="2.0946789">
        <ele>166.0</ele>
        <time>2022-05-19T08:15:19Z</time>
      </trkpt>
      <trkpt lat="47.515938" lon="2.0947008">
        <ele>166.0</ele>
        <time>2022-05-19T08:15:20Z</time>
      </trkpt>
      <trkpt lat="47.515923" lon="2.0947165">
        <ele>166.0</ele>
        <time>2022-05-19T08:15:21Z</time>
      </trkpt>
      <trkpt lat="47.515915" lon="2.0947285">
        <ele>166.0</ele>
        <time>2022-05-19T08:15:22Z</time>
      </trkpt>
      <trkpt lat="47.515907" lon="2.0947387">
        <ele>166.0</ele>
        <time>2022-05-19T08:15:23Z</time>
      </trkpt>
      <trkpt lat="47.515907" lon="2.094752">
        <ele>166.0</ele>
        <time>2022-05-19T08:15:24Z</time>
      </trkpt>
      <trkpt lat="47.515903" lon="2.094763">
        <ele>166.0</ele>
        <time>2022-05-19T08:15:25Z</time>
      </trkpt>
      <trkpt lat="47.515903" lon="2.094763">
        <ele>166.0</ele>
        <time>2022-05-19T08:15:26Z</time>
      </trkpt>
      <trkpt lat="47.515892" lon="2.0947883">
        <ele>166.0</ele>
        <time>2022-05-19T08:15:27Z</time>
      </trkpt>
      <trkpt lat="47.51588" lon="2.0948021">
        <ele>166.0</ele>
        <time>2022-05-19T08:15:28Z</time>
      </trkpt>
      <trkpt lat="47.515873" lon="2.0948162">
        <ele>166.0</ele>
        <time>2022-05-19T08:15:29Z</time>
      </trkpt>
      <trkpt lat="47.51587" lon="2.0948281">
        <ele>166.0</ele>
        <time>2022-05-19T08:15:30Z</time>
      </trkpt>
      <trkpt lat="47.51587" lon="2.0948281">
        <ele>166.0</ele>
        <time>2022-05-19T08:15:31Z</time>
      </trkpt>
      <trkpt lat="47.51587" lon="2.0948281">
        <ele>166.0</ele>
        <time>2022-05-19T08:15:32Z</time>
      </trkpt>
      <trkpt lat="47.515858" lon="2.0948539">
        <ele>165.0</ele>
        <time>2022-05-19T08:15:33Z</time>
      </trkpt>
      <trkpt lat="47.515858" lon="2.0948622">
        <ele>165.0</ele>
        <time>2022-05-19T08:15:34Z</time>
      </trkpt>
      <trkpt lat="47.515854" lon="2.0948768">
        <ele>165.0</ele>
        <time>2022-05-19T08:15:35Z</time>
      </trkpt>
      <trkpt lat="47.51584" lon="2.0948875">
        <ele>165.0</ele>
        <time>2022-05-19T08:15:36Z</time>
      </trkpt>
      <trkpt lat="47.51583" lon="2.0948968">
        <ele>165.0</ele>
        <time>2022-05-19T08:15:37Z</time>
      </trkpt>
      <trkpt lat="47.51582" lon="2.094905">
        <ele>164.0</ele>
        <time>2022-05-19T08:15:38Z</time>
      </trkpt>
      <trkpt lat="47.515812" lon="2.0949135">
        <ele>164.0</ele>
        <time>2022-05-19T08:15:39Z</time>
      </trkpt>
      <trkpt lat="47.5158" lon="2.0949237">
        <ele>164.0</ele>
        <time>2022-05-19T08:15:40Z</time>
      </trkpt>
      <trkpt lat="47.5158" lon="2.0949237">
        <ele>164.0</ele>
        <time>2022-05-19T08:15:41Z</time>
      </trkpt>
      <trkpt lat="47.5158" lon="2.0949237">
        <ele>164.0</ele>
        <time>2022-05-19T08:15:42Z</time>
      </trkpt>
      <trkpt lat="47.51579" lon="2.094956">
        <ele>163.0</ele>
        <time>2022-05-19T08:15:43Z</time>
      </trkpt>
      <trkpt lat="47.515778" lon="2.094969">
        <ele>163.0</ele>
        <time>2022-05-19T08:15:44Z</time>
      </trkpt>
      <trkpt lat="47.515774" lon="2.0949879">
        <ele>163.0</ele>
        <time>2022-05-19T08:15:45Z</time>
      </trkpt>
      <trkpt lat="47.515766" lon="2.0949953">
        <ele>162.0</ele>
        <time>2022-05-19T08:15:46Z</time>
      </trkpt>
      <trkpt lat="47.515766" lon="2.0949953">
        <ele>162.0</ele>
        <time>2022-05-19T08:15:47Z</time>
      </trkpt>
      <trkpt lat="47.515766" lon="2.0949953">
        <ele>162.0</ele>
        <time>2022-05-19T08:15:48Z</time>
      </trkpt>
      <trkpt lat="47.515743" lon="2.095022">
        <ele>162.0</ele>
        <time>2022-05-19T08:15:49Z</time>
      </trkpt>
      <trkpt lat="47.51573" lon="2.0950341">
        <ele>161.0</ele>
        <time>2022-05-19T08:15:50Z</time>
      </trkpt>
      <trkpt lat="47.515724" lon="2.0950408">
        <ele>161.0</ele>
        <time>2022-05-19T08:15:51Z</time>
      </trkpt>
      <trkpt lat="47.515713" lon="2.0950513">
        <ele>161.0</ele>
        <time>2022-05-19T08:15:52Z</time>
      </trkpt>
      <trkpt lat="47.515713" lon="2.0950513">
        <ele>161.0</ele>
        <time>2022-05-19T08:15:53Z</time>
      </trkpt>
      <trkpt lat="47.515713" lon="2.0950513">
        <ele>161.0</ele>
        <time>2022-05-19T08:15:54Z</time>
      </trkpt>
      <trkpt lat="47.515694" lon="2.0950782">
        <ele>160.0</ele>
        <time>2022-05-19T08:15:55Z</time>
      </trkpt>
      <trkpt lat="47.51569" lon="2.0950873">
        <ele>160.0</ele>
        <time>2022-05-19T08:15:56Z</time>
      </trkpt>
      <trkpt lat="47.515682" lon="2.095096">
        <ele>160.0</ele>
        <time>2022-05-19T08:15:57Z</time>
      </trkpt>
      <trkpt lat="47.51567" lon="2.0950985">
        <ele>160.0</ele>
        <time>2022-05-19T08:15:58Z</time>
      </trkpt>
      <trkpt lat="47.51566" lon="2.0951006">
        <ele>159.0</ele>
        <time>2022-05-19T08:15:59Z</time>
      </trkpt>
      <trkpt lat="47.515648" lon="2.095102">
        <ele>159.0</ele>
        <time>2022-05-19T08:16:00Z</time>
      </trkpt>
      <trkpt lat="47.51563" lon="2.0951154">
        <ele>159.0</ele>
        <time>2022-05-19T08:16:01Z</time>
      </trkpt>
      <trkpt lat="47.515617" lon="2.095132">
        <ele>159.0</ele>
        <time>2022-05-19T08:16:02Z</time>
      </trkpt>
      <trkpt lat="47.515606" lon="2.0951488">
        <ele>159.0</ele>
        <time>2022-05-19T08:16:03Z</time>
      </trkpt>
      <trkpt lat="47.5156" lon="2.095161">
        <ele>158.0</ele>
        <time>2022-05-19T08:16:04Z</time>
      </trkpt>
      <trkpt lat="47.515587" lon="2.0951767">
        <ele>158.0</ele>
        <time>2022-05-19T08:16:05Z</time>
      </trkpt>
      <trkpt lat="47.515575" lon="2.09519">
        <ele>158.0</ele>
        <time>2022-05-19T08:16:06Z</time>
      </trkpt>
      <trkpt lat="47.515564" lon="2.0952036">
        <ele>157.0</ele>
        <time>2022-05-19T08:16:07Z</time>
      </trkpt>
      <trkpt lat="47.515553" lon="2.0952177">
        <ele>157.0</ele>
        <time>2022-05-19T08:16:08Z</time>
      </trkpt>
      <trkpt lat="47.51554" lon="2.0952327">
        <ele>157.0</ele>
        <time>2022-05-19T08:16:09Z</time>
      </trkpt>
      <trkpt lat="47.515537" lon="2.0952404">
        <ele>157.0</ele>
        <time>2022-05-19T08:16:10Z</time>
      </trkpt>
      <trkpt lat="47.51553" lon="2.0952535">
        <ele>157.0</ele>
        <time>2022-05-19T08:16:11Z</time>
      </trkpt>
      <trkpt lat="47.515514" lon="2.0952697">
        <ele>156.0</ele>
        <time>2022-05-19T08:16:12Z</time>
      </trkpt>
      <trkpt lat="47.51551" lon="2.0952775">
        <ele>156.0</ele>
        <time>2022-05-19T08:16:13Z</time>
      </trkpt>
      <trkpt lat="47.515503" lon="2.0952842">
        <ele>156.0</ele>
        <time>2022-05-19T08:16:14Z</time>
      </trkpt>
      <trkpt lat="47.515503" lon="2.0952895">
        <ele>156.0</ele>
        <time>2022-05-19T08:16:15Z</time>
      </trkpt>
      <trkpt lat="47.515495" lon="2.0953028">
        <ele>156.0</ele>
        <time>2022-05-19T08:16:16Z</time>
      </trkpt>
      <trkpt lat="47.515484" lon="2.0953126">
        <ele>155.0</ele>
        <time>2022-05-19T08:16:17Z</time>
      </trkpt>
      <trkpt lat="47.515484" lon="2.0953126">
        <ele>155.0</ele>
        <time>2022-05-19T08:16:18Z</time>
      </trkpt>
      <trkpt lat="47.515484" lon="2.0953126">
        <ele>155.0</ele>
        <time>2022-05-19T08:16:19Z</time>
      </trkpt>
      <trkpt lat="47.515465" lon="2.0953577">
        <ele>155.0</ele>
        <time>2022-05-19T08:16:20Z</time>
      </trkpt>
      <trkpt lat="47.515453" lon="2.0953758">
        <ele>155.0</ele>
        <time>2022-05-19T08:16:21Z</time>
      </trkpt>
      <trkpt lat="47.51544" lon="2.0953908">
        <ele>155.0</ele>
        <time>2022-05-19T08:16:22Z</time>
      </trkpt>
      <trkpt lat="47.51543" lon="2.0954044">
        <ele>154.0</ele>
        <time>2022-05-19T08:16:23Z</time>
      </trkpt>
      <trkpt lat="47.515423" lon="2.0954134">
        <ele>154.0</ele>
        <time>2022-05-19T08:16:24Z</time>
      </trkpt>
      <trkpt lat="47.515408" lon="2.095432">
        <ele>154.0</ele>
        <time>2022-05-19T08:16:25Z</time>
      </trkpt>
      <trkpt lat="47.515396" lon="2.095445">
        <ele>154.0</ele>
        <time>2022-05-19T08:16:26Z</time>
      </trkpt>
      <trkpt lat="47.515385" lon="2.0954552">
        <ele>153.0</ele>
        <time>2022-05-19T08:16:27Z</time>
      </trkpt>
      <trkpt lat="47.515377" lon="2.0954578">
        <ele>153.0</ele>
        <time>2022-05-19T08:16:28Z</time>
      </trkpt>
      <trkpt lat="47.51537" lon="2.0954704">
        <ele>153.0</ele>
        <time>2022-05-19T08:16:29Z</time>
      </trkpt>
      <trkpt lat="47.515358" lon="2.0954816">
        <ele>153.0</ele>
        <time>2022-05-19T08:16:30Z</time>
      </trkpt>
      <trkpt lat="47.515347" lon="2.095494">
        <ele>153.0</ele>
        <time>2022-05-19T08:16:31Z</time>
      </trkpt>
      <trkpt lat="47.515343" lon="2.0955071">
        <ele>153.0</ele>
        <time>2022-05-19T08:16:32Z</time>
      </trkpt>
      <trkpt lat="47.515335" lon="2.0955186">
        <ele>153.0</ele>
        <time>2022-05-19T08:16:33Z</time>
      </trkpt>
      <trkpt lat="47.515327" lon="2.0955343">
        <ele>153.0</ele>
        <time>2022-05-19T08:16:34Z</time>
      </trkpt>
      <trkpt lat="47.51532" lon="2.0955412">
        <ele>152.0</ele>
        <time>2022-05-19T08:16:35Z</time>
      </trkpt>
      <trkpt lat="47.51531" lon="2.0955493">
        <ele>152.0</ele>
        <time>2022-05-19T08:16:36Z</time>
      </trkpt>
      <trkpt lat="47.5153" lon="2.0955563">
        <ele>152.0</ele>
        <time>2022-05-19T08:16:37Z</time>
      </trkpt>
      <trkpt lat="47.51529" lon="2.095563">
        <ele>151.0</ele>
        <time>2022-05-19T08:16:38Z</time>
      </trkpt>
      <trkpt lat="47.51528" lon="2.095571">
        <ele>151.0</ele>
        <time>2022-05-19T08:16:39Z</time>
      </trkpt>
      <trkpt lat="47.51527" lon="2.0955768">
        <ele>151.0</ele>
        <time>2022-05-19T08:16:40Z</time>
      </trkpt>
      <trkpt lat="47.51527" lon="2.0955768">
        <ele>151.0</ele>
        <time>2022-05-19T08:16:40Z</time>
      </trkpt>
      <trkpt lat="47.51526" lon="2.0955849">
        <ele>151.0</ele>
        <time>2022-05-19T08:16:41Z</time>
      </trkpt>
      <trkpt lat="47.51525" lon="2.095613">
        <ele>151.0</ele>
        <time>2022-05-19T08:16:43Z</time>
      </trkpt>
      <trkpt lat="47.51524" lon="2.095634">
        <ele>151.0</ele>
        <time>2022-05-19T08:16:44Z</time>
      </trkpt>
      <trkpt lat="47.515236" lon="2.0956533">
        <ele>151.0</ele>
        <time>2022-05-19T08:16:45Z</time>
      </trkpt>
      <trkpt lat="47.51523" lon="2.0956635">
        <ele>150.0</ele>
        <time>2022-05-19T08:16:46Z</time>
      </trkpt>
      <trkpt lat="47.51523" lon="2.0956635">
        <ele>150.0</ele>
        <time>2022-05-19T08:16:46Z</time>
      </trkpt>
      <trkpt lat="47.515217" lon="2.0956676">
        <ele>150.0</ele>
        <time>2022-05-19T08:16:47Z</time>
      </trkpt>
      <trkpt lat="47.5152" lon="2.095691">
        <ele>150.0</ele>
        <time>2022-05-19T08:16:49Z</time>
      </trkpt>
      <trkpt lat="47.5152" lon="2.095691">
        <ele>150.0</ele>
        <time>2022-05-19T08:16:49Z</time>
      </trkpt>
      <trkpt lat="47.515198" lon="2.0957012">
        <ele>150.0</ele>
        <time>2022-05-19T08:16:50Z</time>
      </trkpt>
      <trkpt lat="47.515186" lon="2.095733">
        <ele>150.0</ele>
        <time>2022-05-19T08:16:52Z</time>
      </trkpt>
      <trkpt lat="47.515182" lon="2.0957508">
        <ele>150.0</ele>
        <time>2022-05-19T08:16:53Z</time>
      </trkpt>
      <trkpt lat="47.515182" lon="2.0957508">
        <ele>150.0</ele>
        <time>2022-05-19T08:16:53Z</time>
      </trkpt>
      <trkpt lat="47.51518" lon="2.0957649">
        <ele>150.0</ele>
        <time>2022-05-19T08:16:54Z</time>
      </trkpt>
      <trkpt lat="47.515175" lon="2.095777">
        <ele>150.0</ele>
        <time>2022-05-19T08:16:55Z</time>
      </trkpt>
      <trkpt lat="47.51517" lon="2.095781">
        <ele>150.0</ele>
        <time>2022-05-19T08:16:57Z</time>
      </trkpt>
      <trkpt lat="47.51517" lon="2.095781">
        <ele>150.0</ele>
        <time>2022-05-19T08:16:57Z</time>
      </trkpt>
      <trkpt lat="47.515152" lon="2.0958092">
        <ele>150.0</ele>
        <time>2022-05-19T08:16:59Z</time>
      </trkpt>
      <trkpt lat="47.515152" lon="2.0958092">
        <ele>150.0</ele>
        <time>2022-05-19T08:16:59Z</time>
      </trkpt>
      <trkpt lat="47.515137" lon="2.0958302">
        <ele>150.0</ele>
        <time>2022-05-19T08:17:00Z</time>
      </trkpt>
      <trkpt lat="47.515125" lon="2.0958426">
        <ele>150.0</ele>
        <time>2022-05-19T08:17:01Z</time>
      </trkpt>
      <trkpt lat="47.51511" lon="2.0958533">
        <ele>150.0</ele>
        <time>2022-05-19T08:17:02Z</time>
      </trkpt>
      <trkpt lat="47.515102" lon="2.0958705">
        <ele>150.0</ele>
        <time>2022-05-19T08:17:04Z</time>
      </trkpt>
      <trkpt lat="47.515102" lon="2.0958705">
        <ele>150.0</ele>
        <time>2022-05-19T08:17:04Z</time>
      </trkpt>
      <trkpt lat="47.515102" lon="2.0958705">
        <ele>150.0</ele>
        <time>2022-05-19T08:17:05Z</time>
      </trkpt>
      <trkpt lat="47.515102" lon="2.0958705">
        <ele>150.0</ele>
        <time>2022-05-19T08:17:06Z</time>
      </trkpt>
      <trkpt lat="47.51507" lon="2.0958908">
        <ele>149.0</ele>
        <time>2022-05-19T08:17:07Z</time>
      </trkpt>
      <trkpt lat="47.51506" lon="2.095907">
        <ele>149.0</ele>
        <time>2022-05-19T08:17:08Z</time>
      </trkpt>
      <trkpt lat="47.515053" lon="2.0959198">
        <ele>149.0</ele>
        <time>2022-05-19T08:17:09Z</time>
      </trkpt>
      <trkpt lat="47.51503" lon="2.0959408">
        <ele>149.0</ele>
        <time>2022-05-19T08:17:11Z</time>
      </trkpt>
      <trkpt lat="47.51503" lon="2.0959408">
        <ele>149.0</ele>
        <time>2022-05-19T08:17:11Z</time>
      </trkpt>
      <trkpt lat="47.515003" lon="2.0959628">
        <ele>148.0</ele>
        <time>2022-05-19T08:17:13Z</time>
      </trkpt>
      <trkpt lat="47.515003" lon="2.0959628">
        <ele>148.0</ele>
        <time>2022-05-19T08:17:13Z</time>
      </trkpt>
      <trkpt lat="47.514977" lon="2.0959935">
        <ele>149.0</ele>
        <time>2022-05-19T08:17:15Z</time>
      </trkpt>
      <trkpt lat="47.514977" lon="2.0959935">
        <ele>149.0</ele>
        <time>2022-05-19T08:17:15Z</time>
      </trkpt>
      <trkpt lat="47.514957" lon="2.096021">
        <ele>149.0</ele>
        <time>2022-05-19T08:17:17Z</time>
      </trkpt>
      <trkpt lat="47.514957" lon="2.096021">
        <ele>149.0</ele>
        <time>2022-05-19T08:17:17Z</time>
      </trkpt>
      <trkpt lat="47.51495" lon="2.0960343">
        <ele>149.0</ele>
        <time>2022-05-19T08:17:18Z</time>
      </trkpt>
      <trkpt lat="47.51494" lon="2.096055">
        <ele>149.0</ele>
        <time>2022-05-19T08:17:19Z</time>
      </trkpt>
      <trkpt lat="47.514923" lon="2.096078">
        <ele>149.0</ele>
        <time>2022-05-19T08:17:20Z</time>
      </trkpt>
      <trkpt lat="47.514904" lon="2.0960953">
        <ele>149.0</ele>
        <time>2022-05-19T08:17:21Z</time>
      </trkpt>
      <trkpt lat="47.51488" lon="2.096112">
        <ele>149.0</ele>
        <time>2022-05-19T08:17:23Z</time>
      </trkpt>
      <trkpt lat="47.51488" lon="2.096112">
        <ele>149.0</ele>
        <time>2022-05-19T08:17:23Z</time>
      </trkpt>
      <trkpt lat="47.514874" lon="2.0961237">
        <ele>149.0</ele>
        <time>2022-05-19T08:17:24Z</time>
      </trkpt>
      <trkpt lat="47.51486" lon="2.0961347">
        <ele>149.0</ele>
        <time>2022-05-19T08:17:25Z</time>
      </trkpt>
      <trkpt lat="47.51486" lon="2.0961504">
        <ele>149.0</ele>
        <time>2022-05-19T08:17:26Z</time>
      </trkpt>
      <trkpt lat="47.51485" lon="2.0961587">
        <ele>149.0</ele>
        <time>2022-05-19T08:17:27Z</time>
      </trkpt>
      <trkpt lat="47.514847" lon="2.0961688">
        <ele>149.0</ele>
        <time>2022-05-19T08:17:28Z</time>
      </trkpt>
      <trkpt lat="47.514847" lon="2.0961688">
        <ele>149.0</ele>
        <time>2022-05-19T08:17:29Z</time>
      </trkpt>
      <trkpt lat="47.514835" lon="2.0961998">
        <ele>149.0</ele>
        <time>2022-05-19T08:17:30Z</time>
      </trkpt>
      <trkpt lat="47.514824" lon="2.09622">
        <ele>149.0</ele>
        <time>2022-05-19T08:17:31Z</time>
      </trkpt>
      <trkpt lat="47.514812" lon="2.0962348">
        <ele>149.0</ele>
        <time>2022-05-19T08:17:32Z</time>
      </trkpt>
      <trkpt lat="47.5148" lon="2.09624">
        <ele>149.0</ele>
        <time>2022-05-19T08:17:33Z</time>
      </trkpt>
      <trkpt lat="47.51479" lon="2.0962439">
        <ele>149.0</ele>
        <time>2022-05-19T08:17:34Z</time>
      </trkpt>
      <trkpt lat="47.514782" lon="2.0962534">
        <ele>149.0</ele>
        <time>2022-05-19T08:17:35Z</time>
      </trkpt>
      <trkpt lat="47.514774" lon="2.096261">
        <ele>150.0</ele>
        <time>2022-05-19T08:17:36Z</time>
      </trkpt>
      <trkpt lat="47.514774" lon="2.096261">
        <ele>150.0</ele>
        <time>2022-05-19T08:17:37Z</time>
      </trkpt>
      <trkpt lat="47.514774" lon="2.096261">
        <ele>150.0</ele>
        <time>2022-05-19T08:17:38Z</time>
      </trkpt>
      <trkpt lat="47.514755" lon="2.0963018">
        <ele>149.0</ele>
        <time>2022-05-19T08:17:39Z</time>
      </trkpt>
      <trkpt lat="47.514748" lon="2.0963163">
        <ele>149.0</ele>
        <time>2022-05-19T08:17:40Z</time>
      </trkpt>
      <trkpt lat="47.514736" lon="2.0963237">
        <ele>149.0</ele>
        <time>2022-05-19T08:17:41Z</time>
      </trkpt>
      <trkpt lat="47.514725" lon="2.096334">
        <ele>148.0</ele>
        <time>2022-05-19T08:17:42Z</time>
      </trkpt>
      <trkpt lat="47.514713" lon="2.0963383">
        <ele>148.0</ele>
        <time>2022-05-19T08:17:43Z</time>
      </trkpt>
      <trkpt lat="47.5147" lon="2.0963454">
        <ele>148.0</ele>
        <time>2022-05-19T08:17:44Z</time>
      </trkpt>
      <trkpt lat="47.514694" lon="2.0963576">
        <ele>149.0</ele>
        <time>2022-05-19T08:17:45Z</time>
      </trkpt>
      <trkpt lat="47.514687" lon="2.0963724">
        <ele>148.0</ele>
        <time>2022-05-19T08:17:46Z</time>
      </trkpt>
      <trkpt lat="47.514683" lon="2.096381">
        <ele>148.0</ele>
        <time>2022-05-19T08:17:47Z</time>
      </trkpt>
      <trkpt lat="47.51468" lon="2.0963855">
        <ele>148.0</ele>
        <time>2022-05-19T08:17:48Z</time>
      </trkpt>
      <trkpt lat="47.51467" lon="2.096393">
        <ele>148.0</ele>
        <time>2022-05-19T08:17:49Z</time>
      </trkpt>
      <trkpt lat="47.514652" lon="2.0964017">
        <ele>148.0</ele>
        <time>2022-05-19T08:17:50Z</time>
      </trkpt>
      <trkpt lat="47.51464" lon="2.0964086">
        <ele>148.0</ele>
        <time>2022-05-19T08:17:51Z</time>
      </trkpt>
      <trkpt lat="47.514626" lon="2.0964153">
        <ele>148.0</ele>
        <time>2022-05-19T08:17:52Z</time>
      </trkpt>
      <trkpt lat="47.514606" lon="2.096427">
        <ele>148.0</ele>
        <time>2022-05-19T08:17:53Z</time>
      </trkpt>
      <trkpt lat="47.51459" lon="2.096434">
        <ele>148.0</ele>
        <time>2022-05-19T08:17:54Z</time>
      </trkpt>
      <trkpt lat="47.51458" lon="2.0964434">
        <ele>148.0</ele>
        <time>2022-05-19T08:17:55Z</time>
      </trkpt>
      <trkpt lat="47.51457" lon="2.0964506">
        <ele>148.0</ele>
        <time>2022-05-19T08:17:56Z</time>
      </trkpt>
      <trkpt lat="47.514557" lon="2.096453">
        <ele>148.0</ele>
        <time>2022-05-19T08:17:57Z</time>
      </trkpt>
      <trkpt lat="47.51454" lon="2.0964627">
        <ele>148.0</ele>
        <time>2022-05-19T08:17:58Z</time>
      </trkpt>
      <trkpt lat="47.51453" lon="2.0964673">
        <ele>148.0</ele>
        <time>2022-05-19T08:17:59Z</time>
      </trkpt>
      <trkpt lat="47.51451" lon="2.0964785">
        <ele>148.0</ele>
        <time>2022-05-19T08:18:00Z</time>
      </trkpt>
      <trkpt lat="47.5145" lon="2.0964832">
        <ele>148.0</ele>
        <time>2022-05-19T08:18:01Z</time>
      </trkpt>
      <trkpt lat="47.51449" lon="2.096488">
        <ele>148.0</ele>
        <time>2022-05-19T08:18:02Z</time>
      </trkpt>
      <trkpt lat="47.514477" lon="2.0964925">
        <ele>148.0</ele>
        <time>2022-05-19T08:18:03Z</time>
      </trkpt>
      <trkpt lat="47.514458" lon="2.0964944">
        <ele>148.0</ele>
        <time>2022-05-19T08:18:04Z</time>
      </trkpt>
      <trkpt lat="47.51444" lon="2.096494">
        <ele>148.0</ele>
        <time>2022-05-19T08:18:05Z</time>
      </trkpt>
      <trkpt lat="47.51442" lon="2.0964923">
        <ele>148.0</ele>
        <time>2022-05-19T08:18:06Z</time>
      </trkpt>
      <trkpt lat="47.51441" lon="2.0964952">
        <ele>148.0</ele>
        <time>2022-05-19T08:18:07Z</time>
      </trkpt>
      <trkpt lat="47.514397" lon="2.096497">
        <ele>148.0</ele>
        <time>2022-05-19T08:18:08Z</time>
      </trkpt>
      <trkpt lat="47.51439" lon="2.0964954">
        <ele>148.0</ele>
        <time>2022-05-19T08:18:09Z</time>
      </trkpt>
      <trkpt lat="47.514378" lon="2.0964956">
        <ele>148.0</ele>
        <time>2022-05-19T08:18:10Z</time>
      </trkpt>
      <trkpt lat="47.514362" lon="2.0964987">
        <ele>149.0</ele>
        <time>2022-05-19T08:18:11Z</time>
      </trkpt>
      <trkpt lat="47.51436" lon="2.0964923">
        <ele>149.0</ele>
        <time>2022-05-19T08:18:12Z</time>
      </trkpt>
      <trkpt lat="47.51436" lon="2.0964892">
        <ele>149.0</ele>
        <time>2022-05-19T08:18:13Z</time>
      </trkpt>
      <trkpt lat="47.514355" lon="2.0964797">
        <ele>149.0</ele>
        <time>2022-05-19T08:18:14Z</time>
      </trkpt>
      <trkpt lat="47.514355" lon="2.0964744">
        <ele>150.0</ele>
        <time>2022-05-19T08:18:15Z</time>
      </trkpt>
      <trkpt lat="47.514347" lon="2.0964737">
        <ele>150.0</ele>
        <time>2022-05-19T08:18:16Z</time>
      </trkpt>
      <trkpt lat="47.514343" lon="2.0964768">
        <ele>151.0</ele>
        <time>2022-05-19T08:18:17Z</time>
      </trkpt>
      <trkpt lat="47.514336" lon="2.0964801">
        <ele>152.0</ele>
        <time>2022-05-19T08:18:18Z</time>
      </trkpt>
      <trkpt lat="47.51433" lon="2.0964794">
        <ele>152.0</ele>
        <time>2022-05-19T08:18:19Z</time>
      </trkpt>
      <trkpt lat="47.514328" lon="2.096475">
        <ele>153.0</ele>
        <time>2022-05-19T08:18:20Z</time>
      </trkpt>
      <trkpt lat="47.514324" lon="2.0964704">
        <ele>153.0</ele>
        <time>2022-05-19T08:18:21Z</time>
      </trkpt>
      <trkpt lat="47.51432" lon="2.0964746">
        <ele>154.0</ele>
        <time>2022-05-19T08:18:22Z</time>
      </trkpt>
      <trkpt lat="47.514313" lon="2.0964718">
        <ele>155.0</ele>
        <time>2022-05-19T08:18:23Z</time>
      </trkpt>
      <trkpt lat="47.5143" lon="2.0964723">
        <ele>155.0</ele>
        <time>2022-05-19T08:18:24Z</time>
      </trkpt>
      <trkpt lat="47.514297" lon="2.0964646">
        <ele>156.0</ele>
        <time>2022-05-19T08:18:25Z</time>
      </trkpt>
      <trkpt lat="47.51429" lon="2.0964549">
        <ele>156.0</ele>
        <time>2022-05-19T08:18:26Z</time>
      </trkpt>
      <trkpt lat="47.514282" lon="2.096448">
        <ele>157.0</ele>
        <time>2022-05-19T08:18:27Z</time>
      </trkpt>
      <trkpt lat="47.514282" lon="2.0964403">
        <ele>157.0</ele>
        <time>2022-05-19T08:18:28Z</time>
      </trkpt>
      <trkpt lat="47.514275" lon="2.0964327">
        <ele>158.0</ele>
        <time>2022-05-19T08:18:29Z</time>
      </trkpt>
      <trkpt lat="47.514267" lon="2.0964262">
        <ele>159.0</ele>
        <time>2022-05-19T08:18:30Z</time>
      </trkpt>
      <trkpt lat="47.514263" lon="2.0964131">
        <ele>159.0</ele>
        <time>2022-05-19T08:18:31Z</time>
      </trkpt>
      <trkpt lat="47.514256" lon="2.0964003">
        <ele>160.0</ele>
        <time>2022-05-19T08:18:32Z</time>
      </trkpt>
      <trkpt lat="47.514248" lon="2.0963902">
        <ele>160.0</ele>
        <time>2022-05-19T08:18:33Z</time>
      </trkpt>
      <trkpt lat="47.514236" lon="2.096378">
        <ele>161.0</ele>
        <time>2022-05-19T08:18:34Z</time>
      </trkpt>
      <trkpt lat="47.51422" lon="2.096366">
        <ele>161.0</ele>
        <time>2022-05-19T08:18:35Z</time>
      </trkpt>
      <trkpt lat="47.51421" lon="2.0963635">
        <ele>161.0</ele>
        <time>2022-05-19T08:18:36Z</time>
      </trkpt>
      <trkpt lat="47.514217" lon="2.096354">
        <ele>161.0</ele>
        <time>2022-05-19T08:18:37Z</time>
      </trkpt>
      <trkpt lat="47.514217" lon="2.0963445">
        <ele>161.0</ele>
        <time>2022-05-19T08:18:38Z</time>
      </trkpt>
      <trkpt lat="47.514217" lon="2.0963445">
        <ele>161.0</ele>
        <time>2022-05-19T08:18:38Z</time>
      </trkpt>
      <trkpt lat="47.514202" lon="2.0963213">
        <ele>161.0</ele>
        <time>2022-05-19T08:18:40Z</time>
      </trkpt>
      <trkpt lat="47.51419" lon="2.096315">
        <ele>161.0</ele>
        <time>2022-05-19T08:18:41Z</time>
      </trkpt>
      <trkpt lat="47.51419" lon="2.096315">
        <ele>161.0</ele>
        <time>2022-05-19T08:18:41Z</time>
      </trkpt>
      <trkpt lat="47.514187" lon="2.0962994">
        <ele>161.0</ele>
        <time>2022-05-19T08:18:44Z</time>
      </trkpt>
      <trkpt lat="47.51418" lon="2.0962937">
        <ele>161.0</ele>
        <time>2022-05-19T08:18:45Z</time>
      </trkpt>
      <trkpt lat="47.514175" lon="2.0962832">
        <ele>160.0</ele>
        <time>2022-05-19T08:18:46Z</time>
      </trkpt>
      <trkpt lat="47.514164" lon="2.0962756">
        <ele>160.0</ele>
        <time>2022-05-19T08:18:47Z</time>
      </trkpt>
      <trkpt lat="47.514153" lon="2.09627">
        <ele>161.0</ele>
        <time>2022-05-19T08:18:48Z</time>
      </trkpt>
      <trkpt lat="47.51415" lon="2.0962634">
        <ele>161.0</ele>
        <time>2022-05-19T08:18:49Z</time>
      </trkpt>
      <trkpt lat="47.51414" lon="2.096253">
        <ele>160.0</ele>
        <time>2022-05-19T08:18:50Z</time>
      </trkpt>
      <trkpt lat="47.514133" lon="2.0962422">
        <ele>160.0</ele>
        <time>2022-05-19T08:18:51Z</time>
      </trkpt>
      <trkpt lat="47.51413" lon="2.0962307">
        <ele>160.0</ele>
        <time>2022-05-19T08:18:52Z</time>
      </trkpt>
      <trkpt lat="47.51413" lon="2.096221">
        <ele>160.0</ele>
        <time>2022-05-19T08:18:53Z</time>
      </trkpt>
      <trkpt lat="47.51412" lon="2.0962083">
        <ele>160.0</ele>
        <time>2022-05-19T08:18:54Z</time>
      </trkpt>
      <trkpt lat="47.514107" lon="2.0961988">
        <ele>159.0</ele>
        <time>2022-05-19T08:18:55Z</time>
      </trkpt>
      <trkpt lat="47.514103" lon="2.0961838">
        <ele>159.0</ele>
        <time>2022-05-19T08:18:56Z</time>
      </trkpt>
      <trkpt lat="47.5141" lon="2.0961447">
        <ele>159.0</ele>
        <time>2022-05-19T08:18:58Z</time>
      </trkpt>
      <trkpt lat="47.5141" lon="2.0961447">
        <ele>159.0</ele>
        <time>2022-05-19T08:18:58Z</time>
      </trkpt>
      <trkpt lat="47.514095" lon="2.0961356">
        <ele>159.0</ele>
        <time>2022-05-19T08:18:59Z</time>
      </trkpt>
      <trkpt lat="47.514095" lon="2.0961175">
        <ele>158.0</ele>
        <time>2022-05-19T08:19:01Z</time>
      </trkpt>
      <trkpt lat="47.514095" lon="2.0961175">
        <ele>158.0</ele>
        <time>2022-05-19T08:19:02Z</time>
      </trkpt>
      <trkpt lat="47.514095" lon="2.0961175">
        <ele>158.0</ele>
        <time>2022-05-19T08:19:02Z</time>
      </trkpt>
      <trkpt lat="47.514084" lon="2.096081">
        <ele>157.0</ele>
        <time>2022-05-19T08:19:04Z</time>
      </trkpt>
      <trkpt lat="47.514084" lon="2.0960617">
        <ele>157.0</ele>
        <time>2022-05-19T08:19:05Z</time>
      </trkpt>
      <trkpt lat="47.514084" lon="2.0960379">
        <ele>157.0</ele>
        <time>2022-05-19T08:19:06Z</time>
      </trkpt>
      <trkpt lat="47.51408" lon="2.0960224">
        <ele>156.0</ele>
        <time>2022-05-19T08:19:07Z</time>
      </trkpt>
      <trkpt lat="47.514072" lon="2.096007">
        <ele>157.0</ele>
        <time>2022-05-19T08:19:08Z</time>
      </trkpt>
      <trkpt lat="47.514072" lon="2.0959883">
        <ele>157.0</ele>
        <time>2022-05-19T08:19:09Z</time>
      </trkpt>
      <trkpt lat="47.514072" lon="2.095968">
        <ele>157.0</ele>
        <time>2022-05-19T08:19:10Z</time>
      </trkpt>
      <trkpt lat="47.51407" lon="2.095952">
        <ele>158.0</ele>
        <time>2022-05-19T08:19:11Z</time>
      </trkpt>
      <trkpt lat="47.514072" lon="2.0959327">
        <ele>158.0</ele>
        <time>2022-05-19T08:19:12Z</time>
      </trkpt>
      <trkpt lat="47.514065" lon="2.0959222">
        <ele>158.0</ele>
        <time>2022-05-19T08:19:13Z</time>
      </trkpt>
      <trkpt lat="47.51406" lon="2.0959144">
        <ele>159.0</ele>
        <time>2022-05-19T08:19:14Z</time>
      </trkpt>
      <trkpt lat="47.514057" lon="2.0958984">
        <ele>159.0</ele>
        <time>2022-05-19T08:19:15Z</time>
      </trkpt>
      <trkpt lat="47.514053" lon="2.0958865">
        <ele>158.0</ele>
        <time>2022-05-19T08:19:16Z</time>
      </trkpt>
      <trkpt lat="47.51404" lon="2.095873">
        <ele>159.0</ele>
        <time>2022-05-19T08:19:17Z</time>
      </trkpt>
      <trkpt lat="47.51403" lon="2.0958633">
        <ele>159.0</ele>
        <time>2022-05-19T08:19:18Z</time>
      </trkpt>
      <trkpt lat="47.514027" lon="2.095843">
        <ele>159.0</ele>
        <time>2022-05-19T08:19:19Z</time>
      </trkpt>
      <trkpt lat="47.514023" lon="2.0958223">
        <ele>159.0</ele>
        <time>2022-05-19T08:19:20Z</time>
      </trkpt>
      <trkpt lat="47.51402" lon="2.0958073">
        <ele>159.0</ele>
        <time>2022-05-19T08:19:21Z</time>
      </trkpt>
      <trkpt lat="47.514008" lon="2.0957851">
        <ele>159.0</ele>
        <time>2022-05-19T08:19:22Z</time>
      </trkpt>
      <trkpt lat="47.514" lon="2.0957658">
        <ele>160.0</ele>
        <time>2022-05-19T08:19:23Z</time>
      </trkpt>
      <trkpt lat="47.513996" lon="2.0957463">
        <ele>161.0</ele>
        <time>2022-05-19T08:19:25Z</time>
      </trkpt>
      <trkpt lat="47.513996" lon="2.0957305">
        <ele>161.0</ele>
        <time>2022-05-19T08:19:26Z</time>
      </trkpt>
      <trkpt lat="47.51398" lon="2.0957208">
        <ele>161.0</ele>
        <time>2022-05-19T08:19:27Z</time>
      </trkpt>
      <trkpt lat="47.513973" lon="2.0957122">
        <ele>161.0</ele>
        <time>2022-05-19T08:19:28Z</time>
      </trkpt>
      <trkpt lat="47.513958" lon="2.0956986">
        <ele>161.0</ele>
        <time>2022-05-19T08:19:29Z</time>
      </trkpt>
      <trkpt lat="47.513943" lon="2.0956805">
        <ele>160.0</ele>
        <time>2022-05-19T08:19:30Z</time>
      </trkpt>
      <trkpt lat="47.51393" lon="2.0956635">
        <ele>160.0</ele>
        <time>2022-05-19T08:19:31Z</time>
      </trkpt>
      <trkpt lat="47.513924" lon="2.095647">
        <ele>160.0</ele>
        <time>2022-05-19T08:19:32Z</time>
      </trkpt>
      <trkpt lat="47.513916" lon="2.0956311">
        <ele>160.0</ele>
        <time>2022-05-19T08:19:33Z</time>
      </trkpt>
      <trkpt lat="47.51391" lon="2.0956173">
        <ele>159.0</ele>
        <time>2022-05-19T08:19:34Z</time>
      </trkpt>
      <trkpt lat="47.51391" lon="2.0955935">
        <ele>159.0</ele>
        <time>2022-05-19T08:19:35Z</time>
      </trkpt>
      <trkpt lat="47.51391" lon="2.0955849">
        <ele>159.0</ele>
        <time>2022-05-19T08:19:36Z</time>
      </trkpt>
      <trkpt lat="47.51391" lon="2.095572">
        <ele>159.0</ele>
        <time>2022-05-19T08:19:37Z</time>
      </trkpt>
      <trkpt lat="47.5139" lon="2.0955594">
        <ele>159.0</ele>
        <time>2022-05-19T08:19:38Z</time>
      </trkpt>
      <trkpt lat="47.513897" lon="2.095545">
        <ele>159.0</ele>
        <time>2022-05-19T08:19:39Z</time>
      </trkpt>
      <trkpt lat="47.513893" lon="2.0955222">
        <ele>158.0</ele>
        <time>2022-05-19T08:19:40Z</time>
      </trkpt>
      <trkpt lat="47.513893" lon="2.0954978">
        <ele>158.0</ele>
        <time>2022-05-19T08:19:41Z</time>
      </trkpt>
      <trkpt lat="47.513897" lon="2.0954854">
        <ele>158.0</ele>
        <time>2022-05-19T08:19:42Z</time>
      </trkpt>
      <trkpt lat="47.51389" lon="2.095475">
        <ele>158.0</ele>
        <time>2022-05-19T08:19:43Z</time>
      </trkpt>
      <trkpt lat="47.51388" lon="2.095458">
        <ele>158.0</ele>
        <time>2022-05-19T08:19:44Z</time>
      </trkpt>
      <trkpt lat="47.513874" lon="2.0954428">
        <ele>157.0</ele>
        <time>2022-05-19T08:19:45Z</time>
      </trkpt>
      <trkpt lat="47.51387" lon="2.095427">
        <ele>157.0</ele>
        <time>2022-05-19T08:19:46Z</time>
      </trkpt>
      <trkpt lat="47.51387" lon="2.0954125">
        <ele>157.0</ele>
        <time>2022-05-19T08:19:47Z</time>
      </trkpt>
      <trkpt lat="47.513866" lon="2.0953996">
        <ele>156.0</ele>
        <time>2022-05-19T08:19:48Z</time>
      </trkpt>
      <trkpt lat="47.51387" lon="2.0953856">
        <ele>156.0</ele>
        <time>2022-05-19T08:19:49Z</time>
      </trkpt>
      <trkpt lat="47.51387" lon="2.095371">
        <ele>156.0</ele>
        <time>2022-05-19T08:19:50Z</time>
      </trkpt>
      <trkpt lat="47.51387" lon="2.0953553">
        <ele>157.0</ele>
        <time>2022-05-19T08:19:51Z</time>
      </trkpt>
      <trkpt lat="47.513874" lon="2.0953286">
        <ele>157.0</ele>
        <time>2022-05-19T08:19:52Z</time>
      </trkpt>
      <trkpt lat="47.513878" lon="2.0953052">
        <ele>156.0</ele>
        <time>2022-05-19T08:19:53Z</time>
      </trkpt>
      <trkpt lat="47.513874" lon="2.095292">
        <ele>156.0</ele>
        <time>2022-05-19T08:19:54Z</time>
      </trkpt>
      <trkpt lat="47.51387" lon="2.0952792">
        <ele>156.0</ele>
        <time>2022-05-19T08:19:55Z</time>
      </trkpt>
      <trkpt lat="47.51386" lon="2.0952697">
        <ele>156.0</ele>
        <time>2022-05-19T08:19:56Z</time>
      </trkpt>
      <trkpt lat="47.51385" lon="2.0952573">
        <ele>156.0</ele>
        <time>2022-05-19T08:19:57Z</time>
      </trkpt>
      <trkpt lat="47.513844" lon="2.0952392">
        <ele>156.0</ele>
        <time>2022-05-19T08:19:58Z</time>
      </trkpt>
      <trkpt lat="47.513844" lon="2.0952158">
        <ele>156.0</ele>
        <time>2022-05-19T08:19:59Z</time>
      </trkpt>
      <trkpt lat="47.51384" lon="2.095202">
        <ele>156.0</ele>
        <time>2022-05-19T08:20:00Z</time>
      </trkpt>
      <trkpt lat="47.51383" lon="2.0951874">
        <ele>157.0</ele>
        <time>2022-05-19T08:20:01Z</time>
      </trkpt>
      <trkpt lat="47.51383" lon="2.0951684">
        <ele>157.0</ele>
        <time>2022-05-19T08:20:02Z</time>
      </trkpt>
      <trkpt lat="47.51382" lon="2.09515">
        <ele>157.0</ele>
        <time>2022-05-19T08:20:03Z</time>
      </trkpt>
      <trkpt lat="47.513813" lon="2.0951352">
        <ele>158.0</ele>
        <time>2022-05-19T08:20:04Z</time>
      </trkpt>
      <trkpt lat="47.51381" lon="2.0951169">
        <ele>158.0</ele>
        <time>2022-05-19T08:20:05Z</time>
      </trkpt>
      <trkpt lat="47.5138" lon="2.0951085">
        <ele>158.0</ele>
        <time>2022-05-19T08:20:06Z</time>
      </trkpt>
      <trkpt lat="47.513794" lon="2.095098">
        <ele>158.0</ele>
        <time>2022-05-19T08:20:07Z</time>
      </trkpt>
      <trkpt lat="47.513794" lon="2.095098">
        <ele>158.0</ele>
        <time>2022-05-19T08:20:08Z</time>
      </trkpt>
      <trkpt lat="47.513794" lon="2.095098">
        <ele>158.0</ele>
        <time>2022-05-19T08:20:09Z</time>
      </trkpt>
      <trkpt lat="47.51378" lon="2.0950708">
        <ele>160.0</ele>
        <time>2022-05-19T08:20:10Z</time>
      </trkpt>
      <trkpt lat="47.513775" lon="2.0950587">
        <ele>160.0</ele>
        <time>2022-05-19T08:20:11Z</time>
      </trkpt>
      <trkpt lat="47.51377" lon="2.095044">
        <ele>160.0</ele>
        <time>2022-05-19T08:20:12Z</time>
      </trkpt>
      <trkpt lat="47.51377" lon="2.0950284">
        <ele>160.0</ele>
        <time>2022-05-19T08:20:13Z</time>
      </trkpt>
      <trkpt lat="47.513775" lon="2.095009">
        <ele>160.0</ele>
        <time>2022-05-19T08:20:14Z</time>
      </trkpt>
      <trkpt lat="47.513775" lon="2.0949867">
        <ele>159.0</ele>
        <time>2022-05-19T08:20:15Z</time>
      </trkpt>
      <trkpt lat="47.513775" lon="2.0949593">
        <ele>159.0</ele>
        <time>2022-05-19T08:20:16Z</time>
      </trkpt>
      <trkpt lat="47.513775" lon="2.0949333">
        <ele>160.0</ele>
        <time>2022-05-19T08:20:17Z</time>
      </trkpt>
      <trkpt lat="47.513763" lon="2.0949204">
        <ele>160.0</ele>
        <time>2022-05-19T08:20:18Z</time>
      </trkpt>
      <trkpt lat="47.513752" lon="2.0949104">
        <ele>161.0</ele>
        <time>2022-05-19T08:20:19Z</time>
      </trkpt>
      <trkpt lat="47.513737" lon="2.0948915">
        <ele>161.0</ele>
        <time>2022-05-19T08:20:20Z</time>
      </trkpt>
      <trkpt lat="47.513733" lon="2.094873">
        <ele>161.0</ele>
        <time>2022-05-19T08:20:21Z</time>
      </trkpt>
      <trkpt lat="47.51373" lon="2.0948524">
        <ele>161.0</ele>
        <time>2022-05-19T08:20:22Z</time>
      </trkpt>
      <trkpt lat="47.513725" lon="2.0948324">
        <ele>161.0</ele>
        <time>2022-05-19T08:20:23Z</time>
      </trkpt>
      <trkpt lat="47.513725" lon="2.0948129">
        <ele>161.0</ele>
        <time>2022-05-19T08:20:24Z</time>
      </trkpt>
      <trkpt lat="47.513718" lon="2.094794">
        <ele>161.0</ele>
        <time>2022-05-19T08:20:25Z</time>
      </trkpt>
      <trkpt lat="47.51372" lon="2.0947762">
        <ele>161.0</ele>
        <time>2022-05-19T08:20:26Z</time>
      </trkpt>
      <trkpt lat="47.513718" lon="2.0947526">
        <ele>162.0</ele>
        <time>2022-05-19T08:20:27Z</time>
      </trkpt>
      <trkpt lat="47.513714" lon="2.0947335">
        <ele>162.0</ele>
        <time>2022-05-19T08:20:28Z</time>
      </trkpt>
      <trkpt lat="47.51371" lon="2.0947165">
        <ele>162.0</ele>
        <time>2022-05-19T08:20:29Z</time>
      </trkpt>
      <trkpt lat="47.513702" lon="2.0947046">
        <ele>162.0</ele>
        <time>2022-05-19T08:20:30Z</time>
      </trkpt>
      <trkpt lat="47.513702" lon="2.0947046">
        <ele>162.0</ele>
        <time>2022-05-19T08:20:31Z</time>
      </trkpt>
      <trkpt lat="47.513702" lon="2.0947046">
        <ele>162.0</ele>
        <time>2022-05-19T08:20:32Z</time>
      </trkpt>
      <trkpt lat="47.51369" lon="2.0946624">
        <ele>162.0</ele>
        <time>2022-05-19T08:20:33Z</time>
      </trkpt>
      <trkpt lat="47.513687" lon="2.0946522">
        <ele>162.0</ele>
        <time>2022-05-19T08:20:34Z</time>
      </trkpt>
      <trkpt lat="47.513683" lon="2.0946345">
        <ele>163.0</ele>
        <time>2022-05-19T08:20:35Z</time>
      </trkpt>
      <trkpt lat="47.51368" lon="2.0946167">
        <ele>163.0</ele>
        <time>2022-05-19T08:20:36Z</time>
      </trkpt>
      <trkpt lat="47.513664" lon="2.094598">
        <ele>163.0</ele>
        <time>2022-05-19T08:20:37Z</time>
      </trkpt>
      <trkpt lat="47.51365" lon="2.094581">
        <ele>163.0</ele>
        <time>2022-05-19T08:20:38Z</time>
      </trkpt>
      <trkpt lat="47.51364" lon="2.0945632">
        <ele>163.0</ele>
        <time>2022-05-19T08:20:39Z</time>
      </trkpt>
      <trkpt lat="47.513638" lon="2.0945451">
        <ele>163.0</ele>
        <time>2022-05-19T08:20:40Z</time>
      </trkpt>
      <trkpt lat="47.513626" lon="2.0945237">
        <ele>163.0</ele>
        <time>2022-05-19T08:20:41Z</time>
      </trkpt>
      <trkpt lat="47.513622" lon="2.0945027">
        <ele>163.0</ele>
        <time>2022-05-19T08:20:42Z</time>
      </trkpt>
      <trkpt lat="47.51362" lon="2.0944843">
        <ele>163.0</ele>
        <time>2022-05-19T08:20:43Z</time>
      </trkpt>
      <trkpt lat="47.51361" lon="2.0944686">
        <ele>163.0</ele>
        <time>2022-05-19T08:20:44Z</time>
      </trkpt>
      <trkpt lat="47.513603" lon="2.0944524">
        <ele>163.0</ele>
        <time>2022-05-19T08:20:45Z</time>
      </trkpt>
      <trkpt lat="47.51359" lon="2.0944364">
        <ele>163.0</ele>
        <time>2022-05-19T08:20:46Z</time>
      </trkpt>
      <trkpt lat="47.513588" lon="2.0944197">
        <ele>163.0</ele>
        <time>2022-05-19T08:20:47Z</time>
      </trkpt>
      <trkpt lat="47.51358" lon="2.0944004">
        <ele>163.0</ele>
        <time>2022-05-19T08:20:48Z</time>
      </trkpt>
      <trkpt lat="47.513573" lon="2.0943844">
        <ele>163.0</ele>
        <time>2022-05-19T08:20:49Z</time>
      </trkpt>
      <trkpt lat="47.51356" lon="2.0943704">
        <ele>163.0</ele>
        <time>2022-05-19T08:20:50Z</time>
      </trkpt>
      <trkpt lat="47.513546" lon="2.0943627">
        <ele>164.0</ele>
        <time>2022-05-19T08:20:51Z</time>
      </trkpt>
      <trkpt lat="47.513535" lon="2.0943534">
        <ele>164.0</ele>
        <time>2022-05-19T08:20:52Z</time>
      </trkpt>
      <trkpt lat="47.513527" lon="2.094346">
        <ele>164.0</ele>
        <time>2022-05-19T08:20:53Z</time>
      </trkpt>
      <trkpt lat="47.51352" lon="2.0943398">
        <ele>164.0</ele>
        <time>2022-05-19T08:20:54Z</time>
      </trkpt>
      <trkpt lat="47.51352" lon="2.0943286">
        <ele>164.0</ele>
        <time>2022-05-19T08:20:55Z</time>
      </trkpt>
      <trkpt lat="47.51351" lon="2.0943165">
        <ele>164.0</ele>
        <time>2022-05-19T08:20:56Z</time>
      </trkpt>
      <trkpt lat="47.513504" lon="2.094299">
        <ele>163.0</ele>
        <time>2022-05-19T08:20:57Z</time>
      </trkpt>
      <trkpt lat="47.5135" lon="2.094281">
        <ele>164.0</ele>
        <time>2022-05-19T08:20:58Z</time>
      </trkpt>
      <trkpt lat="47.513493" lon="2.0942698">
        <ele>164.0</ele>
        <time>2022-05-19T08:20:59Z</time>
      </trkpt>
      <trkpt lat="47.513493" lon="2.094251">
        <ele>164.0</ele>
        <time>2022-05-19T08:21:00Z</time>
      </trkpt>
      <trkpt lat="47.513493" lon="2.0942383">
        <ele>164.0</ele>
        <time>2022-05-19T08:21:01Z</time>
      </trkpt>
      <trkpt lat="47.51349" lon="2.0942214">
        <ele>164.0</ele>
        <time>2022-05-19T08:21:02Z</time>
      </trkpt>
      <trkpt lat="47.513485" lon="2.0942094">
        <ele>163.0</ele>
        <time>2022-05-19T08:21:03Z</time>
      </trkpt>
      <trkpt lat="47.513485" lon="2.0941918">
        <ele>164.0</ele>
        <time>2022-05-19T08:21:04Z</time>
      </trkpt>
      <trkpt lat="47.51348" lon="2.0941744">
        <ele>163.0</ele>
        <time>2022-05-19T08:21:05Z</time>
      </trkpt>
      <trkpt lat="47.51348" lon="2.0941608">
        <ele>163.0</ele>
        <time>2022-05-19T08:21:06Z</time>
      </trkpt>
      <trkpt lat="47.51348" lon="2.0941608">
        <ele>163.0</ele>
        <time>2022-05-19T08:21:07Z</time>
      </trkpt>
      <trkpt lat="47.51348" lon="2.0941608">
        <ele>163.0</ele>
        <time>2022-05-19T08:21:08Z</time>
      </trkpt>
      <trkpt lat="47.513477" lon="2.0941195">
        <ele>163.0</ele>
        <time>2022-05-19T08:21:09Z</time>
      </trkpt>
      <trkpt lat="47.513474" lon="2.0941005">
        <ele>163.0</ele>
        <time>2022-05-19T08:21:10Z</time>
      </trkpt>
      <trkpt lat="47.513466" lon="2.0940816">
        <ele>163.0</ele>
        <time>2022-05-19T08:21:11Z</time>
      </trkpt>
      <trkpt lat="47.513466" lon="2.0940578">
        <ele>163.0</ele>
        <time>2022-05-19T08:21:12Z</time>
      </trkpt>
      <trkpt lat="47.513466" lon="2.0940454">
        <ele>163.0</ele>
        <time>2022-05-19T08:21:13Z</time>
      </trkpt>
      <trkpt lat="47.513462" lon="2.094031">
        <ele>163.0</ele>
        <time>2022-05-19T08:21:14Z</time>
      </trkpt>
      <trkpt lat="47.51346" lon="2.0940192">
        <ele>162.0</ele>
        <time>2022-05-19T08:21:15Z</time>
      </trkpt>
      <trkpt lat="47.513454" lon="2.0940049">
        <ele>162.0</ele>
        <time>2022-05-19T08:21:16Z</time>
      </trkpt>
      <trkpt lat="47.513454" lon="2.0940049">
        <ele>162.0</ele>
        <time>2022-05-19T08:21:17Z</time>
      </trkpt>
      <trkpt lat="47.51344" lon="2.093979">
        <ele>162.0</ele>
        <time>2022-05-19T08:21:18Z</time>
      </trkpt>
      <trkpt lat="47.51343" lon="2.0939593">
        <ele>162.0</ele>
        <time>2022-05-19T08:21:19Z</time>
      </trkpt>
      <trkpt lat="47.513424" lon="2.093935">
        <ele>162.0</ele>
        <time>2022-05-19T08:21:20Z</time>
      </trkpt>
      <trkpt lat="47.513416" lon="2.0939164">
        <ele>161.0</ele>
        <time>2022-05-19T08:21:21Z</time>
      </trkpt>
      <trkpt lat="47.513405" lon="2.0939023">
        <ele>161.0</ele>
        <time>2022-05-19T08:21:22Z</time>
      </trkpt>
      <trkpt lat="47.513393" lon="2.093884">
        <ele>161.0</ele>
        <time>2022-05-19T08:21:23Z</time>
      </trkpt>
      <trkpt lat="47.513393" lon="2.093884">
        <ele>161.0</ele>
        <time>2022-05-19T08:21:23Z</time>
      </trkpt>
      <trkpt lat="47.51338" lon="2.093844">
        <ele>160.0</ele>
        <time>2022-05-19T08:21:25Z</time>
      </trkpt>
      <trkpt lat="47.513367" lon="2.0938241">
        <ele>160.0</ele>
        <time>2022-05-19T08:21:26Z</time>
      </trkpt>
      <trkpt lat="47.51336" lon="2.0937922">
        <ele>159.0</ele>
        <time>2022-05-19T08:21:27Z</time>
      </trkpt>
      <trkpt lat="47.513355" lon="2.0937645">
        <ele>159.0</ele>
        <time>2022-05-19T08:21:28Z</time>
      </trkpt>
      <trkpt lat="47.51335" lon="2.0937421">
        <ele>159.0</ele>
        <time>2022-05-19T08:21:29Z</time>
      </trkpt>
      <trkpt lat="47.513348" lon="2.0937247">
        <ele>159.0</ele>
        <time>2022-05-19T08:21:30Z</time>
      </trkpt>
      <trkpt lat="47.51334" lon="2.0937142">
        <ele>159.0</ele>
        <time>2022-05-19T08:21:31Z</time>
      </trkpt>
      <trkpt lat="47.513336" lon="2.0937028">
        <ele>159.0</ele>
        <time>2022-05-19T08:21:32Z</time>
      </trkpt>
      <trkpt lat="47.51333" lon="2.0936873">
        <ele>160.0</ele>
        <time>2022-05-19T08:21:33Z</time>
      </trkpt>
      <trkpt lat="47.51332" lon="2.0936701">
        <ele>160.0</ele>
        <time>2022-05-19T08:21:34Z</time>
      </trkpt>
      <trkpt lat="47.513313" lon="2.093653">
        <ele>160.0</ele>
        <time>2022-05-19T08:21:35Z</time>
      </trkpt>
      <trkpt lat="47.51331" lon="2.093634">
        <ele>161.0</ele>
        <time>2022-05-19T08:21:36Z</time>
      </trkpt>
      <trkpt lat="47.513306" lon="2.0936167">
        <ele>161.0</ele>
        <time>2022-05-19T08:21:37Z</time>
      </trkpt>
      <trkpt lat="47.5133" lon="2.0936007">
        <ele>161.0</ele>
        <time>2022-05-19T08:21:38Z</time>
      </trkpt>
      <trkpt lat="47.5133" lon="2.093586">
        <ele>161.0</ele>
        <time>2022-05-19T08:21:39Z</time>
      </trkpt>
      <trkpt lat="47.51329" lon="2.0935721">
        <ele>162.0</ele>
        <time>2022-05-19T08:21:40Z</time>
      </trkpt>
      <trkpt lat="47.513287" lon="2.0935571">
        <ele>162.0</ele>
        <time>2022-05-19T08:21:41Z</time>
      </trkpt>
      <trkpt lat="47.513287" lon="2.0935571">
        <ele>162.0</ele>
        <time>2022-05-19T08:21:41Z</time>
      </trkpt>
      <trkpt lat="47.513283" lon="2.093514">
        <ele>163.0</ele>
        <time>2022-05-19T08:21:43Z</time>
      </trkpt>
      <trkpt lat="47.513283" lon="2.093495">
        <ele>163.0</ele>
        <time>2022-05-19T08:21:44Z</time>
      </trkpt>
      <trkpt lat="47.51328" lon="2.0934837">
        <ele>163.0</ele>
        <time>2022-05-19T08:21:45Z</time>
      </trkpt>
      <trkpt lat="47.51328" lon="2.093471">
        <ele>163.0</ele>
        <time>2022-05-19T08:21:46Z</time>
      </trkpt>
      <trkpt lat="47.51328" lon="2.093471">
        <ele>163.0</ele>
        <time>2022-05-19T08:21:46Z</time>
      </trkpt>
      <trkpt lat="47.51327" lon="2.0934489">
        <ele>163.0</ele>
        <time>2022-05-19T08:21:48Z</time>
      </trkpt>
      <trkpt lat="47.51326" lon="2.0934405">
        <ele>164.0</ele>
        <time>2022-05-19T08:21:49Z</time>
      </trkpt>
      <trkpt lat="47.513252" lon="2.0934277">
        <ele>164.0</ele>
        <time>2022-05-19T08:21:50Z</time>
      </trkpt>
      <trkpt lat="47.513245" lon="2.0934117">
        <ele>165.0</ele>
        <time>2022-05-19T08:21:51Z</time>
      </trkpt>
      <trkpt lat="47.51324" lon="2.0933967">
        <ele>165.0</ele>
        <time>2022-05-19T08:21:52Z</time>
      </trkpt>
      <trkpt lat="47.513233" lon="2.093381">
        <ele>165.0</ele>
        <time>2022-05-19T08:21:53Z</time>
      </trkpt>
      <trkpt lat="47.513233" lon="2.093369">
        <ele>165.0</ele>
        <time>2022-05-19T08:21:54Z</time>
      </trkpt>
      <trkpt lat="47.513233" lon="2.093369">
        <ele>165.0</ele>
        <time>2022-05-19T08:21:55Z</time>
      </trkpt>
      <trkpt lat="47.513214" lon="2.0933282">
        <ele>166.0</ele>
        <time>2022-05-19T08:21:56Z</time>
      </trkpt>
      <trkpt lat="47.51321" lon="2.093315">
        <ele>167.0</ele>
        <time>2022-05-19T08:21:57Z</time>
      </trkpt>
      <trkpt lat="47.513206" lon="2.0932937">
        <ele>167.0</ele>
        <time>2022-05-19T08:21:58Z</time>
      </trkpt>
      <trkpt lat="47.513203" lon="2.0932784">
        <ele>167.0</ele>
        <time>2022-05-19T08:21:59Z</time>
      </trkpt>
      <trkpt lat="47.513203" lon="2.0932784">
        <ele>167.0</ele>
        <time>2022-05-19T08:21:59Z</time>
      </trkpt>
      <trkpt lat="47.5132" lon="2.093268">
        <ele>167.0</ele>
        <time>2022-05-19T08:22:00Z</time>
      </trkpt>
      <trkpt lat="47.51319" lon="2.09323">
        <ele>167.0</ele>
        <time>2022-05-19T08:22:02Z</time>
      </trkpt>
      <trkpt lat="47.51318" lon="2.0932">
        <ele>167.0</ele>
        <time>2022-05-19T08:22:04Z</time>
      </trkpt>
      <trkpt lat="47.51317" lon="2.09318">
        <ele>167.0</ele>
        <time>2022-05-19T08:22:05Z</time>
      </trkpt>
      <trkpt lat="47.51316" lon="2.0931685">
        <ele>167.0</ele>
        <time>2022-05-19T08:22:06Z</time>
      </trkpt>
      <trkpt lat="47.513153" lon="2.0931506">
        <ele>166.0</ele>
        <time>2022-05-19T08:22:07Z</time>
      </trkpt>
      <trkpt lat="47.513153" lon="2.0931308">
        <ele>166.0</ele>
        <time>2022-05-19T08:22:08Z</time>
      </trkpt>
      <trkpt lat="47.51315" lon="2.0931115">
        <ele>165.0</ele>
        <time>2022-05-19T08:22:09Z</time>
      </trkpt>
      <trkpt lat="47.513145" lon="2.0930922">
        <ele>165.0</ele>
        <time>2022-05-19T08:22:11Z</time>
      </trkpt>
      <trkpt lat="47.513145" lon="2.0930793">
        <ele>165.0</ele>
        <time>2022-05-19T08:22:12Z</time>
      </trkpt>
      <trkpt lat="47.513138" lon="2.093072">
        <ele>166.0</ele>
        <time>2022-05-19T08:22:13Z</time>
      </trkpt>
      <trkpt lat="47.513138" lon="2.093072">
        <ele>166.0</ele>
        <time>2022-05-19T08:22:14Z</time>
      </trkpt>
      <trkpt lat="47.513138" lon="2.093072">
        <ele>166.0</ele>
        <time>2022-05-19T08:22:15Z</time>
      </trkpt>
      <trkpt lat="47.513123" lon="2.0930417">
        <ele>165.0</ele>
        <time>2022-05-19T08:22:16Z</time>
      </trkpt>
      <trkpt lat="47.513103" lon="2.093011">
        <ele>165.0</ele>
        <time>2022-05-19T08:22:18Z</time>
      </trkpt>
      <trkpt lat="47.513103" lon="2.093011">
        <ele>165.0</ele>
        <time>2022-05-19T08:22:18Z</time>
      </trkpt>
      <trkpt lat="47.513092" lon="2.0929682">
        <ele>165.0</ele>
        <time>2022-05-19T08:22:20Z</time>
      </trkpt>
      <trkpt lat="47.513092" lon="2.0929682">
        <ele>165.0</ele>
        <time>2022-05-19T08:22:20Z</time>
      </trkpt>
      <trkpt lat="47.513096" lon="2.0929477">
        <ele>165.0</ele>
        <time>2022-05-19T08:22:22Z</time>
      </trkpt>
      <trkpt lat="47.513092" lon="2.0929408">
        <ele>165.0</ele>
        <time>2022-05-19T08:22:23Z</time>
      </trkpt>
      <trkpt lat="47.51309" lon="2.092928">
        <ele>166.0</ele>
        <time>2022-05-19T08:22:24Z</time>
      </trkpt>
      <trkpt lat="47.513077" lon="2.0929112">
        <ele>166.0</ele>
        <time>2022-05-19T08:22:25Z</time>
      </trkpt>
      <trkpt lat="47.51307" lon="2.0928926">
        <ele>166.0</ele>
        <time>2022-05-19T08:22:26Z</time>
      </trkpt>
      <trkpt lat="47.51306" lon="2.092873">
        <ele>165.0</ele>
        <time>2022-05-19T08:22:27Z</time>
      </trkpt>
      <trkpt lat="47.513054" lon="2.0928469">
        <ele>165.0</ele>
        <time>2022-05-19T08:22:28Z</time>
      </trkpt>
      <trkpt lat="47.513042" lon="2.0928223">
        <ele>164.0</ele>
        <time>2022-05-19T08:22:30Z</time>
      </trkpt>
      <trkpt lat="47.51304" lon="2.092811">
        <ele>164.0</ele>
        <time>2022-05-19T08:22:31Z</time>
      </trkpt>
      <trkpt lat="47.51304" lon="2.092811">
        <ele>164.0</ele>
        <time>2022-05-19T08:22:31Z</time>
      </trkpt>
      <trkpt lat="47.513035" lon="2.092796">
        <ele>164.0</ele>
        <time>2022-05-19T08:22:32Z</time>
      </trkpt>
      <trkpt lat="47.51303" lon="2.0927804">
        <ele>165.0</ele>
        <time>2022-05-19T08:22:33Z</time>
      </trkpt>
      <trkpt lat="47.513023" lon="2.092758">
        <ele>165.0</ele>
        <time>2022-05-19T08:22:35Z</time>
      </trkpt>
      <trkpt lat="47.513023" lon="2.0927427">
        <ele>165.0</ele>
        <time>2022-05-19T08:22:36Z</time>
      </trkpt>
      <trkpt lat="47.513023" lon="2.092738">
        <ele>165.0</ele>
        <time>2022-05-19T08:22:37Z</time>
      </trkpt>
      <trkpt lat="47.513016" lon="2.092735">
        <ele>165.0</ele>
        <time>2022-05-19T08:22:38Z</time>
      </trkpt>
      <trkpt lat="47.513016" lon="2.092735">
        <ele>165.0</ele>
        <time>2022-05-19T08:22:39Z</time>
      </trkpt>
      <trkpt lat="47.513" lon="2.0927212">
        <ele>165.0</ele>
        <time>2022-05-19T08:22:40Z</time>
      </trkpt>
      <trkpt lat="47.512993" lon="2.0927076">
        <ele>165.0</ele>
        <time>2022-05-19T08:22:41Z</time>
      </trkpt>
      <trkpt lat="47.512985" lon="2.0926936">
        <ele>164.0</ele>
        <time>2022-05-19T08:22:42Z</time>
      </trkpt>
      <trkpt lat="47.512974" lon="2.0926518">
        <ele>164.0</ele>
        <time>2022-05-19T08:22:43Z</time>
      </trkpt>
      <trkpt lat="47.512974" lon="2.0926313">
        <ele>163.0</ele>
        <time>2022-05-19T08:22:44Z</time>
      </trkpt>
      <trkpt lat="47.512974" lon="2.0926313">
        <ele>163.0</ele>
        <time>2022-05-19T08:22:44Z</time>
      </trkpt>
      <trkpt lat="47.512966" lon="2.0926018">
        <ele>163.0</ele>
        <time>2022-05-19T08:22:46Z</time>
      </trkpt>
      <trkpt lat="47.51296" lon="2.09259">
        <ele>162.0</ele>
        <time>2022-05-19T08:22:47Z</time>
      </trkpt>
      <trkpt lat="47.512962" lon="2.092571">
        <ele>162.0</ele>
        <time>2022-05-19T08:22:48Z</time>
      </trkpt>
      <trkpt lat="47.512962" lon="2.0925522">
        <ele>162.0</ele>
        <time>2022-05-19T08:22:49Z</time>
      </trkpt>
      <trkpt lat="47.512966" lon="2.0925274">
        <ele>162.0</ele>
        <time>2022-05-19T08:22:50Z</time>
      </trkpt>
      <trkpt lat="47.512966" lon="2.0925074">
        <ele>163.0</ele>
        <time>2022-05-19T08:22:51Z</time>
      </trkpt>
      <trkpt lat="47.512974" lon="2.0924923">
        <ele>163.0</ele>
        <time>2022-05-19T08:22:52Z</time>
      </trkpt>
      <trkpt lat="47.512974" lon="2.0924923">
        <ele>163.0</ele>
        <time>2022-05-19T08:22:52Z</time>
      </trkpt>
      <trkpt lat="47.512974" lon="2.092471">
        <ele>163.0</ele>
        <time>2022-05-19T08:22:54Z</time>
      </trkpt>
      <trkpt lat="47.51297" lon="2.09245">
        <ele>163.0</ele>
        <time>2022-05-19T08:22:55Z</time>
      </trkpt>
      <trkpt lat="47.512955" lon="2.0924335">
        <ele>163.0</ele>
        <time>2022-05-19T08:22:56Z</time>
      </trkpt>
      <trkpt lat="47.512947" lon="2.0924168">
        <ele>164.0</ele>
        <time>2022-05-19T08:22:57Z</time>
      </trkpt>
      <trkpt lat="47.51295" lon="2.0924013">
        <ele>164.0</ele>
        <time>2022-05-19T08:22:59Z</time>
      </trkpt>
      <trkpt lat="47.51296" lon="2.092359">
        <ele>164.0</ele>
        <time>2022-05-19T08:23:01Z</time>
      </trkpt>
      <trkpt lat="47.512955" lon="2.0923374">
        <ele>164.0</ele>
        <time>2022-05-19T08:23:03Z</time>
      </trkpt>
      <trkpt lat="47.512943" lon="2.092316">
        <ele>165.0</ele>
        <time>2022-05-19T08:23:05Z</time>
      </trkpt>
      <trkpt lat="47.512943" lon="2.092316">
        <ele>165.0</ele>
        <time>2022-05-19T08:23:05Z</time>
      </trkpt>
      <trkpt lat="47.512955" lon="2.0922759">
        <ele>165.0</ele>
        <time>2022-05-19T08:23:07Z</time>
      </trkpt>
      <trkpt lat="47.51296" lon="2.0922523">
        <ele>165.0</ele>
        <time>2022-05-19T08:23:08Z</time>
      </trkpt>
      <trkpt lat="47.51296" lon="2.092224">
        <ele>164.0</ele>
        <time>2022-05-19T08:23:09Z</time>
      </trkpt>
      <trkpt lat="47.512955" lon="2.092192">
        <ele>164.0</ele>
        <time>2022-05-19T08:23:10Z</time>
      </trkpt>
      <trkpt lat="47.512955" lon="2.0921507">
        <ele>164.0</ele>
        <time>2022-05-19T08:23:12Z</time>
      </trkpt>
      <trkpt lat="47.51295" lon="2.0921323">
        <ele>163.0</ele>
        <time>2022-05-19T08:23:13Z</time>
      </trkpt>
      <trkpt lat="47.512947" lon="2.0921156">
        <ele>163.0</ele>
        <time>2022-05-19T08:23:14Z</time>
      </trkpt>
      <trkpt lat="47.512943" lon="2.092103">
        <ele>163.0</ele>
        <time>2022-05-19T08:23:15Z</time>
      </trkpt>
      <trkpt lat="47.512947" lon="2.0920854">
        <ele>163.0</ele>
        <time>2022-05-19T08:23:16Z</time>
      </trkpt>
      <trkpt lat="47.512947" lon="2.0920706">
        <ele>162.0</ele>
        <time>2022-05-19T08:23:17Z</time>
      </trkpt>
      <trkpt lat="47.512947" lon="2.0920706">
        <ele>162.0</ele>
        <time>2022-05-19T08:23:17Z</time>
      </trkpt>
      <trkpt lat="47.51294" lon="2.0920553">
        <ele>162.0</ele>
        <time>2022-05-19T08:23:18Z</time>
      </trkpt>
      <trkpt lat="47.51293" lon="2.0920277">
        <ele>161.0</ele>
        <time>2022-05-19T08:23:20Z</time>
      </trkpt>
      <trkpt lat="47.512928" lon="2.0920038">
        <ele>161.0</ele>
        <time>2022-05-19T08:23:21Z</time>
      </trkpt>
      <trkpt lat="47.512913" lon="2.0919874">
        <ele>161.0</ele>
        <time>2022-05-19T08:23:22Z</time>
      </trkpt>
      <trkpt lat="47.5129" lon="2.0919726">
        <ele>161.0</ele>
        <time>2022-05-19T08:23:23Z</time>
      </trkpt>
      <trkpt lat="47.512894" lon="2.091953">
        <ele>161.0</ele>
        <time>2022-05-19T08:23:24Z</time>
      </trkpt>
      <trkpt lat="47.51289" lon="2.0919302">
        <ele>160.0</ele>
        <time>2022-05-19T08:23:25Z</time>
      </trkpt>
      <trkpt lat="47.512882" lon="2.091908">
        <ele>160.0</ele>
        <time>2022-05-19T08:23:26Z</time>
      </trkpt>
      <trkpt lat="47.512875" lon="2.0918872">
        <ele>160.0</ele>
        <time>2022-05-19T08:23:27Z</time>
      </trkpt>
      <trkpt lat="47.512867" lon="2.0918663">
        <ele>159.0</ele>
        <time>2022-05-19T08:23:28Z</time>
      </trkpt>
      <trkpt lat="47.512863" lon="2.0918477">
        <ele>160.0</ele>
        <time>2022-05-19T08:23:29Z</time>
      </trkpt>
      <trkpt lat="47.512856" lon="2.0918348">
        <ele>160.0</ele>
        <time>2022-05-19T08:23:30Z</time>
      </trkpt>
      <trkpt lat="47.512856" lon="2.0918248">
        <ele>160.0</ele>
        <time>2022-05-19T08:23:31Z</time>
      </trkpt>
      <trkpt lat="47.512856" lon="2.0918248">
        <ele>160.0</ele>
        <time>2022-05-19T08:23:32Z</time>
      </trkpt>
      <trkpt lat="47.51285" lon="2.091795">
        <ele>160.0</ele>
        <time>2022-05-19T08:23:33Z</time>
      </trkpt>
      <trkpt lat="47.512856" lon="2.0917728">
        <ele>160.0</ele>
        <time>2022-05-19T08:23:34Z</time>
      </trkpt>
      <trkpt lat="47.51286" lon="2.091748">
        <ele>160.0</ele>
        <time>2022-05-19T08:23:35Z</time>
      </trkpt>
      <trkpt lat="47.51285" lon="2.091724">
        <ele>161.0</ele>
        <time>2022-05-19T08:23:36Z</time>
      </trkpt>
      <trkpt lat="47.512856" lon="2.0917041">
        <ele>161.0</ele>
        <time>2022-05-19T08:23:37Z</time>
      </trkpt>
      <trkpt lat="47.51286" lon="2.091687">
        <ele>161.0</ele>
        <time>2022-05-19T08:23:38Z</time>
      </trkpt>
      <trkpt lat="47.512856" lon="2.0916767">
        <ele>161.0</ele>
        <time>2022-05-19T08:23:39Z</time>
      </trkpt>
      <trkpt lat="47.512848" lon="2.0916622">
        <ele>161.0</ele>
        <time>2022-05-19T08:23:40Z</time>
      </trkpt>
      <trkpt lat="47.512844" lon="2.0916493">
        <ele>161.0</ele>
        <time>2022-05-19T08:23:41Z</time>
      </trkpt>
      <trkpt lat="47.51284" lon="2.0916383">
        <ele>161.0</ele>
        <time>2022-05-19T08:23:42Z</time>
      </trkpt>
      <trkpt lat="47.512836" lon="2.0916216">
        <ele>161.0</ele>
        <time>2022-05-19T08:23:43Z</time>
      </trkpt>
      <trkpt lat="47.51284" lon="2.091612">
        <ele>161.0</ele>
        <time>2022-05-19T08:23:44Z</time>
      </trkpt>
      <trkpt lat="47.512844" lon="2.0915968">
        <ele>161.0</ele>
        <time>2022-05-19T08:23:45Z</time>
      </trkpt>
      <trkpt lat="47.512844" lon="2.0915756">
        <ele>161.0</ele>
        <time>2022-05-19T08:23:46Z</time>
      </trkpt>
      <trkpt lat="47.512844" lon="2.0915587">
        <ele>161.0</ele>
        <time>2022-05-19T08:23:47Z</time>
      </trkpt>
      <trkpt lat="47.512836" lon="2.0915346">
        <ele>160.0</ele>
        <time>2022-05-19T08:23:48Z</time>
      </trkpt>
      <trkpt lat="47.512825" lon="2.0915132">
        <ele>161.0</ele>
        <time>2022-05-19T08:23:49Z</time>
      </trkpt>
      <trkpt lat="47.512814" lon="2.0914955">
        <ele>161.0</ele>
        <time>2022-05-19T08:23:50Z</time>
      </trkpt>
      <trkpt lat="47.512814" lon="2.0914786">
        <ele>161.0</ele>
        <time>2022-05-19T08:23:51Z</time>
      </trkpt>
      <trkpt lat="47.512806" lon="2.0914574">
        <ele>160.0</ele>
        <time>2022-05-19T08:23:52Z</time>
      </trkpt>
      <trkpt lat="47.512806" lon="2.0914407">
        <ele>160.0</ele>
        <time>2022-05-19T08:23:53Z</time>
      </trkpt>
      <trkpt lat="47.512802" lon="2.09142">
        <ele>160.0</ele>
        <time>2022-05-19T08:23:54Z</time>
      </trkpt>
      <trkpt lat="47.5128" lon="2.0913954">
        <ele>159.0</ele>
        <time>2022-05-19T08:23:55Z</time>
      </trkpt>
      <trkpt lat="47.51279" lon="2.0913732">
        <ele>159.0</ele>
        <time>2022-05-19T08:23:56Z</time>
      </trkpt>
      <trkpt lat="47.5128" lon="2.0913546">
        <ele>159.0</ele>
        <time>2022-05-19T08:23:57Z</time>
      </trkpt>
      <trkpt lat="47.512806" lon="2.0913384">
        <ele>159.0</ele>
        <time>2022-05-19T08:23:58Z</time>
      </trkpt>
      <trkpt lat="47.512806" lon="2.0913248">
        <ele>159.0</ele>
        <time>2022-05-19T08:23:59Z</time>
      </trkpt>
      <trkpt lat="47.51281" lon="2.0913048">
        <ele>159.0</ele>
        <time>2022-05-19T08:24:00Z</time>
      </trkpt>
      <trkpt lat="47.51281" lon="2.0912898">
        <ele>159.0</ele>
        <time>2022-05-19T08:24:01Z</time>
      </trkpt>
      <trkpt lat="47.51281" lon="2.0912752">
        <ele>160.0</ele>
        <time>2022-05-19T08:24:02Z</time>
      </trkpt>
      <trkpt lat="47.512806" lon="2.091258">
        <ele>160.0</ele>
        <time>2022-05-19T08:24:03Z</time>
      </trkpt>
      <trkpt lat="47.512806" lon="2.0912454">
        <ele>160.0</ele>
        <time>2022-05-19T08:24:04Z</time>
      </trkpt>
      <trkpt lat="47.512802" lon="2.0912266">
        <ele>160.0</ele>
        <time>2022-05-19T08:24:05Z</time>
      </trkpt>
      <trkpt lat="47.512802" lon="2.091206">
        <ele>161.0</ele>
        <time>2022-05-19T08:24:06Z</time>
      </trkpt>
      <trkpt lat="47.51279" lon="2.0911922">
        <ele>161.0</ele>
        <time>2022-05-19T08:24:07Z</time>
      </trkpt>
      <trkpt lat="47.512783" lon="2.0911808">
        <ele>161.0</ele>
        <time>2022-05-19T08:24:08Z</time>
      </trkpt>
      <trkpt lat="47.51278" lon="2.0911784">
        <ele>160.0</ele>
        <time>2022-05-19T08:24:09Z</time>
      </trkpt>
      <trkpt lat="47.512775" lon="2.0911736">
        <ele>160.0</ele>
        <time>2022-05-19T08:24:10Z</time>
      </trkpt>
      <trkpt lat="47.51277" lon="2.0911653">
        <ele>160.0</ele>
        <time>2022-05-19T08:24:11Z</time>
      </trkpt>
      <trkpt lat="47.512768" lon="2.0911481">
        <ele>160.0</ele>
        <time>2022-05-19T08:24:12Z</time>
      </trkpt>
      <trkpt lat="47.512764" lon="2.091125">
        <ele>160.0</ele>
        <time>2022-05-19T08:24:13Z</time>
      </trkpt>
      <trkpt lat="47.512764" lon="2.0911057">
        <ele>161.0</ele>
        <time>2022-05-19T08:24:14Z</time>
      </trkpt>
      <trkpt lat="47.512764" lon="2.091087">
        <ele>161.0</ele>
        <time>2022-05-19T08:24:15Z</time>
      </trkpt>
      <trkpt lat="47.512764" lon="2.0910745">
        <ele>162.0</ele>
        <time>2022-05-19T08:24:16Z</time>
      </trkpt>
      <trkpt lat="47.51276" lon="2.0910568">
        <ele>162.0</ele>
        <time>2022-05-19T08:24:17Z</time>
      </trkpt>
      <trkpt lat="47.51276" lon="2.0910425">
        <ele>162.0</ele>
        <time>2022-05-19T08:24:18Z</time>
      </trkpt>
      <trkpt lat="47.512756" lon="2.0910282">
        <ele>162.0</ele>
        <time>2022-05-19T08:24:19Z</time>
      </trkpt>
      <trkpt lat="47.51275" lon="2.0910153">
        <ele>162.0</ele>
        <time>2022-05-19T08:24:20Z</time>
      </trkpt>
      <trkpt lat="47.512745" lon="2.0909996">
        <ele>162.0</ele>
        <time>2022-05-19T08:24:21Z</time>
      </trkpt>
      <trkpt lat="47.51274" lon="2.0909903">
        <ele>162.0</ele>
        <time>2022-05-19T08:24:22Z</time>
      </trkpt>
      <trkpt lat="47.51274" lon="2.0909805">
        <ele>161.0</ele>
        <time>2022-05-19T08:24:23Z</time>
      </trkpt>
      <trkpt lat="47.512733" lon="2.0909622">
        <ele>161.0</ele>
        <time>2022-05-19T08:24:24Z</time>
      </trkpt>
      <trkpt lat="47.512733" lon="2.0909622">
        <ele>161.0</ele>
        <time>2022-05-19T08:24:25Z</time>
      </trkpt>
      <trkpt lat="47.512733" lon="2.0909622">
        <ele>161.0</ele>
        <time>2022-05-19T08:24:26Z</time>
      </trkpt>
      <trkpt lat="47.51273" lon="2.0909243">
        <ele>160.0</ele>
        <time>2022-05-19T08:24:27Z</time>
      </trkpt>
      <trkpt lat="47.51273" lon="2.0909123">
        <ele>160.0</ele>
        <time>2022-05-19T08:24:28Z</time>
      </trkpt>
      <trkpt lat="47.51272" lon="2.090888">
        <ele>160.0</ele>
        <time>2022-05-19T08:24:29Z</time>
      </trkpt>
      <trkpt lat="47.512714" lon="2.0908682">
        <ele>160.0</ele>
        <time>2022-05-19T08:24:30Z</time>
      </trkpt>
      <trkpt lat="47.512707" lon="2.090845">
        <ele>160.0</ele>
        <time>2022-05-19T08:24:31Z</time>
      </trkpt>
      <trkpt lat="47.512707" lon="2.0908246">
        <ele>160.0</ele>
        <time>2022-05-19T08:24:32Z</time>
      </trkpt>
      <trkpt lat="47.512703" lon="2.0908108">
        <ele>160.0</ele>
        <time>2022-05-19T08:24:33Z</time>
      </trkpt>
      <trkpt lat="47.512695" lon="2.0907934">
        <ele>160.0</ele>
        <time>2022-05-19T08:24:34Z</time>
      </trkpt>
      <trkpt lat="47.512688" lon="2.0907779">
        <ele>160.0</ele>
        <time>2022-05-19T08:24:35Z</time>
      </trkpt>
      <trkpt lat="47.51268" lon="2.0907598">
        <ele>159.0</ele>
        <time>2022-05-19T08:24:36Z</time>
      </trkpt>
      <trkpt lat="47.51267" lon="2.0907423">
        <ele>160.0</ele>
        <time>2022-05-19T08:24:37Z</time>
      </trkpt>
      <trkpt lat="47.512665" lon="2.0907264">
        <ele>159.0</ele>
        <time>2022-05-19T08:24:38Z</time>
      </trkpt>
      <trkpt lat="47.51266" lon="2.0907164">
        <ele>159.0</ele>
        <time>2022-05-19T08:24:39Z</time>
      </trkpt>
      <trkpt lat="47.512657" lon="2.090701">
        <ele>159.0</ele>
        <time>2022-05-19T08:24:40Z</time>
      </trkpt>
      <trkpt lat="47.512653" lon="2.0906854">
        <ele>159.0</ele>
        <time>2022-05-19T08:24:41Z</time>
      </trkpt>
      <trkpt lat="47.512653" lon="2.0906737">
        <ele>160.0</ele>
        <time>2022-05-19T08:24:42Z</time>
      </trkpt>
      <trkpt lat="47.512653" lon="2.0906641">
        <ele>160.0</ele>
        <time>2022-05-19T08:24:43Z</time>
      </trkpt>
      <trkpt lat="47.51265" lon="2.0906515">
        <ele>160.0</ele>
        <time>2022-05-19T08:24:44Z</time>
      </trkpt>
      <trkpt lat="47.51264" lon="2.0906389">
        <ele>160.0</ele>
        <time>2022-05-19T08:24:45Z</time>
      </trkpt>
      <trkpt lat="47.512634" lon="2.0906234">
        <ele>161.0</ele>
        <time>2022-05-19T08:24:46Z</time>
      </trkpt>
      <trkpt lat="47.51263" lon="2.0906096">
        <ele>161.0</ele>
        <time>2022-05-19T08:24:47Z</time>
      </trkpt>
      <trkpt lat="47.512627" lon="2.090595">
        <ele>161.0</ele>
        <time>2022-05-19T08:24:48Z</time>
      </trkpt>
      <trkpt lat="47.512627" lon="2.090595">
        <ele>161.0</ele>
        <time>2022-05-19T08:24:49Z</time>
      </trkpt>
      <trkpt lat="47.512627" lon="2.090595">
        <ele>161.0</ele>
        <time>2022-05-19T08:24:50Z</time>
      </trkpt>
      <trkpt lat="47.51262" lon="2.0905507">
        <ele>162.0</ele>
        <time>2022-05-19T08:24:51Z</time>
      </trkpt>
      <trkpt lat="47.512608" lon="2.0905385">
        <ele>162.0</ele>
        <time>2022-05-19T08:24:52Z</time>
      </trkpt>
      <trkpt lat="47.512604" lon="2.0905235">
        <ele>162.0</ele>
        <time>2022-05-19T08:24:53Z</time>
      </trkpt>
      <trkpt lat="47.512596" lon="2.0905068">
        <ele>162.0</ele>
        <time>2022-05-19T08:24:54Z</time>
      </trkpt>
      <trkpt lat="47.512596" lon="2.0904863">
        <ele>162.0</ele>
        <time>2022-05-19T08:24:56Z</time>
      </trkpt>
      <trkpt lat="47.51259" lon="2.0904663">
        <ele>162.0</ele>
        <time>2022-05-19T08:24:57Z</time>
      </trkpt>
      <trkpt lat="47.51258" lon="2.090447">
        <ele>162.0</ele>
        <time>2022-05-19T08:24:58Z</time>
      </trkpt>
      <trkpt lat="47.51258" lon="2.090426">
        <ele>162.0</ele>
        <time>2022-05-19T08:24:59Z</time>
      </trkpt>
      <trkpt lat="47.51258" lon="2.0904133">
        <ele>163.0</ele>
        <time>2022-05-19T08:25:00Z</time>
      </trkpt>
      <trkpt lat="47.512573" lon="2.090406">
        <ele>163.0</ele>
        <time>2022-05-19T08:25:01Z</time>
      </trkpt>
      <trkpt lat="47.512566" lon="2.0903919">
        <ele>163.0</ele>
        <time>2022-05-19T08:25:02Z</time>
      </trkpt>
      <trkpt lat="47.51257" lon="2.0903728">
        <ele>163.0</ele>
        <time>2022-05-19T08:25:03Z</time>
      </trkpt>
      <trkpt lat="47.51257" lon="2.0903492">
        <ele>163.0</ele>
        <time>2022-05-19T08:25:04Z</time>
      </trkpt>
      <trkpt lat="47.51257" lon="2.0903227">
        <ele>163.0</ele>
        <time>2022-05-19T08:25:05Z</time>
      </trkpt>
      <trkpt lat="47.512566" lon="2.0903115">
        <ele>163.0</ele>
        <time>2022-05-19T08:25:06Z</time>
      </trkpt>
      <trkpt lat="47.512566" lon="2.0902996">
        <ele>163.0</ele>
        <time>2022-05-19T08:25:07Z</time>
      </trkpt>
      <trkpt lat="47.512566" lon="2.0902858">
        <ele>164.0</ele>
        <time>2022-05-19T08:25:08Z</time>
      </trkpt>
      <trkpt lat="47.512566" lon="2.0902858">
        <ele>164.0</ele>
        <time>2022-05-19T08:25:09Z</time>
      </trkpt>
      <trkpt lat="47.512566" lon="2.0902858">
        <ele>164.0</ele>
        <time>2022-05-19T08:25:10Z</time>
      </trkpt>
      <trkpt lat="47.51255" lon="2.090242">
        <ele>164.0</ele>
        <time>2022-05-19T08:25:11Z</time>
      </trkpt>
      <trkpt lat="47.51255" lon="2.0902264">
        <ele>163.0</ele>
        <time>2022-05-19T08:25:12Z</time>
      </trkpt>
      <trkpt lat="47.51255" lon="2.0902088">
        <ele>163.0</ele>
        <time>2022-05-19T08:25:13Z</time>
      </trkpt>
      <trkpt lat="47.51255" lon="2.0901847">
        <ele>164.0</ele>
        <time>2022-05-19T08:25:14Z</time>
      </trkpt>
      <trkpt lat="47.512543" lon="2.0901706">
        <ele>163.0</ele>
        <time>2022-05-19T08:25:15Z</time>
      </trkpt>
      <trkpt lat="47.512535" lon="2.0901496">
        <ele>164.0</ele>
        <time>2022-05-19T08:25:16Z</time>
      </trkpt>
      <trkpt lat="47.512535" lon="2.0901246">
        <ele>164.0</ele>
        <time>2022-05-19T08:25:17Z</time>
      </trkpt>
      <trkpt lat="47.51254" lon="2.0901031">
        <ele>163.0</ele>
        <time>2022-05-19T08:25:18Z</time>
      </trkpt>
      <trkpt lat="47.512543" lon="2.0900922">
        <ele>163.0</ele>
        <time>2022-05-19T08:25:19Z</time>
      </trkpt>
      <trkpt lat="47.512543" lon="2.0900857">
        <ele>163.0</ele>
        <time>2022-05-19T08:25:20Z</time>
      </trkpt>
      <trkpt lat="47.512543" lon="2.0900805">
        <ele>163.0</ele>
        <time>2022-05-19T08:25:21Z</time>
      </trkpt>
      <trkpt lat="47.512535" lon="2.0900648">
        <ele>163.0</ele>
        <time>2022-05-19T08:25:22Z</time>
      </trkpt>
      <trkpt lat="47.51253" lon="2.0900435">
        <ele>162.0</ele>
        <time>2022-05-19T08:25:23Z</time>
      </trkpt>
      <trkpt lat="47.51253" lon="2.0900288">
        <ele>162.0</ele>
        <time>2022-05-19T08:25:24Z</time>
      </trkpt>
      <trkpt lat="47.512527" lon="2.0900152">
        <ele>163.0</ele>
        <time>2022-05-19T08:25:25Z</time>
      </trkpt>
      <trkpt lat="47.512524" lon="2.0900042">
        <ele>163.0</ele>
        <time>2022-05-19T08:25:26Z</time>
      </trkpt>
      <trkpt lat="47.51252" lon="2.0899782">
        <ele>163.0</ele>
        <time>2022-05-19T08:25:27Z</time>
      </trkpt>
      <trkpt lat="47.512516" lon="2.0899618">
        <ele>163.0</ele>
        <time>2022-05-19T08:25:28Z</time>
      </trkpt>
      <trkpt lat="47.512512" lon="2.0899448">
        <ele>163.0</ele>
        <time>2022-05-19T08:25:29Z</time>
      </trkpt>
      <trkpt lat="47.51251" lon="2.0899272">
        <ele>163.0</ele>
        <time>2022-05-19T08:25:30Z</time>
      </trkpt>
      <trkpt lat="47.512505" lon="2.0899158">
        <ele>163.0</ele>
        <time>2022-05-19T08:25:31Z</time>
      </trkpt>
      <trkpt lat="47.512505" lon="2.089904">
        <ele>163.0</ele>
        <time>2022-05-19T08:25:32Z</time>
      </trkpt>
      <trkpt lat="47.5125" lon="2.089893">
        <ele>163.0</ele>
        <time>2022-05-19T08:25:33Z</time>
      </trkpt>
      <trkpt lat="47.512497" lon="2.0898829">
        <ele>163.0</ele>
        <time>2022-05-19T08:25:34Z</time>
      </trkpt>
      <trkpt lat="47.512493" lon="2.0898674">
        <ele>163.0</ele>
        <time>2022-05-19T08:25:35Z</time>
      </trkpt>
      <trkpt lat="47.512493" lon="2.0898485">
        <ele>163.0</ele>
        <time>2022-05-19T08:25:36Z</time>
      </trkpt>
      <trkpt lat="47.512497" lon="2.0898304">
        <ele>163.0</ele>
        <time>2022-05-19T08:25:37Z</time>
      </trkpt>
      <trkpt lat="47.512493" lon="2.0898182">
        <ele>163.0</ele>
        <time>2022-05-19T08:25:38Z</time>
      </trkpt>
      <trkpt lat="47.512486" lon="2.089801">
        <ele>163.0</ele>
        <time>2022-05-19T08:25:39Z</time>
      </trkpt>
      <trkpt lat="47.512478" lon="2.0897791">
        <ele>163.0</ele>
        <time>2022-05-19T08:25:40Z</time>
      </trkpt>
      <trkpt lat="47.512474" lon="2.0897708">
        <ele>163.0</ele>
        <time>2022-05-19T08:25:41Z</time>
      </trkpt>
      <trkpt lat="47.51247" lon="2.0897622">
        <ele>163.0</ele>
        <time>2022-05-19T08:25:42Z</time>
      </trkpt>
      <trkpt lat="47.512466" lon="2.0897503">
        <ele>162.0</ele>
        <time>2022-05-19T08:25:43Z</time>
      </trkpt>
      <trkpt lat="47.512463" lon="2.0897372">
        <ele>162.0</ele>
        <time>2022-05-19T08:25:44Z</time>
      </trkpt>
      <trkpt lat="47.512463" lon="2.0897372">
        <ele>162.0</ele>
        <time>2022-05-19T08:25:45Z</time>
      </trkpt>
      <trkpt lat="47.51246" lon="2.0897188">
        <ele>162.0</ele>
        <time>2022-05-19T08:25:46Z</time>
      </trkpt>
      <trkpt lat="47.512447" lon="2.0897064">
        <ele>162.0</ele>
        <time>2022-05-19T08:25:47Z</time>
      </trkpt>
      <trkpt lat="47.512447" lon="2.0896873">
        <ele>162.0</ele>
        <time>2022-05-19T08:25:48Z</time>
      </trkpt>
      <trkpt lat="47.512444" lon="2.0896695">
        <ele>162.0</ele>
        <time>2022-05-19T08:25:49Z</time>
      </trkpt>
      <trkpt lat="47.512432" lon="2.0896544">
        <ele>162.0</ele>
        <time>2022-05-19T08:25:50Z</time>
      </trkpt>
      <trkpt lat="47.51243" lon="2.0896406">
        <ele>162.0</ele>
        <time>2022-05-19T08:25:51Z</time>
      </trkpt>
      <trkpt lat="47.51243" lon="2.0896235">
        <ele>162.0</ele>
        <time>2022-05-19T08:25:52Z</time>
      </trkpt>
      <trkpt lat="47.51243" lon="2.0896132">
        <ele>162.0</ele>
        <time>2022-05-19T08:25:53Z</time>
      </trkpt>
      <trkpt lat="47.51243" lon="2.0896132">
        <ele>162.0</ele>
        <time>2022-05-19T08:25:54Z</time>
      </trkpt>
      <trkpt lat="47.51243" lon="2.0896132">
        <ele>162.0</ele>
        <time>2022-05-19T08:25:55Z</time>
      </trkpt>
      <trkpt lat="47.51242" lon="2.08957">
        <ele>163.0</ele>
        <time>2022-05-19T08:25:56Z</time>
      </trkpt>
      <trkpt lat="47.51241" lon="2.0895526">
        <ele>163.0</ele>
        <time>2022-05-19T08:25:57Z</time>
      </trkpt>
      <trkpt lat="47.512405" lon="2.089525">
        <ele>163.0</ele>
        <time>2022-05-19T08:25:58Z</time>
      </trkpt>
      <trkpt lat="47.5124" lon="2.08951">
        <ele>163.0</ele>
        <time>2022-05-19T08:25:59Z</time>
      </trkpt>
      <trkpt lat="47.512398" lon="2.0894995">
        <ele>163.0</ele>
        <time>2022-05-19T08:26:00Z</time>
      </trkpt>
      <trkpt lat="47.512398" lon="2.0894995">
        <ele>163.0</ele>
        <time>2022-05-19T08:26:01Z</time>
      </trkpt>
      <trkpt lat="47.51239" lon="2.089488">
        <ele>163.0</ele>
        <time>2022-05-19T08:26:02Z</time>
      </trkpt>
      <trkpt lat="47.512386" lon="2.0894787">
        <ele>163.0</ele>
        <time>2022-05-19T08:26:03Z</time>
      </trkpt>
      <trkpt lat="47.51238" lon="2.089464">
        <ele>163.0</ele>
        <time>2022-05-19T08:26:04Z</time>
      </trkpt>
      <trkpt lat="47.512375" lon="2.0894449">
        <ele>162.0</ele>
        <time>2022-05-19T08:26:05Z</time>
      </trkpt>
      <trkpt lat="47.51237" lon="2.0894272">
        <ele>162.0</ele>
        <time>2022-05-19T08:26:06Z</time>
      </trkpt>
      <trkpt lat="47.51237" lon="2.089408">
        <ele>162.0</ele>
        <time>2022-05-19T08:26:07Z</time>
      </trkpt>
      <trkpt lat="47.512367" lon="2.0893934">
        <ele>162.0</ele>
        <time>2022-05-19T08:26:08Z</time>
      </trkpt>
      <trkpt lat="47.512363" lon="2.0893817">
        <ele>162.0</ele>
        <time>2022-05-19T08:26:09Z</time>
      </trkpt>
      <trkpt lat="47.512363" lon="2.0893817">
        <ele>162.0</ele>
        <time>2022-05-19T08:26:10Z</time>
      </trkpt>
      <trkpt lat="47.512363" lon="2.0893817">
        <ele>162.0</ele>
        <time>2022-05-19T08:26:11Z</time>
      </trkpt>
      <trkpt lat="47.51236" lon="2.0893402">
        <ele>162.0</ele>
        <time>2022-05-19T08:26:12Z</time>
      </trkpt>
      <trkpt lat="47.512352" lon="2.0893238">
        <ele>162.0</ele>
        <time>2022-05-19T08:26:13Z</time>
      </trkpt>
      <trkpt lat="47.51235" lon="2.0893023">
        <ele>162.0</ele>
        <time>2022-05-19T08:26:14Z</time>
      </trkpt>
      <trkpt lat="47.51234" lon="2.0892901">
        <ele>162.0</ele>
        <time>2022-05-19T08:26:15Z</time>
      </trkpt>
      <trkpt lat="47.512333" lon="2.089271">
        <ele>162.0</ele>
        <time>2022-05-19T08:26:16Z</time>
      </trkpt>
      <trkpt lat="47.512333" lon="2.089271">
        <ele>162.0</ele>
        <time>2022-05-19T08:26:17Z</time>
      </trkpt>
      <trkpt lat="47.512333" lon="2.089271">
        <ele>162.0</ele>
        <time>2022-05-19T08:26:18Z</time>
      </trkpt>
      <trkpt lat="47.51232" lon="2.0892348">
        <ele>161.0</ele>
        <time>2022-05-19T08:26:19Z</time>
      </trkpt>
      <trkpt lat="47.51232" lon="2.0892117">
        <ele>161.0</ele>
        <time>2022-05-19T08:26:20Z</time>
      </trkpt>
      <trkpt lat="47.512318" lon="2.089186">
        <ele>161.0</ele>
        <time>2022-05-19T08:26:21Z</time>
      </trkpt>
      <trkpt lat="47.51231" lon="2.0891623">
        <ele>162.0</ele>
        <time>2022-05-19T08:26:22Z</time>
      </trkpt>
      <trkpt lat="47.512306" lon="2.089133">
        <ele>162.0</ele>
        <time>2022-05-19T08:26:23Z</time>
      </trkpt>
      <trkpt lat="47.512306" lon="2.0891082">
        <ele>162.0</ele>
        <time>2022-05-19T08:26:24Z</time>
      </trkpt>
      <trkpt lat="47.51231" lon="2.0890822">
        <ele>162.0</ele>
        <time>2022-05-19T08:26:25Z</time>
      </trkpt>
      <trkpt lat="47.512306" lon="2.0890603">
        <ele>162.0</ele>
        <time>2022-05-19T08:26:26Z</time>
      </trkpt>
      <trkpt lat="47.512306" lon="2.0890388">
        <ele>163.0</ele>
        <time>2022-05-19T08:26:27Z</time>
      </trkpt>
      <trkpt lat="47.512318" lon="2.08901">
        <ele>163.0</ele>
        <time>2022-05-19T08:26:28Z</time>
      </trkpt>
      <trkpt lat="47.512318" lon="2.088978">
        <ele>164.0</ele>
        <time>2022-05-19T08:26:29Z</time>
      </trkpt>
      <trkpt lat="47.512306" lon="2.088954">
        <ele>163.0</ele>
        <time>2022-05-19T08:26:30Z</time>
      </trkpt>
      <trkpt lat="47.512295" lon="2.0889332">
        <ele>164.0</ele>
        <time>2022-05-19T08:26:31Z</time>
      </trkpt>
      <trkpt lat="47.51229" lon="2.088921">
        <ele>164.0</ele>
        <time>2022-05-19T08:26:32Z</time>
      </trkpt>
      <trkpt lat="47.512287" lon="2.0889065">
        <ele>163.0</ele>
        <time>2022-05-19T08:26:33Z</time>
      </trkpt>
      <trkpt lat="47.512276" lon="2.088887">
        <ele>163.0</ele>
        <time>2022-05-19T08:26:34Z</time>
      </trkpt>
      <trkpt lat="47.512268" lon="2.0888705">
        <ele>164.0</ele>
        <time>2022-05-19T08:26:35Z</time>
      </trkpt>
      <trkpt lat="47.512264" lon="2.0888474">
        <ele>164.0</ele>
        <time>2022-05-19T08:26:36Z</time>
      </trkpt>
      <trkpt lat="47.512264" lon="2.0888238">
        <ele>164.0</ele>
        <time>2022-05-19T08:26:37Z</time>
      </trkpt>
      <trkpt lat="47.512257" lon="2.088805">
        <ele>164.0</ele>
        <time>2022-05-19T08:26:38Z</time>
      </trkpt>
      <trkpt lat="47.512245" lon="2.088786">
        <ele>164.0</ele>
        <time>2022-05-19T08:26:39Z</time>
      </trkpt>
      <trkpt lat="47.51223" lon="2.088763">
        <ele>164.0</ele>
        <time>2022-05-19T08:26:40Z</time>
      </trkpt>
      <trkpt lat="47.512215" lon="2.0887375">
        <ele>164.0</ele>
        <time>2022-05-19T08:26:41Z</time>
      </trkpt>
      <trkpt lat="47.512207" lon="2.0887113">
        <ele>164.0</ele>
        <time>2022-05-19T08:26:42Z</time>
      </trkpt>
      <trkpt lat="47.512203" lon="2.088681">
        <ele>164.0</ele>
        <time>2022-05-19T08:26:43Z</time>
      </trkpt>
      <trkpt lat="47.5122" lon="2.0886624">
        <ele>163.0</ele>
        <time>2022-05-19T08:26:44Z</time>
      </trkpt>
      <trkpt lat="47.51219" lon="2.0886436">
        <ele>163.0</ele>
        <time>2022-05-19T08:26:45Z</time>
      </trkpt>
      <trkpt lat="47.512184" lon="2.088631">
        <ele>163.0</ele>
        <time>2022-05-19T08:26:46Z</time>
      </trkpt>
      <trkpt lat="47.512177" lon="2.0886128">
        <ele>163.0</ele>
        <time>2022-05-19T08:26:47Z</time>
      </trkpt>
      <trkpt lat="47.51217" lon="2.0885696">
        <ele>163.0</ele>
        <time>2022-05-19T08:26:48Z</time>
      </trkpt>
      <trkpt lat="47.51217" lon="2.0885696">
        <ele>163.0</ele>
        <time>2022-05-19T08:26:48Z</time>
      </trkpt>
      <trkpt lat="47.512165" lon="2.0885274">
        <ele>163.0</ele>
        <time>2022-05-19T08:26:50Z</time>
      </trkpt>
      <trkpt lat="47.512157" lon="2.0885">
        <ele>162.0</ele>
        <time>2022-05-19T08:26:51Z</time>
      </trkpt>
      <trkpt lat="47.512157" lon="2.0885">
        <ele>162.0</ele>
        <time>2022-05-19T08:26:51Z</time>
      </trkpt>
      <trkpt lat="47.51215" lon="2.0884848">
        <ele>162.0</ele>
        <time>2022-05-19T08:26:53Z</time>
      </trkpt>
      <trkpt lat="47.51214" lon="2.0884724">
        <ele>162.0</ele>
        <time>2022-05-19T08:26:54Z</time>
      </trkpt>
      <trkpt lat="47.512127" lon="2.0884657">
        <ele>162.0</ele>
        <time>2022-05-19T08:26:55Z</time>
      </trkpt>
      <trkpt lat="47.51213" lon="2.08844">
        <ele>161.0</ele>
        <time>2022-05-19T08:26:56Z</time>
      </trkpt>
      <trkpt lat="47.512123" lon="2.0884142">
        <ele>161.0</ele>
        <time>2022-05-19T08:26:57Z</time>
      </trkpt>
      <trkpt lat="47.512127" lon="2.08839">
        <ele>162.0</ele>
        <time>2022-05-19T08:26:58Z</time>
      </trkpt>
      <trkpt lat="47.51212" lon="2.0883648">
        <ele>162.0</ele>
        <time>2022-05-19T08:26:59Z</time>
      </trkpt>
      <trkpt lat="47.51212" lon="2.0883648">
        <ele>162.0</ele>
        <time>2022-05-19T08:26:59Z</time>
      </trkpt>
      <trkpt lat="47.512115" lon="2.0883522">
        <ele>162.0</ele>
        <time>2022-05-19T08:27:01Z</time>
      </trkpt>
      <trkpt lat="47.512108" lon="2.0883079">
        <ele>161.0</ele>
        <time>2022-05-19T08:27:02Z</time>
      </trkpt>
      <trkpt lat="47.512108" lon="2.0883079">
        <ele>161.0</ele>
        <time>2022-05-19T08:27:02Z</time>
      </trkpt>
      <trkpt lat="47.512104" lon="2.0882933">
        <ele>161.0</ele>
        <time>2022-05-19T08:27:04Z</time>
      </trkpt>
      <trkpt lat="47.5121" lon="2.0882714">
        <ele>161.0</ele>
        <time>2022-05-19T08:27:05Z</time>
      </trkpt>
      <trkpt lat="47.5121" lon="2.0882537">
        <ele>161.0</ele>
        <time>2022-05-19T08:27:06Z</time>
      </trkpt>
      <trkpt lat="47.51209" lon="2.0882156">
        <ele>161.0</ele>
        <time>2022-05-19T08:27:07Z</time>
      </trkpt>
      <trkpt lat="47.51209" lon="2.0881963">
        <ele>162.0</ele>
        <time>2022-05-19T08:27:08Z</time>
      </trkpt>
      <trkpt lat="47.512085" lon="2.088175">
        <ele>161.0</ele>
        <time>2022-05-19T08:27:09Z</time>
      </trkpt>
      <trkpt lat="47.512085" lon="2.0881639">
        <ele>161.0</ele>
        <time>2022-05-19T08:27:10Z</time>
      </trkpt>
      <trkpt lat="47.512085" lon="2.088149">
        <ele>161.0</ele>
        <time>2022-05-19T08:27:11Z</time>
      </trkpt>
      <trkpt lat="47.51208" lon="2.0881271">
        <ele>161.0</ele>
        <time>2022-05-19T08:27:12Z</time>
      </trkpt>
      <trkpt lat="47.512074" lon="2.088106">
        <ele>161.0</ele>
        <time>2022-05-19T08:27:13Z</time>
      </trkpt>
      <trkpt lat="47.512066" lon="2.0880876">
        <ele>161.0</ele>
        <time>2022-05-19T08:27:14Z</time>
      </trkpt>
      <trkpt lat="47.51205" lon="2.0880692">
        <ele>161.0</ele>
        <time>2022-05-19T08:27:15Z</time>
      </trkpt>
      <trkpt lat="47.512035" lon="2.0880527">
        <ele>161.0</ele>
        <time>2022-05-19T08:27:16Z</time>
      </trkpt>
      <trkpt lat="47.512028" lon="2.0880282">
        <ele>161.0</ele>
        <time>2022-05-19T08:27:17Z</time>
      </trkpt>
      <trkpt lat="47.512028" lon="2.088007">
        <ele>160.0</ele>
        <time>2022-05-19T08:27:18Z</time>
      </trkpt>
      <trkpt lat="47.512028" lon="2.0879877">
        <ele>160.0</ele>
        <time>2022-05-19T08:27:19Z</time>
      </trkpt>
      <trkpt lat="47.512028" lon="2.087966">
        <ele>160.0</ele>
        <time>2022-05-19T08:27:20Z</time>
      </trkpt>
      <trkpt lat="47.512035" lon="2.0879498">
        <ele>161.0</ele>
        <time>2022-05-19T08:27:21Z</time>
      </trkpt>
      <trkpt lat="47.51204" lon="2.0879323">
        <ele>161.0</ele>
        <time>2022-05-19T08:27:22Z</time>
      </trkpt>
      <trkpt lat="47.51204" lon="2.0879147">
        <ele>161.0</ele>
        <time>2022-05-19T08:27:23Z</time>
      </trkpt>
      <trkpt lat="47.512035" lon="2.0879002">
        <ele>161.0</ele>
        <time>2022-05-19T08:27:24Z</time>
      </trkpt>
      <trkpt lat="47.51203" lon="2.0878825">
        <ele>161.0</ele>
        <time>2022-05-19T08:27:25Z</time>
      </trkpt>
      <trkpt lat="47.512035" lon="2.08787">
        <ele>161.0</ele>
        <time>2022-05-19T08:27:26Z</time>
      </trkpt>
      <trkpt lat="47.512047" lon="2.0878592">
        <ele>162.0</ele>
        <time>2022-05-19T08:27:27Z</time>
      </trkpt>
      <trkpt lat="47.512054" lon="2.0878458">
        <ele>162.0</ele>
        <time>2022-05-19T08:27:28Z</time>
      </trkpt>
      <trkpt lat="47.512054" lon="2.087828">
        <ele>163.0</ele>
        <time>2022-05-19T08:27:29Z</time>
      </trkpt>
      <trkpt lat="47.51205" lon="2.0878124">
        <ele>163.0</ele>
        <time>2022-05-19T08:27:30Z</time>
      </trkpt>
      <trkpt lat="47.512043" lon="2.0877948">
        <ele>164.0</ele>
        <time>2022-05-19T08:27:31Z</time>
      </trkpt>
      <trkpt lat="47.512043" lon="2.0877948">
        <ele>164.0</ele>
        <time>2022-05-19T08:27:32Z</time>
      </trkpt>
      <trkpt lat="47.512035" lon="2.0877597">
        <ele>164.0</ele>
        <time>2022-05-19T08:27:33Z</time>
      </trkpt>
      <trkpt lat="47.512028" lon="2.0877423">
        <ele>164.0</ele>
        <time>2022-05-19T08:27:34Z</time>
      </trkpt>
      <trkpt lat="47.51202" lon="2.0877209">
        <ele>164.0</ele>
        <time>2022-05-19T08:27:35Z</time>
      </trkpt>
      <trkpt lat="47.51202" lon="2.0877032">
        <ele>164.0</ele>
        <time>2022-05-19T08:27:36Z</time>
      </trkpt>
      <trkpt lat="47.512012" lon="2.0876925">
        <ele>164.0</ele>
        <time>2022-05-19T08:27:37Z</time>
      </trkpt>
      <trkpt lat="47.51201" lon="2.0876787">
        <ele>164.0</ele>
        <time>2022-05-19T08:27:38Z</time>
      </trkpt>
      <trkpt lat="47.51201" lon="2.0876787">
        <ele>164.0</ele>
        <time>2022-05-19T08:27:39Z</time>
      </trkpt>
      <trkpt lat="47.51201" lon="2.0876787">
        <ele>164.0</ele>
        <time>2022-05-19T08:27:40Z</time>
      </trkpt>
      <trkpt lat="47.511993" lon="2.087637">
        <ele>164.0</ele>
        <time>2022-05-19T08:27:41Z</time>
      </trkpt>
      <trkpt lat="47.511993" lon="2.087619">
        <ele>165.0</ele>
        <time>2022-05-19T08:27:42Z</time>
      </trkpt>
      <trkpt lat="47.511986" lon="2.0876045">
        <ele>165.0</ele>
        <time>2022-05-19T08:27:43Z</time>
      </trkpt>
      <trkpt lat="47.511982" lon="2.0875885">
        <ele>164.0</ele>
        <time>2022-05-19T08:27:44Z</time>
      </trkpt>
      <trkpt lat="47.511974" lon="2.0875716">
        <ele>165.0</ele>
        <time>2022-05-19T08:27:45Z</time>
      </trkpt>
      <trkpt lat="47.511974" lon="2.0875533">
        <ele>165.0</ele>
        <time>2022-05-19T08:27:46Z</time>
      </trkpt>
      <trkpt lat="47.511963" lon="2.087539">
        <ele>165.0</ele>
        <time>2022-05-19T08:27:47Z</time>
      </trkpt>
      <trkpt lat="47.51196" lon="2.087521">
        <ele>164.0</ele>
        <time>2022-05-19T08:27:48Z</time>
      </trkpt>
      <trkpt lat="47.511948" lon="2.087506">
        <ele>164.0</ele>
        <time>2022-05-19T08:27:49Z</time>
      </trkpt>
      <trkpt lat="47.51194" lon="2.087495">
        <ele>164.0</ele>
        <time>2022-05-19T08:27:50Z</time>
      </trkpt>
      <trkpt lat="47.511932" lon="2.0874803">
        <ele>164.0</ele>
        <time>2022-05-19T08:27:51Z</time>
      </trkpt>
      <trkpt lat="47.511932" lon="2.0874803">
        <ele>164.0</ele>
        <time>2022-05-19T08:27:52Z</time>
      </trkpt>
      <trkpt lat="47.51192" lon="2.0874588">
        <ele>164.0</ele>
        <time>2022-05-19T08:27:53Z</time>
      </trkpt>
      <trkpt lat="47.51192" lon="2.0874588">
        <ele>164.0</ele>
        <time>2022-05-19T08:27:53Z</time>
      </trkpt>
      <trkpt lat="47.51192" lon="2.0874588">
        <ele>164.0</ele>
        <time>2022-05-19T08:27:53Z</time>
      </trkpt>
      <trkpt lat="47.51191" lon="2.0874023">
        <ele>164.0</ele>
        <time>2022-05-19T08:27:56Z</time>
      </trkpt>
      <trkpt lat="47.511894" lon="2.0873468">
        <ele>164.0</ele>
        <time>2022-05-19T08:27:58Z</time>
      </trkpt>
      <trkpt lat="47.51181" lon="2.087193">
        <ele>168.0</ele>
        <time>2022-05-19T08:28:09Z</time>
      </trkpt>
      <trkpt lat="47.511795" lon="2.0871317">
        <ele>167.0</ele>
        <time>2022-05-19T08:28:13Z</time>
      </trkpt>
      <trkpt lat="47.511784" lon="2.087092">
        <ele>167.0</ele>
        <time>2022-05-19T08:28:15Z</time>
      </trkpt>
      <trkpt lat="47.511776" lon="2.0870583">
        <ele>167.0</ele>
        <time>2022-05-19T08:28:19Z</time>
      </trkpt>
      <trkpt lat="47.511776" lon="2.0870433">
        <ele>168.0</ele>
        <time>2022-05-19T08:28:20Z</time>
      </trkpt>
      <trkpt lat="47.511776" lon="2.0870314">
        <ele>168.0</ele>
        <time>2022-05-19T08:28:21Z</time>
      </trkpt>
      <trkpt lat="47.511776" lon="2.0870314">
        <ele>168.0</ele>
        <time>2022-05-19T08:28:21Z</time>
      </trkpt>
      <trkpt lat="47.511776" lon="2.0870314">
        <ele>168.0</ele>
        <time>2022-05-19T08:28:21Z</time>
      </trkpt>
      <trkpt lat="47.511753" lon="2.0869713">
        <ele>168.0</ele>
        <time>2022-05-19T08:28:25Z</time>
      </trkpt>
      <trkpt lat="47.51174" lon="2.0868762">
        <ele>168.0</ele>
        <time>2022-05-19T08:28:30Z</time>
      </trkpt>
      <trkpt lat="47.51174" lon="2.0868595">
        <ele>169.0</ele>
        <time>2022-05-19T08:28:31Z</time>
      </trkpt>
      <trkpt lat="47.511738" lon="2.0868347">
        <ele>169.0</ele>
        <time>2022-05-19T08:28:32Z</time>
      </trkpt>
      <trkpt lat="47.5117" lon="2.0867279">
        <ele>169.0</ele>
        <time>2022-05-19T08:28:37Z</time>
      </trkpt>
      <trkpt lat="47.51167" lon="2.0866442">
        <ele>169.0</ele>
        <time>2022-05-19T08:28:40Z</time>
      </trkpt>
      <trkpt lat="47.511665" lon="2.0866122">
        <ele>169.0</ele>
        <time>2022-05-19T08:28:47Z</time>
      </trkpt>
      <trkpt lat="47.511642" lon="2.0865083">
        <ele>168.0</ele>
        <time>2022-05-19T08:28:51Z</time>
      </trkpt>
      <trkpt lat="47.511654" lon="2.0864553">
        <ele>168.0</ele>
        <time>2022-05-19T08:28:57Z</time>
      </trkpt>
      <trkpt lat="47.511677" lon="2.0864122">
        <ele>169.0</ele>
        <time>2022-05-19T08:28:59Z</time>
      </trkpt>
      <trkpt lat="47.511642" lon="2.0863245">
        <ele>168.0</ele>
        <time>2022-05-19T08:29:06Z</time>
      </trkpt>
      <trkpt lat="47.51163" lon="2.0862467">
        <ele>167.0</ele>
        <time>2022-05-19T08:29:09Z</time>
      </trkpt>
      <trkpt lat="47.511623" lon="2.086226">
        <ele>166.0</ele>
        <time>2022-05-19T08:29:10Z</time>
      </trkpt>
      <trkpt lat="47.511616" lon="2.0862093">
        <ele>166.0</ele>
        <time>2022-05-19T08:29:11Z</time>
      </trkpt>
      <trkpt lat="47.511616" lon="2.0862093">
        <ele>166.0</ele>
        <time>2022-05-19T08:29:11Z</time>
      </trkpt>
      <trkpt lat="47.51161" lon="2.0861957">
        <ele>166.0</ele>
        <time>2022-05-19T08:29:13Z</time>
      </trkpt>
      <trkpt lat="47.5116" lon="2.0861485">
        <ele>166.0</ele>
        <time>2022-05-19T08:29:16Z</time>
      </trkpt>
      <trkpt lat="47.5116" lon="2.0861485">
        <ele>166.0</ele>
        <time>2022-05-19T08:29:16Z</time>
      </trkpt>
      <trkpt lat="47.511597" lon="2.086106">
        <ele>166.0</ele>
        <time>2022-05-19T08:29:17Z</time>
      </trkpt>
      <trkpt lat="47.51159" lon="2.086093">
        <ele>166.0</ele>
        <time>2022-05-19T08:29:18Z</time>
      </trkpt>
      <trkpt lat="47.51159" lon="2.086093">
        <ele>166.0</ele>
        <time>2022-05-19T08:29:18Z</time>
      </trkpt>
      <trkpt lat="47.51158" lon="2.0860472">
        <ele>165.0</ele>
        <time>2022-05-19T08:29:21Z</time>
      </trkpt>
      <trkpt lat="47.51155" lon="2.0860012">
        <ele>165.0</ele>
        <time>2022-05-19T08:29:24Z</time>
      </trkpt>
      <trkpt lat="47.511536" lon="2.0859776">
        <ele>164.0</ele>
        <time>2022-05-19T08:29:26Z</time>
      </trkpt>
      <trkpt lat="47.511536" lon="2.0859776">
        <ele>164.0</ele>
        <time>2022-05-19T08:29:26Z</time>
      </trkpt>
      <trkpt lat="47.511517" lon="2.0859392">
        <ele>164.0</ele>
        <time>2022-05-19T08:29:28Z</time>
      </trkpt>
      <trkpt lat="47.51153" lon="2.0859017">
        <ele>164.0</ele>
        <time>2022-05-19T08:29:30Z</time>
      </trkpt>
      <trkpt lat="47.511528" lon="2.0858939">
        <ele>163.0</ele>
        <time>2022-05-19T08:29:31Z</time>
      </trkpt>
      <trkpt lat="47.511528" lon="2.0858939">
        <ele>163.0</ele>
        <time>2022-05-19T08:29:31Z</time>
      </trkpt>
      <trkpt lat="47.51152" lon="2.0858881">
        <ele>163.0</ele>
        <time>2022-05-19T08:29:33Z</time>
      </trkpt>
      <trkpt lat="47.51152" lon="2.0858881">
        <ele>163.0</ele>
        <time>2022-05-19T08:29:33Z</time>
      </trkpt>
      <trkpt lat="47.51152" lon="2.0858748">
        <ele>163.0</ele>
        <time>2022-05-19T08:29:34Z</time>
      </trkpt>
      <trkpt lat="47.511505" lon="2.0858426">
        <ele>162.0</ele>
        <time>2022-05-19T08:29:36Z</time>
      </trkpt>
      <trkpt lat="47.511505" lon="2.0858426">
        <ele>162.0</ele>
        <time>2022-05-19T08:29:36Z</time>
      </trkpt>
      <trkpt lat="47.511497" lon="2.0858254">
        <ele>162.0</ele>
        <time>2022-05-19T08:29:37Z</time>
      </trkpt>
      <trkpt lat="47.51149" lon="2.0857995">
        <ele>161.0</ele>
        <time>2022-05-19T08:29:39Z</time>
      </trkpt>
      <trkpt lat="47.511482" lon="2.0857592">
        <ele>161.0</ele>
        <time>2022-05-19T08:29:41Z</time>
      </trkpt>
      <trkpt lat="47.511475" lon="2.085729">
        <ele>160.0</ele>
        <time>2022-05-19T08:29:42Z</time>
      </trkpt>
      <trkpt lat="47.51147" lon="2.085712">
        <ele>160.0</ele>
        <time>2022-05-19T08:29:43Z</time>
      </trkpt>
      <trkpt lat="47.511467" lon="2.0856724">
        <ele>160.0</ele>
        <time>2022-05-19T08:29:45Z</time>
      </trkpt>
      <trkpt lat="47.511463" lon="2.0856452">
        <ele>160.0</ele>
        <time>2022-05-19T08:29:46Z</time>
      </trkpt>
      <trkpt lat="47.511467" lon="2.0856216">
        <ele>160.0</ele>
        <time>2022-05-19T08:29:47Z</time>
      </trkpt>
      <trkpt lat="47.51146" lon="2.0856004">
        <ele>161.0</ele>
        <time>2022-05-19T08:29:48Z</time>
      </trkpt>
      <trkpt lat="47.511456" lon="2.08558">
        <ele>161.0</ele>
        <time>2022-05-19T08:29:49Z</time>
      </trkpt>
      <trkpt lat="47.511456" lon="2.0855625">
        <ele>161.0</ele>
        <time>2022-05-19T08:29:50Z</time>
      </trkpt>
      <trkpt lat="47.51145" lon="2.0855372">
        <ele>162.0</ele>
        <time>2022-05-19T08:29:52Z</time>
      </trkpt>
      <trkpt lat="47.51145" lon="2.0855372">
        <ele>162.0</ele>
        <time>2022-05-19T08:29:53Z</time>
      </trkpt>
      <trkpt lat="47.511448" lon="2.085511">
        <ele>162.0</ele>
        <time>2022-05-19T08:29:55Z</time>
      </trkpt>
      <trkpt lat="47.511448" lon="2.0854998">
        <ele>162.0</ele>
        <time>2022-05-19T08:29:56Z</time>
      </trkpt>
      <trkpt lat="47.511433" lon="2.0854836">
        <ele>162.0</ele>
        <time>2022-05-19T08:29:58Z</time>
      </trkpt>
      <trkpt lat="47.511433" lon="2.085466">
        <ele>162.0</ele>
        <time>2022-05-19T08:29:59Z</time>
      </trkpt>
      <trkpt lat="47.51143" lon="2.0854402">
        <ele>162.0</ele>
        <time>2022-05-19T08:30:01Z</time>
      </trkpt>
      <trkpt lat="47.511417" lon="2.0854325">
        <ele>162.0</ele>
        <time>2022-05-19T08:30:02Z</time>
      </trkpt>
      <trkpt lat="47.51142" lon="2.0854123">
        <ele>163.0</ele>
        <time>2022-05-19T08:30:04Z</time>
      </trkpt>
      <trkpt lat="47.511417" lon="2.0854013">
        <ele>163.0</ele>
        <time>2022-05-19T08:30:05Z</time>
      </trkpt>
      <trkpt lat="47.511414" lon="2.0853913">
        <ele>163.0</ele>
        <time>2022-05-19T08:30:06Z</time>
      </trkpt>
      <trkpt lat="47.511402" lon="2.0853546">
        <ele>163.0</ele>
        <time>2022-05-19T08:30:08Z</time>
      </trkpt>
      <trkpt lat="47.511402" lon="2.0853274">
        <ele>163.0</ele>
        <time>2022-05-19T08:30:10Z</time>
      </trkpt>
      <trkpt lat="47.511402" lon="2.0853088">
        <ele>163.0</ele>
        <time>2022-05-19T08:30:11Z</time>
      </trkpt>
      <trkpt lat="47.5114" lon="2.0852897">
        <ele>162.0</ele>
        <time>2022-05-19T08:30:12Z</time>
      </trkpt>
      <trkpt lat="47.5114" lon="2.085273">
        <ele>162.0</ele>
        <time>2022-05-19T08:30:13Z</time>
      </trkpt>
      <trkpt lat="47.511395" lon="2.0852616">
        <ele>162.0</ele>
        <time>2022-05-19T08:30:14Z</time>
      </trkpt>
      <trkpt lat="47.511387" lon="2.0852492">
        <ele>162.0</ele>
        <time>2022-05-19T08:30:15Z</time>
      </trkpt>
      <trkpt lat="47.511387" lon="2.0852492">
        <ele>162.0</ele>
        <time>2022-05-19T08:30:16Z</time>
      </trkpt>
      <trkpt lat="47.511387" lon="2.0852492">
        <ele>162.0</ele>
        <time>2022-05-19T08:30:17Z</time>
      </trkpt>
      <trkpt lat="47.51137" lon="2.0852084">
        <ele>162.0</ele>
        <time>2022-05-19T08:30:18Z</time>
      </trkpt>
      <trkpt lat="47.51137" lon="2.0851848">
        <ele>162.0</ele>
        <time>2022-05-19T08:30:19Z</time>
      </trkpt>
      <trkpt lat="47.51138" lon="2.0851614">
        <ele>162.0</ele>
        <time>2022-05-19T08:30:20Z</time>
      </trkpt>
      <trkpt lat="47.51138" lon="2.0851388">
        <ele>162.0</ele>
        <time>2022-05-19T08:30:21Z</time>
      </trkpt>
      <trkpt lat="47.51138" lon="2.0851228">
        <ele>162.0</ele>
        <time>2022-05-19T08:30:22Z</time>
      </trkpt>
      <trkpt lat="47.511368" lon="2.0851023">
        <ele>162.0</ele>
        <time>2022-05-19T08:30:23Z</time>
      </trkpt>
      <trkpt lat="47.511364" lon="2.0850875">
        <ele>162.0</ele>
        <time>2022-05-19T08:30:24Z</time>
      </trkpt>
      <trkpt lat="47.511368" lon="2.0850704">
        <ele>162.0</ele>
        <time>2022-05-19T08:30:25Z</time>
      </trkpt>
      <trkpt lat="47.51137" lon="2.0850537">
        <ele>162.0</ele>
        <time>2022-05-19T08:30:26Z</time>
      </trkpt>
      <trkpt lat="47.511368" lon="2.0850406">
        <ele>162.0</ele>
        <time>2022-05-19T08:30:27Z</time>
      </trkpt>
      <trkpt lat="47.51137" lon="2.0850298">
        <ele>162.0</ele>
        <time>2022-05-19T08:30:31Z</time>
      </trkpt>
      <trkpt lat="47.511375" lon="2.0848722">
        <ele>162.0</ele>
        <time>2022-05-19T08:30:41Z</time>
      </trkpt>
      <trkpt lat="47.51133" lon="2.0847685">
        <ele>163.0</ele>
        <time>2022-05-19T08:30:43Z</time>
      </trkpt>
      <trkpt lat="47.51132" lon="2.084729">
        <ele>163.0</ele>
        <time>2022-05-19T08:30:46Z</time>
      </trkpt>
      <trkpt lat="47.511303" lon="2.0846882">
        <ele>163.0</ele>
        <time>2022-05-19T08:30:48Z</time>
      </trkpt>
      <trkpt lat="47.5113" lon="2.0846767">
        <ele>163.0</ele>
        <time>2022-05-19T08:30:49Z</time>
      </trkpt>
      <trkpt lat="47.51128" lon="2.084623">
        <ele>162.0</ele>
        <time>2022-05-19T08:30:55Z</time>
      </trkpt>
      <trkpt lat="47.511246" lon="2.0845442">
        <ele>162.0</ele>
        <time>2022-05-19T08:31:01Z</time>
      </trkpt>
      <trkpt lat="47.511227" lon="2.0844104">
        <ele>163.0</ele>
        <time>2022-05-19T08:31:13Z</time>
      </trkpt>
      <trkpt lat="47.511192" lon="2.0841908">
        <ele>159.0</ele>
        <time>2022-05-19T08:31:20Z</time>
      </trkpt>
      <trkpt lat="47.51118" lon="2.0841253">
        <ele>157.0</ele>
        <time>2022-05-19T08:31:28Z</time>
      </trkpt>
      <trkpt lat="47.511177" lon="2.0840662">
        <ele>157.0</ele>
        <time>2022-05-19T08:31:31Z</time>
      </trkpt>
      <trkpt lat="47.511208" lon="2.0838783">
        <ele>156.0</ele>
        <time>2022-05-19T08:31:40Z</time>
      </trkpt>
      <trkpt lat="47.511208" lon="2.0838542">
        <ele>157.0</ele>
        <time>2022-05-19T08:31:41Z</time>
      </trkpt>
      <trkpt lat="47.511177" lon="2.0837283">
        <ele>158.0</ele>
        <time>2022-05-19T08:31:45Z</time>
      </trkpt>
      <trkpt lat="47.511177" lon="2.0837011">
        <ele>158.0</ele>
        <time>2022-05-19T08:31:46Z</time>
      </trkpt>
      <trkpt lat="47.511166" lon="2.0835588">
        <ele>159.0</ele>
        <time>2022-05-19T08:31:52Z</time>
      </trkpt>
      <trkpt lat="47.511154" lon="2.0834467">
        <ele>160.0</ele>
        <time>2022-05-19T08:31:58Z</time>
      </trkpt>
      <trkpt lat="47.511127" lon="2.0833738">
        <ele>160.0</ele>
        <time>2022-05-19T08:32:02Z</time>
      </trkpt>
      <trkpt lat="47.511112" lon="2.083339">
        <ele>161.0</ele>
        <time>2022-05-19T08:32:04Z</time>
      </trkpt>
      <trkpt lat="47.511105" lon="2.0833032">
        <ele>162.0</ele>
        <time>2022-05-19T08:32:06Z</time>
      </trkpt>
      <trkpt lat="47.51111" lon="2.0832458">
        <ele>162.0</ele>
        <time>2022-05-19T08:32:10Z</time>
      </trkpt>
      <trkpt lat="47.511093" lon="2.0831351">
        <ele>164.0</ele>
        <time>2022-05-19T08:32:16Z</time>
      </trkpt>
      <trkpt lat="47.511086" lon="2.0831072">
        <ele>164.0</ele>
        <time>2022-05-19T08:32:18Z</time>
      </trkpt>
      <trkpt lat="47.511078" lon="2.0830417">
        <ele>164.0</ele>
        <time>2022-05-19T08:32:19Z</time>
      </trkpt>
      <trkpt lat="47.51107" lon="2.0830228">
        <ele>165.0</ele>
        <time>2022-05-19T08:32:20Z</time>
      </trkpt>
      <trkpt lat="47.51107" lon="2.0830052">
        <ele>165.0</ele>
        <time>2022-05-19T08:32:21Z</time>
      </trkpt>
      <trkpt lat="47.51107" lon="2.082988">
        <ele>165.0</ele>
        <time>2022-05-19T08:32:22Z</time>
      </trkpt>
      <trkpt lat="47.51107" lon="2.0829732">
        <ele>165.0</ele>
        <time>2022-05-19T08:32:23Z</time>
      </trkpt>
      <trkpt lat="47.51107" lon="2.0829542">
        <ele>165.0</ele>
        <time>2022-05-19T08:32:24Z</time>
      </trkpt>
      <trkpt lat="47.511066" lon="2.0829322">
        <ele>164.0</ele>
        <time>2022-05-19T08:32:25Z</time>
      </trkpt>
      <trkpt lat="47.51106" lon="2.0829115">
        <ele>164.0</ele>
        <time>2022-05-19T08:32:26Z</time>
      </trkpt>
      <trkpt lat="47.51105" lon="2.0828962">
        <ele>164.0</ele>
        <time>2022-05-19T08:32:27Z</time>
      </trkpt>
      <trkpt lat="47.511047" lon="2.0828865">
        <ele>163.0</ele>
        <time>2022-05-19T08:32:28Z</time>
      </trkpt>
      <trkpt lat="47.511044" lon="2.0828705">
        <ele>163.0</ele>
        <time>2022-05-19T08:32:29Z</time>
      </trkpt>
      <trkpt lat="47.51104" lon="2.0828507">
        <ele>164.0</ele>
        <time>2022-05-19T08:32:30Z</time>
      </trkpt>
      <trkpt lat="47.511036" lon="2.0828373">
        <ele>164.0</ele>
        <time>2022-05-19T08:32:31Z</time>
      </trkpt>
      <trkpt lat="47.511036" lon="2.0828238">
        <ele>165.0</ele>
        <time>2022-05-19T08:32:32Z</time>
      </trkpt>
      <trkpt lat="47.511036" lon="2.0828178">
        <ele>165.0</ele>
        <time>2022-05-19T08:32:33Z</time>
      </trkpt>
      <trkpt lat="47.511036" lon="2.0828178">
        <ele>165.0</ele>
        <time>2022-05-19T08:32:34Z</time>
      </trkpt>
      <trkpt lat="47.51104" lon="2.0827985">
        <ele>165.0</ele>
        <time>2022-05-19T08:32:35Z</time>
      </trkpt>
      <trkpt lat="47.511032" lon="2.0827827">
        <ele>165.0</ele>
        <time>2022-05-19T08:32:36Z</time>
      </trkpt>
      <trkpt lat="47.511024" lon="2.082772">
        <ele>165.0</ele>
        <time>2022-05-19T08:32:37Z</time>
      </trkpt>
      <trkpt lat="47.51102" lon="2.0827632">
        <ele>165.0</ele>
        <time>2022-05-19T08:32:38Z</time>
      </trkpt>
      <trkpt lat="47.511013" lon="2.0827498">
        <ele>166.0</ele>
        <time>2022-05-19T08:32:39Z</time>
      </trkpt>
      <trkpt lat="47.51101" lon="2.0827365">
        <ele>166.0</ele>
        <time>2022-05-19T08:32:40Z</time>
      </trkpt>
      <trkpt lat="47.511005" lon="2.0827236">
        <ele>166.0</ele>
        <time>2022-05-19T08:32:41Z</time>
      </trkpt>
      <trkpt lat="47.510994" lon="2.0827117">
        <ele>166.0</ele>
        <time>2022-05-19T08:32:42Z</time>
      </trkpt>
      <trkpt lat="47.510986" lon="2.0826967">
        <ele>167.0</ele>
        <time>2022-05-19T08:32:43Z</time>
      </trkpt>
      <trkpt lat="47.510983" lon="2.0826817">
        <ele>167.0</ele>
        <time>2022-05-19T08:32:44Z</time>
      </trkpt>
      <trkpt lat="47.510983" lon="2.0826645">
        <ele>167.0</ele>
        <time>2022-05-19T08:32:45Z</time>
      </trkpt>
      <trkpt lat="47.51098" lon="2.0826507">
        <ele>167.0</ele>
        <time>2022-05-19T08:32:46Z</time>
      </trkpt>
      <trkpt lat="47.51098" lon="2.0826313">
        <ele>167.0</ele>
        <time>2022-05-19T08:32:47Z</time>
      </trkpt>
      <trkpt lat="47.510983" lon="2.082616">
        <ele>167.0</ele>
        <time>2022-05-19T08:32:48Z</time>
      </trkpt>
      <trkpt lat="47.510983" lon="2.0826004">
        <ele>167.0</ele>
        <time>2022-05-19T08:32:49Z</time>
      </trkpt>
      <trkpt lat="47.510983" lon="2.0825803">
        <ele>167.0</ele>
        <time>2022-05-19T08:32:50Z</time>
      </trkpt>
      <trkpt lat="47.510983" lon="2.0825803">
        <ele>167.0</ele>
        <time>2022-05-19T08:32:50Z</time>
      </trkpt>
      <trkpt lat="47.51097" lon="2.0825493">
        <ele>167.0</ele>
        <time>2022-05-19T08:32:53Z</time>
      </trkpt>
      <trkpt lat="47.510963" lon="2.082533">
        <ele>168.0</ele>
        <time>2022-05-19T08:32:54Z</time>
      </trkpt>
      <trkpt lat="47.510956" lon="2.0825205">
        <ele>167.0</ele>
        <time>2022-05-19T08:32:55Z</time>
      </trkpt>
      <trkpt lat="47.510956" lon="2.0825205">
        <ele>167.0</ele>
        <time>2022-05-19T08:32:55Z</time>
      </trkpt>
      <trkpt lat="47.510944" lon="2.082488">
        <ele>168.0</ele>
        <time>2022-05-19T08:32:57Z</time>
      </trkpt>
      <trkpt lat="47.51094" lon="2.0824578">
        <ele>168.0</ele>
        <time>2022-05-19T08:32:58Z</time>
      </trkpt>
      <trkpt lat="47.51093" lon="2.0824249">
        <ele>169.0</ele>
        <time>2022-05-19T08:32:59Z</time>
      </trkpt>
      <trkpt lat="47.510918" lon="2.0823925">
        <ele>169.0</ele>
        <time>2022-05-19T08:33:00Z</time>
      </trkpt>
      <trkpt lat="47.510868" lon="2.082294">
        <ele>167.0</ele>
        <time>2022-05-19T08:33:05Z</time>
      </trkpt>
      <trkpt lat="47.510853" lon="2.0822668">
        <ele>168.0</ele>
        <time>2022-05-19T08:33:07Z</time>
      </trkpt>
      <trkpt lat="47.510845" lon="2.0822325">
        <ele>168.0</ele>
        <time>2022-05-19T08:33:08Z</time>
      </trkpt>
      <trkpt lat="47.510826" lon="2.0822031">
        <ele>168.0</ele>
        <time>2022-05-19T08:33:11Z</time>
      </trkpt>
      <trkpt lat="47.510822" lon="2.0821872">
        <ele>168.0</ele>
        <time>2022-05-19T08:33:12Z</time>
      </trkpt>
      <trkpt lat="47.510822" lon="2.0821726">
        <ele>168.0</ele>
        <time>2022-05-19T08:33:13Z</time>
      </trkpt>
      <trkpt lat="47.510822" lon="2.0821605">
        <ele>167.0</ele>
        <time>2022-05-19T08:33:14Z</time>
      </trkpt>
      <trkpt lat="47.51082" lon="2.0821414">
        <ele>168.0</ele>
        <time>2022-05-19T08:33:15Z</time>
      </trkpt>
      <trkpt lat="47.510815" lon="2.082124">
        <ele>168.0</ele>
        <time>2022-05-19T08:33:16Z</time>
      </trkpt>
      <trkpt lat="47.510807" lon="2.0820732">
        <ele>168.0</ele>
        <time>2022-05-19T08:33:19Z</time>
      </trkpt>
      <trkpt lat="47.510815" lon="2.0820425">
        <ele>168.0</ele>
        <time>2022-05-19T08:33:21Z</time>
      </trkpt>
      <trkpt lat="47.510815" lon="2.0820425">
        <ele>168.0</ele>
        <time>2022-05-19T08:33:21Z</time>
      </trkpt>
      <trkpt lat="47.51082" lon="2.0820267">
        <ele>168.0</ele>
        <time>2022-05-19T08:33:23Z</time>
      </trkpt>
      <trkpt lat="47.510796" lon="2.0819652">
        <ele>167.0</ele>
        <time>2022-05-19T08:33:26Z</time>
      </trkpt>
      <trkpt lat="47.510788" lon="2.0819402">
        <ele>168.0</ele>
        <time>2022-05-19T08:33:28Z</time>
      </trkpt>
      <trkpt lat="47.510788" lon="2.0819402">
        <ele>168.0</ele>
        <time>2022-05-19T08:33:30Z</time>
      </trkpt>
      <trkpt lat="47.510777" lon="2.081879">
        <ele>168.0</ele>
        <time>2022-05-19T08:33:33Z</time>
      </trkpt>
      <trkpt lat="47.51073" lon="2.0818214">
        <ele>168.0</ele>
        <time>2022-05-19T08:33:37Z</time>
      </trkpt>
      <trkpt lat="47.510727" lon="2.081808">
        <ele>169.0</ele>
        <time>2022-05-19T08:33:39Z</time>
      </trkpt>
      <trkpt lat="47.510723" lon="2.0817952">
        <ele>169.0</ele>
        <time>2022-05-19T08:33:41Z</time>
      </trkpt>
      <trkpt lat="47.510715" lon="2.0816958">
        <ele>171.0</ele>
        <time>2022-05-19T08:33:45Z</time>
      </trkpt>
      <trkpt lat="47.510715" lon="2.0816958">
        <ele>171.0</ele>
        <time>2022-05-19T08:33:45Z</time>
      </trkpt>
      <trkpt lat="47.510708" lon="2.0816808">
        <ele>172.0</ele>
        <time>2022-05-19T08:33:47Z</time>
      </trkpt>
      <trkpt lat="47.510693" lon="2.0816453">
        <ele>172.0</ele>
        <time>2022-05-19T08:33:48Z</time>
      </trkpt>
      <trkpt lat="47.510693" lon="2.0816276">
        <ele>172.0</ele>
        <time>2022-05-19T08:33:49Z</time>
      </trkpt>
      <trkpt lat="47.510696" lon="2.0816135">
        <ele>172.0</ele>
        <time>2022-05-19T08:33:51Z</time>
      </trkpt>
      <trkpt lat="47.5107" lon="2.0815816">
        <ele>172.0</ele>
        <time>2022-05-19T08:33:52Z</time>
      </trkpt>
      <trkpt lat="47.51069" lon="2.0815473">
        <ele>172.0</ele>
        <time>2022-05-19T08:33:54Z</time>
      </trkpt>
      <trkpt lat="47.510677" lon="2.0815046">
        <ele>171.0</ele>
        <time>2022-05-19T08:33:58Z</time>
      </trkpt>
      <trkpt lat="47.510674" lon="2.0814524">
        <ele>171.0</ele>
        <time>2022-05-19T08:34:01Z</time>
      </trkpt>
      <trkpt lat="47.510674" lon="2.0814524">
        <ele>171.0</ele>
        <time>2022-05-19T08:34:01Z</time>
      </trkpt>
      <trkpt lat="47.510674" lon="2.081435">
        <ele>172.0</ele>
        <time>2022-05-19T08:34:03Z</time>
      </trkpt>
      <trkpt lat="47.510677" lon="2.0814154">
        <ele>172.0</ele>
        <time>2022-05-19T08:34:05Z</time>
      </trkpt>
      <trkpt lat="47.510677" lon="2.0814154">
        <ele>172.0</ele>
        <time>2022-05-19T08:34:07Z</time>
      </trkpt>
      <trkpt lat="47.510677" lon="2.0813735">
        <ele>172.0</ele>
        <time>2022-05-19T08:34:09Z</time>
      </trkpt>
      <trkpt lat="47.51067" lon="2.081278">
        <ele>171.0</ele>
        <time>2022-05-19T08:34:13Z</time>
      </trkpt>
      <trkpt lat="47.51067" lon="2.081254">
        <ele>171.0</ele>
        <time>2022-05-19T08:34:14Z</time>
      </trkpt>
      <trkpt lat="47.51067" lon="2.0812335">
        <ele>171.0</ele>
        <time>2022-05-19T08:34:15Z</time>
      </trkpt>
      <trkpt lat="47.51067" lon="2.0812168">
        <ele>171.0</ele>
        <time>2022-05-19T08:34:16Z</time>
      </trkpt>
      <trkpt lat="47.510666" lon="2.081206">
        <ele>171.0</ele>
        <time>2022-05-19T08:34:17Z</time>
      </trkpt>
      <trkpt lat="47.51066" lon="2.081196">
        <ele>171.0</ele>
        <time>2022-05-19T08:34:18Z</time>
      </trkpt>
      <trkpt lat="47.51065" lon="2.0811846">
        <ele>171.0</ele>
        <time>2022-05-19T08:34:19Z</time>
      </trkpt>
      <trkpt lat="47.510647" lon="2.081169">
        <ele>171.0</ele>
        <time>2022-05-19T08:34:20Z</time>
      </trkpt>
      <trkpt lat="47.510635" lon="2.0811563">
        <ele>171.0</ele>
        <time>2022-05-19T08:34:21Z</time>
      </trkpt>
      <trkpt lat="47.51063" lon="2.0811446">
        <ele>170.0</ele>
        <time>2022-05-19T08:34:23Z</time>
      </trkpt>
      <trkpt lat="47.51063" lon="2.0811446">
        <ele>170.0</ele>
        <time>2022-05-19T08:34:23Z</time>
      </trkpt>
      <trkpt lat="47.510586" lon="2.0810792">
        <ele>170.0</ele>
        <time>2022-05-19T08:34:26Z</time>
      </trkpt>
      <trkpt lat="47.510563" lon="2.081028">
        <ele>170.0</ele>
        <time>2022-05-19T08:34:30Z</time>
      </trkpt>
      <trkpt lat="47.510563" lon="2.080993">
        <ele>170.0</ele>
        <time>2022-05-19T08:34:31Z</time>
      </trkpt>
      <trkpt lat="47.510563" lon="2.0809727">
        <ele>170.0</ele>
        <time>2022-05-19T08:34:33Z</time>
      </trkpt>
      <trkpt lat="47.510563" lon="2.0809567">
        <ele>170.0</ele>
        <time>2022-05-19T08:34:34Z</time>
      </trkpt>
      <trkpt lat="47.510563" lon="2.080939">
        <ele>170.0</ele>
        <time>2022-05-19T08:34:35Z</time>
      </trkpt>
      <trkpt lat="47.510563" lon="2.080939">
        <ele>170.0</ele>
        <time>2022-05-19T08:34:35Z</time>
      </trkpt>
      <trkpt lat="47.510548" lon="2.0809126">
        <ele>170.0</ele>
        <time>2022-05-19T08:34:36Z</time>
      </trkpt>
      <trkpt lat="47.510548" lon="2.0809126">
        <ele>170.0</ele>
        <time>2022-05-19T08:34:36Z</time>
      </trkpt>
      <trkpt lat="47.51053" lon="2.08086">
        <ele>171.0</ele>
        <time>2022-05-19T08:34:39Z</time>
      </trkpt>
      <trkpt lat="47.51052" lon="2.0808208">
        <ele>171.0</ele>
        <time>2022-05-19T08:34:41Z</time>
      </trkpt>
      <trkpt lat="47.510483" lon="2.080749">
        <ele>169.0</ele>
        <time>2022-05-19T08:34:45Z</time>
      </trkpt>
      <trkpt lat="47.510475" lon="2.0807388">
        <ele>169.0</ele>
        <time>2022-05-19T08:34:46Z</time>
      </trkpt>
      <trkpt lat="47.510475" lon="2.0807388">
        <ele>169.0</ele>
        <time>2022-05-19T08:34:46Z</time>
      </trkpt>
      <trkpt lat="47.51047" lon="2.0807238">
        <ele>169.0</ele>
        <time>2022-05-19T08:34:48Z</time>
      </trkpt>
      <trkpt lat="47.510456" lon="2.0806937">
        <ele>168.0</ele>
        <time>2022-05-19T08:34:50Z</time>
      </trkpt>
      <trkpt lat="47.510456" lon="2.08068">
        <ele>169.0</ele>
        <time>2022-05-19T08:34:51Z</time>
      </trkpt>
      <trkpt lat="47.510456" lon="2.08068">
        <ele>169.0</ele>
        <time>2022-05-19T08:34:51Z</time>
      </trkpt>
      <trkpt lat="47.510452" lon="2.0806627">
        <ele>168.0</ele>
        <time>2022-05-19T08:34:52Z</time>
      </trkpt>
      <trkpt lat="47.51044" lon="2.0806484">
        <ele>169.0</ele>
        <time>2022-05-19T08:34:53Z</time>
      </trkpt>
      <trkpt lat="47.51043" lon="2.0806324">
        <ele>169.0</ele>
        <time>2022-05-19T08:34:54Z</time>
      </trkpt>
      <trkpt lat="47.51043" lon="2.0806165">
        <ele>169.0</ele>
        <time>2022-05-19T08:34:55Z</time>
      </trkpt>
      <trkpt lat="47.510426" lon="2.080607">
        <ele>169.0</ele>
        <time>2022-05-19T08:34:56Z</time>
      </trkpt>
      <trkpt lat="47.510426" lon="2.0805962">
        <ele>169.0</ele>
        <time>2022-05-19T08:34:57Z</time>
      </trkpt>
      <trkpt lat="47.510426" lon="2.0805962">
        <ele>169.0</ele>
        <time>2022-05-19T08:34:57Z</time>
      </trkpt>
      <trkpt lat="47.51041" lon="2.0805445">
        <ele>169.0</ele>
        <time>2022-05-19T08:35:00Z</time>
      </trkpt>
      <trkpt lat="47.510406" lon="2.0805285">
        <ele>169.0</ele>
        <time>2022-05-19T08:35:01Z</time>
      </trkpt>
      <trkpt lat="47.510403" lon="2.080517">
        <ele>169.0</ele>
        <time>2022-05-19T08:35:02Z</time>
      </trkpt>
      <trkpt lat="47.51039" lon="2.0804858">
        <ele>169.0</ele>
        <time>2022-05-19T08:35:03Z</time>
      </trkpt>
      <trkpt lat="47.510387" lon="2.0804687">
        <ele>168.0</ele>
        <time>2022-05-19T08:35:04Z</time>
      </trkpt>
      <trkpt lat="47.510376" lon="2.0804384">
        <ele>168.0</ele>
        <time>2022-05-19T08:35:06Z</time>
      </trkpt>
      <trkpt lat="47.510372" lon="2.0804155">
        <ele>169.0</ele>
        <time>2022-05-19T08:35:07Z</time>
      </trkpt>
      <trkpt lat="47.510372" lon="2.080398">
        <ele>169.0</ele>
        <time>2022-05-19T08:35:08Z</time>
      </trkpt>
      <trkpt lat="47.51037" lon="2.0803778">
        <ele>169.0</ele>
        <time>2022-05-19T08:35:09Z</time>
      </trkpt>
      <trkpt lat="47.510353" lon="2.0803285">
        <ele>168.0</ele>
        <time>2022-05-19T08:35:13Z</time>
      </trkpt>
      <trkpt lat="47.510345" lon="2.0803194">
        <ele>168.0</ele>
        <time>2022-05-19T08:35:14Z</time>
      </trkpt>
      <trkpt lat="47.51034" lon="2.0803099">
        <ele>168.0</ele>
        <time>2022-05-19T08:35:15Z</time>
      </trkpt>
      <trkpt lat="47.510334" lon="2.0802963">
        <ele>169.0</ele>
        <time>2022-05-19T08:35:16Z</time>
      </trkpt>
      <trkpt lat="47.510334" lon="2.0802848">
        <ele>169.0</ele>
        <time>2022-05-19T08:35:17Z</time>
      </trkpt>
      <trkpt lat="47.510326" lon="2.080258">
        <ele>168.0</ele>
        <time>2022-05-19T08:35:18Z</time>
      </trkpt>
      <trkpt lat="47.51032" lon="2.0802345">
        <ele>168.0</ele>
        <time>2022-05-19T08:35:19Z</time>
      </trkpt>
      <trkpt lat="47.51031" lon="2.0802176">
        <ele>168.0</ele>
        <time>2022-05-19T08:35:20Z</time>
      </trkpt>
      <trkpt lat="47.510303" lon="2.080195">
        <ele>168.0</ele>
        <time>2022-05-19T08:35:21Z</time>
      </trkpt>
      <trkpt lat="47.51028" lon="2.0801382">
        <ele>166.0</ele>
        <time>2022-05-19T08:35:24Z</time>
      </trkpt>
      <trkpt lat="47.510273" lon="2.08012">
        <ele>166.0</ele>
        <time>2022-05-19T08:35:25Z</time>
      </trkpt>
      <trkpt lat="47.510265" lon="2.0800805">
        <ele>166.0</ele>
        <time>2022-05-19T08:35:27Z</time>
      </trkpt>
      <trkpt lat="47.510258" lon="2.0800488">
        <ele>166.0</ele>
        <time>2022-05-19T08:35:29Z</time>
      </trkpt>
      <trkpt lat="47.510246" lon="2.0800326">
        <ele>166.0</ele>
        <time>2022-05-19T08:35:30Z</time>
      </trkpt>
      <trkpt lat="47.510246" lon="2.0800326">
        <ele>166.0</ele>
        <time>2022-05-19T08:35:30Z</time>
      </trkpt>
      <trkpt lat="47.510235" lon="2.0799973">
        <ele>166.0</ele>
        <time>2022-05-19T08:35:32Z</time>
      </trkpt>
      <trkpt lat="47.51022" lon="2.0799677">
        <ele>167.0</ele>
        <time>2022-05-19T08:35:34Z</time>
      </trkpt>
      <trkpt lat="47.51022" lon="2.0799522">
        <ele>167.0</ele>
        <time>2022-05-19T08:35:35Z</time>
      </trkpt>
      <trkpt lat="47.51022" lon="2.0799336">
        <ele>168.0</ele>
        <time>2022-05-19T08:35:36Z</time>
      </trkpt>
      <trkpt lat="47.510216" lon="2.079916">
        <ele>168.0</ele>
        <time>2022-05-19T08:35:37Z</time>
      </trkpt>
      <trkpt lat="47.510212" lon="2.079901">
        <ele>168.0</ele>
        <time>2022-05-19T08:35:38Z</time>
      </trkpt>
      <trkpt lat="47.51021" lon="2.0798755">
        <ele>168.0</ele>
        <time>2022-05-19T08:35:39Z</time>
      </trkpt>
      <trkpt lat="47.510204" lon="2.07983">
        <ele>168.0</ele>
        <time>2022-05-19T08:35:41Z</time>
      </trkpt>
      <trkpt lat="47.510204" lon="2.07983">
        <ele>168.0</ele>
        <time>2022-05-19T08:35:41Z</time>
      </trkpt>
      <trkpt lat="47.510204" lon="2.0798166">
        <ele>168.0</ele>
        <time>2022-05-19T08:35:42Z</time>
      </trkpt>
      <trkpt lat="47.510193" lon="2.0797868">
        <ele>168.0</ele>
        <time>2022-05-19T08:35:44Z</time>
      </trkpt>
      <trkpt lat="47.51019" lon="2.079774">
        <ele>168.0</ele>
        <time>2022-05-19T08:35:45Z</time>
      </trkpt>
      <trkpt lat="47.510185" lon="2.0797582">
        <ele>167.0</ele>
        <time>2022-05-19T08:35:46Z</time>
      </trkpt>
      <trkpt lat="47.510185" lon="2.0797582">
        <ele>167.0</ele>
        <time>2022-05-19T08:35:46Z</time>
      </trkpt>
      <trkpt lat="47.510178" lon="2.079705">
        <ele>168.0</ele>
        <time>2022-05-19T08:35:48Z</time>
      </trkpt>
      <trkpt lat="47.51017" lon="2.0796905">
        <ele>168.0</ele>
        <time>2022-05-19T08:35:49Z</time>
      </trkpt>
      <trkpt lat="47.510166" lon="2.0796707">
        <ele>168.0</ele>
        <time>2022-05-19T08:35:50Z</time>
      </trkpt>
      <trkpt lat="47.510166" lon="2.0796611">
        <ele>168.0</ele>
        <time>2022-05-19T08:35:51Z</time>
      </trkpt>
      <trkpt lat="47.510162" lon="2.0796432">
        <ele>168.0</ele>
        <time>2022-05-19T08:35:52Z</time>
      </trkpt>
      <trkpt lat="47.510162" lon="2.0796266">
        <ele>168.0</ele>
        <time>2022-05-19T08:35:53Z</time>
      </trkpt>
      <trkpt lat="47.51016" lon="2.0796092">
        <ele>168.0</ele>
        <time>2022-05-19T08:35:54Z</time>
      </trkpt>
      <trkpt lat="47.510155" lon="2.0795944">
        <ele>167.0</ele>
        <time>2022-05-19T08:35:55Z</time>
      </trkpt>
      <trkpt lat="47.51015" lon="2.079577">
        <ele>166.0</ele>
        <time>2022-05-19T08:35:56Z</time>
      </trkpt>
      <trkpt lat="47.510147" lon="2.0795565">
        <ele>166.0</ele>
        <time>2022-05-19T08:35:57Z</time>
      </trkpt>
      <trkpt lat="47.510143" lon="2.0795436">
        <ele>165.0</ele>
        <time>2022-05-19T08:35:58Z</time>
      </trkpt>
      <trkpt lat="47.510143" lon="2.0795436">
        <ele>165.0</ele>
        <time>2022-05-19T08:35:58Z</time>
      </trkpt>
      <trkpt lat="47.51014" lon="2.0795162">
        <ele>165.0</ele>
        <time>2022-05-19T08:36:01Z</time>
      </trkpt>
      <trkpt lat="47.510136" lon="2.0795014">
        <ele>165.0</ele>
        <time>2022-05-19T08:36:02Z</time>
      </trkpt>
      <trkpt lat="47.51013" lon="2.0794876">
        <ele>165.0</ele>
        <time>2022-05-19T08:36:03Z</time>
      </trkpt>
      <trkpt lat="47.510128" lon="2.0794735">
        <ele>165.0</ele>
        <time>2022-05-19T08:36:04Z</time>
      </trkpt>
      <trkpt lat="47.510128" lon="2.0794573">
        <ele>166.0</ele>
        <time>2022-05-19T08:36:05Z</time>
      </trkpt>
      <trkpt lat="47.510124" lon="2.0794437">
        <ele>166.0</ele>
        <time>2022-05-19T08:36:06Z</time>
      </trkpt>
      <trkpt lat="47.510117" lon="2.079429">
        <ele>167.0</ele>
        <time>2022-05-19T08:36:07Z</time>
      </trkpt>
      <trkpt lat="47.51011" lon="2.0794182">
        <ele>167.0</ele>
        <time>2022-05-19T08:36:08Z</time>
      </trkpt>
      <trkpt lat="47.510105" lon="2.079402">
        <ele>168.0</ele>
        <time>2022-05-19T08:36:09Z</time>
      </trkpt>
      <trkpt lat="47.510105" lon="2.0793848">
        <ele>169.0</ele>
        <time>2022-05-19T08:36:10Z</time>
      </trkpt>
      <trkpt lat="47.510098" lon="2.0793664">
        <ele>169.0</ele>
        <time>2022-05-19T08:36:11Z</time>
      </trkpt>
      <trkpt lat="47.510098" lon="2.0793433">
        <ele>170.0</ele>
        <time>2022-05-19T08:36:12Z</time>
      </trkpt>
      <trkpt lat="47.510094" lon="2.0793245">
        <ele>170.0</ele>
        <time>2022-05-19T08:36:13Z</time>
      </trkpt>
      <trkpt lat="47.510094" lon="2.0793066">
        <ele>171.0</ele>
        <time>2022-05-19T08:36:14Z</time>
      </trkpt>
      <trkpt lat="47.51009" lon="2.079291">
        <ele>171.0</ele>
        <time>2022-05-19T08:36:15Z</time>
      </trkpt>
      <trkpt lat="47.510098" lon="2.0792725">
        <ele>170.0</ele>
        <time>2022-05-19T08:36:16Z</time>
      </trkpt>
      <trkpt lat="47.510098" lon="2.0792575">
        <ele>170.0</ele>
        <time>2022-05-19T08:36:17Z</time>
      </trkpt>
      <trkpt lat="47.510098" lon="2.0792353">
        <ele>170.0</ele>
        <time>2022-05-19T08:36:18Z</time>
      </trkpt>
      <trkpt lat="47.5101" lon="2.0792067">
        <ele>170.0</ele>
        <time>2022-05-19T08:36:19Z</time>
      </trkpt>
      <trkpt lat="47.510098" lon="2.0791824">
        <ele>169.0</ele>
        <time>2022-05-19T08:36:20Z</time>
      </trkpt>
      <trkpt lat="47.510086" lon="2.0791688">
        <ele>169.0</ele>
        <time>2022-05-19T08:36:21Z</time>
      </trkpt>
      <trkpt lat="47.510082" lon="2.079154">
        <ele>169.0</ele>
        <time>2022-05-19T08:36:22Z</time>
      </trkpt>
      <trkpt lat="47.510075" lon="2.079137">
        <ele>169.0</ele>
        <time>2022-05-19T08:36:23Z</time>
      </trkpt>
      <trkpt lat="47.51007" lon="2.0791194">
        <ele>169.0</ele>
        <time>2022-05-19T08:36:24Z</time>
      </trkpt>
      <trkpt lat="47.510067" lon="2.0791028">
        <ele>170.0</ele>
        <time>2022-05-19T08:36:25Z</time>
      </trkpt>
      <trkpt lat="47.510063" lon="2.07909">
        <ele>170.0</ele>
        <time>2022-05-19T08:36:26Z</time>
      </trkpt>
      <trkpt lat="47.510067" lon="2.0790746">
        <ele>171.0</ele>
        <time>2022-05-19T08:36:27Z</time>
      </trkpt>
      <trkpt lat="47.510075" lon="2.0790555">
        <ele>171.0</ele>
        <time>2022-05-19T08:36:28Z</time>
      </trkpt>
      <trkpt lat="47.51008" lon="2.0790424">
        <ele>171.0</ele>
        <time>2022-05-19T08:36:29Z</time>
      </trkpt>
      <trkpt lat="47.51008" lon="2.0790305">
        <ele>170.0</ele>
        <time>2022-05-19T08:36:30Z</time>
      </trkpt>
      <trkpt lat="47.510082" lon="2.079018">
        <ele>170.0</ele>
        <time>2022-05-19T08:36:31Z</time>
      </trkpt>
      <trkpt lat="47.510075" lon="2.0790033">
        <ele>170.0</ele>
        <time>2022-05-19T08:36:32Z</time>
      </trkpt>
      <trkpt lat="47.51007" lon="2.0789928">
        <ele>170.0</ele>
        <time>2022-05-19T08:36:33Z</time>
      </trkpt>
      <trkpt lat="47.510067" lon="2.0789785">
        <ele>170.0</ele>
        <time>2022-05-19T08:36:34Z</time>
      </trkpt>
      <trkpt lat="47.510063" lon="2.0789626">
        <ele>170.0</ele>
        <time>2022-05-19T08:36:35Z</time>
      </trkpt>
      <trkpt lat="47.51006" lon="2.0789454">
        <ele>170.0</ele>
        <time>2022-05-19T08:36:36Z</time>
      </trkpt>
      <trkpt lat="47.510056" lon="2.078927">
        <ele>171.0</ele>
        <time>2022-05-19T08:36:37Z</time>
      </trkpt>
      <trkpt lat="47.510056" lon="2.0789032">
        <ele>171.0</ele>
        <time>2022-05-19T08:36:38Z</time>
      </trkpt>
      <trkpt lat="47.51005" lon="2.078888">
        <ele>171.0</ele>
        <time>2022-05-19T08:36:39Z</time>
      </trkpt>
      <trkpt lat="47.510048" lon="2.0788667">
        <ele>171.0</ele>
        <time>2022-05-19T08:36:40Z</time>
      </trkpt>
      <trkpt lat="47.51004" lon="2.0788467">
        <ele>170.0</ele>
        <time>2022-05-19T08:36:41Z</time>
      </trkpt>
      <trkpt lat="47.510025" lon="2.078822">
        <ele>170.0</ele>
        <time>2022-05-19T08:36:42Z</time>
      </trkpt>
      <trkpt lat="47.510017" lon="2.0788028">
        <ele>169.0</ele>
        <time>2022-05-19T08:36:43Z</time>
      </trkpt>
      <trkpt lat="47.510002" lon="2.0787854">
        <ele>168.0</ele>
        <time>2022-05-19T08:36:44Z</time>
      </trkpt>
      <trkpt lat="47.50999" lon="2.0787697">
        <ele>168.0</ele>
        <time>2022-05-19T08:36:45Z</time>
      </trkpt>
      <trkpt lat="47.50998" lon="2.0787518">
        <ele>167.0</ele>
        <time>2022-05-19T08:36:46Z</time>
      </trkpt>
      <trkpt lat="47.509975" lon="2.078735">
        <ele>167.0</ele>
        <time>2022-05-19T08:36:47Z</time>
      </trkpt>
      <trkpt lat="47.50997" lon="2.0787213">
        <ele>167.0</ele>
        <time>2022-05-19T08:36:48Z</time>
      </trkpt>
      <trkpt lat="47.509964" lon="2.0787048">
        <ele>166.0</ele>
        <time>2022-05-19T08:36:49Z</time>
      </trkpt>
      <trkpt lat="47.50996" lon="2.078691">
        <ele>167.0</ele>
        <time>2022-05-19T08:36:50Z</time>
      </trkpt>
      <trkpt lat="47.509956" lon="2.07868">
        <ele>167.0</ele>
        <time>2022-05-19T08:36:51Z</time>
      </trkpt>
      <trkpt lat="47.50995" lon="2.0786662">
        <ele>167.0</ele>
        <time>2022-05-19T08:36:52Z</time>
      </trkpt>
      <trkpt lat="47.50994" lon="2.0786474">
        <ele>167.0</ele>
        <time>2022-05-19T08:36:53Z</time>
      </trkpt>
      <trkpt lat="47.50993" lon="2.0786319">
        <ele>167.0</ele>
        <time>2022-05-19T08:36:54Z</time>
      </trkpt>
      <trkpt lat="47.509922" lon="2.0786142">
        <ele>166.0</ele>
        <time>2022-05-19T08:36:55Z</time>
      </trkpt>
      <trkpt lat="47.50991" lon="2.0785983">
        <ele>166.0</ele>
        <time>2022-05-19T08:36:56Z</time>
      </trkpt>
      <trkpt lat="47.509903" lon="2.078582">
        <ele>165.0</ele>
        <time>2022-05-19T08:36:57Z</time>
      </trkpt>
      <trkpt lat="47.5099" lon="2.0785682">
        <ele>166.0</ele>
        <time>2022-05-19T08:36:58Z</time>
      </trkpt>
      <trkpt lat="47.509895" lon="2.0785537">
        <ele>166.0</ele>
        <time>2022-05-19T08:36:59Z</time>
      </trkpt>
      <trkpt lat="47.509895" lon="2.0785413">
        <ele>166.0</ele>
        <time>2022-05-19T08:37:00Z</time>
      </trkpt>
      <trkpt lat="47.509895" lon="2.0785313">
        <ele>166.0</ele>
        <time>2022-05-19T08:37:01Z</time>
      </trkpt>
      <trkpt lat="47.50989" lon="2.0785182">
        <ele>167.0</ele>
        <time>2022-05-19T08:37:02Z</time>
      </trkpt>
      <trkpt lat="47.509888" lon="2.0785036">
        <ele>167.0</ele>
        <time>2022-05-19T08:37:03Z</time>
      </trkpt>
      <trkpt lat="47.509888" lon="2.0784895">
        <ele>167.0</ele>
        <time>2022-05-19T08:37:04Z</time>
      </trkpt>
      <trkpt lat="47.509884" lon="2.0784729">
        <ele>167.0</ele>
        <time>2022-05-19T08:37:05Z</time>
      </trkpt>
      <trkpt lat="47.509888" lon="2.0784605">
        <ele>167.0</ele>
        <time>2022-05-19T08:37:06Z</time>
      </trkpt>
      <trkpt lat="47.509884" lon="2.0784461">
        <ele>167.0</ele>
        <time>2022-05-19T08:37:07Z</time>
      </trkpt>
      <trkpt lat="47.509876" lon="2.0784323">
        <ele>168.0</ele>
        <time>2022-05-19T08:37:08Z</time>
      </trkpt>
      <trkpt lat="47.50987" lon="2.0784166">
        <ele>168.0</ele>
        <time>2022-05-19T08:37:09Z</time>
      </trkpt>
      <trkpt lat="47.509865" lon="2.0783992">
        <ele>168.0</ele>
        <time>2022-05-19T08:37:10Z</time>
      </trkpt>
      <trkpt lat="47.50986" lon="2.078385">
        <ele>169.0</ele>
        <time>2022-05-19T08:37:11Z</time>
      </trkpt>
      <trkpt lat="47.509853" lon="2.0783718">
        <ele>169.0</ele>
        <time>2022-05-19T08:37:12Z</time>
      </trkpt>
      <trkpt lat="47.509846" lon="2.0783582">
        <ele>168.0</ele>
        <time>2022-05-19T08:37:13Z</time>
      </trkpt>
      <trkpt lat="47.509846" lon="2.0783582">
        <ele>168.0</ele>
        <time>2022-05-19T08:37:13Z</time>
      </trkpt>
      <trkpt lat="47.50984" lon="2.0783339">
        <ele>168.0</ele>
        <time>2022-05-19T08:37:15Z</time>
      </trkpt>
      <trkpt lat="47.50983" lon="2.0783184">
        <ele>167.0</ele>
        <time>2022-05-19T08:37:16Z</time>
      </trkpt>
      <trkpt lat="47.509827" lon="2.078299">
        <ele>167.0</ele>
        <time>2022-05-19T08:37:17Z</time>
      </trkpt>
      <trkpt lat="47.509815" lon="2.0782807">
        <ele>167.0</ele>
        <time>2022-05-19T08:37:18Z</time>
      </trkpt>
      <trkpt lat="47.509815" lon="2.0782807">
        <ele>167.0</ele>
        <time>2022-05-19T08:37:18Z</time>
      </trkpt>
      <trkpt lat="47.509796" lon="2.078253">
        <ele>167.0</ele>
        <time>2022-05-19T08:37:20Z</time>
      </trkpt>
      <trkpt lat="47.509796" lon="2.078253">
        <ele>167.0</ele>
        <time>2022-05-19T08:37:20Z</time>
      </trkpt>
      <trkpt lat="47.509792" lon="2.078227">
        <ele>167.0</ele>
        <time>2022-05-19T08:37:22Z</time>
      </trkpt>
      <trkpt lat="47.509792" lon="2.078227">
        <ele>167.0</ele>
        <time>2022-05-19T08:37:22Z</time>
      </trkpt>
      <trkpt lat="47.50979" lon="2.0782113">
        <ele>167.0</ele>
        <time>2022-05-19T08:37:23Z</time>
      </trkpt>
      <trkpt lat="47.509785" lon="2.0782018">
        <ele>167.0</ele>
        <time>2022-05-19T08:37:24Z</time>
      </trkpt>
      <trkpt lat="47.50979" lon="2.0781786">
        <ele>167.0</ele>
        <time>2022-05-19T08:37:26Z</time>
      </trkpt>
      <trkpt lat="47.50979" lon="2.0781786">
        <ele>167.0</ele>
        <time>2022-05-19T08:37:27Z</time>
      </trkpt>
      <trkpt lat="47.50979" lon="2.0781786">
        <ele>167.0</ele>
        <time>2022-05-19T08:37:27Z</time>
      </trkpt>
      <trkpt lat="47.509785" lon="2.0781465">
        <ele>168.0</ele>
        <time>2022-05-19T08:37:29Z</time>
      </trkpt>
      <trkpt lat="47.50979" lon="2.0781345">
        <ele>168.0</ele>
        <time>2022-05-19T08:37:30Z</time>
      </trkpt>
      <trkpt lat="47.50979" lon="2.0781345">
        <ele>168.0</ele>
        <time>2022-05-19T08:37:30Z</time>
      </trkpt>
      <trkpt lat="47.50979" lon="2.0781248">
        <ele>168.0</ele>
        <time>2022-05-19T08:37:31Z</time>
      </trkpt>
      <trkpt lat="47.509785" lon="2.078094">
        <ele>168.0</ele>
        <time>2022-05-19T08:37:33Z</time>
      </trkpt>
      <trkpt lat="47.509785" lon="2.078094">
        <ele>168.0</ele>
        <time>2022-05-19T08:37:33Z</time>
      </trkpt>
      <trkpt lat="47.509785" lon="2.0780752">
        <ele>168.0</ele>
        <time>2022-05-19T08:37:34Z</time>
      </trkpt>
      <trkpt lat="47.509777" lon="2.078053">
        <ele>168.0</ele>
        <time>2022-05-19T08:37:35Z</time>
      </trkpt>
      <trkpt lat="47.509773" lon="2.0780318">
        <ele>168.0</ele>
        <time>2022-05-19T08:37:36Z</time>
      </trkpt>
      <trkpt lat="47.509758" lon="2.0779862">
        <ele>169.0</ele>
        <time>2022-05-19T08:37:38Z</time>
      </trkpt>
      <trkpt lat="47.509758" lon="2.0779862">
        <ele>169.0</ele>
        <time>2022-05-19T08:37:38Z</time>
      </trkpt>
      <trkpt lat="47.50975" lon="2.0779674">
        <ele>169.0</ele>
        <time>2022-05-19T08:37:39Z</time>
      </trkpt>
      <trkpt lat="47.509743" lon="2.0779462">
        <ele>168.0</ele>
        <time>2022-05-19T08:37:41Z</time>
      </trkpt>
      <trkpt lat="47.509743" lon="2.0779462">
        <ele>168.0</ele>
        <time>2022-05-19T08:37:41Z</time>
      </trkpt>
      <trkpt lat="47.509743" lon="2.077935">
        <ele>168.0</ele>
        <time>2022-05-19T08:37:42Z</time>
      </trkpt>
      <trkpt lat="47.509743" lon="2.0779233">
        <ele>168.0</ele>
        <time>2022-05-19T08:37:44Z</time>
      </trkpt>
      <trkpt lat="47.509743" lon="2.0779233">
        <ele>168.0</ele>
        <time>2022-05-19T08:37:44Z</time>
      </trkpt>
      <trkpt lat="47.509743" lon="2.0779233">
        <ele>168.0</ele>
        <time>2022-05-19T08:37:45Z</time>
      </trkpt>
      <trkpt lat="47.509727" lon="2.0778902">
        <ele>168.0</ele>
        <time>2022-05-19T08:37:48Z</time>
      </trkpt>
      <trkpt lat="47.509705" lon="2.0778112">
        <ele>167.0</ele>
        <time>2022-05-19T08:37:53Z</time>
      </trkpt>
      <trkpt lat="47.50969" lon="2.0777535">
        <ele>167.0</ele>
        <time>2022-05-19T08:37:57Z</time>
      </trkpt>
      <trkpt lat="47.50968" lon="2.077738">
        <ele>166.0</ele>
        <time>2022-05-19T08:37:58Z</time>
      </trkpt>
      <trkpt lat="47.50968" lon="2.077726">
        <ele>166.0</ele>
        <time>2022-05-19T08:38:00Z</time>
      </trkpt>
      <trkpt lat="47.50968" lon="2.077726">
        <ele>166.0</ele>
        <time>2022-05-19T08:38:00Z</time>
      </trkpt>
      <trkpt lat="47.509647" lon="2.0776043">
        <ele>165.0</ele>
        <time>2022-05-19T08:38:06Z</time>
      </trkpt>
      <trkpt lat="47.509594" lon="2.0775216">
        <ele>166.0</ele>
        <time>2022-05-19T08:38:11Z</time>
      </trkpt>
      <trkpt lat="47.509583" lon="2.0774949">
        <ele>166.0</ele>
        <time>2022-05-19T08:38:13Z</time>
      </trkpt>
      <trkpt lat="47.509567" lon="2.0774446">
        <ele>166.0</ele>
        <time>2022-05-19T08:38:16Z</time>
      </trkpt>
      <trkpt lat="47.509556" lon="2.0774207">
        <ele>167.0</ele>
        <time>2022-05-19T08:38:17Z</time>
      </trkpt>
      <trkpt lat="47.50954" lon="2.0773299">
        <ele>167.0</ele>
        <time>2022-05-19T08:38:22Z</time>
      </trkpt>
      <trkpt lat="47.50953" lon="2.0772848">
        <ele>167.0</ele>
        <time>2022-05-19T08:38:23Z</time>
      </trkpt>
      <trkpt lat="47.509514" lon="2.0772572">
        <ele>166.0</ele>
        <time>2022-05-19T08:38:25Z</time>
      </trkpt>
      <trkpt lat="47.509502" lon="2.077225">
        <ele>166.0</ele>
        <time>2022-05-19T08:38:27Z</time>
      </trkpt>
      <trkpt lat="47.509426" lon="2.0769346">
        <ele>167.0</ele>
        <time>2022-05-19T08:38:44Z</time>
      </trkpt>
      <trkpt lat="47.509415" lon="2.076902">
        <ele>167.0</ele>
        <time>2022-05-19T08:38:46Z</time>
      </trkpt>
      <trkpt lat="47.5094" lon="2.076866">
        <ele>167.0</ele>
        <time>2022-05-19T08:38:48Z</time>
      </trkpt>
      <trkpt lat="47.509365" lon="2.076785">
        <ele>167.0</ele>
        <time>2022-05-19T08:38:53Z</time>
      </trkpt>
      <trkpt lat="47.50936" lon="2.0767674">
        <ele>167.0</ele>
        <time>2022-05-19T08:38:54Z</time>
      </trkpt>
      <trkpt lat="47.509357" lon="2.0767505">
        <ele>167.0</ele>
        <time>2022-05-19T08:38:56Z</time>
      </trkpt>
      <trkpt lat="47.509262" lon="2.0765102">
        <ele>168.0</ele>
        <time>2022-05-19T08:39:10Z</time>
      </trkpt>
      <trkpt lat="47.50924" lon="2.0764632">
        <ele>167.0</ele>
        <time>2022-05-19T08:39:14Z</time>
      </trkpt>
      <trkpt lat="47.50923" lon="2.0764534">
        <ele>167.0</ele>
        <time>2022-05-19T08:39:15Z</time>
      </trkpt>
      <trkpt lat="47.509224" lon="2.076446">
        <ele>167.0</ele>
        <time>2022-05-19T08:39:16Z</time>
      </trkpt>
      <trkpt lat="47.50922" lon="2.0764406">
        <ele>168.0</ele>
        <time>2022-05-19T08:39:17Z</time>
      </trkpt>
      <trkpt lat="47.509216" lon="2.0764403">
        <ele>168.0</ele>
        <time>2022-05-19T08:39:18Z</time>
      </trkpt>
      <trkpt lat="47.509216" lon="2.0764365">
        <ele>168.0</ele>
        <time>2022-05-19T08:39:19Z</time>
      </trkpt>
      <trkpt lat="47.50921" lon="2.076437">
        <ele>168.0</ele>
        <time>2022-05-19T08:39:20Z</time>
      </trkpt>
      <trkpt lat="47.509197" lon="2.0764263">
        <ele>167.0</ele>
        <time>2022-05-19T08:39:21Z</time>
      </trkpt>
      <trkpt lat="47.50919" lon="2.076414">
        <ele>167.0</ele>
        <time>2022-05-19T08:39:22Z</time>
      </trkpt>
      <trkpt lat="47.509182" lon="2.076402">
        <ele>168.0</ele>
        <time>2022-05-19T08:39:23Z</time>
      </trkpt>
      <trkpt lat="47.50918" lon="2.0763848">
        <ele>168.0</ele>
        <time>2022-05-19T08:39:24Z</time>
      </trkpt>
      <trkpt lat="47.50917" lon="2.076368">
        <ele>168.0</ele>
        <time>2022-05-19T08:39:25Z</time>
      </trkpt>
      <trkpt lat="47.509167" lon="2.0763469">
        <ele>168.0</ele>
        <time>2022-05-19T08:39:26Z</time>
      </trkpt>
      <trkpt lat="47.509163" lon="2.076325">
        <ele>168.0</ele>
        <time>2022-05-19T08:39:27Z</time>
      </trkpt>
      <trkpt lat="47.509163" lon="2.0763025">
        <ele>168.0</ele>
        <time>2022-05-19T08:39:28Z</time>
      </trkpt>
      <trkpt lat="47.50916" lon="2.0762837">
        <ele>168.0</ele>
        <time>2022-05-19T08:39:29Z</time>
      </trkpt>
      <trkpt lat="47.50916" lon="2.076269">
        <ele>168.0</ele>
        <time>2022-05-19T08:39:30Z</time>
      </trkpt>
      <trkpt lat="47.509155" lon="2.0762548">
        <ele>168.0</ele>
        <time>2022-05-19T08:39:31Z</time>
      </trkpt>
      <trkpt lat="47.509144" lon="2.076241">
        <ele>168.0</ele>
        <time>2022-05-19T08:39:32Z</time>
      </trkpt>
      <trkpt lat="47.509136" lon="2.076231">
        <ele>168.0</ele>
        <time>2022-05-19T08:39:33Z</time>
      </trkpt>
      <trkpt lat="47.509125" lon="2.076217">
        <ele>167.0</ele>
        <time>2022-05-19T08:39:34Z</time>
      </trkpt>
      <trkpt lat="47.509117" lon="2.0762">
        <ele>167.0</ele>
        <time>2022-05-19T08:39:35Z</time>
      </trkpt>
      <trkpt lat="47.50911" lon="2.0761812">
        <ele>167.0</ele>
        <time>2022-05-19T08:39:36Z</time>
      </trkpt>
      <trkpt lat="47.5091" lon="2.0761607">
        <ele>167.0</ele>
        <time>2022-05-19T08:39:37Z</time>
      </trkpt>
      <trkpt lat="47.509098" lon="2.0761383">
        <ele>167.0</ele>
        <time>2022-05-19T08:39:38Z</time>
      </trkpt>
      <trkpt lat="47.50909" lon="2.0761185">
        <ele>166.0</ele>
        <time>2022-05-19T08:39:39Z</time>
      </trkpt>
      <trkpt lat="47.509087" lon="2.0761018">
        <ele>167.0</ele>
        <time>2022-05-19T08:39:40Z</time>
      </trkpt>
      <trkpt lat="47.509087" lon="2.0760834">
        <ele>167.0</ele>
        <time>2022-05-19T08:39:41Z</time>
      </trkpt>
      <trkpt lat="47.509083" lon="2.076072">
        <ele>167.0</ele>
        <time>2022-05-19T08:39:42Z</time>
      </trkpt>
      <trkpt lat="47.509083" lon="2.076058">
        <ele>167.0</ele>
        <time>2022-05-19T08:39:43Z</time>
      </trkpt>
      <trkpt lat="47.509075" lon="2.0760481">
        <ele>167.0</ele>
        <time>2022-05-19T08:39:44Z</time>
      </trkpt>
      <trkpt lat="47.509068" lon="2.0760381">
        <ele>167.0</ele>
        <time>2022-05-19T08:39:45Z</time>
      </trkpt>
      <trkpt lat="47.50906" lon="2.0760293">
        <ele>167.0</ele>
        <time>2022-05-19T08:39:46Z</time>
      </trkpt>
      <trkpt lat="47.50905" lon="2.0760267">
        <ele>167.0</ele>
        <time>2022-05-19T08:39:47Z</time>
      </trkpt>
      <trkpt lat="47.50904" lon="2.0760107">
        <ele>167.0</ele>
        <time>2022-05-19T08:39:48Z</time>
      </trkpt>
      <trkpt lat="47.50904" lon="2.0759907">
        <ele>167.0</ele>
        <time>2022-05-19T08:39:49Z</time>
      </trkpt>
      <trkpt lat="47.50904" lon="2.0759685">
        <ele>167.0</ele>
        <time>2022-05-19T08:39:50Z</time>
      </trkpt>
      <trkpt lat="47.50904" lon="2.0759516">
        <ele>167.0</ele>
        <time>2022-05-19T08:39:51Z</time>
      </trkpt>
      <trkpt lat="47.50904" lon="2.0759373">
        <ele>167.0</ele>
        <time>2022-05-19T08:39:52Z</time>
      </trkpt>
      <trkpt lat="47.50904" lon="2.0759182">
        <ele>166.0</ele>
        <time>2022-05-19T08:39:53Z</time>
      </trkpt>
      <trkpt lat="47.509037" lon="2.0758982">
        <ele>166.0</ele>
        <time>2022-05-19T08:39:54Z</time>
      </trkpt>
      <trkpt lat="47.509033" lon="2.0758805">
        <ele>166.0</ele>
        <time>2022-05-19T08:39:55Z</time>
      </trkpt>
      <trkpt lat="47.50903" lon="2.0758693">
        <ele>166.0</ele>
        <time>2022-05-19T08:39:56Z</time>
      </trkpt>
      <trkpt lat="47.509018" lon="2.0758543">
        <ele>166.0</ele>
        <time>2022-05-19T08:39:57Z</time>
      </trkpt>
      <trkpt lat="47.50901" lon="2.075839">
        <ele>166.0</ele>
        <time>2022-05-19T08:39:58Z</time>
      </trkpt>
      <trkpt lat="47.509003" lon="2.0758245">
        <ele>166.0</ele>
        <time>2022-05-19T08:39:59Z</time>
      </trkpt>
      <trkpt lat="47.509003" lon="2.075809">
        <ele>166.0</ele>
        <time>2022-05-19T08:40:00Z</time>
      </trkpt>
      <trkpt lat="47.509" lon="2.0757911">
        <ele>166.0</ele>
        <time>2022-05-19T08:40:01Z</time>
      </trkpt>
      <trkpt lat="47.508995" lon="2.0757785">
        <ele>165.0</ele>
        <time>2022-05-19T08:40:02Z</time>
      </trkpt>
      <trkpt lat="47.508987" lon="2.0757635">
        <ele>165.0</ele>
        <time>2022-05-19T08:40:03Z</time>
      </trkpt>
      <trkpt lat="47.508984" lon="2.0757565">
        <ele>165.0</ele>
        <time>2022-05-19T08:40:04Z</time>
      </trkpt>
      <trkpt lat="47.508984" lon="2.0757432">
        <ele>166.0</ele>
        <time>2022-05-19T08:40:05Z</time>
      </trkpt>
      <trkpt lat="47.508984" lon="2.0757432">
        <ele>166.0</ele>
        <time>2022-05-19T08:40:06Z</time>
      </trkpt>
      <trkpt lat="47.508984" lon="2.0757432">
        <ele>166.0</ele>
        <time>2022-05-19T08:40:07Z</time>
      </trkpt>
      <trkpt lat="47.508972" lon="2.0757215">
        <ele>166.0</ele>
        <time>2022-05-19T08:40:08Z</time>
      </trkpt>
      <trkpt lat="47.508972" lon="2.0757053">
        <ele>165.0</ele>
        <time>2022-05-19T08:40:09Z</time>
      </trkpt>
      <trkpt lat="47.50897" lon="2.0756881">
        <ele>165.0</ele>
        <time>2022-05-19T08:40:10Z</time>
      </trkpt>
      <trkpt lat="47.508965" lon="2.0756712">
        <ele>165.0</ele>
        <time>2022-05-19T08:40:11Z</time>
      </trkpt>
      <trkpt lat="47.508957" lon="2.075654">
        <ele>166.0</ele>
        <time>2022-05-19T08:40:12Z</time>
      </trkpt>
      <trkpt lat="47.508945" lon="2.0756373">
        <ele>166.0</ele>
        <time>2022-05-19T08:40:13Z</time>
      </trkpt>
      <trkpt lat="47.50894" lon="2.0756202">
        <ele>167.0</ele>
        <time>2022-05-19T08:40:14Z</time>
      </trkpt>
      <trkpt lat="47.50894" lon="2.0756085">
        <ele>167.0</ele>
        <time>2022-05-19T08:40:15Z</time>
      </trkpt>
      <trkpt lat="47.508934" lon="2.0755973">
        <ele>167.0</ele>
        <time>2022-05-19T08:40:16Z</time>
      </trkpt>
      <trkpt lat="47.508938" lon="2.0755856">
        <ele>167.0</ele>
        <time>2022-05-19T08:40:17Z</time>
      </trkpt>
      <trkpt lat="47.50894" lon="2.0755699">
        <ele>167.0</ele>
        <time>2022-05-19T08:40:18Z</time>
      </trkpt>
      <trkpt lat="47.50894" lon="2.0755527">
        <ele>166.0</ele>
        <time>2022-05-19T08:40:19Z</time>
      </trkpt>
      <trkpt lat="47.508938" lon="2.0755396">
        <ele>166.0</ele>
        <time>2022-05-19T08:40:20Z</time>
      </trkpt>
      <trkpt lat="47.508938" lon="2.075527">
        <ele>166.0</ele>
        <time>2022-05-19T08:40:21Z</time>
      </trkpt>
      <trkpt lat="47.508934" lon="2.0755117">
        <ele>166.0</ele>
        <time>2022-05-19T08:40:22Z</time>
      </trkpt>
      <trkpt lat="47.50893" lon="2.0755005">
        <ele>166.0</ele>
        <time>2022-05-19T08:40:23Z</time>
      </trkpt>
      <trkpt lat="47.50893" lon="2.0754879">
        <ele>165.0</ele>
        <time>2022-05-19T08:40:24Z</time>
      </trkpt>
      <trkpt lat="47.508923" lon="2.075466">
        <ele>165.0</ele>
        <time>2022-05-19T08:40:25Z</time>
      </trkpt>
      <trkpt lat="47.508915" lon="2.0754428">
        <ele>165.0</ele>
        <time>2022-05-19T08:40:26Z</time>
      </trkpt>
      <trkpt lat="47.508907" lon="2.075421">
        <ele>165.0</ele>
        <time>2022-05-19T08:40:27Z</time>
      </trkpt>
      <trkpt lat="47.508904" lon="2.0753977">
        <ele>165.0</ele>
        <time>2022-05-19T08:40:28Z</time>
      </trkpt>
      <trkpt lat="47.508904" lon="2.0753727">
        <ele>164.0</ele>
        <time>2022-05-19T08:40:29Z</time>
      </trkpt>
      <trkpt lat="47.5089" lon="2.0753462">
        <ele>164.0</ele>
        <time>2022-05-19T08:40:30Z</time>
      </trkpt>
      <trkpt lat="47.508896" lon="2.0753243">
        <ele>164.0</ele>
        <time>2022-05-19T08:40:31Z</time>
      </trkpt>
      <trkpt lat="47.508892" lon="2.075314">
        <ele>164.0</ele>
        <time>2022-05-19T08:40:32Z</time>
      </trkpt>
      <trkpt lat="47.50889" lon="2.075308">
        <ele>163.0</ele>
        <time>2022-05-19T08:40:33Z</time>
      </trkpt>
      <trkpt lat="47.508884" lon="2.0753014">
        <ele>163.0</ele>
        <time>2022-05-19T08:40:34Z</time>
      </trkpt>
      <trkpt lat="47.508877" lon="2.0752888">
        <ele>162.0</ele>
        <time>2022-05-19T08:40:35Z</time>
      </trkpt>
      <trkpt lat="47.508873" lon="2.0752711">
        <ele>162.0</ele>
        <time>2022-05-19T08:40:36Z</time>
      </trkpt>
      <trkpt lat="47.508865" lon="2.0752504">
        <ele>162.0</ele>
        <time>2022-05-19T08:40:37Z</time>
      </trkpt>
      <trkpt lat="47.50886" lon="2.0752268">
        <ele>162.0</ele>
        <time>2022-05-19T08:40:38Z</time>
      </trkpt>
      <trkpt lat="47.508858" lon="2.0752056">
        <ele>161.0</ele>
        <time>2022-05-19T08:40:39Z</time>
      </trkpt>
      <trkpt lat="47.508854" lon="2.075184">
        <ele>161.0</ele>
        <time>2022-05-19T08:40:40Z</time>
      </trkpt>
      <trkpt lat="47.508846" lon="2.0751638">
        <ele>162.0</ele>
        <time>2022-05-19T08:40:41Z</time>
      </trkpt>
      <trkpt lat="47.508846" lon="2.0751433">
        <ele>162.0</ele>
        <time>2022-05-19T08:40:42Z</time>
      </trkpt>
      <trkpt lat="47.508842" lon="2.0751297">
        <ele>162.0</ele>
        <time>2022-05-19T08:40:43Z</time>
      </trkpt>
      <trkpt lat="47.508842" lon="2.0751193">
        <ele>163.0</ele>
        <time>2022-05-19T08:40:44Z</time>
      </trkpt>
      <trkpt lat="47.50884" lon="2.0751078">
        <ele>163.0</ele>
        <time>2022-05-19T08:40:45Z</time>
      </trkpt>
      <trkpt lat="47.50883" lon="2.0750928">
        <ele>163.0</ele>
        <time>2022-05-19T08:40:46Z</time>
      </trkpt>
      <trkpt lat="47.50883" lon="2.0750928">
        <ele>163.0</ele>
        <time>2022-05-19T08:40:47Z</time>
      </trkpt>
      <trkpt lat="47.50883" lon="2.0750928">
        <ele>163.0</ele>
        <time>2022-05-19T08:40:48Z</time>
      </trkpt>
      <trkpt lat="47.50882" lon="2.0750554">
        <ele>163.0</ele>
        <time>2022-05-19T08:40:49Z</time>
      </trkpt>
      <trkpt lat="47.508812" lon="2.0750363">
        <ele>163.0</ele>
        <time>2022-05-19T08:40:50Z</time>
      </trkpt>
      <trkpt lat="47.508812" lon="2.075015">
        <ele>163.0</ele>
        <time>2022-05-19T08:40:51Z</time>
      </trkpt>
      <trkpt lat="47.508812" lon="2.074994">
        <ele>163.0</ele>
        <time>2022-05-19T08:40:52Z</time>
      </trkpt>
      <trkpt lat="47.50881" lon="2.074974">
        <ele>162.0</ele>
        <time>2022-05-19T08:40:53Z</time>
      </trkpt>
      <trkpt lat="47.508797" lon="2.0749564">
        <ele>162.0</ele>
        <time>2022-05-19T08:40:54Z</time>
      </trkpt>
      <trkpt lat="47.508793" lon="2.0749362">
        <ele>162.0</ele>
        <time>2022-05-19T08:40:55Z</time>
      </trkpt>
      <trkpt lat="47.50879" lon="2.074917">
        <ele>162.0</ele>
        <time>2022-05-19T08:40:56Z</time>
      </trkpt>
      <trkpt lat="47.50879" lon="2.0748994">
        <ele>162.0</ele>
        <time>2022-05-19T08:40:57Z</time>
      </trkpt>
      <trkpt lat="47.50878" lon="2.0748823">
        <ele>162.0</ele>
        <time>2022-05-19T08:40:58Z</time>
      </trkpt>
      <trkpt lat="47.508778" lon="2.074867">
        <ele>162.0</ele>
        <time>2022-05-19T08:40:59Z</time>
      </trkpt>
      <trkpt lat="47.50877" lon="2.0748496">
        <ele>162.0</ele>
        <time>2022-05-19T08:41:00Z</time>
      </trkpt>
      <trkpt lat="47.508762" lon="2.074828">
        <ele>162.0</ele>
        <time>2022-05-19T08:41:01Z</time>
      </trkpt>
      <trkpt lat="47.508755" lon="2.0748045">
        <ele>162.0</ele>
        <time>2022-05-19T08:41:02Z</time>
      </trkpt>
      <trkpt lat="47.50875" lon="2.0747879">
        <ele>162.0</ele>
        <time>2022-05-19T08:41:03Z</time>
      </trkpt>
      <trkpt lat="47.508747" lon="2.0747685">
        <ele>163.0</ele>
        <time>2022-05-19T08:41:04Z</time>
      </trkpt>
      <trkpt lat="47.508743" lon="2.0747552">
        <ele>163.0</ele>
        <time>2022-05-19T08:41:05Z</time>
      </trkpt>
      <trkpt lat="47.50874" lon="2.074742">
        <ele>164.0</ele>
        <time>2022-05-19T08:41:06Z</time>
      </trkpt>
      <trkpt lat="47.508736" lon="2.0747294">
        <ele>164.0</ele>
        <time>2022-05-19T08:41:07Z</time>
      </trkpt>
      <trkpt lat="47.508736" lon="2.0747123">
        <ele>164.0</ele>
        <time>2022-05-19T08:41:08Z</time>
      </trkpt>
      <trkpt lat="47.508728" lon="2.0746949">
        <ele>164.0</ele>
        <time>2022-05-19T08:41:09Z</time>
      </trkpt>
      <trkpt lat="47.50872" lon="2.0746748">
        <ele>164.0</ele>
        <time>2022-05-19T08:41:10Z</time>
      </trkpt>
      <trkpt lat="47.508705" lon="2.0746472">
        <ele>164.0</ele>
        <time>2022-05-19T08:41:11Z</time>
      </trkpt>
      <trkpt lat="47.5087" lon="2.0746186">
        <ele>164.0</ele>
        <time>2022-05-19T08:41:12Z</time>
      </trkpt>
      <trkpt lat="47.5087" lon="2.074593">
        <ele>164.0</ele>
        <time>2022-05-19T08:41:13Z</time>
      </trkpt>
      <trkpt lat="47.508698" lon="2.074567">
        <ele>164.0</ele>
        <time>2022-05-19T08:41:14Z</time>
      </trkpt>
      <trkpt lat="47.508698" lon="2.0745494">
        <ele>164.0</ele>
        <time>2022-05-19T08:41:15Z</time>
      </trkpt>
      <trkpt lat="47.508694" lon="2.0745292">
        <ele>164.0</ele>
        <time>2022-05-19T08:41:16Z</time>
      </trkpt>
      <trkpt lat="47.508686" lon="2.0745015">
        <ele>164.0</ele>
        <time>2022-05-19T08:41:17Z</time>
      </trkpt>
      <trkpt lat="47.508682" lon="2.0744798">
        <ele>164.0</ele>
        <time>2022-05-19T08:41:18Z</time>
      </trkpt>
      <trkpt lat="47.508675" lon="2.0744543">
        <ele>164.0</ele>
        <time>2022-05-19T08:41:19Z</time>
      </trkpt>
      <trkpt lat="47.50867" lon="2.074429">
        <ele>164.0</ele>
        <time>2022-05-19T08:41:20Z</time>
      </trkpt>
      <trkpt lat="47.50867" lon="2.0744054">
        <ele>165.0</ele>
        <time>2022-05-19T08:41:21Z</time>
      </trkpt>
      <trkpt lat="47.508663" lon="2.0743854">
        <ele>165.0</ele>
        <time>2022-05-19T08:41:22Z</time>
      </trkpt>
      <trkpt lat="47.50865" lon="2.0743613">
        <ele>165.0</ele>
        <time>2022-05-19T08:41:23Z</time>
      </trkpt>
      <trkpt lat="47.508644" lon="2.0743368">
        <ele>165.0</ele>
        <time>2022-05-19T08:41:24Z</time>
      </trkpt>
      <trkpt lat="47.508636" lon="2.0743153">
        <ele>165.0</ele>
        <time>2022-05-19T08:41:25Z</time>
      </trkpt>
      <trkpt lat="47.50863" lon="2.0742974">
        <ele>166.0</ele>
        <time>2022-05-19T08:41:26Z</time>
      </trkpt>
      <trkpt lat="47.50862" lon="2.074275">
        <ele>167.0</ele>
        <time>2022-05-19T08:41:27Z</time>
      </trkpt>
      <trkpt lat="47.50861" lon="2.074253">
        <ele>167.0</ele>
        <time>2022-05-19T08:41:28Z</time>
      </trkpt>
      <trkpt lat="47.508606" lon="2.0742352">
        <ele>167.0</ele>
        <time>2022-05-19T08:41:29Z</time>
      </trkpt>
      <trkpt lat="47.5086" lon="2.074218">
        <ele>167.0</ele>
        <time>2022-05-19T08:41:30Z</time>
      </trkpt>
      <trkpt lat="47.508587" lon="2.0742013">
        <ele>167.0</ele>
        <time>2022-05-19T08:41:31Z</time>
      </trkpt>
      <trkpt lat="47.50858" lon="2.0741878">
        <ele>168.0</ele>
        <time>2022-05-19T08:41:32Z</time>
      </trkpt>
      <trkpt lat="47.50857" lon="2.0741692">
        <ele>168.0</ele>
        <time>2022-05-19T08:41:33Z</time>
      </trkpt>
      <trkpt lat="47.508564" lon="2.0741541">
        <ele>168.0</ele>
        <time>2022-05-19T08:41:34Z</time>
      </trkpt>
      <trkpt lat="47.508556" lon="2.0741398">
        <ele>168.0</ele>
        <time>2022-05-19T08:41:35Z</time>
      </trkpt>
      <trkpt lat="47.50855" lon="2.0741222">
        <ele>168.0</ele>
        <time>2022-05-19T08:41:36Z</time>
      </trkpt>
      <trkpt lat="47.50854" lon="2.0741045">
        <ele>168.0</ele>
        <time>2022-05-19T08:41:37Z</time>
      </trkpt>
      <trkpt lat="47.508537" lon="2.0740843">
        <ele>168.0</ele>
        <time>2022-05-19T08:41:38Z</time>
      </trkpt>
      <trkpt lat="47.508533" lon="2.0740669">
        <ele>168.0</ele>
        <time>2022-05-19T08:41:39Z</time>
      </trkpt>
      <trkpt lat="47.50853" lon="2.0740514">
        <ele>168.0</ele>
        <time>2022-05-19T08:41:40Z</time>
      </trkpt>
      <trkpt lat="47.50852" lon="2.0740337">
        <ele>167.0</ele>
        <time>2022-05-19T08:41:41Z</time>
      </trkpt>
      <trkpt lat="47.50851" lon="2.0740154">
        <ele>168.0</ele>
        <time>2022-05-19T08:41:42Z</time>
      </trkpt>
      <trkpt lat="47.508503" lon="2.0739973">
        <ele>168.0</ele>
        <time>2022-05-19T08:41:43Z</time>
      </trkpt>
      <trkpt lat="47.508495" lon="2.0739808">
        <ele>169.0</ele>
        <time>2022-05-19T08:41:44Z</time>
      </trkpt>
      <trkpt lat="47.50849" lon="2.0739632">
        <ele>169.0</ele>
        <time>2022-05-19T08:41:45Z</time>
      </trkpt>
      <trkpt lat="47.508484" lon="2.0739515">
        <ele>169.0</ele>
        <time>2022-05-19T08:41:46Z</time>
      </trkpt>
      <trkpt lat="47.508476" lon="2.0739393">
        <ele>170.0</ele>
        <time>2022-05-19T08:41:47Z</time>
      </trkpt>
      <trkpt lat="47.508476" lon="2.0739264">
        <ele>170.0</ele>
        <time>2022-05-19T08:41:48Z</time>
      </trkpt>
      <trkpt lat="47.508472" lon="2.0739114">
        <ele>170.0</ele>
        <time>2022-05-19T08:41:49Z</time>
      </trkpt>
      <trkpt lat="47.50847" lon="2.073892">
        <ele>170.0</ele>
        <time>2022-05-19T08:41:50Z</time>
      </trkpt>
      <trkpt lat="47.50846" lon="2.0738745">
        <ele>170.0</ele>
        <time>2022-05-19T08:41:51Z</time>
      </trkpt>
      <trkpt lat="47.50845" lon="2.073858">
        <ele>170.0</ele>
        <time>2022-05-19T08:41:52Z</time>
      </trkpt>
      <trkpt lat="47.508446" lon="2.0738451">
        <ele>169.0</ele>
        <time>2022-05-19T08:41:53Z</time>
      </trkpt>
      <trkpt lat="47.508442" lon="2.0738337">
        <ele>169.0</ele>
        <time>2022-05-19T08:41:54Z</time>
      </trkpt>
      <trkpt lat="47.508442" lon="2.0738168">
        <ele>169.0</ele>
        <time>2022-05-19T08:41:55Z</time>
      </trkpt>
      <trkpt lat="47.508442" lon="2.073803">
        <ele>169.0</ele>
        <time>2022-05-19T08:41:56Z</time>
      </trkpt>
      <trkpt lat="47.50844" lon="2.0737894">
        <ele>169.0</ele>
        <time>2022-05-19T08:41:57Z</time>
      </trkpt>
      <trkpt lat="47.50843" lon="2.0737767">
        <ele>168.0</ele>
        <time>2022-05-19T08:41:58Z</time>
      </trkpt>
      <trkpt lat="47.508427" lon="2.0737555">
        <ele>169.0</ele>
        <time>2022-05-19T08:41:59Z</time>
      </trkpt>
      <trkpt lat="47.50842" lon="2.0737417">
        <ele>168.0</ele>
        <time>2022-05-19T08:42:00Z</time>
      </trkpt>
      <trkpt lat="47.50841" lon="2.0737257">
        <ele>168.0</ele>
        <time>2022-05-19T08:42:01Z</time>
      </trkpt>
      <trkpt lat="47.508404" lon="2.0737066">
        <ele>168.0</ele>
        <time>2022-05-19T08:42:02Z</time>
      </trkpt>
      <trkpt lat="47.5084" lon="2.073691">
        <ele>167.0</ele>
        <time>2022-05-19T08:42:03Z</time>
      </trkpt>
      <trkpt lat="47.5084" lon="2.0736735">
        <ele>167.0</ele>
        <time>2022-05-19T08:42:04Z</time>
      </trkpt>
      <trkpt lat="47.508396" lon="2.0736544">
        <ele>166.0</ele>
        <time>2022-05-19T08:42:05Z</time>
      </trkpt>
      <trkpt lat="47.508392" lon="2.073633">
        <ele>166.0</ele>
        <time>2022-05-19T08:42:06Z</time>
      </trkpt>
      <trkpt lat="47.508392" lon="2.0736108">
        <ele>166.0</ele>
        <time>2022-05-19T08:42:07Z</time>
      </trkpt>
      <trkpt lat="47.508385" lon="2.0735896">
        <ele>166.0</ele>
        <time>2022-05-19T08:42:08Z</time>
      </trkpt>
      <trkpt lat="47.508377" lon="2.0735707">
        <ele>166.0</ele>
        <time>2022-05-19T08:42:09Z</time>
      </trkpt>
      <trkpt lat="47.508373" lon="2.0735524">
        <ele>166.0</ele>
        <time>2022-05-19T08:42:10Z</time>
      </trkpt>
      <trkpt lat="47.50837" lon="2.0735297">
        <ele>166.0</ele>
        <time>2022-05-19T08:42:11Z</time>
      </trkpt>
      <trkpt lat="47.50836" lon="2.0735097">
        <ele>166.0</ele>
        <time>2022-05-19T08:42:12Z</time>
      </trkpt>
      <trkpt lat="47.508358" lon="2.0734882">
        <ele>165.0</ele>
        <time>2022-05-19T08:42:13Z</time>
      </trkpt>
      <trkpt lat="47.50835" lon="2.073473">
        <ele>165.0</ele>
        <time>2022-05-19T08:42:14Z</time>
      </trkpt>
      <trkpt lat="47.508343" lon="2.073458">
        <ele>165.0</ele>
        <time>2022-05-19T08:42:15Z</time>
      </trkpt>
      <trkpt lat="47.508335" lon="2.0734417">
        <ele>165.0</ele>
        <time>2022-05-19T08:42:16Z</time>
      </trkpt>
      <trkpt lat="47.50833" lon="2.0734246">
        <ele>165.0</ele>
        <time>2022-05-19T08:42:17Z</time>
      </trkpt>
      <trkpt lat="47.50833" lon="2.0734081">
        <ele>165.0</ele>
        <time>2022-05-19T08:42:18Z</time>
      </trkpt>
      <trkpt lat="47.508327" lon="2.0733922">
        <ele>165.0</ele>
        <time>2022-05-19T08:42:19Z</time>
      </trkpt>
      <trkpt lat="47.508327" lon="2.073377">
        <ele>166.0</ele>
        <time>2022-05-19T08:42:20Z</time>
      </trkpt>
      <trkpt lat="47.508327" lon="2.073357">
        <ele>166.0</ele>
        <time>2022-05-19T08:42:21Z</time>
      </trkpt>
      <trkpt lat="47.508324" lon="2.0733387">
        <ele>166.0</ele>
        <time>2022-05-19T08:42:22Z</time>
      </trkpt>
      <trkpt lat="47.508324" lon="2.0733259">
        <ele>166.0</ele>
        <time>2022-05-19T08:42:23Z</time>
      </trkpt>
      <trkpt lat="47.50832" lon="2.0733168">
        <ele>167.0</ele>
        <time>2022-05-19T08:42:24Z</time>
      </trkpt>
      <trkpt lat="47.50832" lon="2.073307">
        <ele>167.0</ele>
        <time>2022-05-19T08:42:25Z</time>
      </trkpt>
      <trkpt lat="47.508316" lon="2.0732956">
        <ele>167.0</ele>
        <time>2022-05-19T08:42:26Z</time>
      </trkpt>
      <trkpt lat="47.508316" lon="2.0732834">
        <ele>167.0</ele>
        <time>2022-05-19T08:42:27Z</time>
      </trkpt>
      <trkpt lat="47.508312" lon="2.0732725">
        <ele>167.0</ele>
        <time>2022-05-19T08:42:28Z</time>
      </trkpt>
      <trkpt lat="47.508312" lon="2.0732572">
        <ele>166.0</ele>
        <time>2022-05-19T08:42:29Z</time>
      </trkpt>
      <trkpt lat="47.508305" lon="2.0732462">
        <ele>167.0</ele>
        <time>2022-05-19T08:42:30Z</time>
      </trkpt>
      <trkpt lat="47.508305" lon="2.073234">
        <ele>167.0</ele>
        <time>2022-05-19T08:42:31Z</time>
      </trkpt>
      <trkpt lat="47.5083" lon="2.073218">
        <ele>167.0</ele>
        <time>2022-05-19T08:42:32Z</time>
      </trkpt>
      <trkpt lat="47.508297" lon="2.0732021">
        <ele>167.0</ele>
        <time>2022-05-19T08:42:33Z</time>
      </trkpt>
      <trkpt lat="47.50829" lon="2.0731883">
        <ele>167.0</ele>
        <time>2022-05-19T08:42:34Z</time>
      </trkpt>
      <trkpt lat="47.50829" lon="2.0731788">
        <ele>167.0</ele>
        <time>2022-05-19T08:42:35Z</time>
      </trkpt>
      <trkpt lat="47.50828" lon="2.0731728">
        <ele>167.0</ele>
        <time>2022-05-19T08:42:36Z</time>
      </trkpt>
      <trkpt lat="47.508274" lon="2.0731623">
        <ele>167.0</ele>
        <time>2022-05-19T08:42:37Z</time>
      </trkpt>
      <trkpt lat="47.508266" lon="2.0731478">
        <ele>167.0</ele>
        <time>2022-05-19T08:42:38Z</time>
      </trkpt>
      <trkpt lat="47.508255" lon="2.0731378">
        <ele>167.0</ele>
        <time>2022-05-19T08:42:39Z</time>
      </trkpt>
      <trkpt lat="47.508247" lon="2.0731242">
        <ele>167.0</ele>
        <time>2022-05-19T08:42:40Z</time>
      </trkpt>
      <trkpt lat="47.508232" lon="2.0731144">
        <ele>166.0</ele>
        <time>2022-05-19T08:42:41Z</time>
      </trkpt>
      <trkpt lat="47.508224" lon="2.0731013">
        <ele>166.0</ele>
        <time>2022-05-19T08:42:42Z</time>
      </trkpt>
      <trkpt lat="47.508217" lon="2.073087">
        <ele>165.0</ele>
        <time>2022-05-19T08:42:43Z</time>
      </trkpt>
      <trkpt lat="47.508217" lon="2.073073">
        <ele>165.0</ele>
        <time>2022-05-19T08:42:44Z</time>
      </trkpt>
      <trkpt lat="47.508213" lon="2.073055">
        <ele>165.0</ele>
        <time>2022-05-19T08:42:45Z</time>
      </trkpt>
      <trkpt lat="47.50821" lon="2.0730367">
        <ele>165.0</ele>
        <time>2022-05-19T08:42:46Z</time>
      </trkpt>
      <trkpt lat="47.50821" lon="2.073021">
        <ele>165.0</ele>
        <time>2022-05-19T08:42:47Z</time>
      </trkpt>
      <trkpt lat="47.508205" lon="2.073004">
        <ele>166.0</ele>
        <time>2022-05-19T08:42:48Z</time>
      </trkpt>
      <trkpt lat="47.508205" lon="2.072987">
        <ele>166.0</ele>
        <time>2022-05-19T08:42:49Z</time>
      </trkpt>
      <trkpt lat="47.5082" lon="2.0729735">
        <ele>166.0</ele>
        <time>2022-05-19T08:42:50Z</time>
      </trkpt>
      <trkpt lat="47.508194" lon="2.0729609">
        <ele>166.0</ele>
        <time>2022-05-19T08:42:51Z</time>
      </trkpt>
      <trkpt lat="47.50819" lon="2.0729475">
        <ele>166.0</ele>
        <time>2022-05-19T08:42:52Z</time>
      </trkpt>
      <trkpt lat="47.508186" lon="2.072935">
        <ele>166.0</ele>
        <time>2022-05-19T08:42:53Z</time>
      </trkpt>
      <trkpt lat="47.508183" lon="2.0729253">
        <ele>166.0</ele>
        <time>2022-05-19T08:42:54Z</time>
      </trkpt>
      <trkpt lat="47.50818" lon="2.072916">
        <ele>166.0</ele>
        <time>2022-05-19T08:42:55Z</time>
      </trkpt>
      <trkpt lat="47.50817" lon="2.0729027">
        <ele>166.0</ele>
        <time>2022-05-19T08:42:56Z</time>
      </trkpt>
      <trkpt lat="47.50817" lon="2.0728922">
        <ele>165.0</ele>
        <time>2022-05-19T08:42:57Z</time>
      </trkpt>
      <trkpt lat="47.50817" lon="2.0728793">
        <ele>165.0</ele>
        <time>2022-05-19T08:42:58Z</time>
      </trkpt>
      <trkpt lat="47.508167" lon="2.0728629">
        <ele>165.0</ele>
        <time>2022-05-19T08:42:59Z</time>
      </trkpt>
      <trkpt lat="47.50817" lon="2.0728462">
        <ele>165.0</ele>
        <time>2022-05-19T08:43:00Z</time>
      </trkpt>
      <trkpt lat="47.508175" lon="2.0728257">
        <ele>165.0</ele>
        <time>2022-05-19T08:43:01Z</time>
      </trkpt>
      <trkpt lat="47.508175" lon="2.0728076">
        <ele>165.0</ele>
        <time>2022-05-19T08:43:02Z</time>
      </trkpt>
      <trkpt lat="47.508175" lon="2.0727906">
        <ele>165.0</ele>
        <time>2022-05-19T08:43:03Z</time>
      </trkpt>
      <trkpt lat="47.508163" lon="2.0727696">
        <ele>165.0</ele>
        <time>2022-05-19T08:43:04Z</time>
      </trkpt>
      <trkpt lat="47.508152" lon="2.0727494">
        <ele>164.0</ele>
        <time>2022-05-19T08:43:05Z</time>
      </trkpt>
      <trkpt lat="47.508152" lon="2.072731">
        <ele>164.0</ele>
        <time>2022-05-19T08:43:06Z</time>
      </trkpt>
      <trkpt lat="47.50815" lon="2.0727124">
        <ele>164.0</ele>
        <time>2022-05-19T08:43:07Z</time>
      </trkpt>
      <trkpt lat="47.508144" lon="2.0726998">
        <ele>164.0</ele>
        <time>2022-05-19T08:43:08Z</time>
      </trkpt>
      <trkpt lat="47.50814" lon="2.0726852">
        <ele>164.0</ele>
        <time>2022-05-19T08:43:09Z</time>
      </trkpt>
      <trkpt lat="47.508133" lon="2.0726683">
        <ele>164.0</ele>
        <time>2022-05-19T08:43:10Z</time>
      </trkpt>
      <trkpt lat="47.508125" lon="2.07265">
        <ele>164.0</ele>
        <time>2022-05-19T08:43:11Z</time>
      </trkpt>
      <trkpt lat="47.50812" lon="2.0726337">
        <ele>164.0</ele>
        <time>2022-05-19T08:43:12Z</time>
      </trkpt>
      <trkpt lat="47.508118" lon="2.0726175">
        <ele>164.0</ele>
        <time>2022-05-19T08:43:13Z</time>
      </trkpt>
      <trkpt lat="47.508114" lon="2.0726047">
        <ele>164.0</ele>
        <time>2022-05-19T08:43:14Z</time>
      </trkpt>
      <trkpt lat="47.508114" lon="2.0725834">
        <ele>165.0</ele>
        <time>2022-05-19T08:43:15Z</time>
      </trkpt>
      <trkpt lat="47.508102" lon="2.07254">
        <ele>164.0</ele>
        <time>2022-05-19T08:43:16Z</time>
      </trkpt>
      <trkpt lat="47.508102" lon="2.07254">
        <ele>164.0</ele>
        <time>2022-05-19T08:43:16Z</time>
      </trkpt>
      <trkpt lat="47.508102" lon="2.0725262">
        <ele>163.0</ele>
        <time>2022-05-19T08:43:18Z</time>
      </trkpt>
      <trkpt lat="47.508106" lon="2.072516">
        <ele>164.0</ele>
        <time>2022-05-19T08:43:19Z</time>
      </trkpt>
      <trkpt lat="47.508106" lon="2.0725052">
        <ele>164.0</ele>
        <time>2022-05-19T08:43:20Z</time>
      </trkpt>
      <trkpt lat="47.508106" lon="2.07249">
        <ele>163.0</ele>
        <time>2022-05-19T08:43:21Z</time>
      </trkpt>
      <trkpt lat="47.5081" lon="2.0724826">
        <ele>163.0</ele>
        <time>2022-05-19T08:43:22Z</time>
      </trkpt>
      <trkpt lat="47.50809" lon="2.0724676">
        <ele>164.0</ele>
        <time>2022-05-19T08:43:23Z</time>
      </trkpt>
      <trkpt lat="47.50808" lon="2.0724509">
        <ele>163.0</ele>
        <time>2022-05-19T08:43:24Z</time>
      </trkpt>
      <trkpt lat="47.508068" lon="2.072435">
        <ele>163.0</ele>
        <time>2022-05-19T08:43:25Z</time>
      </trkpt>
      <trkpt lat="47.508057" lon="2.072423">
        <ele>162.0</ele>
        <time>2022-05-19T08:43:26Z</time>
      </trkpt>
      <trkpt lat="47.50805" lon="2.0724103">
        <ele>162.0</ele>
        <time>2022-05-19T08:43:27Z</time>
      </trkpt>
      <trkpt lat="47.508045" lon="2.0724">
        <ele>162.0</ele>
        <time>2022-05-19T08:43:28Z</time>
      </trkpt>
      <trkpt lat="47.508045" lon="2.0723906">
        <ele>162.0</ele>
        <time>2022-05-19T08:43:29Z</time>
      </trkpt>
      <trkpt lat="47.50804" lon="2.072376">
        <ele>162.0</ele>
        <time>2022-05-19T08:43:30Z</time>
      </trkpt>
      <trkpt lat="47.508038" lon="2.0723677">
        <ele>162.0</ele>
        <time>2022-05-19T08:43:31Z</time>
      </trkpt>
      <trkpt lat="47.50803" lon="2.0723612">
        <ele>162.0</ele>
        <time>2022-05-19T08:43:32Z</time>
      </trkpt>
      <trkpt lat="47.508022" lon="2.07236">
        <ele>162.0</ele>
        <time>2022-05-19T08:43:33Z</time>
      </trkpt>
      <trkpt lat="47.508022" lon="2.0723484">
        <ele>162.0</ele>
        <time>2022-05-19T08:43:34Z</time>
      </trkpt>
      <trkpt lat="47.50802" lon="2.072339">
        <ele>162.0</ele>
        <time>2022-05-19T08:43:35Z</time>
      </trkpt>
      <trkpt lat="47.50802" lon="2.072333">
        <ele>163.0</ele>
        <time>2022-05-19T08:43:36Z</time>
      </trkpt>
      <trkpt lat="47.50802" lon="2.0723238">
        <ele>163.0</ele>
        <time>2022-05-19T08:43:37Z</time>
      </trkpt>
      <trkpt lat="47.50802" lon="2.0723147">
        <ele>164.0</ele>
        <time>2022-05-19T08:43:38Z</time>
      </trkpt>
      <trkpt lat="47.508026" lon="2.0723038">
        <ele>164.0</ele>
        <time>2022-05-19T08:43:39Z</time>
      </trkpt>
      <trkpt lat="47.50803" lon="2.072291">
        <ele>164.0</ele>
        <time>2022-05-19T08:43:40Z</time>
      </trkpt>
      <trkpt lat="47.50803" lon="2.0722675">
        <ele>165.0</ele>
        <time>2022-05-19T08:43:41Z</time>
      </trkpt>
      <trkpt lat="47.508022" lon="2.0722487">
        <ele>166.0</ele>
        <time>2022-05-19T08:43:42Z</time>
      </trkpt>
      <trkpt lat="47.508007" lon="2.0722263">
        <ele>168.0</ele>
        <time>2022-05-19T08:43:43Z</time>
      </trkpt>
      <trkpt lat="47.508007" lon="2.0722263">
        <ele>168.0</ele>
        <time>2022-05-19T08:43:43Z</time>
      </trkpt>
      <trkpt lat="47.508007" lon="2.0722263">
        <ele>168.0</ele>
        <time>2022-05-19T08:43:43Z</time>
      </trkpt>
      <trkpt lat="47.507942" lon="2.072159">
        <ele>176.0</ele>
        <time>2022-05-19T08:44:18Z</time>
      </trkpt>
      <trkpt lat="47.507942" lon="2.0721633">
        <ele>175.0</ele>
        <time>2022-05-19T08:44:19Z</time>
      </trkpt>
      <trkpt lat="47.50794" lon="2.072164">
        <ele>176.0</ele>
        <time>2022-05-19T08:44:20Z</time>
      </trkpt>
      <trkpt lat="47.50794" lon="2.072164">
        <ele>176.0</ele>
        <time>2022-05-19T08:44:20Z</time>
      </trkpt>
      <trkpt lat="47.50794" lon="2.072164">
        <ele>176.0</ele>
        <time>2022-05-19T08:44:20Z</time>
      </trkpt>
      <trkpt lat="47.507915" lon="2.0721428">
        <ele>182.0</ele>
        <time>2022-05-19T08:45:14Z</time>
      </trkpt>
      <trkpt lat="47.50792" lon="2.0721488">
        <ele>181.0</ele>
        <time>2022-05-19T08:45:15Z</time>
      </trkpt>
      <trkpt lat="47.50792" lon="2.0721512">
        <ele>181.0</ele>
        <time>2022-05-19T08:45:16Z</time>
      </trkpt>
      <trkpt lat="47.507923" lon="2.072151">
        <ele>181.0</ele>
        <time>2022-05-19T08:45:17Z</time>
      </trkpt>
      <trkpt lat="47.507923" lon="2.072151">
        <ele>181.0</ele>
        <time>2022-05-19T08:45:17Z</time>
      </trkpt>
      <trkpt lat="47.507923" lon="2.072151">
        <ele>181.0</ele>
        <time>2022-05-19T08:45:17Z</time>
      </trkpt>
      <trkpt lat="47.50787" lon="2.0721555">
        <ele>177.0</ele>
        <time>2022-05-19T08:45:34Z</time>
      </trkpt>
      <trkpt lat="47.507866" lon="2.072143">
        <ele>177.0</ele>
        <time>2022-05-19T08:45:35Z</time>
      </trkpt>
      <trkpt lat="47.50787" lon="2.072134">
        <ele>177.0</ele>
        <time>2022-05-19T08:45:36Z</time>
      </trkpt>
      <trkpt lat="47.50788" lon="2.072121">
        <ele>177.0</ele>
        <time>2022-05-19T08:45:37Z</time>
      </trkpt>
      <trkpt lat="47.5079" lon="2.072103">
        <ele>177.0</ele>
        <time>2022-05-19T08:45:38Z</time>
      </trkpt>
      <trkpt lat="47.50791" lon="2.0720904">
        <ele>177.0</ele>
        <time>2022-05-19T08:45:39Z</time>
      </trkpt>
      <trkpt lat="47.507923" lon="2.0720804">
        <ele>178.0</ele>
        <time>2022-05-19T08:45:40Z</time>
      </trkpt>
      <trkpt lat="47.507927" lon="2.0720744">
        <ele>178.0</ele>
        <time>2022-05-19T08:45:41Z</time>
      </trkpt>
      <trkpt lat="47.50793" lon="2.0720687">
        <ele>178.0</ele>
        <time>2022-05-19T08:45:42Z</time>
      </trkpt>
      <trkpt lat="47.50794" lon="2.0720623">
        <ele>179.0</ele>
        <time>2022-05-19T08:45:43Z</time>
      </trkpt>
      <trkpt lat="47.507946" lon="2.0720513">
        <ele>179.0</ele>
        <time>2022-05-19T08:45:44Z</time>
      </trkpt>
      <trkpt lat="47.507954" lon="2.0720413">
        <ele>179.0</ele>
        <time>2022-05-19T08:45:45Z</time>
      </trkpt>
      <trkpt lat="47.507957" lon="2.0720303">
        <ele>179.0</ele>
        <time>2022-05-19T08:45:46Z</time>
      </trkpt>
      <trkpt lat="47.507965" lon="2.0720165">
        <ele>179.0</ele>
        <time>2022-05-19T08:45:47Z</time>
      </trkpt>
      <trkpt lat="47.507977" lon="2.0720038">
        <ele>178.0</ele>
        <time>2022-05-19T08:45:48Z</time>
      </trkpt>
      <trkpt lat="47.507984" lon="2.0719914">
        <ele>178.0</ele>
        <time>2022-05-19T08:45:49Z</time>
      </trkpt>
      <trkpt lat="47.507996" lon="2.0719829">
        <ele>178.0</ele>
        <time>2022-05-19T08:45:50Z</time>
      </trkpt>
      <trkpt lat="47.508003" lon="2.071977">
        <ele>178.0</ele>
        <time>2022-05-19T08:45:51Z</time>
      </trkpt>
      <trkpt lat="47.50801" lon="2.0719635">
        <ele>179.0</ele>
        <time>2022-05-19T08:45:52Z</time>
      </trkpt>
      <trkpt lat="47.50802" lon="2.0719473">
        <ele>179.0</ele>
        <time>2022-05-19T08:45:53Z</time>
      </trkpt>
      <trkpt lat="47.508026" lon="2.0719423">
        <ele>179.0</ele>
        <time>2022-05-19T08:45:54Z</time>
      </trkpt>
      <trkpt lat="47.508034" lon="2.0719345">
        <ele>179.0</ele>
        <time>2022-05-19T08:45:55Z</time>
      </trkpt>
      <trkpt lat="47.508045" lon="2.0719326">
        <ele>179.0</ele>
        <time>2022-05-19T08:45:56Z</time>
      </trkpt>
      <trkpt lat="47.50805" lon="2.0719242">
        <ele>179.0</ele>
        <time>2022-05-19T08:45:57Z</time>
      </trkpt>
      <trkpt lat="47.508053" lon="2.0719144">
        <ele>179.0</ele>
        <time>2022-05-19T08:45:58Z</time>
      </trkpt>
      <trkpt lat="47.508064" lon="2.0719051">
        <ele>179.0</ele>
        <time>2022-05-19T08:45:59Z</time>
      </trkpt>
      <trkpt lat="47.50807" lon="2.071896">
        <ele>179.0</ele>
        <time>2022-05-19T08:46:00Z</time>
      </trkpt>
      <trkpt lat="47.508083" lon="2.0718832">
        <ele>179.0</ele>
        <time>2022-05-19T08:46:01Z</time>
      </trkpt>
      <trkpt lat="47.508095" lon="2.0718725">
        <ele>179.0</ele>
        <time>2022-05-19T08:46:02Z</time>
      </trkpt>
      <trkpt lat="47.508106" lon="2.0718596">
        <ele>179.0</ele>
        <time>2022-05-19T08:46:03Z</time>
      </trkpt>
      <trkpt lat="47.50812" lon="2.0718446">
        <ele>180.0</ele>
        <time>2022-05-19T08:46:04Z</time>
      </trkpt>
      <trkpt lat="47.508133" lon="2.0718327">
        <ele>180.0</ele>
        <time>2022-05-19T08:46:05Z</time>
      </trkpt>
      <trkpt lat="47.508144" lon="2.071822">
        <ele>180.0</ele>
        <time>2022-05-19T08:46:06Z</time>
      </trkpt>
      <trkpt lat="47.508152" lon="2.0718129">
        <ele>181.0</ele>
        <time>2022-05-19T08:46:07Z</time>
      </trkpt>
      <trkpt lat="47.508163" lon="2.0718043">
        <ele>181.0</ele>
        <time>2022-05-19T08:46:08Z</time>
      </trkpt>
      <trkpt lat="47.50817" lon="2.071792">
        <ele>181.0</ele>
        <time>2022-05-19T08:46:09Z</time>
      </trkpt>
      <trkpt lat="47.50818" lon="2.0717838">
        <ele>182.0</ele>
        <time>2022-05-19T08:46:10Z</time>
      </trkpt>
      <trkpt lat="47.508194" lon="2.0717723">
        <ele>182.0</ele>
        <time>2022-05-19T08:46:11Z</time>
      </trkpt>
      <trkpt lat="47.5082" lon="2.0717583">
        <ele>182.0</ele>
        <time>2022-05-19T08:46:12Z</time>
      </trkpt>
      <trkpt lat="47.50821" lon="2.0717404">
        <ele>182.0</ele>
        <time>2022-05-19T08:46:13Z</time>
      </trkpt>
      <trkpt lat="47.508217" lon="2.071722">
        <ele>182.0</ele>
        <time>2022-05-19T08:46:14Z</time>
      </trkpt>
      <trkpt lat="47.50822" lon="2.071704">
        <ele>182.0</ele>
        <time>2022-05-19T08:46:15Z</time>
      </trkpt>
      <trkpt lat="47.50823" lon="2.0716922">
        <ele>182.0</ele>
        <time>2022-05-19T08:46:16Z</time>
      </trkpt>
      <trkpt lat="47.508236" lon="2.0716784">
        <ele>182.0</ele>
        <time>2022-05-19T08:46:17Z</time>
      </trkpt>
      <trkpt lat="47.508244" lon="2.0716639">
        <ele>182.0</ele>
        <time>2022-05-19T08:46:18Z</time>
      </trkpt>
      <trkpt lat="47.508255" lon="2.0716474">
        <ele>183.0</ele>
        <time>2022-05-19T08:46:19Z</time>
      </trkpt>
      <trkpt lat="47.508263" lon="2.0716348">
        <ele>183.0</ele>
        <time>2022-05-19T08:46:20Z</time>
      </trkpt>
      <trkpt lat="47.50827" lon="2.0716226">
        <ele>183.0</ele>
        <time>2022-05-19T08:46:21Z</time>
      </trkpt>
      <trkpt lat="47.508274" lon="2.07161">
        <ele>183.0</ele>
        <time>2022-05-19T08:46:22Z</time>
      </trkpt>
      <trkpt lat="47.508286" lon="2.0715973">
        <ele>184.0</ele>
        <time>2022-05-19T08:46:23Z</time>
      </trkpt>
      <trkpt lat="47.508297" lon="2.0715861">
        <ele>184.0</ele>
        <time>2022-05-19T08:46:24Z</time>
      </trkpt>
      <trkpt lat="47.50831" lon="2.071577">
        <ele>184.0</ele>
        <time>2022-05-19T08:46:25Z</time>
      </trkpt>
      <trkpt lat="47.508324" lon="2.0715702">
        <ele>184.0</ele>
        <time>2022-05-19T08:46:26Z</time>
      </trkpt>
      <trkpt lat="47.50833" lon="2.0715632">
        <ele>184.0</ele>
        <time>2022-05-19T08:46:27Z</time>
      </trkpt>
      <trkpt lat="47.50834" lon="2.071553">
        <ele>184.0</ele>
        <time>2022-05-19T08:46:28Z</time>
      </trkpt>
      <trkpt lat="47.508347" lon="2.071545">
        <ele>184.0</ele>
        <time>2022-05-19T08:46:29Z</time>
      </trkpt>
      <trkpt lat="47.508354" lon="2.0715353">
        <ele>184.0</ele>
        <time>2022-05-19T08:46:30Z</time>
      </trkpt>
      <trkpt lat="47.50836" lon="2.0715277">
        <ele>184.0</ele>
        <time>2022-05-19T08:46:31Z</time>
      </trkpt>
      <trkpt lat="47.508373" lon="2.071521">
        <ele>184.0</ele>
        <time>2022-05-19T08:46:32Z</time>
      </trkpt>
      <trkpt lat="47.50839" lon="2.0715153">
        <ele>184.0</ele>
        <time>2022-05-19T08:46:33Z</time>
      </trkpt>
      <trkpt lat="47.5084" lon="2.0715067">
        <ele>184.0</ele>
        <time>2022-05-19T08:46:34Z</time>
      </trkpt>
      <trkpt lat="47.50841" lon="2.071495">
        <ele>184.0</ele>
        <time>2022-05-19T08:46:35Z</time>
      </trkpt>
      <trkpt lat="47.50842" lon="2.071483">
        <ele>184.0</ele>
        <time>2022-05-19T08:46:36Z</time>
      </trkpt>
      <trkpt lat="47.50843" lon="2.0714734">
        <ele>184.0</ele>
        <time>2022-05-19T08:46:37Z</time>
      </trkpt>
      <trkpt lat="47.508434" lon="2.0714622">
        <ele>183.0</ele>
        <time>2022-05-19T08:46:38Z</time>
      </trkpt>
      <trkpt lat="47.508446" lon="2.0714505">
        <ele>183.0</ele>
        <time>2022-05-19T08:46:39Z</time>
      </trkpt>
      <trkpt lat="47.50845" lon="2.071436">
        <ele>184.0</ele>
        <time>2022-05-19T08:46:40Z</time>
      </trkpt>
      <trkpt lat="47.508465" lon="2.0714211">
        <ele>184.0</ele>
        <time>2022-05-19T08:46:41Z</time>
      </trkpt>
      <trkpt lat="47.508484" lon="2.0714176">
        <ele>184.0</ele>
        <time>2022-05-19T08:46:42Z</time>
      </trkpt>
      <trkpt lat="47.508495" lon="2.0714192">
        <ele>184.0</ele>
        <time>2022-05-19T08:46:43Z</time>
      </trkpt>
      <trkpt lat="47.508507" lon="2.0714195">
        <ele>185.0</ele>
        <time>2022-05-19T08:46:44Z</time>
      </trkpt>
      <trkpt lat="47.50852" lon="2.071414">
        <ele>185.0</ele>
        <time>2022-05-19T08:46:45Z</time>
      </trkpt>
      <trkpt lat="47.50853" lon="2.0714133">
        <ele>185.0</ele>
        <time>2022-05-19T08:46:46Z</time>
      </trkpt>
      <trkpt lat="47.50855" lon="2.071407">
        <ele>185.0</ele>
        <time>2022-05-19T08:46:47Z</time>
      </trkpt>
      <trkpt lat="47.508553" lon="2.0714">
        <ele>185.0</ele>
        <time>2022-05-19T08:46:48Z</time>
      </trkpt>
      <trkpt lat="47.508564" lon="2.0713906">
        <ele>185.0</ele>
        <time>2022-05-19T08:46:49Z</time>
      </trkpt>
      <trkpt lat="47.508575" lon="2.071376">
        <ele>185.0</ele>
        <time>2022-05-19T08:46:50Z</time>
      </trkpt>
      <trkpt lat="47.508587" lon="2.0713654">
        <ele>186.0</ele>
        <time>2022-05-19T08:46:51Z</time>
      </trkpt>
      <trkpt lat="47.5086" lon="2.0713549">
        <ele>186.0</ele>
        <time>2022-05-19T08:46:52Z</time>
      </trkpt>
      <trkpt lat="47.50861" lon="2.0713422">
        <ele>186.0</ele>
        <time>2022-05-19T08:46:53Z</time>
      </trkpt>
      <trkpt lat="47.50862" lon="2.0713246">
        <ele>186.0</ele>
        <time>2022-05-19T08:46:54Z</time>
      </trkpt>
      <trkpt lat="47.508633" lon="2.07131">
        <ele>186.0</ele>
        <time>2022-05-19T08:46:55Z</time>
      </trkpt>
      <trkpt lat="47.508644" lon="2.0712965">
        <ele>186.0</ele>
        <time>2022-05-19T08:46:56Z</time>
      </trkpt>
      <trkpt lat="47.508656" lon="2.0712883">
        <ele>186.0</ele>
        <time>2022-05-19T08:46:57Z</time>
      </trkpt>
      <trkpt lat="47.508663" lon="2.0712836">
        <ele>186.0</ele>
        <time>2022-05-19T08:46:58Z</time>
      </trkpt>
      <trkpt lat="47.508675" lon="2.0712771">
        <ele>186.0</ele>
        <time>2022-05-19T08:46:59Z</time>
      </trkpt>
      <trkpt lat="47.508686" lon="2.0712607">
        <ele>187.0</ele>
        <time>2022-05-19T08:47:00Z</time>
      </trkpt>
      <trkpt lat="47.508694" lon="2.0712483">
        <ele>188.0</ele>
        <time>2022-05-19T08:47:01Z</time>
      </trkpt>
      <trkpt lat="47.5087" lon="2.0712388">
        <ele>188.0</ele>
        <time>2022-05-19T08:47:02Z</time>
      </trkpt>
      <trkpt lat="47.508713" lon="2.0712304">
        <ele>188.0</ele>
        <time>2022-05-19T08:47:03Z</time>
      </trkpt>
      <trkpt lat="47.508724" lon="2.0712252">
        <ele>188.0</ele>
        <time>2022-05-19T08:47:04Z</time>
      </trkpt>
      <trkpt lat="47.508736" lon="2.07122">
        <ele>188.0</ele>
        <time>2022-05-19T08:47:05Z</time>
      </trkpt>
      <trkpt lat="47.508743" lon="2.0712168">
        <ele>188.0</ele>
        <time>2022-05-19T08:47:06Z</time>
      </trkpt>
      <trkpt lat="47.508755" lon="2.0712137">
        <ele>188.0</ele>
        <time>2022-05-19T08:47:07Z</time>
      </trkpt>
      <trkpt lat="47.508766" lon="2.0712075">
        <ele>188.0</ele>
        <time>2022-05-19T08:47:08Z</time>
      </trkpt>
      <trkpt lat="47.508778" lon="2.0712097">
        <ele>188.0</ele>
        <time>2022-05-19T08:47:09Z</time>
      </trkpt>
      <trkpt lat="47.508785" lon="2.071207">
        <ele>188.0</ele>
        <time>2022-05-19T08:47:10Z</time>
      </trkpt>
      <trkpt lat="47.508793" lon="2.0712001">
        <ele>188.0</ele>
        <time>2022-05-19T08:47:11Z</time>
      </trkpt>
      <trkpt lat="47.5088" lon="2.071196">
        <ele>188.0</ele>
        <time>2022-05-19T08:47:12Z</time>
      </trkpt>
      <trkpt lat="47.508804" lon="2.0711908">
        <ele>187.0</ele>
        <time>2022-05-19T08:47:13Z</time>
      </trkpt>
      <trkpt lat="47.508812" lon="2.071184">
        <ele>187.0</ele>
        <time>2022-05-19T08:47:14Z</time>
      </trkpt>
      <trkpt lat="47.508816" lon="2.0711808">
        <ele>187.0</ele>
        <time>2022-05-19T08:47:15Z</time>
      </trkpt>
      <trkpt lat="47.50882" lon="2.0711708">
        <ele>187.0</ele>
        <time>2022-05-19T08:47:16Z</time>
      </trkpt>
      <trkpt lat="47.50883" lon="2.0711634">
        <ele>187.0</ele>
        <time>2022-05-19T08:47:17Z</time>
      </trkpt>
      <trkpt lat="47.508846" lon="2.071151">
        <ele>188.0</ele>
        <time>2022-05-19T08:47:18Z</time>
      </trkpt>
      <trkpt lat="47.508854" lon="2.0711439">
        <ele>188.0</ele>
        <time>2022-05-19T08:47:19Z</time>
      </trkpt>
      <trkpt lat="47.50886" lon="2.0711358">
        <ele>188.0</ele>
        <time>2022-05-19T08:47:20Z</time>
      </trkpt>
      <trkpt lat="47.508873" lon="2.071125">
        <ele>188.0</ele>
        <time>2022-05-19T08:47:21Z</time>
      </trkpt>
      <trkpt lat="47.508884" lon="2.0711122">
        <ele>188.0</ele>
        <time>2022-05-19T08:47:22Z</time>
      </trkpt>
      <trkpt lat="47.508896" lon="2.0711012">
        <ele>188.0</ele>
        <time>2022-05-19T08:47:23Z</time>
      </trkpt>
      <trkpt lat="47.508907" lon="2.0710924">
        <ele>188.0</ele>
        <time>2022-05-19T08:47:24Z</time>
      </trkpt>
      <trkpt lat="47.508915" lon="2.0710876">
        <ele>188.0</ele>
        <time>2022-05-19T08:47:25Z</time>
      </trkpt>
      <trkpt lat="47.508923" lon="2.0710857">
        <ele>188.0</ele>
        <time>2022-05-19T08:47:26Z</time>
      </trkpt>
      <trkpt lat="47.508938" lon="2.071083">
        <ele>188.0</ele>
        <time>2022-05-19T08:47:27Z</time>
      </trkpt>
      <trkpt lat="47.50894" lon="2.0710769">
        <ele>187.0</ele>
        <time>2022-05-19T08:47:28Z</time>
      </trkpt>
      <trkpt lat="47.50895" lon="2.0710623">
        <ele>187.0</ele>
        <time>2022-05-19T08:47:29Z</time>
      </trkpt>
      <trkpt lat="47.50896" lon="2.0710506">
        <ele>187.0</ele>
        <time>2022-05-19T08:47:30Z</time>
      </trkpt>
      <trkpt lat="47.508972" lon="2.071043">
        <ele>187.0</ele>
        <time>2022-05-19T08:47:31Z</time>
      </trkpt>
      <trkpt lat="47.50898" lon="2.0710373">
        <ele>187.0</ele>
        <time>2022-05-19T08:47:32Z</time>
      </trkpt>
      <trkpt lat="47.50899" lon="2.0710278">
        <ele>187.0</ele>
        <time>2022-05-19T08:47:33Z</time>
      </trkpt>
      <trkpt lat="47.509003" lon="2.0710146">
        <ele>187.0</ele>
        <time>2022-05-19T08:47:34Z</time>
      </trkpt>
      <trkpt lat="47.50901" lon="2.0710056">
        <ele>187.0</ele>
        <time>2022-05-19T08:47:35Z</time>
      </trkpt>
      <trkpt lat="47.509026" lon="2.0709915">
        <ele>187.0</ele>
        <time>2022-05-19T08:47:36Z</time>
      </trkpt>
      <trkpt lat="47.509037" lon="2.0709746">
        <ele>187.0</ele>
        <time>2022-05-19T08:47:37Z</time>
      </trkpt>
      <trkpt lat="47.50905" lon="2.070962">
        <ele>187.0</ele>
        <time>2022-05-19T08:47:38Z</time>
      </trkpt>
      <trkpt lat="47.509056" lon="2.070944">
        <ele>187.0</ele>
        <time>2022-05-19T08:47:39Z</time>
      </trkpt>
      <trkpt lat="47.509068" lon="2.070929">
        <ele>187.0</ele>
        <time>2022-05-19T08:47:40Z</time>
      </trkpt>
      <trkpt lat="47.50908" lon="2.0709162">
        <ele>187.0</ele>
        <time>2022-05-19T08:47:41Z</time>
      </trkpt>
      <trkpt lat="47.50909" lon="2.0709012">
        <ele>187.0</ele>
        <time>2022-05-19T08:47:42Z</time>
      </trkpt>
      <trkpt lat="47.509098" lon="2.0708864">
        <ele>187.0</ele>
        <time>2022-05-19T08:47:43Z</time>
      </trkpt>
      <trkpt lat="47.509113" lon="2.070871">
        <ele>187.0</ele>
        <time>2022-05-19T08:47:44Z</time>
      </trkpt>
      <trkpt lat="47.509125" lon="2.0708587">
        <ele>188.0</ele>
        <time>2022-05-19T08:47:45Z</time>
      </trkpt>
      <trkpt lat="47.509136" lon="2.0708394">
        <ele>188.0</ele>
        <time>2022-05-19T08:47:46Z</time>
      </trkpt>
      <trkpt lat="47.509144" lon="2.0708268">
        <ele>188.0</ele>
        <time>2022-05-19T08:47:47Z</time>
      </trkpt>
      <trkpt lat="47.509155" lon="2.0708146">
        <ele>188.0</ele>
        <time>2022-05-19T08:47:48Z</time>
      </trkpt>
      <trkpt lat="47.509167" lon="2.070809">
        <ele>188.0</ele>
        <time>2022-05-19T08:47:49Z</time>
      </trkpt>
      <trkpt lat="47.50918" lon="2.0707965">
        <ele>188.0</ele>
        <time>2022-05-19T08:47:50Z</time>
      </trkpt>
      <trkpt lat="47.50919" lon="2.0707808">
        <ele>188.0</ele>
        <time>2022-05-19T08:47:51Z</time>
      </trkpt>
      <trkpt lat="47.509197" lon="2.0707648">
        <ele>188.0</ele>
        <time>2022-05-19T08:47:52Z</time>
      </trkpt>
      <trkpt lat="47.50921" lon="2.070753">
        <ele>189.0</ele>
        <time>2022-05-19T08:47:53Z</time>
      </trkpt>
      <trkpt lat="47.509228" lon="2.0707433">
        <ele>189.0</ele>
        <time>2022-05-19T08:47:54Z</time>
      </trkpt>
      <trkpt lat="47.50924" lon="2.0707347">
        <ele>188.0</ele>
        <time>2022-05-19T08:47:55Z</time>
      </trkpt>
      <trkpt lat="47.509247" lon="2.070723">
        <ele>188.0</ele>
        <time>2022-05-19T08:47:56Z</time>
      </trkpt>
      <trkpt lat="47.50926" lon="2.0707169">
        <ele>189.0</ele>
        <time>2022-05-19T08:47:57Z</time>
      </trkpt>
      <trkpt lat="47.50927" lon="2.0707052">
        <ele>188.0</ele>
        <time>2022-05-19T08:47:58Z</time>
      </trkpt>
      <trkpt lat="47.50928" lon="2.0706978">
        <ele>188.0</ele>
        <time>2022-05-19T08:47:59Z</time>
      </trkpt>
      <trkpt lat="47.50929" lon="2.0706868">
        <ele>188.0</ele>
        <time>2022-05-19T08:48:00Z</time>
      </trkpt>
      <trkpt lat="47.509296" lon="2.0706697">
        <ele>188.0</ele>
        <time>2022-05-19T08:48:01Z</time>
      </trkpt>
      <trkpt lat="47.509304" lon="2.0706573">
        <ele>188.0</ele>
        <time>2022-05-19T08:48:02Z</time>
      </trkpt>
      <trkpt lat="47.50931" lon="2.070646">
        <ele>188.0</ele>
        <time>2022-05-19T08:48:03Z</time>
      </trkpt>
      <trkpt lat="47.509323" lon="2.0706387">
        <ele>187.0</ele>
        <time>2022-05-19T08:48:04Z</time>
      </trkpt>
      <trkpt lat="47.509335" lon="2.0706322">
        <ele>187.0</ele>
        <time>2022-05-19T08:48:05Z</time>
      </trkpt>
      <trkpt lat="47.509346" lon="2.0706217">
        <ele>187.0</ele>
        <time>2022-05-19T08:48:06Z</time>
      </trkpt>
      <trkpt lat="47.509354" lon="2.0706122">
        <ele>187.0</ele>
        <time>2022-05-19T08:48:07Z</time>
      </trkpt>
      <trkpt lat="47.50936" lon="2.0705986">
        <ele>187.0</ele>
        <time>2022-05-19T08:48:08Z</time>
      </trkpt>
      <trkpt lat="47.509365" lon="2.0705845">
        <ele>188.0</ele>
        <time>2022-05-19T08:48:09Z</time>
      </trkpt>
      <trkpt lat="47.509377" lon="2.070576">
        <ele>188.0</ele>
        <time>2022-05-19T08:48:10Z</time>
      </trkpt>
      <trkpt lat="47.509388" lon="2.07057">
        <ele>188.0</ele>
        <time>2022-05-19T08:48:11Z</time>
      </trkpt>
      <trkpt lat="47.509396" lon="2.07056">
        <ele>188.0</ele>
        <time>2022-05-19T08:48:12Z</time>
      </trkpt>
      <trkpt lat="47.5094" lon="2.070546">
        <ele>187.0</ele>
        <time>2022-05-19T08:48:13Z</time>
      </trkpt>
      <trkpt lat="47.509403" lon="2.0705297">
        <ele>187.0</ele>
        <time>2022-05-19T08:48:14Z</time>
      </trkpt>
      <trkpt lat="47.50941" lon="2.07052">
        <ele>187.0</ele>
        <time>2022-05-19T08:48:15Z</time>
      </trkpt>
      <trkpt lat="47.50942" lon="2.0705085">
        <ele>186.0</ele>
        <time>2022-05-19T08:48:16Z</time>
      </trkpt>
      <trkpt lat="47.509426" lon="2.0704904">
        <ele>187.0</ele>
        <time>2022-05-19T08:48:17Z</time>
      </trkpt>
      <trkpt lat="47.509426" lon="2.0704741">
        <ele>186.0</ele>
        <time>2022-05-19T08:48:18Z</time>
      </trkpt>
      <trkpt lat="47.509434" lon="2.070459">
        <ele>187.0</ele>
        <time>2022-05-19T08:48:19Z</time>
      </trkpt>
      <trkpt lat="47.509445" lon="2.0704463">
        <ele>187.0</ele>
        <time>2022-05-19T08:48:20Z</time>
      </trkpt>
      <trkpt lat="47.509457" lon="2.0704339">
        <ele>187.0</ele>
        <time>2022-05-19T08:48:21Z</time>
      </trkpt>
      <trkpt lat="47.509468" lon="2.0704226">
        <ele>187.0</ele>
        <time>2022-05-19T08:48:22Z</time>
      </trkpt>
      <trkpt lat="47.50948" lon="2.0704103">
        <ele>187.0</ele>
        <time>2022-05-19T08:48:23Z</time>
      </trkpt>
      <trkpt lat="47.509495" lon="2.0704">
        <ele>187.0</ele>
        <time>2022-05-19T08:48:24Z</time>
      </trkpt>
      <trkpt lat="47.509502" lon="2.0703902">
        <ele>187.0</ele>
        <time>2022-05-19T08:48:25Z</time>
      </trkpt>
      <trkpt lat="47.509514" lon="2.0703752">
        <ele>187.0</ele>
        <time>2022-05-19T08:48:26Z</time>
      </trkpt>
      <trkpt lat="47.50952" lon="2.0703573">
        <ele>187.0</ele>
        <time>2022-05-19T08:48:27Z</time>
      </trkpt>
      <trkpt lat="47.50953" lon="2.0703406">
        <ele>187.0</ele>
        <time>2022-05-19T08:48:28Z</time>
      </trkpt>
      <trkpt lat="47.509537" lon="2.0703273">
        <ele>188.0</ele>
        <time>2022-05-19T08:48:29Z</time>
      </trkpt>
      <trkpt lat="47.509544" lon="2.0703175">
        <ele>188.0</ele>
        <time>2022-05-19T08:48:30Z</time>
      </trkpt>
      <trkpt lat="47.509556" lon="2.0703106">
        <ele>189.0</ele>
        <time>2022-05-19T08:48:31Z</time>
      </trkpt>
      <trkpt lat="47.50957" lon="2.0703032">
        <ele>189.0</ele>
        <time>2022-05-19T08:48:32Z</time>
      </trkpt>
      <trkpt lat="47.509583" lon="2.0702918">
        <ele>189.0</ele>
        <time>2022-05-19T08:48:33Z</time>
      </trkpt>
      <trkpt lat="47.509598" lon="2.0702848">
        <ele>189.0</ele>
        <time>2022-05-19T08:48:34Z</time>
      </trkpt>
      <trkpt lat="47.509605" lon="2.0702739">
        <ele>189.0</ele>
        <time>2022-05-19T08:48:35Z</time>
      </trkpt>
      <trkpt lat="47.509617" lon="2.070263">
        <ele>189.0</ele>
        <time>2022-05-19T08:48:36Z</time>
      </trkpt>
      <trkpt lat="47.50963" lon="2.0702538">
        <ele>189.0</ele>
        <time>2022-05-19T08:48:37Z</time>
      </trkpt>
      <trkpt lat="47.509636" lon="2.0702422">
        <ele>188.0</ele>
        <time>2022-05-19T08:48:38Z</time>
      </trkpt>
      <trkpt lat="47.509647" lon="2.0702257">
        <ele>188.0</ele>
        <time>2022-05-19T08:48:39Z</time>
      </trkpt>
      <trkpt lat="47.509655" lon="2.070215">
        <ele>188.0</ele>
        <time>2022-05-19T08:48:40Z</time>
      </trkpt>
      <trkpt lat="47.509666" lon="2.070201">
        <ele>187.0</ele>
        <time>2022-05-19T08:48:41Z</time>
      </trkpt>
      <trkpt lat="47.509678" lon="2.0701883">
        <ele>186.0</ele>
        <time>2022-05-19T08:48:42Z</time>
      </trkpt>
      <trkpt lat="47.509693" lon="2.0701804">
        <ele>186.0</ele>
        <time>2022-05-19T08:48:43Z</time>
      </trkpt>
      <trkpt lat="47.50971" lon="2.070178">
        <ele>186.0</ele>
        <time>2022-05-19T08:48:44Z</time>
      </trkpt>
      <trkpt lat="47.50972" lon="2.0701704">
        <ele>186.0</ele>
        <time>2022-05-19T08:48:45Z</time>
      </trkpt>
      <trkpt lat="47.50973" lon="2.0701652">
        <ele>186.0</ele>
        <time>2022-05-19T08:48:46Z</time>
      </trkpt>
      <trkpt lat="47.50974" lon="2.070159">
        <ele>185.0</ele>
        <time>2022-05-19T08:48:47Z</time>
      </trkpt>
      <trkpt lat="47.509747" lon="2.0701532">
        <ele>185.0</ele>
        <time>2022-05-19T08:48:48Z</time>
      </trkpt>
      <trkpt lat="47.50975" lon="2.0701475">
        <ele>184.0</ele>
        <time>2022-05-19T08:48:49Z</time>
      </trkpt>
      <trkpt lat="47.509758" lon="2.0701425">
        <ele>184.0</ele>
        <time>2022-05-19T08:48:50Z</time>
      </trkpt>
      <trkpt lat="47.509766" lon="2.0701323">
        <ele>184.0</ele>
        <time>2022-05-19T08:48:51Z</time>
      </trkpt>
      <trkpt lat="47.50977" lon="2.0701232">
        <ele>184.0</ele>
        <time>2022-05-19T08:48:52Z</time>
      </trkpt>
      <trkpt lat="47.509777" lon="2.070118">
        <ele>184.0</ele>
        <time>2022-05-19T08:48:53Z</time>
      </trkpt>
      <trkpt lat="47.509785" lon="2.0701046">
        <ele>184.0</ele>
        <time>2022-05-19T08:48:54Z</time>
      </trkpt>
      <trkpt lat="47.509792" lon="2.070095">
        <ele>184.0</ele>
        <time>2022-05-19T08:48:55Z</time>
      </trkpt>
      <trkpt lat="47.509804" lon="2.0700896">
        <ele>183.0</ele>
        <time>2022-05-19T08:48:56Z</time>
      </trkpt>
      <trkpt lat="47.50982" lon="2.0700793">
        <ele>183.0</ele>
        <time>2022-05-19T08:48:57Z</time>
      </trkpt>
      <trkpt lat="47.509827" lon="2.0700638">
        <ele>183.0</ele>
        <time>2022-05-19T08:48:58Z</time>
      </trkpt>
      <trkpt lat="47.509834" lon="2.0700486">
        <ele>183.0</ele>
        <time>2022-05-19T08:48:59Z</time>
      </trkpt>
      <trkpt lat="47.509842" lon="2.0700355">
        <ele>182.0</ele>
        <time>2022-05-19T08:49:00Z</time>
      </trkpt>
      <trkpt lat="47.509853" lon="2.0700245">
        <ele>182.0</ele>
        <time>2022-05-19T08:49:01Z</time>
      </trkpt>
      <trkpt lat="47.509865" lon="2.07001">
        <ele>182.0</ele>
        <time>2022-05-19T08:49:02Z</time>
      </trkpt>
      <trkpt lat="47.509872" lon="2.0699995">
        <ele>182.0</ele>
        <time>2022-05-19T08:49:03Z</time>
      </trkpt>
      <trkpt lat="47.509884" lon="2.0699992">
        <ele>182.0</ele>
        <time>2022-05-19T08:49:04Z</time>
      </trkpt>
      <trkpt lat="47.509895" lon="2.0699914">
        <ele>182.0</ele>
        <time>2022-05-19T08:49:05Z</time>
      </trkpt>
      <trkpt lat="47.509907" lon="2.0699797">
        <ele>182.0</ele>
        <time>2022-05-19T08:49:06Z</time>
      </trkpt>
      <trkpt lat="47.50992" lon="2.0699677">
        <ele>182.0</ele>
        <time>2022-05-19T08:49:07Z</time>
      </trkpt>
      <trkpt lat="47.509922" lon="2.0699642">
        <ele>181.0</ele>
        <time>2022-05-19T08:49:08Z</time>
      </trkpt>
      <trkpt lat="47.509926" lon="2.0699544">
        <ele>181.0</ele>
        <time>2022-05-19T08:49:09Z</time>
      </trkpt>
      <trkpt lat="47.509926" lon="2.0699441">
        <ele>181.0</ele>
        <time>2022-05-19T08:49:10Z</time>
      </trkpt>
      <trkpt lat="47.509922" lon="2.0699294">
        <ele>181.0</ele>
        <time>2022-05-19T08:49:11Z</time>
      </trkpt>
      <trkpt lat="47.509922" lon="2.0699162">
        <ele>181.0</ele>
        <time>2022-05-19T08:49:12Z</time>
      </trkpt>
      <trkpt lat="47.509926" lon="2.0699072">
        <ele>180.0</ele>
        <time>2022-05-19T08:49:13Z</time>
      </trkpt>
      <trkpt lat="47.50993" lon="2.0698874">
        <ele>180.0</ele>
        <time>2022-05-19T08:49:14Z</time>
      </trkpt>
      <trkpt lat="47.50994" lon="2.0698662">
        <ele>180.0</ele>
        <time>2022-05-19T08:49:15Z</time>
      </trkpt>
      <trkpt lat="47.50995" lon="2.0698466">
        <ele>180.0</ele>
        <time>2022-05-19T08:49:16Z</time>
      </trkpt>
      <trkpt lat="47.509964" lon="2.0698338">
        <ele>180.0</ele>
        <time>2022-05-19T08:49:17Z</time>
      </trkpt>
      <trkpt lat="47.50998" lon="2.0698233">
        <ele>180.0</ele>
        <time>2022-05-19T08:49:18Z</time>
      </trkpt>
      <trkpt lat="47.509995" lon="2.0698159">
        <ele>181.0</ele>
        <time>2022-05-19T08:49:19Z</time>
      </trkpt>
      <trkpt lat="47.510014" lon="2.0698147">
        <ele>181.0</ele>
        <time>2022-05-19T08:49:20Z</time>
      </trkpt>
      <trkpt lat="47.51002" lon="2.0698009">
        <ele>181.0</ele>
        <time>2022-05-19T08:49:21Z</time>
      </trkpt>
      <trkpt lat="47.51003" lon="2.0697842">
        <ele>181.0</ele>
        <time>2022-05-19T08:49:22Z</time>
      </trkpt>
      <trkpt lat="47.51004" lon="2.0697696">
        <ele>181.0</ele>
        <time>2022-05-19T08:49:23Z</time>
      </trkpt>
      <trkpt lat="47.51005" lon="2.069756">
        <ele>181.0</ele>
        <time>2022-05-19T08:49:24Z</time>
      </trkpt>
      <trkpt lat="47.510063" lon="2.0697427">
        <ele>181.0</ele>
        <time>2022-05-19T08:49:25Z</time>
      </trkpt>
      <trkpt lat="47.51008" lon="2.0697308">
        <ele>181.0</ele>
        <time>2022-05-19T08:49:26Z</time>
      </trkpt>
      <trkpt lat="47.51009" lon="2.0697176">
        <ele>181.0</ele>
        <time>2022-05-19T08:49:27Z</time>
      </trkpt>
      <trkpt lat="47.510098" lon="2.0697043">
        <ele>181.0</ele>
        <time>2022-05-19T08:49:28Z</time>
      </trkpt>
      <trkpt lat="47.51011" lon="2.0696952">
        <ele>180.0</ele>
        <time>2022-05-19T08:49:29Z</time>
      </trkpt>
      <trkpt lat="47.51012" lon="2.0696914">
        <ele>180.0</ele>
        <time>2022-05-19T08:49:30Z</time>
      </trkpt>
      <trkpt lat="47.510136" lon="2.0696843">
        <ele>180.0</ele>
        <time>2022-05-19T08:49:31Z</time>
      </trkpt>
      <trkpt lat="47.510147" lon="2.0696769">
        <ele>180.0</ele>
        <time>2022-05-19T08:49:32Z</time>
      </trkpt>
      <trkpt lat="47.51016" lon="2.0696702">
        <ele>180.0</ele>
        <time>2022-05-19T08:49:33Z</time>
      </trkpt>
      <trkpt lat="47.510174" lon="2.069661">
        <ele>180.0</ele>
        <time>2022-05-19T08:49:34Z</time>
      </trkpt>
      <trkpt lat="47.51019" lon="2.06965">
        <ele>180.0</ele>
        <time>2022-05-19T08:49:35Z</time>
      </trkpt>
      <trkpt lat="47.5102" lon="2.069642">
        <ele>180.0</ele>
        <time>2022-05-19T08:49:36Z</time>
      </trkpt>
      <trkpt lat="47.510216" lon="2.0696344">
        <ele>181.0</ele>
        <time>2022-05-19T08:49:37Z</time>
      </trkpt>
      <trkpt lat="47.51023" lon="2.0696266">
        <ele>181.0</ele>
        <time>2022-05-19T08:49:38Z</time>
      </trkpt>
      <trkpt lat="47.510242" lon="2.0696144">
        <ele>181.0</ele>
        <time>2022-05-19T08:49:39Z</time>
      </trkpt>
      <trkpt lat="47.510254" lon="2.069601">
        <ele>181.0</ele>
        <time>2022-05-19T08:49:40Z</time>
      </trkpt>
      <trkpt lat="47.51026" lon="2.0695775">
        <ele>181.0</ele>
        <time>2022-05-19T08:49:41Z</time>
      </trkpt>
      <trkpt lat="47.510273" lon="2.0695558">
        <ele>182.0</ele>
        <time>2022-05-19T08:49:42Z</time>
      </trkpt>
      <trkpt lat="47.510284" lon="2.0695417">
        <ele>182.0</ele>
        <time>2022-05-19T08:49:43Z</time>
      </trkpt>
      <trkpt lat="47.5103" lon="2.069525">
        <ele>182.0</ele>
        <time>2022-05-19T08:49:44Z</time>
      </trkpt>
      <trkpt lat="47.510307" lon="2.0695143">
        <ele>182.0</ele>
        <time>2022-05-19T08:49:45Z</time>
      </trkpt>
      <trkpt lat="47.510315" lon="2.0695014">
        <ele>182.0</ele>
        <time>2022-05-19T08:49:46Z</time>
      </trkpt>
      <trkpt lat="47.510326" lon="2.0694911">
        <ele>182.0</ele>
        <time>2022-05-19T08:49:47Z</time>
      </trkpt>
      <trkpt lat="47.510338" lon="2.0694785">
        <ele>182.0</ele>
        <time>2022-05-19T08:49:48Z</time>
      </trkpt>
      <trkpt lat="47.510353" lon="2.0694656">
        <ele>182.0</ele>
        <time>2022-05-19T08:49:49Z</time>
      </trkpt>
      <trkpt lat="47.51036" lon="2.0694563">
        <ele>182.0</ele>
        <time>2022-05-19T08:49:50Z</time>
      </trkpt>
      <trkpt lat="47.510372" lon="2.0694413">
        <ele>182.0</ele>
        <time>2022-05-19T08:49:51Z</time>
      </trkpt>
      <trkpt lat="47.510376" lon="2.0694203">
        <ele>182.0</ele>
        <time>2022-05-19T08:49:52Z</time>
      </trkpt>
      <trkpt lat="47.510387" lon="2.0694034">
        <ele>182.0</ele>
        <time>2022-05-19T08:49:53Z</time>
      </trkpt>
      <trkpt lat="47.5104" lon="2.0693896">
        <ele>182.0</ele>
        <time>2022-05-19T08:49:54Z</time>
      </trkpt>
      <trkpt lat="47.510406" lon="2.069377">
        <ele>182.0</ele>
        <time>2022-05-19T08:49:55Z</time>
      </trkpt>
      <trkpt lat="47.51042" lon="2.0693667">
        <ele>182.0</ele>
        <time>2022-05-19T08:49:56Z</time>
      </trkpt>
      <trkpt lat="47.510433" lon="2.069355">
        <ele>182.0</ele>
        <time>2022-05-19T08:49:57Z</time>
      </trkpt>
      <trkpt lat="47.51044" lon="2.0693402">
        <ele>183.0</ele>
        <time>2022-05-19T08:49:58Z</time>
      </trkpt>
      <trkpt lat="47.510452" lon="2.0693283">
        <ele>183.0</ele>
        <time>2022-05-19T08:49:59Z</time>
      </trkpt>
      <trkpt lat="47.510468" lon="2.0693204">
        <ele>183.0</ele>
        <time>2022-05-19T08:50:00Z</time>
      </trkpt>
      <trkpt lat="47.51048" lon="2.0693085">
        <ele>183.0</ele>
        <time>2022-05-19T08:50:01Z</time>
      </trkpt>
      <trkpt lat="47.510487" lon="2.0692947">
        <ele>184.0</ele>
        <time>2022-05-19T08:50:02Z</time>
      </trkpt>
      <trkpt lat="47.510494" lon="2.0692801">
        <ele>183.0</ele>
        <time>2022-05-19T08:50:03Z</time>
      </trkpt>
      <trkpt lat="47.5105" lon="2.0692687">
        <ele>184.0</ele>
        <time>2022-05-19T08:50:04Z</time>
      </trkpt>
      <trkpt lat="47.510513" lon="2.0692632">
        <ele>184.0</ele>
        <time>2022-05-19T08:50:05Z</time>
      </trkpt>
      <trkpt lat="47.51053" lon="2.0692544">
        <ele>184.0</ele>
        <time>2022-05-19T08:50:06Z</time>
      </trkpt>
      <trkpt lat="47.510544" lon="2.069246">
        <ele>184.0</ele>
        <time>2022-05-19T08:50:07Z</time>
      </trkpt>
      <trkpt lat="47.510563" lon="2.0692396">
        <ele>185.0</ele>
        <time>2022-05-19T08:50:08Z</time>
      </trkpt>
      <trkpt lat="47.51058" lon="2.0692394">
        <ele>185.0</ele>
        <time>2022-05-19T08:50:09Z</time>
      </trkpt>
      <trkpt lat="47.51059" lon="2.0692365">
        <ele>185.0</ele>
        <time>2022-05-19T08:50:10Z</time>
      </trkpt>
      <trkpt lat="47.510597" lon="2.0692308">
        <ele>185.0</ele>
        <time>2022-05-19T08:50:11Z</time>
      </trkpt>
      <trkpt lat="47.510605" lon="2.0692232">
        <ele>185.0</ele>
        <time>2022-05-19T08:50:12Z</time>
      </trkpt>
      <trkpt lat="47.510612" lon="2.0692189">
        <ele>185.0</ele>
        <time>2022-05-19T08:50:13Z</time>
      </trkpt>
      <trkpt lat="47.510616" lon="2.0692122">
        <ele>185.0</ele>
        <time>2022-05-19T08:50:14Z</time>
      </trkpt>
      <trkpt lat="47.510624" lon="2.0692034">
        <ele>185.0</ele>
        <time>2022-05-19T08:50:15Z</time>
      </trkpt>
      <trkpt lat="47.51063" lon="2.069194">
        <ele>184.0</ele>
        <time>2022-05-19T08:50:16Z</time>
      </trkpt>
      <trkpt lat="47.51064" lon="2.0691824">
        <ele>184.0</ele>
        <time>2022-05-19T08:50:17Z</time>
      </trkpt>
      <trkpt lat="47.51065" lon="2.0691729">
        <ele>184.0</ele>
        <time>2022-05-19T08:50:18Z</time>
      </trkpt>
      <trkpt lat="47.51066" lon="2.0691617">
        <ele>183.0</ele>
        <time>2022-05-19T08:50:19Z</time>
      </trkpt>
      <trkpt lat="47.510666" lon="2.0691535">
        <ele>184.0</ele>
        <time>2022-05-19T08:50:20Z</time>
      </trkpt>
      <trkpt lat="47.510677" lon="2.0691445">
        <ele>184.0</ele>
        <time>2022-05-19T08:50:21Z</time>
      </trkpt>
      <trkpt lat="47.510685" lon="2.0691342">
        <ele>184.0</ele>
        <time>2022-05-19T08:50:22Z</time>
      </trkpt>
      <trkpt lat="47.510693" lon="2.0691245">
        <ele>184.0</ele>
        <time>2022-05-19T08:50:23Z</time>
      </trkpt>
      <trkpt lat="47.510704" lon="2.0691147">
        <ele>183.0</ele>
        <time>2022-05-19T08:50:24Z</time>
      </trkpt>
      <trkpt lat="47.51071" lon="2.0691085">
        <ele>183.0</ele>
        <time>2022-05-19T08:50:25Z</time>
      </trkpt>
      <trkpt lat="47.510723" lon="2.0691006">
        <ele>183.0</ele>
        <time>2022-05-19T08:50:26Z</time>
      </trkpt>
      <trkpt lat="47.510735" lon="2.0690894">
        <ele>183.0</ele>
        <time>2022-05-19T08:50:27Z</time>
      </trkpt>
      <trkpt lat="47.51075" lon="2.0690806">
        <ele>183.0</ele>
        <time>2022-05-19T08:50:28Z</time>
      </trkpt>
      <trkpt lat="47.51076" lon="2.069069">
        <ele>184.0</ele>
        <time>2022-05-19T08:50:29Z</time>
      </trkpt>
      <trkpt lat="47.51077" lon="2.069059">
        <ele>184.0</ele>
        <time>2022-05-19T08:50:30Z</time>
      </trkpt>
      <trkpt lat="47.510777" lon="2.0690484">
        <ele>184.0</ele>
        <time>2022-05-19T08:50:31Z</time>
      </trkpt>
      <trkpt lat="47.510788" lon="2.0690408">
        <ele>184.0</ele>
        <time>2022-05-19T08:50:32Z</time>
      </trkpt>
      <trkpt lat="47.5108" lon="2.0690355">
        <ele>184.0</ele>
        <time>2022-05-19T08:50:33Z</time>
      </trkpt>
      <trkpt lat="47.510815" lon="2.0690293">
        <ele>184.0</ele>
        <time>2022-05-19T08:50:34Z</time>
      </trkpt>
      <trkpt lat="47.510822" lon="2.0690188">
        <ele>184.0</ele>
        <time>2022-05-19T08:50:35Z</time>
      </trkpt>
      <trkpt lat="47.51083" lon="2.0690122">
        <ele>184.0</ele>
        <time>2022-05-19T08:50:36Z</time>
      </trkpt>
      <trkpt lat="47.510838" lon="2.068997">
        <ele>184.0</ele>
        <time>2022-05-19T08:50:37Z</time>
      </trkpt>
      <trkpt lat="47.51084" lon="2.068985">
        <ele>184.0</ele>
        <time>2022-05-19T08:50:38Z</time>
      </trkpt>
      <trkpt lat="47.51085" lon="2.0689723">
        <ele>183.0</ele>
        <time>2022-05-19T08:50:39Z</time>
      </trkpt>
      <trkpt lat="47.510864" lon="2.0689595">
        <ele>183.0</ele>
        <time>2022-05-19T08:50:40Z</time>
      </trkpt>
      <trkpt lat="47.510876" lon="2.068946">
        <ele>183.0</ele>
        <time>2022-05-19T08:50:41Z</time>
      </trkpt>
      <trkpt lat="47.510883" lon="2.0689268">
        <ele>183.0</ele>
        <time>2022-05-19T08:50:42Z</time>
      </trkpt>
      <trkpt lat="47.510895" lon="2.0689101">
        <ele>183.0</ele>
        <time>2022-05-19T08:50:43Z</time>
      </trkpt>
      <trkpt lat="47.510906" lon="2.068896">
        <ele>183.0</ele>
        <time>2022-05-19T08:50:44Z</time>
      </trkpt>
      <trkpt lat="47.510914" lon="2.06888">
        <ele>184.0</ele>
        <time>2022-05-19T08:50:45Z</time>
      </trkpt>
      <trkpt lat="47.510925" lon="2.0688732">
        <ele>184.0</ele>
        <time>2022-05-19T08:50:46Z</time>
      </trkpt>
      <trkpt lat="47.51093" lon="2.0688596">
        <ele>183.0</ele>
        <time>2022-05-19T08:50:47Z</time>
      </trkpt>
      <trkpt lat="47.510937" lon="2.068846">
        <ele>183.0</ele>
        <time>2022-05-19T08:50:48Z</time>
      </trkpt>
      <trkpt lat="47.510944" lon="2.0688295">
        <ele>183.0</ele>
        <time>2022-05-19T08:50:49Z</time>
      </trkpt>
      <trkpt lat="47.510952" lon="2.068816">
        <ele>183.0</ele>
        <time>2022-05-19T08:50:50Z</time>
      </trkpt>
      <trkpt lat="47.51096" lon="2.0688047">
        <ele>183.0</ele>
        <time>2022-05-19T08:50:51Z</time>
      </trkpt>
      <trkpt lat="47.510967" lon="2.0687943">
        <ele>183.0</ele>
        <time>2022-05-19T08:50:52Z</time>
      </trkpt>
      <trkpt lat="47.51097" lon="2.0687802">
        <ele>183.0</ele>
        <time>2022-05-19T08:50:53Z</time>
      </trkpt>
      <trkpt lat="47.51098" lon="2.068774">
        <ele>183.0</ele>
        <time>2022-05-19T08:50:54Z</time>
      </trkpt>
      <trkpt lat="47.510986" lon="2.0687575">
        <ele>183.0</ele>
        <time>2022-05-19T08:50:55Z</time>
      </trkpt>
      <trkpt lat="47.510994" lon="2.0687459">
        <ele>183.0</ele>
        <time>2022-05-19T08:50:56Z</time>
      </trkpt>
      <trkpt lat="47.511" lon="2.06873">
        <ele>182.0</ele>
        <time>2022-05-19T08:50:57Z</time>
      </trkpt>
      <trkpt lat="47.51101" lon="2.0687146">
        <ele>182.0</ele>
        <time>2022-05-19T08:50:58Z</time>
      </trkpt>
      <trkpt lat="47.51102" lon="2.0687022">
        <ele>182.0</ele>
        <time>2022-05-19T08:50:59Z</time>
      </trkpt>
      <trkpt lat="47.51103" lon="2.0686817">
        <ele>182.0</ele>
        <time>2022-05-19T08:51:00Z</time>
      </trkpt>
      <trkpt lat="47.511036" lon="2.0686724">
        <ele>182.0</ele>
        <time>2022-05-19T08:51:01Z</time>
      </trkpt>
      <trkpt lat="47.511047" lon="2.0686574">
        <ele>181.0</ele>
        <time>2022-05-19T08:51:02Z</time>
      </trkpt>
      <trkpt lat="47.511055" lon="2.0686448">
        <ele>181.0</ele>
        <time>2022-05-19T08:51:03Z</time>
      </trkpt>
      <trkpt lat="47.511055" lon="2.0686355">
        <ele>180.0</ele>
        <time>2022-05-19T08:51:04Z</time>
      </trkpt>
      <trkpt lat="47.51106" lon="2.0686245">
        <ele>180.0</ele>
        <time>2022-05-19T08:51:05Z</time>
      </trkpt>
      <trkpt lat="47.511066" lon="2.068603">
        <ele>180.0</ele>
        <time>2022-05-19T08:51:06Z</time>
      </trkpt>
      <trkpt lat="47.511078" lon="2.0685897">
        <ele>180.0</ele>
        <time>2022-05-19T08:51:07Z</time>
      </trkpt>
      <trkpt lat="47.51109" lon="2.0685725">
        <ele>180.0</ele>
        <time>2022-05-19T08:51:08Z</time>
      </trkpt>
      <trkpt lat="47.5111" lon="2.0685685">
        <ele>180.0</ele>
        <time>2022-05-19T08:51:09Z</time>
      </trkpt>
      <trkpt lat="47.511116" lon="2.068561">
        <ele>180.0</ele>
        <time>2022-05-19T08:51:10Z</time>
      </trkpt>
      <trkpt lat="47.511127" lon="2.068546">
        <ele>179.0</ele>
        <time>2022-05-19T08:51:11Z</time>
      </trkpt>
      <trkpt lat="47.51114" lon="2.0685337">
        <ele>180.0</ele>
        <time>2022-05-19T08:51:12Z</time>
      </trkpt>
      <trkpt lat="47.51115" lon="2.068518">
        <ele>180.0</ele>
        <time>2022-05-19T08:51:13Z</time>
      </trkpt>
      <trkpt lat="47.51116" lon="2.068501">
        <ele>180.0</ele>
        <time>2022-05-19T08:51:14Z</time>
      </trkpt>
      <trkpt lat="47.511173" lon="2.0684893">
        <ele>180.0</ele>
        <time>2022-05-19T08:51:15Z</time>
      </trkpt>
      <trkpt lat="47.511185" lon="2.0684795">
        <ele>180.0</ele>
        <time>2022-05-19T08:51:16Z</time>
      </trkpt>
      <trkpt lat="47.511196" lon="2.0684738">
        <ele>180.0</ele>
        <time>2022-05-19T08:51:17Z</time>
      </trkpt>
      <trkpt lat="47.51121" lon="2.0684702">
        <ele>180.0</ele>
        <time>2022-05-19T08:51:18Z</time>
      </trkpt>
      <trkpt lat="47.51122" lon="2.0684602">
        <ele>180.0</ele>
        <time>2022-05-19T08:51:19Z</time>
      </trkpt>
      <trkpt lat="47.511227" lon="2.0684478">
        <ele>179.0</ele>
        <time>2022-05-19T08:51:20Z</time>
      </trkpt>
      <trkpt lat="47.511227" lon="2.0684357">
        <ele>179.0</ele>
        <time>2022-05-19T08:51:21Z</time>
      </trkpt>
      <trkpt lat="47.51124" lon="2.0684204">
        <ele>179.0</ele>
        <time>2022-05-19T08:51:22Z</time>
      </trkpt>
      <trkpt lat="47.511246" lon="2.0684116">
        <ele>178.0</ele>
        <time>2022-05-19T08:51:23Z</time>
      </trkpt>
      <trkpt lat="47.511257" lon="2.0684075">
        <ele>178.0</ele>
        <time>2022-05-19T08:51:24Z</time>
      </trkpt>
      <trkpt lat="47.51126" lon="2.0684004">
        <ele>178.0</ele>
        <time>2022-05-19T08:51:25Z</time>
      </trkpt>
      <trkpt lat="47.511272" lon="2.0683892">
        <ele>178.0</ele>
        <time>2022-05-19T08:51:26Z</time>
      </trkpt>
      <trkpt lat="47.511284" lon="2.068377">
        <ele>178.0</ele>
        <time>2022-05-19T08:51:27Z</time>
      </trkpt>
      <trkpt lat="47.5113" lon="2.0683653">
        <ele>178.0</ele>
        <time>2022-05-19T08:51:28Z</time>
      </trkpt>
      <trkpt lat="47.511307" lon="2.0683553">
        <ele>178.0</ele>
        <time>2022-05-19T08:51:29Z</time>
      </trkpt>
      <trkpt lat="47.51132" lon="2.0683446">
        <ele>179.0</ele>
        <time>2022-05-19T08:51:30Z</time>
      </trkpt>
      <trkpt lat="47.511326" lon="2.0683317">
        <ele>179.0</ele>
        <time>2022-05-19T08:51:31Z</time>
      </trkpt>
      <trkpt lat="47.511333" lon="2.0683217">
        <ele>179.0</ele>
        <time>2022-05-19T08:51:32Z</time>
      </trkpt>
      <trkpt lat="47.51135" lon="2.0683231">
        <ele>179.0</ele>
        <time>2022-05-19T08:51:33Z</time>
      </trkpt>
      <trkpt lat="47.511364" lon="2.0683215">
        <ele>179.0</ele>
        <time>2022-05-19T08:51:34Z</time>
      </trkpt>
      <trkpt lat="47.511383" lon="2.0683193">
        <ele>179.0</ele>
        <time>2022-05-19T08:51:35Z</time>
      </trkpt>
      <trkpt lat="47.511395" lon="2.0683112">
        <ele>179.0</ele>
        <time>2022-05-19T08:51:36Z</time>
      </trkpt>
      <trkpt lat="47.511402" lon="2.068295">
        <ele>179.0</ele>
        <time>2022-05-19T08:51:37Z</time>
      </trkpt>
      <trkpt lat="47.51141" lon="2.0682833">
        <ele>179.0</ele>
        <time>2022-05-19T08:51:38Z</time>
      </trkpt>
      <trkpt lat="47.511425" lon="2.0682752">
        <ele>180.0</ele>
        <time>2022-05-19T08:51:39Z</time>
      </trkpt>
      <trkpt lat="47.511433" lon="2.0682607">
        <ele>179.0</ele>
        <time>2022-05-19T08:51:40Z</time>
      </trkpt>
      <trkpt lat="47.51144" lon="2.0682464">
        <ele>179.0</ele>
        <time>2022-05-19T08:51:41Z</time>
      </trkpt>
      <trkpt lat="47.511444" lon="2.06823">
        <ele>179.0</ele>
        <time>2022-05-19T08:51:42Z</time>
      </trkpt>
      <trkpt lat="47.511448" lon="2.0682125">
        <ele>179.0</ele>
        <time>2022-05-19T08:51:43Z</time>
      </trkpt>
      <trkpt lat="47.51146" lon="2.0682018">
        <ele>178.0</ele>
        <time>2022-05-19T08:51:44Z</time>
      </trkpt>
      <trkpt lat="47.511467" lon="2.068191">
        <ele>178.0</ele>
        <time>2022-05-19T08:51:45Z</time>
      </trkpt>
      <trkpt lat="47.511475" lon="2.0681722">
        <ele>178.0</ele>
        <time>2022-05-19T08:51:46Z</time>
      </trkpt>
      <trkpt lat="47.511482" lon="2.068158">
        <ele>178.0</ele>
        <time>2022-05-19T08:51:47Z</time>
      </trkpt>
      <trkpt lat="47.51149" lon="2.068143">
        <ele>178.0</ele>
        <time>2022-05-19T08:51:48Z</time>
      </trkpt>
      <trkpt lat="47.5115" lon="2.068122">
        <ele>178.0</ele>
        <time>2022-05-19T08:51:49Z</time>
      </trkpt>
      <trkpt lat="47.511513" lon="2.0681038">
        <ele>178.0</ele>
        <time>2022-05-19T08:51:50Z</time>
      </trkpt>
      <trkpt lat="47.51152" lon="2.0680923">
        <ele>178.0</ele>
        <time>2022-05-19T08:51:51Z</time>
      </trkpt>
      <trkpt lat="47.51153" lon="2.0680802">
        <ele>178.0</ele>
        <time>2022-05-19T08:51:52Z</time>
      </trkpt>
      <trkpt lat="47.511543" lon="2.06807">
        <ele>177.0</ele>
        <time>2022-05-19T08:51:53Z</time>
      </trkpt>
      <trkpt lat="47.51155" lon="2.068056">
        <ele>177.0</ele>
        <time>2022-05-19T08:51:54Z</time>
      </trkpt>
      <trkpt lat="47.51156" lon="2.06804">
        <ele>177.0</ele>
        <time>2022-05-19T08:51:55Z</time>
      </trkpt>
      <trkpt lat="47.511566" lon="2.0680299">
        <ele>178.0</ele>
        <time>2022-05-19T08:51:56Z</time>
      </trkpt>
      <trkpt lat="47.511574" lon="2.0680196">
        <ele>178.0</ele>
        <time>2022-05-19T08:51:57Z</time>
      </trkpt>
      <trkpt lat="47.51158" lon="2.0680077">
        <ele>178.0</ele>
        <time>2022-05-19T08:51:58Z</time>
      </trkpt>
      <trkpt lat="47.51159" lon="2.0679905">
        <ele>178.0</ele>
        <time>2022-05-19T08:51:59Z</time>
      </trkpt>
      <trkpt lat="47.511593" lon="2.0679746">
        <ele>179.0</ele>
        <time>2022-05-19T08:52:00Z</time>
      </trkpt>
      <trkpt lat="47.5116" lon="2.067957">
        <ele>179.0</ele>
        <time>2022-05-19T08:52:01Z</time>
      </trkpt>
      <trkpt lat="47.511612" lon="2.067941">
        <ele>179.0</ele>
        <time>2022-05-19T08:52:02Z</time>
      </trkpt>
      <trkpt lat="47.511627" lon="2.067936">
        <ele>179.0</ele>
        <time>2022-05-19T08:52:03Z</time>
      </trkpt>
      <trkpt lat="47.511642" lon="2.067937">
        <ele>180.0</ele>
        <time>2022-05-19T08:52:04Z</time>
      </trkpt>
      <trkpt lat="47.511658" lon="2.0679317">
        <ele>180.0</ele>
        <time>2022-05-19T08:52:05Z</time>
      </trkpt>
      <trkpt lat="47.51167" lon="2.0679307">
        <ele>180.0</ele>
        <time>2022-05-19T08:52:06Z</time>
      </trkpt>
      <trkpt lat="47.51168" lon="2.06793">
        <ele>180.0</ele>
        <time>2022-05-19T08:52:07Z</time>
      </trkpt>
      <trkpt lat="47.511692" lon="2.067923">
        <ele>180.0</ele>
        <time>2022-05-19T08:52:08Z</time>
      </trkpt>
      <trkpt lat="47.5117" lon="2.0679076">
        <ele>180.0</ele>
        <time>2022-05-19T08:52:09Z</time>
      </trkpt>
      <trkpt lat="47.51171" lon="2.0678942">
        <ele>180.0</ele>
        <time>2022-05-19T08:52:10Z</time>
      </trkpt>
      <trkpt lat="47.51172" lon="2.0678835">
        <ele>180.0</ele>
        <time>2022-05-19T08:52:11Z</time>
      </trkpt>
      <trkpt lat="47.511726" lon="2.067865">
        <ele>180.0</ele>
        <time>2022-05-19T08:52:12Z</time>
      </trkpt>
      <trkpt lat="47.511734" lon="2.0678542">
        <ele>180.0</ele>
        <time>2022-05-19T08:52:13Z</time>
      </trkpt>
      <trkpt lat="47.511745" lon="2.0678432">
        <ele>181.0</ele>
        <time>2022-05-19T08:52:14Z</time>
      </trkpt>
      <trkpt lat="47.51175" lon="2.067827">
        <ele>181.0</ele>
        <time>2022-05-19T08:52:15Z</time>
      </trkpt>
      <trkpt lat="47.511757" lon="2.0678062">
        <ele>181.0</ele>
        <time>2022-05-19T08:52:16Z</time>
      </trkpt>
      <trkpt lat="47.511765" lon="2.0677917">
        <ele>181.0</ele>
        <time>2022-05-19T08:52:17Z</time>
      </trkpt>
      <trkpt lat="47.511776" lon="2.0677843">
        <ele>181.0</ele>
        <time>2022-05-19T08:52:18Z</time>
      </trkpt>
      <trkpt lat="47.511784" lon="2.0677698">
        <ele>181.0</ele>
        <time>2022-05-19T08:52:19Z</time>
      </trkpt>
      <trkpt lat="47.51179" lon="2.0677605">
        <ele>181.0</ele>
        <time>2022-05-19T08:52:20Z</time>
      </trkpt>
      <trkpt lat="47.511803" lon="2.0677533">
        <ele>181.0</ele>
        <time>2022-05-19T08:52:21Z</time>
      </trkpt>
      <trkpt lat="47.511814" lon="2.0677404">
        <ele>181.0</ele>
        <time>2022-05-19T08:52:22Z</time>
      </trkpt>
      <trkpt lat="47.511826" lon="2.067725">
        <ele>181.0</ele>
        <time>2022-05-19T08:52:23Z</time>
      </trkpt>
      <trkpt lat="47.511833" lon="2.0677085">
        <ele>180.0</ele>
        <time>2022-05-19T08:52:24Z</time>
      </trkpt>
      <trkpt lat="47.51184" lon="2.0676959">
        <ele>180.0</ele>
        <time>2022-05-19T08:52:25Z</time>
      </trkpt>
      <trkpt lat="47.511856" lon="2.0676901">
        <ele>181.0</ele>
        <time>2022-05-19T08:52:26Z</time>
      </trkpt>
      <trkpt lat="47.511868" lon="2.067683">
        <ele>181.0</ele>
        <time>2022-05-19T08:52:27Z</time>
      </trkpt>
      <trkpt lat="47.511883" lon="2.0676744">
        <ele>181.0</ele>
        <time>2022-05-19T08:52:28Z</time>
      </trkpt>
      <trkpt lat="47.51189" lon="2.0676653">
        <ele>181.0</ele>
        <time>2022-05-19T08:52:29Z</time>
      </trkpt>
      <trkpt lat="47.5119" lon="2.0676546">
        <ele>180.0</ele>
        <time>2022-05-19T08:52:30Z</time>
      </trkpt>
      <trkpt lat="47.511913" lon="2.067645">
        <ele>181.0</ele>
        <time>2022-05-19T08:52:31Z</time>
      </trkpt>
      <trkpt lat="47.511925" lon="2.067632">
        <ele>181.0</ele>
        <time>2022-05-19T08:52:32Z</time>
      </trkpt>
      <trkpt lat="47.51193" lon="2.067619">
        <ele>181.0</ele>
        <time>2022-05-19T08:52:33Z</time>
      </trkpt>
      <trkpt lat="47.511932" lon="2.0676136">
        <ele>181.0</ele>
        <time>2022-05-19T08:52:34Z</time>
      </trkpt>
      <trkpt lat="47.511944" lon="2.0676095">
        <ele>181.0</ele>
        <time>2022-05-19T08:52:35Z</time>
      </trkpt>
      <trkpt lat="47.51196" lon="2.0675972">
        <ele>181.0</ele>
        <time>2022-05-19T08:52:36Z</time>
      </trkpt>
      <trkpt lat="47.511974" lon="2.0675912">
        <ele>181.0</ele>
        <time>2022-05-19T08:52:37Z</time>
      </trkpt>
      <trkpt lat="47.51199" lon="2.0675926">
        <ele>181.0</ele>
        <time>2022-05-19T08:52:38Z</time>
      </trkpt>
      <trkpt lat="47.512005" lon="2.0675879">
        <ele>181.0</ele>
        <time>2022-05-19T08:52:39Z</time>
      </trkpt>
      <trkpt lat="47.512016" lon="2.0675795">
        <ele>181.0</ele>
        <time>2022-05-19T08:52:40Z</time>
      </trkpt>
      <trkpt lat="47.512028" lon="2.06757">
        <ele>181.0</ele>
        <time>2022-05-19T08:52:41Z</time>
      </trkpt>
      <trkpt lat="47.51204" lon="2.0675604">
        <ele>181.0</ele>
        <time>2022-05-19T08:52:42Z</time>
      </trkpt>
      <trkpt lat="47.512047" lon="2.0675483">
        <ele>181.0</ele>
        <time>2022-05-19T08:52:43Z</time>
      </trkpt>
      <trkpt lat="47.512062" lon="2.0675397">
        <ele>181.0</ele>
        <time>2022-05-19T08:52:44Z</time>
      </trkpt>
      <trkpt lat="47.512074" lon="2.0675328">
        <ele>180.0</ele>
        <time>2022-05-19T08:52:45Z</time>
      </trkpt>
      <trkpt lat="47.51209" lon="2.0675216">
        <ele>180.0</ele>
        <time>2022-05-19T08:52:46Z</time>
      </trkpt>
      <trkpt lat="47.5121" lon="2.0675051">
        <ele>180.0</ele>
        <time>2022-05-19T08:52:47Z</time>
      </trkpt>
      <trkpt lat="47.512104" lon="2.0674858">
        <ele>180.0</ele>
        <time>2022-05-19T08:52:48Z</time>
      </trkpt>
      <trkpt lat="47.512115" lon="2.0674703">
        <ele>181.0</ele>
        <time>2022-05-19T08:52:49Z</time>
      </trkpt>
      <trkpt lat="47.512123" lon="2.0674496">
        <ele>181.0</ele>
        <time>2022-05-19T08:52:50Z</time>
      </trkpt>
      <trkpt lat="47.51213" lon="2.0674303">
        <ele>181.0</ele>
        <time>2022-05-19T08:52:51Z</time>
      </trkpt>
      <trkpt lat="47.512135" lon="2.0674129">
        <ele>181.0</ele>
        <time>2022-05-19T08:52:52Z</time>
      </trkpt>
      <trkpt lat="47.512142" lon="2.0673988">
        <ele>181.0</ele>
        <time>2022-05-19T08:52:53Z</time>
      </trkpt>
      <trkpt lat="47.51215" lon="2.0673802">
        <ele>181.0</ele>
        <time>2022-05-19T08:52:54Z</time>
      </trkpt>
      <trkpt lat="47.512154" lon="2.0673661">
        <ele>181.0</ele>
        <time>2022-05-19T08:52:55Z</time>
      </trkpt>
      <trkpt lat="47.512165" lon="2.0673597">
        <ele>181.0</ele>
        <time>2022-05-19T08:52:56Z</time>
      </trkpt>
      <trkpt lat="47.512177" lon="2.0673604">
        <ele>181.0</ele>
        <time>2022-05-19T08:52:57Z</time>
      </trkpt>
      <trkpt lat="47.512184" lon="2.0673518">
        <ele>181.0</ele>
        <time>2022-05-19T08:52:58Z</time>
      </trkpt>
      <trkpt lat="47.512196" lon="2.0673482">
        <ele>181.0</ele>
        <time>2022-05-19T08:52:59Z</time>
      </trkpt>
      <trkpt lat="47.512207" lon="2.0673423">
        <ele>181.0</ele>
        <time>2022-05-19T08:53:00Z</time>
      </trkpt>
      <trkpt lat="47.512222" lon="2.0673337">
        <ele>181.0</ele>
        <time>2022-05-19T08:53:01Z</time>
      </trkpt>
      <trkpt lat="47.51223" lon="2.0673258">
        <ele>180.0</ele>
        <time>2022-05-19T08:53:02Z</time>
      </trkpt>
      <trkpt lat="47.51224" lon="2.0673184">
        <ele>180.0</ele>
        <time>2022-05-19T08:53:03Z</time>
      </trkpt>
      <trkpt lat="47.512257" lon="2.0673103">
        <ele>180.0</ele>
        <time>2022-05-19T08:53:04Z</time>
      </trkpt>
      <trkpt lat="47.512268" lon="2.0673018">
        <ele>180.0</ele>
        <time>2022-05-19T08:53:05Z</time>
      </trkpt>
      <trkpt lat="47.51228" lon="2.0672867">
        <ele>180.0</ele>
        <time>2022-05-19T08:53:06Z</time>
      </trkpt>
      <trkpt lat="47.512295" lon="2.0672767">
        <ele>180.0</ele>
        <time>2022-05-19T08:53:07Z</time>
      </trkpt>
      <trkpt lat="47.512302" lon="2.0672686">
        <ele>180.0</ele>
        <time>2022-05-19T08:53:08Z</time>
      </trkpt>
      <trkpt lat="47.51231" lon="2.0672572">
        <ele>180.0</ele>
        <time>2022-05-19T08:53:09Z</time>
      </trkpt>
      <trkpt lat="47.512318" lon="2.0672488">
        <ele>180.0</ele>
        <time>2022-05-19T08:53:10Z</time>
      </trkpt>
      <trkpt lat="47.51232" lon="2.0672264">
        <ele>179.0</ele>
        <time>2022-05-19T08:53:11Z</time>
      </trkpt>
      <trkpt lat="47.512318" lon="2.0672119">
        <ele>178.0</ele>
        <time>2022-05-19T08:53:12Z</time>
      </trkpt>
      <trkpt lat="47.512318" lon="2.0671997">
        <ele>178.0</ele>
        <time>2022-05-19T08:53:13Z</time>
      </trkpt>
      <trkpt lat="47.51232" lon="2.0671885">
        <ele>178.0</ele>
        <time>2022-05-19T08:53:14Z</time>
      </trkpt>
      <trkpt lat="47.51232" lon="2.0671682">
        <ele>178.0</ele>
        <time>2022-05-19T08:53:15Z</time>
      </trkpt>
      <trkpt lat="47.51233" lon="2.0671465">
        <ele>178.0</ele>
        <time>2022-05-19T08:53:16Z</time>
      </trkpt>
      <trkpt lat="47.512337" lon="2.067125">
        <ele>178.0</ele>
        <time>2022-05-19T08:53:17Z</time>
      </trkpt>
      <trkpt lat="47.512352" lon="2.067107">
        <ele>178.0</ele>
        <time>2022-05-19T08:53:18Z</time>
      </trkpt>
      <trkpt lat="47.512363" lon="2.0670877">
        <ele>178.0</ele>
        <time>2022-05-19T08:53:19Z</time>
      </trkpt>
      <trkpt lat="47.512375" lon="2.0670705">
        <ele>178.0</ele>
        <time>2022-05-19T08:53:20Z</time>
      </trkpt>
      <trkpt lat="47.512383" lon="2.0670545">
        <ele>178.0</ele>
        <time>2022-05-19T08:53:21Z</time>
      </trkpt>
      <trkpt lat="47.512386" lon="2.067036">
        <ele>178.0</ele>
        <time>2022-05-19T08:53:22Z</time>
      </trkpt>
      <trkpt lat="47.512398" lon="2.067019">
        <ele>178.0</ele>
        <time>2022-05-19T08:53:23Z</time>
      </trkpt>
      <trkpt lat="47.51241" lon="2.0670009">
        <ele>178.0</ele>
        <time>2022-05-19T08:53:24Z</time>
      </trkpt>
      <trkpt lat="47.51242" lon="2.066985">
        <ele>178.0</ele>
        <time>2022-05-19T08:53:25Z</time>
      </trkpt>
      <trkpt lat="47.51243" lon="2.066967">
        <ele>178.0</ele>
        <time>2022-05-19T08:53:26Z</time>
      </trkpt>
      <trkpt lat="47.51244" lon="2.0669496">
        <ele>178.0</ele>
        <time>2022-05-19T08:53:27Z</time>
      </trkpt>
      <trkpt lat="47.512447" lon="2.0669339">
        <ele>178.0</ele>
        <time>2022-05-19T08:53:28Z</time>
      </trkpt>
      <trkpt lat="47.51246" lon="2.0669239">
        <ele>178.0</ele>
        <time>2022-05-19T08:53:29Z</time>
      </trkpt>
      <trkpt lat="47.51247" lon="2.0669084">
        <ele>178.0</ele>
        <time>2022-05-19T08:53:30Z</time>
      </trkpt>
      <trkpt lat="47.512478" lon="2.0668914">
        <ele>178.0</ele>
        <time>2022-05-19T08:53:31Z</time>
      </trkpt>
      <trkpt lat="47.512486" lon="2.066877">
        <ele>178.0</ele>
        <time>2022-05-19T08:53:32Z</time>
      </trkpt>
      <trkpt lat="47.512493" lon="2.0668607">
        <ele>178.0</ele>
        <time>2022-05-19T08:53:33Z</time>
      </trkpt>
      <trkpt lat="47.5125" lon="2.0668433">
        <ele>179.0</ele>
        <time>2022-05-19T08:53:34Z</time>
      </trkpt>
      <trkpt lat="47.51251" lon="2.066824">
        <ele>179.0</ele>
        <time>2022-05-19T08:53:35Z</time>
      </trkpt>
      <trkpt lat="47.512516" lon="2.0668113">
        <ele>178.0</ele>
        <time>2022-05-19T08:53:36Z</time>
      </trkpt>
      <trkpt lat="47.512524" lon="2.0667994">
        <ele>178.0</ele>
        <time>2022-05-19T08:53:37Z</time>
      </trkpt>
      <trkpt lat="47.512535" lon="2.066787">
        <ele>177.0</ele>
        <time>2022-05-19T08:53:38Z</time>
      </trkpt>
      <trkpt lat="47.512543" lon="2.0667756">
        <ele>177.0</ele>
        <time>2022-05-19T08:53:39Z</time>
      </trkpt>
      <trkpt lat="47.512554" lon="2.0667653">
        <ele>177.0</ele>
        <time>2022-05-19T08:53:40Z</time>
      </trkpt>
      <trkpt lat="47.512566" lon="2.0667539">
        <ele>178.0</ele>
        <time>2022-05-19T08:53:41Z</time>
      </trkpt>
      <trkpt lat="47.512577" lon="2.0667393">
        <ele>178.0</ele>
        <time>2022-05-19T08:53:42Z</time>
      </trkpt>
      <trkpt lat="47.51258" lon="2.0667193">
        <ele>177.0</ele>
        <time>2022-05-19T08:53:43Z</time>
      </trkpt>
      <trkpt lat="47.51259" lon="2.0667021">
        <ele>177.0</ele>
        <time>2022-05-19T08:53:44Z</time>
      </trkpt>
      <trkpt lat="47.512596" lon="2.0666912">
        <ele>177.0</ele>
        <time>2022-05-19T08:53:45Z</time>
      </trkpt>
      <trkpt lat="47.512608" lon="2.0666747">
        <ele>178.0</ele>
        <time>2022-05-19T08:53:46Z</time>
      </trkpt>
      <trkpt lat="47.51261" lon="2.0666597">
        <ele>178.0</ele>
        <time>2022-05-19T08:53:47Z</time>
      </trkpt>
      <trkpt lat="47.51262" lon="2.066647">
        <ele>178.0</ele>
        <time>2022-05-19T08:53:48Z</time>
      </trkpt>
      <trkpt lat="47.512627" lon="2.066631">
        <ele>178.0</ele>
        <time>2022-05-19T08:53:49Z</time>
      </trkpt>
      <trkpt lat="47.512634" lon="2.066616">
        <ele>179.0</ele>
        <time>2022-05-19T08:53:50Z</time>
      </trkpt>
      <trkpt lat="47.51264" lon="2.066601">
        <ele>178.0</ele>
        <time>2022-05-19T08:53:51Z</time>
      </trkpt>
      <trkpt lat="47.512653" lon="2.0665874">
        <ele>178.0</ele>
        <time>2022-05-19T08:53:52Z</time>
      </trkpt>
      <trkpt lat="47.512657" lon="2.0665677">
        <ele>178.0</ele>
        <time>2022-05-19T08:53:53Z</time>
      </trkpt>
      <trkpt lat="47.51267" lon="2.0665495">
        <ele>178.0</ele>
        <time>2022-05-19T08:53:54Z</time>
      </trkpt>
      <trkpt lat="47.51268" lon="2.0665362">
        <ele>177.0</ele>
        <time>2022-05-19T08:53:55Z</time>
      </trkpt>
      <trkpt lat="47.512695" lon="2.066526">
        <ele>177.0</ele>
        <time>2022-05-19T08:53:56Z</time>
      </trkpt>
      <trkpt lat="47.512707" lon="2.0665188">
        <ele>177.0</ele>
        <time>2022-05-19T08:53:57Z</time>
      </trkpt>
      <trkpt lat="47.512722" lon="2.0665085">
        <ele>176.0</ele>
        <time>2022-05-19T08:53:58Z</time>
      </trkpt>
      <trkpt lat="47.512733" lon="2.0664966">
        <ele>176.0</ele>
        <time>2022-05-19T08:53:59Z</time>
      </trkpt>
      <trkpt lat="47.51275" lon="2.066484">
        <ele>176.0</ele>
        <time>2022-05-19T08:54:00Z</time>
      </trkpt>
      <trkpt lat="47.512756" lon="2.0664704">
        <ele>176.0</ele>
        <time>2022-05-19T08:54:01Z</time>
      </trkpt>
      <trkpt lat="47.512768" lon="2.0664546">
        <ele>175.0</ele>
        <time>2022-05-19T08:54:02Z</time>
      </trkpt>
      <trkpt lat="47.51278" lon="2.0664432">
        <ele>176.0</ele>
        <time>2022-05-19T08:54:03Z</time>
      </trkpt>
      <trkpt lat="47.512794" lon="2.0664299">
        <ele>176.0</ele>
        <time>2022-05-19T08:54:04Z</time>
      </trkpt>
      <trkpt lat="47.512802" lon="2.066417">
        <ele>175.0</ele>
        <time>2022-05-19T08:54:05Z</time>
      </trkpt>
      <trkpt lat="47.51281" lon="2.06641">
        <ele>175.0</ele>
        <time>2022-05-19T08:54:06Z</time>
      </trkpt>
      <trkpt lat="47.512817" lon="2.066403">
        <ele>175.0</ele>
        <time>2022-05-19T08:54:07Z</time>
      </trkpt>
      <trkpt lat="47.512825" lon="2.066392">
        <ele>176.0</ele>
        <time>2022-05-19T08:54:08Z</time>
      </trkpt>
      <trkpt lat="47.512833" lon="2.0663748">
        <ele>175.0</ele>
        <time>2022-05-19T08:54:09Z</time>
      </trkpt>
      <trkpt lat="47.512836" lon="2.066362">
        <ele>175.0</ele>
        <time>2022-05-19T08:54:10Z</time>
      </trkpt>
      <trkpt lat="47.51285" lon="2.0663366">
        <ele>175.0</ele>
        <time>2022-05-19T08:54:11Z</time>
      </trkpt>
      <trkpt lat="47.512856" lon="2.06633">
        <ele>175.0</ele>
        <time>2022-05-19T08:54:12Z</time>
      </trkpt>
      <trkpt lat="47.512863" lon="2.066319">
        <ele>175.0</ele>
        <time>2022-05-19T08:54:13Z</time>
      </trkpt>
      <trkpt lat="47.512875" lon="2.0663068">
        <ele>175.0</ele>
        <time>2022-05-19T08:54:14Z</time>
      </trkpt>
      <trkpt lat="47.512882" lon="2.0662954">
        <ele>175.0</ele>
        <time>2022-05-19T08:54:15Z</time>
      </trkpt>
      <trkpt lat="47.512886" lon="2.0662835">
        <ele>175.0</ele>
        <time>2022-05-19T08:54:16Z</time>
      </trkpt>
      <trkpt lat="47.512894" lon="2.0662725">
        <ele>175.0</ele>
        <time>2022-05-19T08:54:17Z</time>
      </trkpt>
      <trkpt lat="47.5129" lon="2.0662563">
        <ele>175.0</ele>
        <time>2022-05-19T08:54:18Z</time>
      </trkpt>
      <trkpt lat="47.512905" lon="2.066244">
        <ele>174.0</ele>
        <time>2022-05-19T08:54:19Z</time>
      </trkpt>
      <trkpt lat="47.512913" lon="2.0662346">
        <ele>174.0</ele>
        <time>2022-05-19T08:54:20Z</time>
      </trkpt>
      <trkpt lat="47.51292" lon="2.0662189">
        <ele>174.0</ele>
        <time>2022-05-19T08:54:21Z</time>
      </trkpt>
      <trkpt lat="47.512928" lon="2.0662076">
        <ele>175.0</ele>
        <time>2022-05-19T08:54:22Z</time>
      </trkpt>
      <trkpt lat="47.51294" lon="2.0661943">
        <ele>175.0</ele>
        <time>2022-05-19T08:54:23Z</time>
      </trkpt>
      <trkpt lat="47.512947" lon="2.0661788">
        <ele>174.0</ele>
        <time>2022-05-19T08:54:24Z</time>
      </trkpt>
      <trkpt lat="47.512955" lon="2.0661707">
        <ele>174.0</ele>
        <time>2022-05-19T08:54:25Z</time>
      </trkpt>
      <trkpt lat="47.512966" lon="2.0661592">
        <ele>174.0</ele>
        <time>2022-05-19T08:54:26Z</time>
      </trkpt>
      <trkpt lat="47.512978" lon="2.0661452">
        <ele>174.0</ele>
        <time>2022-05-19T08:54:27Z</time>
      </trkpt>
      <trkpt lat="47.512985" lon="2.0661259">
        <ele>174.0</ele>
        <time>2022-05-19T08:54:28Z</time>
      </trkpt>
      <trkpt lat="47.513" lon="2.0661097">
        <ele>174.0</ele>
        <time>2022-05-19T08:54:29Z</time>
      </trkpt>
      <trkpt lat="47.51301" lon="2.0660963">
        <ele>174.0</ele>
        <time>2022-05-19T08:54:30Z</time>
      </trkpt>
      <trkpt lat="47.51302" lon="2.0660813">
        <ele>174.0</ele>
        <time>2022-05-19T08:54:31Z</time>
      </trkpt>
      <trkpt lat="47.513027" lon="2.066067">
        <ele>174.0</ele>
        <time>2022-05-19T08:54:32Z</time>
      </trkpt>
      <trkpt lat="47.513035" lon="2.0660453">
        <ele>174.0</ele>
        <time>2022-05-19T08:54:33Z</time>
      </trkpt>
      <trkpt lat="47.513042" lon="2.0660233">
        <ele>174.0</ele>
        <time>2022-05-19T08:54:34Z</time>
      </trkpt>
      <trkpt lat="47.51305" lon="2.0660095">
        <ele>174.0</ele>
        <time>2022-05-19T08:54:35Z</time>
      </trkpt>
      <trkpt lat="47.513065" lon="2.0659983">
        <ele>174.0</ele>
        <time>2022-05-19T08:54:36Z</time>
      </trkpt>
      <trkpt lat="47.513077" lon="2.0659866">
        <ele>174.0</ele>
        <time>2022-05-19T08:54:37Z</time>
      </trkpt>
      <trkpt lat="47.51309" lon="2.0659726">
        <ele>174.0</ele>
        <time>2022-05-19T08:54:38Z</time>
      </trkpt>
      <trkpt lat="47.513096" lon="2.0659556">
        <ele>174.0</ele>
        <time>2022-05-19T08:54:39Z</time>
      </trkpt>
      <trkpt lat="47.513107" lon="2.0659401">
        <ele>174.0</ele>
        <time>2022-05-19T08:54:40Z</time>
      </trkpt>
      <trkpt lat="47.513115" lon="2.065927">
        <ele>174.0</ele>
        <time>2022-05-19T08:54:41Z</time>
      </trkpt>
      <trkpt lat="47.513123" lon="2.0659003">
        <ele>174.0</ele>
        <time>2022-05-19T08:54:42Z</time>
      </trkpt>
      <trkpt lat="47.513134" lon="2.0658832">
        <ele>175.0</ele>
        <time>2022-05-19T08:54:43Z</time>
      </trkpt>
      <trkpt lat="47.51314" lon="2.0658686">
        <ele>175.0</ele>
        <time>2022-05-19T08:54:44Z</time>
      </trkpt>
      <trkpt lat="47.51314" lon="2.065853">
        <ele>175.0</ele>
        <time>2022-05-19T08:54:45Z</time>
      </trkpt>
      <trkpt lat="47.513145" lon="2.0658383">
        <ele>174.0</ele>
        <time>2022-05-19T08:54:46Z</time>
      </trkpt>
      <trkpt lat="47.513153" lon="2.0658298">
        <ele>175.0</ele>
        <time>2022-05-19T08:54:47Z</time>
      </trkpt>
      <trkpt lat="47.51316" lon="2.0658183">
        <ele>175.0</ele>
        <time>2022-05-19T08:54:48Z</time>
      </trkpt>
      <trkpt lat="47.513172" lon="2.065807">
        <ele>175.0</ele>
        <time>2022-05-19T08:54:49Z</time>
      </trkpt>
      <trkpt lat="47.51318" lon="2.0657904">
        <ele>175.0</ele>
        <time>2022-05-19T08:54:50Z</time>
      </trkpt>
      <trkpt lat="47.513187" lon="2.065778">
        <ele>175.0</ele>
        <time>2022-05-19T08:54:51Z</time>
      </trkpt>
      <trkpt lat="47.513195" lon="2.0657697">
        <ele>175.0</ele>
        <time>2022-05-19T08:54:52Z</time>
      </trkpt>
      <trkpt lat="47.513206" lon="2.065762">
        <ele>175.0</ele>
        <time>2022-05-19T08:54:53Z</time>
      </trkpt>
      <trkpt lat="47.513214" lon="2.065752">
        <ele>174.0</ele>
        <time>2022-05-19T08:54:54Z</time>
      </trkpt>
      <trkpt lat="47.513226" lon="2.065742">
        <ele>174.0</ele>
        <time>2022-05-19T08:54:55Z</time>
      </trkpt>
      <trkpt lat="47.513237" lon="2.065732">
        <ele>174.0</ele>
        <time>2022-05-19T08:54:56Z</time>
      </trkpt>
      <trkpt lat="47.513245" lon="2.0657177">
        <ele>173.0</ele>
        <time>2022-05-19T08:54:57Z</time>
      </trkpt>
      <trkpt lat="47.513256" lon="2.065701">
        <ele>174.0</ele>
        <time>2022-05-19T08:54:58Z</time>
      </trkpt>
      <trkpt lat="47.51326" lon="2.0656803">
        <ele>173.0</ele>
        <time>2022-05-19T08:54:59Z</time>
      </trkpt>
      <trkpt lat="47.513264" lon="2.0656648">
        <ele>173.0</ele>
        <time>2022-05-19T08:55:00Z</time>
      </trkpt>
      <trkpt lat="47.513268" lon="2.065651">
        <ele>173.0</ele>
        <time>2022-05-19T08:55:01Z</time>
      </trkpt>
      <trkpt lat="47.513275" lon="2.0656345">
        <ele>173.0</ele>
        <time>2022-05-19T08:55:02Z</time>
      </trkpt>
      <trkpt lat="47.513283" lon="2.0656188">
        <ele>172.0</ele>
        <time>2022-05-19T08:55:03Z</time>
      </trkpt>
      <trkpt lat="47.51329" lon="2.065607">
        <ele>172.0</ele>
        <time>2022-05-19T08:55:04Z</time>
      </trkpt>
      <trkpt lat="47.513298" lon="2.0655906">
        <ele>172.0</ele>
        <time>2022-05-19T08:55:05Z</time>
      </trkpt>
      <trkpt lat="47.513306" lon="2.065585">
        <ele>172.0</ele>
        <time>2022-05-19T08:55:06Z</time>
      </trkpt>
      <trkpt lat="47.513317" lon="2.0655732">
        <ele>172.0</ele>
        <time>2022-05-19T08:55:07Z</time>
      </trkpt>
      <trkpt lat="47.51332" lon="2.0655627">
        <ele>171.0</ele>
        <time>2022-05-19T08:55:08Z</time>
      </trkpt>
      <trkpt lat="47.513336" lon="2.065557">
        <ele>171.0</ele>
        <time>2022-05-19T08:55:09Z</time>
      </trkpt>
      <trkpt lat="47.513348" lon="2.0655432">
        <ele>171.0</ele>
        <time>2022-05-19T08:55:10Z</time>
      </trkpt>
      <trkpt lat="47.513363" lon="2.0655303">
        <ele>171.0</ele>
        <time>2022-05-19T08:55:11Z</time>
      </trkpt>
      <trkpt lat="47.513374" lon="2.0655177">
        <ele>171.0</ele>
        <time>2022-05-19T08:55:12Z</time>
      </trkpt>
      <trkpt lat="47.513386" lon="2.065508">
        <ele>172.0</ele>
        <time>2022-05-19T08:55:13Z</time>
      </trkpt>
      <trkpt lat="47.513397" lon="2.0654984">
        <ele>172.0</ele>
        <time>2022-05-19T08:55:14Z</time>
      </trkpt>
      <trkpt lat="47.51341" lon="2.0654902">
        <ele>173.0</ele>
        <time>2022-05-19T08:55:15Z</time>
      </trkpt>
      <trkpt lat="47.51342" lon="2.0654802">
        <ele>173.0</ele>
        <time>2022-05-19T08:55:16Z</time>
      </trkpt>
      <trkpt lat="47.51343" lon="2.065469">
        <ele>172.0</ele>
        <time>2022-05-19T08:55:17Z</time>
      </trkpt>
      <trkpt lat="47.513447" lon="2.0654562">
        <ele>172.0</ele>
        <time>2022-05-19T08:55:18Z</time>
      </trkpt>
      <trkpt lat="47.513462" lon="2.0654452">
        <ele>173.0</ele>
        <time>2022-05-19T08:55:19Z</time>
      </trkpt>
      <trkpt lat="47.513474" lon="2.0654368">
        <ele>173.0</ele>
        <time>2022-05-19T08:55:20Z</time>
      </trkpt>
      <trkpt lat="47.513485" lon="2.0654266">
        <ele>173.0</ele>
        <time>2022-05-19T08:55:21Z</time>
      </trkpt>
      <trkpt lat="47.513496" lon="2.0654109">
        <ele>173.0</ele>
        <time>2022-05-19T08:55:22Z</time>
      </trkpt>
      <trkpt lat="47.513508" lon="2.0653975">
        <ele>173.0</ele>
        <time>2022-05-19T08:55:23Z</time>
      </trkpt>
      <trkpt lat="47.51352" lon="2.0653882">
        <ele>173.0</ele>
        <time>2022-05-19T08:55:24Z</time>
      </trkpt>
      <trkpt lat="47.51353" lon="2.0653832">
        <ele>172.0</ele>
        <time>2022-05-19T08:55:25Z</time>
      </trkpt>
      <trkpt lat="47.513542" lon="2.0653806">
        <ele>172.0</ele>
        <time>2022-05-19T08:55:26Z</time>
      </trkpt>
      <trkpt lat="47.513554" lon="2.065376">
        <ele>172.0</ele>
        <time>2022-05-19T08:55:27Z</time>
      </trkpt>
      <trkpt lat="47.51357" lon="2.0653687">
        <ele>172.0</ele>
        <time>2022-05-19T08:55:28Z</time>
      </trkpt>
      <trkpt lat="47.51358" lon="2.0653625">
        <ele>172.0</ele>
        <time>2022-05-19T08:55:29Z</time>
      </trkpt>
      <trkpt lat="47.513596" lon="2.0653527">
        <ele>173.0</ele>
        <time>2022-05-19T08:55:30Z</time>
      </trkpt>
      <trkpt lat="47.513607" lon="2.065348">
        <ele>173.0</ele>
        <time>2022-05-19T08:55:31Z</time>
      </trkpt>
      <trkpt lat="47.513622" lon="2.065338">
        <ele>173.0</ele>
        <time>2022-05-19T08:55:32Z</time>
      </trkpt>
      <trkpt lat="47.513634" lon="2.065324">
        <ele>173.0</ele>
        <time>2022-05-19T08:55:33Z</time>
      </trkpt>
      <trkpt lat="47.513645" lon="2.0653095">
        <ele>172.0</ele>
        <time>2022-05-19T08:55:34Z</time>
      </trkpt>
      <trkpt lat="47.51365" lon="2.0652928">
        <ele>172.0</ele>
        <time>2022-05-19T08:55:35Z</time>
      </trkpt>
      <trkpt lat="47.51366" lon="2.0652745">
        <ele>172.0</ele>
        <time>2022-05-19T08:55:36Z</time>
      </trkpt>
      <trkpt lat="47.51367" lon="2.0652542">
        <ele>172.0</ele>
        <time>2022-05-19T08:55:37Z</time>
      </trkpt>
      <trkpt lat="47.513683" lon="2.0652394">
        <ele>172.0</ele>
        <time>2022-05-19T08:55:38Z</time>
      </trkpt>
      <trkpt lat="47.5137" lon="2.0652273">
        <ele>172.0</ele>
        <time>2022-05-19T08:55:39Z</time>
      </trkpt>
      <trkpt lat="47.513706" lon="2.065219">
        <ele>172.0</ele>
        <time>2022-05-19T08:55:40Z</time>
      </trkpt>
      <trkpt lat="47.513714" lon="2.0652094">
        <ele>172.0</ele>
        <time>2022-05-19T08:55:41Z</time>
      </trkpt>
      <trkpt lat="47.513718" lon="2.065195">
        <ele>171.0</ele>
        <time>2022-05-19T08:55:42Z</time>
      </trkpt>
      <trkpt lat="47.51373" lon="2.065178">
        <ele>172.0</ele>
        <time>2022-05-19T08:55:43Z</time>
      </trkpt>
      <trkpt lat="47.513737" lon="2.065162">
        <ele>171.0</ele>
        <time>2022-05-19T08:55:44Z</time>
      </trkpt>
      <trkpt lat="47.51374" lon="2.065146">
        <ele>171.0</ele>
        <time>2022-05-19T08:55:45Z</time>
      </trkpt>
      <trkpt lat="47.51375" lon="2.0651333">
        <ele>171.0</ele>
        <time>2022-05-19T08:55:46Z</time>
      </trkpt>
      <trkpt lat="47.513756" lon="2.0651236">
        <ele>171.0</ele>
        <time>2022-05-19T08:55:47Z</time>
      </trkpt>
      <trkpt lat="47.513767" lon="2.065115">
        <ele>171.0</ele>
        <time>2022-05-19T08:55:48Z</time>
      </trkpt>
      <trkpt lat="47.513775" lon="2.0651011">
        <ele>171.0</ele>
        <time>2022-05-19T08:55:49Z</time>
      </trkpt>
      <trkpt lat="47.513786" lon="2.0650911">
        <ele>171.0</ele>
        <time>2022-05-19T08:55:50Z</time>
      </trkpt>
      <trkpt lat="47.513798" lon="2.065077">
        <ele>171.0</ele>
        <time>2022-05-19T08:55:51Z</time>
      </trkpt>
      <trkpt lat="47.51381" lon="2.0650632">
        <ele>171.0</ele>
        <time>2022-05-19T08:55:52Z</time>
      </trkpt>
      <trkpt lat="47.513817" lon="2.0650485">
        <ele>171.0</ele>
        <time>2022-05-19T08:55:53Z</time>
      </trkpt>
      <trkpt lat="47.513824" lon="2.0650368">
        <ele>172.0</ele>
        <time>2022-05-19T08:55:54Z</time>
      </trkpt>
      <trkpt lat="47.513832" lon="2.0650246">
        <ele>172.0</ele>
        <time>2022-05-19T08:55:55Z</time>
      </trkpt>
      <trkpt lat="47.513836" lon="2.0650127">
        <ele>172.0</ele>
        <time>2022-05-19T08:55:56Z</time>
      </trkpt>
      <trkpt lat="47.51384" lon="2.0650008">
        <ele>171.0</ele>
        <time>2022-05-19T08:55:57Z</time>
      </trkpt>
      <trkpt lat="47.513844" lon="2.0649915">
        <ele>171.0</ele>
        <time>2022-05-19T08:55:58Z</time>
      </trkpt>
      <trkpt lat="47.513847" lon="2.0649788">
        <ele>171.0</ele>
        <time>2022-05-19T08:55:59Z</time>
      </trkpt>
      <trkpt lat="47.51386" lon="2.0649648">
        <ele>171.0</ele>
        <time>2022-05-19T08:56:00Z</time>
      </trkpt>
      <trkpt lat="47.513866" lon="2.0649548">
        <ele>171.0</ele>
        <time>2022-05-19T08:56:01Z</time>
      </trkpt>
      <trkpt lat="47.513874" lon="2.064943">
        <ele>171.0</ele>
        <time>2022-05-19T08:56:02Z</time>
      </trkpt>
      <trkpt lat="47.513878" lon="2.0649319">
        <ele>171.0</ele>
        <time>2022-05-19T08:56:03Z</time>
      </trkpt>
      <trkpt lat="47.513885" lon="2.0649211">
        <ele>171.0</ele>
        <time>2022-05-19T08:56:04Z</time>
      </trkpt>
      <trkpt lat="47.513897" lon="2.064912">
        <ele>172.0</ele>
        <time>2022-05-19T08:56:05Z</time>
      </trkpt>
      <trkpt lat="47.51391" lon="2.0649052">
        <ele>172.0</ele>
        <time>2022-05-19T08:56:06Z</time>
      </trkpt>
      <trkpt lat="47.513916" lon="2.0648932">
        <ele>172.0</ele>
        <time>2022-05-19T08:56:07Z</time>
      </trkpt>
      <trkpt lat="47.51393" lon="2.0648816">
        <ele>172.0</ele>
        <time>2022-05-19T08:56:08Z</time>
      </trkpt>
      <trkpt lat="47.513935" lon="2.0648665">
        <ele>172.0</ele>
        <time>2022-05-19T08:56:09Z</time>
      </trkpt>
      <trkpt lat="47.51394" lon="2.064859">
        <ele>172.0</ele>
        <time>2022-05-19T08:56:10Z</time>
      </trkpt>
      <trkpt lat="47.513947" lon="2.0648453">
        <ele>172.0</ele>
        <time>2022-05-19T08:56:11Z</time>
      </trkpt>
      <trkpt lat="47.513958" lon="2.0648305">
        <ele>172.0</ele>
        <time>2022-05-19T08:56:12Z</time>
      </trkpt>
      <trkpt lat="47.51397" lon="2.0648196">
        <ele>172.0</ele>
        <time>2022-05-19T08:56:13Z</time>
      </trkpt>
      <trkpt lat="47.51398" lon="2.0648074">
        <ele>172.0</ele>
        <time>2022-05-19T08:56:14Z</time>
      </trkpt>
      <trkpt lat="47.513992" lon="2.0647962">
        <ele>172.0</ele>
        <time>2022-05-19T08:56:15Z</time>
      </trkpt>
      <trkpt lat="47.513996" lon="2.0647814">
        <ele>172.0</ele>
        <time>2022-05-19T08:56:16Z</time>
      </trkpt>
      <trkpt lat="47.513996" lon="2.064769">
        <ele>172.0</ele>
        <time>2022-05-19T08:56:17Z</time>
      </trkpt>
      <trkpt lat="47.514" lon="2.064757">
        <ele>172.0</ele>
        <time>2022-05-19T08:56:18Z</time>
      </trkpt>
      <trkpt lat="47.514008" lon="2.0647442">
        <ele>172.0</ele>
        <time>2022-05-19T08:56:19Z</time>
      </trkpt>
      <trkpt lat="47.514015" lon="2.0647316">
        <ele>172.0</ele>
        <time>2022-05-19T08:56:20Z</time>
      </trkpt>
      <trkpt lat="47.51402" lon="2.06472">
        <ele>172.0</ele>
        <time>2022-05-19T08:56:21Z</time>
      </trkpt>
      <trkpt lat="47.51403" lon="2.0647054">
        <ele>171.0</ele>
        <time>2022-05-19T08:56:22Z</time>
      </trkpt>
      <trkpt lat="47.514038" lon="2.0646915">
        <ele>171.0</ele>
        <time>2022-05-19T08:56:23Z</time>
      </trkpt>
      <trkpt lat="47.514046" lon="2.0646775">
        <ele>171.0</ele>
        <time>2022-05-19T08:56:24Z</time>
      </trkpt>
      <trkpt lat="47.514053" lon="2.0646615">
        <ele>171.0</ele>
        <time>2022-05-19T08:56:25Z</time>
      </trkpt>
      <trkpt lat="47.514065" lon="2.064649">
        <ele>171.0</ele>
        <time>2022-05-19T08:56:26Z</time>
      </trkpt>
      <trkpt lat="47.514072" lon="2.0646415">
        <ele>171.0</ele>
        <time>2022-05-19T08:56:27Z</time>
      </trkpt>
      <trkpt lat="47.514084" lon="2.0646331">
        <ele>171.0</ele>
        <time>2022-05-19T08:56:28Z</time>
      </trkpt>
      <trkpt lat="47.51409" lon="2.0646188">
        <ele>172.0</ele>
        <time>2022-05-19T08:56:29Z</time>
      </trkpt>
      <trkpt lat="47.5141" lon="2.064608">
        <ele>171.0</ele>
        <time>2022-05-19T08:56:30Z</time>
      </trkpt>
      <trkpt lat="47.51411" lon="2.064592">
        <ele>171.0</ele>
        <time>2022-05-19T08:56:31Z</time>
      </trkpt>
      <trkpt lat="47.51412" lon="2.0645769">
        <ele>171.0</ele>
        <time>2022-05-19T08:56:32Z</time>
      </trkpt>
      <trkpt lat="47.514126" lon="2.0645604">
        <ele>171.0</ele>
        <time>2022-05-19T08:56:33Z</time>
      </trkpt>
      <trkpt lat="47.51413" lon="2.0645459">
        <ele>171.0</ele>
        <time>2022-05-19T08:56:34Z</time>
      </trkpt>
      <trkpt lat="47.51414" lon="2.0645356">
        <ele>171.0</ele>
        <time>2022-05-19T08:56:35Z</time>
      </trkpt>
      <trkpt lat="47.514153" lon="2.0645266">
        <ele>171.0</ele>
        <time>2022-05-19T08:56:36Z</time>
      </trkpt>
      <trkpt lat="47.51416" lon="2.0645204">
        <ele>171.0</ele>
        <time>2022-05-19T08:56:37Z</time>
      </trkpt>
      <trkpt lat="47.51417" lon="2.0645077">
        <ele>170.0</ele>
        <time>2022-05-19T08:56:38Z</time>
      </trkpt>
      <trkpt lat="47.51418" lon="2.0644948">
        <ele>170.0</ele>
        <time>2022-05-19T08:56:39Z</time>
      </trkpt>
      <trkpt lat="47.514194" lon="2.064482">
        <ele>170.0</ele>
        <time>2022-05-19T08:56:40Z</time>
      </trkpt>
      <trkpt lat="47.514206" lon="2.0644698">
        <ele>169.0</ele>
        <time>2022-05-19T08:56:41Z</time>
      </trkpt>
      <trkpt lat="47.51422" lon="2.0644586">
        <ele>169.0</ele>
        <time>2022-05-19T08:56:42Z</time>
      </trkpt>
      <trkpt lat="47.514236" lon="2.064446">
        <ele>169.0</ele>
        <time>2022-05-19T08:56:43Z</time>
      </trkpt>
      <trkpt lat="47.514248" lon="2.064433">
        <ele>169.0</ele>
        <time>2022-05-19T08:56:44Z</time>
      </trkpt>
      <trkpt lat="47.51426" lon="2.0644193">
        <ele>169.0</ele>
        <time>2022-05-19T08:56:45Z</time>
      </trkpt>
      <trkpt lat="47.51427" lon="2.0644028">
        <ele>169.0</ele>
        <time>2022-05-19T08:56:46Z</time>
      </trkpt>
      <trkpt lat="47.514286" lon="2.064393">
        <ele>169.0</ele>
        <time>2022-05-19T08:56:47Z</time>
      </trkpt>
      <trkpt lat="47.5143" lon="2.0643945">
        <ele>169.0</ele>
        <time>2022-05-19T08:56:48Z</time>
      </trkpt>
      <trkpt lat="47.514317" lon="2.064392">
        <ele>169.0</ele>
        <time>2022-05-19T08:56:49Z</time>
      </trkpt>
      <trkpt lat="47.514328" lon="2.0643866">
        <ele>169.0</ele>
        <time>2022-05-19T08:56:50Z</time>
      </trkpt>
      <trkpt lat="47.51434" lon="2.06438">
        <ele>169.0</ele>
        <time>2022-05-19T08:56:51Z</time>
      </trkpt>
      <trkpt lat="47.51435" lon="2.0643685">
        <ele>170.0</ele>
        <time>2022-05-19T08:56:52Z</time>
      </trkpt>
      <trkpt lat="47.51437" lon="2.0643666">
        <ele>170.0</ele>
        <time>2022-05-19T08:56:53Z</time>
      </trkpt>
      <trkpt lat="47.514378" lon="2.064356">
        <ele>170.0</ele>
        <time>2022-05-19T08:56:54Z</time>
      </trkpt>
      <trkpt lat="47.514385" lon="2.0643475">
        <ele>170.0</ele>
        <time>2022-05-19T08:56:55Z</time>
      </trkpt>
      <trkpt lat="47.514397" lon="2.06434">
        <ele>170.0</ele>
        <time>2022-05-19T08:56:56Z</time>
      </trkpt>
      <trkpt lat="47.514404" lon="2.0643282">
        <ele>170.0</ele>
        <time>2022-05-19T08:56:57Z</time>
      </trkpt>
      <trkpt lat="47.514416" lon="2.0643153">
        <ele>170.0</ele>
        <time>2022-05-19T08:56:58Z</time>
      </trkpt>
      <trkpt lat="47.514427" lon="2.0643003">
        <ele>169.0</ele>
        <time>2022-05-19T08:56:59Z</time>
      </trkpt>
      <trkpt lat="47.514435" lon="2.0642862">
        <ele>169.0</ele>
        <time>2022-05-19T08:57:00Z</time>
      </trkpt>
      <trkpt lat="47.51445" lon="2.0642767">
        <ele>169.0</ele>
        <time>2022-05-19T08:57:01Z</time>
      </trkpt>
      <trkpt lat="47.514458" lon="2.064267">
        <ele>169.0</ele>
        <time>2022-05-19T08:57:02Z</time>
      </trkpt>
      <trkpt lat="47.51447" lon="2.0642583">
        <ele>169.0</ele>
        <time>2022-05-19T08:57:03Z</time>
      </trkpt>
      <trkpt lat="47.514484" lon="2.06425">
        <ele>169.0</ele>
        <time>2022-05-19T08:57:04Z</time>
      </trkpt>
      <trkpt lat="47.514496" lon="2.0642374">
        <ele>168.0</ele>
        <time>2022-05-19T08:57:05Z</time>
      </trkpt>
      <trkpt lat="47.514507" lon="2.0642188">
        <ele>168.0</ele>
        <time>2022-05-19T08:57:06Z</time>
      </trkpt>
      <trkpt lat="47.51451" lon="2.0641956">
        <ele>168.0</ele>
        <time>2022-05-19T08:57:07Z</time>
      </trkpt>
      <trkpt lat="47.51452" lon="2.0641763">
        <ele>168.0</ele>
        <time>2022-05-19T08:57:08Z</time>
      </trkpt>
      <trkpt lat="47.514526" lon="2.0641587">
        <ele>169.0</ele>
        <time>2022-05-19T08:57:09Z</time>
      </trkpt>
      <trkpt lat="47.514534" lon="2.064158">
        <ele>169.0</ele>
        <time>2022-05-19T08:57:10Z</time>
      </trkpt>
      <trkpt lat="47.51454" lon="2.0641503">
        <ele>169.0</ele>
        <time>2022-05-19T08:57:11Z</time>
      </trkpt>
      <trkpt lat="47.514545" lon="2.0641441">
        <ele>169.0</ele>
        <time>2022-05-19T08:57:12Z</time>
      </trkpt>
      <trkpt lat="47.514557" lon="2.0641356">
        <ele>168.0</ele>
        <time>2022-05-19T08:57:13Z</time>
      </trkpt>
      <trkpt lat="47.51457" lon="2.0641289">
        <ele>168.0</ele>
        <time>2022-05-19T08:57:14Z</time>
      </trkpt>
      <trkpt lat="47.51458" lon="2.0641248">
        <ele>168.0</ele>
        <time>2022-05-19T08:57:15Z</time>
      </trkpt>
      <trkpt lat="47.514584" lon="2.0641198">
        <ele>168.0</ele>
        <time>2022-05-19T08:57:16Z</time>
      </trkpt>
      <trkpt lat="47.514595" lon="2.064111">
        <ele>168.0</ele>
        <time>2022-05-19T08:57:17Z</time>
      </trkpt>
      <trkpt lat="47.5146" lon="2.0640967">
        <ele>168.0</ele>
        <time>2022-05-19T08:57:18Z</time>
      </trkpt>
      <trkpt lat="47.514606" lon="2.0640774">
        <ele>168.0</ele>
        <time>2022-05-19T08:57:19Z</time>
      </trkpt>
      <trkpt lat="47.514618" lon="2.0640566">
        <ele>169.0</ele>
        <time>2022-05-19T08:57:20Z</time>
      </trkpt>
      <trkpt lat="47.51463" lon="2.0640435">
        <ele>168.0</ele>
        <time>2022-05-19T08:57:21Z</time>
      </trkpt>
      <trkpt lat="47.514637" lon="2.064033">
        <ele>168.0</ele>
        <time>2022-05-19T08:57:22Z</time>
      </trkpt>
      <trkpt lat="47.514645" lon="2.0640192">
        <ele>169.0</ele>
        <time>2022-05-19T08:57:23Z</time>
      </trkpt>
      <trkpt lat="47.514656" lon="2.064006">
        <ele>169.0</ele>
        <time>2022-05-19T08:57:24Z</time>
      </trkpt>
      <trkpt lat="47.514668" lon="2.0639946">
        <ele>169.0</ele>
        <time>2022-05-19T08:57:25Z</time>
      </trkpt>
      <trkpt lat="47.51468" lon="2.0639842">
        <ele>169.0</ele>
        <time>2022-05-19T08:57:26Z</time>
      </trkpt>
      <trkpt lat="47.514687" lon="2.0639718">
        <ele>169.0</ele>
        <time>2022-05-19T08:57:27Z</time>
      </trkpt>
      <trkpt lat="47.5147" lon="2.0639544">
        <ele>170.0</ele>
        <time>2022-05-19T08:57:28Z</time>
      </trkpt>
      <trkpt lat="47.514713" lon="2.0639398">
        <ele>170.0</ele>
        <time>2022-05-19T08:57:29Z</time>
      </trkpt>
      <trkpt lat="47.51472" lon="2.0639267">
        <ele>170.0</ele>
        <time>2022-05-19T08:57:30Z</time>
      </trkpt>
      <trkpt lat="47.514725" lon="2.0639124">
        <ele>170.0</ele>
        <time>2022-05-19T08:57:31Z</time>
      </trkpt>
      <trkpt lat="47.514736" lon="2.0639">
        <ele>170.0</ele>
        <time>2022-05-19T08:57:32Z</time>
      </trkpt>
      <trkpt lat="47.514748" lon="2.0638905">
        <ele>170.0</ele>
        <time>2022-05-19T08:57:33Z</time>
      </trkpt>
      <trkpt lat="47.514755" lon="2.0638773">
        <ele>170.0</ele>
        <time>2022-05-19T08:57:34Z</time>
      </trkpt>
      <trkpt lat="47.514767" lon="2.0638673">
        <ele>170.0</ele>
        <time>2022-05-19T08:57:35Z</time>
      </trkpt>
      <trkpt lat="47.51478" lon="2.0638587">
        <ele>170.0</ele>
        <time>2022-05-19T08:57:36Z</time>
      </trkpt>
      <trkpt lat="47.51479" lon="2.0638514">
        <ele>170.0</ele>
        <time>2022-05-19T08:57:37Z</time>
      </trkpt>
      <trkpt lat="47.514805" lon="2.0638413">
        <ele>170.0</ele>
        <time>2022-05-19T08:57:38Z</time>
      </trkpt>
      <trkpt lat="47.514816" lon="2.063833">
        <ele>170.0</ele>
        <time>2022-05-19T08:57:39Z</time>
      </trkpt>
      <trkpt lat="47.514828" lon="2.0638213">
        <ele>170.0</ele>
        <time>2022-05-19T08:57:40Z</time>
      </trkpt>
      <trkpt lat="47.514843" lon="2.0638108">
        <ele>171.0</ele>
        <time>2022-05-19T08:57:41Z</time>
      </trkpt>
      <trkpt lat="47.514854" lon="2.063801">
        <ele>171.0</ele>
        <time>2022-05-19T08:57:42Z</time>
      </trkpt>
      <trkpt lat="47.51487" lon="2.0637953">
        <ele>171.0</ele>
        <time>2022-05-19T08:57:43Z</time>
      </trkpt>
      <trkpt lat="47.51488" lon="2.0637846">
        <ele>171.0</ele>
        <time>2022-05-19T08:57:44Z</time>
      </trkpt>
      <trkpt lat="47.51489" lon="2.063767">
        <ele>170.0</ele>
        <time>2022-05-19T08:57:45Z</time>
      </trkpt>
      <trkpt lat="47.514896" lon="2.0637567">
        <ele>170.0</ele>
        <time>2022-05-19T08:57:46Z</time>
      </trkpt>
      <trkpt lat="47.514908" lon="2.0637465">
        <ele>170.0</ele>
        <time>2022-05-19T08:57:47Z</time>
      </trkpt>
      <trkpt lat="47.514923" lon="2.0637362">
        <ele>170.0</ele>
        <time>2022-05-19T08:57:48Z</time>
      </trkpt>
      <trkpt lat="47.514935" lon="2.0637267">
        <ele>170.0</ele>
        <time>2022-05-19T08:57:49Z</time>
      </trkpt>
      <trkpt lat="47.514946" lon="2.063722">
        <ele>170.0</ele>
        <time>2022-05-19T08:57:50Z</time>
      </trkpt>
      <trkpt lat="47.51496" lon="2.063722">
        <ele>170.0</ele>
        <time>2022-05-19T08:57:51Z</time>
      </trkpt>
      <trkpt lat="47.514973" lon="2.0637133">
        <ele>170.0</ele>
        <time>2022-05-19T08:57:52Z</time>
      </trkpt>
      <trkpt lat="47.514984" lon="2.0637066">
        <ele>170.0</ele>
        <time>2022-05-19T08:57:53Z</time>
      </trkpt>
      <trkpt lat="47.51499" lon="2.0636973">
        <ele>170.0</ele>
        <time>2022-05-19T08:57:54Z</time>
      </trkpt>
      <trkpt lat="47.515007" lon="2.0636878">
        <ele>170.0</ele>
        <time>2022-05-19T08:57:55Z</time>
      </trkpt>
      <trkpt lat="47.51502" lon="2.0636744">
        <ele>169.0</ele>
        <time>2022-05-19T08:57:56Z</time>
      </trkpt>
      <trkpt lat="47.51503" lon="2.0636642">
        <ele>169.0</ele>
        <time>2022-05-19T08:57:57Z</time>
      </trkpt>
      <trkpt lat="47.515038" lon="2.0636513">
        <ele>169.0</ele>
        <time>2022-05-19T08:57:58Z</time>
      </trkpt>
      <trkpt lat="47.515045" lon="2.0636394">
        <ele>169.0</ele>
        <time>2022-05-19T08:57:59Z</time>
      </trkpt>
      <trkpt lat="47.515053" lon="2.063624">
        <ele>169.0</ele>
        <time>2022-05-19T08:58:00Z</time>
      </trkpt>
      <trkpt lat="47.515068" lon="2.06361">
        <ele>169.0</ele>
        <time>2022-05-19T08:58:01Z</time>
      </trkpt>
      <trkpt lat="47.51508" lon="2.0635953">
        <ele>168.0</ele>
        <time>2022-05-19T08:58:02Z</time>
      </trkpt>
      <trkpt lat="47.515087" lon="2.0635738">
        <ele>168.0</ele>
        <time>2022-05-19T08:58:03Z</time>
      </trkpt>
      <trkpt lat="47.515095" lon="2.0635495">
        <ele>168.0</ele>
        <time>2022-05-19T08:58:04Z</time>
      </trkpt>
      <trkpt lat="47.515102" lon="2.0635326">
        <ele>168.0</ele>
        <time>2022-05-19T08:58:05Z</time>
      </trkpt>
      <trkpt lat="47.515102" lon="2.0635178">
        <ele>167.0</ele>
        <time>2022-05-19T08:58:06Z</time>
      </trkpt>
      <trkpt lat="47.51511" lon="2.063504">
        <ele>167.0</ele>
        <time>2022-05-19T08:58:07Z</time>
      </trkpt>
      <trkpt lat="47.51511" lon="2.0634866">
        <ele>167.0</ele>
        <time>2022-05-19T08:58:08Z</time>
      </trkpt>
      <trkpt lat="47.515118" lon="2.0634704">
        <ele>168.0</ele>
        <time>2022-05-19T08:58:09Z</time>
      </trkpt>
      <trkpt lat="47.515125" lon="2.0634546">
        <ele>168.0</ele>
        <time>2022-05-19T08:58:10Z</time>
      </trkpt>
      <trkpt lat="47.515133" lon="2.0634346">
        <ele>168.0</ele>
        <time>2022-05-19T08:58:11Z</time>
      </trkpt>
      <trkpt lat="47.515137" lon="2.06342">
        <ele>168.0</ele>
        <time>2022-05-19T08:58:12Z</time>
      </trkpt>
      <trkpt lat="47.515137" lon="2.0634093">
        <ele>168.0</ele>
        <time>2022-05-19T08:58:13Z</time>
      </trkpt>
      <trkpt lat="47.515144" lon="2.063397">
        <ele>168.0</ele>
        <time>2022-05-19T08:58:14Z</time>
      </trkpt>
      <trkpt lat="47.515152" lon="2.0633883">
        <ele>168.0</ele>
        <time>2022-05-19T08:58:15Z</time>
      </trkpt>
      <trkpt lat="47.515156" lon="2.063379">
        <ele>167.0</ele>
        <time>2022-05-19T08:58:16Z</time>
      </trkpt>
      <trkpt lat="47.515163" lon="2.0633724">
        <ele>167.0</ele>
        <time>2022-05-19T08:58:17Z</time>
      </trkpt>
      <trkpt lat="47.515175" lon="2.0633602">
        <ele>168.0</ele>
        <time>2022-05-19T08:58:18Z</time>
      </trkpt>
      <trkpt lat="47.515186" lon="2.0633512">
        <ele>167.0</ele>
        <time>2022-05-19T08:58:19Z</time>
      </trkpt>
      <trkpt lat="47.515198" lon="2.0633366">
        <ele>168.0</ele>
        <time>2022-05-19T08:58:20Z</time>
      </trkpt>
      <trkpt lat="47.515205" lon="2.063326">
        <ele>167.0</ele>
        <time>2022-05-19T08:58:21Z</time>
      </trkpt>
      <trkpt lat="47.515213" lon="2.063314">
        <ele>168.0</ele>
        <time>2022-05-19T08:58:22Z</time>
      </trkpt>
      <trkpt lat="47.51522" lon="2.063305">
        <ele>167.0</ele>
        <time>2022-05-19T08:58:23Z</time>
      </trkpt>
      <trkpt lat="47.51523" lon="2.063294">
        <ele>167.0</ele>
        <time>2022-05-19T08:58:24Z</time>
      </trkpt>
      <trkpt lat="47.515232" lon="2.063275">
        <ele>167.0</ele>
        <time>2022-05-19T08:58:25Z</time>
      </trkpt>
      <trkpt lat="47.51524" lon="2.0632524">
        <ele>167.0</ele>
        <time>2022-05-19T08:58:26Z</time>
      </trkpt>
      <trkpt lat="47.515247" lon="2.0632398">
        <ele>167.0</ele>
        <time>2022-05-19T08:58:27Z</time>
      </trkpt>
      <trkpt lat="47.515255" lon="2.0632265">
        <ele>167.0</ele>
        <time>2022-05-19T08:58:28Z</time>
      </trkpt>
      <trkpt lat="47.515266" lon="2.0632117">
        <ele>167.0</ele>
        <time>2022-05-19T08:58:29Z</time>
      </trkpt>
      <trkpt lat="47.515274" lon="2.0632074">
        <ele>167.0</ele>
        <time>2022-05-19T08:58:30Z</time>
      </trkpt>
      <trkpt lat="47.515285" lon="2.0632043">
        <ele>167.0</ele>
        <time>2022-05-19T08:58:31Z</time>
      </trkpt>
      <trkpt lat="47.5153" lon="2.0631955">
        <ele>167.0</ele>
        <time>2022-05-19T08:58:32Z</time>
      </trkpt>
      <trkpt lat="47.515305" lon="2.0631864">
        <ele>167.0</ele>
        <time>2022-05-19T08:58:33Z</time>
      </trkpt>
      <trkpt lat="47.515312" lon="2.0631728">
        <ele>167.0</ele>
        <time>2022-05-19T08:58:34Z</time>
      </trkpt>
      <trkpt lat="47.51532" lon="2.0631607">
        <ele>167.0</ele>
        <time>2022-05-19T08:58:35Z</time>
      </trkpt>
      <trkpt lat="47.51533" lon="2.0631447">
        <ele>167.0</ele>
        <time>2022-05-19T08:58:36Z</time>
      </trkpt>
      <trkpt lat="47.51534" lon="2.0631297">
        <ele>167.0</ele>
        <time>2022-05-19T08:58:37Z</time>
      </trkpt>
      <trkpt lat="47.515343" lon="2.063113">
        <ele>166.0</ele>
        <time>2022-05-19T08:58:38Z</time>
      </trkpt>
      <trkpt lat="47.51535" lon="2.0631042">
        <ele>166.0</ele>
        <time>2022-05-19T08:58:39Z</time>
      </trkpt>
      <trkpt lat="47.51536" lon="2.063099">
        <ele>165.0</ele>
        <time>2022-05-19T08:58:40Z</time>
      </trkpt>
      <trkpt lat="47.51537" lon="2.063089">
        <ele>165.0</ele>
        <time>2022-05-19T08:58:41Z</time>
      </trkpt>
      <trkpt lat="47.51538" lon="2.063074">
        <ele>165.0</ele>
        <time>2022-05-19T08:58:42Z</time>
      </trkpt>
      <trkpt lat="47.51539" lon="2.0630605">
        <ele>166.0</ele>
        <time>2022-05-19T08:58:43Z</time>
      </trkpt>
      <trkpt lat="47.515392" lon="2.063053">
        <ele>166.0</ele>
        <time>2022-05-19T08:58:44Z</time>
      </trkpt>
      <trkpt lat="47.5154" lon="2.063042">
        <ele>166.0</ele>
        <time>2022-05-19T08:58:45Z</time>
      </trkpt>
      <trkpt lat="47.515408" lon="2.0630329">
        <ele>166.0</ele>
        <time>2022-05-19T08:58:46Z</time>
      </trkpt>
      <trkpt lat="47.51542" lon="2.0630205">
        <ele>166.0</ele>
        <time>2022-05-19T08:58:47Z</time>
      </trkpt>
      <trkpt lat="47.515423" lon="2.0630076">
        <ele>165.0</ele>
        <time>2022-05-19T08:58:48Z</time>
      </trkpt>
      <trkpt lat="47.51543" lon="2.0629923">
        <ele>166.0</ele>
        <time>2022-05-19T08:58:49Z</time>
      </trkpt>
      <trkpt lat="47.515434" lon="2.0629745">
        <ele>166.0</ele>
        <time>2022-05-19T08:58:50Z</time>
      </trkpt>
      <trkpt lat="47.515434" lon="2.062959">
        <ele>166.0</ele>
        <time>2022-05-19T08:58:51Z</time>
      </trkpt>
      <trkpt lat="47.51544" lon="2.0629487">
        <ele>166.0</ele>
        <time>2022-05-19T08:58:52Z</time>
      </trkpt>
      <trkpt lat="47.51545" lon="2.0629337">
        <ele>166.0</ele>
        <time>2022-05-19T08:58:53Z</time>
      </trkpt>
      <trkpt lat="47.515457" lon="2.0629215">
        <ele>166.0</ele>
        <time>2022-05-19T08:58:54Z</time>
      </trkpt>
      <trkpt lat="47.51547" lon="2.0629137">
        <ele>166.0</ele>
        <time>2022-05-19T08:58:55Z</time>
      </trkpt>
      <trkpt lat="47.515476" lon="2.0629036">
        <ele>165.0</ele>
        <time>2022-05-19T08:58:56Z</time>
      </trkpt>
      <trkpt lat="47.515488" lon="2.0628932">
        <ele>165.0</ele>
        <time>2022-05-19T08:58:57Z</time>
      </trkpt>
      <trkpt lat="47.515495" lon="2.062878">
        <ele>165.0</ele>
        <time>2022-05-19T08:58:58Z</time>
      </trkpt>
      <trkpt lat="47.515503" lon="2.0628667">
        <ele>165.0</ele>
        <time>2022-05-19T08:58:59Z</time>
      </trkpt>
      <trkpt lat="47.51551" lon="2.0628529">
        <ele>165.0</ele>
        <time>2022-05-19T08:59:00Z</time>
      </trkpt>
      <trkpt lat="47.515522" lon="2.0628405">
        <ele>165.0</ele>
        <time>2022-05-19T08:59:01Z</time>
      </trkpt>
      <trkpt lat="47.515533" lon="2.0628238">
        <ele>165.0</ele>
        <time>2022-05-19T08:59:02Z</time>
      </trkpt>
      <trkpt lat="47.51554" lon="2.0628092">
        <ele>166.0</ele>
        <time>2022-05-19T08:59:03Z</time>
      </trkpt>
      <trkpt lat="47.515553" lon="2.0627902">
        <ele>166.0</ele>
        <time>2022-05-19T08:59:04Z</time>
      </trkpt>
      <trkpt lat="47.515568" lon="2.062776">
        <ele>166.0</ele>
        <time>2022-05-19T08:59:05Z</time>
      </trkpt>
      <trkpt lat="47.51557" lon="2.062756">
        <ele>166.0</ele>
        <time>2022-05-19T08:59:06Z</time>
      </trkpt>
      <trkpt lat="47.515575" lon="2.062738">
        <ele>166.0</ele>
        <time>2022-05-19T08:59:07Z</time>
      </trkpt>
      <trkpt lat="47.515587" lon="2.062719">
        <ele>165.0</ele>
        <time>2022-05-19T08:59:08Z</time>
      </trkpt>
      <trkpt lat="47.5156" lon="2.0627017">
        <ele>165.0</ele>
        <time>2022-05-19T08:59:09Z</time>
      </trkpt>
      <trkpt lat="47.515614" lon="2.0626874">
        <ele>164.0</ele>
        <time>2022-05-19T08:59:10Z</time>
      </trkpt>
      <trkpt lat="47.515625" lon="2.062676">
        <ele>164.0</ele>
        <time>2022-05-19T08:59:11Z</time>
      </trkpt>
      <trkpt lat="47.51564" lon="2.062669">
        <ele>165.0</ele>
        <time>2022-05-19T08:59:12Z</time>
      </trkpt>
      <trkpt lat="47.515648" lon="2.0626583">
        <ele>165.0</ele>
        <time>2022-05-19T08:59:13Z</time>
      </trkpt>
      <trkpt lat="47.51566" lon="2.06265">
        <ele>165.0</ele>
        <time>2022-05-19T08:59:14Z</time>
      </trkpt>
      <trkpt lat="47.515667" lon="2.062641">
        <ele>165.0</ele>
        <time>2022-05-19T08:59:15Z</time>
      </trkpt>
      <trkpt lat="47.515675" lon="2.0626326">
        <ele>165.0</ele>
        <time>2022-05-19T08:59:16Z</time>
      </trkpt>
      <trkpt lat="47.515682" lon="2.0626209">
        <ele>165.0</ele>
        <time>2022-05-19T08:59:17Z</time>
      </trkpt>
      <trkpt lat="47.515686" lon="2.0626063">
        <ele>166.0</ele>
        <time>2022-05-19T08:59:18Z</time>
      </trkpt>
      <trkpt lat="47.515694" lon="2.0625942">
        <ele>166.0</ele>
        <time>2022-05-19T08:59:19Z</time>
      </trkpt>
      <trkpt lat="47.515697" lon="2.0625823">
        <ele>166.0</ele>
        <time>2022-05-19T08:59:20Z</time>
      </trkpt>
      <trkpt lat="47.515705" lon="2.0625725">
        <ele>166.0</ele>
        <time>2022-05-19T08:59:21Z</time>
      </trkpt>
      <trkpt lat="47.515717" lon="2.0625641">
        <ele>165.0</ele>
        <time>2022-05-19T08:59:22Z</time>
      </trkpt>
      <trkpt lat="47.515724" lon="2.0625553">
        <ele>165.0</ele>
        <time>2022-05-19T08:59:23Z</time>
      </trkpt>
      <trkpt lat="47.51574" lon="2.0625482">
        <ele>165.0</ele>
        <time>2022-05-19T08:59:24Z</time>
      </trkpt>
      <trkpt lat="47.51575" lon="2.062543">
        <ele>165.0</ele>
        <time>2022-05-19T08:59:25Z</time>
      </trkpt>
      <trkpt lat="47.515766" lon="2.0625358">
        <ele>165.0</ele>
        <time>2022-05-19T08:59:26Z</time>
      </trkpt>
      <trkpt lat="47.51578" lon="2.0625234">
        <ele>165.0</ele>
        <time>2022-05-19T08:59:27Z</time>
      </trkpt>
      <trkpt lat="47.51579" lon="2.062516">
        <ele>164.0</ele>
        <time>2022-05-19T08:59:28Z</time>
      </trkpt>
      <trkpt lat="47.515797" lon="2.0625043">
        <ele>164.0</ele>
        <time>2022-05-19T08:59:29Z</time>
      </trkpt>
      <trkpt lat="47.5158" lon="2.0624895">
        <ele>164.0</ele>
        <time>2022-05-19T08:59:30Z</time>
      </trkpt>
      <trkpt lat="47.51581" lon="2.062478">
        <ele>164.0</ele>
        <time>2022-05-19T08:59:31Z</time>
      </trkpt>
      <trkpt lat="47.51582" lon="2.0624642">
        <ele>164.0</ele>
        <time>2022-05-19T08:59:32Z</time>
      </trkpt>
      <trkpt lat="47.515827" lon="2.0624542">
        <ele>164.0</ele>
        <time>2022-05-19T08:59:33Z</time>
      </trkpt>
      <trkpt lat="47.515835" lon="2.0624444">
        <ele>164.0</ele>
        <time>2022-05-19T08:59:34Z</time>
      </trkpt>
      <trkpt lat="47.515846" lon="2.062437">
        <ele>165.0</ele>
        <time>2022-05-19T08:59:35Z</time>
      </trkpt>
      <trkpt lat="47.515858" lon="2.0624306">
        <ele>165.0</ele>
        <time>2022-05-19T08:59:36Z</time>
      </trkpt>
      <trkpt lat="47.515865" lon="2.0624204">
        <ele>165.0</ele>
        <time>2022-05-19T08:59:37Z</time>
      </trkpt>
      <trkpt lat="47.515877" lon="2.0624144">
        <ele>165.0</ele>
        <time>2022-05-19T08:59:38Z</time>
      </trkpt>
      <trkpt lat="47.51589" lon="2.0624006">
        <ele>165.0</ele>
        <time>2022-05-19T08:59:39Z</time>
      </trkpt>
      <trkpt lat="47.5159" lon="2.0623868">
        <ele>166.0</ele>
        <time>2022-05-19T08:59:40Z</time>
      </trkpt>
      <trkpt lat="47.51591" lon="2.0623765">
        <ele>165.0</ele>
        <time>2022-05-19T08:59:41Z</time>
      </trkpt>
      <trkpt lat="47.51592" lon="2.0623674">
        <ele>166.0</ele>
        <time>2022-05-19T08:59:42Z</time>
      </trkpt>
      <trkpt lat="47.515926" lon="2.0623596">
        <ele>166.0</ele>
        <time>2022-05-19T08:59:43Z</time>
      </trkpt>
      <trkpt lat="47.515934" lon="2.062345">
        <ele>165.0</ele>
        <time>2022-05-19T08:59:44Z</time>
      </trkpt>
      <trkpt lat="47.515945" lon="2.0623329">
        <ele>165.0</ele>
        <time>2022-05-19T08:59:45Z</time>
      </trkpt>
      <trkpt lat="47.515957" lon="2.062318">
        <ele>165.0</ele>
        <time>2022-05-19T08:59:46Z</time>
      </trkpt>
      <trkpt lat="47.515965" lon="2.0622976">
        <ele>165.0</ele>
        <time>2022-05-19T08:59:47Z</time>
      </trkpt>
      <trkpt lat="47.515972" lon="2.0622811">
        <ele>165.0</ele>
        <time>2022-05-19T08:59:48Z</time>
      </trkpt>
      <trkpt lat="47.51598" lon="2.062262">
        <ele>164.0</ele>
        <time>2022-05-19T08:59:49Z</time>
      </trkpt>
      <trkpt lat="47.515987" lon="2.0622475">
        <ele>164.0</ele>
        <time>2022-05-19T08:59:50Z</time>
      </trkpt>
      <trkpt lat="47.516" lon="2.062232">
        <ele>164.0</ele>
        <time>2022-05-19T08:59:51Z</time>
      </trkpt>
      <trkpt lat="47.516006" lon="2.0622182">
        <ele>164.0</ele>
        <time>2022-05-19T08:59:52Z</time>
      </trkpt>
      <trkpt lat="47.516018" lon="2.062205">
        <ele>164.0</ele>
        <time>2022-05-19T08:59:53Z</time>
      </trkpt>
      <trkpt lat="47.51603" lon="2.0621917">
        <ele>165.0</ele>
        <time>2022-05-19T08:59:54Z</time>
      </trkpt>
      <trkpt lat="47.516037" lon="2.062178">
        <ele>165.0</ele>
        <time>2022-05-19T08:59:55Z</time>
      </trkpt>
      <trkpt lat="47.51605" lon="2.0621645">
        <ele>165.0</ele>
        <time>2022-05-19T08:59:56Z</time>
      </trkpt>
      <trkpt lat="47.516056" lon="2.0621526">
        <ele>164.0</ele>
        <time>2022-05-19T08:59:57Z</time>
      </trkpt>
      <trkpt lat="47.516068" lon="2.0621452">
        <ele>164.0</ele>
        <time>2022-05-19T08:59:58Z</time>
      </trkpt>
      <trkpt lat="47.516075" lon="2.0621362">
        <ele>164.0</ele>
        <time>2022-05-19T08:59:59Z</time>
      </trkpt>
      <trkpt lat="47.516087" lon="2.0621247">
        <ele>164.0</ele>
        <time>2022-05-19T09:00:00Z</time>
      </trkpt>
      <trkpt lat="47.516098" lon="2.0621164">
        <ele>163.0</ele>
        <time>2022-05-19T09:00:01Z</time>
      </trkpt>
      <trkpt lat="47.516106" lon="2.0621066">
        <ele>163.0</ele>
        <time>2022-05-19T09:00:02Z</time>
      </trkpt>
      <trkpt lat="47.516113" lon="2.0620995">
        <ele>163.0</ele>
        <time>2022-05-19T09:00:03Z</time>
      </trkpt>
      <trkpt lat="47.51612" lon="2.0620918">
        <ele>163.0</ele>
        <time>2022-05-19T09:00:04Z</time>
      </trkpt>
      <trkpt lat="47.516136" lon="2.0620837">
        <ele>163.0</ele>
        <time>2022-05-19T09:00:05Z</time>
      </trkpt>
      <trkpt lat="47.516144" lon="2.062074">
        <ele>163.0</ele>
        <time>2022-05-19T09:00:06Z</time>
      </trkpt>
      <trkpt lat="47.51615" lon="2.062059">
        <ele>163.0</ele>
        <time>2022-05-19T09:00:07Z</time>
      </trkpt>
      <trkpt lat="47.51616" lon="2.062045">
        <ele>162.0</ele>
        <time>2022-05-19T09:00:08Z</time>
      </trkpt>
      <trkpt lat="47.516163" lon="2.0620317">
        <ele>162.0</ele>
        <time>2022-05-19T09:00:09Z</time>
      </trkpt>
      <trkpt lat="47.516174" lon="2.0620294">
        <ele>162.0</ele>
        <time>2022-05-19T09:00:10Z</time>
      </trkpt>
      <trkpt lat="47.516186" lon="2.0620127">
        <ele>162.0</ele>
        <time>2022-05-19T09:00:11Z</time>
      </trkpt>
      <trkpt lat="47.516197" lon="2.062001">
        <ele>162.0</ele>
        <time>2022-05-19T09:00:12Z</time>
      </trkpt>
      <trkpt lat="47.516205" lon="2.0619962">
        <ele>163.0</ele>
        <time>2022-05-19T09:00:13Z</time>
      </trkpt>
      <trkpt lat="47.516212" lon="2.061995">
        <ele>162.0</ele>
        <time>2022-05-19T09:00:14Z</time>
      </trkpt>
      <trkpt lat="47.516228" lon="2.0619912">
        <ele>162.0</ele>
        <time>2022-05-19T09:00:15Z</time>
      </trkpt>
      <trkpt lat="47.516243" lon="2.0619826">
        <ele>162.0</ele>
        <time>2022-05-19T09:00:16Z</time>
      </trkpt>
      <trkpt lat="47.51625" lon="2.0619683">
        <ele>161.0</ele>
        <time>2022-05-19T09:00:17Z</time>
      </trkpt>
      <trkpt lat="47.51626" lon="2.0619578">
        <ele>161.0</ele>
        <time>2022-05-19T09:00:18Z</time>
      </trkpt>
      <trkpt lat="47.516266" lon="2.0619438">
        <ele>161.0</ele>
        <time>2022-05-19T09:00:19Z</time>
      </trkpt>
      <trkpt lat="47.516273" lon="2.0619335">
        <ele>161.0</ele>
        <time>2022-05-19T09:00:20Z</time>
      </trkpt>
      <trkpt lat="47.516277" lon="2.0619233">
        <ele>161.0</ele>
        <time>2022-05-19T09:00:21Z</time>
      </trkpt>
      <trkpt lat="47.51629" lon="2.0619097">
        <ele>161.0</ele>
        <time>2022-05-19T09:00:22Z</time>
      </trkpt>
      <trkpt lat="47.516296" lon="2.0618963">
        <ele>162.0</ele>
        <time>2022-05-19T09:00:23Z</time>
      </trkpt>
      <trkpt lat="47.516304" lon="2.061885">
        <ele>162.0</ele>
        <time>2022-05-19T09:00:24Z</time>
      </trkpt>
      <trkpt lat="47.51631" lon="2.0618806">
        <ele>162.0</ele>
        <time>2022-05-19T09:00:25Z</time>
      </trkpt>
      <trkpt lat="47.516315" lon="2.0618756">
        <ele>162.0</ele>
        <time>2022-05-19T09:00:26Z</time>
      </trkpt>
      <trkpt lat="47.516327" lon="2.0618753">
        <ele>162.0</ele>
        <time>2022-05-19T09:00:27Z</time>
      </trkpt>
      <trkpt lat="47.51634" lon="2.0618849">
        <ele>161.0</ele>
        <time>2022-05-19T09:00:28Z</time>
      </trkpt>
      <trkpt lat="47.51635" lon="2.0618896">
        <ele>161.0</ele>
        <time>2022-05-19T09:00:29Z</time>
      </trkpt>
      <trkpt lat="47.51636" lon="2.0618925">
        <ele>160.0</ele>
        <time>2022-05-19T09:00:30Z</time>
      </trkpt>
      <trkpt lat="47.51637" lon="2.061886">
        <ele>160.0</ele>
        <time>2022-05-19T09:00:31Z</time>
      </trkpt>
      <trkpt lat="47.516376" lon="2.0618837">
        <ele>160.0</ele>
        <time>2022-05-19T09:00:32Z</time>
      </trkpt>
      <trkpt lat="47.516388" lon="2.0618768">
        <ele>161.0</ele>
        <time>2022-05-19T09:00:33Z</time>
      </trkpt>
      <trkpt lat="47.5164" lon="2.0618649">
        <ele>160.0</ele>
        <time>2022-05-19T09:00:34Z</time>
      </trkpt>
      <trkpt lat="47.516407" lon="2.0618572">
        <ele>160.0</ele>
        <time>2022-05-19T09:00:35Z</time>
      </trkpt>
      <trkpt lat="47.51641" lon="2.061849">
        <ele>160.0</ele>
        <time>2022-05-19T09:00:36Z</time>
      </trkpt>
      <trkpt lat="47.51641" lon="2.061849">
        <ele>160.0</ele>
        <time>2022-05-19T09:00:37Z</time>
      </trkpt>
      <trkpt lat="47.516422" lon="2.0618207">
        <ele>160.0</ele>
        <time>2022-05-19T09:00:38Z</time>
      </trkpt>
      <trkpt lat="47.516426" lon="2.0618005">
        <ele>160.0</ele>
        <time>2022-05-19T09:00:39Z</time>
      </trkpt>
      <trkpt lat="47.516438" lon="2.061774">
        <ele>160.0</ele>
        <time>2022-05-19T09:00:40Z</time>
      </trkpt>
      <trkpt lat="47.51645" lon="2.06175">
        <ele>159.0</ele>
        <time>2022-05-19T09:00:41Z</time>
      </trkpt>
      <trkpt lat="47.516457" lon="2.0617352">
        <ele>159.0</ele>
        <time>2022-05-19T09:00:42Z</time>
      </trkpt>
      <trkpt lat="47.516468" lon="2.0617235">
        <ele>160.0</ele>
        <time>2022-05-19T09:00:43Z</time>
      </trkpt>
      <trkpt lat="47.516468" lon="2.0617013">
        <ele>160.0</ele>
        <time>2022-05-19T09:00:44Z</time>
      </trkpt>
      <trkpt lat="47.51648" lon="2.0616899">
        <ele>160.0</ele>
        <time>2022-05-19T09:00:45Z</time>
      </trkpt>
      <trkpt lat="47.516483" lon="2.0616722">
        <ele>160.0</ele>
        <time>2022-05-19T09:00:46Z</time>
      </trkpt>
      <trkpt lat="47.51649" lon="2.0616632">
        <ele>159.0</ele>
        <time>2022-05-19T09:00:47Z</time>
      </trkpt>
      <trkpt lat="47.516495" lon="2.0616496">
        <ele>159.0</ele>
        <time>2022-05-19T09:00:48Z</time>
      </trkpt>
      <trkpt lat="47.516502" lon="2.061633">
        <ele>159.0</ele>
        <time>2022-05-19T09:00:49Z</time>
      </trkpt>
      <trkpt lat="47.516506" lon="2.0616183">
        <ele>159.0</ele>
        <time>2022-05-19T09:00:50Z</time>
      </trkpt>
      <trkpt lat="47.51651" lon="2.061601">
        <ele>158.0</ele>
        <time>2022-05-19T09:00:51Z</time>
      </trkpt>
      <trkpt lat="47.516514" lon="2.0615854">
        <ele>158.0</ele>
        <time>2022-05-19T09:00:52Z</time>
      </trkpt>
      <trkpt lat="47.51652" lon="2.0615706">
        <ele>159.0</ele>
        <time>2022-05-19T09:00:53Z</time>
      </trkpt>
      <trkpt lat="47.51653" lon="2.0615602">
        <ele>159.0</ele>
        <time>2022-05-19T09:00:54Z</time>
      </trkpt>
      <trkpt lat="47.51654" lon="2.0615535">
        <ele>158.0</ele>
        <time>2022-05-19T09:00:55Z</time>
      </trkpt>
      <trkpt lat="47.51655" lon="2.0615425">
        <ele>158.0</ele>
        <time>2022-05-19T09:00:56Z</time>
      </trkpt>
      <trkpt lat="47.516556" lon="2.0615373">
        <ele>158.0</ele>
        <time>2022-05-19T09:00:57Z</time>
      </trkpt>
      <trkpt lat="47.51656" lon="2.0615294">
        <ele>158.0</ele>
        <time>2022-05-19T09:00:58Z</time>
      </trkpt>
      <trkpt lat="47.51656" lon="2.0615194">
        <ele>158.0</ele>
        <time>2022-05-19T09:00:59Z</time>
      </trkpt>
      <trkpt lat="47.516567" lon="2.0615046">
        <ele>158.0</ele>
        <time>2022-05-19T09:01:00Z</time>
      </trkpt>
      <trkpt lat="47.51658" lon="2.0614896">
        <ele>157.0</ele>
        <time>2022-05-19T09:01:01Z</time>
      </trkpt>
      <trkpt lat="47.516594" lon="2.0614822">
        <ele>157.0</ele>
        <time>2022-05-19T09:01:02Z</time>
      </trkpt>
      <trkpt lat="47.5166" lon="2.0614789">
        <ele>157.0</ele>
        <time>2022-05-19T09:01:03Z</time>
      </trkpt>
      <trkpt lat="47.516613" lon="2.0614717">
        <ele>157.0</ele>
        <time>2022-05-19T09:01:04Z</time>
      </trkpt>
      <trkpt lat="47.51662" lon="2.0614603">
        <ele>157.0</ele>
        <time>2022-05-19T09:01:05Z</time>
      </trkpt>
      <trkpt lat="47.516632" lon="2.061445">
        <ele>157.0</ele>
        <time>2022-05-19T09:01:06Z</time>
      </trkpt>
      <trkpt lat="47.51664" lon="2.061432">
        <ele>157.0</ele>
        <time>2022-05-19T09:01:07Z</time>
      </trkpt>
      <trkpt lat="47.51665" lon="2.0614169">
        <ele>156.0</ele>
        <time>2022-05-19T09:01:08Z</time>
      </trkpt>
      <trkpt lat="47.516663" lon="2.0614028">
        <ele>156.0</ele>
        <time>2022-05-19T09:01:09Z</time>
      </trkpt>
      <trkpt lat="47.516674" lon="2.0613942">
        <ele>156.0</ele>
        <time>2022-05-19T09:01:10Z</time>
      </trkpt>
      <trkpt lat="47.51669" lon="2.0613904">
        <ele>156.0</ele>
        <time>2022-05-19T09:01:11Z</time>
      </trkpt>
      <trkpt lat="47.516705" lon="2.0613792">
        <ele>155.0</ele>
        <time>2022-05-19T09:01:12Z</time>
      </trkpt>
      <trkpt lat="47.516712" lon="2.0613637">
        <ele>155.0</ele>
        <time>2022-05-19T09:01:13Z</time>
      </trkpt>
      <trkpt lat="47.516724" lon="2.0613506">
        <ele>155.0</ele>
        <time>2022-05-19T09:01:14Z</time>
      </trkpt>
      <trkpt lat="47.51673" lon="2.0613353">
        <ele>155.0</ele>
        <time>2022-05-19T09:01:15Z</time>
      </trkpt>
      <trkpt lat="47.51674" lon="2.0613186">
        <ele>155.0</ele>
        <time>2022-05-19T09:01:16Z</time>
      </trkpt>
      <trkpt lat="47.516743" lon="2.0613012">
        <ele>155.0</ele>
        <time>2022-05-19T09:01:17Z</time>
      </trkpt>
      <trkpt lat="47.516747" lon="2.0612843">
        <ele>155.0</ele>
        <time>2022-05-19T09:01:18Z</time>
      </trkpt>
      <trkpt lat="47.516758" lon="2.0612683">
        <ele>155.0</ele>
        <time>2022-05-19T09:01:19Z</time>
      </trkpt>
      <trkpt lat="47.51676" lon="2.0612538">
        <ele>155.0</ele>
        <time>2022-05-19T09:01:20Z</time>
      </trkpt>
      <trkpt lat="47.51677" lon="2.0612426">
        <ele>155.0</ele>
        <time>2022-05-19T09:01:21Z</time>
      </trkpt>
      <trkpt lat="47.516777" lon="2.0612266">
        <ele>155.0</ele>
        <time>2022-05-19T09:01:22Z</time>
      </trkpt>
      <trkpt lat="47.516792" lon="2.0612168">
        <ele>156.0</ele>
        <time>2022-05-19T09:01:23Z</time>
      </trkpt>
      <trkpt lat="47.516804" lon="2.0612056">
        <ele>156.0</ele>
        <time>2022-05-19T09:01:24Z</time>
      </trkpt>
      <trkpt lat="47.516815" lon="2.0611973">
        <ele>156.0</ele>
        <time>2022-05-19T09:01:25Z</time>
      </trkpt>
      <trkpt lat="47.516823" lon="2.0611918">
        <ele>156.0</ele>
        <time>2022-05-19T09:01:26Z</time>
      </trkpt>
      <trkpt lat="47.516827" lon="2.061187">
        <ele>156.0</ele>
        <time>2022-05-19T09:01:27Z</time>
      </trkpt>
      <trkpt lat="47.516827" lon="2.061187">
        <ele>156.0</ele>
        <time>2022-05-19T09:01:28Z</time>
      </trkpt>
      <trkpt lat="47.516834" lon="2.0611577">
        <ele>157.0</ele>
        <time>2022-05-19T09:01:29Z</time>
      </trkpt>
      <trkpt lat="47.516846" lon="2.0611467">
        <ele>157.0</ele>
        <time>2022-05-19T09:01:30Z</time>
      </trkpt>
      <trkpt lat="47.516853" lon="2.0611393">
        <ele>157.0</ele>
        <time>2022-05-19T09:01:31Z</time>
      </trkpt>
      <trkpt lat="47.51687" lon="2.0611277">
        <ele>157.0</ele>
        <time>2022-05-19T09:01:32Z</time>
      </trkpt>
      <trkpt lat="47.51688" lon="2.0611162">
        <ele>157.0</ele>
        <time>2022-05-19T09:01:33Z</time>
      </trkpt>
      <trkpt lat="47.516888" lon="2.0611002">
        <ele>157.0</ele>
        <time>2022-05-19T09:01:34Z</time>
      </trkpt>
      <trkpt lat="47.516895" lon="2.0610878">
        <ele>158.0</ele>
        <time>2022-05-19T09:01:35Z</time>
      </trkpt>
      <trkpt lat="47.516907" lon="2.0610723">
        <ele>157.0</ele>
        <time>2022-05-19T09:01:37Z</time>
      </trkpt>
      <trkpt lat="47.51692" lon="2.0610538">
        <ele>157.0</ele>
        <time>2022-05-19T09:01:38Z</time>
      </trkpt>
      <trkpt lat="47.516926" lon="2.0610373">
        <ele>158.0</ele>
        <time>2022-05-19T09:01:39Z</time>
      </trkpt>
      <trkpt lat="47.516933" lon="2.0610282">
        <ele>158.0</ele>
        <time>2022-05-19T09:01:40Z</time>
      </trkpt>
      <trkpt lat="47.51694" lon="2.06102">
        <ele>158.0</ele>
        <time>2022-05-19T09:01:41Z</time>
      </trkpt>
      <trkpt lat="47.516956" lon="2.0610106">
        <ele>158.0</ele>
        <time>2022-05-19T09:01:42Z</time>
      </trkpt>
      <trkpt lat="47.516968" lon="2.0609999">
        <ele>158.0</ele>
        <time>2022-05-19T09:01:43Z</time>
      </trkpt>
      <trkpt lat="47.516983" lon="2.0609894">
        <ele>158.0</ele>
        <time>2022-05-19T09:01:44Z</time>
      </trkpt>
      <trkpt lat="47.516994" lon="2.0609753">
        <ele>158.0</ele>
        <time>2022-05-19T09:01:45Z</time>
      </trkpt>
      <trkpt lat="47.51701" lon="2.0609622">
        <ele>159.0</ele>
        <time>2022-05-19T09:01:46Z</time>
      </trkpt>
      <trkpt lat="47.51702" lon="2.0609512">
        <ele>159.0</ele>
        <time>2022-05-19T09:01:47Z</time>
      </trkpt>
      <trkpt lat="47.517033" lon="2.060939">
        <ele>159.0</ele>
        <time>2022-05-19T09:01:48Z</time>
      </trkpt>
      <trkpt lat="47.517044" lon="2.060924">
        <ele>159.0</ele>
        <time>2022-05-19T09:01:49Z</time>
      </trkpt>
      <trkpt lat="47.517056" lon="2.0609062">
        <ele>160.0</ele>
        <time>2022-05-19T09:01:50Z</time>
      </trkpt>
      <trkpt lat="47.517067" lon="2.0608933">
        <ele>159.0</ele>
        <time>2022-05-19T09:01:51Z</time>
      </trkpt>
      <trkpt lat="47.517075" lon="2.0608807">
        <ele>159.0</ele>
        <time>2022-05-19T09:01:52Z</time>
      </trkpt>
      <trkpt lat="47.517082" lon="2.0608716">
        <ele>159.0</ele>
        <time>2022-05-19T09:01:53Z</time>
      </trkpt>
      <trkpt lat="47.517094" lon="2.0608633">
        <ele>159.0</ele>
        <time>2022-05-19T09:01:54Z</time>
      </trkpt>
      <trkpt lat="47.517105" lon="2.0608485">
        <ele>160.0</ele>
        <time>2022-05-19T09:01:55Z</time>
      </trkpt>
      <trkpt lat="47.517117" lon="2.0608356">
        <ele>160.0</ele>
        <time>2022-05-19T09:01:56Z</time>
      </trkpt>
      <trkpt lat="47.517128" lon="2.0608227">
        <ele>160.0</ele>
        <time>2022-05-19T09:01:57Z</time>
      </trkpt>
      <trkpt lat="47.517136" lon="2.0608127">
        <ele>160.0</ele>
        <time>2022-05-19T09:01:58Z</time>
      </trkpt>
      <trkpt lat="47.517147" lon="2.0608022">
        <ele>160.0</ele>
        <time>2022-05-19T09:01:59Z</time>
      </trkpt>
      <trkpt lat="47.517162" lon="2.0607903">
        <ele>160.0</ele>
        <time>2022-05-19T09:02:00Z</time>
      </trkpt>
      <trkpt lat="47.517174" lon="2.060776">
        <ele>161.0</ele>
        <time>2022-05-19T09:02:01Z</time>
      </trkpt>
      <trkpt lat="47.517185" lon="2.0607688">
        <ele>161.0</ele>
        <time>2022-05-19T09:02:02Z</time>
      </trkpt>
      <trkpt lat="47.517197" lon="2.0607498">
        <ele>161.0</ele>
        <time>2022-05-19T09:02:03Z</time>
      </trkpt>
      <trkpt lat="47.517212" lon="2.060734">
        <ele>161.0</ele>
        <time>2022-05-19T09:02:04Z</time>
      </trkpt>
      <trkpt lat="47.517227" lon="2.0607197">
        <ele>161.0</ele>
        <time>2022-05-19T09:02:05Z</time>
      </trkpt>
      <trkpt lat="47.517242" lon="2.0607092">
        <ele>162.0</ele>
        <time>2022-05-19T09:02:06Z</time>
      </trkpt>
      <trkpt lat="47.517254" lon="2.0606987">
        <ele>162.0</ele>
        <time>2022-05-19T09:02:07Z</time>
      </trkpt>
      <trkpt lat="47.51726" lon="2.060685">
        <ele>162.0</ele>
        <time>2022-05-19T09:02:08Z</time>
      </trkpt>
      <trkpt lat="47.51727" lon="2.0606625">
        <ele>162.0</ele>
        <time>2022-05-19T09:02:09Z</time>
      </trkpt>
      <trkpt lat="47.517277" lon="2.0606472">
        <ele>162.0</ele>
        <time>2022-05-19T09:02:10Z</time>
      </trkpt>
      <trkpt lat="47.517284" lon="2.0606368">
        <ele>162.0</ele>
        <time>2022-05-19T09:02:11Z</time>
      </trkpt>
      <trkpt lat="47.517292" lon="2.0606306">
        <ele>162.0</ele>
        <time>2022-05-19T09:02:12Z</time>
      </trkpt>
      <trkpt lat="47.517303" lon="2.0606234">
        <ele>163.0</ele>
        <time>2022-05-19T09:02:13Z</time>
      </trkpt>
      <trkpt lat="47.517307" lon="2.060613">
        <ele>163.0</ele>
        <time>2022-05-19T09:02:14Z</time>
      </trkpt>
      <trkpt lat="47.517315" lon="2.0605962">
        <ele>162.0</ele>
        <time>2022-05-19T09:02:15Z</time>
      </trkpt>
      <trkpt lat="47.517323" lon="2.0605814">
        <ele>162.0</ele>
        <time>2022-05-19T09:02:16Z</time>
      </trkpt>
      <trkpt lat="47.51733" lon="2.060564">
        <ele>162.0</ele>
        <time>2022-05-19T09:02:17Z</time>
      </trkpt>
      <trkpt lat="47.51733" lon="2.0605464">
        <ele>162.0</ele>
        <time>2022-05-19T09:02:18Z</time>
      </trkpt>
      <trkpt lat="47.517334" lon="2.0605354">
        <ele>162.0</ele>
        <time>2022-05-19T09:02:19Z</time>
      </trkpt>
      <trkpt lat="47.51734" lon="2.060526">
        <ele>162.0</ele>
        <time>2022-05-19T09:02:20Z</time>
      </trkpt>
      <trkpt lat="47.517353" lon="2.0605078">
        <ele>162.0</ele>
        <time>2022-05-19T09:02:21Z</time>
      </trkpt>
      <trkpt lat="47.51736" lon="2.0604897">
        <ele>162.0</ele>
        <time>2022-05-19T09:02:22Z</time>
      </trkpt>
      <trkpt lat="47.51737" lon="2.0604765">
        <ele>162.0</ele>
        <time>2022-05-19T09:02:23Z</time>
      </trkpt>
      <trkpt lat="47.517384" lon="2.0604672">
        <ele>163.0</ele>
        <time>2022-05-19T09:02:24Z</time>
      </trkpt>
      <trkpt lat="47.517395" lon="2.0604575">
        <ele>162.0</ele>
        <time>2022-05-19T09:02:25Z</time>
      </trkpt>
      <trkpt lat="47.517406" lon="2.0604494">
        <ele>162.0</ele>
        <time>2022-05-19T09:02:26Z</time>
      </trkpt>
      <trkpt lat="47.517418" lon="2.0604417">
        <ele>162.0</ele>
        <time>2022-05-19T09:02:27Z</time>
      </trkpt>
      <trkpt lat="47.51743" lon="2.06043">
        <ele>162.0</ele>
        <time>2022-05-19T09:02:28Z</time>
      </trkpt>
      <trkpt lat="47.51744" lon="2.060418">
        <ele>162.0</ele>
        <time>2022-05-19T09:02:29Z</time>
      </trkpt>
      <trkpt lat="47.51745" lon="2.060401">
        <ele>162.0</ele>
        <time>2022-05-19T09:02:30Z</time>
      </trkpt>
      <trkpt lat="47.51746" lon="2.0603917">
        <ele>163.0</ele>
        <time>2022-05-19T09:02:31Z</time>
      </trkpt>
      <trkpt lat="47.517467" lon="2.06038">
        <ele>162.0</ele>
        <time>2022-05-19T09:02:32Z</time>
      </trkpt>
      <trkpt lat="47.517475" lon="2.0603766">
        <ele>163.0</ele>
        <time>2022-05-19T09:02:33Z</time>
      </trkpt>
      <trkpt lat="47.51749" lon="2.0603657">
        <ele>163.0</ele>
        <time>2022-05-19T09:02:34Z</time>
      </trkpt>
      <trkpt lat="47.5175" lon="2.0603552">
        <ele>163.0</ele>
        <time>2022-05-19T09:02:35Z</time>
      </trkpt>
      <trkpt lat="47.51751" lon="2.060351">
        <ele>163.0</ele>
        <time>2022-05-19T09:02:36Z</time>
      </trkpt>
      <trkpt lat="47.51752" lon="2.0603452">
        <ele>163.0</ele>
        <time>2022-05-19T09:02:37Z</time>
      </trkpt>
      <trkpt lat="47.517532" lon="2.0603335">
        <ele>163.0</ele>
        <time>2022-05-19T09:02:38Z</time>
      </trkpt>
      <trkpt lat="47.517544" lon="2.0603223">
        <ele>163.0</ele>
        <time>2022-05-19T09:02:39Z</time>
      </trkpt>
      <trkpt lat="47.51756" lon="2.0603123">
        <ele>163.0</ele>
        <time>2022-05-19T09:02:40Z</time>
      </trkpt>
      <trkpt lat="47.51757" lon="2.060301">
        <ele>163.0</ele>
        <time>2022-05-19T09:02:41Z</time>
      </trkpt>
      <trkpt lat="47.517582" lon="2.0602913">
        <ele>164.0</ele>
        <time>2022-05-19T09:02:42Z</time>
      </trkpt>
      <trkpt lat="47.5176" lon="2.0602846">
        <ele>164.0</ele>
        <time>2022-05-19T09:02:43Z</time>
      </trkpt>
      <trkpt lat="47.517612" lon="2.060276">
        <ele>164.0</ele>
        <time>2022-05-19T09:02:44Z</time>
      </trkpt>
      <trkpt lat="47.51762" lon="2.0602732">
        <ele>164.0</ele>
        <time>2022-05-19T09:02:45Z</time>
      </trkpt>
      <trkpt lat="47.51764" lon="2.0602686">
        <ele>164.0</ele>
        <time>2022-05-19T09:02:46Z</time>
      </trkpt>
      <trkpt lat="47.51765" lon="2.0602558">
        <ele>165.0</ele>
        <time>2022-05-19T09:02:47Z</time>
      </trkpt>
      <trkpt lat="47.517662" lon="2.0602481">
        <ele>165.0</ele>
        <time>2022-05-19T09:02:48Z</time>
      </trkpt>
      <trkpt lat="47.517673" lon="2.06024">
        <ele>165.0</ele>
        <time>2022-05-19T09:02:49Z</time>
      </trkpt>
      <trkpt lat="47.517685" lon="2.0602279">
        <ele>165.0</ele>
        <time>2022-05-19T09:02:50Z</time>
      </trkpt>
      <trkpt lat="47.517693" lon="2.0602214">
        <ele>166.0</ele>
        <time>2022-05-19T09:02:51Z</time>
      </trkpt>
      <trkpt lat="47.517704" lon="2.0602124">
        <ele>166.0</ele>
        <time>2022-05-19T09:02:52Z</time>
      </trkpt>
      <trkpt lat="47.51771" lon="2.0602007">
        <ele>167.0</ele>
        <time>2022-05-19T09:02:53Z</time>
      </trkpt>
      <trkpt lat="47.517723" lon="2.0601885">
        <ele>167.0</ele>
        <time>2022-05-19T09:02:54Z</time>
      </trkpt>
      <trkpt lat="47.51773" lon="2.0601742">
        <ele>167.0</ele>
        <time>2022-05-19T09:02:55Z</time>
      </trkpt>
      <trkpt lat="47.51774" lon="2.0601583">
        <ele>166.0</ele>
        <time>2022-05-19T09:02:56Z</time>
      </trkpt>
      <trkpt lat="47.51775" lon="2.06014">
        <ele>166.0</ele>
        <time>2022-05-19T09:02:57Z</time>
      </trkpt>
      <trkpt lat="47.51776" lon="2.0601275">
        <ele>166.0</ele>
        <time>2022-05-19T09:02:58Z</time>
      </trkpt>
      <trkpt lat="47.517776" lon="2.0601225">
        <ele>166.0</ele>
        <time>2022-05-19T09:02:59Z</time>
      </trkpt>
      <trkpt lat="47.517776" lon="2.0601008">
        <ele>165.0</ele>
        <time>2022-05-19T09:03:00Z</time>
      </trkpt>
      <trkpt lat="47.517784" lon="2.0600848">
        <ele>165.0</ele>
        <time>2022-05-19T09:03:01Z</time>
      </trkpt>
      <trkpt lat="47.51779" lon="2.0600731">
        <ele>164.0</ele>
        <time>2022-05-19T09:03:02Z</time>
      </trkpt>
      <trkpt lat="47.5178" lon="2.0600567">
        <ele>164.0</ele>
        <time>2022-05-19T09:03:03Z</time>
      </trkpt>
      <trkpt lat="47.517807" lon="2.0600374">
        <ele>165.0</ele>
        <time>2022-05-19T09:03:04Z</time>
      </trkpt>
      <trkpt lat="47.51782" lon="2.0600262">
        <ele>165.0</ele>
        <time>2022-05-19T09:03:05Z</time>
      </trkpt>
      <trkpt lat="47.51783" lon="2.060013">
        <ele>166.0</ele>
        <time>2022-05-19T09:03:06Z</time>
      </trkpt>
      <trkpt lat="47.517834" lon="2.059999">
        <ele>166.0</ele>
        <time>2022-05-19T09:03:07Z</time>
      </trkpt>
      <trkpt lat="47.51784" lon="2.0599833">
        <ele>166.0</ele>
        <time>2022-05-19T09:03:08Z</time>
      </trkpt>
      <trkpt lat="47.517853" lon="2.0599716">
        <ele>166.0</ele>
        <time>2022-05-19T09:03:09Z</time>
      </trkpt>
      <trkpt lat="47.517864" lon="2.059963">
        <ele>166.0</ele>
        <time>2022-05-19T09:03:10Z</time>
      </trkpt>
      <trkpt lat="47.51788" lon="2.0599582">
        <ele>167.0</ele>
        <time>2022-05-19T09:03:11Z</time>
      </trkpt>
      <trkpt lat="47.517887" lon="2.0599484">
        <ele>167.0</ele>
        <time>2022-05-19T09:03:12Z</time>
      </trkpt>
      <trkpt lat="47.517895" lon="2.0599294">
        <ele>168.0</ele>
        <time>2022-05-19T09:03:13Z</time>
      </trkpt>
      <trkpt lat="47.517902" lon="2.0599158">
        <ele>167.0</ele>
        <time>2022-05-19T09:03:14Z</time>
      </trkpt>
      <trkpt lat="47.517914" lon="2.0599067">
        <ele>168.0</ele>
        <time>2022-05-19T09:03:15Z</time>
      </trkpt>
      <trkpt lat="47.51792" lon="2.0599031">
        <ele>168.0</ele>
        <time>2022-05-19T09:03:16Z</time>
      </trkpt>
      <trkpt lat="47.517933" lon="2.05989">
        <ele>168.0</ele>
        <time>2022-05-19T09:03:17Z</time>
      </trkpt>
      <trkpt lat="47.51794" lon="2.0598807">
        <ele>169.0</ele>
        <time>2022-05-19T09:03:18Z</time>
      </trkpt>
      <trkpt lat="47.51795" lon="2.0598693">
        <ele>169.0</ele>
        <time>2022-05-19T09:03:19Z</time>
      </trkpt>
      <trkpt lat="47.517956" lon="2.0598547">
        <ele>169.0</ele>
        <time>2022-05-19T09:03:20Z</time>
      </trkpt>
      <trkpt lat="47.517967" lon="2.0598457">
        <ele>169.0</ele>
        <time>2022-05-19T09:03:21Z</time>
      </trkpt>
      <trkpt lat="47.51797" lon="2.0598276">
        <ele>170.0</ele>
        <time>2022-05-19T09:03:22Z</time>
      </trkpt>
      <trkpt lat="47.517982" lon="2.059812">
        <ele>170.0</ele>
        <time>2022-05-19T09:03:23Z</time>
      </trkpt>
      <trkpt lat="47.517986" lon="2.0597956">
        <ele>171.0</ele>
        <time>2022-05-19T09:03:24Z</time>
      </trkpt>
      <trkpt lat="47.517998" lon="2.0597863">
        <ele>171.0</ele>
        <time>2022-05-19T09:03:25Z</time>
      </trkpt>
      <trkpt lat="47.518005" lon="2.0597742">
        <ele>171.0</ele>
        <time>2022-05-19T09:03:26Z</time>
      </trkpt>
      <trkpt lat="47.518013" lon="2.0597646">
        <ele>171.0</ele>
        <time>2022-05-19T09:03:27Z</time>
      </trkpt>
      <trkpt lat="47.51802" lon="2.0597544">
        <ele>172.0</ele>
        <time>2022-05-19T09:03:28Z</time>
      </trkpt>
      <trkpt lat="47.518032" lon="2.0597456">
        <ele>172.0</ele>
        <time>2022-05-19T09:03:29Z</time>
      </trkpt>
      <trkpt lat="47.51804" lon="2.059735">
        <ele>173.0</ele>
        <time>2022-05-19T09:03:30Z</time>
      </trkpt>
      <trkpt lat="47.518047" lon="2.059726">
        <ele>173.0</ele>
        <time>2022-05-19T09:03:31Z</time>
      </trkpt>
      <trkpt lat="47.518055" lon="2.0597122">
        <ele>174.0</ele>
        <time>2022-05-19T09:03:32Z</time>
      </trkpt>
      <trkpt lat="47.518066" lon="2.0596993">
        <ele>174.0</ele>
        <time>2022-05-19T09:03:33Z</time>
      </trkpt>
      <trkpt lat="47.518078" lon="2.0596895">
        <ele>174.0</ele>
        <time>2022-05-19T09:03:34Z</time>
      </trkpt>
      <trkpt lat="47.518085" lon="2.0596833">
        <ele>174.0</ele>
        <time>2022-05-19T09:03:35Z</time>
      </trkpt>
      <trkpt lat="47.518097" lon="2.059671">
        <ele>174.0</ele>
        <time>2022-05-19T09:03:36Z</time>
      </trkpt>
      <trkpt lat="47.518105" lon="2.0596607">
        <ele>174.0</ele>
        <time>2022-05-19T09:03:37Z</time>
      </trkpt>
      <trkpt lat="47.518112" lon="2.0596473">
        <ele>174.0</ele>
        <time>2022-05-19T09:03:38Z</time>
      </trkpt>
      <trkpt lat="47.51812" lon="2.05963">
        <ele>174.0</ele>
        <time>2022-05-19T09:03:39Z</time>
      </trkpt>
      <trkpt lat="47.51813" lon="2.0596137">
        <ele>175.0</ele>
        <time>2022-05-19T09:03:40Z</time>
      </trkpt>
      <trkpt lat="47.51814" lon="2.0596008">
        <ele>175.0</ele>
        <time>2022-05-19T09:03:41Z</time>
      </trkpt>
      <trkpt lat="47.51815" lon="2.059589">
        <ele>175.0</ele>
        <time>2022-05-19T09:03:42Z</time>
      </trkpt>
      <trkpt lat="47.51816" lon="2.0595737">
        <ele>175.0</ele>
        <time>2022-05-19T09:03:43Z</time>
      </trkpt>
      <trkpt lat="47.518166" lon="2.0595553">
        <ele>175.0</ele>
        <time>2022-05-19T09:03:44Z</time>
      </trkpt>
      <trkpt lat="47.518173" lon="2.0595353">
        <ele>175.0</ele>
        <time>2022-05-19T09:03:45Z</time>
      </trkpt>
      <trkpt lat="47.51818" lon="2.0595264">
        <ele>175.0</ele>
        <time>2022-05-19T09:03:46Z</time>
      </trkpt>
      <trkpt lat="47.518185" lon="2.059513">
        <ele>175.0</ele>
        <time>2022-05-19T09:03:47Z</time>
      </trkpt>
      <trkpt lat="47.518196" lon="2.0595">
        <ele>175.0</ele>
        <time>2022-05-19T09:03:48Z</time>
      </trkpt>
      <trkpt lat="47.518204" lon="2.059481">
        <ele>175.0</ele>
        <time>2022-05-19T09:03:49Z</time>
      </trkpt>
      <trkpt lat="47.518215" lon="2.0594697">
        <ele>175.0</ele>
        <time>2022-05-19T09:03:50Z</time>
      </trkpt>
      <trkpt lat="47.518223" lon="2.0594525">
        <ele>175.0</ele>
        <time>2022-05-19T09:03:51Z</time>
      </trkpt>
      <trkpt lat="47.51823" lon="2.0594416">
        <ele>175.0</ele>
        <time>2022-05-19T09:03:52Z</time>
      </trkpt>
      <trkpt lat="47.51824" lon="2.0594332">
        <ele>175.0</ele>
        <time>2022-05-19T09:03:53Z</time>
      </trkpt>
      <trkpt lat="47.518257" lon="2.0594232">
        <ele>175.0</ele>
        <time>2022-05-19T09:03:54Z</time>
      </trkpt>
      <trkpt lat="47.518265" lon="2.059417">
        <ele>175.0</ele>
        <time>2022-05-19T09:03:55Z</time>
      </trkpt>
      <trkpt lat="47.51828" lon="2.0594072">
        <ele>175.0</ele>
        <time>2022-05-19T09:03:56Z</time>
      </trkpt>
      <trkpt lat="47.518288" lon="2.0593975">
        <ele>175.0</ele>
        <time>2022-05-19T09:03:57Z</time>
      </trkpt>
      <trkpt lat="47.518295" lon="2.0593884">
        <ele>175.0</ele>
        <time>2022-05-19T09:03:58Z</time>
      </trkpt>
      <trkpt lat="47.518307" lon="2.0593712">
        <ele>176.0</ele>
        <time>2022-05-19T09:03:59Z</time>
      </trkpt>
      <trkpt lat="47.518314" lon="2.0593524">
        <ele>176.0</ele>
        <time>2022-05-19T09:04:00Z</time>
      </trkpt>
      <trkpt lat="47.51832" lon="2.0593352">
        <ele>177.0</ele>
        <time>2022-05-19T09:04:01Z</time>
      </trkpt>
      <trkpt lat="47.518326" lon="2.0593095">
        <ele>177.0</ele>
        <time>2022-05-19T09:04:02Z</time>
      </trkpt>
      <trkpt lat="47.518337" lon="2.0592947">
        <ele>177.0</ele>
        <time>2022-05-19T09:04:03Z</time>
      </trkpt>
      <trkpt lat="47.518345" lon="2.0592735">
        <ele>177.0</ele>
        <time>2022-05-19T09:04:04Z</time>
      </trkpt>
      <trkpt lat="47.518353" lon="2.0592573">
        <ele>177.0</ele>
        <time>2022-05-19T09:04:05Z</time>
      </trkpt>
      <trkpt lat="47.51836" lon="2.0592487">
        <ele>177.0</ele>
        <time>2022-05-19T09:04:06Z</time>
      </trkpt>
      <trkpt lat="47.518364" lon="2.0592453">
        <ele>177.0</ele>
        <time>2022-05-19T09:04:07Z</time>
      </trkpt>
      <trkpt lat="47.51838" lon="2.0592406">
        <ele>176.0</ele>
        <time>2022-05-19T09:04:08Z</time>
      </trkpt>
      <trkpt lat="47.5184" lon="2.0592403">
        <ele>176.0</ele>
        <time>2022-05-19T09:04:09Z</time>
      </trkpt>
      <trkpt lat="47.51842" lon="2.0592434">
        <ele>176.0</ele>
        <time>2022-05-19T09:04:10Z</time>
      </trkpt>
      <trkpt lat="47.51844" lon="2.0592475">
        <ele>176.0</ele>
        <time>2022-05-19T09:04:11Z</time>
      </trkpt>
      <trkpt lat="47.51845" lon="2.0592496">
        <ele>176.0</ele>
        <time>2022-05-19T09:04:12Z</time>
      </trkpt>
      <trkpt lat="47.518456" lon="2.0592425">
        <ele>175.0</ele>
        <time>2022-05-19T09:04:13Z</time>
      </trkpt>
      <trkpt lat="47.51846" lon="2.059229">
        <ele>175.0</ele>
        <time>2022-05-19T09:04:14Z</time>
      </trkpt>
      <trkpt lat="47.518467" lon="2.0592115">
        <ele>175.0</ele>
        <time>2022-05-19T09:04:15Z</time>
      </trkpt>
      <trkpt lat="47.51848" lon="2.059192">
        <ele>175.0</ele>
        <time>2022-05-19T09:04:16Z</time>
      </trkpt>
      <trkpt lat="47.518486" lon="2.0591705">
        <ele>175.0</ele>
        <time>2022-05-19T09:04:17Z</time>
      </trkpt>
      <trkpt lat="47.518497" lon="2.059157">
        <ele>175.0</ele>
        <time>2022-05-19T09:04:18Z</time>
      </trkpt>
      <trkpt lat="47.518505" lon="2.059146">
        <ele>175.0</ele>
        <time>2022-05-19T09:04:19Z</time>
      </trkpt>
      <trkpt lat="47.518513" lon="2.0591385">
        <ele>174.0</ele>
        <time>2022-05-19T09:04:20Z</time>
      </trkpt>
      <trkpt lat="47.518524" lon="2.059133">
        <ele>174.0</ele>
        <time>2022-05-19T09:04:21Z</time>
      </trkpt>
      <trkpt lat="47.51853" lon="2.059127">
        <ele>174.0</ele>
        <time>2022-05-19T09:04:22Z</time>
      </trkpt>
      <trkpt lat="47.51854" lon="2.05912">
        <ele>174.0</ele>
        <time>2022-05-19T09:04:23Z</time>
      </trkpt>
      <trkpt lat="47.518547" lon="2.059113">
        <ele>173.0</ele>
        <time>2022-05-19T09:04:24Z</time>
      </trkpt>
      <trkpt lat="47.51856" lon="2.05911">
        <ele>173.0</ele>
        <time>2022-05-19T09:04:25Z</time>
      </trkpt>
      <trkpt lat="47.51857" lon="2.0591004">
        <ele>173.0</ele>
        <time>2022-05-19T09:04:26Z</time>
      </trkpt>
      <trkpt lat="47.518578" lon="2.05909">
        <ele>174.0</ele>
        <time>2022-05-19T09:04:27Z</time>
      </trkpt>
      <trkpt lat="47.51859" lon="2.0590808">
        <ele>174.0</ele>
        <time>2022-05-19T09:04:28Z</time>
      </trkpt>
      <trkpt lat="47.518597" lon="2.0590703">
        <ele>173.0</ele>
        <time>2022-05-19T09:04:29Z</time>
      </trkpt>
      <trkpt lat="47.518604" lon="2.0590615">
        <ele>173.0</ele>
        <time>2022-05-19T09:04:30Z</time>
      </trkpt>
      <trkpt lat="47.518612" lon="2.0590482">
        <ele>173.0</ele>
        <time>2022-05-19T09:04:31Z</time>
      </trkpt>
      <trkpt lat="47.518623" lon="2.0590415">
        <ele>172.0</ele>
        <time>2022-05-19T09:04:32Z</time>
      </trkpt>
      <trkpt lat="47.51863" lon="2.0590293">
        <ele>173.0</ele>
        <time>2022-05-19T09:04:33Z</time>
      </trkpt>
      <trkpt lat="47.518642" lon="2.059012">
        <ele>173.0</ele>
        <time>2022-05-19T09:04:34Z</time>
      </trkpt>
      <trkpt lat="47.518646" lon="2.059004">
        <ele>173.0</ele>
        <time>2022-05-19T09:04:35Z</time>
      </trkpt>
      <trkpt lat="47.51865" lon="2.058995">
        <ele>173.0</ele>
        <time>2022-05-19T09:04:36Z</time>
      </trkpt>
      <trkpt lat="47.51866" lon="2.0589817">
        <ele>173.0</ele>
        <time>2022-05-19T09:04:37Z</time>
      </trkpt>
      <trkpt lat="47.51867" lon="2.0589721">
        <ele>172.0</ele>
        <time>2022-05-19T09:04:38Z</time>
      </trkpt>
      <trkpt lat="47.51868" lon="2.058956">
        <ele>172.0</ele>
        <time>2022-05-19T09:04:39Z</time>
      </trkpt>
      <trkpt lat="47.51869" lon="2.0589418">
        <ele>171.0</ele>
        <time>2022-05-19T09:04:40Z</time>
      </trkpt>
      <trkpt lat="47.518696" lon="2.0589309">
        <ele>171.0</ele>
        <time>2022-05-19T09:04:41Z</time>
      </trkpt>
      <trkpt lat="47.518707" lon="2.058918">
        <ele>171.0</ele>
        <time>2022-05-19T09:04:42Z</time>
      </trkpt>
      <trkpt lat="47.51872" lon="2.0589051">
        <ele>171.0</ele>
        <time>2022-05-19T09:04:43Z</time>
      </trkpt>
      <trkpt lat="47.518726" lon="2.0588856">
        <ele>171.0</ele>
        <time>2022-05-19T09:04:44Z</time>
      </trkpt>
      <trkpt lat="47.518738" lon="2.0588727">
        <ele>171.0</ele>
        <time>2022-05-19T09:04:45Z</time>
      </trkpt>
      <trkpt lat="47.51874" lon="2.0588577">
        <ele>171.0</ele>
        <time>2022-05-19T09:04:46Z</time>
      </trkpt>
      <trkpt lat="47.518757" lon="2.0588498">
        <ele>170.0</ele>
        <time>2022-05-19T09:04:47Z</time>
      </trkpt>
      <trkpt lat="47.51877" lon="2.0588424">
        <ele>170.0</ele>
        <time>2022-05-19T09:04:48Z</time>
      </trkpt>
      <trkpt lat="47.51878" lon="2.0588336">
        <ele>169.0</ele>
        <time>2022-05-19T09:04:49Z</time>
      </trkpt>
      <trkpt lat="47.518795" lon="2.058826">
        <ele>169.0</ele>
        <time>2022-05-19T09:04:50Z</time>
      </trkpt>
      <trkpt lat="47.51881" lon="2.0588176">
        <ele>169.0</ele>
        <time>2022-05-19T09:04:51Z</time>
      </trkpt>
      <trkpt lat="47.51882" lon="2.0588038">
        <ele>170.0</ele>
        <time>2022-05-19T09:04:52Z</time>
      </trkpt>
      <trkpt lat="47.51883" lon="2.0587935">
        <ele>170.0</ele>
        <time>2022-05-19T09:04:53Z</time>
      </trkpt>
      <trkpt lat="47.51884" lon="2.058776">
        <ele>171.0</ele>
        <time>2022-05-19T09:04:54Z</time>
      </trkpt>
      <trkpt lat="47.51885" lon="2.0587592">
        <ele>172.0</ele>
        <time>2022-05-19T09:04:55Z</time>
      </trkpt>
      <trkpt lat="47.518856" lon="2.0587401">
        <ele>172.0</ele>
        <time>2022-05-19T09:04:56Z</time>
      </trkpt>
      <trkpt lat="47.518864" lon="2.0587242">
        <ele>172.0</ele>
        <time>2022-05-19T09:04:57Z</time>
      </trkpt>
      <trkpt lat="47.51887" lon="2.0587077">
        <ele>172.0</ele>
        <time>2022-05-19T09:04:58Z</time>
      </trkpt>
      <trkpt lat="47.51888" lon="2.0586874">
        <ele>173.0</ele>
        <time>2022-05-19T09:04:59Z</time>
      </trkpt>
      <trkpt lat="47.518887" lon="2.058666">
        <ele>173.0</ele>
        <time>2022-05-19T09:05:00Z</time>
      </trkpt>
      <trkpt lat="47.518894" lon="2.0586498">
        <ele>173.0</ele>
        <time>2022-05-19T09:05:01Z</time>
      </trkpt>
      <trkpt lat="47.518906" lon="2.0586362">
        <ele>173.0</ele>
        <time>2022-05-19T09:05:02Z</time>
      </trkpt>
      <trkpt lat="47.518913" lon="2.058615">
        <ele>174.0</ele>
        <time>2022-05-19T09:05:03Z</time>
      </trkpt>
      <trkpt lat="47.518925" lon="2.0586016">
        <ele>174.0</ele>
        <time>2022-05-19T09:05:04Z</time>
      </trkpt>
      <trkpt lat="47.518936" lon="2.0585938">
        <ele>174.0</ele>
        <time>2022-05-19T09:05:05Z</time>
      </trkpt>
      <trkpt lat="47.518948" lon="2.058585">
        <ele>174.0</ele>
        <time>2022-05-19T09:05:06Z</time>
      </trkpt>
      <trkpt lat="47.51896" lon="2.058573">
        <ele>174.0</ele>
        <time>2022-05-19T09:05:07Z</time>
      </trkpt>
      <trkpt lat="47.51897" lon="2.0585644">
        <ele>174.0</ele>
        <time>2022-05-19T09:05:08Z</time>
      </trkpt>
      <trkpt lat="47.518982" lon="2.0585525">
        <ele>174.0</ele>
        <time>2022-05-19T09:05:09Z</time>
      </trkpt>
      <trkpt lat="47.51899" lon="2.058544">
        <ele>174.0</ele>
        <time>2022-05-19T09:05:10Z</time>
      </trkpt>
      <trkpt lat="47.519" lon="2.0585399">
        <ele>174.0</ele>
        <time>2022-05-19T09:05:11Z</time>
      </trkpt>
      <trkpt lat="47.51901" lon="2.0585365">
        <ele>174.0</ele>
        <time>2022-05-19T09:05:12Z</time>
      </trkpt>
      <trkpt lat="47.519016" lon="2.058527">
        <ele>174.0</ele>
        <time>2022-05-19T09:05:13Z</time>
      </trkpt>
      <trkpt lat="47.519028" lon="2.0585148">
        <ele>174.0</ele>
        <time>2022-05-19T09:05:14Z</time>
      </trkpt>
      <trkpt lat="47.51904" lon="2.0585017">
        <ele>174.0</ele>
        <time>2022-05-19T09:05:15Z</time>
      </trkpt>
      <trkpt lat="47.519047" lon="2.058494">
        <ele>174.0</ele>
        <time>2022-05-19T09:05:16Z</time>
      </trkpt>
      <trkpt lat="47.51906" lon="2.0584817">
        <ele>173.0</ele>
        <time>2022-05-19T09:05:17Z</time>
      </trkpt>
      <trkpt lat="47.519066" lon="2.0584722">
        <ele>174.0</ele>
        <time>2022-05-19T09:05:18Z</time>
      </trkpt>
      <trkpt lat="47.519073" lon="2.0584602">
        <ele>174.0</ele>
        <time>2022-05-19T09:05:19Z</time>
      </trkpt>
      <trkpt lat="47.51908" lon="2.0584493">
        <ele>174.0</ele>
        <time>2022-05-19T09:05:20Z</time>
      </trkpt>
      <trkpt lat="47.51909" lon="2.0584395">
        <ele>174.0</ele>
        <time>2022-05-19T09:05:21Z</time>
      </trkpt>
      <trkpt lat="47.5191" lon="2.0584276">
        <ele>174.0</ele>
        <time>2022-05-19T09:05:22Z</time>
      </trkpt>
      <trkpt lat="47.519108" lon="2.0584118">
        <ele>174.0</ele>
        <time>2022-05-19T09:05:23Z</time>
      </trkpt>
      <trkpt lat="47.519123" lon="2.0584002">
        <ele>174.0</ele>
        <time>2022-05-19T09:05:24Z</time>
      </trkpt>
      <trkpt lat="47.51913" lon="2.0583832">
        <ele>174.0</ele>
        <time>2022-05-19T09:05:25Z</time>
      </trkpt>
      <trkpt lat="47.51914" lon="2.0583708">
        <ele>173.0</ele>
        <time>2022-05-19T09:05:26Z</time>
      </trkpt>
      <trkpt lat="47.519154" lon="2.0583613">
        <ele>173.0</ele>
        <time>2022-05-19T09:05:27Z</time>
      </trkpt>
      <trkpt lat="47.51916" lon="2.0583518">
        <ele>173.0</ele>
        <time>2022-05-19T09:05:28Z</time>
      </trkpt>
      <trkpt lat="47.519173" lon="2.0583434">
        <ele>173.0</ele>
        <time>2022-05-19T09:05:29Z</time>
      </trkpt>
      <trkpt lat="47.519184" lon="2.0583336">
        <ele>174.0</ele>
        <time>2022-05-19T09:05:30Z</time>
      </trkpt>
      <trkpt lat="47.51919" lon="2.0583231">
        <ele>174.0</ele>
        <time>2022-05-19T09:05:31Z</time>
      </trkpt>
      <trkpt lat="47.5192" lon="2.0583081">
        <ele>174.0</ele>
        <time>2022-05-19T09:05:32Z</time>
      </trkpt>
      <trkpt lat="47.51921" lon="2.0582998">
        <ele>173.0</ele>
        <time>2022-05-19T09:05:33Z</time>
      </trkpt>
      <trkpt lat="47.51922" lon="2.0582871">
        <ele>173.0</ele>
        <time>2022-05-19T09:05:34Z</time>
      </trkpt>
      <trkpt lat="47.519226" lon="2.0582745">
        <ele>173.0</ele>
        <time>2022-05-19T09:05:35Z</time>
      </trkpt>
      <trkpt lat="47.519234" lon="2.0582623">
        <ele>173.0</ele>
        <time>2022-05-19T09:05:36Z</time>
      </trkpt>
      <trkpt lat="47.51924" lon="2.0582552">
        <ele>172.0</ele>
        <time>2022-05-19T09:05:37Z</time>
      </trkpt>
      <trkpt lat="47.51925" lon="2.0582414">
        <ele>173.0</ele>
        <time>2022-05-19T09:05:38Z</time>
      </trkpt>
      <trkpt lat="47.519257" lon="2.0582292">
        <ele>173.0</ele>
        <time>2022-05-19T09:05:39Z</time>
      </trkpt>
      <trkpt lat="47.519264" lon="2.058218">
        <ele>173.0</ele>
        <time>2022-05-19T09:05:40Z</time>
      </trkpt>
      <trkpt lat="47.51927" lon="2.058205">
        <ele>173.0</ele>
        <time>2022-05-19T09:05:41Z</time>
      </trkpt>
      <trkpt lat="47.51928" lon="2.0581925">
        <ele>173.0</ele>
        <time>2022-05-19T09:05:42Z</time>
      </trkpt>
      <trkpt lat="47.51929" lon="2.058182">
        <ele>173.0</ele>
        <time>2022-05-19T09:05:43Z</time>
      </trkpt>
      <trkpt lat="47.519302" lon="2.0581713">
        <ele>173.0</ele>
        <time>2022-05-19T09:05:44Z</time>
      </trkpt>
      <trkpt lat="47.51931" lon="2.058162">
        <ele>173.0</ele>
        <time>2022-05-19T09:05:45Z</time>
      </trkpt>
      <trkpt lat="47.519318" lon="2.058147">
        <ele>173.0</ele>
        <time>2022-05-19T09:05:46Z</time>
      </trkpt>
      <trkpt lat="47.519325" lon="2.0581317">
        <ele>173.0</ele>
        <time>2022-05-19T09:05:47Z</time>
      </trkpt>
      <trkpt lat="47.519333" lon="2.058116">
        <ele>173.0</ele>
        <time>2022-05-19T09:05:48Z</time>
      </trkpt>
      <trkpt lat="47.519337" lon="2.0580988">
        <ele>172.0</ele>
        <time>2022-05-19T09:05:49Z</time>
      </trkpt>
      <trkpt lat="47.51934" lon="2.0580835">
        <ele>171.0</ele>
        <time>2022-05-19T09:05:50Z</time>
      </trkpt>
      <trkpt lat="47.51935" lon="2.058073">
        <ele>171.0</ele>
        <time>2022-05-19T09:05:51Z</time>
      </trkpt>
      <trkpt lat="47.51936" lon="2.0580652">
        <ele>171.0</ele>
        <time>2022-05-19T09:05:52Z</time>
      </trkpt>
      <trkpt lat="47.519363" lon="2.0580559">
        <ele>171.0</ele>
        <time>2022-05-19T09:05:53Z</time>
      </trkpt>
      <trkpt lat="47.519367" lon="2.0580459">
        <ele>172.0</ele>
        <time>2022-05-19T09:05:54Z</time>
      </trkpt>
      <trkpt lat="47.519375" lon="2.058034">
        <ele>172.0</ele>
        <time>2022-05-19T09:05:55Z</time>
      </trkpt>
      <trkpt lat="47.519382" lon="2.0580208">
        <ele>172.0</ele>
        <time>2022-05-19T09:05:56Z</time>
      </trkpt>
      <trkpt lat="47.51939" lon="2.0580113">
        <ele>171.0</ele>
        <time>2022-05-19T09:05:57Z</time>
      </trkpt>
      <trkpt lat="47.519405" lon="2.058004">
        <ele>171.0</ele>
        <time>2022-05-19T09:05:58Z</time>
      </trkpt>
      <trkpt lat="47.519413" lon="2.0579915">
        <ele>171.0</ele>
        <time>2022-05-19T09:05:59Z</time>
      </trkpt>
      <trkpt lat="47.519424" lon="2.0579844">
        <ele>171.0</ele>
        <time>2022-05-19T09:06:00Z</time>
      </trkpt>
      <trkpt lat="47.51944" lon="2.057975">
        <ele>171.0</ele>
        <time>2022-05-19T09:06:01Z</time>
      </trkpt>
      <trkpt lat="47.519447" lon="2.0579653">
        <ele>171.0</ele>
        <time>2022-05-19T09:06:02Z</time>
      </trkpt>
      <trkpt lat="47.51946" lon="2.0579562">
        <ele>171.0</ele>
        <time>2022-05-19T09:06:03Z</time>
      </trkpt>
      <trkpt lat="47.51947" lon="2.0579484">
        <ele>171.0</ele>
        <time>2022-05-19T09:06:04Z</time>
      </trkpt>
      <trkpt lat="47.51948" lon="2.0579436">
        <ele>171.0</ele>
        <time>2022-05-19T09:06:05Z</time>
      </trkpt>
      <trkpt lat="47.519493" lon="2.05795">
        <ele>171.0</ele>
        <time>2022-05-19T09:06:06Z</time>
      </trkpt>
      <trkpt lat="47.519505" lon="2.057945">
        <ele>171.0</ele>
        <time>2022-05-19T09:06:07Z</time>
      </trkpt>
      <trkpt lat="47.519512" lon="2.0579414">
        <ele>171.0</ele>
        <time>2022-05-19T09:06:08Z</time>
      </trkpt>
      <trkpt lat="47.51952" lon="2.0579355">
        <ele>171.0</ele>
        <time>2022-05-19T09:06:09Z</time>
      </trkpt>
      <trkpt lat="47.51953" lon="2.0579245">
        <ele>172.0</ele>
        <time>2022-05-19T09:06:10Z</time>
      </trkpt>
      <trkpt lat="47.51954" lon="2.0579078">
        <ele>172.0</ele>
        <time>2022-05-19T09:06:11Z</time>
      </trkpt>
      <trkpt lat="47.519554" lon="2.0578945">
        <ele>172.0</ele>
        <time>2022-05-19T09:06:12Z</time>
      </trkpt>
      <trkpt lat="47.51957" lon="2.0578816">
        <ele>172.0</ele>
        <time>2022-05-19T09:06:13Z</time>
      </trkpt>
      <trkpt lat="47.51958" lon="2.0578675">
        <ele>172.0</ele>
        <time>2022-05-19T09:06:14Z</time>
      </trkpt>
      <trkpt lat="47.51959" lon="2.0578496">
        <ele>172.0</ele>
        <time>2022-05-19T09:06:15Z</time>
      </trkpt>
      <trkpt lat="47.5196" lon="2.0578387">
        <ele>173.0</ele>
        <time>2022-05-19T09:06:16Z</time>
      </trkpt>
      <trkpt lat="47.519608" lon="2.0578256">
        <ele>173.0</ele>
        <time>2022-05-19T09:06:17Z</time>
      </trkpt>
      <trkpt lat="47.51962" lon="2.0578194">
        <ele>173.0</ele>
        <time>2022-05-19T09:06:18Z</time>
      </trkpt>
      <trkpt lat="47.51963" lon="2.0578113">
        <ele>173.0</ele>
        <time>2022-05-19T09:06:19Z</time>
      </trkpt>
      <trkpt lat="47.51964" lon="2.0577993">
        <ele>173.0</ele>
        <time>2022-05-19T09:06:20Z</time>
      </trkpt>
      <trkpt lat="47.519646" lon="2.057789">
        <ele>172.0</ele>
        <time>2022-05-19T09:06:21Z</time>
      </trkpt>
      <trkpt lat="47.519653" lon="2.057783">
        <ele>172.0</ele>
        <time>2022-05-19T09:06:22Z</time>
      </trkpt>
      <trkpt lat="47.519657" lon="2.0577695">
        <ele>172.0</ele>
        <time>2022-05-19T09:06:23Z</time>
      </trkpt>
      <trkpt lat="47.51966" lon="2.0577502">
        <ele>172.0</ele>
        <time>2022-05-19T09:06:24Z</time>
      </trkpt>
      <trkpt lat="47.51967" lon="2.0577312">
        <ele>172.0</ele>
        <time>2022-05-19T09:06:25Z</time>
      </trkpt>
      <trkpt lat="47.51968" lon="2.057723">
        <ele>172.0</ele>
        <time>2022-05-19T09:06:26Z</time>
      </trkpt>
      <trkpt lat="47.519695" lon="2.0577097">
        <ele>172.0</ele>
        <time>2022-05-19T09:06:27Z</time>
      </trkpt>
      <trkpt lat="47.519707" lon="2.057692">
        <ele>172.0</ele>
        <time>2022-05-19T09:06:28Z</time>
      </trkpt>
      <trkpt lat="47.51971" lon="2.0576725">
        <ele>172.0</ele>
        <time>2022-05-19T09:06:29Z</time>
      </trkpt>
      <trkpt lat="47.51972" lon="2.0576584">
        <ele>172.0</ele>
        <time>2022-05-19T09:06:30Z</time>
      </trkpt>
      <trkpt lat="47.519726" lon="2.057645">
        <ele>172.0</ele>
        <time>2022-05-19T09:06:31Z</time>
      </trkpt>
      <trkpt lat="47.519733" lon="2.0576298">
        <ele>172.0</ele>
        <time>2022-05-19T09:06:32Z</time>
      </trkpt>
      <trkpt lat="47.51974" lon="2.057617">
        <ele>172.0</ele>
        <time>2022-05-19T09:06:33Z</time>
      </trkpt>
      <trkpt lat="47.519745" lon="2.0576034">
        <ele>171.0</ele>
        <time>2022-05-19T09:06:34Z</time>
      </trkpt>
      <trkpt lat="47.519745" lon="2.0575883">
        <ele>172.0</ele>
        <time>2022-05-19T09:06:35Z</time>
      </trkpt>
      <trkpt lat="47.51974" lon="2.0575721">
        <ele>172.0</ele>
        <time>2022-05-19T09:06:36Z</time>
      </trkpt>
      <trkpt lat="47.519745" lon="2.0575554">
        <ele>172.0</ele>
        <time>2022-05-19T09:06:37Z</time>
      </trkpt>
      <trkpt lat="47.519753" lon="2.0575397">
        <ele>171.0</ele>
        <time>2022-05-19T09:06:38Z</time>
      </trkpt>
      <trkpt lat="47.51976" lon="2.0575283">
        <ele>171.0</ele>
        <time>2022-05-19T09:06:39Z</time>
      </trkpt>
      <trkpt lat="47.51977" lon="2.0575206">
        <ele>171.0</ele>
        <time>2022-05-19T09:06:40Z</time>
      </trkpt>
      <trkpt lat="47.519787" lon="2.0575213">
        <ele>171.0</ele>
        <time>2022-05-19T09:06:41Z</time>
      </trkpt>
      <trkpt lat="47.519802" lon="2.0575192">
        <ele>170.0</ele>
        <time>2022-05-19T09:06:42Z</time>
      </trkpt>
      <trkpt lat="47.519817" lon="2.0575144">
        <ele>171.0</ele>
        <time>2022-05-19T09:06:43Z</time>
      </trkpt>
      <trkpt lat="47.51983" lon="2.057503">
        <ele>171.0</ele>
        <time>2022-05-19T09:06:44Z</time>
      </trkpt>
      <trkpt lat="47.51984" lon="2.0574923">
        <ele>171.0</ele>
        <time>2022-05-19T09:06:45Z</time>
      </trkpt>
      <trkpt lat="47.51985" lon="2.0574946">
        <ele>170.0</ele>
        <time>2022-05-19T09:06:46Z</time>
      </trkpt>
      <trkpt lat="47.519867" lon="2.0574942">
        <ele>169.0</ele>
        <time>2022-05-19T09:06:47Z</time>
      </trkpt>
      <trkpt lat="47.519882" lon="2.0574875">
        <ele>169.0</ele>
        <time>2022-05-19T09:06:48Z</time>
      </trkpt>
      <trkpt lat="47.519894" lon="2.0574791">
        <ele>169.0</ele>
        <time>2022-05-19T09:06:49Z</time>
      </trkpt>
      <trkpt lat="47.519913" lon="2.0574799">
        <ele>168.0</ele>
        <time>2022-05-19T09:06:50Z</time>
      </trkpt>
      <trkpt lat="47.519936" lon="2.0574834">
        <ele>168.0</ele>
        <time>2022-05-19T09:06:51Z</time>
      </trkpt>
      <trkpt lat="47.51995" lon="2.0574777">
        <ele>167.0</ele>
        <time>2022-05-19T09:06:52Z</time>
      </trkpt>
      <trkpt lat="47.519962" lon="2.0574691">
        <ele>167.0</ele>
        <time>2022-05-19T09:06:53Z</time>
      </trkpt>
      <trkpt lat="47.519974" lon="2.0574613">
        <ele>167.0</ele>
        <time>2022-05-19T09:06:54Z</time>
      </trkpt>
      <trkpt lat="47.51998" lon="2.0574477">
        <ele>167.0</ele>
        <time>2022-05-19T09:06:55Z</time>
      </trkpt>
      <trkpt lat="47.51999" lon="2.057436">
        <ele>167.0</ele>
        <time>2022-05-19T09:06:56Z</time>
      </trkpt>
      <trkpt lat="47.519993" lon="2.057424">
        <ele>167.0</ele>
        <time>2022-05-19T09:06:57Z</time>
      </trkpt>
      <trkpt lat="47.52" lon="2.057409">
        <ele>167.0</ele>
        <time>2022-05-19T09:06:58Z</time>
      </trkpt>
      <trkpt lat="47.520008" lon="2.0573952">
        <ele>167.0</ele>
        <time>2022-05-19T09:06:59Z</time>
      </trkpt>
      <trkpt lat="47.52002" lon="2.0573807">
        <ele>167.0</ele>
        <time>2022-05-19T09:07:00Z</time>
      </trkpt>
      <trkpt lat="47.520027" lon="2.0573661">
        <ele>166.0</ele>
        <time>2022-05-19T09:07:01Z</time>
      </trkpt>
      <trkpt lat="47.52003" lon="2.0573485">
        <ele>166.0</ele>
        <time>2022-05-19T09:07:02Z</time>
      </trkpt>
      <trkpt lat="47.52003" lon="2.057335">
        <ele>166.0</ele>
        <time>2022-05-19T09:07:03Z</time>
      </trkpt>
      <trkpt lat="47.52004" lon="2.057322">
        <ele>166.0</ele>
        <time>2022-05-19T09:07:04Z</time>
      </trkpt>
      <trkpt lat="47.520042" lon="2.0573113">
        <ele>166.0</ele>
        <time>2022-05-19T09:07:05Z</time>
      </trkpt>
      <trkpt lat="47.520054" lon="2.0573046">
        <ele>166.0</ele>
        <time>2022-05-19T09:07:06Z</time>
      </trkpt>
      <trkpt lat="47.520065" lon="2.0572894">
        <ele>165.0</ele>
        <time>2022-05-19T09:07:07Z</time>
      </trkpt>
      <trkpt lat="47.52007" lon="2.0572748">
        <ele>165.0</ele>
        <time>2022-05-19T09:07:08Z</time>
      </trkpt>
      <trkpt lat="47.520073" lon="2.0572658">
        <ele>165.0</ele>
        <time>2022-05-19T09:07:09Z</time>
      </trkpt>
      <trkpt lat="47.52008" lon="2.0572548">
        <ele>165.0</ele>
        <time>2022-05-19T09:07:10Z</time>
      </trkpt>
      <trkpt lat="47.52009" lon="2.0572429">
        <ele>165.0</ele>
        <time>2022-05-19T09:07:11Z</time>
      </trkpt>
      <trkpt lat="47.5201" lon="2.05723">
        <ele>165.0</ele>
        <time>2022-05-19T09:07:12Z</time>
      </trkpt>
      <trkpt lat="47.520107" lon="2.0572178">
        <ele>165.0</ele>
        <time>2022-05-19T09:07:13Z</time>
      </trkpt>
      <trkpt lat="47.520115" lon="2.0572028">
        <ele>165.0</ele>
        <time>2022-05-19T09:07:14Z</time>
      </trkpt>
      <trkpt lat="47.52012" lon="2.0571914">
        <ele>165.0</ele>
        <time>2022-05-19T09:07:15Z</time>
      </trkpt>
      <trkpt lat="47.520123" lon="2.0571847">
        <ele>165.0</ele>
        <time>2022-05-19T09:07:16Z</time>
      </trkpt>
      <trkpt lat="47.520126" lon="2.0571737">
        <ele>165.0</ele>
        <time>2022-05-19T09:07:17Z</time>
      </trkpt>
      <trkpt lat="47.52013" lon="2.057166">
        <ele>165.0</ele>
        <time>2022-05-19T09:07:18Z</time>
      </trkpt>
      <trkpt lat="47.520138" lon="2.0571644">
        <ele>165.0</ele>
        <time>2022-05-19T09:07:19Z</time>
      </trkpt>
      <trkpt lat="47.52015" lon="2.0571578">
        <ele>165.0</ele>
        <time>2022-05-19T09:07:20Z</time>
      </trkpt>
      <trkpt lat="47.520164" lon="2.0571473">
        <ele>165.0</ele>
        <time>2022-05-19T09:07:21Z</time>
      </trkpt>
      <trkpt lat="47.520176" lon="2.0571418">
        <ele>165.0</ele>
        <time>2022-05-19T09:07:22Z</time>
      </trkpt>
      <trkpt lat="47.520187" lon="2.0571318">
        <ele>165.0</ele>
        <time>2022-05-19T09:07:23Z</time>
      </trkpt>
      <trkpt lat="47.5202" lon="2.0571225">
        <ele>165.0</ele>
        <time>2022-05-19T09:07:24Z</time>
      </trkpt>
      <trkpt lat="47.520214" lon="2.0571127">
        <ele>166.0</ele>
        <time>2022-05-19T09:07:25Z</time>
      </trkpt>
      <trkpt lat="47.52022" lon="2.0571017">
        <ele>166.0</ele>
        <time>2022-05-19T09:07:26Z</time>
      </trkpt>
      <trkpt lat="47.52023" lon="2.0570865">
        <ele>166.0</ele>
        <time>2022-05-19T09:07:27Z</time>
      </trkpt>
      <trkpt lat="47.52024" lon="2.0570807">
        <ele>166.0</ele>
        <time>2022-05-19T09:07:28Z</time>
      </trkpt>
      <trkpt lat="47.520252" lon="2.0570707">
        <ele>166.0</ele>
        <time>2022-05-19T09:07:29Z</time>
      </trkpt>
      <trkpt lat="47.52026" lon="2.0570598">
        <ele>166.0</ele>
        <time>2022-05-19T09:07:30Z</time>
      </trkpt>
      <trkpt lat="47.52027" lon="2.0570488">
        <ele>166.0</ele>
        <time>2022-05-19T09:07:31Z</time>
      </trkpt>
      <trkpt lat="47.520283" lon="2.0570397">
        <ele>166.0</ele>
        <time>2022-05-19T09:07:32Z</time>
      </trkpt>
      <trkpt lat="47.520294" lon="2.057028">
        <ele>166.0</ele>
        <time>2022-05-19T09:07:33Z</time>
      </trkpt>
      <trkpt lat="47.520306" lon="2.0570168">
        <ele>166.0</ele>
        <time>2022-05-19T09:07:34Z</time>
      </trkpt>
      <trkpt lat="47.520317" lon="2.0570064">
        <ele>166.0</ele>
        <time>2022-05-19T09:07:35Z</time>
      </trkpt>
      <trkpt lat="47.520325" lon="2.0570028">
        <ele>166.0</ele>
        <time>2022-05-19T09:07:36Z</time>
      </trkpt>
      <trkpt lat="47.52033" lon="2.056991">
        <ele>166.0</ele>
        <time>2022-05-19T09:07:37Z</time>
      </trkpt>
      <trkpt lat="47.520332" lon="2.0569754">
        <ele>167.0</ele>
        <time>2022-05-19T09:07:38Z</time>
      </trkpt>
      <trkpt lat="47.520344" lon="2.056955">
        <ele>167.0</ele>
        <time>2022-05-19T09:07:39Z</time>
      </trkpt>
      <trkpt lat="47.52035" lon="2.0569348">
        <ele>167.0</ele>
        <time>2022-05-19T09:07:40Z</time>
      </trkpt>
      <trkpt lat="47.52036" lon="2.0569203">
        <ele>166.0</ele>
        <time>2022-05-19T09:07:41Z</time>
      </trkpt>
      <trkpt lat="47.520367" lon="2.056902">
        <ele>167.0</ele>
        <time>2022-05-19T09:07:42Z</time>
      </trkpt>
      <trkpt lat="47.52038" lon="2.056889">
        <ele>167.0</ele>
        <time>2022-05-19T09:07:43Z</time>
      </trkpt>
      <trkpt lat="47.520393" lon="2.0568724">
        <ele>167.0</ele>
        <time>2022-05-19T09:07:44Z</time>
      </trkpt>
      <trkpt lat="47.52041" lon="2.0568588">
        <ele>167.0</ele>
        <time>2022-05-19T09:07:45Z</time>
      </trkpt>
      <trkpt lat="47.520424" lon="2.0568445">
        <ele>167.0</ele>
        <time>2022-05-19T09:07:46Z</time>
      </trkpt>
      <trkpt lat="47.520435" lon="2.0568304">
        <ele>167.0</ele>
        <time>2022-05-19T09:07:47Z</time>
      </trkpt>
      <trkpt lat="47.520447" lon="2.0568123">
        <ele>167.0</ele>
        <time>2022-05-19T09:07:48Z</time>
      </trkpt>
      <trkpt lat="47.52046" lon="2.0567935">
        <ele>167.0</ele>
        <time>2022-05-19T09:07:49Z</time>
      </trkpt>
      <trkpt lat="47.520466" lon="2.056777">
        <ele>167.0</ele>
        <time>2022-05-19T09:07:50Z</time>
      </trkpt>
      <trkpt lat="47.520473" lon="2.056756">
        <ele>167.0</ele>
        <time>2022-05-19T09:07:51Z</time>
      </trkpt>
      <trkpt lat="47.52048" lon="2.056743">
        <ele>167.0</ele>
        <time>2022-05-19T09:07:52Z</time>
      </trkpt>
      <trkpt lat="47.52049" lon="2.0567317">
        <ele>167.0</ele>
        <time>2022-05-19T09:07:53Z</time>
      </trkpt>
      <trkpt lat="47.520496" lon="2.0567183">
        <ele>167.0</ele>
        <time>2022-05-19T09:07:54Z</time>
      </trkpt>
      <trkpt lat="47.520508" lon="2.0567043">
        <ele>168.0</ele>
        <time>2022-05-19T09:07:55Z</time>
      </trkpt>
      <trkpt lat="47.520515" lon="2.0566874">
        <ele>168.0</ele>
        <time>2022-05-19T09:07:56Z</time>
      </trkpt>
      <trkpt lat="47.520523" lon="2.0566747">
        <ele>168.0</ele>
        <time>2022-05-19T09:07:57Z</time>
      </trkpt>
      <trkpt lat="47.520535" lon="2.0566623">
        <ele>168.0</ele>
        <time>2022-05-19T09:07:58Z</time>
      </trkpt>
      <trkpt lat="47.520546" lon="2.0566509">
        <ele>169.0</ele>
        <time>2022-05-19T09:07:59Z</time>
      </trkpt>
      <trkpt lat="47.520554" lon="2.056632">
        <ele>169.0</ele>
        <time>2022-05-19T09:08:00Z</time>
      </trkpt>
      <trkpt lat="47.52056" lon="2.0566163">
        <ele>169.0</ele>
        <time>2022-05-19T09:08:01Z</time>
      </trkpt>
      <trkpt lat="47.52057" lon="2.0566022">
        <ele>169.0</ele>
        <time>2022-05-19T09:08:02Z</time>
      </trkpt>
      <trkpt lat="47.520576" lon="2.056595">
        <ele>169.0</ele>
        <time>2022-05-19T09:08:03Z</time>
      </trkpt>
      <trkpt lat="47.52058" lon="2.0565863">
        <ele>169.0</ele>
        <time>2022-05-19T09:08:04Z</time>
      </trkpt>
      <trkpt lat="47.520584" lon="2.0565765">
        <ele>169.0</ele>
        <time>2022-05-19T09:08:05Z</time>
      </trkpt>
      <trkpt lat="47.520596" lon="2.0565672">
        <ele>169.0</ele>
        <time>2022-05-19T09:08:06Z</time>
      </trkpt>
      <trkpt lat="47.5206" lon="2.0565588">
        <ele>169.0</ele>
        <time>2022-05-19T09:08:07Z</time>
      </trkpt>
      <trkpt lat="47.520607" lon="2.0565438">
        <ele>170.0</ele>
        <time>2022-05-19T09:08:08Z</time>
      </trkpt>
      <trkpt lat="47.52062" lon="2.0565286">
        <ele>170.0</ele>
        <time>2022-05-19T09:08:09Z</time>
      </trkpt>
      <trkpt lat="47.52063" lon="2.0565145">
        <ele>170.0</ele>
        <time>2022-05-19T09:08:10Z</time>
      </trkpt>
      <trkpt lat="47.520645" lon="2.0565028">
        <ele>170.0</ele>
        <time>2022-05-19T09:08:11Z</time>
      </trkpt>
      <trkpt lat="47.520664" lon="2.0565012">
        <ele>170.0</ele>
        <time>2022-05-19T09:08:12Z</time>
      </trkpt>
      <trkpt lat="47.520676" lon="2.056498">
        <ele>169.0</ele>
        <time>2022-05-19T09:08:13Z</time>
      </trkpt>
      <trkpt lat="47.520687" lon="2.0564806">
        <ele>169.0</ele>
        <time>2022-05-19T09:08:14Z</time>
      </trkpt>
      <trkpt lat="47.520695" lon="2.0564675">
        <ele>169.0</ele>
        <time>2022-05-19T09:08:15Z</time>
      </trkpt>
      <trkpt lat="47.5207" lon="2.0564518">
        <ele>169.0</ele>
        <time>2022-05-19T09:08:16Z</time>
      </trkpt>
      <trkpt lat="47.5207" lon="2.056441">
        <ele>169.0</ele>
        <time>2022-05-19T09:08:17Z</time>
      </trkpt>
      <trkpt lat="47.520706" lon="2.0564327">
        <ele>169.0</ele>
        <time>2022-05-19T09:08:18Z</time>
      </trkpt>
      <trkpt lat="47.520718" lon="2.0564246">
        <ele>169.0</ele>
        <time>2022-05-19T09:08:19Z</time>
      </trkpt>
      <trkpt lat="47.520725" lon="2.0564141">
        <ele>169.0</ele>
        <time>2022-05-19T09:08:20Z</time>
      </trkpt>
      <trkpt lat="47.520737" lon="2.056403">
        <ele>169.0</ele>
        <time>2022-05-19T09:08:21Z</time>
      </trkpt>
      <trkpt lat="47.520744" lon="2.0563862">
        <ele>170.0</ele>
        <time>2022-05-19T09:08:22Z</time>
      </trkpt>
      <trkpt lat="47.520756" lon="2.0563743">
        <ele>170.0</ele>
        <time>2022-05-19T09:08:23Z</time>
      </trkpt>
      <trkpt lat="47.520767" lon="2.0563674">
        <ele>169.0</ele>
        <time>2022-05-19T09:08:24Z</time>
      </trkpt>
      <trkpt lat="47.52078" lon="2.0563602">
        <ele>169.0</ele>
        <time>2022-05-19T09:08:25Z</time>
      </trkpt>
      <trkpt lat="47.52079" lon="2.0563526">
        <ele>170.0</ele>
        <time>2022-05-19T09:08:26Z</time>
      </trkpt>
      <trkpt lat="47.5208" lon="2.0563433">
        <ele>169.0</ele>
        <time>2022-05-19T09:08:27Z</time>
      </trkpt>
      <trkpt lat="47.520813" lon="2.05633">
        <ele>169.0</ele>
        <time>2022-05-19T09:08:28Z</time>
      </trkpt>
      <trkpt lat="47.520824" lon="2.0563145">
        <ele>170.0</ele>
        <time>2022-05-19T09:08:29Z</time>
      </trkpt>
      <trkpt lat="47.52084" lon="2.0562937">
        <ele>169.0</ele>
        <time>2022-05-19T09:08:30Z</time>
      </trkpt>
      <trkpt lat="47.52085" lon="2.0562806">
        <ele>169.0</ele>
        <time>2022-05-19T09:08:31Z</time>
      </trkpt>
      <trkpt lat="47.520866" lon="2.0562696">
        <ele>169.0</ele>
        <time>2022-05-19T09:08:32Z</time>
      </trkpt>
      <trkpt lat="47.520878" lon="2.0562599">
        <ele>169.0</ele>
        <time>2022-05-19T09:08:33Z</time>
      </trkpt>
      <trkpt lat="47.52089" lon="2.0562513">
        <ele>169.0</ele>
        <time>2022-05-19T09:08:34Z</time>
      </trkpt>
      <trkpt lat="47.5209" lon="2.0562406">
        <ele>168.0</ele>
        <time>2022-05-19T09:08:35Z</time>
      </trkpt>
      <trkpt lat="47.52092" lon="2.0562296">
        <ele>169.0</ele>
        <time>2022-05-19T09:08:36Z</time>
      </trkpt>
      <trkpt lat="47.52093" lon="2.056219">
        <ele>169.0</ele>
        <time>2022-05-19T09:08:37Z</time>
      </trkpt>
      <trkpt lat="47.52094" lon="2.056209">
        <ele>168.0</ele>
        <time>2022-05-19T09:08:38Z</time>
      </trkpt>
      <trkpt lat="47.52095" lon="2.056197">
        <ele>168.0</ele>
        <time>2022-05-19T09:08:39Z</time>
      </trkpt>
      <trkpt lat="47.52096" lon="2.056182">
        <ele>168.0</ele>
        <time>2022-05-19T09:08:40Z</time>
      </trkpt>
      <trkpt lat="47.52098" lon="2.0561774">
        <ele>168.0</ele>
        <time>2022-05-19T09:08:41Z</time>
      </trkpt>
      <trkpt lat="47.520992" lon="2.0561736">
        <ele>168.0</ele>
        <time>2022-05-19T09:08:42Z</time>
      </trkpt>
      <trkpt lat="47.521" lon="2.0561695">
        <ele>168.0</ele>
        <time>2022-05-19T09:08:43Z</time>
      </trkpt>
      <trkpt lat="47.521004" lon="2.0561626">
        <ele>168.0</ele>
        <time>2022-05-19T09:08:44Z</time>
      </trkpt>
      <trkpt lat="47.52101" lon="2.0561476">
        <ele>168.0</ele>
        <time>2022-05-19T09:08:45Z</time>
      </trkpt>
      <trkpt lat="47.521023" lon="2.056129">
        <ele>167.0</ele>
        <time>2022-05-19T09:08:46Z</time>
      </trkpt>
      <trkpt lat="47.52103" lon="2.0561163">
        <ele>167.0</ele>
        <time>2022-05-19T09:08:47Z</time>
      </trkpt>
      <trkpt lat="47.521038" lon="2.056105">
        <ele>167.0</ele>
        <time>2022-05-19T09:08:48Z</time>
      </trkpt>
      <trkpt lat="47.52105" lon="2.0560913">
        <ele>167.0</ele>
        <time>2022-05-19T09:08:49Z</time>
      </trkpt>
      <trkpt lat="47.521065" lon="2.0560782">
        <ele>167.0</ele>
        <time>2022-05-19T09:08:50Z</time>
      </trkpt>
      <trkpt lat="47.52108" lon="2.0560627">
        <ele>167.0</ele>
        <time>2022-05-19T09:08:51Z</time>
      </trkpt>
      <trkpt lat="47.521088" lon="2.0560446">
        <ele>167.0</ele>
        <time>2022-05-19T09:08:52Z</time>
      </trkpt>
      <trkpt lat="47.521095" lon="2.0560286">
        <ele>167.0</ele>
        <time>2022-05-19T09:08:53Z</time>
      </trkpt>
      <trkpt lat="47.521107" lon="2.0560105">
        <ele>167.0</ele>
        <time>2022-05-19T09:08:54Z</time>
      </trkpt>
      <trkpt lat="47.521114" lon="2.0559971">
        <ele>167.0</ele>
        <time>2022-05-19T09:08:55Z</time>
      </trkpt>
      <trkpt lat="47.521126" lon="2.0559878">
        <ele>167.0</ele>
        <time>2022-05-19T09:08:56Z</time>
      </trkpt>
      <trkpt lat="47.521133" lon="2.0559826">
        <ele>167.0</ele>
        <time>2022-05-19T09:08:57Z</time>
      </trkpt>
      <trkpt lat="47.521133" lon="2.0559733">
        <ele>167.0</ele>
        <time>2022-05-19T09:08:58Z</time>
      </trkpt>
      <trkpt lat="47.52114" lon="2.055965">
        <ele>167.0</ele>
        <time>2022-05-19T09:08:59Z</time>
      </trkpt>
      <trkpt lat="47.52115" lon="2.0559547">
        <ele>167.0</ele>
        <time>2022-05-19T09:09:00Z</time>
      </trkpt>
      <trkpt lat="47.52116" lon="2.0559466">
        <ele>167.0</ele>
        <time>2022-05-19T09:09:01Z</time>
      </trkpt>
      <trkpt lat="47.521168" lon="2.05593">
        <ele>167.0</ele>
        <time>2022-05-19T09:09:02Z</time>
      </trkpt>
      <trkpt lat="47.521175" lon="2.0559125">
        <ele>167.0</ele>
        <time>2022-05-19T09:09:03Z</time>
      </trkpt>
      <trkpt lat="47.52118" lon="2.0558953">
        <ele>167.0</ele>
        <time>2022-05-19T09:09:04Z</time>
      </trkpt>
      <trkpt lat="47.521187" lon="2.0558817">
        <ele>167.0</ele>
        <time>2022-05-19T09:09:05Z</time>
      </trkpt>
      <trkpt lat="47.5212" lon="2.0558646">
        <ele>167.0</ele>
        <time>2022-05-19T09:09:06Z</time>
      </trkpt>
      <trkpt lat="47.521206" lon="2.0558517">
        <ele>167.0</ele>
        <time>2022-05-19T09:09:07Z</time>
      </trkpt>
      <trkpt lat="47.521217" lon="2.0558317">
        <ele>167.0</ele>
        <time>2022-05-19T09:09:08Z</time>
      </trkpt>
      <trkpt lat="47.521225" lon="2.0558167">
        <ele>167.0</ele>
        <time>2022-05-19T09:09:09Z</time>
      </trkpt>
      <trkpt lat="47.521236" lon="2.0558045">
        <ele>167.0</ele>
        <time>2022-05-19T09:09:10Z</time>
      </trkpt>
      <trkpt lat="47.521244" lon="2.0557914">
        <ele>167.0</ele>
        <time>2022-05-19T09:09:11Z</time>
      </trkpt>
      <trkpt lat="47.52125" lon="2.0557811">
        <ele>167.0</ele>
        <time>2022-05-19T09:09:12Z</time>
      </trkpt>
      <trkpt lat="47.521263" lon="2.0557683">
        <ele>167.0</ele>
        <time>2022-05-19T09:09:13Z</time>
      </trkpt>
      <trkpt lat="47.521275" lon="2.055757">
        <ele>167.0</ele>
        <time>2022-05-19T09:09:14Z</time>
      </trkpt>
      <trkpt lat="47.521282" lon="2.0557494">
        <ele>167.0</ele>
        <time>2022-05-19T09:09:15Z</time>
      </trkpt>
      <trkpt lat="47.521294" lon="2.055736">
        <ele>167.0</ele>
        <time>2022-05-19T09:09:16Z</time>
      </trkpt>
      <trkpt lat="47.521305" lon="2.055722">
        <ele>167.0</ele>
        <time>2022-05-19T09:09:17Z</time>
      </trkpt>
      <trkpt lat="47.521313" lon="2.055703">
        <ele>167.0</ele>
        <time>2022-05-19T09:09:18Z</time>
      </trkpt>
      <trkpt lat="47.521328" lon="2.0556867">
        <ele>167.0</ele>
        <time>2022-05-19T09:09:19Z</time>
      </trkpt>
      <trkpt lat="47.52134" lon="2.0556686">
        <ele>167.0</ele>
        <time>2022-05-19T09:09:20Z</time>
      </trkpt>
      <trkpt lat="47.521355" lon="2.0556576">
        <ele>168.0</ele>
        <time>2022-05-19T09:09:21Z</time>
      </trkpt>
      <trkpt lat="47.521362" lon="2.0556507">
        <ele>167.0</ele>
        <time>2022-05-19T09:09:22Z</time>
      </trkpt>
      <trkpt lat="47.52137" lon="2.0556443">
        <ele>167.0</ele>
        <time>2022-05-19T09:09:23Z</time>
      </trkpt>
      <trkpt lat="47.521378" lon="2.055643">
        <ele>167.0</ele>
        <time>2022-05-19T09:09:24Z</time>
      </trkpt>
      <trkpt lat="47.521393" lon="2.0556357">
        <ele>167.0</ele>
        <time>2022-05-19T09:09:25Z</time>
      </trkpt>
      <trkpt lat="47.5214" lon="2.0556245">
        <ele>167.0</ele>
        <time>2022-05-19T09:09:26Z</time>
      </trkpt>
      <trkpt lat="47.5214" lon="2.0556142">
        <ele>167.0</ele>
        <time>2022-05-19T09:09:27Z</time>
      </trkpt>
      <trkpt lat="47.52141" lon="2.0556083">
        <ele>168.0</ele>
        <time>2022-05-19T09:09:28Z</time>
      </trkpt>
      <trkpt lat="47.521427" lon="2.0555959">
        <ele>167.0</ele>
        <time>2022-05-19T09:09:29Z</time>
      </trkpt>
      <trkpt lat="47.521435" lon="2.055586">
        <ele>167.0</ele>
        <time>2022-05-19T09:09:30Z</time>
      </trkpt>
      <trkpt lat="47.521442" lon="2.0555756">
        <ele>167.0</ele>
        <time>2022-05-19T09:09:31Z</time>
      </trkpt>
      <trkpt lat="47.521454" lon="2.0555701">
        <ele>167.0</ele>
        <time>2022-05-19T09:09:32Z</time>
      </trkpt>
      <trkpt lat="47.52146" lon="2.0555623">
        <ele>167.0</ele>
        <time>2022-05-19T09:09:33Z</time>
      </trkpt>
      <trkpt lat="47.52147" lon="2.055561">
        <ele>167.0</ele>
        <time>2022-05-19T09:09:34Z</time>
      </trkpt>
      <trkpt lat="47.521484" lon="2.0555549">
        <ele>167.0</ele>
        <time>2022-05-19T09:09:35Z</time>
      </trkpt>
      <trkpt lat="47.521496" lon="2.055554">
        <ele>167.0</ele>
        <time>2022-05-19T09:09:36Z</time>
      </trkpt>
      <trkpt lat="47.521507" lon="2.055547">
        <ele>167.0</ele>
        <time>2022-05-19T09:09:37Z</time>
      </trkpt>
      <trkpt lat="47.52152" lon="2.0555427">
        <ele>168.0</ele>
        <time>2022-05-19T09:09:38Z</time>
      </trkpt>
      <trkpt lat="47.521526" lon="2.0555255">
        <ele>168.0</ele>
        <time>2022-05-19T09:09:39Z</time>
      </trkpt>
      <trkpt lat="47.521534" lon="2.055519">
        <ele>168.0</ele>
        <time>2022-05-19T09:09:40Z</time>
      </trkpt>
      <trkpt lat="47.52154" lon="2.0555193">
        <ele>168.0</ele>
        <time>2022-05-19T09:09:41Z</time>
      </trkpt>
      <trkpt lat="47.521553" lon="2.0555174">
        <ele>168.0</ele>
        <time>2022-05-19T09:09:42Z</time>
      </trkpt>
      <trkpt lat="47.52156" lon="2.055513">
        <ele>168.0</ele>
        <time>2022-05-19T09:09:43Z</time>
      </trkpt>
      <trkpt lat="47.521564" lon="2.0555103">
        <ele>168.0</ele>
        <time>2022-05-19T09:09:44Z</time>
      </trkpt>
      <trkpt lat="47.52157" lon="2.055507">
        <ele>168.0</ele>
        <time>2022-05-19T09:09:45Z</time>
      </trkpt>
      <trkpt lat="47.52158" lon="2.0555072">
        <ele>168.0</ele>
        <time>2022-05-19T09:09:46Z</time>
      </trkpt>
      <trkpt lat="47.521587" lon="2.0555072">
        <ele>168.0</ele>
        <time>2022-05-19T09:09:47Z</time>
      </trkpt>
      <trkpt lat="47.5216" lon="2.055504">
        <ele>167.0</ele>
        <time>2022-05-19T09:09:48Z</time>
      </trkpt>
      <trkpt lat="47.521606" lon="2.0555024">
        <ele>167.0</ele>
        <time>2022-05-19T09:09:49Z</time>
      </trkpt>
      <trkpt lat="47.521618" lon="2.0554957">
        <ele>167.0</ele>
        <time>2022-05-19T09:09:50Z</time>
      </trkpt>
      <trkpt lat="47.52163" lon="2.0554914">
        <ele>167.0</ele>
        <time>2022-05-19T09:09:51Z</time>
      </trkpt>
      <trkpt lat="47.52164" lon="2.0554953">
        <ele>167.0</ele>
        <time>2022-05-19T09:09:52Z</time>
      </trkpt>
      <trkpt lat="47.521652" lon="2.0554922">
        <ele>167.0</ele>
        <time>2022-05-19T09:09:53Z</time>
      </trkpt>
      <trkpt lat="47.52166" lon="2.0554905">
        <ele>167.0</ele>
        <time>2022-05-19T09:09:54Z</time>
      </trkpt>
      <trkpt lat="47.521667" lon="2.055487">
        <ele>167.0</ele>
        <time>2022-05-19T09:09:55Z</time>
      </trkpt>
      <trkpt lat="47.521675" lon="2.0554814">
        <ele>167.0</ele>
        <time>2022-05-19T09:09:56Z</time>
      </trkpt>
      <trkpt lat="47.521687" lon="2.0554826">
        <ele>167.0</ele>
        <time>2022-05-19T09:09:57Z</time>
      </trkpt>
      <trkpt lat="47.5217" lon="2.0554824">
        <ele>166.0</ele>
        <time>2022-05-19T09:09:58Z</time>
      </trkpt>
      <trkpt lat="47.521713" lon="2.05548">
        <ele>166.0</ele>
        <time>2022-05-19T09:09:59Z</time>
      </trkpt>
      <trkpt lat="47.521717" lon="2.0554779">
        <ele>166.0</ele>
        <time>2022-05-19T09:10:00Z</time>
      </trkpt>
      <trkpt lat="47.52173" lon="2.0554674">
        <ele>166.0</ele>
        <time>2022-05-19T09:10:01Z</time>
      </trkpt>
      <trkpt lat="47.521736" lon="2.0554562">
        <ele>166.0</ele>
        <time>2022-05-19T09:10:02Z</time>
      </trkpt>
      <trkpt lat="47.521748" lon="2.0554512">
        <ele>166.0</ele>
        <time>2022-05-19T09:10:03Z</time>
      </trkpt>
      <trkpt lat="47.521767" lon="2.0554545">
        <ele>166.0</ele>
        <time>2022-05-19T09:10:04Z</time>
      </trkpt>
      <trkpt lat="47.521782" lon="2.055468">
        <ele>165.0</ele>
        <time>2022-05-19T09:10:05Z</time>
      </trkpt>
      <trkpt lat="47.5218" lon="2.0554721">
        <ele>165.0</ele>
        <time>2022-05-19T09:10:06Z</time>
      </trkpt>
      <trkpt lat="47.521812" lon="2.0554798">
        <ele>165.0</ele>
        <time>2022-05-19T09:10:07Z</time>
      </trkpt>
      <trkpt lat="47.52182" lon="2.0554814">
        <ele>165.0</ele>
        <time>2022-05-19T09:10:08Z</time>
      </trkpt>
      <trkpt lat="47.521835" lon="2.0554821">
        <ele>165.0</ele>
        <time>2022-05-19T09:10:09Z</time>
      </trkpt>
      <trkpt lat="47.521847" lon="2.0554826">
        <ele>165.0</ele>
        <time>2022-05-19T09:10:10Z</time>
      </trkpt>
      <trkpt lat="47.521854" lon="2.0554788">
        <ele>165.0</ele>
        <time>2022-05-19T09:10:11Z</time>
      </trkpt>
      <trkpt lat="47.52186" lon="2.0554743">
        <ele>165.0</ele>
        <time>2022-05-19T09:10:12Z</time>
      </trkpt>
      <trkpt lat="47.521862" lon="2.0554686">
        <ele>165.0</ele>
        <time>2022-05-19T09:10:13Z</time>
      </trkpt>
      <trkpt lat="47.521866" lon="2.0554667">
        <ele>165.0</ele>
        <time>2022-05-19T09:10:14Z</time>
      </trkpt>
      <trkpt lat="47.52188" lon="2.0554695">
        <ele>165.0</ele>
        <time>2022-05-19T09:10:15Z</time>
      </trkpt>
      <trkpt lat="47.521893" lon="2.0554645">
        <ele>165.0</ele>
        <time>2022-05-19T09:10:16Z</time>
      </trkpt>
      <trkpt lat="47.5219" lon="2.0554607">
        <ele>166.0</ele>
        <time>2022-05-19T09:10:17Z</time>
      </trkpt>
      <trkpt lat="47.521915" lon="2.0554633">
        <ele>165.0</ele>
        <time>2022-05-19T09:10:18Z</time>
      </trkpt>
      <trkpt lat="47.52193" lon="2.0554683">
        <ele>165.0</ele>
        <time>2022-05-19T09:10:19Z</time>
      </trkpt>
      <trkpt lat="47.521942" lon="2.0554674">
        <ele>164.0</ele>
        <time>2022-05-19T09:10:20Z</time>
      </trkpt>
      <trkpt lat="47.521954" lon="2.0554702">
        <ele>164.0</ele>
        <time>2022-05-19T09:10:21Z</time>
      </trkpt>
      <trkpt lat="47.521965" lon="2.055478">
        <ele>164.0</ele>
        <time>2022-05-19T09:10:22Z</time>
      </trkpt>
      <trkpt lat="47.521976" lon="2.0554848">
        <ele>165.0</ele>
        <time>2022-05-19T09:10:23Z</time>
      </trkpt>
      <trkpt lat="47.52199" lon="2.05548">
        <ele>165.0</ele>
        <time>2022-05-19T09:10:24Z</time>
      </trkpt>
      <trkpt lat="47.522003" lon="2.055478">
        <ele>165.0</ele>
        <time>2022-05-19T09:10:25Z</time>
      </trkpt>
      <trkpt lat="47.522022" lon="2.0554726">
        <ele>165.0</ele>
        <time>2022-05-19T09:10:26Z</time>
      </trkpt>
      <trkpt lat="47.522034" lon="2.0554721">
        <ele>165.0</ele>
        <time>2022-05-19T09:10:27Z</time>
      </trkpt>
      <trkpt lat="47.522045" lon="2.055473">
        <ele>165.0</ele>
        <time>2022-05-19T09:10:28Z</time>
      </trkpt>
      <trkpt lat="47.52206" lon="2.0554774">
        <ele>165.0</ele>
        <time>2022-05-19T09:10:29Z</time>
      </trkpt>
      <trkpt lat="47.522068" lon="2.0554817">
        <ele>165.0</ele>
        <time>2022-05-19T09:10:30Z</time>
      </trkpt>
      <trkpt lat="47.52208" lon="2.0554862">
        <ele>165.0</ele>
        <time>2022-05-19T09:10:31Z</time>
      </trkpt>
      <trkpt lat="47.522095" lon="2.055483">
        <ele>165.0</ele>
        <time>2022-05-19T09:10:32Z</time>
      </trkpt>
      <trkpt lat="47.52211" lon="2.0554824">
        <ele>165.0</ele>
        <time>2022-05-19T09:10:33Z</time>
      </trkpt>
      <trkpt lat="47.522125" lon="2.0554776">
        <ele>165.0</ele>
        <time>2022-05-19T09:10:34Z</time>
      </trkpt>
      <trkpt lat="47.522137" lon="2.055479">
        <ele>165.0</ele>
        <time>2022-05-19T09:10:35Z</time>
      </trkpt>
      <trkpt lat="47.52215" lon="2.0554833">
        <ele>164.0</ele>
        <time>2022-05-19T09:10:36Z</time>
      </trkpt>
      <trkpt lat="47.52216" lon="2.055484">
        <ele>164.0</ele>
        <time>2022-05-19T09:10:37Z</time>
      </trkpt>
      <trkpt lat="47.52217" lon="2.0554845">
        <ele>164.0</ele>
        <time>2022-05-19T09:10:38Z</time>
      </trkpt>
      <trkpt lat="47.52218" lon="2.0554867">
        <ele>164.0</ele>
        <time>2022-05-19T09:10:39Z</time>
      </trkpt>
      <trkpt lat="47.522198" lon="2.0554864">
        <ele>165.0</ele>
        <time>2022-05-19T09:10:40Z</time>
      </trkpt>
      <trkpt lat="47.522217" lon="2.0554814">
        <ele>165.0</ele>
        <time>2022-05-19T09:10:41Z</time>
      </trkpt>
      <trkpt lat="47.522243" lon="2.0554838">
        <ele>166.0</ele>
        <time>2022-05-19T09:10:42Z</time>
      </trkpt>
      <trkpt lat="47.52226" lon="2.0554872">
        <ele>166.0</ele>
        <time>2022-05-19T09:10:43Z</time>
      </trkpt>
      <trkpt lat="47.52227" lon="2.0554895">
        <ele>166.0</ele>
        <time>2022-05-19T09:10:44Z</time>
      </trkpt>
      <trkpt lat="47.52228" lon="2.0554934">
        <ele>166.0</ele>
        <time>2022-05-19T09:10:45Z</time>
      </trkpt>
      <trkpt lat="47.522293" lon="2.0554922">
        <ele>166.0</ele>
        <time>2022-05-19T09:10:46Z</time>
      </trkpt>
      <trkpt lat="47.522305" lon="2.0554914">
        <ele>166.0</ele>
        <time>2022-05-19T09:10:47Z</time>
      </trkpt>
      <trkpt lat="47.522316" lon="2.0554864">
        <ele>165.0</ele>
        <time>2022-05-19T09:10:48Z</time>
      </trkpt>
      <trkpt lat="47.522327" lon="2.0554774">
        <ele>165.0</ele>
        <time>2022-05-19T09:10:49Z</time>
      </trkpt>
      <trkpt lat="47.522335" lon="2.055478">
        <ele>165.0</ele>
        <time>2022-05-19T09:10:50Z</time>
      </trkpt>
      <trkpt lat="47.522343" lon="2.0554783">
        <ele>166.0</ele>
        <time>2022-05-19T09:10:51Z</time>
      </trkpt>
      <trkpt lat="47.52235" lon="2.0554798">
        <ele>166.0</ele>
        <time>2022-05-19T09:10:52Z</time>
      </trkpt>
      <trkpt lat="47.52236" lon="2.0554788">
        <ele>166.0</ele>
        <time>2022-05-19T09:10:53Z</time>
      </trkpt>
      <trkpt lat="47.522373" lon="2.0554786">
        <ele>165.0</ele>
        <time>2022-05-19T09:10:54Z</time>
      </trkpt>
      <trkpt lat="47.522392" lon="2.055476">
        <ele>165.0</ele>
        <time>2022-05-19T09:10:55Z</time>
      </trkpt>
      <trkpt lat="47.522404" lon="2.0554743">
        <ele>164.0</ele>
        <time>2022-05-19T09:10:56Z</time>
      </trkpt>
      <trkpt lat="47.522415" lon="2.0554764">
        <ele>165.0</ele>
        <time>2022-05-19T09:10:57Z</time>
      </trkpt>
      <trkpt lat="47.522427" lon="2.05548">
        <ele>164.0</ele>
        <time>2022-05-19T09:10:58Z</time>
      </trkpt>
      <trkpt lat="47.522434" lon="2.055487">
        <ele>165.0</ele>
        <time>2022-05-19T09:10:59Z</time>
      </trkpt>
      <trkpt lat="47.522438" lon="2.0554903">
        <ele>164.0</ele>
        <time>2022-05-19T09:11:00Z</time>
      </trkpt>
      <trkpt lat="47.52245" lon="2.0554895">
        <ele>164.0</ele>
        <time>2022-05-19T09:11:01Z</time>
      </trkpt>
      <trkpt lat="47.522457" lon="2.0554867">
        <ele>165.0</ele>
        <time>2022-05-19T09:11:02Z</time>
      </trkpt>
      <trkpt lat="47.522465" lon="2.05548">
        <ele>165.0</ele>
        <time>2022-05-19T09:11:03Z</time>
      </trkpt>
      <trkpt lat="47.522472" lon="2.0554771">
        <ele>164.0</ele>
        <time>2022-05-19T09:11:04Z</time>
      </trkpt>
      <trkpt lat="47.522476" lon="2.0554805">
        <ele>164.0</ele>
        <time>2022-05-19T09:11:05Z</time>
      </trkpt>
      <trkpt lat="47.522476" lon="2.0554857">
        <ele>164.0</ele>
        <time>2022-05-19T09:11:06Z</time>
      </trkpt>
      <trkpt lat="47.52248" lon="2.0554867">
        <ele>164.0</ele>
        <time>2022-05-19T09:11:07Z</time>
      </trkpt>
      <trkpt lat="47.52248" lon="2.0554867">
        <ele>164.0</ele>
        <time>2022-05-19T09:11:08Z</time>
      </trkpt>
      <trkpt lat="47.52248" lon="2.0554867">
        <ele>164.0</ele>
        <time>2022-05-19T09:11:08Z</time>
      </trkpt>
      <trkpt lat="47.52248" lon="2.0554867">
        <ele>164.0</ele>
        <time>2022-05-19T09:11:08Z</time>
      </trkpt>
      <trkpt lat="47.52262" lon="2.055526">
        <ele>168.0</ele>
        <time>2022-05-19T09:12:31Z</time>
      </trkpt>
      <trkpt lat="47.52262" lon="2.0555267">
        <ele>168.0</ele>
        <time>2022-05-19T09:12:32Z</time>
      </trkpt>
      <trkpt lat="47.522614" lon="2.0555267">
        <ele>168.0</ele>
        <time>2022-05-19T09:12:33Z</time>
      </trkpt>
      <trkpt lat="47.522614" lon="2.0555267">
        <ele>168.0</ele>
        <time>2022-05-19T09:12:34Z</time>
      </trkpt>
      <trkpt lat="47.522614" lon="2.0555267">
        <ele>168.0</ele>
        <time>2022-05-19T09:12:35Z</time>
      </trkpt>
      <trkpt lat="47.522614" lon="2.0555267">
        <ele>168.0</ele>
        <time>2022-05-19T09:12:35Z</time>
      </trkpt>
      <trkpt lat="47.522614" lon="2.0555267">
        <ele>168.0</ele>
        <time>2022-05-19T09:12:35Z</time>
      </trkpt>
      <trkpt lat="47.522587" lon="2.0556302">
        <ele>166.0</ele>
        <time>2022-05-19T09:13:41Z</time>
      </trkpt>
      <trkpt lat="47.522583" lon="2.0556288">
        <ele>166.0</ele>
        <time>2022-05-19T09:13:42Z</time>
      </trkpt>
      <trkpt lat="47.522583" lon="2.0556207">
        <ele>166.0</ele>
        <time>2022-05-19T09:13:43Z</time>
      </trkpt>
      <trkpt lat="47.522575" lon="2.0556185">
        <ele>165.0</ele>
        <time>2022-05-19T09:13:44Z</time>
      </trkpt>
      <trkpt lat="47.52257" lon="2.055615">
        <ele>165.0</ele>
        <time>2022-05-19T09:13:45Z</time>
      </trkpt>
      <trkpt lat="47.52256" lon="2.0556123">
        <ele>164.0</ele>
        <time>2022-05-19T09:13:46Z</time>
      </trkpt>
      <trkpt lat="47.522556" lon="2.055606">
        <ele>164.0</ele>
        <time>2022-05-19T09:13:47Z</time>
      </trkpt>
      <trkpt lat="47.522552" lon="2.0555925">
        <ele>164.0</ele>
        <time>2022-05-19T09:13:48Z</time>
      </trkpt>
      <trkpt lat="47.522552" lon="2.0555832">
        <ele>165.0</ele>
        <time>2022-05-19T09:13:49Z</time>
      </trkpt>
      <trkpt lat="47.52255" lon="2.0555804">
        <ele>164.0</ele>
        <time>2022-05-19T09:13:50Z</time>
      </trkpt>
      <trkpt lat="47.522545" lon="2.0555806">
        <ele>164.0</ele>
        <time>2022-05-19T09:13:51Z</time>
      </trkpt>
      <trkpt lat="47.522545" lon="2.0555804">
        <ele>163.0</ele>
        <time>2022-05-19T09:13:52Z</time>
      </trkpt>
      <trkpt lat="47.522537" lon="2.055587">
        <ele>163.0</ele>
        <time>2022-05-19T09:13:53Z</time>
      </trkpt>
      <trkpt lat="47.522522" lon="2.0555923">
        <ele>163.0</ele>
        <time>2022-05-19T09:13:54Z</time>
      </trkpt>
      <trkpt lat="47.522507" lon="2.0556011">
        <ele>162.0</ele>
        <time>2022-05-19T09:13:55Z</time>
      </trkpt>
      <trkpt lat="47.522495" lon="2.055608">
        <ele>162.0</ele>
        <time>2022-05-19T09:13:56Z</time>
      </trkpt>
      <trkpt lat="47.522488" lon="2.0556123">
        <ele>161.0</ele>
        <time>2022-05-19T09:13:57Z</time>
      </trkpt>
      <trkpt lat="47.522484" lon="2.0556145">
        <ele>161.0</ele>
        <time>2022-05-19T09:13:58Z</time>
      </trkpt>
      <trkpt lat="47.52248" lon="2.0556138">
        <ele>161.0</ele>
        <time>2022-05-19T09:13:59Z</time>
      </trkpt>
      <trkpt lat="47.522472" lon="2.0556169">
        <ele>161.0</ele>
        <time>2022-05-19T09:14:00Z</time>
      </trkpt>
      <trkpt lat="47.52247" lon="2.055619">
        <ele>161.0</ele>
        <time>2022-05-19T09:14:01Z</time>
      </trkpt>
      <trkpt lat="47.52246" lon="2.0556197">
        <ele>161.0</ele>
        <time>2022-05-19T09:14:02Z</time>
      </trkpt>
      <trkpt lat="47.52245" lon="2.0556226">
        <ele>160.0</ele>
        <time>2022-05-19T09:14:03Z</time>
      </trkpt>
      <trkpt lat="47.522434" lon="2.055635">
        <ele>160.0</ele>
        <time>2022-05-19T09:14:04Z</time>
      </trkpt>
      <trkpt lat="47.522427" lon="2.0556374">
        <ele>159.0</ele>
        <time>2022-05-19T09:14:05Z</time>
      </trkpt>
      <trkpt lat="47.52242" lon="2.0556428">
        <ele>159.0</ele>
        <time>2022-05-19T09:14:06Z</time>
      </trkpt>
      <trkpt lat="47.52241" lon="2.055644">
        <ele>158.0</ele>
        <time>2022-05-19T09:14:07Z</time>
      </trkpt>
      <trkpt lat="47.522396" lon="2.055651">
        <ele>158.0</ele>
        <time>2022-05-19T09:14:08Z</time>
      </trkpt>
      <trkpt lat="47.52238" lon="2.0556507">
        <ele>157.0</ele>
        <time>2022-05-19T09:14:09Z</time>
      </trkpt>
      <trkpt lat="47.522366" lon="2.055655">
        <ele>157.0</ele>
        <time>2022-05-19T09:14:10Z</time>
      </trkpt>
      <trkpt lat="47.522354" lon="2.0556636">
        <ele>156.0</ele>
        <time>2022-05-19T09:14:11Z</time>
      </trkpt>
      <trkpt lat="47.522346" lon="2.0556762">
        <ele>156.0</ele>
        <time>2022-05-19T09:14:12Z</time>
      </trkpt>
      <trkpt lat="47.52234" lon="2.055693">
        <ele>156.0</ele>
        <time>2022-05-19T09:14:13Z</time>
      </trkpt>
      <trkpt lat="47.522327" lon="2.0557067">
        <ele>156.0</ele>
        <time>2022-05-19T09:14:14Z</time>
      </trkpt>
      <trkpt lat="47.522316" lon="2.055715">
        <ele>156.0</ele>
        <time>2022-05-19T09:14:15Z</time>
      </trkpt>
      <trkpt lat="47.522305" lon="2.0557175">
        <ele>156.0</ele>
        <time>2022-05-19T09:14:16Z</time>
      </trkpt>
      <trkpt lat="47.5223" lon="2.055719">
        <ele>156.0</ele>
        <time>2022-05-19T09:14:17Z</time>
      </trkpt>
      <trkpt lat="47.522297" lon="2.0557172">
        <ele>155.0</ele>
        <time>2022-05-19T09:14:18Z</time>
      </trkpt>
      <trkpt lat="47.52229" lon="2.0557215">
        <ele>155.0</ele>
        <time>2022-05-19T09:14:19Z</time>
      </trkpt>
      <trkpt lat="47.52229" lon="2.0557215">
        <ele>155.0</ele>
        <time>2022-05-19T09:14:20Z</time>
      </trkpt>
      <trkpt lat="47.52229" lon="2.0557215">
        <ele>155.0</ele>
        <time>2022-05-19T09:14:21Z</time>
      </trkpt>
      <trkpt lat="47.522274" lon="2.0557337">
        <ele>155.0</ele>
        <time>2022-05-19T09:14:22Z</time>
      </trkpt>
      <trkpt lat="47.522266" lon="2.0557425">
        <ele>155.0</ele>
        <time>2022-05-19T09:14:23Z</time>
      </trkpt>
      <trkpt lat="47.52226" lon="2.0557477">
        <ele>155.0</ele>
        <time>2022-05-19T09:14:24Z</time>
      </trkpt>
      <trkpt lat="47.52225" lon="2.055756">
        <ele>155.0</ele>
        <time>2022-05-19T09:14:25Z</time>
      </trkpt>
      <trkpt lat="47.522236" lon="2.055769">
        <ele>154.0</ele>
        <time>2022-05-19T09:14:26Z</time>
      </trkpt>
      <trkpt lat="47.522236" lon="2.055769">
        <ele>154.0</ele>
        <time>2022-05-19T09:14:26Z</time>
      </trkpt>
      <trkpt lat="47.522217" lon="2.0557804">
        <ele>154.0</ele>
        <time>2022-05-19T09:14:27Z</time>
      </trkpt>
      <trkpt lat="47.522205" lon="2.0558045">
        <ele>154.0</ele>
        <time>2022-05-19T09:14:28Z</time>
      </trkpt>
      <trkpt lat="47.522194" lon="2.0558362">
        <ele>154.0</ele>
        <time>2022-05-19T09:14:29Z</time>
      </trkpt>
      <trkpt lat="47.522186" lon="2.05585">
        <ele>154.0</ele>
        <time>2022-05-19T09:14:30Z</time>
      </trkpt>
      <trkpt lat="47.522182" lon="2.0558734">
        <ele>154.0</ele>
        <time>2022-05-19T09:14:31Z</time>
      </trkpt>
      <trkpt lat="47.522182" lon="2.0558908">
        <ele>153.0</ele>
        <time>2022-05-19T09:14:32Z</time>
      </trkpt>
      <trkpt lat="47.52218" lon="2.0559099">
        <ele>153.0</ele>
        <time>2022-05-19T09:14:33Z</time>
      </trkpt>
      <trkpt lat="47.52218" lon="2.05593">
        <ele>153.0</ele>
        <time>2022-05-19T09:14:34Z</time>
      </trkpt>
      <trkpt lat="47.522175" lon="2.0559447">
        <ele>153.0</ele>
        <time>2022-05-19T09:14:35Z</time>
      </trkpt>
      <trkpt lat="47.522167" lon="2.0559585">
        <ele>153.0</ele>
        <time>2022-05-19T09:14:36Z</time>
      </trkpt>
      <trkpt lat="47.522167" lon="2.0559585">
        <ele>153.0</ele>
        <time>2022-05-19T09:14:37Z</time>
      </trkpt>
      <trkpt lat="47.52216" lon="2.0559838">
        <ele>153.0</ele>
        <time>2022-05-19T09:14:38Z</time>
      </trkpt>
      <trkpt lat="47.52216" lon="2.0560012">
        <ele>153.0</ele>
        <time>2022-05-19T09:14:39Z</time>
      </trkpt>
      <trkpt lat="47.522152" lon="2.0560145">
        <ele>153.0</ele>
        <time>2022-05-19T09:14:40Z</time>
      </trkpt>
      <trkpt lat="47.522144" lon="2.0560265">
        <ele>153.0</ele>
        <time>2022-05-19T09:14:41Z</time>
      </trkpt>
      <trkpt lat="47.52214" lon="2.056038">
        <ele>153.0</ele>
        <time>2022-05-19T09:14:42Z</time>
      </trkpt>
      <trkpt lat="47.522133" lon="2.0560505">
        <ele>153.0</ele>
        <time>2022-05-19T09:14:43Z</time>
      </trkpt>
      <trkpt lat="47.522125" lon="2.056064">
        <ele>153.0</ele>
        <time>2022-05-19T09:14:44Z</time>
      </trkpt>
      <trkpt lat="47.52213" lon="2.0560815">
        <ele>153.0</ele>
        <time>2022-05-19T09:14:45Z</time>
      </trkpt>
      <trkpt lat="47.52213" lon="2.056103">
        <ele>153.0</ele>
        <time>2022-05-19T09:14:46Z</time>
      </trkpt>
      <trkpt lat="47.522125" lon="2.0561275">
        <ele>153.0</ele>
        <time>2022-05-19T09:14:47Z</time>
      </trkpt>
      <trkpt lat="47.52212" lon="2.0561512">
        <ele>153.0</ele>
        <time>2022-05-19T09:14:48Z</time>
      </trkpt>
      <trkpt lat="47.52212" lon="2.0561664">
        <ele>153.0</ele>
        <time>2022-05-19T09:14:49Z</time>
      </trkpt>
      <trkpt lat="47.522114" lon="2.0561821">
        <ele>153.0</ele>
        <time>2022-05-19T09:14:50Z</time>
      </trkpt>
      <trkpt lat="47.522118" lon="2.0561974">
        <ele>154.0</ele>
        <time>2022-05-19T09:14:51Z</time>
      </trkpt>
      <trkpt lat="47.522114" lon="2.056216">
        <ele>155.0</ele>
        <time>2022-05-19T09:14:52Z</time>
      </trkpt>
      <trkpt lat="47.522114" lon="2.0562348">
        <ele>154.0</ele>
        <time>2022-05-19T09:14:53Z</time>
      </trkpt>
      <trkpt lat="47.522106" lon="2.0562532">
        <ele>155.0</ele>
        <time>2022-05-19T09:14:54Z</time>
      </trkpt>
      <trkpt lat="47.522106" lon="2.0562685">
        <ele>155.0</ele>
        <time>2022-05-19T09:14:55Z</time>
      </trkpt>
      <trkpt lat="47.522102" lon="2.0562856">
        <ele>155.0</ele>
        <time>2022-05-19T09:14:56Z</time>
      </trkpt>
      <trkpt lat="47.522095" lon="2.0563095">
        <ele>156.0</ele>
        <time>2022-05-19T09:14:57Z</time>
      </trkpt>
      <trkpt lat="47.522087" lon="2.0563376">
        <ele>156.0</ele>
        <time>2022-05-19T09:14:58Z</time>
      </trkpt>
      <trkpt lat="47.52208" lon="2.056365">
        <ele>156.0</ele>
        <time>2022-05-19T09:14:59Z</time>
      </trkpt>
      <trkpt lat="47.52207" lon="2.056385">
        <ele>156.0</ele>
        <time>2022-05-19T09:15:00Z</time>
      </trkpt>
      <trkpt lat="47.522068" lon="2.0564098">
        <ele>156.0</ele>
        <time>2022-05-19T09:15:01Z</time>
      </trkpt>
      <trkpt lat="47.522064" lon="2.0564222">
        <ele>156.0</ele>
        <time>2022-05-19T09:15:02Z</time>
      </trkpt>
      <trkpt lat="47.522064" lon="2.056436">
        <ele>156.0</ele>
        <time>2022-05-19T09:15:03Z</time>
      </trkpt>
      <trkpt lat="47.522064" lon="2.0564494">
        <ele>155.0</ele>
        <time>2022-05-19T09:15:04Z</time>
      </trkpt>
      <trkpt lat="47.52206" lon="2.0564604">
        <ele>155.0</ele>
        <time>2022-05-19T09:15:05Z</time>
      </trkpt>
      <trkpt lat="47.522068" lon="2.056466">
        <ele>155.0</ele>
        <time>2022-05-19T09:15:06Z</time>
      </trkpt>
      <trkpt lat="47.522064" lon="2.05648">
        <ele>154.0</ele>
        <time>2022-05-19T09:15:07Z</time>
      </trkpt>
      <trkpt lat="47.522057" lon="2.0564942">
        <ele>153.0</ele>
        <time>2022-05-19T09:15:08Z</time>
      </trkpt>
      <trkpt lat="47.52205" lon="2.056499">
        <ele>154.0</ele>
        <time>2022-05-19T09:15:09Z</time>
      </trkpt>
      <trkpt lat="47.52204" lon="2.056518">
        <ele>153.0</ele>
        <time>2022-05-19T09:15:10Z</time>
      </trkpt>
      <trkpt lat="47.52204" lon="2.0565248">
        <ele>154.0</ele>
        <time>2022-05-19T09:15:11Z</time>
      </trkpt>
      <trkpt lat="47.522034" lon="2.0565267">
        <ele>154.0</ele>
        <time>2022-05-19T09:15:12Z</time>
      </trkpt>
      <trkpt lat="47.52203" lon="2.0565333">
        <ele>154.0</ele>
        <time>2022-05-19T09:15:13Z</time>
      </trkpt>
      <trkpt lat="47.522022" lon="2.056548">
        <ele>154.0</ele>
        <time>2022-05-19T09:15:14Z</time>
      </trkpt>
      <trkpt lat="47.52201" lon="2.05657">
        <ele>154.0</ele>
        <time>2022-05-19T09:15:15Z</time>
      </trkpt>
      <trkpt lat="47.522003" lon="2.056595">
        <ele>154.0</ele>
        <time>2022-05-19T09:15:16Z</time>
      </trkpt>
      <trkpt lat="47.52199" lon="2.0566115">
        <ele>154.0</ele>
        <time>2022-05-19T09:15:17Z</time>
      </trkpt>
      <trkpt lat="47.521984" lon="2.0566294">
        <ele>153.0</ele>
        <time>2022-05-19T09:15:18Z</time>
      </trkpt>
      <trkpt lat="47.521976" lon="2.056641">
        <ele>153.0</ele>
        <time>2022-05-19T09:15:19Z</time>
      </trkpt>
      <trkpt lat="47.521976" lon="2.0566542">
        <ele>153.0</ele>
        <time>2022-05-19T09:15:20Z</time>
      </trkpt>
      <trkpt lat="47.521973" lon="2.0566673">
        <ele>153.0</ele>
        <time>2022-05-19T09:15:21Z</time>
      </trkpt>
      <trkpt lat="47.52197" lon="2.056683">
        <ele>152.0</ele>
        <time>2022-05-19T09:15:22Z</time>
      </trkpt>
      <trkpt lat="47.521965" lon="2.0567007">
        <ele>152.0</ele>
        <time>2022-05-19T09:15:23Z</time>
      </trkpt>
      <trkpt lat="47.52196" lon="2.0567207">
        <ele>152.0</ele>
        <time>2022-05-19T09:15:24Z</time>
      </trkpt>
      <trkpt lat="47.521954" lon="2.0567353">
        <ele>152.0</ele>
        <time>2022-05-19T09:15:25Z</time>
      </trkpt>
      <trkpt lat="47.521954" lon="2.0567498">
        <ele>151.0</ele>
        <time>2022-05-19T09:15:26Z</time>
      </trkpt>
      <trkpt lat="47.52195" lon="2.0567677">
        <ele>151.0</ele>
        <time>2022-05-19T09:15:27Z</time>
      </trkpt>
      <trkpt lat="47.521942" lon="2.0567865">
        <ele>151.0</ele>
        <time>2022-05-19T09:15:28Z</time>
      </trkpt>
      <trkpt lat="47.521935" lon="2.0567994">
        <ele>151.0</ele>
        <time>2022-05-19T09:15:29Z</time>
      </trkpt>
      <trkpt lat="47.521927" lon="2.0568087">
        <ele>151.0</ele>
        <time>2022-05-19T09:15:30Z</time>
      </trkpt>
      <trkpt lat="47.521923" lon="2.0568187">
        <ele>152.0</ele>
        <time>2022-05-19T09:15:31Z</time>
      </trkpt>
      <trkpt lat="47.52192" lon="2.05683">
        <ele>152.0</ele>
        <time>2022-05-19T09:15:32Z</time>
      </trkpt>
      <trkpt lat="47.521915" lon="2.0568419">
        <ele>152.0</ele>
        <time>2022-05-19T09:15:33Z</time>
      </trkpt>
      <trkpt lat="47.521908" lon="2.0568597">
        <ele>152.0</ele>
        <time>2022-05-19T09:15:34Z</time>
      </trkpt>
      <trkpt lat="47.521908" lon="2.0568762">
        <ele>152.0</ele>
        <time>2022-05-19T09:15:35Z</time>
      </trkpt>
      <trkpt lat="47.5219" lon="2.0568943">
        <ele>152.0</ele>
        <time>2022-05-19T09:15:36Z</time>
      </trkpt>
      <trkpt lat="47.5219" lon="2.0569098">
        <ele>152.0</ele>
        <time>2022-05-19T09:15:37Z</time>
      </trkpt>
      <trkpt lat="47.5219" lon="2.0569117">
        <ele>152.0</ele>
        <time>2022-05-19T09:15:38Z</time>
      </trkpt>
      <trkpt lat="47.521896" lon="2.0569222">
        <ele>152.0</ele>
        <time>2022-05-19T09:15:39Z</time>
      </trkpt>
      <trkpt lat="47.521893" lon="2.0569382">
        <ele>152.0</ele>
        <time>2022-05-19T09:15:40Z</time>
      </trkpt>
      <trkpt lat="47.52188" lon="2.056955">
        <ele>152.0</ele>
        <time>2022-05-19T09:15:41Z</time>
      </trkpt>
      <trkpt lat="47.521873" lon="2.056976">
        <ele>152.0</ele>
        <time>2022-05-19T09:15:42Z</time>
      </trkpt>
      <trkpt lat="47.52187" lon="2.0569968">
        <ele>153.0</ele>
        <time>2022-05-19T09:15:43Z</time>
      </trkpt>
      <trkpt lat="47.521866" lon="2.0570173">
        <ele>152.0</ele>
        <time>2022-05-19T09:15:44Z</time>
      </trkpt>
      <trkpt lat="47.52186" lon="2.0570357">
        <ele>152.0</ele>
        <time>2022-05-19T09:15:45Z</time>
      </trkpt>
      <trkpt lat="47.52185" lon="2.0570598">
        <ele>152.0</ele>
        <time>2022-05-19T09:15:46Z</time>
      </trkpt>
      <trkpt lat="47.521847" lon="2.0570753">
        <ele>152.0</ele>
        <time>2022-05-19T09:15:47Z</time>
      </trkpt>
      <trkpt lat="47.521847" lon="2.0570977">
        <ele>152.0</ele>
        <time>2022-05-19T09:15:48Z</time>
      </trkpt>
      <trkpt lat="47.521847" lon="2.0571113">
        <ele>152.0</ele>
        <time>2022-05-19T09:15:49Z</time>
      </trkpt>
      <trkpt lat="47.52185" lon="2.0571249">
        <ele>152.0</ele>
        <time>2022-05-19T09:15:50Z</time>
      </trkpt>
      <trkpt lat="47.521854" lon="2.0571373">
        <ele>152.0</ele>
        <time>2022-05-19T09:15:51Z</time>
      </trkpt>
      <trkpt lat="47.52185" lon="2.0571532">
        <ele>152.0</ele>
        <time>2022-05-19T09:15:52Z</time>
      </trkpt>
      <trkpt lat="47.52185" lon="2.0571623">
        <ele>152.0</ele>
        <time>2022-05-19T09:15:53Z</time>
      </trkpt>
      <trkpt lat="47.52185" lon="2.057178">
        <ele>152.0</ele>
        <time>2022-05-19T09:15:54Z</time>
      </trkpt>
      <trkpt lat="47.521843" lon="2.0571876">
        <ele>153.0</ele>
        <time>2022-05-19T09:15:55Z</time>
      </trkpt>
      <trkpt lat="47.52185" lon="2.0572093">
        <ele>152.0</ele>
        <time>2022-05-19T09:15:56Z</time>
      </trkpt>
      <trkpt lat="47.52185" lon="2.0572233">
        <ele>152.0</ele>
        <time>2022-05-19T09:15:57Z</time>
      </trkpt>
      <trkpt lat="47.52185" lon="2.0572338">
        <ele>152.0</ele>
        <time>2022-05-19T09:15:58Z</time>
      </trkpt>
      <trkpt lat="47.521847" lon="2.0572479">
        <ele>152.0</ele>
        <time>2022-05-19T09:15:59Z</time>
      </trkpt>
      <trkpt lat="47.521843" lon="2.057263">
        <ele>151.0</ele>
        <time>2022-05-19T09:16:00Z</time>
      </trkpt>
      <trkpt lat="47.521843" lon="2.0572793">
        <ele>151.0</ele>
        <time>2022-05-19T09:16:01Z</time>
      </trkpt>
      <trkpt lat="47.521835" lon="2.0572987">
        <ele>151.0</ele>
        <time>2022-05-19T09:16:02Z</time>
      </trkpt>
      <trkpt lat="47.52183" lon="2.057316">
        <ele>151.0</ele>
        <time>2022-05-19T09:16:03Z</time>
      </trkpt>
      <trkpt lat="47.521828" lon="2.057326">
        <ele>151.0</ele>
        <time>2022-05-19T09:16:04Z</time>
      </trkpt>
      <trkpt lat="47.521828" lon="2.057326">
        <ele>151.0</ele>
        <time>2022-05-19T09:16:05Z</time>
      </trkpt>
      <trkpt lat="47.521828" lon="2.057326">
        <ele>151.0</ele>
        <time>2022-05-19T09:16:06Z</time>
      </trkpt>
      <trkpt lat="47.521816" lon="2.0573363">
        <ele>151.0</ele>
        <time>2022-05-19T09:16:07Z</time>
      </trkpt>
      <trkpt lat="47.521816" lon="2.0573406">
        <ele>151.0</ele>
        <time>2022-05-19T09:16:08Z</time>
      </trkpt>
      <trkpt lat="47.521812" lon="2.057346">
        <ele>151.0</ele>
        <time>2022-05-19T09:16:09Z</time>
      </trkpt>
      <trkpt lat="47.521805" lon="2.057363">
        <ele>151.0</ele>
        <time>2022-05-19T09:16:10Z</time>
      </trkpt>
      <trkpt lat="47.521797" lon="2.0573783">
        <ele>150.0</ele>
        <time>2022-05-19T09:16:11Z</time>
      </trkpt>
      <trkpt lat="47.521793" lon="2.057392">
        <ele>150.0</ele>
        <time>2022-05-19T09:16:12Z</time>
      </trkpt>
      <trkpt lat="47.521782" lon="2.0574088">
        <ele>150.0</ele>
        <time>2022-05-19T09:16:13Z</time>
      </trkpt>
      <trkpt lat="47.52178" lon="2.0574262">
        <ele>150.0</ele>
        <time>2022-05-19T09:16:14Z</time>
      </trkpt>
      <trkpt lat="47.52178" lon="2.0574427">
        <ele>149.0</ele>
        <time>2022-05-19T09:16:15Z</time>
      </trkpt>
      <trkpt lat="47.52178" lon="2.0574613">
        <ele>150.0</ele>
        <time>2022-05-19T09:16:16Z</time>
      </trkpt>
      <trkpt lat="47.52178" lon="2.0574777">
        <ele>150.0</ele>
        <time>2022-05-19T09:16:17Z</time>
      </trkpt>
      <trkpt lat="47.521774" lon="2.0574918">
        <ele>149.0</ele>
        <time>2022-05-19T09:16:18Z</time>
      </trkpt>
      <trkpt lat="47.52178" lon="2.0575027">
        <ele>149.0</ele>
        <time>2022-05-19T09:16:19Z</time>
      </trkpt>
      <trkpt lat="47.52178" lon="2.0575242">
        <ele>150.0</ele>
        <time>2022-05-19T09:16:20Z</time>
      </trkpt>
      <trkpt lat="47.52178" lon="2.0575464">
        <ele>150.0</ele>
        <time>2022-05-19T09:16:21Z</time>
      </trkpt>
      <trkpt lat="47.521774" lon="2.0575683">
        <ele>150.0</ele>
        <time>2022-05-19T09:16:22Z</time>
      </trkpt>
      <trkpt lat="47.521767" lon="2.05759">
        <ele>150.0</ele>
        <time>2022-05-19T09:16:23Z</time>
      </trkpt>
      <trkpt lat="47.521767" lon="2.0576086">
        <ele>150.0</ele>
        <time>2022-05-19T09:16:24Z</time>
      </trkpt>
      <trkpt lat="47.52177" lon="2.0576427">
        <ele>150.0</ele>
        <time>2022-05-19T09:16:25Z</time>
      </trkpt>
      <trkpt lat="47.52177" lon="2.0576677">
        <ele>150.0</ele>
        <time>2022-05-19T09:16:26Z</time>
      </trkpt>
      <trkpt lat="47.52177" lon="2.0576859">
        <ele>150.0</ele>
        <time>2022-05-19T09:16:27Z</time>
      </trkpt>
      <trkpt lat="47.52177" lon="2.0577023">
        <ele>150.0</ele>
        <time>2022-05-19T09:16:28Z</time>
      </trkpt>
      <trkpt lat="47.521774" lon="2.057711">
        <ele>150.0</ele>
        <time>2022-05-19T09:16:29Z</time>
      </trkpt>
      <trkpt lat="47.52177" lon="2.057726">
        <ele>150.0</ele>
        <time>2022-05-19T09:16:30Z</time>
      </trkpt>
      <trkpt lat="47.521767" lon="2.057747">
        <ele>150.0</ele>
        <time>2022-05-19T09:16:31Z</time>
      </trkpt>
      <trkpt lat="47.521767" lon="2.0577574">
        <ele>150.0</ele>
        <time>2022-05-19T09:16:32Z</time>
      </trkpt>
      <trkpt lat="47.521767" lon="2.0577574">
        <ele>150.0</ele>
        <time>2022-05-19T09:16:33Z</time>
      </trkpt>
      <trkpt lat="47.521767" lon="2.0577574">
        <ele>150.0</ele>
        <time>2022-05-19T09:16:34Z</time>
      </trkpt>
      <trkpt lat="47.521767" lon="2.0577977">
        <ele>150.0</ele>
        <time>2022-05-19T09:16:35Z</time>
      </trkpt>
      <trkpt lat="47.521767" lon="2.0578167">
        <ele>150.0</ele>
        <time>2022-05-19T09:16:36Z</time>
      </trkpt>
      <trkpt lat="47.521763" lon="2.0578372">
        <ele>150.0</ele>
        <time>2022-05-19T09:16:37Z</time>
      </trkpt>
      <trkpt lat="47.521763" lon="2.0578578">
        <ele>150.0</ele>
        <time>2022-05-19T09:16:38Z</time>
      </trkpt>
      <trkpt lat="47.52176" lon="2.0578768">
        <ele>150.0</ele>
        <time>2022-05-19T09:16:39Z</time>
      </trkpt>
      <trkpt lat="47.52176" lon="2.0578918">
        <ele>150.0</ele>
        <time>2022-05-19T09:16:40Z</time>
      </trkpt>
      <trkpt lat="47.52176" lon="2.05791">
        <ele>150.0</ele>
        <time>2022-05-19T09:16:41Z</time>
      </trkpt>
      <trkpt lat="47.521763" lon="2.0579247">
        <ele>150.0</ele>
        <time>2022-05-19T09:16:42Z</time>
      </trkpt>
      <trkpt lat="47.521763" lon="2.0579438">
        <ele>150.0</ele>
        <time>2022-05-19T09:16:43Z</time>
      </trkpt>
      <trkpt lat="47.521767" lon="2.0579536">
        <ele>150.0</ele>
        <time>2022-05-19T09:16:44Z</time>
      </trkpt>
      <trkpt lat="47.521767" lon="2.0579653">
        <ele>150.0</ele>
        <time>2022-05-19T09:16:45Z</time>
      </trkpt>
      <trkpt lat="47.521767" lon="2.0579844">
        <ele>150.0</ele>
        <time>2022-05-19T09:16:46Z</time>
      </trkpt>
      <trkpt lat="47.521763" lon="2.0580034">
        <ele>150.0</ele>
        <time>2022-05-19T09:16:47Z</time>
      </trkpt>
      <trkpt lat="47.52176" lon="2.0580325">
        <ele>150.0</ele>
        <time>2022-05-19T09:16:48Z</time>
      </trkpt>
      <trkpt lat="47.521763" lon="2.05805">
        <ele>150.0</ele>
        <time>2022-05-19T09:16:49Z</time>
      </trkpt>
      <trkpt lat="47.521767" lon="2.0580685">
        <ele>150.0</ele>
        <time>2022-05-19T09:16:50Z</time>
      </trkpt>
      <trkpt lat="47.521763" lon="2.0580902">
        <ele>151.0</ele>
        <time>2022-05-19T09:16:51Z</time>
      </trkpt>
      <trkpt lat="47.521755" lon="2.058109">
        <ele>150.0</ele>
        <time>2022-05-19T09:16:52Z</time>
      </trkpt>
      <trkpt lat="47.52175" lon="2.0581262">
        <ele>150.0</ele>
        <time>2022-05-19T09:16:53Z</time>
      </trkpt>
      <trkpt lat="47.521748" lon="2.0581472">
        <ele>150.0</ele>
        <time>2022-05-19T09:16:54Z</time>
      </trkpt>
      <trkpt lat="47.521755" lon="2.0581613">
        <ele>150.0</ele>
        <time>2022-05-19T09:16:55Z</time>
      </trkpt>
      <trkpt lat="47.52176" lon="2.0581682">
        <ele>150.0</ele>
        <time>2022-05-19T09:16:56Z</time>
      </trkpt>
      <trkpt lat="47.521763" lon="2.058172">
        <ele>150.0</ele>
        <time>2022-05-19T09:16:57Z</time>
      </trkpt>
      <trkpt lat="47.52176" lon="2.058173">
        <ele>150.0</ele>
        <time>2022-05-19T09:16:58Z</time>
      </trkpt>
      <trkpt lat="47.521755" lon="2.0581694">
        <ele>150.0</ele>
        <time>2022-05-19T09:16:59Z</time>
      </trkpt>
      <trkpt lat="47.521755" lon="2.0581665">
        <ele>150.0</ele>
        <time>2022-05-19T09:17:00Z</time>
      </trkpt>
      <trkpt lat="47.521755" lon="2.0581717">
        <ele>149.0</ele>
        <time>2022-05-19T09:17:01Z</time>
      </trkpt>
      <trkpt lat="47.52176" lon="2.058179">
        <ele>149.0</ele>
        <time>2022-05-19T09:17:02Z</time>
      </trkpt>
      <trkpt lat="47.521755" lon="2.0581937">
        <ele>149.0</ele>
        <time>2022-05-19T09:17:03Z</time>
      </trkpt>
      <trkpt lat="47.521755" lon="2.0582192">
        <ele>149.0</ele>
        <time>2022-05-19T09:17:04Z</time>
      </trkpt>
      <trkpt lat="47.521748" lon="2.0582492">
        <ele>149.0</ele>
        <time>2022-05-19T09:17:05Z</time>
      </trkpt>
      <trkpt lat="47.521744" lon="2.0582738">
        <ele>149.0</ele>
        <time>2022-05-19T09:17:06Z</time>
      </trkpt>
      <trkpt lat="47.521736" lon="2.0582855">
        <ele>150.0</ele>
        <time>2022-05-19T09:17:07Z</time>
      </trkpt>
      <trkpt lat="47.521732" lon="2.0582979">
        <ele>149.0</ele>
        <time>2022-05-19T09:17:08Z</time>
      </trkpt>
      <trkpt lat="47.521732" lon="2.0583148">
        <ele>149.0</ele>
        <time>2022-05-19T09:17:09Z</time>
      </trkpt>
      <trkpt lat="47.521736" lon="2.058333">
        <ele>149.0</ele>
        <time>2022-05-19T09:17:10Z</time>
      </trkpt>
      <trkpt lat="47.52173" lon="2.0583522">
        <ele>149.0</ele>
        <time>2022-05-19T09:17:11Z</time>
      </trkpt>
      <trkpt lat="47.52173" lon="2.0583787">
        <ele>149.0</ele>
        <time>2022-05-19T09:17:12Z</time>
      </trkpt>
      <trkpt lat="47.52173" lon="2.0584023">
        <ele>149.0</ele>
        <time>2022-05-19T09:17:13Z</time>
      </trkpt>
      <trkpt lat="47.52173" lon="2.058424">
        <ele>149.0</ele>
        <time>2022-05-19T09:17:14Z</time>
      </trkpt>
      <trkpt lat="47.52173" lon="2.058446">
        <ele>149.0</ele>
        <time>2022-05-19T09:17:15Z</time>
      </trkpt>
      <trkpt lat="47.521725" lon="2.0584655">
        <ele>149.0</ele>
        <time>2022-05-19T09:17:16Z</time>
      </trkpt>
      <trkpt lat="47.521725" lon="2.058486">
        <ele>149.0</ele>
        <time>2022-05-19T09:17:17Z</time>
      </trkpt>
      <trkpt lat="47.52172" lon="2.0585077">
        <ele>149.0</ele>
        <time>2022-05-19T09:17:18Z</time>
      </trkpt>
      <trkpt lat="47.52172" lon="2.0585253">
        <ele>149.0</ele>
        <time>2022-05-19T09:17:19Z</time>
      </trkpt>
      <trkpt lat="47.52172" lon="2.058547">
        <ele>149.0</ele>
        <time>2022-05-19T09:17:20Z</time>
      </trkpt>
      <trkpt lat="47.52172" lon="2.0585594">
        <ele>149.0</ele>
        <time>2022-05-19T09:17:21Z</time>
      </trkpt>
      <trkpt lat="47.521717" lon="2.05858">
        <ele>149.0</ele>
        <time>2022-05-19T09:17:22Z</time>
      </trkpt>
      <trkpt lat="47.521713" lon="2.0586047">
        <ele>149.0</ele>
        <time>2022-05-19T09:17:23Z</time>
      </trkpt>
      <trkpt lat="47.521713" lon="2.0586302">
        <ele>149.0</ele>
        <time>2022-05-19T09:17:24Z</time>
      </trkpt>
      <trkpt lat="47.52171" lon="2.0586486">
        <ele>149.0</ele>
        <time>2022-05-19T09:17:25Z</time>
      </trkpt>
      <trkpt lat="47.521717" lon="2.0586803">
        <ele>148.0</ele>
        <time>2022-05-19T09:17:26Z</time>
      </trkpt>
      <trkpt lat="47.52172" lon="2.0586967">
        <ele>148.0</ele>
        <time>2022-05-19T09:17:27Z</time>
      </trkpt>
      <trkpt lat="47.521725" lon="2.0587156">
        <ele>148.0</ele>
        <time>2022-05-19T09:17:28Z</time>
      </trkpt>
      <trkpt lat="47.52173" lon="2.058727">
        <ele>148.0</ele>
        <time>2022-05-19T09:17:29Z</time>
      </trkpt>
      <trkpt lat="47.52173" lon="2.0587432">
        <ele>148.0</ele>
        <time>2022-05-19T09:17:30Z</time>
      </trkpt>
      <trkpt lat="47.521725" lon="2.0587645">
        <ele>148.0</ele>
        <time>2022-05-19T09:17:31Z</time>
      </trkpt>
      <trkpt lat="47.52173" lon="2.0587916">
        <ele>148.0</ele>
        <time>2022-05-19T09:17:32Z</time>
      </trkpt>
      <trkpt lat="47.521725" lon="2.0588174">
        <ele>148.0</ele>
        <time>2022-05-19T09:17:33Z</time>
      </trkpt>
      <trkpt lat="47.52172" lon="2.0588393">
        <ele>148.0</ele>
        <time>2022-05-19T09:17:34Z</time>
      </trkpt>
      <trkpt lat="47.52172" lon="2.0588565">
        <ele>148.0</ele>
        <time>2022-05-19T09:17:35Z</time>
      </trkpt>
      <trkpt lat="47.521717" lon="2.0588684">
        <ele>148.0</ele>
        <time>2022-05-19T09:17:36Z</time>
      </trkpt>
      <trkpt lat="47.521717" lon="2.0588791">
        <ele>148.0</ele>
        <time>2022-05-19T09:17:37Z</time>
      </trkpt>
      <trkpt lat="47.521717" lon="2.0588791">
        <ele>148.0</ele>
        <time>2022-05-19T09:17:38Z</time>
      </trkpt>
      <trkpt lat="47.52172" lon="2.0589182">
        <ele>148.0</ele>
        <time>2022-05-19T09:17:39Z</time>
      </trkpt>
      <trkpt lat="47.52172" lon="2.0589325">
        <ele>148.0</ele>
        <time>2022-05-19T09:17:40Z</time>
      </trkpt>
      <trkpt lat="47.521717" lon="2.0589464">
        <ele>148.0</ele>
        <time>2022-05-19T09:17:41Z</time>
      </trkpt>
      <trkpt lat="47.521713" lon="2.058958">
        <ele>149.0</ele>
        <time>2022-05-19T09:17:42Z</time>
      </trkpt>
      <trkpt lat="47.521713" lon="2.05897">
        <ele>149.0</ele>
        <time>2022-05-19T09:17:43Z</time>
      </trkpt>
      <trkpt lat="47.52171" lon="2.0589874">
        <ele>150.0</ele>
        <time>2022-05-19T09:17:44Z</time>
      </trkpt>
      <trkpt lat="47.52171" lon="2.0590053">
        <ele>149.0</ele>
        <time>2022-05-19T09:17:45Z</time>
      </trkpt>
      <trkpt lat="47.521706" lon="2.059026">
        <ele>150.0</ele>
        <time>2022-05-19T09:17:46Z</time>
      </trkpt>
      <trkpt lat="47.52171" lon="2.059051">
        <ele>150.0</ele>
        <time>2022-05-19T09:17:47Z</time>
      </trkpt>
      <trkpt lat="47.52171" lon="2.0590768">
        <ele>150.0</ele>
        <time>2022-05-19T09:17:48Z</time>
      </trkpt>
      <trkpt lat="47.52171" lon="2.059091">
        <ele>150.0</ele>
        <time>2022-05-19T09:17:49Z</time>
      </trkpt>
      <trkpt lat="47.52171" lon="2.0591042">
        <ele>150.0</ele>
        <time>2022-05-19T09:17:50Z</time>
      </trkpt>
      <trkpt lat="47.521706" lon="2.0591207">
        <ele>150.0</ele>
        <time>2022-05-19T09:17:51Z</time>
      </trkpt>
      <trkpt lat="47.521706" lon="2.05914">
        <ele>150.0</ele>
        <time>2022-05-19T09:17:52Z</time>
      </trkpt>
      <trkpt lat="47.521706" lon="2.0591564">
        <ele>150.0</ele>
        <time>2022-05-19T09:17:53Z</time>
      </trkpt>
      <trkpt lat="47.521698" lon="2.0591826">
        <ele>150.0</ele>
        <time>2022-05-19T09:17:54Z</time>
      </trkpt>
      <trkpt lat="47.521698" lon="2.0592055">
        <ele>150.0</ele>
        <time>2022-05-19T09:17:55Z</time>
      </trkpt>
      <trkpt lat="47.521694" lon="2.0592234">
        <ele>149.0</ele>
        <time>2022-05-19T09:17:56Z</time>
      </trkpt>
      <trkpt lat="47.52169" lon="2.0592382">
        <ele>149.0</ele>
        <time>2022-05-19T09:17:57Z</time>
      </trkpt>
      <trkpt lat="47.52169" lon="2.0592513">
        <ele>148.0</ele>
        <time>2022-05-19T09:17:58Z</time>
      </trkpt>
      <trkpt lat="47.52169" lon="2.0592513">
        <ele>148.0</ele>
        <time>2022-05-19T09:17:59Z</time>
      </trkpt>
      <trkpt lat="47.52169" lon="2.0592513">
        <ele>148.0</ele>
        <time>2022-05-19T09:18:00Z</time>
      </trkpt>
      <trkpt lat="47.521683" lon="2.0592802">
        <ele>148.0</ele>
        <time>2022-05-19T09:18:01Z</time>
      </trkpt>
      <trkpt lat="47.521683" lon="2.0592957">
        <ele>148.0</ele>
        <time>2022-05-19T09:18:02Z</time>
      </trkpt>
      <trkpt lat="47.521683" lon="2.0593178">
        <ele>148.0</ele>
        <time>2022-05-19T09:18:03Z</time>
      </trkpt>
      <trkpt lat="47.521687" lon="2.0593398">
        <ele>148.0</ele>
        <time>2022-05-19T09:18:04Z</time>
      </trkpt>
      <trkpt lat="47.521687" lon="2.059359">
        <ele>148.0</ele>
        <time>2022-05-19T09:18:05Z</time>
      </trkpt>
      <trkpt lat="47.521687" lon="2.0593753">
        <ele>148.0</ele>
        <time>2022-05-19T09:18:06Z</time>
      </trkpt>
      <trkpt lat="47.521683" lon="2.0593863">
        <ele>148.0</ele>
        <time>2022-05-19T09:18:07Z</time>
      </trkpt>
      <trkpt lat="47.52168" lon="2.059398">
        <ele>148.0</ele>
        <time>2022-05-19T09:18:08Z</time>
      </trkpt>
      <trkpt lat="47.52167" lon="2.059418">
        <ele>148.0</ele>
        <time>2022-05-19T09:18:09Z</time>
      </trkpt>
      <trkpt lat="47.521667" lon="2.05944">
        <ele>148.0</ele>
        <time>2022-05-19T09:18:10Z</time>
      </trkpt>
      <trkpt lat="47.521664" lon="2.0594623">
        <ele>148.0</ele>
        <time>2022-05-19T09:18:11Z</time>
      </trkpt>
      <trkpt lat="47.521667" lon="2.059487">
        <ele>148.0</ele>
        <time>2022-05-19T09:18:12Z</time>
      </trkpt>
      <trkpt lat="47.521664" lon="2.0595105">
        <ele>148.0</ele>
        <time>2022-05-19T09:18:13Z</time>
      </trkpt>
      <trkpt lat="47.521664" lon="2.0595293">
        <ele>148.0</ele>
        <time>2022-05-19T09:18:14Z</time>
      </trkpt>
      <trkpt lat="47.52166" lon="2.0595436">
        <ele>148.0</ele>
        <time>2022-05-19T09:18:15Z</time>
      </trkpt>
      <trkpt lat="47.52166" lon="2.05956">
        <ele>148.0</ele>
        <time>2022-05-19T09:18:16Z</time>
      </trkpt>
      <trkpt lat="47.521656" lon="2.0595775">
        <ele>148.0</ele>
        <time>2022-05-19T09:18:17Z</time>
      </trkpt>
      <trkpt lat="47.52166" lon="2.059594">
        <ele>148.0</ele>
        <time>2022-05-19T09:18:18Z</time>
      </trkpt>
      <trkpt lat="47.52166" lon="2.0596056">
        <ele>148.0</ele>
        <time>2022-05-19T09:18:19Z</time>
      </trkpt>
      <trkpt lat="47.52166" lon="2.0596201">
        <ele>148.0</ele>
        <time>2022-05-19T09:18:20Z</time>
      </trkpt>
      <trkpt lat="47.521664" lon="2.0596359">
        <ele>148.0</ele>
        <time>2022-05-19T09:18:21Z</time>
      </trkpt>
      <trkpt lat="47.52166" lon="2.0596573">
        <ele>147.0</ele>
        <time>2022-05-19T09:18:22Z</time>
      </trkpt>
      <trkpt lat="47.521656" lon="2.0596728">
        <ele>147.0</ele>
        <time>2022-05-19T09:18:23Z</time>
      </trkpt>
      <trkpt lat="47.521652" lon="2.059687">
        <ele>147.0</ele>
        <time>2022-05-19T09:18:24Z</time>
      </trkpt>
      <trkpt lat="47.521652" lon="2.0596962">
        <ele>147.0</ele>
        <time>2022-05-19T09:18:25Z</time>
      </trkpt>
      <trkpt lat="47.521656" lon="2.059704">
        <ele>147.0</ele>
        <time>2022-05-19T09:18:26Z</time>
      </trkpt>
      <trkpt lat="47.52166" lon="2.0597103">
        <ele>147.0</ele>
        <time>2022-05-19T09:18:27Z</time>
      </trkpt>
      <trkpt lat="47.521656" lon="2.0597255">
        <ele>147.0</ele>
        <time>2022-05-19T09:18:28Z</time>
      </trkpt>
      <trkpt lat="47.521652" lon="2.0597486">
        <ele>147.0</ele>
        <time>2022-05-19T09:18:29Z</time>
      </trkpt>
      <trkpt lat="47.521652" lon="2.0597644">
        <ele>147.0</ele>
        <time>2022-05-19T09:18:30Z</time>
      </trkpt>
      <trkpt lat="47.52165" lon="2.059784">
        <ele>147.0</ele>
        <time>2022-05-19T09:18:31Z</time>
      </trkpt>
      <trkpt lat="47.521652" lon="2.0598102">
        <ele>147.0</ele>
        <time>2022-05-19T09:18:32Z</time>
      </trkpt>
      <trkpt lat="47.521652" lon="2.0598323">
        <ele>146.0</ele>
        <time>2022-05-19T09:18:33Z</time>
      </trkpt>
      <trkpt lat="47.521656" lon="2.05985">
        <ele>147.0</ele>
        <time>2022-05-19T09:18:34Z</time>
      </trkpt>
      <trkpt lat="47.521656" lon="2.0598726">
        <ele>146.0</ele>
        <time>2022-05-19T09:18:35Z</time>
      </trkpt>
      <trkpt lat="47.521656" lon="2.0598938">
        <ele>146.0</ele>
        <time>2022-05-19T09:18:36Z</time>
      </trkpt>
      <trkpt lat="47.52165" lon="2.0599124">
        <ele>146.0</ele>
        <time>2022-05-19T09:18:37Z</time>
      </trkpt>
      <trkpt lat="47.521645" lon="2.0599287">
        <ele>147.0</ele>
        <time>2022-05-19T09:18:38Z</time>
      </trkpt>
      <trkpt lat="47.521645" lon="2.059945">
        <ele>147.0</ele>
        <time>2022-05-19T09:18:39Z</time>
      </trkpt>
      <trkpt lat="47.52164" lon="2.0599651">
        <ele>147.0</ele>
        <time>2022-05-19T09:18:40Z</time>
      </trkpt>
      <trkpt lat="47.521645" lon="2.0599785">
        <ele>147.0</ele>
        <time>2022-05-19T09:18:41Z</time>
      </trkpt>
      <trkpt lat="47.521645" lon="2.059996">
        <ele>147.0</ele>
        <time>2022-05-19T09:18:42Z</time>
      </trkpt>
      <trkpt lat="47.521645" lon="2.0600204">
        <ele>147.0</ele>
        <time>2022-05-19T09:18:43Z</time>
      </trkpt>
      <trkpt lat="47.521652" lon="2.06004">
        <ele>147.0</ele>
        <time>2022-05-19T09:18:44Z</time>
      </trkpt>
      <trkpt lat="47.52165" lon="2.0600557">
        <ele>147.0</ele>
        <time>2022-05-19T09:18:45Z</time>
      </trkpt>
      <trkpt lat="47.52165" lon="2.060072">
        <ele>146.0</ele>
        <time>2022-05-19T09:18:46Z</time>
      </trkpt>
      <trkpt lat="47.521645" lon="2.0600843">
        <ele>146.0</ele>
        <time>2022-05-19T09:18:47Z</time>
      </trkpt>
      <trkpt lat="47.52164" lon="2.0600975">
        <ele>146.0</ele>
        <time>2022-05-19T09:18:48Z</time>
      </trkpt>
      <trkpt lat="47.521645" lon="2.0601199">
        <ele>146.0</ele>
        <time>2022-05-19T09:18:49Z</time>
      </trkpt>
      <trkpt lat="47.521645" lon="2.0601382">
        <ele>146.0</ele>
        <time>2022-05-19T09:18:50Z</time>
      </trkpt>
      <trkpt lat="47.521645" lon="2.0601528">
        <ele>146.0</ele>
        <time>2022-05-19T09:18:51Z</time>
      </trkpt>
      <trkpt lat="47.52164" lon="2.0601683">
        <ele>146.0</ele>
        <time>2022-05-19T09:18:52Z</time>
      </trkpt>
      <trkpt lat="47.52164" lon="2.0601938">
        <ele>147.0</ele>
        <time>2022-05-19T09:18:53Z</time>
      </trkpt>
      <trkpt lat="47.521637" lon="2.060208">
        <ele>147.0</ele>
        <time>2022-05-19T09:18:54Z</time>
      </trkpt>
      <trkpt lat="47.521637" lon="2.0602272">
        <ele>147.0</ele>
        <time>2022-05-19T09:18:55Z</time>
      </trkpt>
      <trkpt lat="47.521645" lon="2.060246">
        <ele>148.0</ele>
        <time>2022-05-19T09:18:57Z</time>
      </trkpt>
      <trkpt lat="47.52164" lon="2.0602727">
        <ele>148.0</ele>
        <time>2022-05-19T09:18:58Z</time>
      </trkpt>
      <trkpt lat="47.52164" lon="2.0602882">
        <ele>148.0</ele>
        <time>2022-05-19T09:18:59Z</time>
      </trkpt>
      <trkpt lat="47.52164" lon="2.0603085">
        <ele>148.0</ele>
        <time>2022-05-19T09:19:00Z</time>
      </trkpt>
      <trkpt lat="47.521645" lon="2.060332">
        <ele>148.0</ele>
        <time>2022-05-19T09:19:01Z</time>
      </trkpt>
      <trkpt lat="47.521652" lon="2.0603476">
        <ele>148.0</ele>
        <time>2022-05-19T09:19:02Z</time>
      </trkpt>
      <trkpt lat="47.521652" lon="2.0603654">
        <ele>148.0</ele>
        <time>2022-05-19T09:19:03Z</time>
      </trkpt>
      <trkpt lat="47.521652" lon="2.0603824">
        <ele>148.0</ele>
        <time>2022-05-19T09:19:04Z</time>
      </trkpt>
      <trkpt lat="47.521652" lon="2.0603945">
        <ele>147.0</ele>
        <time>2022-05-19T09:19:05Z</time>
      </trkpt>
      <trkpt lat="47.52165" lon="2.060408">
        <ele>147.0</ele>
        <time>2022-05-19T09:19:06Z</time>
      </trkpt>
      <trkpt lat="47.521645" lon="2.0604267">
        <ele>148.0</ele>
        <time>2022-05-19T09:19:07Z</time>
      </trkpt>
      <trkpt lat="47.521637" lon="2.0604475">
        <ele>149.0</ele>
        <time>2022-05-19T09:19:08Z</time>
      </trkpt>
      <trkpt lat="47.521637" lon="2.0604553">
        <ele>149.0</ele>
        <time>2022-05-19T09:19:09Z</time>
      </trkpt>
      <trkpt lat="47.521637" lon="2.0604603">
        <ele>150.0</ele>
        <time>2022-05-19T09:19:10Z</time>
      </trkpt>
      <trkpt lat="47.52164" lon="2.060464">
        <ele>150.0</ele>
        <time>2022-05-19T09:19:11Z</time>
      </trkpt>
      <trkpt lat="47.52164" lon="2.0604563">
        <ele>150.0</ele>
        <time>2022-05-19T09:19:12Z</time>
      </trkpt>
      <trkpt lat="47.52164" lon="2.0604563">
        <ele>150.0</ele>
        <time>2022-05-19T09:19:13Z</time>
      </trkpt>
      <trkpt lat="47.52165" lon="2.0604613">
        <ele>150.0</ele>
        <time>2022-05-19T09:19:14Z</time>
      </trkpt>
      <trkpt lat="47.521645" lon="2.0604734">
        <ele>150.0</ele>
        <time>2022-05-19T09:19:15Z</time>
      </trkpt>
      <trkpt lat="47.521645" lon="2.0604835">
        <ele>150.0</ele>
        <time>2022-05-19T09:19:16Z</time>
      </trkpt>
      <trkpt lat="47.52163" lon="2.0604932">
        <ele>150.0</ele>
        <time>2022-05-19T09:19:17Z</time>
      </trkpt>
      <trkpt lat="47.521614" lon="2.0604997">
        <ele>149.0</ele>
        <time>2022-05-19T09:19:18Z</time>
      </trkpt>
      <trkpt lat="47.521603" lon="2.0605104">
        <ele>150.0</ele>
        <time>2022-05-19T09:19:19Z</time>
      </trkpt>
      <trkpt lat="47.521595" lon="2.0605307">
        <ele>150.0</ele>
        <time>2022-05-19T09:19:20Z</time>
      </trkpt>
      <trkpt lat="47.521587" lon="2.0605414">
        <ele>151.0</ele>
        <time>2022-05-19T09:19:21Z</time>
      </trkpt>
      <trkpt lat="47.521584" lon="2.060555">
        <ele>151.0</ele>
        <time>2022-05-19T09:19:22Z</time>
      </trkpt>
      <trkpt lat="47.521584" lon="2.0605774">
        <ele>151.0</ele>
        <time>2022-05-19T09:19:23Z</time>
      </trkpt>
      <trkpt lat="47.521595" lon="2.0606167">
        <ele>151.0</ele>
        <time>2022-05-19T09:19:24Z</time>
      </trkpt>
      <trkpt lat="47.521595" lon="2.0606167">
        <ele>151.0</ele>
        <time>2022-05-19T09:19:24Z</time>
      </trkpt>
      <trkpt lat="47.521595" lon="2.0606167">
        <ele>151.0</ele>
        <time>2022-05-19T09:19:24Z</time>
      </trkpt>
      <trkpt lat="47.521572" lon="2.0609155">
        <ele>158.0</ele>
        <time>2022-05-19T09:20:37Z</time>
      </trkpt>
      <trkpt lat="47.521572" lon="2.0609612">
        <ele>158.0</ele>
        <time>2022-05-19T09:20:38Z</time>
      </trkpt>
      <trkpt lat="47.521572" lon="2.0610487">
        <ele>158.0</ele>
        <time>2022-05-19T09:20:40Z</time>
      </trkpt>
      <trkpt lat="47.52159" lon="2.0610702">
        <ele>158.0</ele>
        <time>2022-05-19T09:20:41Z</time>
      </trkpt>
      <trkpt lat="47.521606" lon="2.0610938">
        <ele>158.0</ele>
        <time>2022-05-19T09:20:42Z</time>
      </trkpt>
      <trkpt lat="47.52155" lon="2.0610278">
        <ele>158.0</ele>
        <time>2022-05-19T09:20:43Z</time>
      </trkpt>
      <trkpt lat="47.521515" lon="2.0609837">
        <ele>158.0</ele>
        <time>2022-05-19T09:20:44Z</time>
      </trkpt>
      <trkpt lat="47.521492" lon="2.0609417">
        <ele>158.0</ele>
        <time>2022-05-19T09:20:45Z</time>
      </trkpt>
      <trkpt lat="47.521465" lon="2.060892">
        <ele>158.0</ele>
        <time>2022-05-19T09:20:46Z</time>
      </trkpt>
      <trkpt lat="47.521492" lon="2.0608482">
        <ele>158.0</ele>
        <time>2022-05-19T09:20:47Z</time>
      </trkpt>
      <trkpt lat="47.521492" lon="2.0608482">
        <ele>158.0</ele>
        <time>2022-05-19T09:20:47Z</time>
      </trkpt>
      <trkpt lat="47.521492" lon="2.0608482">
        <ele>158.0</ele>
        <time>2022-05-19T09:20:47Z</time>
      </trkpt>
      <trkpt lat="47.521664" lon="2.0604756">
        <ele>163.0</ele>
        <time>2022-05-19T09:22:09Z</time>
      </trkpt>
      <trkpt lat="47.52164" lon="2.0605717">
        <ele>162.0</ele>
        <time>2022-05-19T09:22:10Z</time>
      </trkpt>
      <trkpt lat="47.521618" lon="2.0606468">
        <ele>162.0</ele>
        <time>2022-05-19T09:22:11Z</time>
      </trkpt>
      <trkpt lat="47.52161" lon="2.0606723">
        <ele>162.0</ele>
        <time>2022-05-19T09:22:12Z</time>
      </trkpt>
      <trkpt lat="47.521595" lon="2.0607038">
        <ele>162.0</ele>
        <time>2022-05-19T09:22:13Z</time>
      </trkpt>
      <trkpt lat="47.521584" lon="2.0607238">
        <ele>161.0</ele>
        <time>2022-05-19T09:22:14Z</time>
      </trkpt>
      <trkpt lat="47.52157" lon="2.0607386">
        <ele>161.0</ele>
        <time>2022-05-19T09:22:15Z</time>
      </trkpt>
      <trkpt lat="47.521557" lon="2.0607417">
        <ele>161.0</ele>
        <time>2022-05-19T09:22:16Z</time>
      </trkpt>
      <trkpt lat="47.521534" lon="2.0607674">
        <ele>161.0</ele>
        <time>2022-05-19T09:22:17Z</time>
      </trkpt>
      <trkpt lat="47.521526" lon="2.060758">
        <ele>161.0</ele>
        <time>2022-05-19T09:22:18Z</time>
      </trkpt>
      <trkpt lat="47.521515" lon="2.060768">
        <ele>160.0</ele>
        <time>2022-05-19T09:22:19Z</time>
      </trkpt>
      <trkpt lat="47.521515" lon="2.0607767">
        <ele>159.0</ele>
        <time>2022-05-19T09:22:20Z</time>
      </trkpt>
      <trkpt lat="47.521515" lon="2.0607886">
        <ele>159.0</ele>
        <time>2022-05-19T09:22:21Z</time>
      </trkpt>
      <trkpt lat="47.521507" lon="2.060798">
        <ele>159.0</ele>
        <time>2022-05-19T09:22:22Z</time>
      </trkpt>
      <trkpt lat="47.521503" lon="2.060794">
        <ele>159.0</ele>
        <time>2022-05-19T09:22:23Z</time>
      </trkpt>
      <trkpt lat="47.5215" lon="2.0608006">
        <ele>159.0</ele>
        <time>2022-05-19T09:22:24Z</time>
      </trkpt>
      <trkpt lat="47.5215" lon="2.0608006">
        <ele>159.0</ele>
        <time>2022-05-19T09:22:25Z</time>
      </trkpt>
      <trkpt lat="47.521492" lon="2.0608103">
        <ele>160.0</ele>
        <time>2022-05-19T09:22:26Z</time>
      </trkpt>
      <trkpt lat="47.521484" lon="2.0608099">
        <ele>160.0</ele>
        <time>2022-05-19T09:22:27Z</time>
      </trkpt>
      <trkpt lat="47.521477" lon="2.0608149">
        <ele>160.0</ele>
        <time>2022-05-19T09:22:28Z</time>
      </trkpt>
      <trkpt lat="47.52147" lon="2.0608194">
        <ele>160.0</ele>
        <time>2022-05-19T09:22:29Z</time>
      </trkpt>
      <trkpt lat="47.52146" lon="2.0608137">
        <ele>161.0</ele>
        <time>2022-05-19T09:22:30Z</time>
      </trkpt>
      <trkpt lat="47.521465" lon="2.060813">
        <ele>161.0</ele>
        <time>2022-05-19T09:22:31Z</time>
      </trkpt>
      <trkpt lat="47.52147" lon="2.0607986">
        <ele>161.0</ele>
        <time>2022-05-19T09:22:32Z</time>
      </trkpt>
      <trkpt lat="47.52147" lon="2.0607915">
        <ele>161.0</ele>
        <time>2022-05-19T09:22:33Z</time>
      </trkpt>
      <trkpt lat="47.52147" lon="2.0607915">
        <ele>161.0</ele>
        <time>2022-05-19T09:22:34Z</time>
      </trkpt>
      <trkpt lat="47.52146" lon="2.0607862">
        <ele>161.0</ele>
        <time>2022-05-19T09:22:35Z</time>
      </trkpt>
      <trkpt lat="47.521458" lon="2.0607767">
        <ele>161.0</ele>
        <time>2022-05-19T09:22:36Z</time>
      </trkpt>
      <trkpt lat="47.52146" lon="2.060764">
        <ele>161.0</ele>
        <time>2022-05-19T09:22:37Z</time>
      </trkpt>
      <trkpt lat="47.52146" lon="2.06075">
        <ele>161.0</ele>
        <time>2022-05-19T09:22:38Z</time>
      </trkpt>
      <trkpt lat="47.52146" lon="2.06075">
        <ele>161.0</ele>
        <time>2022-05-19T09:22:39Z</time>
      </trkpt>
      <trkpt lat="47.521454" lon="2.06072">
        <ele>160.0</ele>
        <time>2022-05-19T09:22:40Z</time>
      </trkpt>
      <trkpt lat="47.521446" lon="2.0607145">
        <ele>160.0</ele>
        <time>2022-05-19T09:22:41Z</time>
      </trkpt>
      <trkpt lat="47.521446" lon="2.0607047">
        <ele>160.0</ele>
        <time>2022-05-19T09:22:42Z</time>
      </trkpt>
      <trkpt lat="47.52144" lon="2.0607004">
        <ele>160.0</ele>
        <time>2022-05-19T09:22:43Z</time>
      </trkpt>
      <trkpt lat="47.52143" lon="2.0607038">
        <ele>160.0</ele>
        <time>2022-05-19T09:22:44Z</time>
      </trkpt>
      <trkpt lat="47.521423" lon="2.060708">
        <ele>160.0</ele>
        <time>2022-05-19T09:22:45Z</time>
      </trkpt>
      <trkpt lat="47.52141" lon="2.0607042">
        <ele>160.0</ele>
        <time>2022-05-19T09:22:46Z</time>
      </trkpt>
      <trkpt lat="47.521408" lon="2.0607002">
        <ele>160.0</ele>
        <time>2022-05-19T09:22:47Z</time>
      </trkpt>
      <trkpt lat="47.5214" lon="2.0607">
        <ele>160.0</ele>
        <time>2022-05-19T09:22:48Z</time>
      </trkpt>
      <trkpt lat="47.5214" lon="2.0606983">
        <ele>160.0</ele>
        <time>2022-05-19T09:22:49Z</time>
      </trkpt>
      <trkpt lat="47.5214" lon="2.0606983">
        <ele>160.0</ele>
        <time>2022-05-19T09:22:50Z</time>
      </trkpt>
      <trkpt lat="47.5214" lon="2.0606983">
        <ele>160.0</ele>
        <time>2022-05-19T09:22:51Z</time>
      </trkpt>
      <trkpt lat="47.5214" lon="2.0606983">
        <ele>160.0</ele>
        <time>2022-05-19T09:22:52Z</time>
      </trkpt>
      <trkpt lat="47.52138" lon="2.0606818">
        <ele>160.0</ele>
        <time>2022-05-19T09:22:53Z</time>
      </trkpt>
      <trkpt lat="47.521374" lon="2.0606747">
        <ele>160.0</ele>
        <time>2022-05-19T09:22:54Z</time>
      </trkpt>
      <trkpt lat="47.52137" lon="2.0606737">
        <ele>160.0</ele>
        <time>2022-05-19T09:22:55Z</time>
      </trkpt>
      <trkpt lat="47.521362" lon="2.0606797">
        <ele>159.0</ele>
        <time>2022-05-19T09:22:56Z</time>
      </trkpt>
      <trkpt lat="47.52135" lon="2.0606818">
        <ele>159.0</ele>
        <time>2022-05-19T09:22:57Z</time>
      </trkpt>
      <trkpt lat="47.521343" lon="2.0606816">
        <ele>160.0</ele>
        <time>2022-05-19T09:22:58Z</time>
      </trkpt>
      <trkpt lat="47.52134" lon="2.0606766">
        <ele>160.0</ele>
        <time>2022-05-19T09:22:59Z</time>
      </trkpt>
      <trkpt lat="47.521336" lon="2.0606704">
        <ele>160.0</ele>
        <time>2022-05-19T09:23:00Z</time>
      </trkpt>
      <trkpt lat="47.521336" lon="2.0606613">
        <ele>160.0</ele>
        <time>2022-05-19T09:23:01Z</time>
      </trkpt>
      <trkpt lat="47.521336" lon="2.0606544">
        <ele>159.0</ele>
        <time>2022-05-19T09:23:02Z</time>
      </trkpt>
      <trkpt lat="47.521336" lon="2.0606544">
        <ele>159.0</ele>
        <time>2022-05-19T09:23:03Z</time>
      </trkpt>
      <trkpt lat="47.521336" lon="2.0606544">
        <ele>159.0</ele>
        <time>2022-05-19T09:23:04Z</time>
      </trkpt>
      <trkpt lat="47.521324" lon="2.0606449">
        <ele>158.0</ele>
        <time>2022-05-19T09:23:05Z</time>
      </trkpt>
      <trkpt lat="47.52132" lon="2.0606382">
        <ele>158.0</ele>
        <time>2022-05-19T09:23:06Z</time>
      </trkpt>
      <trkpt lat="47.521324" lon="2.0606253">
        <ele>158.0</ele>
        <time>2022-05-19T09:23:07Z</time>
      </trkpt>
      <trkpt lat="47.52132" lon="2.060613">
        <ele>158.0</ele>
        <time>2022-05-19T09:23:08Z</time>
      </trkpt>
      <trkpt lat="47.52132" lon="2.0605989">
        <ele>158.0</ele>
        <time>2022-05-19T09:23:09Z</time>
      </trkpt>
      <trkpt lat="47.521324" lon="2.0605812">
        <ele>158.0</ele>
        <time>2022-05-19T09:23:10Z</time>
      </trkpt>
      <trkpt lat="47.521317" lon="2.0605745">
        <ele>157.0</ele>
        <time>2022-05-19T09:23:11Z</time>
      </trkpt>
      <trkpt lat="47.521313" lon="2.0605621">
        <ele>157.0</ele>
        <time>2022-05-19T09:23:12Z</time>
      </trkpt>
      <trkpt lat="47.5213" lon="2.0605574">
        <ele>156.0</ele>
        <time>2022-05-19T09:23:13Z</time>
      </trkpt>
      <trkpt lat="47.52129" lon="2.0605588">
        <ele>156.0</ele>
        <time>2022-05-19T09:23:14Z</time>
      </trkpt>
      <trkpt lat="47.52128" lon="2.0605712">
        <ele>156.0</ele>
        <time>2022-05-19T09:23:15Z</time>
      </trkpt>
      <trkpt lat="47.52127" lon="2.0605848">
        <ele>155.0</ele>
        <time>2022-05-19T09:23:16Z</time>
      </trkpt>
      <trkpt lat="47.521263" lon="2.0606124">
        <ele>155.0</ele>
        <time>2022-05-19T09:23:17Z</time>
      </trkpt>
      <trkpt lat="47.52126" lon="2.0606294">
        <ele>154.0</ele>
        <time>2022-05-19T09:23:18Z</time>
      </trkpt>
      <trkpt lat="47.521248" lon="2.0606508">
        <ele>154.0</ele>
        <time>2022-05-19T09:23:19Z</time>
      </trkpt>
      <trkpt lat="47.521236" lon="2.06067">
        <ele>154.0</ele>
        <time>2022-05-19T09:23:20Z</time>
      </trkpt>
      <trkpt lat="47.52122" lon="2.0606847">
        <ele>154.0</ele>
        <time>2022-05-19T09:23:21Z</time>
      </trkpt>
      <trkpt lat="47.52121" lon="2.060696">
        <ele>153.0</ele>
        <time>2022-05-19T09:23:22Z</time>
      </trkpt>
      <trkpt lat="47.521202" lon="2.0607111">
        <ele>154.0</ele>
        <time>2022-05-19T09:23:23Z</time>
      </trkpt>
      <trkpt lat="47.52119" lon="2.0607288">
        <ele>154.0</ele>
        <time>2022-05-19T09:23:24Z</time>
      </trkpt>
      <trkpt lat="47.52118" lon="2.0607433">
        <ele>154.0</ele>
        <time>2022-05-19T09:23:25Z</time>
      </trkpt>
      <trkpt lat="47.52118" lon="2.0607433">
        <ele>154.0</ele>
        <time>2022-05-19T09:23:26Z</time>
      </trkpt>
      <trkpt lat="47.521168" lon="2.0607646">
        <ele>154.0</ele>
        <time>2022-05-19T09:23:27Z</time>
      </trkpt>
      <trkpt lat="47.521152" lon="2.0607793">
        <ele>154.0</ele>
        <time>2022-05-19T09:23:28Z</time>
      </trkpt>
      <trkpt lat="47.521145" lon="2.060787">
        <ele>154.0</ele>
        <time>2022-05-19T09:23:29Z</time>
      </trkpt>
      <trkpt lat="47.521133" lon="2.0607903">
        <ele>154.0</ele>
        <time>2022-05-19T09:23:30Z</time>
      </trkpt>
      <trkpt lat="47.521122" lon="2.0608003">
        <ele>154.0</ele>
        <time>2022-05-19T09:23:31Z</time>
      </trkpt>
      <trkpt lat="47.521114" lon="2.0608103">
        <ele>154.0</ele>
        <time>2022-05-19T09:23:32Z</time>
      </trkpt>
      <trkpt lat="47.5211" lon="2.060828">
        <ele>154.0</ele>
        <time>2022-05-19T09:23:33Z</time>
      </trkpt>
      <trkpt lat="47.521088" lon="2.0608416">
        <ele>154.0</ele>
        <time>2022-05-19T09:23:34Z</time>
      </trkpt>
      <trkpt lat="47.521076" lon="2.0608547">
        <ele>154.0</ele>
        <time>2022-05-19T09:23:35Z</time>
      </trkpt>
      <trkpt lat="47.521072" lon="2.0608687">
        <ele>154.0</ele>
        <time>2022-05-19T09:23:36Z</time>
      </trkpt>
      <trkpt lat="47.52107" lon="2.0608873">
        <ele>154.0</ele>
        <time>2022-05-19T09:23:37Z</time>
      </trkpt>
      <trkpt lat="47.521065" lon="2.060905">
        <ele>153.0</ele>
        <time>2022-05-19T09:23:38Z</time>
      </trkpt>
      <trkpt lat="47.52106" lon="2.0609298">
        <ele>153.0</ele>
        <time>2022-05-19T09:23:39Z</time>
      </trkpt>
      <trkpt lat="47.521057" lon="2.0609486">
        <ele>153.0</ele>
        <time>2022-05-19T09:23:40Z</time>
      </trkpt>
      <trkpt lat="47.52105" lon="2.0609689">
        <ele>153.0</ele>
        <time>2022-05-19T09:23:41Z</time>
      </trkpt>
      <trkpt lat="47.521046" lon="2.060989">
        <ele>153.0</ele>
        <time>2022-05-19T09:23:42Z</time>
      </trkpt>
      <trkpt lat="47.521034" lon="2.0610106">
        <ele>153.0</ele>
        <time>2022-05-19T09:23:43Z</time>
      </trkpt>
      <trkpt lat="47.52103" lon="2.0610278">
        <ele>153.0</ele>
        <time>2022-05-19T09:23:44Z</time>
      </trkpt>
      <trkpt lat="47.52103" lon="2.061046">
        <ele>153.0</ele>
        <time>2022-05-19T09:23:45Z</time>
      </trkpt>
      <trkpt lat="47.521023" lon="2.061062">
        <ele>153.0</ele>
        <time>2022-05-19T09:23:46Z</time>
      </trkpt>
      <trkpt lat="47.521023" lon="2.061078">
        <ele>153.0</ele>
        <time>2022-05-19T09:23:47Z</time>
      </trkpt>
      <trkpt lat="47.52102" lon="2.0610867">
        <ele>153.0</ele>
        <time>2022-05-19T09:23:48Z</time>
      </trkpt>
      <trkpt lat="47.521015" lon="2.0610955">
        <ele>153.0</ele>
        <time>2022-05-19T09:23:49Z</time>
      </trkpt>
      <trkpt lat="47.521008" lon="2.0611002">
        <ele>153.0</ele>
        <time>2022-05-19T09:23:50Z</time>
      </trkpt>
      <trkpt lat="47.521008" lon="2.0611002">
        <ele>153.0</ele>
        <time>2022-05-19T09:23:51Z</time>
      </trkpt>
      <trkpt lat="47.520996" lon="2.061116">
        <ele>153.0</ele>
        <time>2022-05-19T09:23:52Z</time>
      </trkpt>
      <trkpt lat="47.52099" lon="2.061129">
        <ele>152.0</ele>
        <time>2022-05-19T09:23:53Z</time>
      </trkpt>
      <trkpt lat="47.520985" lon="2.061148">
        <ele>153.0</ele>
        <time>2022-05-19T09:23:54Z</time>
      </trkpt>
      <trkpt lat="47.52098" lon="2.06117">
        <ele>153.0</ele>
        <time>2022-05-19T09:23:55Z</time>
      </trkpt>
      <trkpt lat="47.520977" lon="2.0611908">
        <ele>152.0</ele>
        <time>2022-05-19T09:23:56Z</time>
      </trkpt>
      <trkpt lat="47.520973" lon="2.0612123">
        <ele>152.0</ele>
        <time>2022-05-19T09:23:57Z</time>
      </trkpt>
      <trkpt lat="47.52097" lon="2.0612311">
        <ele>152.0</ele>
        <time>2022-05-19T09:23:58Z</time>
      </trkpt>
      <trkpt lat="47.52097" lon="2.061247">
        <ele>152.0</ele>
        <time>2022-05-19T09:23:59Z</time>
      </trkpt>
      <trkpt lat="47.520966" lon="2.0612683">
        <ele>152.0</ele>
        <time>2022-05-19T09:24:00Z</time>
      </trkpt>
      <trkpt lat="47.520966" lon="2.061288">
        <ele>152.0</ele>
        <time>2022-05-19T09:24:01Z</time>
      </trkpt>
      <trkpt lat="47.520958" lon="2.061308">
        <ele>152.0</ele>
        <time>2022-05-19T09:24:02Z</time>
      </trkpt>
      <trkpt lat="47.520958" lon="2.0613265">
        <ele>152.0</ele>
        <time>2022-05-19T09:24:03Z</time>
      </trkpt>
      <trkpt lat="47.520954" lon="2.0613513">
        <ele>152.0</ele>
        <time>2022-05-19T09:24:04Z</time>
      </trkpt>
      <trkpt lat="47.520947" lon="2.0613654">
        <ele>152.0</ele>
        <time>2022-05-19T09:24:05Z</time>
      </trkpt>
      <trkpt lat="47.520943" lon="2.061385">
        <ele>152.0</ele>
        <time>2022-05-19T09:24:06Z</time>
      </trkpt>
      <trkpt lat="47.520943" lon="2.0614066">
        <ele>152.0</ele>
        <time>2022-05-19T09:24:07Z</time>
      </trkpt>
      <trkpt lat="47.52094" lon="2.0614257">
        <ele>152.0</ele>
        <time>2022-05-19T09:24:08Z</time>
      </trkpt>
      <trkpt lat="47.520935" lon="2.0614374">
        <ele>152.0</ele>
        <time>2022-05-19T09:24:09Z</time>
      </trkpt>
      <trkpt lat="47.520927" lon="2.061451">
        <ele>152.0</ele>
        <time>2022-05-19T09:24:10Z</time>
      </trkpt>
      <trkpt lat="47.520924" lon="2.0614622">
        <ele>152.0</ele>
        <time>2022-05-19T09:24:11Z</time>
      </trkpt>
      <trkpt lat="47.520916" lon="2.0614786">
        <ele>153.0</ele>
        <time>2022-05-19T09:24:12Z</time>
      </trkpt>
      <trkpt lat="47.520916" lon="2.061494">
        <ele>153.0</ele>
        <time>2022-05-19T09:24:13Z</time>
      </trkpt>
      <trkpt lat="47.520916" lon="2.0615087">
        <ele>153.0</ele>
        <time>2022-05-19T09:24:14Z</time>
      </trkpt>
      <trkpt lat="47.520916" lon="2.0615246">
        <ele>153.0</ele>
        <time>2022-05-19T09:24:15Z</time>
      </trkpt>
      <trkpt lat="47.520912" lon="2.0615375">
        <ele>153.0</ele>
        <time>2022-05-19T09:24:16Z</time>
      </trkpt>
      <trkpt lat="47.520912" lon="2.0615594">
        <ele>152.0</ele>
        <time>2022-05-19T09:24:17Z</time>
      </trkpt>
      <trkpt lat="47.520912" lon="2.0615819">
        <ele>153.0</ele>
        <time>2022-05-19T09:24:18Z</time>
      </trkpt>
      <trkpt lat="47.520912" lon="2.0615995">
        <ele>152.0</ele>
        <time>2022-05-19T09:24:19Z</time>
      </trkpt>
      <trkpt lat="47.52091" lon="2.0616155">
        <ele>152.0</ele>
        <time>2022-05-19T09:24:20Z</time>
      </trkpt>
      <trkpt lat="47.52091" lon="2.0616279">
        <ele>152.0</ele>
        <time>2022-05-19T09:24:21Z</time>
      </trkpt>
      <trkpt lat="47.52091" lon="2.0616386">
        <ele>153.0</ele>
        <time>2022-05-19T09:24:22Z</time>
      </trkpt>
      <trkpt lat="47.52091" lon="2.0616493">
        <ele>153.0</ele>
        <time>2022-05-19T09:24:23Z</time>
      </trkpt>
      <trkpt lat="47.52091" lon="2.0616608">
        <ele>153.0</ele>
        <time>2022-05-19T09:24:24Z</time>
      </trkpt>
      <trkpt lat="47.520905" lon="2.0616763">
        <ele>153.0</ele>
        <time>2022-05-19T09:24:25Z</time>
      </trkpt>
      <trkpt lat="47.5209" lon="2.061695">
        <ele>153.0</ele>
        <time>2022-05-19T09:24:26Z</time>
      </trkpt>
      <trkpt lat="47.5209" lon="2.0617204">
        <ele>153.0</ele>
        <time>2022-05-19T09:24:27Z</time>
      </trkpt>
      <trkpt lat="47.5209" lon="2.0617363">
        <ele>152.0</ele>
        <time>2022-05-19T09:24:28Z</time>
      </trkpt>
      <trkpt lat="47.5209" lon="2.0617502">
        <ele>152.0</ele>
        <time>2022-05-19T09:24:29Z</time>
      </trkpt>
      <trkpt lat="47.520893" lon="2.0617697">
        <ele>151.0</ele>
        <time>2022-05-19T09:24:30Z</time>
      </trkpt>
      <trkpt lat="47.520893" lon="2.0617843">
        <ele>151.0</ele>
        <time>2022-05-19T09:24:31Z</time>
      </trkpt>
      <trkpt lat="47.520893" lon="2.0618052">
        <ele>151.0</ele>
        <time>2022-05-19T09:24:32Z</time>
      </trkpt>
      <trkpt lat="47.520893" lon="2.0618148">
        <ele>151.0</ele>
        <time>2022-05-19T09:24:33Z</time>
      </trkpt>
      <trkpt lat="47.520893" lon="2.0618265">
        <ele>151.0</ele>
        <time>2022-05-19T09:24:34Z</time>
      </trkpt>
      <trkpt lat="47.520893" lon="2.0618384">
        <ele>151.0</ele>
        <time>2022-05-19T09:24:35Z</time>
      </trkpt>
      <trkpt lat="47.52089" lon="2.0618522">
        <ele>151.0</ele>
        <time>2022-05-19T09:24:36Z</time>
      </trkpt>
      <trkpt lat="47.52089" lon="2.0618734">
        <ele>151.0</ele>
        <time>2022-05-19T09:24:37Z</time>
      </trkpt>
      <trkpt lat="47.52089" lon="2.0618873">
        <ele>151.0</ele>
        <time>2022-05-19T09:24:38Z</time>
      </trkpt>
      <trkpt lat="47.520885" lon="2.0619042">
        <ele>151.0</ele>
        <time>2022-05-19T09:24:39Z</time>
      </trkpt>
      <trkpt lat="47.520878" lon="2.0619311">
        <ele>150.0</ele>
        <time>2022-05-19T09:24:40Z</time>
      </trkpt>
      <trkpt lat="47.520878" lon="2.0619311">
        <ele>150.0</ele>
        <time>2022-05-19T09:24:40Z</time>
      </trkpt>
      <trkpt lat="47.520874" lon="2.0619671">
        <ele>150.0</ele>
        <time>2022-05-19T09:24:42Z</time>
      </trkpt>
      <trkpt lat="47.520874" lon="2.0619671">
        <ele>150.0</ele>
        <time>2022-05-19T09:24:42Z</time>
      </trkpt>
      <trkpt lat="47.520874" lon="2.0619817">
        <ele>149.0</ele>
        <time>2022-05-19T09:24:44Z</time>
      </trkpt>
      <trkpt lat="47.520874" lon="2.0619972">
        <ele>149.0</ele>
        <time>2022-05-19T09:24:45Z</time>
      </trkpt>
      <trkpt lat="47.520874" lon="2.0620146">
        <ele>148.0</ele>
        <time>2022-05-19T09:24:46Z</time>
      </trkpt>
      <trkpt lat="47.52087" lon="2.0620286">
        <ele>148.0</ele>
        <time>2022-05-19T09:24:47Z</time>
      </trkpt>
      <trkpt lat="47.52087" lon="2.062043">
        <ele>147.0</ele>
        <time>2022-05-19T09:24:48Z</time>
      </trkpt>
      <trkpt lat="47.520866" lon="2.062063">
        <ele>147.0</ele>
        <time>2022-05-19T09:24:49Z</time>
      </trkpt>
      <trkpt lat="47.520866" lon="2.0620756">
        <ele>147.0</ele>
        <time>2022-05-19T09:24:50Z</time>
      </trkpt>
      <trkpt lat="47.52086" lon="2.0621185">
        <ele>147.0</ele>
        <time>2022-05-19T09:24:51Z</time>
      </trkpt>
      <trkpt lat="47.52086" lon="2.0621185">
        <ele>147.0</ele>
        <time>2022-05-19T09:24:51Z</time>
      </trkpt>
      <trkpt lat="47.52086" lon="2.062141">
        <ele>147.0</ele>
        <time>2022-05-19T09:24:53Z</time>
      </trkpt>
      <trkpt lat="47.52085" lon="2.062162">
        <ele>147.0</ele>
        <time>2022-05-19T09:24:54Z</time>
      </trkpt>
      <trkpt lat="47.520855" lon="2.0621784">
        <ele>147.0</ele>
        <time>2022-05-19T09:24:55Z</time>
      </trkpt>
      <trkpt lat="47.520855" lon="2.0621984">
        <ele>147.0</ele>
        <time>2022-05-19T09:24:56Z</time>
      </trkpt>
      <trkpt lat="47.520855" lon="2.0622199">
        <ele>147.0</ele>
        <time>2022-05-19T09:24:57Z</time>
      </trkpt>
      <trkpt lat="47.520855" lon="2.062239">
        <ele>147.0</ele>
        <time>2022-05-19T09:24:58Z</time>
      </trkpt>
      <trkpt lat="47.520855" lon="2.0622602">
        <ele>147.0</ele>
        <time>2022-05-19T09:24:59Z</time>
      </trkpt>
      <trkpt lat="47.520855" lon="2.0622792">
        <ele>148.0</ele>
        <time>2022-05-19T09:25:00Z</time>
      </trkpt>
      <trkpt lat="47.52085" lon="2.0622919">
        <ele>148.0</ele>
        <time>2022-05-19T09:25:01Z</time>
      </trkpt>
      <trkpt lat="47.520847" lon="2.0623076">
        <ele>148.0</ele>
        <time>2022-05-19T09:25:02Z</time>
      </trkpt>
      <trkpt lat="47.52085" lon="2.0623205">
        <ele>148.0</ele>
        <time>2022-05-19T09:25:03Z</time>
      </trkpt>
      <trkpt lat="47.52085" lon="2.0623355">
        <ele>148.0</ele>
        <time>2022-05-19T09:25:04Z</time>
      </trkpt>
      <trkpt lat="47.52085" lon="2.0623481">
        <ele>148.0</ele>
        <time>2022-05-19T09:25:05Z</time>
      </trkpt>
      <trkpt lat="47.52085" lon="2.0623665">
        <ele>148.0</ele>
        <time>2022-05-19T09:25:06Z</time>
      </trkpt>
      <trkpt lat="47.52085" lon="2.0623665">
        <ele>148.0</ele>
        <time>2022-05-19T09:25:06Z</time>
      </trkpt>
      <trkpt lat="47.520847" lon="2.0623987">
        <ele>148.0</ele>
        <time>2022-05-19T09:25:08Z</time>
      </trkpt>
      <trkpt lat="47.52084" lon="2.0624168">
        <ele>148.0</ele>
        <time>2022-05-19T09:25:09Z</time>
      </trkpt>
      <trkpt lat="47.520836" lon="2.062436">
        <ele>148.0</ele>
        <time>2022-05-19T09:25:10Z</time>
      </trkpt>
      <trkpt lat="47.520836" lon="2.0624523">
        <ele>148.0</ele>
        <time>2022-05-19T09:25:11Z</time>
      </trkpt>
      <trkpt lat="47.520836" lon="2.0624523">
        <ele>148.0</ele>
        <time>2022-05-19T09:25:11Z</time>
      </trkpt>
      <trkpt lat="47.520836" lon="2.0624635">
        <ele>148.0</ele>
        <time>2022-05-19T09:25:13Z</time>
      </trkpt>
      <trkpt lat="47.52083" lon="2.0624807">
        <ele>148.0</ele>
        <time>2022-05-19T09:25:14Z</time>
      </trkpt>
      <trkpt lat="47.520817" lon="2.0625098">
        <ele>148.0</ele>
        <time>2022-05-19T09:25:15Z</time>
      </trkpt>
      <trkpt lat="47.520817" lon="2.0625098">
        <ele>148.0</ele>
        <time>2022-05-19T09:25:15Z</time>
      </trkpt>
      <trkpt lat="47.520813" lon="2.0625226">
        <ele>148.0</ele>
        <time>2022-05-19T09:25:17Z</time>
      </trkpt>
      <trkpt lat="47.520805" lon="2.062557">
        <ele>148.0</ele>
        <time>2022-05-19T09:25:18Z</time>
      </trkpt>
      <trkpt lat="47.520805" lon="2.062557">
        <ele>148.0</ele>
        <time>2022-05-19T09:25:18Z</time>
      </trkpt>
      <trkpt lat="47.5208" lon="2.062571">
        <ele>148.0</ele>
        <time>2022-05-19T09:25:20Z</time>
      </trkpt>
      <trkpt lat="47.5208" lon="2.0625894">
        <ele>148.0</ele>
        <time>2022-05-19T09:25:21Z</time>
      </trkpt>
      <trkpt lat="47.520798" lon="2.062613">
        <ele>148.0</ele>
        <time>2022-05-19T09:25:22Z</time>
      </trkpt>
      <trkpt lat="47.520794" lon="2.0626302">
        <ele>148.0</ele>
        <time>2022-05-19T09:25:23Z</time>
      </trkpt>
      <trkpt lat="47.52079" lon="2.0626447">
        <ele>147.0</ele>
        <time>2022-05-19T09:25:24Z</time>
      </trkpt>
      <trkpt lat="47.520794" lon="2.0626585">
        <ele>147.0</ele>
        <time>2022-05-19T09:25:25Z</time>
      </trkpt>
      <trkpt lat="47.52079" lon="2.0626764">
        <ele>147.0</ele>
        <time>2022-05-19T09:25:26Z</time>
      </trkpt>
      <trkpt lat="47.520786" lon="2.0627103">
        <ele>147.0</ele>
        <time>2022-05-19T09:25:27Z</time>
      </trkpt>
      <trkpt lat="47.520786" lon="2.0627103">
        <ele>147.0</ele>
        <time>2022-05-19T09:25:27Z</time>
      </trkpt>
      <trkpt lat="47.520782" lon="2.06274">
        <ele>147.0</ele>
        <time>2022-05-19T09:25:29Z</time>
      </trkpt>
      <trkpt lat="47.52078" lon="2.0627577">
        <ele>147.0</ele>
        <time>2022-05-19T09:25:30Z</time>
      </trkpt>
      <trkpt lat="47.520786" lon="2.0627704">
        <ele>147.0</ele>
        <time>2022-05-19T09:25:31Z</time>
      </trkpt>
      <trkpt lat="47.520794" lon="2.0627837">
        <ele>148.0</ele>
        <time>2022-05-19T09:25:32Z</time>
      </trkpt>
      <trkpt lat="47.520798" lon="2.0627968">
        <ele>147.0</ele>
        <time>2022-05-19T09:25:33Z</time>
      </trkpt>
      <trkpt lat="47.5208" lon="2.0628116">
        <ele>147.0</ele>
        <time>2022-05-19T09:25:34Z</time>
      </trkpt>
      <trkpt lat="47.5208" lon="2.0628116">
        <ele>147.0</ele>
        <time>2022-05-19T09:25:34Z</time>
      </trkpt>
      <trkpt lat="47.52081" lon="2.0628257">
        <ele>148.0</ele>
        <time>2022-05-19T09:25:36Z</time>
      </trkpt>
      <trkpt lat="47.52081" lon="2.0628257">
        <ele>148.0</ele>
        <time>2022-05-19T09:25:37Z</time>
      </trkpt>
      <trkpt lat="47.52081" lon="2.0628257">
        <ele>148.0</ele>
        <time>2022-05-19T09:25:38Z</time>
      </trkpt>
      <trkpt lat="47.520805" lon="2.062886">
        <ele>147.0</ele>
        <time>2022-05-19T09:25:39Z</time>
      </trkpt>
      <trkpt lat="47.5208" lon="2.0629">
        <ele>146.0</ele>
        <time>2022-05-19T09:25:40Z</time>
      </trkpt>
      <trkpt lat="47.520794" lon="2.0629241">
        <ele>146.0</ele>
        <time>2022-05-19T09:25:41Z</time>
      </trkpt>
      <trkpt lat="47.520798" lon="2.0629463">
        <ele>146.0</ele>
        <time>2022-05-19T09:25:42Z</time>
      </trkpt>
      <trkpt lat="47.520794" lon="2.0629716">
        <ele>146.0</ele>
        <time>2022-05-19T09:25:43Z</time>
      </trkpt>
      <trkpt lat="47.520798" lon="2.0629957">
        <ele>146.0</ele>
        <time>2022-05-19T09:25:44Z</time>
      </trkpt>
      <trkpt lat="47.520794" lon="2.0630202">
        <ele>145.0</ele>
        <time>2022-05-19T09:25:45Z</time>
      </trkpt>
      <trkpt lat="47.520786" lon="2.063042">
        <ele>145.0</ele>
        <time>2022-05-19T09:25:46Z</time>
      </trkpt>
      <trkpt lat="47.52078" lon="2.063063">
        <ele>145.0</ele>
        <time>2022-05-19T09:25:47Z</time>
      </trkpt>
      <trkpt lat="47.52078" lon="2.063063">
        <ele>145.0</ele>
        <time>2022-05-19T09:25:47Z</time>
      </trkpt>
      <trkpt lat="47.520775" lon="2.0630884">
        <ele>145.0</ele>
        <time>2022-05-19T09:25:49Z</time>
      </trkpt>
      <trkpt lat="47.520775" lon="2.063116">
        <ele>145.0</ele>
        <time>2022-05-19T09:25:50Z</time>
      </trkpt>
      <trkpt lat="47.52078" lon="2.063143">
        <ele>145.0</ele>
        <time>2022-05-19T09:25:51Z</time>
      </trkpt>
      <trkpt lat="47.520782" lon="2.0631595">
        <ele>145.0</ele>
        <time>2022-05-19T09:25:52Z</time>
      </trkpt>
      <trkpt lat="47.52079" lon="2.0631733">
        <ele>145.0</ele>
        <time>2022-05-19T09:25:53Z</time>
      </trkpt>
      <trkpt lat="47.52079" lon="2.0631924">
        <ele>145.0</ele>
        <time>2022-05-19T09:25:54Z</time>
      </trkpt>
      <trkpt lat="47.520798" lon="2.063206">
        <ele>145.0</ele>
        <time>2022-05-19T09:25:55Z</time>
      </trkpt>
      <trkpt lat="47.520794" lon="2.0632179">
        <ele>146.0</ele>
        <time>2022-05-19T09:25:56Z</time>
      </trkpt>
      <trkpt lat="47.52079" lon="2.0632355">
        <ele>146.0</ele>
        <time>2022-05-19T09:25:57Z</time>
      </trkpt>
      <trkpt lat="47.52079" lon="2.0632517">
        <ele>146.0</ele>
        <time>2022-05-19T09:25:58Z</time>
      </trkpt>
      <trkpt lat="47.52079" lon="2.0632696">
        <ele>145.0</ele>
        <time>2022-05-19T09:25:59Z</time>
      </trkpt>
      <trkpt lat="47.520786" lon="2.0632932">
        <ele>145.0</ele>
        <time>2022-05-19T09:26:00Z</time>
      </trkpt>
      <trkpt lat="47.520786" lon="2.063315">
        <ele>145.0</ele>
        <time>2022-05-19T09:26:01Z</time>
      </trkpt>
      <trkpt lat="47.52079" lon="2.0633368">
        <ele>145.0</ele>
        <time>2022-05-19T09:26:02Z</time>
      </trkpt>
      <trkpt lat="47.52079" lon="2.0633638">
        <ele>145.0</ele>
        <time>2022-05-19T09:26:03Z</time>
      </trkpt>
      <trkpt lat="47.520794" lon="2.0633864">
        <ele>145.0</ele>
        <time>2022-05-19T09:26:04Z</time>
      </trkpt>
      <trkpt lat="47.520798" lon="2.0634167">
        <ele>145.0</ele>
        <time>2022-05-19T09:26:05Z</time>
      </trkpt>
      <trkpt lat="47.520798" lon="2.0634425">
        <ele>145.0</ele>
        <time>2022-05-19T09:26:06Z</time>
      </trkpt>
      <trkpt lat="47.520794" lon="2.0634658">
        <ele>145.0</ele>
        <time>2022-05-19T09:26:07Z</time>
      </trkpt>
      <trkpt lat="47.520798" lon="2.063483">
        <ele>145.0</ele>
        <time>2022-05-19T09:26:08Z</time>
      </trkpt>
      <trkpt lat="47.5208" lon="2.0634952">
        <ele>145.0</ele>
        <time>2022-05-19T09:26:09Z</time>
      </trkpt>
      <trkpt lat="47.520798" lon="2.0635145">
        <ele>145.0</ele>
        <time>2022-05-19T09:26:10Z</time>
      </trkpt>
      <trkpt lat="47.520798" lon="2.0635283">
        <ele>145.0</ele>
        <time>2022-05-19T09:26:11Z</time>
      </trkpt>
      <trkpt lat="47.520794" lon="2.0635436">
        <ele>145.0</ele>
        <time>2022-05-19T09:26:12Z</time>
      </trkpt>
      <trkpt lat="47.52079" lon="2.063555">
        <ele>145.0</ele>
        <time>2022-05-19T09:26:13Z</time>
      </trkpt>
      <trkpt lat="47.520786" lon="2.0635695">
        <ele>145.0</ele>
        <time>2022-05-19T09:26:14Z</time>
      </trkpt>
      <trkpt lat="47.520782" lon="2.0635786">
        <ele>145.0</ele>
        <time>2022-05-19T09:26:15Z</time>
      </trkpt>
      <trkpt lat="47.52078" lon="2.0635893">
        <ele>146.0</ele>
        <time>2022-05-19T09:26:16Z</time>
      </trkpt>
      <trkpt lat="47.520775" lon="2.0636055">
        <ele>146.0</ele>
        <time>2022-05-19T09:26:17Z</time>
      </trkpt>
      <trkpt lat="47.52078" lon="2.0636282">
        <ele>146.0</ele>
        <time>2022-05-19T09:26:18Z</time>
      </trkpt>
      <trkpt lat="47.520775" lon="2.063647">
        <ele>146.0</ele>
        <time>2022-05-19T09:26:19Z</time>
      </trkpt>
      <trkpt lat="47.52077" lon="2.0636702">
        <ele>146.0</ele>
        <time>2022-05-19T09:26:20Z</time>
      </trkpt>
      <trkpt lat="47.520775" lon="2.0636823">
        <ele>146.0</ele>
        <time>2022-05-19T09:26:21Z</time>
      </trkpt>
      <trkpt lat="47.52078" lon="2.06369">
        <ele>146.0</ele>
        <time>2022-05-19T09:26:22Z</time>
      </trkpt>
      <trkpt lat="47.520782" lon="2.063701">
        <ele>147.0</ele>
        <time>2022-05-19T09:26:23Z</time>
      </trkpt>
      <trkpt lat="47.52079" lon="2.063722">
        <ele>146.0</ele>
        <time>2022-05-19T09:26:24Z</time>
      </trkpt>
      <trkpt lat="47.520798" lon="2.0637414">
        <ele>146.0</ele>
        <time>2022-05-19T09:26:25Z</time>
      </trkpt>
      <trkpt lat="47.520798" lon="2.063754">
        <ele>146.0</ele>
        <time>2022-05-19T09:26:26Z</time>
      </trkpt>
      <trkpt lat="47.520794" lon="2.0637636">
        <ele>146.0</ele>
        <time>2022-05-19T09:26:27Z</time>
      </trkpt>
      <trkpt lat="47.52079" lon="2.063775">
        <ele>146.0</ele>
        <time>2022-05-19T09:26:28Z</time>
      </trkpt>
      <trkpt lat="47.520786" lon="2.0637977">
        <ele>146.0</ele>
        <time>2022-05-19T09:26:29Z</time>
      </trkpt>
      <trkpt lat="47.520782" lon="2.063815">
        <ele>146.0</ele>
        <time>2022-05-19T09:26:30Z</time>
      </trkpt>
      <trkpt lat="47.52078" lon="2.0638268">
        <ele>146.0</ele>
        <time>2022-05-19T09:26:31Z</time>
      </trkpt>
      <trkpt lat="47.52078" lon="2.0638437">
        <ele>146.0</ele>
        <time>2022-05-19T09:26:32Z</time>
      </trkpt>
      <trkpt lat="47.52078" lon="2.0638595">
        <ele>146.0</ele>
        <time>2022-05-19T09:26:33Z</time>
      </trkpt>
      <trkpt lat="47.520775" lon="2.0638826">
        <ele>145.0</ele>
        <time>2022-05-19T09:26:34Z</time>
      </trkpt>
      <trkpt lat="47.520767" lon="2.0639067">
        <ele>145.0</ele>
        <time>2022-05-19T09:26:35Z</time>
      </trkpt>
      <trkpt lat="47.520763" lon="2.0639274">
        <ele>145.0</ele>
        <time>2022-05-19T09:26:36Z</time>
      </trkpt>
      <trkpt lat="47.52076" lon="2.0639467">
        <ele>145.0</ele>
        <time>2022-05-19T09:26:37Z</time>
      </trkpt>
      <trkpt lat="47.520767" lon="2.0639677">
        <ele>144.0</ele>
        <time>2022-05-19T09:26:38Z</time>
      </trkpt>
      <trkpt lat="47.520767" lon="2.0639813">
        <ele>144.0</ele>
        <time>2022-05-19T09:26:39Z</time>
      </trkpt>
      <trkpt lat="47.520767" lon="2.0639813">
        <ele>144.0</ele>
        <time>2022-05-19T09:26:39Z</time>
      </trkpt>
      <trkpt lat="47.520767" lon="2.0640168">
        <ele>143.0</ele>
        <time>2022-05-19T09:26:41Z</time>
      </trkpt>
      <trkpt lat="47.520763" lon="2.0640395">
        <ele>143.0</ele>
        <time>2022-05-19T09:26:42Z</time>
      </trkpt>
      <trkpt lat="47.52076" lon="2.0640585">
        <ele>143.0</ele>
        <time>2022-05-19T09:26:43Z</time>
      </trkpt>
      <trkpt lat="47.520763" lon="2.064072">
        <ele>143.0</ele>
        <time>2022-05-19T09:26:44Z</time>
      </trkpt>
      <trkpt lat="47.520767" lon="2.0640907">
        <ele>143.0</ele>
        <time>2022-05-19T09:26:45Z</time>
      </trkpt>
      <trkpt lat="47.52077" lon="2.064108">
        <ele>143.0</ele>
        <time>2022-05-19T09:26:46Z</time>
      </trkpt>
      <trkpt lat="47.52077" lon="2.064131">
        <ele>143.0</ele>
        <time>2022-05-19T09:26:47Z</time>
      </trkpt>
      <trkpt lat="47.520767" lon="2.0641537">
        <ele>143.0</ele>
        <time>2022-05-19T09:26:48Z</time>
      </trkpt>
      <trkpt lat="47.520767" lon="2.0641787">
        <ele>143.0</ele>
        <time>2022-05-19T09:26:49Z</time>
      </trkpt>
      <trkpt lat="47.520767" lon="2.064196">
        <ele>143.0</ele>
        <time>2022-05-19T09:26:50Z</time>
      </trkpt>
      <trkpt lat="47.52077" lon="2.064219">
        <ele>143.0</ele>
        <time>2022-05-19T09:26:51Z</time>
      </trkpt>
      <trkpt lat="47.520767" lon="2.0642393">
        <ele>143.0</ele>
        <time>2022-05-19T09:26:52Z</time>
      </trkpt>
      <trkpt lat="47.520767" lon="2.064256">
        <ele>143.0</ele>
        <time>2022-05-19T09:26:53Z</time>
      </trkpt>
      <trkpt lat="47.520763" lon="2.0642784">
        <ele>143.0</ele>
        <time>2022-05-19T09:26:54Z</time>
      </trkpt>
      <trkpt lat="47.520763" lon="2.0642989">
        <ele>143.0</ele>
        <time>2022-05-19T09:26:55Z</time>
      </trkpt>
      <trkpt lat="47.520763" lon="2.064326">
        <ele>143.0</ele>
        <time>2022-05-19T09:26:56Z</time>
      </trkpt>
      <trkpt lat="47.520756" lon="2.0643404">
        <ele>143.0</ele>
        <time>2022-05-19T09:26:57Z</time>
      </trkpt>
      <trkpt lat="47.520752" lon="2.0643585">
        <ele>143.0</ele>
        <time>2022-05-19T09:26:58Z</time>
      </trkpt>
      <trkpt lat="47.52075" lon="2.0643773">
        <ele>144.0</ele>
        <time>2022-05-19T09:26:59Z</time>
      </trkpt>
      <trkpt lat="47.52075" lon="2.0643978">
        <ele>144.0</ele>
        <time>2022-05-19T09:27:00Z</time>
      </trkpt>
      <trkpt lat="47.520744" lon="2.0644143">
        <ele>144.0</ele>
        <time>2022-05-19T09:27:01Z</time>
      </trkpt>
      <trkpt lat="47.52075" lon="2.06443">
        <ele>144.0</ele>
        <time>2022-05-19T09:27:02Z</time>
      </trkpt>
      <trkpt lat="47.52075" lon="2.0644426">
        <ele>145.0</ele>
        <time>2022-05-19T09:27:03Z</time>
      </trkpt>
      <trkpt lat="47.520744" lon="2.064451">
        <ele>145.0</ele>
        <time>2022-05-19T09:27:04Z</time>
      </trkpt>
      <trkpt lat="47.520744" lon="2.0644667">
        <ele>145.0</ele>
        <time>2022-05-19T09:27:05Z</time>
      </trkpt>
      <trkpt lat="47.520752" lon="2.0644858">
        <ele>145.0</ele>
        <time>2022-05-19T09:27:06Z</time>
      </trkpt>
      <trkpt lat="47.520756" lon="2.0645096">
        <ele>145.0</ele>
        <time>2022-05-19T09:27:07Z</time>
      </trkpt>
      <trkpt lat="47.52076" lon="2.0645254">
        <ele>145.0</ele>
        <time>2022-05-19T09:27:08Z</time>
      </trkpt>
      <trkpt lat="47.520763" lon="2.0645504">
        <ele>145.0</ele>
        <time>2022-05-19T09:27:09Z</time>
      </trkpt>
      <trkpt lat="47.52076" lon="2.064579">
        <ele>145.0</ele>
        <time>2022-05-19T09:27:10Z</time>
      </trkpt>
      <trkpt lat="47.520756" lon="2.064599">
        <ele>144.0</ele>
        <time>2022-05-19T09:27:11Z</time>
      </trkpt>
      <trkpt lat="47.52075" lon="2.064614">
        <ele>145.0</ele>
        <time>2022-05-19T09:27:12Z</time>
      </trkpt>
      <trkpt lat="47.52074" lon="2.0646307">
        <ele>144.0</ele>
        <time>2022-05-19T09:27:13Z</time>
      </trkpt>
      <trkpt lat="47.52073" lon="2.0646489">
        <ele>144.0</ele>
        <time>2022-05-19T09:27:14Z</time>
      </trkpt>
      <trkpt lat="47.520718" lon="2.0646703">
        <ele>144.0</ele>
        <time>2022-05-19T09:27:15Z</time>
      </trkpt>
      <trkpt lat="47.520714" lon="2.064685">
        <ele>145.0</ele>
        <time>2022-05-19T09:27:16Z</time>
      </trkpt>
      <trkpt lat="47.52071" lon="2.0647027">
        <ele>144.0</ele>
        <time>2022-05-19T09:27:17Z</time>
      </trkpt>
      <trkpt lat="47.520706" lon="2.0647197">
        <ele>144.0</ele>
        <time>2022-05-19T09:27:18Z</time>
      </trkpt>
      <trkpt lat="47.520702" lon="2.0647357">
        <ele>145.0</ele>
        <time>2022-05-19T09:27:19Z</time>
      </trkpt>
      <trkpt lat="47.520702" lon="2.0647588">
        <ele>145.0</ele>
        <time>2022-05-19T09:27:20Z</time>
      </trkpt>
      <trkpt lat="47.5207" lon="2.064769">
        <ele>145.0</ele>
        <time>2022-05-19T09:27:21Z</time>
      </trkpt>
      <trkpt lat="47.520695" lon="2.0647788">
        <ele>145.0</ele>
        <time>2022-05-19T09:27:22Z</time>
      </trkpt>
      <trkpt lat="47.520687" lon="2.0647888">
        <ele>145.0</ele>
        <time>2022-05-19T09:27:23Z</time>
      </trkpt>
      <trkpt lat="47.520683" lon="2.0648015">
        <ele>146.0</ele>
        <time>2022-05-19T09:27:24Z</time>
      </trkpt>
      <trkpt lat="47.520683" lon="2.0648153">
        <ele>145.0</ele>
        <time>2022-05-19T09:27:25Z</time>
      </trkpt>
      <trkpt lat="47.520683" lon="2.0648415">
        <ele>146.0</ele>
        <time>2022-05-19T09:27:26Z</time>
      </trkpt>
      <trkpt lat="47.52069" lon="2.0648599">
        <ele>145.0</ele>
        <time>2022-05-19T09:27:27Z</time>
      </trkpt>
      <trkpt lat="47.520695" lon="2.064874">
        <ele>145.0</ele>
        <time>2022-05-19T09:27:28Z</time>
      </trkpt>
      <trkpt lat="47.520702" lon="2.0648947">
        <ele>145.0</ele>
        <time>2022-05-19T09:27:29Z</time>
      </trkpt>
      <trkpt lat="47.520706" lon="2.0649087">
        <ele>145.0</ele>
        <time>2022-05-19T09:27:30Z</time>
      </trkpt>
      <trkpt lat="47.5207" lon="2.0649195">
        <ele>145.0</ele>
        <time>2022-05-19T09:27:31Z</time>
      </trkpt>
      <trkpt lat="47.520695" lon="2.064931">
        <ele>145.0</ele>
        <time>2022-05-19T09:27:32Z</time>
      </trkpt>
      <trkpt lat="47.52069" lon="2.0649521">
        <ele>145.0</ele>
        <time>2022-05-19T09:27:33Z</time>
      </trkpt>
      <trkpt lat="47.52069" lon="2.0649807">
        <ele>145.0</ele>
        <time>2022-05-19T09:27:34Z</time>
      </trkpt>
      <trkpt lat="47.520687" lon="2.0650082">
        <ele>145.0</ele>
        <time>2022-05-19T09:27:35Z</time>
      </trkpt>
      <trkpt lat="47.520687" lon="2.0650277">
        <ele>145.0</ele>
        <time>2022-05-19T09:27:36Z</time>
      </trkpt>
      <trkpt lat="47.520687" lon="2.0650408">
        <ele>146.0</ele>
        <time>2022-05-19T09:27:37Z</time>
      </trkpt>
      <trkpt lat="47.520687" lon="2.065056">
        <ele>145.0</ele>
        <time>2022-05-19T09:27:38Z</time>
      </trkpt>
      <trkpt lat="47.52068" lon="2.0650704">
        <ele>146.0</ele>
        <time>2022-05-19T09:27:39Z</time>
      </trkpt>
      <trkpt lat="47.52068" lon="2.0650907">
        <ele>146.0</ele>
        <time>2022-05-19T09:27:40Z</time>
      </trkpt>
      <trkpt lat="47.520687" lon="2.065111">
        <ele>146.0</ele>
        <time>2022-05-19T09:27:41Z</time>
      </trkpt>
      <trkpt lat="47.520683" lon="2.0651276">
        <ele>146.0</ele>
        <time>2022-05-19T09:27:42Z</time>
      </trkpt>
      <trkpt lat="47.520683" lon="2.0651426">
        <ele>146.0</ele>
        <time>2022-05-19T09:27:43Z</time>
      </trkpt>
      <trkpt lat="47.52068" lon="2.065162">
        <ele>146.0</ele>
        <time>2022-05-19T09:27:44Z</time>
      </trkpt>
      <trkpt lat="47.52068" lon="2.0651855">
        <ele>146.0</ele>
        <time>2022-05-19T09:27:45Z</time>
      </trkpt>
      <trkpt lat="47.520676" lon="2.0652">
        <ele>146.0</ele>
        <time>2022-05-19T09:27:46Z</time>
      </trkpt>
      <trkpt lat="47.520676" lon="2.0652122">
        <ele>145.0</ele>
        <time>2022-05-19T09:27:47Z</time>
      </trkpt>
      <trkpt lat="47.52067" lon="2.0652227">
        <ele>145.0</ele>
        <time>2022-05-19T09:27:48Z</time>
      </trkpt>
      <trkpt lat="47.520668" lon="2.0652378">
        <ele>145.0</ele>
        <time>2022-05-19T09:27:49Z</time>
      </trkpt>
      <trkpt lat="47.520668" lon="2.0652378">
        <ele>145.0</ele>
        <time>2022-05-19T09:27:50Z</time>
      </trkpt>
      <trkpt lat="47.520657" lon="2.0652752">
        <ele>145.0</ele>
        <time>2022-05-19T09:27:51Z</time>
      </trkpt>
      <trkpt lat="47.520657" lon="2.0652964">
        <ele>146.0</ele>
        <time>2022-05-19T09:27:52Z</time>
      </trkpt>
      <trkpt lat="47.520653" lon="2.0653117">
        <ele>147.0</ele>
        <time>2022-05-19T09:27:53Z</time>
      </trkpt>
      <trkpt lat="47.52064" lon="2.0653348">
        <ele>147.0</ele>
        <time>2022-05-19T09:27:54Z</time>
      </trkpt>
      <trkpt lat="47.520634" lon="2.0653572">
        <ele>147.0</ele>
        <time>2022-05-19T09:27:55Z</time>
      </trkpt>
      <trkpt lat="47.520622" lon="2.065375">
        <ele>147.0</ele>
        <time>2022-05-19T09:27:56Z</time>
      </trkpt>
      <trkpt lat="47.520615" lon="2.0654016">
        <ele>147.0</ele>
        <time>2022-05-19T09:27:57Z</time>
      </trkpt>
      <trkpt lat="47.520615" lon="2.065416">
        <ele>147.0</ele>
        <time>2022-05-19T09:27:58Z</time>
      </trkpt>
      <trkpt lat="47.520615" lon="2.065426">
        <ele>147.0</ele>
        <time>2022-05-19T09:27:59Z</time>
      </trkpt>
      <trkpt lat="47.52061" lon="2.065445">
        <ele>147.0</ele>
        <time>2022-05-19T09:28:00Z</time>
      </trkpt>
      <trkpt lat="47.520607" lon="2.0654674">
        <ele>147.0</ele>
        <time>2022-05-19T09:28:01Z</time>
      </trkpt>
      <trkpt lat="47.520607" lon="2.065477">
        <ele>147.0</ele>
        <time>2022-05-19T09:28:02Z</time>
      </trkpt>
      <trkpt lat="47.52061" lon="2.0654848">
        <ele>148.0</ele>
        <time>2022-05-19T09:28:03Z</time>
      </trkpt>
      <trkpt lat="47.52061" lon="2.0654893">
        <ele>147.0</ele>
        <time>2022-05-19T09:28:04Z</time>
      </trkpt>
      <trkpt lat="47.52061" lon="2.0654945">
        <ele>147.0</ele>
        <time>2022-05-19T09:28:05Z</time>
      </trkpt>
      <trkpt lat="47.520615" lon="2.0655034">
        <ele>147.0</ele>
        <time>2022-05-19T09:28:06Z</time>
      </trkpt>
      <trkpt lat="47.52062" lon="2.0655057">
        <ele>147.0</ele>
        <time>2022-05-19T09:28:07Z</time>
      </trkpt>
      <trkpt lat="47.520622" lon="2.0655138">
        <ele>147.0</ele>
        <time>2022-05-19T09:28:08Z</time>
      </trkpt>
      <trkpt lat="47.520626" lon="2.0655236">
        <ele>147.0</ele>
        <time>2022-05-19T09:28:09Z</time>
      </trkpt>
      <trkpt lat="47.520622" lon="2.0655398">
        <ele>146.0</ele>
        <time>2022-05-19T09:28:10Z</time>
      </trkpt>
      <trkpt lat="47.520622" lon="2.0655606">
        <ele>147.0</ele>
        <time>2022-05-19T09:28:11Z</time>
      </trkpt>
      <trkpt lat="47.52062" lon="2.065583">
        <ele>147.0</ele>
        <time>2022-05-19T09:28:12Z</time>
      </trkpt>
      <trkpt lat="47.520622" lon="2.0655997">
        <ele>147.0</ele>
        <time>2022-05-19T09:28:13Z</time>
      </trkpt>
      <trkpt lat="47.520626" lon="2.0656106">
        <ele>146.0</ele>
        <time>2022-05-19T09:28:14Z</time>
      </trkpt>
      <trkpt lat="47.520638" lon="2.0656116">
        <ele>146.0</ele>
        <time>2022-05-19T09:28:15Z</time>
      </trkpt>
      <trkpt lat="47.520645" lon="2.0656245">
        <ele>146.0</ele>
        <time>2022-05-19T09:28:16Z</time>
      </trkpt>
      <trkpt lat="47.520645" lon="2.0656366">
        <ele>146.0</ele>
        <time>2022-05-19T09:28:17Z</time>
      </trkpt>
      <trkpt lat="47.520653" lon="2.0656521">
        <ele>146.0</ele>
        <time>2022-05-19T09:28:18Z</time>
      </trkpt>
      <trkpt lat="47.52066" lon="2.0656657">
        <ele>145.0</ele>
        <time>2022-05-19T09:28:19Z</time>
      </trkpt>
      <trkpt lat="47.520668" lon="2.0656793">
        <ele>145.0</ele>
        <time>2022-05-19T09:28:20Z</time>
      </trkpt>
      <trkpt lat="47.520676" lon="2.0656931">
        <ele>145.0</ele>
        <time>2022-05-19T09:28:21Z</time>
      </trkpt>
      <trkpt lat="47.52069" lon="2.0657096">
        <ele>145.0</ele>
        <time>2022-05-19T09:28:22Z</time>
      </trkpt>
      <trkpt lat="47.520702" lon="2.0657275">
        <ele>145.0</ele>
        <time>2022-05-19T09:28:23Z</time>
      </trkpt>
      <trkpt lat="47.520714" lon="2.065745">
        <ele>145.0</ele>
        <time>2022-05-19T09:28:24Z</time>
      </trkpt>
      <trkpt lat="47.52072" lon="2.065752">
        <ele>145.0</ele>
        <time>2022-05-19T09:28:25Z</time>
      </trkpt>
      <trkpt lat="47.520725" lon="2.0657642">
        <ele>145.0</ele>
        <time>2022-05-19T09:28:26Z</time>
      </trkpt>
      <trkpt lat="47.520733" lon="2.0657718">
        <ele>145.0</ele>
        <time>2022-05-19T09:28:27Z</time>
      </trkpt>
      <trkpt lat="47.520744" lon="2.0657737">
        <ele>145.0</ele>
        <time>2022-05-19T09:28:28Z</time>
      </trkpt>
      <trkpt lat="47.52075" lon="2.0657773">
        <ele>145.0</ele>
        <time>2022-05-19T09:28:29Z</time>
      </trkpt>
      <trkpt lat="47.520756" lon="2.065792">
        <ele>146.0</ele>
        <time>2022-05-19T09:28:30Z</time>
      </trkpt>
      <trkpt lat="47.520763" lon="2.0658033">
        <ele>146.0</ele>
        <time>2022-05-19T09:28:31Z</time>
      </trkpt>
      <trkpt lat="47.520775" lon="2.0658185">
        <ele>145.0</ele>
        <time>2022-05-19T09:28:32Z</time>
      </trkpt>
      <trkpt lat="47.520786" lon="2.065833">
        <ele>145.0</ele>
        <time>2022-05-19T09:28:33Z</time>
      </trkpt>
      <trkpt lat="47.520798" lon="2.0658453">
        <ele>145.0</ele>
        <time>2022-05-19T09:28:34Z</time>
      </trkpt>
      <trkpt lat="47.52081" lon="2.065856">
        <ele>145.0</ele>
        <time>2022-05-19T09:28:35Z</time>
      </trkpt>
      <trkpt lat="47.52082" lon="2.0658612">
        <ele>145.0</ele>
        <time>2022-05-19T09:28:36Z</time>
      </trkpt>
      <trkpt lat="47.52083" lon="2.0658686">
        <ele>145.0</ele>
        <time>2022-05-19T09:28:37Z</time>
      </trkpt>
      <trkpt lat="47.520836" lon="2.0658786">
        <ele>145.0</ele>
        <time>2022-05-19T09:28:38Z</time>
      </trkpt>
      <trkpt lat="47.520844" lon="2.0658975">
        <ele>145.0</ele>
        <time>2022-05-19T09:28:39Z</time>
      </trkpt>
      <trkpt lat="47.52085" lon="2.065912">
        <ele>146.0</ele>
        <time>2022-05-19T09:28:40Z</time>
      </trkpt>
      <trkpt lat="47.52086" lon="2.0659223">
        <ele>146.0</ele>
        <time>2022-05-19T09:28:41Z</time>
      </trkpt>
      <trkpt lat="47.520866" lon="2.065938">
        <ele>146.0</ele>
        <time>2022-05-19T09:28:42Z</time>
      </trkpt>
      <trkpt lat="47.52088" lon="2.0659378">
        <ele>146.0</ele>
        <time>2022-05-19T09:28:43Z</time>
      </trkpt>
      <trkpt lat="47.520885" lon="2.0659502">
        <ele>146.0</ele>
        <time>2022-05-19T09:28:44Z</time>
      </trkpt>
      <trkpt lat="47.520893" lon="2.0659604">
        <ele>146.0</ele>
        <time>2022-05-19T09:28:45Z</time>
      </trkpt>
      <trkpt lat="47.5209" lon="2.0659711">
        <ele>146.0</ele>
        <time>2022-05-19T09:28:46Z</time>
      </trkpt>
      <trkpt lat="47.520905" lon="2.0659833">
        <ele>146.0</ele>
        <time>2022-05-19T09:28:47Z</time>
      </trkpt>
      <trkpt lat="47.52091" lon="2.0659983">
        <ele>146.0</ele>
        <time>2022-05-19T09:28:48Z</time>
      </trkpt>
      <trkpt lat="47.52092" lon="2.066009">
        <ele>146.0</ele>
        <time>2022-05-19T09:28:49Z</time>
      </trkpt>
      <trkpt lat="47.520927" lon="2.0660226">
        <ele>146.0</ele>
        <time>2022-05-19T09:28:50Z</time>
      </trkpt>
      <trkpt lat="47.520935" lon="2.0660257">
        <ele>146.0</ele>
        <time>2022-05-19T09:28:51Z</time>
      </trkpt>
      <trkpt lat="47.520947" lon="2.066035">
        <ele>147.0</ele>
        <time>2022-05-19T09:28:52Z</time>
      </trkpt>
      <trkpt lat="47.52095" lon="2.0660472">
        <ele>147.0</ele>
        <time>2022-05-19T09:28:53Z</time>
      </trkpt>
      <trkpt lat="47.520958" lon="2.0660613">
        <ele>147.0</ele>
        <time>2022-05-19T09:28:54Z</time>
      </trkpt>
      <trkpt lat="47.52096" lon="2.066077">
        <ele>147.0</ele>
        <time>2022-05-19T09:28:55Z</time>
      </trkpt>
      <trkpt lat="47.520966" lon="2.0660918">
        <ele>147.0</ele>
        <time>2022-05-19T09:28:56Z</time>
      </trkpt>
      <trkpt lat="47.520977" lon="2.0660968">
        <ele>147.0</ele>
        <time>2022-05-19T09:28:57Z</time>
      </trkpt>
      <trkpt lat="47.520985" lon="2.0661025">
        <ele>147.0</ele>
        <time>2022-05-19T09:28:58Z</time>
      </trkpt>
      <trkpt lat="47.520992" lon="2.0661077">
        <ele>147.0</ele>
        <time>2022-05-19T09:28:59Z</time>
      </trkpt>
      <trkpt lat="47.520996" lon="2.066123">
        <ele>147.0</ele>
        <time>2022-05-19T09:29:00Z</time>
      </trkpt>
      <trkpt lat="47.521008" lon="2.0661352">
        <ele>147.0</ele>
        <time>2022-05-19T09:29:01Z</time>
      </trkpt>
      <trkpt lat="47.52101" lon="2.0661502">
        <ele>147.0</ele>
        <time>2022-05-19T09:29:02Z</time>
      </trkpt>
      <trkpt lat="47.52102" lon="2.066157">
        <ele>147.0</ele>
        <time>2022-05-19T09:29:03Z</time>
      </trkpt>
      <trkpt lat="47.521023" lon="2.066168">
        <ele>147.0</ele>
        <time>2022-05-19T09:29:04Z</time>
      </trkpt>
      <trkpt lat="47.521034" lon="2.0661764">
        <ele>147.0</ele>
        <time>2022-05-19T09:29:05Z</time>
      </trkpt>
      <trkpt lat="47.521046" lon="2.06619">
        <ele>147.0</ele>
        <time>2022-05-19T09:29:06Z</time>
      </trkpt>
      <trkpt lat="47.521057" lon="2.066198">
        <ele>147.0</ele>
        <time>2022-05-19T09:29:07Z</time>
      </trkpt>
      <trkpt lat="47.52107" lon="2.0662053">
        <ele>148.0</ele>
        <time>2022-05-19T09:29:08Z</time>
      </trkpt>
      <trkpt lat="47.521076" lon="2.06621">
        <ele>148.0</ele>
        <time>2022-05-19T09:29:09Z</time>
      </trkpt>
      <trkpt lat="47.521088" lon="2.0662167">
        <ele>148.0</ele>
        <time>2022-05-19T09:29:10Z</time>
      </trkpt>
      <trkpt lat="47.5211" lon="2.0662246">
        <ele>148.0</ele>
        <time>2022-05-19T09:29:11Z</time>
      </trkpt>
      <trkpt lat="47.521107" lon="2.0662377">
        <ele>148.0</ele>
        <time>2022-05-19T09:29:12Z</time>
      </trkpt>
      <trkpt lat="47.52111" lon="2.0662541">
        <ele>148.0</ele>
        <time>2022-05-19T09:29:13Z</time>
      </trkpt>
      <trkpt lat="47.52112" lon="2.06627">
        <ele>148.0</ele>
        <time>2022-05-19T09:29:14Z</time>
      </trkpt>
      <trkpt lat="47.521126" lon="2.066288">
        <ele>148.0</ele>
        <time>2022-05-19T09:29:15Z</time>
      </trkpt>
      <trkpt lat="47.52113" lon="2.0662987">
        <ele>148.0</ele>
        <time>2022-05-19T09:29:16Z</time>
      </trkpt>
      <trkpt lat="47.52113" lon="2.0663092">
        <ele>148.0</ele>
        <time>2022-05-19T09:29:17Z</time>
      </trkpt>
      <trkpt lat="47.521133" lon="2.066331">
        <ele>149.0</ele>
        <time>2022-05-19T09:29:18Z</time>
      </trkpt>
      <trkpt lat="47.52115" lon="2.066333">
        <ele>149.0</ele>
        <time>2022-05-19T09:29:19Z</time>
      </trkpt>
      <trkpt lat="47.52116" lon="2.0663378">
        <ele>150.0</ele>
        <time>2022-05-19T09:29:20Z</time>
      </trkpt>
      <trkpt lat="47.521168" lon="2.066349">
        <ele>150.0</ele>
        <time>2022-05-19T09:29:21Z</time>
      </trkpt>
      <trkpt lat="47.521175" lon="2.0663545">
        <ele>150.0</ele>
        <time>2022-05-19T09:29:22Z</time>
      </trkpt>
      <trkpt lat="47.52118" lon="2.066371">
        <ele>151.0</ele>
        <time>2022-05-19T09:29:23Z</time>
      </trkpt>
      <trkpt lat="47.521187" lon="2.0663881">
        <ele>151.0</ele>
        <time>2022-05-19T09:29:24Z</time>
      </trkpt>
      <trkpt lat="47.52119" lon="2.0664015">
        <ele>151.0</ele>
        <time>2022-05-19T09:29:25Z</time>
      </trkpt>
      <trkpt lat="47.521202" lon="2.0664086">
        <ele>151.0</ele>
        <time>2022-05-19T09:29:26Z</time>
      </trkpt>
      <trkpt lat="47.521217" lon="2.0664108">
        <ele>151.0</ele>
        <time>2022-05-19T09:29:27Z</time>
      </trkpt>
      <trkpt lat="47.521225" lon="2.066424">
        <ele>152.0</ele>
        <time>2022-05-19T09:29:28Z</time>
      </trkpt>
      <trkpt lat="47.52123" lon="2.066434">
        <ele>152.0</ele>
        <time>2022-05-19T09:29:29Z</time>
      </trkpt>
      <trkpt lat="47.521233" lon="2.0664446">
        <ele>153.0</ele>
        <time>2022-05-19T09:29:30Z</time>
      </trkpt>
      <trkpt lat="47.521236" lon="2.0664537">
        <ele>152.0</ele>
        <time>2022-05-19T09:29:31Z</time>
      </trkpt>
      <trkpt lat="47.521244" lon="2.0664535">
        <ele>152.0</ele>
        <time>2022-05-19T09:29:32Z</time>
      </trkpt>
      <trkpt lat="47.52125" lon="2.0664537">
        <ele>152.0</ele>
        <time>2022-05-19T09:29:33Z</time>
      </trkpt>
      <trkpt lat="47.521255" lon="2.066452">
        <ele>152.0</ele>
        <time>2022-05-19T09:29:34Z</time>
      </trkpt>
      <trkpt lat="47.521263" lon="2.0664537">
        <ele>152.0</ele>
        <time>2022-05-19T09:29:35Z</time>
      </trkpt>
      <trkpt lat="47.521275" lon="2.0664625">
        <ele>152.0</ele>
        <time>2022-05-19T09:29:36Z</time>
      </trkpt>
      <trkpt lat="47.521286" lon="2.0664713">
        <ele>152.0</ele>
        <time>2022-05-19T09:29:37Z</time>
      </trkpt>
      <trkpt lat="47.521294" lon="2.0664804">
        <ele>152.0</ele>
        <time>2022-05-19T09:29:38Z</time>
      </trkpt>
      <trkpt lat="47.5213" lon="2.066492">
        <ele>153.0</ele>
        <time>2022-05-19T09:29:39Z</time>
      </trkpt>
      <trkpt lat="47.52131" lon="2.0665">
        <ele>153.0</ele>
        <time>2022-05-19T09:29:40Z</time>
      </trkpt>
      <trkpt lat="47.521317" lon="2.0665123">
        <ele>153.0</ele>
        <time>2022-05-19T09:29:42Z</time>
      </trkpt>
      <trkpt lat="47.521324" lon="2.0665214">
        <ele>153.0</ele>
        <time>2022-05-19T09:29:43Z</time>
      </trkpt>
      <trkpt lat="47.521336" lon="2.0665214">
        <ele>154.0</ele>
        <time>2022-05-19T09:29:44Z</time>
      </trkpt>
      <trkpt lat="47.521343" lon="2.0665236">
        <ele>154.0</ele>
        <time>2022-05-19T09:29:45Z</time>
      </trkpt>
      <trkpt lat="47.521347" lon="2.0665226">
        <ele>154.0</ele>
        <time>2022-05-19T09:29:46Z</time>
      </trkpt>
      <trkpt lat="47.521355" lon="2.0665307">
        <ele>154.0</ele>
        <time>2022-05-19T09:29:47Z</time>
      </trkpt>
      <trkpt lat="47.521355" lon="2.0665307">
        <ele>154.0</ele>
        <time>2022-05-19T09:29:48Z</time>
      </trkpt>
      <trkpt lat="47.521362" lon="2.0665467">
        <ele>154.0</ele>
        <time>2022-05-19T09:29:49Z</time>
      </trkpt>
      <trkpt lat="47.52137" lon="2.0665562">
        <ele>154.0</ele>
        <time>2022-05-19T09:29:50Z</time>
      </trkpt>
      <trkpt lat="47.521374" lon="2.066567">
        <ele>154.0</ele>
        <time>2022-05-19T09:29:51Z</time>
      </trkpt>
      <trkpt lat="47.521378" lon="2.0665832">
        <ele>154.0</ele>
        <time>2022-05-19T09:29:52Z</time>
      </trkpt>
      <trkpt lat="47.521385" lon="2.066597">
        <ele>154.0</ele>
        <time>2022-05-19T09:29:53Z</time>
      </trkpt>
      <trkpt lat="47.521393" lon="2.0666115">
        <ele>154.0</ele>
        <time>2022-05-19T09:29:54Z</time>
      </trkpt>
      <trkpt lat="47.521397" lon="2.0666203">
        <ele>154.0</ele>
        <time>2022-05-19T09:29:55Z</time>
      </trkpt>
      <trkpt lat="47.5214" lon="2.0666249">
        <ele>154.0</ele>
        <time>2022-05-19T09:29:56Z</time>
      </trkpt>
      <trkpt lat="47.521408" lon="2.0666332">
        <ele>154.0</ele>
        <time>2022-05-19T09:29:57Z</time>
      </trkpt>
      <trkpt lat="47.521416" lon="2.0666404">
        <ele>154.0</ele>
        <time>2022-05-19T09:29:58Z</time>
      </trkpt>
      <trkpt lat="47.521427" lon="2.0666401">
        <ele>154.0</ele>
        <time>2022-05-19T09:29:59Z</time>
      </trkpt>
      <trkpt lat="47.52144" lon="2.0666463">
        <ele>154.0</ele>
        <time>2022-05-19T09:30:00Z</time>
      </trkpt>
      <trkpt lat="47.52145" lon="2.0666556">
        <ele>154.0</ele>
        <time>2022-05-19T09:30:01Z</time>
      </trkpt>
      <trkpt lat="47.521454" lon="2.066668">
        <ele>154.0</ele>
        <time>2022-05-19T09:30:02Z</time>
      </trkpt>
      <trkpt lat="47.52146" lon="2.0666788">
        <ele>153.0</ele>
        <time>2022-05-19T09:30:03Z</time>
      </trkpt>
      <trkpt lat="47.521473" lon="2.066687">
        <ele>153.0</ele>
        <time>2022-05-19T09:30:04Z</time>
      </trkpt>
      <trkpt lat="47.52148" lon="2.066699">
        <ele>153.0</ele>
        <time>2022-05-19T09:30:05Z</time>
      </trkpt>
      <trkpt lat="47.521492" lon="2.0667112">
        <ele>153.0</ele>
        <time>2022-05-19T09:30:06Z</time>
      </trkpt>
      <trkpt lat="47.521503" lon="2.0667315">
        <ele>153.0</ele>
        <time>2022-05-19T09:30:07Z</time>
      </trkpt>
      <trkpt lat="47.521515" lon="2.0667489">
        <ele>154.0</ele>
        <time>2022-05-19T09:30:08Z</time>
      </trkpt>
      <trkpt lat="47.52152" lon="2.066763">
        <ele>155.0</ele>
        <time>2022-05-19T09:30:09Z</time>
      </trkpt>
      <trkpt lat="47.521526" lon="2.0667753">
        <ele>155.0</ele>
        <time>2022-05-19T09:30:10Z</time>
      </trkpt>
      <trkpt lat="47.52153" lon="2.066783">
        <ele>155.0</ele>
        <time>2022-05-19T09:30:11Z</time>
      </trkpt>
      <trkpt lat="47.521534" lon="2.0667868">
        <ele>155.0</ele>
        <time>2022-05-19T09:30:12Z</time>
      </trkpt>
      <trkpt lat="47.52155" lon="2.0667827">
        <ele>155.0</ele>
        <time>2022-05-19T09:30:13Z</time>
      </trkpt>
      <trkpt lat="47.52156" lon="2.0667837">
        <ele>155.0</ele>
        <time>2022-05-19T09:30:14Z</time>
      </trkpt>
      <trkpt lat="47.52158" lon="2.0667872">
        <ele>154.0</ele>
        <time>2022-05-19T09:30:15Z</time>
      </trkpt>
      <trkpt lat="47.52159" lon="2.066789">
        <ele>154.0</ele>
        <time>2022-05-19T09:30:16Z</time>
      </trkpt>
      <trkpt lat="47.521595" lon="2.0667934">
        <ele>154.0</ele>
        <time>2022-05-19T09:30:17Z</time>
      </trkpt>
      <trkpt lat="47.521603" lon="2.0668">
        <ele>154.0</ele>
        <time>2022-05-19T09:30:18Z</time>
      </trkpt>
      <trkpt lat="47.52161" lon="2.0668092">
        <ele>154.0</ele>
        <time>2022-05-19T09:30:19Z</time>
      </trkpt>
      <trkpt lat="47.52161" lon="2.0668235">
        <ele>155.0</ele>
        <time>2022-05-19T09:30:20Z</time>
      </trkpt>
      <trkpt lat="47.521618" lon="2.066837">
        <ele>155.0</ele>
        <time>2022-05-19T09:30:21Z</time>
      </trkpt>
      <trkpt lat="47.52162" lon="2.0668492">
        <ele>155.0</ele>
        <time>2022-05-19T09:30:22Z</time>
      </trkpt>
      <trkpt lat="47.52163" lon="2.0668576">
        <ele>155.0</ele>
        <time>2022-05-19T09:30:23Z</time>
      </trkpt>
      <trkpt lat="47.521633" lon="2.0668662">
        <ele>155.0</ele>
        <time>2022-05-19T09:30:24Z</time>
      </trkpt>
      <trkpt lat="47.52164" lon="2.0668802">
        <ele>156.0</ele>
        <time>2022-05-19T09:30:25Z</time>
      </trkpt>
      <trkpt lat="47.521652" lon="2.0668979">
        <ele>156.0</ele>
        <time>2022-05-19T09:30:26Z</time>
      </trkpt>
      <trkpt lat="47.52167" lon="2.0669081">
        <ele>155.0</ele>
        <time>2022-05-19T09:30:27Z</time>
      </trkpt>
      <trkpt lat="47.521687" lon="2.0669177">
        <ele>155.0</ele>
        <time>2022-05-19T09:30:28Z</time>
      </trkpt>
      <trkpt lat="47.521694" lon="2.0669363">
        <ele>154.0</ele>
        <time>2022-05-19T09:30:29Z</time>
      </trkpt>
      <trkpt lat="47.5217" lon="2.0669572">
        <ele>154.0</ele>
        <time>2022-05-19T09:30:30Z</time>
      </trkpt>
      <trkpt lat="47.521713" lon="2.066968">
        <ele>154.0</ele>
        <time>2022-05-19T09:30:31Z</time>
      </trkpt>
      <trkpt lat="47.52172" lon="2.066981">
        <ele>155.0</ele>
        <time>2022-05-19T09:30:32Z</time>
      </trkpt>
      <trkpt lat="47.521725" lon="2.0670023">
        <ele>155.0</ele>
        <time>2022-05-19T09:30:33Z</time>
      </trkpt>
      <trkpt lat="47.521725" lon="2.0670319">
        <ele>156.0</ele>
        <time>2022-05-19T09:30:34Z</time>
      </trkpt>
      <trkpt lat="47.521736" lon="2.067051">
        <ele>156.0</ele>
        <time>2022-05-19T09:30:35Z</time>
      </trkpt>
      <trkpt lat="47.521744" lon="2.0670636">
        <ele>156.0</ele>
        <time>2022-05-19T09:30:36Z</time>
      </trkpt>
      <trkpt lat="47.52175" lon="2.0670662">
        <ele>157.0</ele>
        <time>2022-05-19T09:30:37Z</time>
      </trkpt>
      <trkpt lat="47.52176" lon="2.0670753">
        <ele>157.0</ele>
        <time>2022-05-19T09:30:38Z</time>
      </trkpt>
      <trkpt lat="47.52177" lon="2.0670893">
        <ele>157.0</ele>
        <time>2022-05-19T09:30:39Z</time>
      </trkpt>
      <trkpt lat="47.521786" lon="2.0670948">
        <ele>157.0</ele>
        <time>2022-05-19T09:30:40Z</time>
      </trkpt>
      <trkpt lat="47.521793" lon="2.0671067">
        <ele>158.0</ele>
        <time>2022-05-19T09:30:41Z</time>
      </trkpt>
      <trkpt lat="47.521797" lon="2.0671206">
        <ele>159.0</ele>
        <time>2022-05-19T09:30:42Z</time>
      </trkpt>
      <trkpt lat="47.521805" lon="2.06713">
        <ele>159.0</ele>
        <time>2022-05-19T09:30:43Z</time>
      </trkpt>
      <trkpt lat="47.521816" lon="2.0671384">
        <ele>159.0</ele>
        <time>2022-05-19T09:30:44Z</time>
      </trkpt>
      <trkpt lat="47.52183" lon="2.0671442">
        <ele>158.0</ele>
        <time>2022-05-19T09:30:45Z</time>
      </trkpt>
      <trkpt lat="47.521847" lon="2.067145">
        <ele>158.0</ele>
        <time>2022-05-19T09:30:46Z</time>
      </trkpt>
      <trkpt lat="47.52186" lon="2.0671585">
        <ele>158.0</ele>
        <time>2022-05-19T09:30:47Z</time>
      </trkpt>
      <trkpt lat="47.52187" lon="2.0671694">
        <ele>158.0</ele>
        <time>2022-05-19T09:30:48Z</time>
      </trkpt>
      <trkpt lat="47.521877" lon="2.0671787">
        <ele>158.0</ele>
        <time>2022-05-19T09:30:49Z</time>
      </trkpt>
      <trkpt lat="47.52188" lon="2.067186">
        <ele>158.0</ele>
        <time>2022-05-19T09:30:50Z</time>
      </trkpt>
      <trkpt lat="47.521893" lon="2.0672076">
        <ele>157.0</ele>
        <time>2022-05-19T09:30:51Z</time>
      </trkpt>
      <trkpt lat="47.5219" lon="2.0672193">
        <ele>158.0</ele>
        <time>2022-05-19T09:30:52Z</time>
      </trkpt>
      <trkpt lat="47.52191" lon="2.0672307">
        <ele>157.0</ele>
        <time>2022-05-19T09:30:53Z</time>
      </trkpt>
      <trkpt lat="47.52192" lon="2.0672503">
        <ele>158.0</ele>
        <time>2022-05-19T09:30:54Z</time>
      </trkpt>
      <trkpt lat="47.52193" lon="2.0672681">
        <ele>158.0</ele>
        <time>2022-05-19T09:30:55Z</time>
      </trkpt>
      <trkpt lat="47.521935" lon="2.0672808">
        <ele>157.0</ele>
        <time>2022-05-19T09:30:56Z</time>
      </trkpt>
      <trkpt lat="47.52194" lon="2.0672867">
        <ele>157.0</ele>
        <time>2022-05-19T09:30:57Z</time>
      </trkpt>
      <trkpt lat="47.521946" lon="2.0672965">
        <ele>157.0</ele>
        <time>2022-05-19T09:30:58Z</time>
      </trkpt>
      <trkpt lat="47.521954" lon="2.0673068">
        <ele>158.0</ele>
        <time>2022-05-19T09:30:59Z</time>
      </trkpt>
      <trkpt lat="47.521957" lon="2.0673203">
        <ele>158.0</ele>
        <time>2022-05-19T09:31:00Z</time>
      </trkpt>
      <trkpt lat="47.521965" lon="2.0673282">
        <ele>158.0</ele>
        <time>2022-05-19T09:31:01Z</time>
      </trkpt>
      <trkpt lat="47.52197" lon="2.0673392">
        <ele>158.0</ele>
        <time>2022-05-19T09:31:02Z</time>
      </trkpt>
      <trkpt lat="47.521976" lon="2.0673473">
        <ele>159.0</ele>
        <time>2022-05-19T09:31:03Z</time>
      </trkpt>
      <trkpt lat="47.521984" lon="2.0673542">
        <ele>159.0</ele>
        <time>2022-05-19T09:31:04Z</time>
      </trkpt>
      <trkpt lat="47.521984" lon="2.0673625">
        <ele>160.0</ele>
        <time>2022-05-19T09:31:05Z</time>
      </trkpt>
      <trkpt lat="47.521996" lon="2.067365">
        <ele>160.0</ele>
        <time>2022-05-19T09:31:06Z</time>
      </trkpt>
      <trkpt lat="47.522007" lon="2.0673704">
        <ele>160.0</ele>
        <time>2022-05-19T09:31:07Z</time>
      </trkpt>
      <trkpt lat="47.52202" lon="2.067387">
        <ele>160.0</ele>
        <time>2022-05-19T09:31:08Z</time>
      </trkpt>
      <trkpt lat="47.522026" lon="2.0674052">
        <ele>159.0</ele>
        <time>2022-05-19T09:31:09Z</time>
      </trkpt>
      <trkpt lat="47.522038" lon="2.067414">
        <ele>160.0</ele>
        <time>2022-05-19T09:31:10Z</time>
      </trkpt>
      <trkpt lat="47.522045" lon="2.067418">
        <ele>160.0</ele>
        <time>2022-05-19T09:31:11Z</time>
      </trkpt>
      <trkpt lat="47.522053" lon="2.0674214">
        <ele>160.0</ele>
        <time>2022-05-19T09:31:12Z</time>
      </trkpt>
      <trkpt lat="47.522057" lon="2.067433">
        <ele>160.0</ele>
        <time>2022-05-19T09:31:13Z</time>
      </trkpt>
      <trkpt lat="47.522068" lon="2.0674489">
        <ele>159.0</ele>
        <time>2022-05-19T09:31:14Z</time>
      </trkpt>
      <trkpt lat="47.52208" lon="2.0674553">
        <ele>159.0</ele>
        <time>2022-05-19T09:31:15Z</time>
      </trkpt>
      <trkpt lat="47.52209" lon="2.0674586">
        <ele>159.0</ele>
        <time>2022-05-19T09:31:16Z</time>
      </trkpt>
      <trkpt lat="47.522106" lon="2.06746">
        <ele>159.0</ele>
        <time>2022-05-19T09:31:17Z</time>
      </trkpt>
      <trkpt lat="47.52212" lon="2.0674708">
        <ele>159.0</ele>
        <time>2022-05-19T09:31:18Z</time>
      </trkpt>
      <trkpt lat="47.52213" lon="2.0674772">
        <ele>159.0</ele>
        <time>2022-05-19T09:31:19Z</time>
      </trkpt>
      <trkpt lat="47.522133" lon="2.0674896">
        <ele>159.0</ele>
        <time>2022-05-19T09:31:20Z</time>
      </trkpt>
      <trkpt lat="47.522133" lon="2.0674958">
        <ele>158.0</ele>
        <time>2022-05-19T09:31:21Z</time>
      </trkpt>
      <trkpt lat="47.522133" lon="2.0674958">
        <ele>158.0</ele>
        <time>2022-05-19T09:31:22Z</time>
      </trkpt>
      <trkpt lat="47.522152" lon="2.0675218">
        <ele>157.0</ele>
        <time>2022-05-19T09:31:23Z</time>
      </trkpt>
      <trkpt lat="47.522163" lon="2.0675395">
        <ele>157.0</ele>
        <time>2022-05-19T09:31:24Z</time>
      </trkpt>
      <trkpt lat="47.522167" lon="2.0675497">
        <ele>157.0</ele>
        <time>2022-05-19T09:31:25Z</time>
      </trkpt>
      <trkpt lat="47.52217" lon="2.0675595">
        <ele>156.0</ele>
        <time>2022-05-19T09:31:26Z</time>
      </trkpt>
      <trkpt lat="47.522175" lon="2.0675755">
        <ele>156.0</ele>
        <time>2022-05-19T09:31:27Z</time>
      </trkpt>
      <trkpt lat="47.522175" lon="2.0675755">
        <ele>156.0</ele>
        <time>2022-05-19T09:31:28Z</time>
      </trkpt>
      <trkpt lat="47.522182" lon="2.0675972">
        <ele>156.0</ele>
        <time>2022-05-19T09:31:29Z</time>
      </trkpt>
      <trkpt lat="47.52219" lon="2.0676122">
        <ele>156.0</ele>
        <time>2022-05-19T09:31:30Z</time>
      </trkpt>
      <trkpt lat="47.522198" lon="2.0676157">
        <ele>157.0</ele>
        <time>2022-05-19T09:31:31Z</time>
      </trkpt>
      <trkpt lat="47.52221" lon="2.0676146">
        <ele>157.0</ele>
        <time>2022-05-19T09:31:32Z</time>
      </trkpt>
      <trkpt lat="47.522224" lon="2.067612">
        <ele>157.0</ele>
        <time>2022-05-19T09:31:33Z</time>
      </trkpt>
      <trkpt lat="47.522232" lon="2.0676167">
        <ele>157.0</ele>
        <time>2022-05-19T09:31:34Z</time>
      </trkpt>
      <trkpt lat="47.522232" lon="2.0676167">
        <ele>157.0</ele>
        <time>2022-05-19T09:31:35Z</time>
      </trkpt>
      <trkpt lat="47.522232" lon="2.0676167">
        <ele>157.0</ele>
        <time>2022-05-19T09:31:36Z</time>
      </trkpt>
      <trkpt lat="47.522232" lon="2.0676167">
        <ele>157.0</ele>
        <time>2022-05-19T09:31:37Z</time>
      </trkpt>
      <trkpt lat="47.522247" lon="2.0676188">
        <ele>157.0</ele>
        <time>2022-05-19T09:31:38Z</time>
      </trkpt>
      <trkpt lat="47.52226" lon="2.0676212">
        <ele>157.0</ele>
        <time>2022-05-19T09:31:39Z</time>
      </trkpt>
      <trkpt lat="47.522263" lon="2.0676148">
        <ele>157.0</ele>
        <time>2022-05-19T09:31:40Z</time>
      </trkpt>
      <trkpt lat="47.522274" lon="2.0676148">
        <ele>157.0</ele>
        <time>2022-05-19T09:31:41Z</time>
      </trkpt>
      <trkpt lat="47.52228" lon="2.0676167">
        <ele>157.0</ele>
        <time>2022-05-19T09:31:42Z</time>
      </trkpt>
      <trkpt lat="47.522293" lon="2.0676155">
        <ele>157.0</ele>
        <time>2022-05-19T09:31:43Z</time>
      </trkpt>
      <trkpt lat="47.52231" lon="2.0676124">
        <ele>157.0</ele>
        <time>2022-05-19T09:31:44Z</time>
      </trkpt>
      <trkpt lat="47.52232" lon="2.0676036">
        <ele>157.0</ele>
        <time>2022-05-19T09:31:45Z</time>
      </trkpt>
      <trkpt lat="47.522327" lon="2.0675998">
        <ele>157.0</ele>
        <time>2022-05-19T09:31:46Z</time>
      </trkpt>
      <trkpt lat="47.52234" lon="2.0675917">
        <ele>157.0</ele>
        <time>2022-05-19T09:31:47Z</time>
      </trkpt>
      <trkpt lat="47.522358" lon="2.0675805">
        <ele>157.0</ele>
        <time>2022-05-19T09:31:48Z</time>
      </trkpt>
      <trkpt lat="47.52237" lon="2.0675821">
        <ele>158.0</ele>
        <time>2022-05-19T09:31:49Z</time>
      </trkpt>
      <trkpt lat="47.522385" lon="2.0675814">
        <ele>158.0</ele>
        <time>2022-05-19T09:31:50Z</time>
      </trkpt>
      <trkpt lat="47.522404" lon="2.067579">
        <ele>159.0</ele>
        <time>2022-05-19T09:31:51Z</time>
      </trkpt>
      <trkpt lat="47.52242" lon="2.0675719">
        <ele>159.0</ele>
        <time>2022-05-19T09:31:52Z</time>
      </trkpt>
      <trkpt lat="47.52243" lon="2.0675647">
        <ele>159.0</ele>
        <time>2022-05-19T09:31:53Z</time>
      </trkpt>
      <trkpt lat="47.522434" lon="2.0675569">
        <ele>159.0</ele>
        <time>2022-05-19T09:31:54Z</time>
      </trkpt>
      <trkpt lat="47.522446" lon="2.0675497">
        <ele>159.0</ele>
        <time>2022-05-19T09:31:55Z</time>
      </trkpt>
      <trkpt lat="47.52245" lon="2.0675464">
        <ele>159.0</ele>
        <time>2022-05-19T09:31:56Z</time>
      </trkpt>
      <trkpt lat="47.522457" lon="2.0675414">
        <ele>159.0</ele>
        <time>2022-05-19T09:31:57Z</time>
      </trkpt>
      <trkpt lat="47.522465" lon="2.0675404">
        <ele>159.0</ele>
        <time>2022-05-19T09:31:58Z</time>
      </trkpt>
      <trkpt lat="47.52247" lon="2.0675392">
        <ele>158.0</ele>
        <time>2022-05-19T09:31:59Z</time>
      </trkpt>
      <trkpt lat="47.522476" lon="2.0675313">
        <ele>158.0</ele>
        <time>2022-05-19T09:32:00Z</time>
      </trkpt>
      <trkpt lat="47.522476" lon="2.0675192">
        <ele>158.0</ele>
        <time>2022-05-19T09:32:01Z</time>
      </trkpt>
      <trkpt lat="47.522484" lon="2.0675058">
        <ele>158.0</ele>
        <time>2022-05-19T09:32:02Z</time>
      </trkpt>
      <trkpt lat="47.52249" lon="2.067494">
        <ele>157.0</ele>
        <time>2022-05-19T09:32:03Z</time>
      </trkpt>
      <trkpt lat="47.5225" lon="2.0674827">
        <ele>157.0</ele>
        <time>2022-05-19T09:32:04Z</time>
      </trkpt>
      <trkpt lat="47.5225" lon="2.0674827">
        <ele>157.0</ele>
        <time>2022-05-19T09:32:05Z</time>
      </trkpt>
      <trkpt lat="47.5225" lon="2.0674827">
        <ele>157.0</ele>
        <time>2022-05-19T09:32:06Z</time>
      </trkpt>
      <trkpt lat="47.52252" lon="2.0674736">
        <ele>158.0</ele>
        <time>2022-05-19T09:32:07Z</time>
      </trkpt>
      <trkpt lat="47.52253" lon="2.0674713">
        <ele>158.0</ele>
        <time>2022-05-19T09:32:08Z</time>
      </trkpt>
      <trkpt lat="47.522545" lon="2.0674767">
        <ele>159.0</ele>
        <time>2022-05-19T09:32:09Z</time>
      </trkpt>
      <trkpt lat="47.522556" lon="2.067481">
        <ele>158.0</ele>
        <time>2022-05-19T09:32:10Z</time>
      </trkpt>
      <trkpt lat="47.52257" lon="2.0674796">
        <ele>158.0</ele>
        <time>2022-05-19T09:32:11Z</time>
      </trkpt>
      <trkpt lat="47.522587" lon="2.0674713">
        <ele>158.0</ele>
        <time>2022-05-19T09:32:12Z</time>
      </trkpt>
      <trkpt lat="47.522602" lon="2.0674584">
        <ele>158.0</ele>
        <time>2022-05-19T09:32:13Z</time>
      </trkpt>
      <trkpt lat="47.522614" lon="2.0674472">
        <ele>158.0</ele>
        <time>2022-05-19T09:32:14Z</time>
      </trkpt>
      <trkpt lat="47.522625" lon="2.0674472">
        <ele>157.0</ele>
        <time>2022-05-19T09:32:15Z</time>
      </trkpt>
      <trkpt lat="47.522636" lon="2.0674458">
        <ele>157.0</ele>
        <time>2022-05-19T09:32:16Z</time>
      </trkpt>
      <trkpt lat="47.522648" lon="2.06744">
        <ele>157.0</ele>
        <time>2022-05-19T09:32:17Z</time>
      </trkpt>
      <trkpt lat="47.52266" lon="2.0674357">
        <ele>157.0</ele>
        <time>2022-05-19T09:32:18Z</time>
      </trkpt>
      <trkpt lat="47.522667" lon="2.067425">
        <ele>156.0</ele>
        <time>2022-05-19T09:32:19Z</time>
      </trkpt>
      <trkpt lat="47.522675" lon="2.0674145">
        <ele>156.0</ele>
        <time>2022-05-19T09:32:20Z</time>
      </trkpt>
      <trkpt lat="47.52268" lon="2.0674016">
        <ele>156.0</ele>
        <time>2022-05-19T09:32:21Z</time>
      </trkpt>
      <trkpt lat="47.522686" lon="2.06739">
        <ele>156.0</ele>
        <time>2022-05-19T09:32:22Z</time>
      </trkpt>
      <trkpt lat="47.52269" lon="2.0673842">
        <ele>156.0</ele>
        <time>2022-05-19T09:32:23Z</time>
      </trkpt>
      <trkpt lat="47.5227" lon="2.0673766">
        <ele>156.0</ele>
        <time>2022-05-19T09:32:24Z</time>
      </trkpt>
      <trkpt lat="47.522717" lon="2.0673692">
        <ele>156.0</ele>
        <time>2022-05-19T09:32:25Z</time>
      </trkpt>
      <trkpt lat="47.52273" lon="2.067362">
        <ele>156.0</ele>
        <time>2022-05-19T09:32:26Z</time>
      </trkpt>
      <trkpt lat="47.52274" lon="2.067354">
        <ele>156.0</ele>
        <time>2022-05-19T09:32:27Z</time>
      </trkpt>
      <trkpt lat="47.522755" lon="2.0673423">
        <ele>156.0</ele>
        <time>2022-05-19T09:32:28Z</time>
      </trkpt>
      <trkpt lat="47.52277" lon="2.067333">
        <ele>156.0</ele>
        <time>2022-05-19T09:32:29Z</time>
      </trkpt>
      <trkpt lat="47.52278" lon="2.0673232">
        <ele>156.0</ele>
        <time>2022-05-19T09:32:30Z</time>
      </trkpt>
      <trkpt lat="47.52279" lon="2.0673182">
        <ele>156.0</ele>
        <time>2022-05-19T09:32:31Z</time>
      </trkpt>
      <trkpt lat="47.522804" lon="2.0673113">
        <ele>157.0</ele>
        <time>2022-05-19T09:32:32Z</time>
      </trkpt>
      <trkpt lat="47.522816" lon="2.0672987">
        <ele>156.0</ele>
        <time>2022-05-19T09:32:33Z</time>
      </trkpt>
      <trkpt lat="47.522827" lon="2.067283">
        <ele>156.0</ele>
        <time>2022-05-19T09:32:34Z</time>
      </trkpt>
      <trkpt lat="47.52284" lon="2.0672643">
        <ele>156.0</ele>
        <time>2022-05-19T09:32:35Z</time>
      </trkpt>
      <trkpt lat="47.52285" lon="2.0672493">
        <ele>156.0</ele>
        <time>2022-05-19T09:32:36Z</time>
      </trkpt>
      <trkpt lat="47.52286" lon="2.0672412">
        <ele>156.0</ele>
        <time>2022-05-19T09:32:37Z</time>
      </trkpt>
      <trkpt lat="47.52287" lon="2.0672326">
        <ele>155.0</ele>
        <time>2022-05-19T09:32:38Z</time>
      </trkpt>
      <trkpt lat="47.52288" lon="2.067225">
        <ele>155.0</ele>
        <time>2022-05-19T09:32:39Z</time>
      </trkpt>
      <trkpt lat="47.522892" lon="2.0672216">
        <ele>155.0</ele>
        <time>2022-05-19T09:32:40Z</time>
      </trkpt>
      <trkpt lat="47.522907" lon="2.0672169">
        <ele>155.0</ele>
        <time>2022-05-19T09:32:41Z</time>
      </trkpt>
      <trkpt lat="47.522915" lon="2.0672138">
        <ele>155.0</ele>
        <time>2022-05-19T09:32:42Z</time>
      </trkpt>
      <trkpt lat="47.522923" lon="2.0672088">
        <ele>154.0</ele>
        <time>2022-05-19T09:32:43Z</time>
      </trkpt>
      <trkpt lat="47.52293" lon="2.0672004">
        <ele>155.0</ele>
        <time>2022-05-19T09:32:44Z</time>
      </trkpt>
      <trkpt lat="47.522934" lon="2.0672014">
        <ele>154.0</ele>
        <time>2022-05-19T09:32:45Z</time>
      </trkpt>
      <trkpt lat="47.522945" lon="2.0672047">
        <ele>154.0</ele>
        <time>2022-05-19T09:32:46Z</time>
      </trkpt>
      <trkpt lat="47.522957" lon="2.0671997">
        <ele>154.0</ele>
        <time>2022-05-19T09:32:47Z</time>
      </trkpt>
      <trkpt lat="47.522972" lon="2.0671945">
        <ele>154.0</ele>
        <time>2022-05-19T09:32:48Z</time>
      </trkpt>
      <trkpt lat="47.522984" lon="2.0671864">
        <ele>154.0</ele>
        <time>2022-05-19T09:32:49Z</time>
      </trkpt>
      <trkpt lat="47.522995" lon="2.0671751">
        <ele>154.0</ele>
        <time>2022-05-19T09:32:50Z</time>
      </trkpt>
      <trkpt lat="47.523006" lon="2.067169">
        <ele>154.0</ele>
        <time>2022-05-19T09:32:51Z</time>
      </trkpt>
      <trkpt lat="47.523018" lon="2.0671637">
        <ele>154.0</ele>
        <time>2022-05-19T09:32:52Z</time>
      </trkpt>
      <trkpt lat="47.52302" lon="2.0671537">
        <ele>154.0</ele>
        <time>2022-05-19T09:32:53Z</time>
      </trkpt>
      <trkpt lat="47.52303" lon="2.0671473">
        <ele>154.0</ele>
        <time>2022-05-19T09:32:54Z</time>
      </trkpt>
      <trkpt lat="47.52304" lon="2.0671365">
        <ele>154.0</ele>
        <time>2022-05-19T09:32:55Z</time>
      </trkpt>
      <trkpt lat="47.52305" lon="2.0671299">
        <ele>155.0</ele>
        <time>2022-05-19T09:32:56Z</time>
      </trkpt>
      <trkpt lat="47.523052" lon="2.0671237">
        <ele>155.0</ele>
        <time>2022-05-19T09:32:57Z</time>
      </trkpt>
      <trkpt lat="47.52306" lon="2.0671127">
        <ele>154.0</ele>
        <time>2022-05-19T09:32:58Z</time>
      </trkpt>
      <trkpt lat="47.523067" lon="2.0671012">
        <ele>154.0</ele>
        <time>2022-05-19T09:32:59Z</time>
      </trkpt>
      <trkpt lat="47.523075" lon="2.0670915">
        <ele>153.0</ele>
        <time>2022-05-19T09:33:00Z</time>
      </trkpt>
      <trkpt lat="47.523083" lon="2.0670831">
        <ele>153.0</ele>
        <time>2022-05-19T09:33:01Z</time>
      </trkpt>
      <trkpt lat="47.52309" lon="2.06707">
        <ele>153.0</ele>
        <time>2022-05-19T09:33:02Z</time>
      </trkpt>
      <trkpt lat="47.5231" lon="2.067055">
        <ele>152.0</ele>
        <time>2022-05-19T09:33:03Z</time>
      </trkpt>
      <trkpt lat="47.523113" lon="2.0670452">
        <ele>153.0</ele>
        <time>2022-05-19T09:33:04Z</time>
      </trkpt>
      <trkpt lat="47.52313" lon="2.0670333">
        <ele>153.0</ele>
        <time>2022-05-19T09:33:05Z</time>
      </trkpt>
      <trkpt lat="47.523136" lon="2.0670292">
        <ele>153.0</ele>
        <time>2022-05-19T09:33:06Z</time>
      </trkpt>
      <trkpt lat="47.523148" lon="2.0670247">
        <ele>154.0</ele>
        <time>2022-05-19T09:33:07Z</time>
      </trkpt>
      <trkpt lat="47.52316" lon="2.0670238">
        <ele>154.0</ele>
        <time>2022-05-19T09:33:08Z</time>
      </trkpt>
      <trkpt lat="47.52317" lon="2.0670211">
        <ele>154.0</ele>
        <time>2022-05-19T09:33:09Z</time>
      </trkpt>
      <trkpt lat="47.523186" lon="2.0670078">
        <ele>154.0</ele>
        <time>2022-05-19T09:33:10Z</time>
      </trkpt>
      <trkpt lat="47.52319" lon="2.0669854">
        <ele>154.0</ele>
        <time>2022-05-19T09:33:11Z</time>
      </trkpt>
      <trkpt lat="47.5232" lon="2.0669727">
        <ele>154.0</ele>
        <time>2022-05-19T09:33:12Z</time>
      </trkpt>
      <trkpt lat="47.52321" lon="2.0669644">
        <ele>154.0</ele>
        <time>2022-05-19T09:33:13Z</time>
      </trkpt>
      <trkpt lat="47.523216" lon="2.0669568">
        <ele>155.0</ele>
        <time>2022-05-19T09:33:14Z</time>
      </trkpt>
      <trkpt lat="47.523228" lon="2.0669444">
        <ele>155.0</ele>
        <time>2022-05-19T09:33:15Z</time>
      </trkpt>
      <trkpt lat="47.523235" lon="2.0669403">
        <ele>155.0</ele>
        <time>2022-05-19T09:33:16Z</time>
      </trkpt>
      <trkpt lat="47.523243" lon="2.0669372">
        <ele>155.0</ele>
        <time>2022-05-19T09:33:17Z</time>
      </trkpt>
      <trkpt lat="47.523254" lon="2.0669296">
        <ele>154.0</ele>
        <time>2022-05-19T09:33:18Z</time>
      </trkpt>
      <trkpt lat="47.523262" lon="2.0669181">
        <ele>154.0</ele>
        <time>2022-05-19T09:33:19Z</time>
      </trkpt>
      <trkpt lat="47.52327" lon="2.0669084">
        <ele>154.0</ele>
        <time>2022-05-19T09:33:20Z</time>
      </trkpt>
      <trkpt lat="47.523273" lon="2.0669007">
        <ele>154.0</ele>
        <time>2022-05-19T09:33:21Z</time>
      </trkpt>
      <trkpt lat="47.523277" lon="2.0668955">
        <ele>154.0</ele>
        <time>2022-05-19T09:33:22Z</time>
      </trkpt>
      <trkpt lat="47.523285" lon="2.0668886">
        <ele>154.0</ele>
        <time>2022-05-19T09:33:23Z</time>
      </trkpt>
      <trkpt lat="47.523293" lon="2.0668802">
        <ele>153.0</ele>
        <time>2022-05-19T09:33:24Z</time>
      </trkpt>
      <trkpt lat="47.523304" lon="2.0668688">
        <ele>153.0</ele>
        <time>2022-05-19T09:33:25Z</time>
      </trkpt>
      <trkpt lat="47.523315" lon="2.0668561">
        <ele>153.0</ele>
        <time>2022-05-19T09:33:26Z</time>
      </trkpt>
      <trkpt lat="47.523323" lon="2.066845">
        <ele>153.0</ele>
        <time>2022-05-19T09:33:27Z</time>
      </trkpt>
      <trkpt lat="47.52333" lon="2.0668392">
        <ele>153.0</ele>
        <time>2022-05-19T09:33:28Z</time>
      </trkpt>
      <trkpt lat="47.52334" lon="2.066829">
        <ele>154.0</ele>
        <time>2022-05-19T09:33:29Z</time>
      </trkpt>
      <trkpt lat="47.523342" lon="2.0668156">
        <ele>154.0</ele>
        <time>2022-05-19T09:33:30Z</time>
      </trkpt>
      <trkpt lat="47.523354" lon="2.066809">
        <ele>154.0</ele>
        <time>2022-05-19T09:33:31Z</time>
      </trkpt>
      <trkpt lat="47.523365" lon="2.0668015">
        <ele>154.0</ele>
        <time>2022-05-19T09:33:32Z</time>
      </trkpt>
      <trkpt lat="47.523376" lon="2.0667982">
        <ele>154.0</ele>
        <time>2022-05-19T09:33:33Z</time>
      </trkpt>
      <trkpt lat="47.523384" lon="2.0667925">
        <ele>154.0</ele>
        <time>2022-05-19T09:33:34Z</time>
      </trkpt>
      <trkpt lat="47.523396" lon="2.0667803">
        <ele>154.0</ele>
        <time>2022-05-19T09:33:35Z</time>
      </trkpt>
      <trkpt lat="47.523403" lon="2.066767">
        <ele>154.0</ele>
        <time>2022-05-19T09:33:36Z</time>
      </trkpt>
      <trkpt lat="47.523415" lon="2.0667634">
        <ele>153.0</ele>
        <time>2022-05-19T09:33:37Z</time>
      </trkpt>
      <trkpt lat="47.523426" lon="2.0667531">
        <ele>153.0</ele>
        <time>2022-05-19T09:33:38Z</time>
      </trkpt>
      <trkpt lat="47.523434" lon="2.0667398">
        <ele>153.0</ele>
        <time>2022-05-19T09:33:39Z</time>
      </trkpt>
      <trkpt lat="47.523445" lon="2.0667284">
        <ele>153.0</ele>
        <time>2022-05-19T09:33:40Z</time>
      </trkpt>
      <trkpt lat="47.523453" lon="2.0667188">
        <ele>153.0</ele>
        <time>2022-05-19T09:33:41Z</time>
      </trkpt>
      <trkpt lat="47.523464" lon="2.0667155">
        <ele>153.0</ele>
        <time>2022-05-19T09:33:42Z</time>
      </trkpt>
      <trkpt lat="47.523476" lon="2.0667133">
        <ele>154.0</ele>
        <time>2022-05-19T09:33:43Z</time>
      </trkpt>
      <trkpt lat="47.52349" lon="2.0667055">
        <ele>154.0</ele>
        <time>2022-05-19T09:33:44Z</time>
      </trkpt>
      <trkpt lat="47.523502" lon="2.0666938">
        <ele>154.0</ele>
        <time>2022-05-19T09:33:45Z</time>
      </trkpt>
      <trkpt lat="47.52351" lon="2.0666814">
        <ele>154.0</ele>
        <time>2022-05-19T09:33:46Z</time>
      </trkpt>
      <trkpt lat="47.52352" lon="2.0666728">
        <ele>154.0</ele>
        <time>2022-05-19T09:33:47Z</time>
      </trkpt>
      <trkpt lat="47.52353" lon="2.0666623">
        <ele>154.0</ele>
        <time>2022-05-19T09:33:48Z</time>
      </trkpt>
      <trkpt lat="47.523533" lon="2.066653">
        <ele>154.0</ele>
        <time>2022-05-19T09:33:49Z</time>
      </trkpt>
      <trkpt lat="47.523544" lon="2.0666444">
        <ele>154.0</ele>
        <time>2022-05-19T09:33:50Z</time>
      </trkpt>
      <trkpt lat="47.52356" lon="2.0666347">
        <ele>154.0</ele>
        <time>2022-05-19T09:33:51Z</time>
      </trkpt>
      <trkpt lat="47.52357" lon="2.066621">
        <ele>155.0</ele>
        <time>2022-05-19T09:33:52Z</time>
      </trkpt>
      <trkpt lat="47.523582" lon="2.0666099">
        <ele>155.0</ele>
        <time>2022-05-19T09:33:53Z</time>
      </trkpt>
      <trkpt lat="47.523598" lon="2.0665987">
        <ele>155.0</ele>
        <time>2022-05-19T09:33:54Z</time>
      </trkpt>
      <trkpt lat="47.52361" lon="2.0665908">
        <ele>155.0</ele>
        <time>2022-05-19T09:33:55Z</time>
      </trkpt>
      <trkpt lat="47.52362" lon="2.066576">
        <ele>155.0</ele>
        <time>2022-05-19T09:33:56Z</time>
      </trkpt>
      <trkpt lat="47.52363" lon="2.0665653">
        <ele>155.0</ele>
        <time>2022-05-19T09:33:57Z</time>
      </trkpt>
      <trkpt lat="47.523636" lon="2.066558">
        <ele>154.0</ele>
        <time>2022-05-19T09:33:58Z</time>
      </trkpt>
      <trkpt lat="47.523647" lon="2.0665493">
        <ele>154.0</ele>
        <time>2022-05-19T09:33:59Z</time>
      </trkpt>
      <trkpt lat="47.523663" lon="2.0665338">
        <ele>154.0</ele>
        <time>2022-05-19T09:34:00Z</time>
      </trkpt>
      <trkpt lat="47.523678" lon="2.066522">
        <ele>154.0</ele>
        <time>2022-05-19T09:34:01Z</time>
      </trkpt>
      <trkpt lat="47.523693" lon="2.0665133">
        <ele>154.0</ele>
        <time>2022-05-19T09:34:02Z</time>
      </trkpt>
      <trkpt lat="47.52371" lon="2.066506">
        <ele>154.0</ele>
        <time>2022-05-19T09:34:03Z</time>
      </trkpt>
      <trkpt lat="47.523724" lon="2.066504">
        <ele>154.0</ele>
        <time>2022-05-19T09:34:04Z</time>
      </trkpt>
      <trkpt lat="47.523735" lon="2.0665011">
        <ele>154.0</ele>
        <time>2022-05-19T09:34:05Z</time>
      </trkpt>
      <trkpt lat="47.523743" lon="2.0664995">
        <ele>154.0</ele>
        <time>2022-05-19T09:34:06Z</time>
      </trkpt>
      <trkpt lat="47.523754" lon="2.066493">
        <ele>154.0</ele>
        <time>2022-05-19T09:34:07Z</time>
      </trkpt>
      <trkpt lat="47.523766" lon="2.0664856">
        <ele>153.0</ele>
        <time>2022-05-19T09:34:08Z</time>
      </trkpt>
      <trkpt lat="47.523773" lon="2.066471">
        <ele>153.0</ele>
        <time>2022-05-19T09:34:09Z</time>
      </trkpt>
      <trkpt lat="47.52378" lon="2.0664582">
        <ele>153.0</ele>
        <time>2022-05-19T09:34:10Z</time>
      </trkpt>
      <trkpt lat="47.523792" lon="2.0664456">
        <ele>153.0</ele>
        <time>2022-05-19T09:34:11Z</time>
      </trkpt>
      <trkpt lat="47.5238" lon="2.0664337">
        <ele>153.0</ele>
        <time>2022-05-19T09:34:12Z</time>
      </trkpt>
      <trkpt lat="47.523808" lon="2.0664225">
        <ele>153.0</ele>
        <time>2022-05-19T09:34:13Z</time>
      </trkpt>
      <trkpt lat="47.52382" lon="2.0664203">
        <ele>153.0</ele>
        <time>2022-05-19T09:34:14Z</time>
      </trkpt>
      <trkpt lat="47.52383" lon="2.0664194">
        <ele>153.0</ele>
        <time>2022-05-19T09:34:15Z</time>
      </trkpt>
      <trkpt lat="47.523838" lon="2.0664182">
        <ele>154.0</ele>
        <time>2022-05-19T09:34:16Z</time>
      </trkpt>
      <trkpt lat="47.52385" lon="2.0664139">
        <ele>154.0</ele>
        <time>2022-05-19T09:34:17Z</time>
      </trkpt>
      <trkpt lat="47.52386" lon="2.0664093">
        <ele>154.0</ele>
        <time>2022-05-19T09:34:18Z</time>
      </trkpt>
      <trkpt lat="47.52387" lon="2.0664003">
        <ele>154.0</ele>
        <time>2022-05-19T09:34:19Z</time>
      </trkpt>
      <trkpt lat="47.523876" lon="2.0663967">
        <ele>154.0</ele>
        <time>2022-05-19T09:34:20Z</time>
      </trkpt>
      <trkpt lat="47.52388" lon="2.0663955">
        <ele>154.0</ele>
        <time>2022-05-19T09:34:21Z</time>
      </trkpt>
      <trkpt lat="47.523884" lon="2.0663922">
        <ele>154.0</ele>
        <time>2022-05-19T09:34:22Z</time>
      </trkpt>
      <trkpt lat="47.523884" lon="2.0663922">
        <ele>154.0</ele>
        <time>2022-05-19T09:34:23Z</time>
      </trkpt>
      <trkpt lat="47.523884" lon="2.0663922">
        <ele>154.0</ele>
        <time>2022-05-19T09:34:24Z</time>
      </trkpt>
      <trkpt lat="47.52389" lon="2.066374">
        <ele>153.0</ele>
        <time>2022-05-19T09:34:25Z</time>
      </trkpt>
      <trkpt lat="47.523903" lon="2.0663686">
        <ele>153.0</ele>
        <time>2022-05-19T09:34:26Z</time>
      </trkpt>
      <trkpt lat="47.523914" lon="2.0663655">
        <ele>153.0</ele>
        <time>2022-05-19T09:34:27Z</time>
      </trkpt>
      <trkpt lat="47.523926" lon="2.0663629">
        <ele>153.0</ele>
        <time>2022-05-19T09:34:28Z</time>
      </trkpt>
      <trkpt lat="47.523937" lon="2.066359">
        <ele>153.0</ele>
        <time>2022-05-19T09:34:29Z</time>
      </trkpt>
      <trkpt lat="47.52395" lon="2.0663545">
        <ele>153.0</ele>
        <time>2022-05-19T09:34:30Z</time>
      </trkpt>
      <trkpt lat="47.52396" lon="2.066348">
        <ele>153.0</ele>
        <time>2022-05-19T09:34:31Z</time>
      </trkpt>
      <trkpt lat="47.52397" lon="2.066346">
        <ele>153.0</ele>
        <time>2022-05-19T09:34:32Z</time>
      </trkpt>
      <trkpt lat="47.523983" lon="2.0663404">
        <ele>153.0</ele>
        <time>2022-05-19T09:34:33Z</time>
      </trkpt>
      <trkpt lat="47.52399" lon="2.066337">
        <ele>152.0</ele>
        <time>2022-05-19T09:34:34Z</time>
      </trkpt>
      <trkpt lat="47.524" lon="2.066335">
        <ele>152.0</ele>
        <time>2022-05-19T09:34:35Z</time>
      </trkpt>
      <trkpt lat="47.524014" lon="2.0663333">
        <ele>153.0</ele>
        <time>2022-05-19T09:34:36Z</time>
      </trkpt>
      <trkpt lat="47.52402" lon="2.0663264">
        <ele>153.0</ele>
        <time>2022-05-19T09:34:37Z</time>
      </trkpt>
      <trkpt lat="47.524033" lon="2.0663178">
        <ele>153.0</ele>
        <time>2022-05-19T09:34:38Z</time>
      </trkpt>
      <trkpt lat="47.524048" lon="2.0663054">
        <ele>153.0</ele>
        <time>2022-05-19T09:34:39Z</time>
      </trkpt>
      <trkpt lat="47.52406" lon="2.0662916">
        <ele>153.0</ele>
        <time>2022-05-19T09:34:40Z</time>
      </trkpt>
      <trkpt lat="47.524075" lon="2.0662854">
        <ele>153.0</ele>
        <time>2022-05-19T09:34:41Z</time>
      </trkpt>
      <trkpt lat="47.524082" lon="2.0662763">
        <ele>152.0</ele>
        <time>2022-05-19T09:34:42Z</time>
      </trkpt>
      <trkpt lat="47.52409" lon="2.066268">
        <ele>152.0</ele>
        <time>2022-05-19T09:34:43Z</time>
      </trkpt>
      <trkpt lat="47.524097" lon="2.0662434">
        <ele>152.0</ele>
        <time>2022-05-19T09:34:44Z</time>
      </trkpt>
      <trkpt lat="47.524097" lon="2.0662138">
        <ele>152.0</ele>
        <time>2022-05-19T09:34:45Z</time>
      </trkpt>
      <trkpt lat="47.524105" lon="2.066191">
        <ele>152.0</ele>
        <time>2022-05-19T09:34:46Z</time>
      </trkpt>
      <trkpt lat="47.524113" lon="2.0661669">
        <ele>152.0</ele>
        <time>2022-05-19T09:34:47Z</time>
      </trkpt>
      <trkpt lat="47.52412" lon="2.0661385">
        <ele>151.0</ele>
        <time>2022-05-19T09:34:48Z</time>
      </trkpt>
      <trkpt lat="47.524124" lon="2.0661178">
        <ele>152.0</ele>
        <time>2022-05-19T09:34:49Z</time>
      </trkpt>
      <trkpt lat="47.524124" lon="2.0661075">
        <ele>152.0</ele>
        <time>2022-05-19T09:34:50Z</time>
      </trkpt>
      <trkpt lat="47.524128" lon="2.0660942">
        <ele>152.0</ele>
        <time>2022-05-19T09:34:51Z</time>
      </trkpt>
      <trkpt lat="47.524124" lon="2.0660725">
        <ele>152.0</ele>
        <time>2022-05-19T09:34:52Z</time>
      </trkpt>
      <trkpt lat="47.524124" lon="2.0660534">
        <ele>152.0</ele>
        <time>2022-05-19T09:34:53Z</time>
      </trkpt>
      <trkpt lat="47.524128" lon="2.0660331">
        <ele>152.0</ele>
        <time>2022-05-19T09:34:54Z</time>
      </trkpt>
      <trkpt lat="47.524128" lon="2.0660105">
        <ele>151.0</ele>
        <time>2022-05-19T09:34:55Z</time>
      </trkpt>
      <trkpt lat="47.52413" lon="2.0659933">
        <ele>152.0</ele>
        <time>2022-05-19T09:34:56Z</time>
      </trkpt>
      <trkpt lat="47.524136" lon="2.065981">
        <ele>152.0</ele>
        <time>2022-05-19T09:34:57Z</time>
      </trkpt>
      <trkpt lat="47.52414" lon="2.065967">
        <ele>152.0</ele>
        <time>2022-05-19T09:34:58Z</time>
      </trkpt>
      <trkpt lat="47.524143" lon="2.0659559">
        <ele>153.0</ele>
        <time>2022-05-19T09:34:59Z</time>
      </trkpt>
      <trkpt lat="47.52415" lon="2.0659456">
        <ele>153.0</ele>
        <time>2022-05-19T09:35:00Z</time>
      </trkpt>
      <trkpt lat="47.52416" lon="2.0659337">
        <ele>154.0</ele>
        <time>2022-05-19T09:35:01Z</time>
      </trkpt>
      <trkpt lat="47.524162" lon="2.0659208">
        <ele>154.0</ele>
        <time>2022-05-19T09:35:02Z</time>
      </trkpt>
      <trkpt lat="47.524174" lon="2.0659091">
        <ele>155.0</ele>
        <time>2022-05-19T09:35:03Z</time>
      </trkpt>
      <trkpt lat="47.52418" lon="2.065897">
        <ele>156.0</ele>
        <time>2022-05-19T09:35:04Z</time>
      </trkpt>
      <trkpt lat="47.52419" lon="2.0658844">
        <ele>157.0</ele>
        <time>2022-05-19T09:35:05Z</time>
      </trkpt>
      <trkpt lat="47.524193" lon="2.0658681">
        <ele>157.0</ele>
        <time>2022-05-19T09:35:06Z</time>
      </trkpt>
      <trkpt lat="47.5242" lon="2.065855">
        <ele>158.0</ele>
        <time>2022-05-19T09:35:07Z</time>
      </trkpt>
      <trkpt lat="47.524208" lon="2.0658386">
        <ele>158.0</ele>
        <time>2022-05-19T09:35:08Z</time>
      </trkpt>
      <trkpt lat="47.524208" lon="2.0658176">
        <ele>158.0</ele>
        <time>2022-05-19T09:35:09Z</time>
      </trkpt>
      <trkpt lat="47.524208" lon="2.065795">
        <ele>159.0</ele>
        <time>2022-05-19T09:35:10Z</time>
      </trkpt>
      <trkpt lat="47.52421" lon="2.0657787">
        <ele>159.0</ele>
        <time>2022-05-19T09:35:11Z</time>
      </trkpt>
      <trkpt lat="47.524216" lon="2.0657618">
        <ele>159.0</ele>
        <time>2022-05-19T09:35:12Z</time>
      </trkpt>
      <trkpt lat="47.52422" lon="2.0657463">
        <ele>159.0</ele>
        <time>2022-05-19T09:35:13Z</time>
      </trkpt>
      <trkpt lat="47.524223" lon="2.0657287">
        <ele>160.0</ele>
        <time>2022-05-19T09:35:14Z</time>
      </trkpt>
      <trkpt lat="47.524227" lon="2.0657086">
        <ele>160.0</ele>
        <time>2022-05-19T09:35:15Z</time>
      </trkpt>
      <trkpt lat="47.524227" lon="2.0656922">
        <ele>161.0</ele>
        <time>2022-05-19T09:35:16Z</time>
      </trkpt>
      <trkpt lat="47.52423" lon="2.0656738">
        <ele>161.0</ele>
        <time>2022-05-19T09:35:17Z</time>
      </trkpt>
      <trkpt lat="47.524235" lon="2.0656562">
        <ele>161.0</ele>
        <time>2022-05-19T09:35:18Z</time>
      </trkpt>
      <trkpt lat="47.524235" lon="2.0656383">
        <ele>161.0</ele>
        <time>2022-05-19T09:35:19Z</time>
      </trkpt>
      <trkpt lat="47.52424" lon="2.0656195">
        <ele>162.0</ele>
        <time>2022-05-19T09:35:20Z</time>
      </trkpt>
      <trkpt lat="47.524242" lon="2.0655997">
        <ele>162.0</ele>
        <time>2022-05-19T09:35:21Z</time>
      </trkpt>
      <trkpt lat="47.52425" lon="2.06558">
        <ele>162.0</ele>
        <time>2022-05-19T09:35:22Z</time>
      </trkpt>
      <trkpt lat="47.524258" lon="2.065565">
        <ele>162.0</ele>
        <time>2022-05-19T09:35:23Z</time>
      </trkpt>
      <trkpt lat="47.52426" lon="2.065548">
        <ele>162.0</ele>
        <time>2022-05-19T09:35:24Z</time>
      </trkpt>
      <trkpt lat="47.524265" lon="2.065533">
        <ele>162.0</ele>
        <time>2022-05-19T09:35:25Z</time>
      </trkpt>
      <trkpt lat="47.52427" lon="2.0655212">
        <ele>162.0</ele>
        <time>2022-05-19T09:35:26Z</time>
      </trkpt>
      <trkpt lat="47.524277" lon="2.0655155">
        <ele>162.0</ele>
        <time>2022-05-19T09:35:27Z</time>
      </trkpt>
      <trkpt lat="47.524284" lon="2.0655088">
        <ele>162.0</ele>
        <time>2022-05-19T09:35:28Z</time>
      </trkpt>
      <trkpt lat="47.52429" lon="2.0654993">
        <ele>162.0</ele>
        <time>2022-05-19T09:35:29Z</time>
      </trkpt>
      <trkpt lat="47.524296" lon="2.0654888">
        <ele>162.0</ele>
        <time>2022-05-19T09:35:30Z</time>
      </trkpt>
      <trkpt lat="47.5243" lon="2.0654736">
        <ele>163.0</ele>
        <time>2022-05-19T09:35:31Z</time>
      </trkpt>
      <trkpt lat="47.524303" lon="2.0654633">
        <ele>163.0</ele>
        <time>2022-05-19T09:35:32Z</time>
      </trkpt>
      <trkpt lat="47.52431" lon="2.0654597">
        <ele>163.0</ele>
        <time>2022-05-19T09:35:33Z</time>
      </trkpt>
      <trkpt lat="47.52432" lon="2.065452">
        <ele>163.0</ele>
        <time>2022-05-19T09:35:34Z</time>
      </trkpt>
      <trkpt lat="47.524326" lon="2.0654426">
        <ele>163.0</ele>
        <time>2022-05-19T09:35:35Z</time>
      </trkpt>
      <trkpt lat="47.524334" lon="2.0654325">
        <ele>164.0</ele>
        <time>2022-05-19T09:35:36Z</time>
      </trkpt>
      <trkpt lat="47.524338" lon="2.0654202">
        <ele>164.0</ele>
        <time>2022-05-19T09:35:37Z</time>
      </trkpt>
      <trkpt lat="47.524338" lon="2.0654037">
        <ele>164.0</ele>
        <time>2022-05-19T09:35:38Z</time>
      </trkpt>
      <trkpt lat="47.524338" lon="2.0653884">
        <ele>163.0</ele>
        <time>2022-05-19T09:35:39Z</time>
      </trkpt>
      <trkpt lat="47.524345" lon="2.0653794">
        <ele>163.0</ele>
        <time>2022-05-19T09:35:40Z</time>
      </trkpt>
      <trkpt lat="47.52435" lon="2.0653703">
        <ele>163.0</ele>
        <time>2022-05-19T09:35:41Z</time>
      </trkpt>
      <trkpt lat="47.524353" lon="2.065359">
        <ele>164.0</ele>
        <time>2022-05-19T09:35:42Z</time>
      </trkpt>
      <trkpt lat="47.524364" lon="2.0653343">
        <ele>164.0</ele>
        <time>2022-05-19T09:35:44Z</time>
      </trkpt>
      <trkpt lat="47.524364" lon="2.0653343">
        <ele>164.0</ele>
        <time>2022-05-19T09:35:44Z</time>
      </trkpt>
      <trkpt lat="47.524376" lon="2.0653381">
        <ele>164.0</ele>
        <time>2022-05-19T09:35:45Z</time>
      </trkpt>
      <trkpt lat="47.524384" lon="2.0653403">
        <ele>163.0</ele>
        <time>2022-05-19T09:35:46Z</time>
      </trkpt>
      <trkpt lat="47.524418" lon="2.065336">
        <ele>162.0</ele>
        <time>2022-05-19T09:35:50Z</time>
      </trkpt>
      <trkpt lat="47.52443" lon="2.065345">
        <ele>162.0</ele>
        <time>2022-05-19T09:35:51Z</time>
      </trkpt>
      <trkpt lat="47.52443" lon="2.065345">
        <ele>162.0</ele>
        <time>2022-05-19T09:35:51Z</time>
      </trkpt>
      <trkpt lat="47.524437" lon="2.065352">
        <ele>161.0</ele>
        <time>2022-05-19T09:35:52Z</time>
      </trkpt>
      <trkpt lat="47.524426" lon="2.065355">
        <ele>160.0</ele>
        <time>2022-05-19T09:35:54Z</time>
      </trkpt>
      <trkpt lat="47.524418" lon="2.0653203">
        <ele>159.0</ele>
        <time>2022-05-19T09:35:57Z</time>
      </trkpt>
      <trkpt lat="47.52442" lon="2.065305">
        <ele>158.0</ele>
        <time>2022-05-19T09:35:58Z</time>
      </trkpt>
      <trkpt lat="47.52444" lon="2.065295">
        <ele>158.0</ele>
        <time>2022-05-19T09:36:00Z</time>
      </trkpt>
      <trkpt lat="47.524452" lon="2.0652893">
        <ele>158.0</ele>
        <time>2022-05-19T09:36:01Z</time>
      </trkpt>
      <trkpt lat="47.524452" lon="2.0652893">
        <ele>158.0</ele>
        <time>2022-05-19T09:36:01Z</time>
      </trkpt>
      <trkpt lat="47.524452" lon="2.0652893">
        <ele>158.0</ele>
        <time>2022-05-19T09:36:01Z</time>
      </trkpt>
      <trkpt lat="47.524464" lon="2.0652826">
        <ele>157.0</ele>
        <time>2022-05-19T09:36:03Z</time>
      </trkpt>
      <trkpt lat="47.524498" lon="2.0652747">
        <ele>156.0</ele>
        <time>2022-05-19T09:36:04Z</time>
      </trkpt>
      <trkpt lat="47.524498" lon="2.0652747">
        <ele>156.0</ele>
        <time>2022-05-19T09:36:04Z</time>
      </trkpt>
      <trkpt lat="47.524513" lon="2.0652666">
        <ele>156.0</ele>
        <time>2022-05-19T09:36:07Z</time>
      </trkpt>
      <trkpt lat="47.52458" lon="2.06522">
        <ele>158.0</ele>
        <time>2022-05-19T09:36:14Z</time>
      </trkpt>
      <trkpt lat="47.52459" lon="2.0651953">
        <ele>157.0</ele>
        <time>2022-05-19T09:36:15Z</time>
      </trkpt>
      <trkpt lat="47.524647" lon="2.0651283">
        <ele>155.0</ele>
        <time>2022-05-19T09:36:22Z</time>
      </trkpt>
      <trkpt lat="47.524666" lon="2.0650961">
        <ele>155.0</ele>
        <time>2022-05-19T09:36:23Z</time>
      </trkpt>
      <trkpt lat="47.524696" lon="2.065065">
        <ele>154.0</ele>
        <time>2022-05-19T09:36:25Z</time>
      </trkpt>
      <trkpt lat="47.52471" lon="2.0650477">
        <ele>154.0</ele>
        <time>2022-05-19T09:36:26Z</time>
      </trkpt>
      <trkpt lat="47.52471" lon="2.0650477">
        <ele>154.0</ele>
        <time>2022-05-19T09:36:26Z</time>
      </trkpt>
      <trkpt lat="47.52472" lon="2.0649774">
        <ele>153.0</ele>
        <time>2022-05-19T09:36:30Z</time>
      </trkpt>
      <trkpt lat="47.524723" lon="2.064955">
        <ele>152.0</ele>
        <time>2022-05-19T09:36:31Z</time>
      </trkpt>
      <trkpt lat="47.52475" lon="2.0649052">
        <ele>151.0</ele>
        <time>2022-05-19T09:36:35Z</time>
      </trkpt>
      <trkpt lat="47.52476" lon="2.0648954">
        <ele>151.0</ele>
        <time>2022-05-19T09:36:36Z</time>
      </trkpt>
      <trkpt lat="47.52478" lon="2.0648775">
        <ele>150.0</ele>
        <time>2022-05-19T09:36:38Z</time>
      </trkpt>
      <trkpt lat="47.52479" lon="2.0648453">
        <ele>151.0</ele>
        <time>2022-05-19T09:36:40Z</time>
      </trkpt>
      <trkpt lat="47.5248" lon="2.0648339">
        <ele>151.0</ele>
        <time>2022-05-19T09:36:41Z</time>
      </trkpt>
      <trkpt lat="47.524803" lon="2.0648263">
        <ele>151.0</ele>
        <time>2022-05-19T09:36:42Z</time>
      </trkpt>
      <trkpt lat="47.524815" lon="2.0648134">
        <ele>151.0</ele>
        <time>2022-05-19T09:36:44Z</time>
      </trkpt>
      <trkpt lat="47.524837" lon="2.0647724">
        <ele>152.0</ele>
        <time>2022-05-19T09:36:46Z</time>
      </trkpt>
      <trkpt lat="47.524845" lon="2.06477">
        <ele>152.0</ele>
        <time>2022-05-19T09:36:47Z</time>
      </trkpt>
      <trkpt lat="47.524857" lon="2.0647576">
        <ele>152.0</ele>
        <time>2022-05-19T09:36:48Z</time>
      </trkpt>
      <trkpt lat="47.524857" lon="2.0647576">
        <ele>152.0</ele>
        <time>2022-05-19T09:36:48Z</time>
      </trkpt>
      <trkpt lat="47.52486" lon="2.06474">
        <ele>153.0</ele>
        <time>2022-05-19T09:36:49Z</time>
      </trkpt>
      <trkpt lat="47.524883" lon="2.0646846">
        <ele>152.0</ele>
        <time>2022-05-19T09:36:53Z</time>
      </trkpt>
      <trkpt lat="47.524887" lon="2.064637">
        <ele>151.0</ele>
        <time>2022-05-19T09:36:54Z</time>
      </trkpt>
      <trkpt lat="47.524887" lon="2.064637">
        <ele>151.0</ele>
        <time>2022-05-19T09:36:54Z</time>
      </trkpt>
      <trkpt lat="47.5249" lon="2.06461">
        <ele>151.0</ele>
        <time>2022-05-19T09:36:56Z</time>
      </trkpt>
      <trkpt lat="47.524902" lon="2.0645983">
        <ele>151.0</ele>
        <time>2022-05-19T09:36:57Z</time>
      </trkpt>
      <trkpt lat="47.524902" lon="2.0645983">
        <ele>151.0</ele>
        <time>2022-05-19T09:36:57Z</time>
      </trkpt>
      <trkpt lat="47.52492" lon="2.0645761">
        <ele>151.0</ele>
        <time>2022-05-19T09:36:59Z</time>
      </trkpt>
      <trkpt lat="47.524937" lon="2.064544">
        <ele>151.0</ele>
        <time>2022-05-19T09:37:02Z</time>
      </trkpt>
      <trkpt lat="47.524944" lon="2.0645132">
        <ele>151.0</ele>
        <time>2022-05-19T09:37:04Z</time>
      </trkpt>
      <trkpt lat="47.52495" lon="2.0644822">
        <ele>152.0</ele>
        <time>2022-05-19T09:37:06Z</time>
      </trkpt>
      <trkpt lat="47.524956" lon="2.0644667">
        <ele>152.0</ele>
        <time>2022-05-19T09:37:07Z</time>
      </trkpt>
      <trkpt lat="47.524963" lon="2.0644534">
        <ele>152.0</ele>
        <time>2022-05-19T09:37:08Z</time>
      </trkpt>
      <trkpt lat="47.524975" lon="2.0644424">
        <ele>153.0</ele>
        <time>2022-05-19T09:37:09Z</time>
      </trkpt>
      <trkpt lat="47.524975" lon="2.0644424">
        <ele>153.0</ele>
        <time>2022-05-19T09:37:09Z</time>
      </trkpt>
      <trkpt lat="47.524994" lon="2.0644133">
        <ele>152.0</ele>
        <time>2022-05-19T09:37:11Z</time>
      </trkpt>
      <trkpt lat="47.524998" lon="2.0643957">
        <ele>152.0</ele>
        <time>2022-05-19T09:37:12Z</time>
      </trkpt>
      <trkpt lat="47.525005" lon="2.0643814">
        <ele>152.0</ele>
        <time>2022-05-19T09:37:13Z</time>
      </trkpt>
      <trkpt lat="47.525013" lon="2.064368">
        <ele>152.0</ele>
        <time>2022-05-19T09:37:14Z</time>
      </trkpt>
      <trkpt lat="47.525024" lon="2.064358">
        <ele>152.0</ele>
        <time>2022-05-19T09:37:15Z</time>
      </trkpt>
      <trkpt lat="47.525036" lon="2.064346">
        <ele>152.0</ele>
        <time>2022-05-19T09:37:16Z</time>
      </trkpt>
      <trkpt lat="47.525043" lon="2.0643332">
        <ele>152.0</ele>
        <time>2022-05-19T09:37:17Z</time>
      </trkpt>
      <trkpt lat="47.525043" lon="2.0643175">
        <ele>152.0</ele>
        <time>2022-05-19T09:37:18Z</time>
      </trkpt>
      <trkpt lat="47.525047" lon="2.0642996">
        <ele>152.0</ele>
        <time>2022-05-19T09:37:19Z</time>
      </trkpt>
      <trkpt lat="47.52506" lon="2.0642803">
        <ele>152.0</ele>
        <time>2022-05-19T09:37:20Z</time>
      </trkpt>
      <trkpt lat="47.525066" lon="2.0642676">
        <ele>152.0</ele>
        <time>2022-05-19T09:37:21Z</time>
      </trkpt>
      <trkpt lat="47.52507" lon="2.0642586">
        <ele>152.0</ele>
        <time>2022-05-19T09:37:22Z</time>
      </trkpt>
      <trkpt lat="47.525078" lon="2.0642488">
        <ele>151.0</ele>
        <time>2022-05-19T09:37:23Z</time>
      </trkpt>
      <trkpt lat="47.52508" lon="2.064241">
        <ele>151.0</ele>
        <time>2022-05-19T09:37:24Z</time>
      </trkpt>
      <trkpt lat="47.52509" lon="2.0642304">
        <ele>151.0</ele>
        <time>2022-05-19T09:37:25Z</time>
      </trkpt>
      <trkpt lat="47.52509" lon="2.0642304">
        <ele>151.0</ele>
        <time>2022-05-19T09:37:26Z</time>
      </trkpt>
      <trkpt lat="47.52509" lon="2.0642304">
        <ele>151.0</ele>
        <time>2022-05-19T09:37:27Z</time>
      </trkpt>
      <trkpt lat="47.52511" lon="2.0641992">
        <ele>151.0</ele>
        <time>2022-05-19T09:37:28Z</time>
      </trkpt>
      <trkpt lat="47.525112" lon="2.0641868">
        <ele>151.0</ele>
        <time>2022-05-19T09:37:29Z</time>
      </trkpt>
      <trkpt lat="47.525124" lon="2.0641778">
        <ele>151.0</ele>
        <time>2022-05-19T09:37:30Z</time>
      </trkpt>
      <trkpt lat="47.52513" lon="2.0641665">
        <ele>151.0</ele>
        <time>2022-05-19T09:37:31Z</time>
      </trkpt>
      <trkpt lat="47.52513" lon="2.0641613">
        <ele>151.0</ele>
        <time>2022-05-19T09:37:32Z</time>
      </trkpt>
      <trkpt lat="47.52513" lon="2.0641477">
        <ele>151.0</ele>
        <time>2022-05-19T09:37:33Z</time>
      </trkpt>
      <trkpt lat="47.525135" lon="2.0641344">
        <ele>150.0</ele>
        <time>2022-05-19T09:37:35Z</time>
      </trkpt>
      <trkpt lat="47.525143" lon="2.0641234">
        <ele>150.0</ele>
        <time>2022-05-19T09:37:36Z</time>
      </trkpt>
      <trkpt lat="47.525146" lon="2.0641098">
        <ele>150.0</ele>
        <time>2022-05-19T09:37:37Z</time>
      </trkpt>
      <trkpt lat="47.52515" lon="2.064095">
        <ele>150.0</ele>
        <time>2022-05-19T09:37:38Z</time>
      </trkpt>
      <trkpt lat="47.52515" lon="2.064095">
        <ele>150.0</ele>
        <time>2022-05-19T09:37:39Z</time>
      </trkpt>
      <trkpt lat="47.52515" lon="2.064095">
        <ele>150.0</ele>
        <time>2022-05-19T09:37:40Z</time>
      </trkpt>
      <trkpt lat="47.525158" lon="2.0640826">
        <ele>149.0</ele>
        <time>2022-05-19T09:37:41Z</time>
      </trkpt>
      <trkpt lat="47.52516" lon="2.064077">
        <ele>149.0</ele>
        <time>2022-05-19T09:37:42Z</time>
      </trkpt>
      <trkpt lat="47.525166" lon="2.064065">
        <ele>149.0</ele>
        <time>2022-05-19T09:37:43Z</time>
      </trkpt>
      <trkpt lat="47.52516" lon="2.0640576">
        <ele>149.0</ele>
        <time>2022-05-19T09:37:44Z</time>
      </trkpt>
      <trkpt lat="47.52516" lon="2.0640576">
        <ele>149.0</ele>
        <time>2022-05-19T09:37:45Z</time>
      </trkpt>
      <trkpt lat="47.52516" lon="2.0640576">
        <ele>149.0</ele>
        <time>2022-05-19T09:37:46Z</time>
      </trkpt>
      <trkpt lat="47.52517" lon="2.064034">
        <ele>150.0</ele>
        <time>2022-05-19T09:37:47Z</time>
      </trkpt>
      <trkpt lat="47.525173" lon="2.064023">
        <ele>149.0</ele>
        <time>2022-05-19T09:37:48Z</time>
      </trkpt>
      <trkpt lat="47.52518" lon="2.0640154">
        <ele>149.0</ele>
        <time>2022-05-19T09:37:49Z</time>
      </trkpt>
      <trkpt lat="47.525185" lon="2.0640008">
        <ele>149.0</ele>
        <time>2022-05-19T09:37:50Z</time>
      </trkpt>
      <trkpt lat="47.525196" lon="2.063992">
        <ele>149.0</ele>
        <time>2022-05-19T09:37:51Z</time>
      </trkpt>
      <trkpt lat="47.525204" lon="2.0639815">
        <ele>149.0</ele>
        <time>2022-05-19T09:37:52Z</time>
      </trkpt>
      <trkpt lat="47.525204" lon="2.0639815">
        <ele>149.0</ele>
        <time>2022-05-19T09:37:52Z</time>
      </trkpt>
      <trkpt lat="47.52521" lon="2.063966">
        <ele>148.0</ele>
        <time>2022-05-19T09:37:54Z</time>
      </trkpt>
      <trkpt lat="47.525223" lon="2.0639577">
        <ele>148.0</ele>
        <time>2022-05-19T09:37:55Z</time>
      </trkpt>
      <trkpt lat="47.52523" lon="2.0639548">
        <ele>148.0</ele>
        <time>2022-05-19T09:37:56Z</time>
      </trkpt>
      <trkpt lat="47.52523" lon="2.0639548">
        <ele>148.0</ele>
        <time>2022-05-19T09:37:56Z</time>
      </trkpt>
      <trkpt lat="47.525238" lon="2.063943">
        <ele>148.0</ele>
        <time>2022-05-19T09:37:57Z</time>
      </trkpt>
      <trkpt lat="47.52524" lon="2.0639265">
        <ele>147.0</ele>
        <time>2022-05-19T09:37:58Z</time>
      </trkpt>
      <trkpt lat="47.525253" lon="2.0639136">
        <ele>148.0</ele>
        <time>2022-05-19T09:37:59Z</time>
      </trkpt>
      <trkpt lat="47.52526" lon="2.0638998">
        <ele>148.0</ele>
        <time>2022-05-19T09:38:00Z</time>
      </trkpt>
      <trkpt lat="47.52527" lon="2.0638793">
        <ele>148.0</ele>
        <time>2022-05-19T09:38:01Z</time>
      </trkpt>
      <trkpt lat="47.525284" lon="2.0638466">
        <ele>147.0</ele>
        <time>2022-05-19T09:38:02Z</time>
      </trkpt>
      <trkpt lat="47.52529" lon="2.063832">
        <ele>147.0</ele>
        <time>2022-05-19T09:38:03Z</time>
      </trkpt>
      <trkpt lat="47.52529" lon="2.063832">
        <ele>147.0</ele>
        <time>2022-05-19T09:38:04Z</time>
      </trkpt>
      <trkpt lat="47.52529" lon="2.063832">
        <ele>147.0</ele>
        <time>2022-05-19T09:38:05Z</time>
      </trkpt>
      <trkpt lat="47.525314" lon="2.0638142">
        <ele>147.0</ele>
        <time>2022-05-19T09:38:06Z</time>
      </trkpt>
      <trkpt lat="47.525322" lon="2.0638044">
        <ele>147.0</ele>
        <time>2022-05-19T09:38:07Z</time>
      </trkpt>
      <trkpt lat="47.525326" lon="2.0637922">
        <ele>147.0</ele>
        <time>2022-05-19T09:38:08Z</time>
      </trkpt>
      <trkpt lat="47.525333" lon="2.063783">
        <ele>147.0</ele>
        <time>2022-05-19T09:38:09Z</time>
      </trkpt>
      <trkpt lat="47.52534" lon="2.0637758">
        <ele>146.0</ele>
        <time>2022-05-19T09:38:10Z</time>
      </trkpt>
      <trkpt lat="47.52534" lon="2.0637758">
        <ele>146.0</ele>
        <time>2022-05-19T09:38:11Z</time>
      </trkpt>
      <trkpt lat="47.52534" lon="2.0637548">
        <ele>146.0</ele>
        <time>2022-05-19T09:38:12Z</time>
      </trkpt>
      <trkpt lat="47.52535" lon="2.0637395">
        <ele>146.0</ele>
        <time>2022-05-19T09:38:13Z</time>
      </trkpt>
      <trkpt lat="47.525345" lon="2.0637178">
        <ele>146.0</ele>
        <time>2022-05-19T09:38:14Z</time>
      </trkpt>
      <trkpt lat="47.525345" lon="2.0637083">
        <ele>145.0</ele>
        <time>2022-05-19T09:38:15Z</time>
      </trkpt>
      <trkpt lat="47.52534" lon="2.0637038">
        <ele>145.0</ele>
        <time>2022-05-19T09:38:16Z</time>
      </trkpt>
      <trkpt lat="47.525337" lon="2.0636957">
        <ele>145.0</ele>
        <time>2022-05-19T09:38:17Z</time>
      </trkpt>
      <trkpt lat="47.525333" lon="2.0636811">
        <ele>145.0</ele>
        <time>2022-05-19T09:38:18Z</time>
      </trkpt>
      <trkpt lat="47.525333" lon="2.0636687">
        <ele>144.0</ele>
        <time>2022-05-19T09:38:19Z</time>
      </trkpt>
      <trkpt lat="47.52534" lon="2.0636473">
        <ele>143.0</ele>
        <time>2022-05-19T09:38:20Z</time>
      </trkpt>
      <trkpt lat="47.525352" lon="2.0636404">
        <ele>143.0</ele>
        <time>2022-05-19T09:38:21Z</time>
      </trkpt>
      <trkpt lat="47.525368" lon="2.0636275">
        <ele>142.0</ele>
        <time>2022-05-19T09:38:22Z</time>
      </trkpt>
      <trkpt lat="47.525375" lon="2.0636146">
        <ele>142.0</ele>
        <time>2022-05-19T09:38:23Z</time>
      </trkpt>
      <trkpt lat="47.525383" lon="2.0636017">
        <ele>142.0</ele>
        <time>2022-05-19T09:38:24Z</time>
      </trkpt>
      <trkpt lat="47.525387" lon="2.0635884">
        <ele>142.0</ele>
        <time>2022-05-19T09:38:26Z</time>
      </trkpt>
      <trkpt lat="47.525383" lon="2.0635765">
        <ele>142.0</ele>
        <time>2022-05-19T09:38:27Z</time>
      </trkpt>
      <trkpt lat="47.525383" lon="2.0635765">
        <ele>142.0</ele>
        <time>2022-05-19T09:38:28Z</time>
      </trkpt>
      <trkpt lat="47.525383" lon="2.0635765">
        <ele>142.0</ele>
        <time>2022-05-19T09:38:29Z</time>
      </trkpt>
      <trkpt lat="47.52539" lon="2.0635495">
        <ele>142.0</ele>
        <time>2022-05-19T09:38:30Z</time>
      </trkpt>
      <trkpt lat="47.525406" lon="2.0635388">
        <ele>142.0</ele>
        <time>2022-05-19T09:38:31Z</time>
      </trkpt>
      <trkpt lat="47.525414" lon="2.063525">
        <ele>142.0</ele>
        <time>2022-05-19T09:38:32Z</time>
      </trkpt>
      <trkpt lat="47.525417" lon="2.0635114">
        <ele>142.0</ele>
        <time>2022-05-19T09:38:33Z</time>
      </trkpt>
      <trkpt lat="47.52542" lon="2.0634902">
        <ele>142.0</ele>
        <time>2022-05-19T09:38:34Z</time>
      </trkpt>
      <trkpt lat="47.52542" lon="2.063466">
        <ele>143.0</ele>
        <time>2022-05-19T09:38:35Z</time>
      </trkpt>
      <trkpt lat="47.52542" lon="2.0634496">
        <ele>143.0</ele>
        <time>2022-05-19T09:38:36Z</time>
      </trkpt>
      <trkpt lat="47.52542" lon="2.0634346">
        <ele>143.0</ele>
        <time>2022-05-19T09:38:37Z</time>
      </trkpt>
      <trkpt lat="47.52542" lon="2.0634165">
        <ele>143.0</ele>
        <time>2022-05-19T09:38:38Z</time>
      </trkpt>
      <trkpt lat="47.52542" lon="2.0633974">
        <ele>143.0</ele>
        <time>2022-05-19T09:38:39Z</time>
      </trkpt>
      <trkpt lat="47.52542" lon="2.0633738">
        <ele>144.0</ele>
        <time>2022-05-19T09:38:41Z</time>
      </trkpt>
      <trkpt lat="47.52542" lon="2.063346">
        <ele>144.0</ele>
        <time>2022-05-19T09:38:42Z</time>
      </trkpt>
      <trkpt lat="47.525425" lon="2.0633287">
        <ele>145.0</ele>
        <time>2022-05-19T09:38:43Z</time>
      </trkpt>
      <trkpt lat="47.525425" lon="2.0633037">
        <ele>146.0</ele>
        <time>2022-05-19T09:38:44Z</time>
      </trkpt>
      <trkpt lat="47.525425" lon="2.0632806">
        <ele>146.0</ele>
        <time>2022-05-19T09:38:45Z</time>
      </trkpt>
      <trkpt lat="47.52543" lon="2.06326">
        <ele>146.0</ele>
        <time>2022-05-19T09:38:46Z</time>
      </trkpt>
      <trkpt lat="47.525436" lon="2.0632377">
        <ele>146.0</ele>
        <time>2022-05-19T09:38:47Z</time>
      </trkpt>
      <trkpt lat="47.525444" lon="2.0632098">
        <ele>146.0</ele>
        <time>2022-05-19T09:38:48Z</time>
      </trkpt>
      <trkpt lat="47.52544" lon="2.063183">
        <ele>146.0</ele>
        <time>2022-05-19T09:38:49Z</time>
      </trkpt>
      <trkpt lat="47.525433" lon="2.0631547">
        <ele>146.0</ele>
        <time>2022-05-19T09:38:50Z</time>
      </trkpt>
      <trkpt lat="47.52543" lon="2.063121">
        <ele>146.0</ele>
        <time>2022-05-19T09:38:51Z</time>
      </trkpt>
      <trkpt lat="47.525433" lon="2.0630872">
        <ele>147.0</ele>
        <time>2022-05-19T09:38:52Z</time>
      </trkpt>
      <trkpt lat="47.525433" lon="2.0630574">
        <ele>147.0</ele>
        <time>2022-05-19T09:38:53Z</time>
      </trkpt>
      <trkpt lat="47.525433" lon="2.0630317">
        <ele>147.0</ele>
        <time>2022-05-19T09:38:54Z</time>
      </trkpt>
      <trkpt lat="47.52544" lon="2.063016">
        <ele>147.0</ele>
        <time>2022-05-19T09:38:55Z</time>
      </trkpt>
      <trkpt lat="47.525436" lon="2.063001">
        <ele>147.0</ele>
        <time>2022-05-19T09:38:56Z</time>
      </trkpt>
      <trkpt lat="47.525433" lon="2.0629818">
        <ele>148.0</ele>
        <time>2022-05-19T09:38:57Z</time>
      </trkpt>
      <trkpt lat="47.525433" lon="2.0629818">
        <ele>148.0</ele>
        <time>2022-05-19T09:38:58Z</time>
      </trkpt>
      <trkpt lat="47.525433" lon="2.0629497">
        <ele>149.0</ele>
        <time>2022-05-19T09:38:59Z</time>
      </trkpt>
      <trkpt lat="47.525433" lon="2.0629497">
        <ele>149.0</ele>
        <time>2022-05-19T09:38:59Z</time>
      </trkpt>
      <trkpt lat="47.525433" lon="2.062927">
        <ele>149.0</ele>
        <time>2022-05-19T09:39:00Z</time>
      </trkpt>
      <trkpt lat="47.525448" lon="2.0628662">
        <ele>150.0</ele>
        <time>2022-05-19T09:39:02Z</time>
      </trkpt>
      <trkpt lat="47.52545" lon="2.0628464">
        <ele>150.0</ele>
        <time>2022-05-19T09:39:03Z</time>
      </trkpt>
      <trkpt lat="47.52545" lon="2.0628464">
        <ele>150.0</ele>
        <time>2022-05-19T09:39:03Z</time>
      </trkpt>
      <trkpt lat="47.525455" lon="2.0628169">
        <ele>150.0</ele>
        <time>2022-05-19T09:39:05Z</time>
      </trkpt>
      <trkpt lat="47.525463" lon="2.0628026">
        <ele>151.0</ele>
        <time>2022-05-19T09:39:06Z</time>
      </trkpt>
      <trkpt lat="47.525467" lon="2.0627875">
        <ele>151.0</ele>
        <time>2022-05-19T09:39:07Z</time>
      </trkpt>
      <trkpt lat="47.525475" lon="2.0627708">
        <ele>151.0</ele>
        <time>2022-05-19T09:39:08Z</time>
      </trkpt>
      <trkpt lat="47.52548" lon="2.0627503">
        <ele>151.0</ele>
        <time>2022-05-19T09:39:09Z</time>
      </trkpt>
      <trkpt lat="47.525486" lon="2.062738">
        <ele>152.0</ele>
        <time>2022-05-19T09:39:10Z</time>
      </trkpt>
      <trkpt lat="47.525497" lon="2.0627272">
        <ele>151.0</ele>
        <time>2022-05-19T09:39:11Z</time>
      </trkpt>
      <trkpt lat="47.52552" lon="2.0627031">
        <ele>151.0</ele>
        <time>2022-05-19T09:39:13Z</time>
      </trkpt>
      <trkpt lat="47.525536" lon="2.0626965">
        <ele>151.0</ele>
        <time>2022-05-19T09:39:14Z</time>
      </trkpt>
      <trkpt lat="47.525555" lon="2.062678">
        <ele>151.0</ele>
        <time>2022-05-19T09:39:16Z</time>
      </trkpt>
      <trkpt lat="47.52556" lon="2.062671">
        <ele>151.0</ele>
        <time>2022-05-19T09:39:17Z</time>
      </trkpt>
      <trkpt lat="47.52557" lon="2.0626638">
        <ele>151.0</ele>
        <time>2022-05-19T09:39:19Z</time>
      </trkpt>
      <trkpt lat="47.52559" lon="2.0626554">
        <ele>151.0</ele>
        <time>2022-05-19T09:39:21Z</time>
      </trkpt>
      <trkpt lat="47.5256" lon="2.06265">
        <ele>151.0</ele>
        <time>2022-05-19T09:39:22Z</time>
      </trkpt>
      <trkpt lat="47.525623" lon="2.0626154">
        <ele>151.0</ele>
        <time>2022-05-19T09:39:25Z</time>
      </trkpt>
      <trkpt lat="47.525635" lon="2.0625827">
        <ele>150.0</ele>
        <time>2022-05-19T09:39:26Z</time>
      </trkpt>
      <trkpt lat="47.52564" lon="2.062544">
        <ele>151.0</ele>
        <time>2022-05-19T09:39:28Z</time>
      </trkpt>
      <trkpt lat="47.525654" lon="2.0625193">
        <ele>151.0</ele>
        <time>2022-05-19T09:39:30Z</time>
      </trkpt>
      <trkpt lat="47.52567" lon="2.0624876">
        <ele>151.0</ele>
        <time>2022-05-19T09:39:33Z</time>
      </trkpt>
      <trkpt lat="47.525673" lon="2.0624657">
        <ele>152.0</ele>
        <time>2022-05-19T09:39:35Z</time>
      </trkpt>
      <trkpt lat="47.525677" lon="2.062446">
        <ele>152.0</ele>
        <time>2022-05-19T09:39:36Z</time>
      </trkpt>
      <trkpt lat="47.525692" lon="2.062416">
        <ele>152.0</ele>
        <time>2022-05-19T09:39:38Z</time>
      </trkpt>
      <trkpt lat="47.525715" lon="2.0623977">
        <ele>153.0</ele>
        <time>2022-05-19T09:39:41Z</time>
      </trkpt>
      <trkpt lat="47.52574" lon="2.062368">
        <ele>153.0</ele>
        <time>2022-05-19T09:39:43Z</time>
      </trkpt>
      <trkpt lat="47.525753" lon="2.062363">
        <ele>153.0</ele>
        <time>2022-05-19T09:39:44Z</time>
      </trkpt>
      <trkpt lat="47.525764" lon="2.0623531">
        <ele>153.0</ele>
        <time>2022-05-19T09:39:45Z</time>
      </trkpt>
      <trkpt lat="47.525764" lon="2.0623531">
        <ele>153.0</ele>
        <time>2022-05-19T09:39:45Z</time>
      </trkpt>
      <trkpt lat="47.52579" lon="2.062344">
        <ele>153.0</ele>
        <time>2022-05-19T09:39:47Z</time>
      </trkpt>
      <trkpt lat="47.5258" lon="2.062325">
        <ele>153.0</ele>
        <time>2022-05-19T09:39:48Z</time>
      </trkpt>
      <trkpt lat="47.525806" lon="2.0623124">
        <ele>153.0</ele>
        <time>2022-05-19T09:39:49Z</time>
      </trkpt>
      <trkpt lat="47.525814" lon="2.0622985">
        <ele>153.0</ele>
        <time>2022-05-19T09:39:50Z</time>
      </trkpt>
      <trkpt lat="47.525814" lon="2.0622985">
        <ele>153.0</ele>
        <time>2022-05-19T09:39:50Z</time>
      </trkpt>
      <trkpt lat="47.52582" lon="2.0622902">
        <ele>153.0</ele>
        <time>2022-05-19T09:39:52Z</time>
      </trkpt>
      <trkpt lat="47.525833" lon="2.062268">
        <ele>153.0</ele>
        <time>2022-05-19T09:39:54Z</time>
      </trkpt>
      <trkpt lat="47.525845" lon="2.062252">
        <ele>153.0</ele>
        <time>2022-05-19T09:39:55Z</time>
      </trkpt>
      <trkpt lat="47.525856" lon="2.062228">
        <ele>153.0</ele>
        <time>2022-05-19T09:39:57Z</time>
      </trkpt>
      <trkpt lat="47.525867" lon="2.06222">
        <ele>153.0</ele>
        <time>2022-05-19T09:39:58Z</time>
      </trkpt>
      <trkpt lat="47.525875" lon="2.0621982">
        <ele>154.0</ele>
        <time>2022-05-19T09:40:00Z</time>
      </trkpt>
      <trkpt lat="47.525883" lon="2.0621912">
        <ele>155.0</ele>
        <time>2022-05-19T09:40:01Z</time>
      </trkpt>
      <trkpt lat="47.52591" lon="2.0621579">
        <ele>155.0</ele>
        <time>2022-05-19T09:40:05Z</time>
      </trkpt>
      <trkpt lat="47.52594" lon="2.0621305">
        <ele>155.0</ele>
        <time>2022-05-19T09:40:09Z</time>
      </trkpt>
      <trkpt lat="47.52594" lon="2.0621147">
        <ele>155.0</ele>
        <time>2022-05-19T09:40:10Z</time>
      </trkpt>
      <trkpt lat="47.52594" lon="2.0621147">
        <ele>155.0</ele>
        <time>2022-05-19T09:40:10Z</time>
      </trkpt>
      <trkpt lat="47.525944" lon="2.0621006">
        <ele>155.0</ele>
        <time>2022-05-19T09:40:13Z</time>
      </trkpt>
      <trkpt lat="47.52595" lon="2.062069">
        <ele>155.0</ele>
        <time>2022-05-19T09:40:13Z</time>
      </trkpt>
      <trkpt lat="47.52596" lon="2.062043">
        <ele>154.0</ele>
        <time>2022-05-19T09:40:14Z</time>
      </trkpt>
      <trkpt lat="47.525974" lon="2.062033">
        <ele>155.0</ele>
        <time>2022-05-19T09:40:15Z</time>
      </trkpt>
      <trkpt lat="47.525986" lon="2.0620294">
        <ele>155.0</ele>
        <time>2022-05-19T09:40:16Z</time>
      </trkpt>
      <trkpt lat="47.52599" lon="2.0620213">
        <ele>155.0</ele>
        <time>2022-05-19T09:40:17Z</time>
      </trkpt>
      <trkpt lat="47.525997" lon="2.0620074">
        <ele>156.0</ele>
        <time>2022-05-19T09:40:18Z</time>
      </trkpt>
      <trkpt lat="47.526012" lon="2.062">
        <ele>155.0</ele>
        <time>2022-05-19T09:40:19Z</time>
      </trkpt>
      <trkpt lat="47.526024" lon="2.0619798">
        <ele>155.0</ele>
        <time>2022-05-19T09:40:21Z</time>
      </trkpt>
      <trkpt lat="47.526035" lon="2.0619535">
        <ele>156.0</ele>
        <time>2022-05-19T09:40:23Z</time>
      </trkpt>
      <trkpt lat="47.526062" lon="2.061947">
        <ele>155.0</ele>
        <time>2022-05-19T09:40:26Z</time>
      </trkpt>
      <trkpt lat="47.526085" lon="2.0619054">
        <ele>154.0</ele>
        <time>2022-05-19T09:40:29Z</time>
      </trkpt>
      <trkpt lat="47.526085" lon="2.0619054">
        <ele>154.0</ele>
        <time>2022-05-19T09:40:29Z</time>
      </trkpt>
      <trkpt lat="47.5261" lon="2.061882">
        <ele>155.0</ele>
        <time>2022-05-19T09:40:31Z</time>
      </trkpt>
      <trkpt lat="47.526142" lon="2.061796">
        <ele>154.0</ele>
        <time>2022-05-19T09:40:35Z</time>
      </trkpt>
      <trkpt lat="47.52614" lon="2.0617156">
        <ele>153.0</ele>
        <time>2022-05-19T09:40:38Z</time>
      </trkpt>
      <trkpt lat="47.526142" lon="2.0617003">
        <ele>153.0</ele>
        <time>2022-05-19T09:40:40Z</time>
      </trkpt>
      <trkpt lat="47.526173" lon="2.0616162">
        <ele>155.0</ele>
        <time>2022-05-19T09:40:45Z</time>
      </trkpt>
      <trkpt lat="47.526188" lon="2.0615861">
        <ele>155.0</ele>
        <time>2022-05-19T09:40:47Z</time>
      </trkpt>
      <trkpt lat="47.5262" lon="2.061573">
        <ele>155.0</ele>
        <time>2022-05-19T09:40:48Z</time>
      </trkpt>
      <trkpt lat="47.5262" lon="2.061561">
        <ele>155.0</ele>
        <time>2022-05-19T09:40:49Z</time>
      </trkpt>
      <trkpt lat="47.52621" lon="2.0615509">
        <ele>155.0</ele>
        <time>2022-05-19T09:40:50Z</time>
      </trkpt>
      <trkpt lat="47.526234" lon="2.0615175">
        <ele>155.0</ele>
        <time>2022-05-19T09:40:52Z</time>
      </trkpt>
      <trkpt lat="47.526237" lon="2.0615027">
        <ele>155.0</ele>
        <time>2022-05-19T09:40:53Z</time>
      </trkpt>
      <trkpt lat="47.52624" lon="2.0614889">
        <ele>154.0</ele>
        <time>2022-05-19T09:40:54Z</time>
      </trkpt>
      <trkpt lat="47.526245" lon="2.0614743">
        <ele>154.0</ele>
        <time>2022-05-19T09:40:55Z</time>
      </trkpt>
      <trkpt lat="47.526253" lon="2.061458">
        <ele>155.0</ele>
        <time>2022-05-19T09:40:56Z</time>
      </trkpt>
      <trkpt lat="47.52626" lon="2.0614212">
        <ele>155.0</ele>
        <time>2022-05-19T09:40:58Z</time>
      </trkpt>
      <trkpt lat="47.526264" lon="2.0614111">
        <ele>155.0</ele>
        <time>2022-05-19T09:40:59Z</time>
      </trkpt>
      <trkpt lat="47.526268" lon="2.0614007">
        <ele>155.0</ele>
        <time>2022-05-19T09:41:00Z</time>
      </trkpt>
      <trkpt lat="47.52627" lon="2.061382">
        <ele>156.0</ele>
        <time>2022-05-19T09:41:02Z</time>
      </trkpt>
      <trkpt lat="47.52627" lon="2.061382">
        <ele>156.0</ele>
        <time>2022-05-19T09:41:02Z</time>
      </trkpt>
      <trkpt lat="47.52627" lon="2.06136">
        <ele>156.0</ele>
        <time>2022-05-19T09:41:03Z</time>
      </trkpt>
      <trkpt lat="47.52628" lon="2.061348">
        <ele>156.0</ele>
        <time>2022-05-19T09:41:04Z</time>
      </trkpt>
      <trkpt lat="47.526295" lon="2.061317">
        <ele>156.0</ele>
        <time>2022-05-19T09:41:06Z</time>
      </trkpt>
      <trkpt lat="47.526306" lon="2.0612857">
        <ele>156.0</ele>
        <time>2022-05-19T09:41:08Z</time>
      </trkpt>
      <trkpt lat="47.526306" lon="2.061264">
        <ele>157.0</ele>
        <time>2022-05-19T09:41:09Z</time>
      </trkpt>
      <trkpt lat="47.526302" lon="2.0612397">
        <ele>157.0</ele>
        <time>2022-05-19T09:41:10Z</time>
      </trkpt>
      <trkpt lat="47.52631" lon="2.0612273">
        <ele>157.0</ele>
        <time>2022-05-19T09:41:11Z</time>
      </trkpt>
      <trkpt lat="47.526314" lon="2.061214">
        <ele>157.0</ele>
        <time>2022-05-19T09:41:12Z</time>
      </trkpt>
      <trkpt lat="47.52632" lon="2.0611985">
        <ele>157.0</ele>
        <time>2022-05-19T09:41:13Z</time>
      </trkpt>
      <trkpt lat="47.526325" lon="2.0611777">
        <ele>158.0</ele>
        <time>2022-05-19T09:41:14Z</time>
      </trkpt>
      <trkpt lat="47.526333" lon="2.0611618">
        <ele>158.0</ele>
        <time>2022-05-19T09:41:15Z</time>
      </trkpt>
      <trkpt lat="47.52635" lon="2.0611393">
        <ele>159.0</ele>
        <time>2022-05-19T09:41:16Z</time>
      </trkpt>
      <trkpt lat="47.526356" lon="2.0611253">
        <ele>158.0</ele>
        <time>2022-05-19T09:41:17Z</time>
      </trkpt>
      <trkpt lat="47.526363" lon="2.0611055">
        <ele>159.0</ele>
        <time>2022-05-19T09:41:18Z</time>
      </trkpt>
      <trkpt lat="47.52637" lon="2.061083">
        <ele>159.0</ele>
        <time>2022-05-19T09:41:19Z</time>
      </trkpt>
      <trkpt lat="47.526375" lon="2.061061">
        <ele>159.0</ele>
        <time>2022-05-19T09:41:20Z</time>
      </trkpt>
      <trkpt lat="47.52637" lon="2.0610425">
        <ele>159.0</ele>
        <time>2022-05-19T09:41:21Z</time>
      </trkpt>
      <trkpt lat="47.52637" lon="2.0610297">
        <ele>159.0</ele>
        <time>2022-05-19T09:41:22Z</time>
      </trkpt>
      <trkpt lat="47.526375" lon="2.0610168">
        <ele>159.0</ele>
        <time>2022-05-19T09:41:23Z</time>
      </trkpt>
      <trkpt lat="47.526375" lon="2.0610168">
        <ele>159.0</ele>
        <time>2022-05-19T09:41:24Z</time>
      </trkpt>
      <trkpt lat="47.526386" lon="2.0609882">
        <ele>159.0</ele>
        <time>2022-05-19T09:41:25Z</time>
      </trkpt>
      <trkpt lat="47.52639" lon="2.0609622">
        <ele>159.0</ele>
        <time>2022-05-19T09:41:26Z</time>
      </trkpt>
      <trkpt lat="47.526398" lon="2.060947">
        <ele>159.0</ele>
        <time>2022-05-19T09:41:27Z</time>
      </trkpt>
      <trkpt lat="47.5264" lon="2.060931">
        <ele>159.0</ele>
        <time>2022-05-19T09:41:28Z</time>
      </trkpt>
      <trkpt lat="47.5264" lon="2.0609295">
        <ele>159.0</ele>
        <time>2022-05-19T09:41:29Z</time>
      </trkpt>
      <trkpt lat="47.526405" lon="2.0609183">
        <ele>159.0</ele>
        <time>2022-05-19T09:41:30Z</time>
      </trkpt>
      <trkpt lat="47.52641" lon="2.0609014">
        <ele>159.0</ele>
        <time>2022-05-19T09:41:31Z</time>
      </trkpt>
      <trkpt lat="47.526417" lon="2.0608835">
        <ele>159.0</ele>
        <time>2022-05-19T09:41:32Z</time>
      </trkpt>
      <trkpt lat="47.52642" lon="2.0608642">
        <ele>159.0</ele>
        <time>2022-05-19T09:41:34Z</time>
      </trkpt>
      <trkpt lat="47.526424" lon="2.0608475">
        <ele>159.0</ele>
        <time>2022-05-19T09:41:35Z</time>
      </trkpt>
      <trkpt lat="47.52643" lon="2.060831">
        <ele>159.0</ele>
        <time>2022-05-19T09:41:36Z</time>
      </trkpt>
      <trkpt lat="47.52643" lon="2.060831">
        <ele>159.0</ele>
        <time>2022-05-19T09:41:36Z</time>
      </trkpt>
      <trkpt lat="47.526436" lon="2.0608165">
        <ele>159.0</ele>
        <time>2022-05-19T09:41:37Z</time>
      </trkpt>
      <trkpt lat="47.52644" lon="2.0607839">
        <ele>160.0</ele>
        <time>2022-05-19T09:41:39Z</time>
      </trkpt>
      <trkpt lat="47.52644" lon="2.0607839">
        <ele>160.0</ele>
        <time>2022-05-19T09:41:39Z</time>
      </trkpt>
      <trkpt lat="47.526443" lon="2.0607486">
        <ele>161.0</ele>
        <time>2022-05-19T09:41:41Z</time>
      </trkpt>
      <trkpt lat="47.52644" lon="2.0607326">
        <ele>161.0</ele>
        <time>2022-05-19T09:41:42Z</time>
      </trkpt>
      <trkpt lat="47.52644" lon="2.060715">
        <ele>161.0</ele>
        <time>2022-05-19T09:41:43Z</time>
      </trkpt>
      <trkpt lat="47.526436" lon="2.0607014">
        <ele>160.0</ele>
        <time>2022-05-19T09:41:44Z</time>
      </trkpt>
      <trkpt lat="47.526436" lon="2.0606825">
        <ele>160.0</ele>
        <time>2022-05-19T09:41:45Z</time>
      </trkpt>
      <trkpt lat="47.526436" lon="2.0606825">
        <ele>160.0</ele>
        <time>2022-05-19T09:41:45Z</time>
      </trkpt>
      <trkpt lat="47.526436" lon="2.0606456">
        <ele>159.0</ele>
        <time>2022-05-19T09:41:47Z</time>
      </trkpt>
      <trkpt lat="47.526432" lon="2.060628">
        <ele>160.0</ele>
        <time>2022-05-19T09:41:48Z</time>
      </trkpt>
      <trkpt lat="47.526432" lon="2.0606172">
        <ele>160.0</ele>
        <time>2022-05-19T09:41:49Z</time>
      </trkpt>
      <trkpt lat="47.526436" lon="2.0606093">
        <ele>161.0</ele>
        <time>2022-05-19T09:41:50Z</time>
      </trkpt>
      <trkpt lat="47.526436" lon="2.0606093">
        <ele>161.0</ele>
        <time>2022-05-19T09:41:50Z</time>
      </trkpt>
      <trkpt lat="47.526436" lon="2.060579">
        <ele>161.0</ele>
        <time>2022-05-19T09:41:52Z</time>
      </trkpt>
      <trkpt lat="47.526436" lon="2.06056">
        <ele>162.0</ele>
        <time>2022-05-19T09:41:53Z</time>
      </trkpt>
      <trkpt lat="47.526436" lon="2.06054">
        <ele>162.0</ele>
        <time>2022-05-19T09:41:54Z</time>
      </trkpt>
      <trkpt lat="47.526432" lon="2.0605206">
        <ele>162.0</ele>
        <time>2022-05-19T09:41:55Z</time>
      </trkpt>
      <trkpt lat="47.52643" lon="2.060501">
        <ele>161.0</ele>
        <time>2022-05-19T09:41:56Z</time>
      </trkpt>
      <trkpt lat="47.526424" lon="2.060478">
        <ele>162.0</ele>
        <time>2022-05-19T09:41:57Z</time>
      </trkpt>
      <trkpt lat="47.526424" lon="2.060461">
        <ele>161.0</ele>
        <time>2022-05-19T09:41:58Z</time>
      </trkpt>
      <trkpt lat="47.52642" lon="2.0604253">
        <ele>161.0</ele>
        <time>2022-05-19T09:42:00Z</time>
      </trkpt>
      <trkpt lat="47.52644" lon="2.0603423">
        <ele>160.0</ele>
        <time>2022-05-19T09:42:04Z</time>
      </trkpt>
      <trkpt lat="47.526443" lon="2.060311">
        <ele>161.0</ele>
        <time>2022-05-19T09:42:06Z</time>
      </trkpt>
      <trkpt lat="47.526443" lon="2.0602665">
        <ele>161.0</ele>
        <time>2022-05-19T09:42:08Z</time>
      </trkpt>
      <trkpt lat="47.526443" lon="2.060231">
        <ele>161.0</ele>
        <time>2022-05-19T09:42:11Z</time>
      </trkpt>
      <trkpt lat="47.526443" lon="2.060231">
        <ele>161.0</ele>
        <time>2022-05-19T09:42:11Z</time>
      </trkpt>
      <trkpt lat="47.52645" lon="2.0601995">
        <ele>161.0</ele>
        <time>2022-05-19T09:42:13Z</time>
      </trkpt>
      <trkpt lat="47.52646" lon="2.0601869">
        <ele>161.0</ele>
        <time>2022-05-19T09:42:14Z</time>
      </trkpt>
      <trkpt lat="47.52647" lon="2.0601468">
        <ele>161.0</ele>
        <time>2022-05-19T09:42:17Z</time>
      </trkpt>
      <trkpt lat="47.526474" lon="2.0601263">
        <ele>161.0</ele>
        <time>2022-05-19T09:42:18Z</time>
      </trkpt>
      <trkpt lat="47.52648" lon="2.0601006">
        <ele>161.0</ele>
        <time>2022-05-19T09:42:20Z</time>
      </trkpt>
      <trkpt lat="47.52649" lon="2.0600886">
        <ele>161.0</ele>
        <time>2022-05-19T09:42:21Z</time>
      </trkpt>
      <trkpt lat="47.52649" lon="2.0600886">
        <ele>161.0</ele>
        <time>2022-05-19T09:42:22Z</time>
      </trkpt>
      <trkpt lat="47.526512" lon="2.0600648">
        <ele>161.0</ele>
        <time>2022-05-19T09:42:24Z</time>
      </trkpt>
      <trkpt lat="47.526524" lon="2.0600417">
        <ele>161.0</ele>
        <time>2022-05-19T09:42:26Z</time>
      </trkpt>
      <trkpt lat="47.526543" lon="2.0600183">
        <ele>160.0</ele>
        <time>2022-05-19T09:42:28Z</time>
      </trkpt>
      <trkpt lat="47.52657" lon="2.0599568">
        <ele>161.0</ele>
        <time>2022-05-19T09:42:32Z</time>
      </trkpt>
      <trkpt lat="47.526577" lon="2.0599432">
        <ele>161.0</ele>
        <time>2022-05-19T09:42:33Z</time>
      </trkpt>
      <trkpt lat="47.526577" lon="2.0599432">
        <ele>161.0</ele>
        <time>2022-05-19T09:42:33Z</time>
      </trkpt>
      <trkpt lat="47.52659" lon="2.0599105">
        <ele>161.0</ele>
        <time>2022-05-19T09:42:35Z</time>
      </trkpt>
      <trkpt lat="47.5266" lon="2.059898">
        <ele>161.0</ele>
        <time>2022-05-19T09:42:36Z</time>
      </trkpt>
      <trkpt lat="47.52661" lon="2.059894">
        <ele>161.0</ele>
        <time>2022-05-19T09:42:37Z</time>
      </trkpt>
      <trkpt lat="47.52662" lon="2.059896">
        <ele>161.0</ele>
        <time>2022-05-19T09:42:38Z</time>
      </trkpt>
      <trkpt lat="47.526627" lon="2.0598881">
        <ele>161.0</ele>
        <time>2022-05-19T09:42:39Z</time>
      </trkpt>
      <trkpt lat="47.526638" lon="2.0598733">
        <ele>161.0</ele>
        <time>2022-05-19T09:42:40Z</time>
      </trkpt>
      <trkpt lat="47.52665" lon="2.0598605">
        <ele>161.0</ele>
        <time>2022-05-19T09:42:41Z</time>
      </trkpt>
      <trkpt lat="47.526657" lon="2.0598397">
        <ele>161.0</ele>
        <time>2022-05-19T09:42:42Z</time>
      </trkpt>
      <trkpt lat="47.52667" lon="2.0598204">
        <ele>160.0</ele>
        <time>2022-05-19T09:42:43Z</time>
      </trkpt>
      <trkpt lat="47.526676" lon="2.0598075">
        <ele>160.0</ele>
        <time>2022-05-19T09:42:44Z</time>
      </trkpt>
      <trkpt lat="47.52668" lon="2.0597973">
        <ele>161.0</ele>
        <time>2022-05-19T09:42:45Z</time>
      </trkpt>
      <trkpt lat="47.526684" lon="2.0597835">
        <ele>160.0</ele>
        <time>2022-05-19T09:42:46Z</time>
      </trkpt>
      <trkpt lat="47.526695" lon="2.059768">
        <ele>161.0</ele>
        <time>2022-05-19T09:42:47Z</time>
      </trkpt>
      <trkpt lat="47.5267" lon="2.0597532">
        <ele>161.0</ele>
        <time>2022-05-19T09:42:48Z</time>
      </trkpt>
      <trkpt lat="47.52671" lon="2.059745">
        <ele>161.0</ele>
        <time>2022-05-19T09:42:49Z</time>
      </trkpt>
      <trkpt lat="47.526714" lon="2.0597348">
        <ele>161.0</ele>
        <time>2022-05-19T09:42:50Z</time>
      </trkpt>
      <trkpt lat="47.526714" lon="2.059717">
        <ele>161.0</ele>
        <time>2022-05-19T09:42:51Z</time>
      </trkpt>
      <trkpt lat="47.526714" lon="2.0597">
        <ele>161.0</ele>
        <time>2022-05-19T09:42:52Z</time>
      </trkpt>
      <trkpt lat="47.526714" lon="2.0596893">
        <ele>161.0</ele>
        <time>2022-05-19T09:42:53Z</time>
      </trkpt>
      <trkpt lat="47.526714" lon="2.0596642">
        <ele>161.0</ele>
        <time>2022-05-19T09:42:54Z</time>
      </trkpt>
      <trkpt lat="47.526722" lon="2.0596452">
        <ele>161.0</ele>
        <time>2022-05-19T09:42:55Z</time>
      </trkpt>
      <trkpt lat="47.52673" lon="2.0596259">
        <ele>161.0</ele>
        <time>2022-05-19T09:42:56Z</time>
      </trkpt>
      <trkpt lat="47.526733" lon="2.059607">
        <ele>161.0</ele>
        <time>2022-05-19T09:42:57Z</time>
      </trkpt>
      <trkpt lat="47.52675" lon="2.0595932">
        <ele>161.0</ele>
        <time>2022-05-19T09:42:58Z</time>
      </trkpt>
      <trkpt lat="47.526756" lon="2.059575">
        <ele>161.0</ele>
        <time>2022-05-19T09:42:59Z</time>
      </trkpt>
      <trkpt lat="47.526756" lon="2.059575">
        <ele>161.0</ele>
        <time>2022-05-19T09:42:59Z</time>
      </trkpt>
      <trkpt lat="47.526764" lon="2.0595589">
        <ele>161.0</ele>
        <time>2022-05-19T09:43:02Z</time>
      </trkpt>
      <trkpt lat="47.526794" lon="2.0595055">
        <ele>161.0</ele>
        <time>2022-05-19T09:43:05Z</time>
      </trkpt>
      <trkpt lat="47.5268" lon="2.0594642">
        <ele>162.0</ele>
        <time>2022-05-19T09:43:08Z</time>
      </trkpt>
      <trkpt lat="47.52679" lon="2.0593565">
        <ele>163.0</ele>
        <time>2022-05-19T09:43:18Z</time>
      </trkpt>
      <trkpt lat="47.526794" lon="2.0592453">
        <ele>163.0</ele>
        <time>2022-05-19T09:43:20Z</time>
      </trkpt>
      <trkpt lat="47.526794" lon="2.0592291">
        <ele>163.0</ele>
        <time>2022-05-19T09:43:21Z</time>
      </trkpt>
      <trkpt lat="47.526794" lon="2.0592291">
        <ele>163.0</ele>
        <time>2022-05-19T09:43:21Z</time>
      </trkpt>
      <trkpt lat="47.52679" lon="2.0591974">
        <ele>163.0</ele>
        <time>2022-05-19T09:43:23Z</time>
      </trkpt>
      <trkpt lat="47.526787" lon="2.0591776">
        <ele>164.0</ele>
        <time>2022-05-19T09:43:24Z</time>
      </trkpt>
      <trkpt lat="47.526783" lon="2.0591633">
        <ele>164.0</ele>
        <time>2022-05-19T09:43:25Z</time>
      </trkpt>
      <trkpt lat="47.526775" lon="2.0591483">
        <ele>165.0</ele>
        <time>2022-05-19T09:43:26Z</time>
      </trkpt>
      <trkpt lat="47.526775" lon="2.0591366">
        <ele>165.0</ele>
        <time>2022-05-19T09:43:27Z</time>
      </trkpt>
      <trkpt lat="47.52678" lon="2.0591192">
        <ele>165.0</ele>
        <time>2022-05-19T09:43:28Z</time>
      </trkpt>
      <trkpt lat="47.526783" lon="2.0591085">
        <ele>165.0</ele>
        <time>2022-05-19T09:43:29Z</time>
      </trkpt>
      <trkpt lat="47.52678" lon="2.0590975">
        <ele>166.0</ele>
        <time>2022-05-19T09:43:30Z</time>
      </trkpt>
      <trkpt lat="47.52677" lon="2.0590901">
        <ele>165.0</ele>
        <time>2022-05-19T09:43:31Z</time>
      </trkpt>
      <trkpt lat="47.526768" lon="2.0590827">
        <ele>165.0</ele>
        <time>2022-05-19T09:43:32Z</time>
      </trkpt>
      <trkpt lat="47.526752" lon="2.059069">
        <ele>166.0</ele>
        <time>2022-05-19T09:43:34Z</time>
      </trkpt>
      <trkpt lat="47.526745" lon="2.0590518">
        <ele>166.0</ele>
        <time>2022-05-19T09:43:35Z</time>
      </trkpt>
      <trkpt lat="47.52674" lon="2.0590327">
        <ele>166.0</ele>
        <time>2022-05-19T09:43:36Z</time>
      </trkpt>
      <trkpt lat="47.526726" lon="2.059002">
        <ele>166.0</ele>
        <time>2022-05-19T09:43:38Z</time>
      </trkpt>
      <trkpt lat="47.52673" lon="2.0589855">
        <ele>165.0</ele>
        <time>2022-05-19T09:43:39Z</time>
      </trkpt>
      <trkpt lat="47.52672" lon="2.0589237">
        <ele>165.0</ele>
        <time>2022-05-19T09:43:43Z</time>
      </trkpt>
      <trkpt lat="47.52672" lon="2.0589237">
        <ele>165.0</ele>
        <time>2022-05-19T09:43:43Z</time>
      </trkpt>
      <trkpt lat="47.526714" lon="2.0588949">
        <ele>165.0</ele>
        <time>2022-05-19T09:43:45Z</time>
      </trkpt>
      <trkpt lat="47.526714" lon="2.0588713">
        <ele>165.0</ele>
        <time>2022-05-19T09:43:46Z</time>
      </trkpt>
      <trkpt lat="47.526703" lon="2.0588443">
        <ele>165.0</ele>
        <time>2022-05-19T09:43:48Z</time>
      </trkpt>
      <trkpt lat="47.526695" lon="2.0588233">
        <ele>165.0</ele>
        <time>2022-05-19T09:43:50Z</time>
      </trkpt>
      <trkpt lat="47.5267" lon="2.0588143">
        <ele>165.0</ele>
        <time>2022-05-19T09:43:51Z</time>
      </trkpt>
      <trkpt lat="47.5267" lon="2.0588098">
        <ele>165.0</ele>
        <time>2022-05-19T09:43:54Z</time>
      </trkpt>
      <trkpt lat="47.5267" lon="2.0588098">
        <ele>165.0</ele>
        <time>2022-05-19T09:43:54Z</time>
      </trkpt>
      <trkpt lat="47.52672" lon="2.0587587">
        <ele>163.0</ele>
        <time>2022-05-19T09:43:56Z</time>
      </trkpt>
      <trkpt lat="47.52672" lon="2.0587587">
        <ele>163.0</ele>
        <time>2022-05-19T09:43:56Z</time>
      </trkpt>
      <trkpt lat="47.52672" lon="2.0587587">
        <ele>163.0</ele>
        <time>2022-05-19T09:43:56Z</time>
      </trkpt>
      <trkpt lat="47.52672" lon="2.0587587">
        <ele>163.0</ele>
        <time>2022-05-19T09:43:56Z</time>
      </trkpt>
      <trkpt lat="47.526722" lon="2.058726">
        <ele>163.0</ele>
        <time>2022-05-19T09:44:00Z</time>
      </trkpt>
      <trkpt lat="47.52673" lon="2.0586777">
        <ele>162.0</ele>
        <time>2022-05-19T09:44:04Z</time>
      </trkpt>
      <trkpt lat="47.52673" lon="2.0586665">
        <ele>162.0</ele>
        <time>2022-05-19T09:44:05Z</time>
      </trkpt>
      <trkpt lat="47.52673" lon="2.0586395">
        <ele>162.0</ele>
        <time>2022-05-19T09:44:07Z</time>
      </trkpt>
      <trkpt lat="47.526726" lon="2.0586226">
        <ele>161.0</ele>
        <time>2022-05-19T09:44:08Z</time>
      </trkpt>
      <trkpt lat="47.52673" lon="2.0586088">
        <ele>161.0</ele>
        <time>2022-05-19T09:44:09Z</time>
      </trkpt>
      <trkpt lat="47.526733" lon="2.0585942">
        <ele>160.0</ele>
        <time>2022-05-19T09:44:10Z</time>
      </trkpt>
      <trkpt lat="47.52674" lon="2.0585778">
        <ele>160.0</ele>
        <time>2022-05-19T09:44:11Z</time>
      </trkpt>
      <trkpt lat="47.52674" lon="2.0585778">
        <ele>160.0</ele>
        <time>2022-05-19T09:44:11Z</time>
      </trkpt>
      <trkpt lat="47.526752" lon="2.058542">
        <ele>159.0</ele>
        <time>2022-05-19T09:44:13Z</time>
      </trkpt>
      <trkpt lat="47.526756" lon="2.0585296">
        <ele>159.0</ele>
        <time>2022-05-19T09:44:14Z</time>
      </trkpt>
      <trkpt lat="47.526756" lon="2.0585124">
        <ele>159.0</ele>
        <time>2022-05-19T09:44:15Z</time>
      </trkpt>
      <trkpt lat="47.526752" lon="2.0584984">
        <ele>159.0</ele>
        <time>2022-05-19T09:44:16Z</time>
      </trkpt>
      <trkpt lat="47.52675" lon="2.0584807">
        <ele>158.0</ele>
        <time>2022-05-19T09:44:17Z</time>
      </trkpt>
      <trkpt lat="47.526756" lon="2.058462">
        <ele>158.0</ele>
        <time>2022-05-19T09:44:18Z</time>
      </trkpt>
      <trkpt lat="47.526764" lon="2.0584438">
        <ele>158.0</ele>
        <time>2022-05-19T09:44:19Z</time>
      </trkpt>
      <trkpt lat="47.526768" lon="2.058422">
        <ele>158.0</ele>
        <time>2022-05-19T09:44:20Z</time>
      </trkpt>
      <trkpt lat="47.526768" lon="2.058403">
        <ele>158.0</ele>
        <time>2022-05-19T09:44:21Z</time>
      </trkpt>
      <trkpt lat="47.52677" lon="2.058387">
        <ele>157.0</ele>
        <time>2022-05-19T09:44:22Z</time>
      </trkpt>
      <trkpt lat="47.526775" lon="2.058376">
        <ele>158.0</ele>
        <time>2022-05-19T09:44:23Z</time>
      </trkpt>
      <trkpt lat="47.526775" lon="2.0583553">
        <ele>158.0</ele>
        <time>2022-05-19T09:44:24Z</time>
      </trkpt>
      <trkpt lat="47.526775" lon="2.0583305">
        <ele>158.0</ele>
        <time>2022-05-19T09:44:25Z</time>
      </trkpt>
      <trkpt lat="47.526775" lon="2.05831">
        <ele>158.0</ele>
        <time>2022-05-19T09:44:26Z</time>
      </trkpt>
      <trkpt lat="47.526775" lon="2.0582905">
        <ele>158.0</ele>
        <time>2022-05-19T09:44:27Z</time>
      </trkpt>
      <trkpt lat="47.526775" lon="2.0582745">
        <ele>158.0</ele>
        <time>2022-05-19T09:44:28Z</time>
      </trkpt>
      <trkpt lat="47.52678" lon="2.0582588">
        <ele>158.0</ele>
        <time>2022-05-19T09:44:29Z</time>
      </trkpt>
      <trkpt lat="47.526783" lon="2.058243">
        <ele>158.0</ele>
        <time>2022-05-19T09:44:30Z</time>
      </trkpt>
      <trkpt lat="47.52678" lon="2.0582209">
        <ele>158.0</ele>
        <time>2022-05-19T09:44:31Z</time>
      </trkpt>
      <trkpt lat="47.52678" lon="2.058197">
        <ele>159.0</ele>
        <time>2022-05-19T09:44:32Z</time>
      </trkpt>
      <trkpt lat="47.526775" lon="2.0581758">
        <ele>159.0</ele>
        <time>2022-05-19T09:44:33Z</time>
      </trkpt>
      <trkpt lat="47.52677" lon="2.0581527">
        <ele>159.0</ele>
        <time>2022-05-19T09:44:34Z</time>
      </trkpt>
      <trkpt lat="47.526768" lon="2.0581295">
        <ele>160.0</ele>
        <time>2022-05-19T09:44:35Z</time>
      </trkpt>
      <trkpt lat="47.526768" lon="2.0581183">
        <ele>160.0</ele>
        <time>2022-05-19T09:44:36Z</time>
      </trkpt>
      <trkpt lat="47.526764" lon="2.0581071">
        <ele>160.0</ele>
        <time>2022-05-19T09:44:37Z</time>
      </trkpt>
      <trkpt lat="47.526764" lon="2.058098">
        <ele>160.0</ele>
        <time>2022-05-19T09:44:38Z</time>
      </trkpt>
      <trkpt lat="47.526768" lon="2.058086">
        <ele>160.0</ele>
        <time>2022-05-19T09:44:39Z</time>
      </trkpt>
      <trkpt lat="47.52677" lon="2.0580783">
        <ele>160.0</ele>
        <time>2022-05-19T09:44:40Z</time>
      </trkpt>
      <trkpt lat="47.52677" lon="2.0580702">
        <ele>160.0</ele>
        <time>2022-05-19T09:44:41Z</time>
      </trkpt>
      <trkpt lat="47.526768" lon="2.0580633">
        <ele>160.0</ele>
        <time>2022-05-19T09:44:42Z</time>
      </trkpt>
      <trkpt lat="47.526764" lon="2.05805">
        <ele>160.0</ele>
        <time>2022-05-19T09:44:43Z</time>
      </trkpt>
      <trkpt lat="47.526764" lon="2.058035">
        <ele>160.0</ele>
        <time>2022-05-19T09:44:44Z</time>
      </trkpt>
      <trkpt lat="47.52676" lon="2.05802">
        <ele>159.0</ele>
        <time>2022-05-19T09:44:45Z</time>
      </trkpt>
      <trkpt lat="47.52676" lon="2.058002">
        <ele>160.0</ele>
        <time>2022-05-19T09:44:46Z</time>
      </trkpt>
      <trkpt lat="47.52676" lon="2.0579858">
        <ele>160.0</ele>
        <time>2022-05-19T09:44:47Z</time>
      </trkpt>
      <trkpt lat="47.526764" lon="2.0579655">
        <ele>160.0</ele>
        <time>2022-05-19T09:44:48Z</time>
      </trkpt>
      <trkpt lat="47.526764" lon="2.0579414">
        <ele>160.0</ele>
        <time>2022-05-19T09:44:49Z</time>
      </trkpt>
      <trkpt lat="47.526764" lon="2.0579128">
        <ele>161.0</ele>
        <time>2022-05-19T09:44:50Z</time>
      </trkpt>
      <trkpt lat="47.526764" lon="2.0578847">
        <ele>160.0</ele>
        <time>2022-05-19T09:44:51Z</time>
      </trkpt>
      <trkpt lat="47.52676" lon="2.057861">
        <ele>160.0</ele>
        <time>2022-05-19T09:44:52Z</time>
      </trkpt>
      <trkpt lat="47.52676" lon="2.0578372">
        <ele>161.0</ele>
        <time>2022-05-19T09:44:53Z</time>
      </trkpt>
      <trkpt lat="47.526764" lon="2.0578232">
        <ele>161.0</ele>
        <time>2022-05-19T09:44:54Z</time>
      </trkpt>
      <trkpt lat="47.526775" lon="2.0578074">
        <ele>161.0</ele>
        <time>2022-05-19T09:44:55Z</time>
      </trkpt>
      <trkpt lat="47.526783" lon="2.0578005">
        <ele>161.0</ele>
        <time>2022-05-19T09:44:56Z</time>
      </trkpt>
      <trkpt lat="47.526787" lon="2.0577896">
        <ele>161.0</ele>
        <time>2022-05-19T09:44:57Z</time>
      </trkpt>
      <trkpt lat="47.526794" lon="2.0577915">
        <ele>161.0</ele>
        <time>2022-05-19T09:44:58Z</time>
      </trkpt>
      <trkpt lat="47.526806" lon="2.0577824">
        <ele>160.0</ele>
        <time>2022-05-19T09:44:59Z</time>
      </trkpt>
      <trkpt lat="47.526814" lon="2.0577679">
        <ele>161.0</ele>
        <time>2022-05-19T09:45:00Z</time>
      </trkpt>
      <trkpt lat="47.526817" lon="2.0577521">
        <ele>161.0</ele>
        <time>2022-05-19T09:45:01Z</time>
      </trkpt>
      <trkpt lat="47.52684" lon="2.0577176">
        <ele>160.0</ele>
        <time>2022-05-19T09:45:02Z</time>
      </trkpt>
      <trkpt lat="47.52684" lon="2.0577176">
        <ele>160.0</ele>
        <time>2022-05-19T09:45:02Z</time>
      </trkpt>
      <trkpt lat="47.52685" lon="2.0576997">
        <ele>160.0</ele>
        <time>2022-05-19T09:45:04Z</time>
      </trkpt>
      <trkpt lat="47.52686" lon="2.0576882">
        <ele>160.0</ele>
        <time>2022-05-19T09:45:05Z</time>
      </trkpt>
      <trkpt lat="47.52687" lon="2.0576727">
        <ele>160.0</ele>
        <time>2022-05-19T09:45:06Z</time>
      </trkpt>
      <trkpt lat="47.526875" lon="2.0576618">
        <ele>160.0</ele>
        <time>2022-05-19T09:45:07Z</time>
      </trkpt>
      <trkpt lat="47.526882" lon="2.0576508">
        <ele>160.0</ele>
        <time>2022-05-19T09:45:08Z</time>
      </trkpt>
      <trkpt lat="47.526886" lon="2.057636">
        <ele>159.0</ele>
        <time>2022-05-19T09:45:09Z</time>
      </trkpt>
      <trkpt lat="47.526894" lon="2.05762">
        <ele>159.0</ele>
        <time>2022-05-19T09:45:10Z</time>
      </trkpt>
      <trkpt lat="47.5269" lon="2.0576022">
        <ele>158.0</ele>
        <time>2022-05-19T09:45:11Z</time>
      </trkpt>
      <trkpt lat="47.52691" lon="2.057581">
        <ele>158.0</ele>
        <time>2022-05-19T09:45:12Z</time>
      </trkpt>
      <trkpt lat="47.526913" lon="2.057535">
        <ele>157.0</ele>
        <time>2022-05-19T09:45:13Z</time>
      </trkpt>
      <trkpt lat="47.526917" lon="2.057516">
        <ele>157.0</ele>
        <time>2022-05-19T09:45:14Z</time>
      </trkpt>
      <trkpt lat="47.526917" lon="2.057516">
        <ele>157.0</ele>
        <time>2022-05-19T09:45:14Z</time>
      </trkpt>
      <trkpt lat="47.52691" lon="2.0574822">
        <ele>157.0</ele>
        <time>2022-05-19T09:45:16Z</time>
      </trkpt>
      <trkpt lat="47.5269" lon="2.0574663">
        <ele>157.0</ele>
        <time>2022-05-19T09:45:17Z</time>
      </trkpt>
      <trkpt lat="47.526894" lon="2.0574503">
        <ele>157.0</ele>
        <time>2022-05-19T09:45:18Z</time>
      </trkpt>
      <trkpt lat="47.52689" lon="2.057438">
        <ele>158.0</ele>
        <time>2022-05-19T09:45:19Z</time>
      </trkpt>
      <trkpt lat="47.526882" lon="2.0574248">
        <ele>158.0</ele>
        <time>2022-05-19T09:45:20Z</time>
      </trkpt>
      <trkpt lat="47.526875" lon="2.057417">
        <ele>158.0</ele>
        <time>2022-05-19T09:45:21Z</time>
      </trkpt>
      <trkpt lat="47.52687" lon="2.057408">
        <ele>158.0</ele>
        <time>2022-05-19T09:45:22Z</time>
      </trkpt>
      <trkpt lat="47.526863" lon="2.0573976">
        <ele>158.0</ele>
        <time>2022-05-19T09:45:23Z</time>
      </trkpt>
      <trkpt lat="47.52686" lon="2.0573893">
        <ele>157.0</ele>
        <time>2022-05-19T09:45:24Z</time>
      </trkpt>
      <trkpt lat="47.526848" lon="2.057378">
        <ele>157.0</ele>
        <time>2022-05-19T09:45:25Z</time>
      </trkpt>
      <trkpt lat="47.52684" lon="2.057364">
        <ele>157.0</ele>
        <time>2022-05-19T09:45:26Z</time>
      </trkpt>
      <trkpt lat="47.526836" lon="2.0573504">
        <ele>157.0</ele>
        <time>2022-05-19T09:45:27Z</time>
      </trkpt>
      <trkpt lat="47.52683" lon="2.057336">
        <ele>156.0</ele>
        <time>2022-05-19T09:45:28Z</time>
      </trkpt>
      <trkpt lat="47.526825" lon="2.0573177">
        <ele>156.0</ele>
        <time>2022-05-19T09:45:29Z</time>
      </trkpt>
      <trkpt lat="47.526825" lon="2.0573177">
        <ele>156.0</ele>
        <time>2022-05-19T09:45:30Z</time>
      </trkpt>
      <trkpt lat="47.526825" lon="2.0573177">
        <ele>156.0</ele>
        <time>2022-05-19T09:45:31Z</time>
      </trkpt>
      <trkpt lat="47.526817" lon="2.0572636">
        <ele>158.0</ele>
        <time>2022-05-19T09:45:32Z</time>
      </trkpt>
      <trkpt lat="47.526817" lon="2.0572448">
        <ele>158.0</ele>
        <time>2022-05-19T09:45:33Z</time>
      </trkpt>
      <trkpt lat="47.526814" lon="2.057228">
        <ele>158.0</ele>
        <time>2022-05-19T09:45:34Z</time>
      </trkpt>
      <trkpt lat="47.526806" lon="2.0572176">
        <ele>157.0</ele>
        <time>2022-05-19T09:45:35Z</time>
      </trkpt>
      <trkpt lat="47.5268" lon="2.0572035">
        <ele>157.0</ele>
        <time>2022-05-19T09:45:36Z</time>
      </trkpt>
      <trkpt lat="47.526794" lon="2.0571864">
        <ele>158.0</ele>
        <time>2022-05-19T09:45:37Z</time>
      </trkpt>
      <trkpt lat="47.526783" lon="2.0571728">
        <ele>158.0</ele>
        <time>2022-05-19T09:45:38Z</time>
      </trkpt>
      <trkpt lat="47.526783" lon="2.0571594">
        <ele>158.0</ele>
        <time>2022-05-19T09:45:39Z</time>
      </trkpt>
      <trkpt lat="47.52678" lon="2.0571496">
        <ele>158.0</ele>
        <time>2022-05-19T09:45:40Z</time>
      </trkpt>
      <trkpt lat="47.526775" lon="2.057139">
        <ele>158.0</ele>
        <time>2022-05-19T09:45:41Z</time>
      </trkpt>
      <trkpt lat="47.52677" lon="2.0571227">
        <ele>159.0</ele>
        <time>2022-05-19T09:45:42Z</time>
      </trkpt>
      <trkpt lat="47.52677" lon="2.0571012">
        <ele>159.0</ele>
        <time>2022-05-19T09:45:43Z</time>
      </trkpt>
      <trkpt lat="47.52677" lon="2.0570855">
        <ele>159.0</ele>
        <time>2022-05-19T09:45:44Z</time>
      </trkpt>
      <trkpt lat="47.52677" lon="2.05707">
        <ele>159.0</ele>
        <time>2022-05-19T09:45:45Z</time>
      </trkpt>
      <trkpt lat="47.526775" lon="2.0570567">
        <ele>159.0</ele>
        <time>2022-05-19T09:45:46Z</time>
      </trkpt>
      <trkpt lat="47.52678" lon="2.0570445">
        <ele>159.0</ele>
        <time>2022-05-19T09:45:47Z</time>
      </trkpt>
      <trkpt lat="47.52678" lon="2.0570242">
        <ele>160.0</ele>
        <time>2022-05-19T09:45:48Z</time>
      </trkpt>
      <trkpt lat="47.526787" lon="2.057002">
        <ele>160.0</ele>
        <time>2022-05-19T09:45:49Z</time>
      </trkpt>
      <trkpt lat="47.526787" lon="2.0569892">
        <ele>160.0</ele>
        <time>2022-05-19T09:45:50Z</time>
      </trkpt>
      <trkpt lat="47.526783" lon="2.0569782">
        <ele>161.0</ele>
        <time>2022-05-19T09:45:51Z</time>
      </trkpt>
      <trkpt lat="47.526783" lon="2.056961">
        <ele>161.0</ele>
        <time>2022-05-19T09:45:52Z</time>
      </trkpt>
      <trkpt lat="47.526787" lon="2.0569458">
        <ele>161.0</ele>
        <time>2022-05-19T09:45:53Z</time>
      </trkpt>
      <trkpt lat="47.526787" lon="2.0569313">
        <ele>160.0</ele>
        <time>2022-05-19T09:45:54Z</time>
      </trkpt>
      <trkpt lat="47.52679" lon="2.056921">
        <ele>161.0</ele>
        <time>2022-05-19T09:45:55Z</time>
      </trkpt>
      <trkpt lat="47.526787" lon="2.0569117">
        <ele>160.0</ele>
        <time>2022-05-19T09:45:56Z</time>
      </trkpt>
      <trkpt lat="47.52679" lon="2.0569026">
        <ele>160.0</ele>
        <time>2022-05-19T09:45:57Z</time>
      </trkpt>
      <trkpt lat="47.526794" lon="2.0568907">
        <ele>160.0</ele>
        <time>2022-05-19T09:45:58Z</time>
      </trkpt>
      <trkpt lat="47.526802" lon="2.056879">
        <ele>160.0</ele>
        <time>2022-05-19T09:45:59Z</time>
      </trkpt>
      <trkpt lat="47.526814" lon="2.0568602">
        <ele>160.0</ele>
        <time>2022-05-19T09:46:00Z</time>
      </trkpt>
      <trkpt lat="47.526825" lon="2.0568483">
        <ele>159.0</ele>
        <time>2022-05-19T09:46:01Z</time>
      </trkpt>
      <trkpt lat="47.526836" lon="2.0568428">
        <ele>159.0</ele>
        <time>2022-05-19T09:46:02Z</time>
      </trkpt>
      <trkpt lat="47.526848" lon="2.056837">
        <ele>158.0</ele>
        <time>2022-05-19T09:46:03Z</time>
      </trkpt>
      <trkpt lat="47.52686" lon="2.0568273">
        <ele>159.0</ele>
        <time>2022-05-19T09:46:04Z</time>
      </trkpt>
      <trkpt lat="47.526863" lon="2.0568194">
        <ele>158.0</ele>
        <time>2022-05-19T09:46:05Z</time>
      </trkpt>
      <trkpt lat="47.52687" lon="2.0568092">
        <ele>158.0</ele>
        <time>2022-05-19T09:46:06Z</time>
      </trkpt>
      <trkpt lat="47.52687" lon="2.0567963">
        <ele>158.0</ele>
        <time>2022-05-19T09:46:07Z</time>
      </trkpt>
      <trkpt lat="47.526875" lon="2.056776">
        <ele>158.0</ele>
        <time>2022-05-19T09:46:08Z</time>
      </trkpt>
      <trkpt lat="47.52688" lon="2.0567544">
        <ele>158.0</ele>
        <time>2022-05-19T09:46:09Z</time>
      </trkpt>
      <trkpt lat="47.52688" lon="2.0567286">
        <ele>158.0</ele>
        <time>2022-05-19T09:46:10Z</time>
      </trkpt>
      <trkpt lat="47.526886" lon="2.056706">
        <ele>158.0</ele>
        <time>2022-05-19T09:46:11Z</time>
      </trkpt>
      <trkpt lat="47.526882" lon="2.0566878">
        <ele>158.0</ele>
        <time>2022-05-19T09:46:12Z</time>
      </trkpt>
      <trkpt lat="47.526886" lon="2.0566683">
        <ele>158.0</ele>
        <time>2022-05-19T09:46:13Z</time>
      </trkpt>
      <trkpt lat="47.52689" lon="2.0566504">
        <ele>157.0</ele>
        <time>2022-05-19T09:46:14Z</time>
      </trkpt>
      <trkpt lat="47.52689" lon="2.0566304">
        <ele>157.0</ele>
        <time>2022-05-19T09:46:15Z</time>
      </trkpt>
      <trkpt lat="47.526894" lon="2.0566156">
        <ele>157.0</ele>
        <time>2022-05-19T09:46:16Z</time>
      </trkpt>
      <trkpt lat="47.526897" lon="2.0566034">
        <ele>156.0</ele>
        <time>2022-05-19T09:46:17Z</time>
      </trkpt>
      <trkpt lat="47.526897" lon="2.0565882">
        <ele>156.0</ele>
        <time>2022-05-19T09:46:18Z</time>
      </trkpt>
      <trkpt lat="47.526894" lon="2.0565653">
        <ele>156.0</ele>
        <time>2022-05-19T09:46:19Z</time>
      </trkpt>
      <trkpt lat="47.526886" lon="2.0565426">
        <ele>157.0</ele>
        <time>2022-05-19T09:46:20Z</time>
      </trkpt>
      <trkpt lat="47.52688" lon="2.0565195">
        <ele>157.0</ele>
        <time>2022-05-19T09:46:21Z</time>
      </trkpt>
      <trkpt lat="47.52687" lon="2.0564952">
        <ele>157.0</ele>
        <time>2022-05-19T09:46:22Z</time>
      </trkpt>
      <trkpt lat="47.526867" lon="2.0564742">
        <ele>157.0</ele>
        <time>2022-05-19T09:46:23Z</time>
      </trkpt>
      <trkpt lat="47.526867" lon="2.056457">
        <ele>157.0</ele>
        <time>2022-05-19T09:46:24Z</time>
      </trkpt>
      <trkpt lat="47.526875" lon="2.0564435">
        <ele>157.0</ele>
        <time>2022-05-19T09:46:25Z</time>
      </trkpt>
      <trkpt lat="47.526882" lon="2.056434">
        <ele>157.0</ele>
        <time>2022-05-19T09:46:26Z</time>
      </trkpt>
      <trkpt lat="47.52689" lon="2.0564263">
        <ele>157.0</ele>
        <time>2022-05-19T09:46:27Z</time>
      </trkpt>
      <trkpt lat="47.526894" lon="2.056422">
        <ele>156.0</ele>
        <time>2022-05-19T09:46:28Z</time>
      </trkpt>
      <trkpt lat="47.5269" lon="2.056413">
        <ele>157.0</ele>
        <time>2022-05-19T09:46:29Z</time>
      </trkpt>
      <trkpt lat="47.526905" lon="2.0564065">
        <ele>156.0</ele>
        <time>2022-05-19T09:46:30Z</time>
      </trkpt>
      <trkpt lat="47.526913" lon="2.0564075">
        <ele>157.0</ele>
        <time>2022-05-19T09:46:31Z</time>
      </trkpt>
      <trkpt lat="47.526913" lon="2.0564075">
        <ele>157.0</ele>
        <time>2022-05-19T09:46:32Z</time>
      </trkpt>
      <trkpt lat="47.526913" lon="2.0564075">
        <ele>157.0</ele>
        <time>2022-05-19T09:46:33Z</time>
      </trkpt>
      <trkpt lat="47.526924" lon="2.0563984">
        <ele>155.0</ele>
        <time>2022-05-19T09:46:34Z</time>
      </trkpt>
      <trkpt lat="47.526928" lon="2.0563927">
        <ele>155.0</ele>
        <time>2022-05-19T09:46:35Z</time>
      </trkpt>
      <trkpt lat="47.526936" lon="2.0563838">
        <ele>155.0</ele>
        <time>2022-05-19T09:46:36Z</time>
      </trkpt>
      <trkpt lat="47.526936" lon="2.0563722">
        <ele>155.0</ele>
        <time>2022-05-19T09:46:37Z</time>
      </trkpt>
      <trkpt lat="47.526943" lon="2.0563552">
        <ele>155.0</ele>
        <time>2022-05-19T09:46:38Z</time>
      </trkpt>
      <trkpt lat="47.52694" lon="2.05633">
        <ele>155.0</ele>
        <time>2022-05-19T09:46:39Z</time>
      </trkpt>
      <trkpt lat="47.52693" lon="2.056308">
        <ele>156.0</ele>
        <time>2022-05-19T09:46:40Z</time>
      </trkpt>
      <trkpt lat="47.526928" lon="2.0562916">
        <ele>156.0</ele>
        <time>2022-05-19T09:46:41Z</time>
      </trkpt>
      <trkpt lat="47.526928" lon="2.0562806">
        <ele>156.0</ele>
        <time>2022-05-19T09:46:42Z</time>
      </trkpt>
      <trkpt lat="47.526936" lon="2.0562644">
        <ele>156.0</ele>
        <time>2022-05-19T09:46:43Z</time>
      </trkpt>
      <trkpt lat="47.526943" lon="2.0562437">
        <ele>157.0</ele>
        <time>2022-05-19T09:46:44Z</time>
      </trkpt>
      <trkpt lat="47.526947" lon="2.056212">
        <ele>157.0</ele>
        <time>2022-05-19T09:46:45Z</time>
      </trkpt>
      <trkpt lat="47.526947" lon="2.0561914">
        <ele>157.0</ele>
        <time>2022-05-19T09:46:46Z</time>
      </trkpt>
      <trkpt lat="47.526947" lon="2.0561805">
        <ele>157.0</ele>
        <time>2022-05-19T09:46:47Z</time>
      </trkpt>
      <trkpt lat="47.526947" lon="2.0561764">
        <ele>157.0</ele>
        <time>2022-05-19T09:46:48Z</time>
      </trkpt>
      <trkpt lat="47.526955" lon="2.056169">
        <ele>157.0</ele>
        <time>2022-05-19T09:46:49Z</time>
      </trkpt>
      <trkpt lat="47.526966" lon="2.0561604">
        <ele>157.0</ele>
        <time>2022-05-19T09:46:50Z</time>
      </trkpt>
      <trkpt lat="47.526974" lon="2.0561538">
        <ele>157.0</ele>
        <time>2022-05-19T09:46:51Z</time>
      </trkpt>
      <trkpt lat="47.52698" lon="2.0561478">
        <ele>158.0</ele>
        <time>2022-05-19T09:46:52Z</time>
      </trkpt>
      <trkpt lat="47.526993" lon="2.0561485">
        <ele>157.0</ele>
        <time>2022-05-19T09:46:53Z</time>
      </trkpt>
      <trkpt lat="47.527004" lon="2.0561373">
        <ele>157.0</ele>
        <time>2022-05-19T09:46:54Z</time>
      </trkpt>
      <trkpt lat="47.52701" lon="2.056128">
        <ele>158.0</ele>
        <time>2022-05-19T09:46:55Z</time>
      </trkpt>
      <trkpt lat="47.52702" lon="2.0561223">
        <ele>158.0</ele>
        <time>2022-05-19T09:46:56Z</time>
      </trkpt>
      <trkpt lat="47.527023" lon="2.056118">
        <ele>157.0</ele>
        <time>2022-05-19T09:46:57Z</time>
      </trkpt>
      <trkpt lat="47.52703" lon="2.0561168">
        <ele>157.0</ele>
        <time>2022-05-19T09:46:58Z</time>
      </trkpt>
      <trkpt lat="47.52704" lon="2.056116">
        <ele>157.0</ele>
        <time>2022-05-19T09:46:59Z</time>
      </trkpt>
      <trkpt lat="47.527054" lon="2.0561163">
        <ele>158.0</ele>
        <time>2022-05-19T09:47:00Z</time>
      </trkpt>
      <trkpt lat="47.52706" lon="2.0561154">
        <ele>157.0</ele>
        <time>2022-05-19T09:47:01Z</time>
      </trkpt>
      <trkpt lat="47.527073" lon="2.056112">
        <ele>158.0</ele>
        <time>2022-05-19T09:47:02Z</time>
      </trkpt>
      <trkpt lat="47.52708" lon="2.0561063">
        <ele>158.0</ele>
        <time>2022-05-19T09:47:03Z</time>
      </trkpt>
      <trkpt lat="47.527092" lon="2.0560925">
        <ele>158.0</ele>
        <time>2022-05-19T09:47:04Z</time>
      </trkpt>
      <trkpt lat="47.5271" lon="2.0560746">
        <ele>157.0</ele>
        <time>2022-05-19T09:47:05Z</time>
      </trkpt>
      <trkpt lat="47.52711" lon="2.0560575">
        <ele>157.0</ele>
        <time>2022-05-19T09:47:06Z</time>
      </trkpt>
      <trkpt lat="47.527126" lon="2.056038">
        <ele>158.0</ele>
        <time>2022-05-19T09:47:07Z</time>
      </trkpt>
      <trkpt lat="47.527138" lon="2.056033">
        <ele>158.0</ele>
        <time>2022-05-19T09:47:08Z</time>
      </trkpt>
      <trkpt lat="47.527153" lon="2.0560231">
        <ele>158.0</ele>
        <time>2022-05-19T09:47:09Z</time>
      </trkpt>
      <trkpt lat="47.527164" lon="2.0560071">
        <ele>158.0</ele>
        <time>2022-05-19T09:47:10Z</time>
      </trkpt>
      <trkpt lat="47.52718" lon="2.0559967">
        <ele>158.0</ele>
        <time>2022-05-19T09:47:11Z</time>
      </trkpt>
      <trkpt lat="47.527195" lon="2.0559807">
        <ele>158.0</ele>
        <time>2022-05-19T09:47:12Z</time>
      </trkpt>
      <trkpt lat="47.52721" lon="2.0559728">
        <ele>159.0</ele>
        <time>2022-05-19T09:47:13Z</time>
      </trkpt>
      <trkpt lat="47.527214" lon="2.0559664">
        <ele>159.0</ele>
        <time>2022-05-19T09:47:14Z</time>
      </trkpt>
      <trkpt lat="47.527218" lon="2.055955">
        <ele>159.0</ele>
        <time>2022-05-19T09:47:15Z</time>
      </trkpt>
      <trkpt lat="47.527233" lon="2.0559437">
        <ele>159.0</ele>
        <time>2022-05-19T09:47:16Z</time>
      </trkpt>
      <trkpt lat="47.52725" lon="2.055935">
        <ele>158.0</ele>
        <time>2022-05-19T09:47:17Z</time>
      </trkpt>
      <trkpt lat="47.527267" lon="2.0559285">
        <ele>158.0</ele>
        <time>2022-05-19T09:47:18Z</time>
      </trkpt>
      <trkpt lat="47.52728" lon="2.055926">
        <ele>158.0</ele>
        <time>2022-05-19T09:47:19Z</time>
      </trkpt>
      <trkpt lat="47.527287" lon="2.0559185">
        <ele>157.0</ele>
        <time>2022-05-19T09:47:20Z</time>
      </trkpt>
      <trkpt lat="47.527298" lon="2.0559065">
        <ele>157.0</ele>
        <time>2022-05-19T09:47:21Z</time>
      </trkpt>
      <trkpt lat="47.527317" lon="2.0558968">
        <ele>156.0</ele>
        <time>2022-05-19T09:47:22Z</time>
      </trkpt>
      <trkpt lat="47.52733" lon="2.0558934">
        <ele>156.0</ele>
        <time>2022-05-19T09:47:23Z</time>
      </trkpt>
      <trkpt lat="47.527332" lon="2.0558949">
        <ele>156.0</ele>
        <time>2022-05-19T09:47:24Z</time>
      </trkpt>
      <trkpt lat="47.527336" lon="2.0558977">
        <ele>155.0</ele>
        <time>2022-05-19T09:47:25Z</time>
      </trkpt>
      <trkpt lat="47.527348" lon="2.0558925">
        <ele>155.0</ele>
        <time>2022-05-19T09:47:26Z</time>
      </trkpt>
      <trkpt lat="47.52735" lon="2.055885">
        <ele>155.0</ele>
        <time>2022-05-19T09:47:27Z</time>
      </trkpt>
      <trkpt lat="47.527355" lon="2.0558753">
        <ele>154.0</ele>
        <time>2022-05-19T09:47:28Z</time>
      </trkpt>
      <trkpt lat="47.527363" lon="2.0558677">
        <ele>154.0</ele>
        <time>2022-05-19T09:47:29Z</time>
      </trkpt>
      <trkpt lat="47.527386" lon="2.0558507">
        <ele>154.0</ele>
        <time>2022-05-19T09:47:30Z</time>
      </trkpt>
      <trkpt lat="47.5274" lon="2.0558364">
        <ele>155.0</ele>
        <time>2022-05-19T09:47:31Z</time>
      </trkpt>
      <trkpt lat="47.527416" lon="2.0558245">
        <ele>155.0</ele>
        <time>2022-05-19T09:47:32Z</time>
      </trkpt>
      <trkpt lat="47.52743" lon="2.0558195">
        <ele>155.0</ele>
        <time>2022-05-19T09:47:33Z</time>
      </trkpt>
      <trkpt lat="47.527443" lon="2.0558195">
        <ele>155.0</ele>
        <time>2022-05-19T09:47:34Z</time>
      </trkpt>
      <trkpt lat="47.527454" lon="2.0558171">
        <ele>155.0</ele>
        <time>2022-05-19T09:47:35Z</time>
      </trkpt>
      <trkpt lat="47.527462" lon="2.0558162">
        <ele>155.0</ele>
        <time>2022-05-19T09:47:36Z</time>
      </trkpt>
      <trkpt lat="47.527473" lon="2.0558155">
        <ele>154.0</ele>
        <time>2022-05-19T09:47:37Z</time>
      </trkpt>
      <trkpt lat="47.527485" lon="2.0558136">
        <ele>154.0</ele>
        <time>2022-05-19T09:47:38Z</time>
      </trkpt>
      <trkpt lat="47.527496" lon="2.0558157">
        <ele>155.0</ele>
        <time>2022-05-19T09:47:39Z</time>
      </trkpt>
      <trkpt lat="47.527504" lon="2.055812">
        <ele>155.0</ele>
        <time>2022-05-19T09:47:40Z</time>
      </trkpt>
      <trkpt lat="47.52751" lon="2.055811">
        <ele>155.0</ele>
        <time>2022-05-19T09:47:41Z</time>
      </trkpt>
      <trkpt lat="47.527523" lon="2.0558014">
        <ele>155.0</ele>
        <time>2022-05-19T09:47:42Z</time>
      </trkpt>
      <trkpt lat="47.527546" lon="2.05579">
        <ele>157.0</ele>
        <time>2022-05-19T09:47:43Z</time>
      </trkpt>
      <trkpt lat="47.52757" lon="2.05581">
        <ele>157.0</ele>
        <time>2022-05-19T09:47:44Z</time>
      </trkpt>
      <trkpt lat="47.527588" lon="2.05581">
        <ele>158.0</ele>
        <time>2022-05-19T09:47:45Z</time>
      </trkpt>
      <trkpt lat="47.527584" lon="2.0558088">
        <ele>159.0</ele>
        <time>2022-05-19T09:47:46Z</time>
      </trkpt>
      <trkpt lat="47.527584" lon="2.0558133">
        <ele>159.0</ele>
        <time>2022-05-19T09:47:47Z</time>
      </trkpt>
      <trkpt lat="47.527584" lon="2.055809">
        <ele>159.0</ele>
        <time>2022-05-19T09:47:48Z</time>
      </trkpt>
      <trkpt lat="47.52759" lon="2.0558074">
        <ele>160.0</ele>
        <time>2022-05-19T09:47:49Z</time>
      </trkpt>
      <trkpt lat="47.527588" lon="2.0558076">
        <ele>159.0</ele>
        <time>2022-05-19T09:47:50Z</time>
      </trkpt>
      <trkpt lat="47.52758" lon="2.055805">
        <ele>160.0</ele>
        <time>2022-05-19T09:47:51Z</time>
      </trkpt>
      <trkpt lat="47.52758" lon="2.0558035">
        <ele>160.0</ele>
        <time>2022-05-19T09:47:52Z</time>
      </trkpt>
      <trkpt lat="47.52758" lon="2.0558033">
        <ele>160.0</ele>
        <time>2022-05-19T09:47:53Z</time>
      </trkpt>
      <trkpt lat="47.52758" lon="2.0558035">
        <ele>160.0</ele>
        <time>2022-05-19T09:47:54Z</time>
      </trkpt>
      <trkpt lat="47.52758" lon="2.0558035">
        <ele>160.0</ele>
        <time>2022-05-19T09:47:55Z</time>
      </trkpt>
      <trkpt lat="47.52758" lon="2.0558035">
        <ele>160.0</ele>
        <time>2022-05-19T09:47:55Z</time>
      </trkpt>
      <trkpt lat="47.52758" lon="2.0558035">
        <ele>160.0</ele>
        <time>2022-05-19T09:47:55Z</time>
      </trkpt>
    </trkseg>
  </trk>
  <exerciseinfo>
    <exercisetype>1001</exercisetype>
    <distance>11362.69</distance>
    <elevationgain>0.0</elevationgain>
    <avggradient>-0.008559402858947657</avggradient>
    <duration>8764473</duration>
    <avgspeed>1.2968154</avgspeed>
  </exerciseinfo>
</gpx>